<?xml version='1.0' encoding='UTF-8'?><gpx version="1.1" creator="JPX - https://github.com/jenetics/jpx" xmlns="http://www.topografix.com/GPX/1/1"><trk><trkseg><trkpt lat="43.6608931" lon="10.6327743"><ele>17.0</ele><time>2026-03-25T09:58:06.92Z</time></trkpt><trkpt lat="43.6608719" lon="10.6328849"><ele>17.0</ele><time>2026-03-25T09:58:07.919Z</time></trkpt><trkpt lat="43.6608677" lon="10.6329763"><ele>17.0</ele><time>2026-03-25T09:58:08.92Z</time></trkpt><trkpt lat="43.6608615" lon="10.6330661"><ele>17.0</ele><time>2026-03-25T09:58:09.919Z</time></trkpt><trkpt lat="43.6608569" lon="10.6331612"><ele>17.0</ele><time>2026-03-25T09:58:10.919Z</time></trkpt><trkpt lat="43.6608583" lon="10.6332691"><ele>17.0</ele><time>2026-03-25T09:58:11.919Z</time></trkpt><trkpt lat="43.6608543" lon="10.6333938"><ele>17.0</ele><time>2026-03-25T09:58:12.92Z</time></trkpt><trkpt lat="43.6608381" lon="10.6335067"><ele>17.0</ele><time>2026-03-25T09:58:13.921Z</time></trkpt><trkpt lat="43.6607992" lon="10.6336458"><ele>17.0</ele><time>2026-03-25T09:58:15.919Z</time></trkpt><trkpt lat="43.6608104" lon="10.6337434"><ele>17.0</ele><time>2026-03-25T09:58:17.92Z</time></trkpt><trkpt lat="43.6608771" lon="10.6338265"><ele>17.0</ele><time>2026-03-25T09:58:19.919Z</time></trkpt><trkpt lat="43.660961" lon="10.6338851"><ele>17.0</ele><time>2026-03-25T09:58:21.919Z</time></trkpt><trkpt lat="43.6610829" lon="10.6339327"><ele>16.8</ele><time>2026-03-25T09:58:23.919Z</time></trkpt><trkpt lat="43.6611449" lon="10.6339602"><ele>16.6</ele><time>2026-03-25T09:58:24.919Z</time></trkpt><trkpt lat="43.6612355" lon="10.6340262"><ele>16.400000000000002</ele><time>2026-03-25T09:58:26.919Z</time></trkpt><trkpt lat="43.66128" lon="10.6341394"><ele>16.2</ele><time>2026-03-25T09:58:28.92Z</time></trkpt><trkpt lat="43.6613046" lon="10.6342857"><ele>16.0</ele><time>2026-03-25T09:58:30.919Z</time></trkpt><trkpt lat="43.661302" lon="10.6344577"><ele>15.833333333333332</ele><time>2026-03-25T09:58:32.92Z</time></trkpt><trkpt lat="43.6612563" lon="10.6346154"><ele>15.666666666666666</ele><time>2026-03-25T09:58:34.92Z</time></trkpt><trkpt lat="43.6612292" lon="10.6347305"><ele>15.5</ele><time>2026-03-25T09:58:36.92Z</time></trkpt><trkpt lat="43.661218" lon="10.6348172"><ele>15.333333333333332</ele><time>2026-03-25T09:58:38.919Z</time></trkpt><trkpt lat="43.6612639" lon="10.6349054"><ele>15.166666666666666</ele><time>2026-03-25T09:58:40.92Z</time></trkpt><trkpt lat="43.6613194" lon="10.6349474"><ele>15.0</ele><time>2026-03-25T09:58:42.921Z</time></trkpt><trkpt lat="43.661416" lon="10.6350417"><ele>15.0</ele><time>2026-03-25T09:58:47.414Z</time></trkpt><trkpt lat="43.661479" lon="10.6350346"><ele>15.0</ele><time>2026-03-25T09:58:48.852Z</time></trkpt><trkpt lat="43.6614559" lon="10.6352541"><ele>15.0</ele><time>2026-03-25T09:58:52.92Z</time></trkpt><trkpt lat="43.6614375" lon="10.635369"><ele>15.0</ele><time>2026-03-25T09:58:53.92Z</time></trkpt><trkpt lat="43.6614022" lon="10.6355326"><ele>15.0</ele><time>2026-03-25T09:58:55.919Z</time></trkpt><trkpt lat="43.6613827" lon="10.6356584"><ele>15.5</ele><time>2026-03-25T09:58:56.92Z</time></trkpt><trkpt lat="43.6613659" lon="10.6358023"><ele>16.0</ele><time>2026-03-25T09:58:57.919Z</time></trkpt><trkpt lat="43.6613502" lon="10.6359546"><ele>16.5</ele><time>2026-03-25T09:58:58.92Z</time></trkpt><trkpt lat="43.6613326" lon="10.6361196"><ele>17.0</ele><time>2026-03-25T09:58:59.92Z</time></trkpt><trkpt lat="43.6613131" lon="10.6363033"><ele>17.25</ele><time>2026-03-25T09:59:00.921Z</time></trkpt><trkpt lat="43.6612885" lon="10.6364921"><ele>17.5</ele><time>2026-03-25T09:59:01.92Z</time></trkpt><trkpt lat="43.6612624" lon="10.6366765"><ele>17.75</ele><time>2026-03-25T09:59:02.919Z</time></trkpt><trkpt lat="43.6612385" lon="10.6368535"><ele>18.0</ele><time>2026-03-25T09:59:03.919Z</time></trkpt><trkpt lat="43.6612174" lon="10.637025"><ele>18.0</ele><time>2026-03-25T09:59:04.92Z</time></trkpt><trkpt lat="43.6611992" lon="10.6371884"><ele>18.0</ele><time>2026-03-25T09:59:05.921Z</time></trkpt><trkpt lat="43.6611857" lon="10.6373291"><ele>18.0</ele><time>2026-03-25T09:59:06.921Z</time></trkpt><trkpt lat="43.661178" lon="10.637435"><ele>18.0</ele><time>2026-03-25T09:59:07.92Z</time></trkpt><trkpt lat="43.6611817" lon="10.6375838"><ele>18.0</ele><time>2026-03-25T09:59:09.919Z</time></trkpt><trkpt lat="43.6612167" lon="10.6377564"><ele>18.000000000000004</ele><time>2026-03-25T09:59:11.921Z</time></trkpt><trkpt lat="43.6612466" lon="10.637835"><ele>18.0</ele><time>2026-03-25T09:59:12.919Z</time></trkpt><trkpt lat="43.6612906" lon="10.6379035"><ele>18.0</ele><time>2026-03-25T09:59:13.92Z</time></trkpt><trkpt lat="43.6613456" lon="10.6379595"><ele>18.0</ele><time>2026-03-25T09:59:14.919Z</time></trkpt><trkpt lat="43.6614081" lon="10.6380078"><ele>18.0</ele><time>2026-03-25T09:59:15.919Z</time></trkpt><trkpt lat="43.6614767" lon="10.6380439"><ele>18.000000000000004</ele><time>2026-03-25T09:59:16.921Z</time></trkpt><trkpt lat="43.6615521" lon="10.6380785"><ele>18.0</ele><time>2026-03-25T09:59:17.92Z</time></trkpt><trkpt lat="43.6616205" lon="10.6381082"><ele>18.0</ele><time>2026-03-25T09:59:18.919Z</time></trkpt><trkpt lat="43.6616895" lon="10.638148"><ele>18.0</ele><time>2026-03-25T09:59:19.919Z</time></trkpt><trkpt lat="43.6617726" lon="10.6381819"><ele>18.0</ele><time>2026-03-25T09:59:20.92Z</time></trkpt><trkpt lat="43.6618822" lon="10.6382206"><ele>18.0</ele><time>2026-03-25T09:59:21.919Z</time></trkpt><trkpt lat="43.6619826" lon="10.6382604"><ele>18.0</ele><time>2026-03-25T09:59:22.92Z</time></trkpt><trkpt lat="43.6620708" lon="10.6382874"><ele>17.666666666666668</ele><time>2026-03-25T09:59:23.92Z</time></trkpt><trkpt lat="43.6621446" lon="10.6383019"><ele>17.333333333333332</ele><time>2026-03-25T09:59:24.92Z</time></trkpt><trkpt lat="43.6622389" lon="10.6383112"><ele>17.0</ele><time>2026-03-25T09:59:26.92Z</time></trkpt><trkpt lat="43.6623262" lon="10.6383173"><ele>16.666666666666664</ele><time>2026-03-25T09:59:29.921Z</time></trkpt><trkpt lat="43.6623895" lon="10.6383186"><ele>16.333333333333332</ele><time>2026-03-25T09:59:31.92Z</time></trkpt><trkpt lat="43.6624464" lon="10.6382462"><ele>16.0</ele><time>2026-03-25T09:59:33.919Z</time></trkpt><trkpt lat="43.662473" lon="10.6381246"><ele>16.0</ele><time>2026-03-25T09:59:35.92Z</time></trkpt><trkpt lat="43.6624682" lon="10.6379895"><ele>16.0</ele><time>2026-03-25T09:59:37.919Z</time></trkpt><trkpt lat="43.6624592" lon="10.6378306"><ele>16.0</ele><time>2026-03-25T09:59:39.92Z</time></trkpt><trkpt lat="43.6624533" lon="10.6376728"><ele>16.0</ele><time>2026-03-25T09:59:41.92Z</time></trkpt><trkpt lat="43.6624529" lon="10.6375138"><ele>16.0</ele><time>2026-03-25T09:59:43.92Z</time></trkpt><trkpt lat="43.6624545" lon="10.637365"><ele>15.999999999999998</ele><time>2026-03-25T09:59:45.92Z</time></trkpt><trkpt lat="43.6624512" lon="10.6371979"><ele>16.0</ele><time>2026-03-25T09:59:47.919Z</time></trkpt><trkpt lat="43.6624519" lon="10.6371042"><ele>16.0</ele><time>2026-03-25T09:59:48.919Z</time></trkpt><trkpt lat="43.6624596" lon="10.6370082"><ele>16.0</ele><time>2026-03-25T09:59:49.92Z</time></trkpt><trkpt lat="43.6624679" lon="10.6369083"><ele>15.999999999999998</ele><time>2026-03-25T09:59:50.919Z</time></trkpt><trkpt lat="43.6624727" lon="10.6368118"><ele>16.0</ele><time>2026-03-25T09:59:51.92Z</time></trkpt><trkpt lat="43.6624793" lon="10.6367207"><ele>16.0</ele><time>2026-03-25T09:59:52.92Z</time></trkpt><trkpt lat="43.6624836" lon="10.6366287"><ele>15.999999999999998</ele><time>2026-03-25T09:59:53.92Z</time></trkpt><trkpt lat="43.6624872" lon="10.6365408"><ele>16.0</ele><time>2026-03-25T09:59:54.92Z</time></trkpt><trkpt lat="43.6624966" lon="10.6364499"><ele>16.0</ele><time>2026-03-25T09:59:55.921Z</time></trkpt><trkpt lat="43.6625034" lon="10.636359"><ele>15.999999999999998</ele><time>2026-03-25T09:59:56.921Z</time></trkpt><trkpt lat="43.6625144" lon="10.6362622"><ele>16.0</ele><time>2026-03-25T09:59:57.92Z</time></trkpt><trkpt lat="43.6625216" lon="10.6361637"><ele>16.0</ele><time>2026-03-25T09:59:58.919Z</time></trkpt><trkpt lat="43.6625241" lon="10.6360638"><ele>16.333333333333332</ele><time>2026-03-25T09:59:59.92Z</time></trkpt><trkpt lat="43.6625225" lon="10.6359613"><ele>16.666666666666664</ele><time>2026-03-25T10:00:00.92Z</time></trkpt><trkpt lat="43.6625238" lon="10.6358565"><ele>17.0</ele><time>2026-03-25T10:00:01.921Z</time></trkpt><trkpt lat="43.6625266" lon="10.6357489"><ele>17.333333333333332</ele><time>2026-03-25T10:00:02.92Z</time></trkpt><trkpt lat="43.6625309" lon="10.6356343"><ele>17.666666666666668</ele><time>2026-03-25T10:00:03.919Z</time></trkpt><trkpt lat="43.6625369" lon="10.6355173"><ele>18.0</ele><time>2026-03-25T10:00:04.92Z</time></trkpt><trkpt lat="43.6625405" lon="10.6354069"><ele>17.857142857142858</ele><time>2026-03-25T10:00:05.919Z</time></trkpt><trkpt lat="43.6625453" lon="10.6353008"><ele>17.714285714285715</ele><time>2026-03-25T10:00:06.92Z</time></trkpt><trkpt lat="43.6625507" lon="10.6351983"><ele>17.57142857142857</ele><time>2026-03-25T10:00:07.921Z</time></trkpt><trkpt lat="43.6625534" lon="10.6350992"><ele>17.42857142857143</ele><time>2026-03-25T10:00:08.919Z</time></trkpt><trkpt lat="43.6625545" lon="10.635002"><ele>17.285714285714285</ele><time>2026-03-25T10:00:09.92Z</time></trkpt><trkpt lat="43.6625599" lon="10.6349072"><ele>17.142857142857142</ele><time>2026-03-25T10:00:10.919Z</time></trkpt><trkpt lat="43.6625637" lon="10.6348139"><ele>17.0</ele><time>2026-03-25T10:00:11.92Z</time></trkpt><trkpt lat="43.6625679" lon="10.6346562"><ele>17.0</ele><time>2026-03-25T10:00:13.919Z</time></trkpt><trkpt lat="43.6625757" lon="10.6345538"><ele>17.0</ele><time>2026-03-25T10:00:15.92Z</time></trkpt><trkpt lat="43.6625973" lon="10.6343871"><ele>17.0</ele><time>2026-03-25T10:00:17.919Z</time></trkpt><trkpt lat="43.662599" lon="10.6342788"><ele>17.0</ele><time>2026-03-25T10:00:18.92Z</time></trkpt><trkpt lat="43.6625991" lon="10.6341621"><ele>17.0</ele><time>2026-03-25T10:00:19.921Z</time></trkpt><trkpt lat="43.662605" lon="10.6340516"><ele>17.0</ele><time>2026-03-25T10:00:20.919Z</time></trkpt><trkpt lat="43.6626097" lon="10.6339582"><ele>17.2</ele><time>2026-03-25T10:00:21.92Z</time></trkpt><trkpt lat="43.6626069" lon="10.6338127"><ele>17.4</ele><time>2026-03-25T10:00:23.92Z</time></trkpt><trkpt lat="43.6626066" lon="10.6336316"><ele>17.6</ele><time>2026-03-25T10:00:25.919Z</time></trkpt><trkpt lat="43.6626186" lon="10.633516"><ele>17.8</ele><time>2026-03-25T10:00:26.92Z</time></trkpt><trkpt lat="43.6626276" lon="10.6334038"><ele>18.0</ele><time>2026-03-25T10:00:27.919Z</time></trkpt><trkpt lat="43.6626309" lon="10.633291"><ele>18.0</ele><time>2026-03-25T10:00:28.92Z</time></trkpt><trkpt lat="43.6626189" lon="10.6331838"><ele>18.0</ele><time>2026-03-25T10:00:29.92Z</time></trkpt><trkpt lat="43.6626236" lon="10.6330737"><ele>18.0</ele><time>2026-03-25T10:00:30.92Z</time></trkpt><trkpt lat="43.6626269" lon="10.6329652"><ele>18.0</ele><time>2026-03-25T10:00:31.92Z</time></trkpt><trkpt lat="43.6626263" lon="10.6328539"><ele>18.0</ele><time>2026-03-25T10:00:32.92Z</time></trkpt><trkpt lat="43.662621" lon="10.6327479"><ele>18.0</ele><time>2026-03-25T10:00:33.92Z</time></trkpt><trkpt lat="43.6626231" lon="10.632639"><ele>17.833333333333332</ele><time>2026-03-25T10:00:34.919Z</time></trkpt><trkpt lat="43.6626298" lon="10.6325262"><ele>17.666666666666668</ele><time>2026-03-25T10:00:35.92Z</time></trkpt><trkpt lat="43.6626296" lon="10.6324105"><ele>17.5</ele><time>2026-03-25T10:00:36.92Z</time></trkpt><trkpt lat="43.662634" lon="10.6322941"><ele>17.333333333333336</ele><time>2026-03-25T10:00:37.919Z</time></trkpt><trkpt lat="43.6626358" lon="10.6321723"><ele>17.166666666666668</ele><time>2026-03-25T10:00:38.919Z</time></trkpt><trkpt lat="43.6626424" lon="10.6320485"><ele>17.0</ele><time>2026-03-25T10:00:39.919Z</time></trkpt><trkpt lat="43.6626455" lon="10.6319311"><ele>16.71428571428571</ele><time>2026-03-25T10:00:40.92Z</time></trkpt><trkpt lat="43.6626436" lon="10.6318311"><ele>16.428571428571427</ele><time>2026-03-25T10:00:41.92Z</time></trkpt><trkpt lat="43.662649" lon="10.6317368"><ele>16.142857142857142</ele><time>2026-03-25T10:00:42.919Z</time></trkpt><trkpt lat="43.662653" lon="10.6316432"><ele>15.857142857142856</ele><time>2026-03-25T10:00:43.92Z</time></trkpt><trkpt lat="43.6626574" lon="10.6315504"><ele>15.57142857142857</ele><time>2026-03-25T10:00:44.919Z</time></trkpt><trkpt lat="43.6626627" lon="10.6314485"><ele>15.285714285714286</ele><time>2026-03-25T10:00:45.919Z</time></trkpt><trkpt lat="43.662668" lon="10.6313327"><ele>15.0</ele><time>2026-03-25T10:00:46.92Z</time></trkpt><trkpt lat="43.6626687" lon="10.6312085"><ele>15.2</ele><time>2026-03-25T10:00:47.919Z</time></trkpt><trkpt lat="43.6626729" lon="10.6310784"><ele>15.4</ele><time>2026-03-25T10:00:48.919Z</time></trkpt><trkpt lat="43.6626773" lon="10.6309378"><ele>15.600000000000001</ele><time>2026-03-25T10:00:49.919Z</time></trkpt><trkpt lat="43.6626826" lon="10.6307898"><ele>15.8</ele><time>2026-03-25T10:00:50.92Z</time></trkpt><trkpt lat="43.6626907" lon="10.6306392"><ele>16.0</ele><time>2026-03-25T10:00:51.92Z</time></trkpt><trkpt lat="43.6626973" lon="10.6304889"><ele>16.0</ele><time>2026-03-25T10:00:52.92Z</time></trkpt><trkpt lat="43.6627024" lon="10.6303457"><ele>16.0</ele><time>2026-03-25T10:00:53.921Z</time></trkpt><trkpt lat="43.6627079" lon="10.6302116"><ele>16.0</ele><time>2026-03-25T10:00:54.92Z</time></trkpt><trkpt lat="43.6627103" lon="10.630077"><ele>16.0</ele><time>2026-03-25T10:00:55.919Z</time></trkpt><trkpt lat="43.6627129" lon="10.6299468"><ele>16.0</ele><time>2026-03-25T10:00:56.92Z</time></trkpt><trkpt lat="43.6627219" lon="10.6298303"><ele>16.0</ele><time>2026-03-25T10:00:57.921Z</time></trkpt><trkpt lat="43.662726" lon="10.6297292"><ele>15.999999999999998</ele><time>2026-03-25T10:00:58.92Z</time></trkpt><trkpt lat="43.662734" lon="10.6296424"><ele>16.0</ele><time>2026-03-25T10:00:59.919Z</time></trkpt><trkpt lat="43.662744" lon="10.6295527"><ele>16.0</ele><time>2026-03-25T10:01:00.92Z</time></trkpt><trkpt lat="43.662751" lon="10.6294637"><ele>15.999999999999998</ele><time>2026-03-25T10:01:01.92Z</time></trkpt><trkpt lat="43.662756" lon="10.6293742"><ele>16.0</ele><time>2026-03-25T10:01:02.92Z</time></trkpt><trkpt lat="43.6627749" lon="10.6292858"><ele>16.0</ele><time>2026-03-25T10:01:03.919Z</time></trkpt><trkpt lat="43.6628071" lon="10.6291623"><ele>16.166666666666664</ele><time>2026-03-25T10:01:05.92Z</time></trkpt><trkpt lat="43.6628602" lon="10.629093"><ele>16.333333333333332</ele><time>2026-03-25T10:01:07.92Z</time></trkpt><trkpt lat="43.6629402" lon="10.629056"><ele>16.5</ele><time>2026-03-25T10:01:09.92Z</time></trkpt><trkpt lat="43.6630464" lon="10.6290729"><ele>16.666666666666668</ele><time>2026-03-25T10:01:11.92Z</time></trkpt><trkpt lat="43.6631099" lon="10.6290803"><ele>16.833333333333336</ele><time>2026-03-25T10:01:12.919Z</time></trkpt><trkpt lat="43.6631875" lon="10.6290867"><ele>17.0</ele><time>2026-03-25T10:01:13.92Z</time></trkpt><trkpt lat="43.6632724" lon="10.6290955"><ele>17.0</ele><time>2026-03-25T10:01:14.92Z</time></trkpt><trkpt lat="43.6633697" lon="10.6291243"><ele>17.0</ele><time>2026-03-25T10:01:15.92Z</time></trkpt><trkpt lat="43.6634701" lon="10.6291418"><ele>17.0</ele><time>2026-03-25T10:01:16.92Z</time></trkpt><trkpt lat="43.6635648" lon="10.6291613"><ele>17.0</ele><time>2026-03-25T10:01:17.92Z</time></trkpt><trkpt lat="43.6636542" lon="10.6291804"><ele>17.0</ele><time>2026-03-25T10:01:18.92Z</time></trkpt><trkpt lat="43.6637412" lon="10.6291993"><ele>17.0</ele><time>2026-03-25T10:01:19.92Z</time></trkpt><trkpt lat="43.6638274" lon="10.6292205"><ele>17.0</ele><time>2026-03-25T10:01:20.92Z</time></trkpt><trkpt lat="43.6639129" lon="10.6292343"><ele>17.0</ele><time>2026-03-25T10:01:21.92Z</time></trkpt><trkpt lat="43.6639966" lon="10.6292493"><ele>17.0</ele><time>2026-03-25T10:01:22.92Z</time></trkpt><trkpt lat="43.6640805" lon="10.6292646"><ele>17.0</ele><time>2026-03-25T10:01:23.919Z</time></trkpt><trkpt lat="43.6641602" lon="10.6292811"><ele>17.0</ele><time>2026-03-25T10:01:24.919Z</time></trkpt><trkpt lat="43.6642359" lon="10.629301"><ele>17.0</ele><time>2026-03-25T10:01:25.919Z</time></trkpt><trkpt lat="43.6643515" lon="10.6293112"><ele>17.0</ele><time>2026-03-25T10:01:27.92Z</time></trkpt><trkpt lat="43.6644145" lon="10.6293215"><ele>17.0</ele><time>2026-03-25T10:01:29.921Z</time></trkpt><trkpt lat="43.6644705" lon="10.6292359"><ele>17.0</ele><time>2026-03-25T10:01:36.92Z</time></trkpt><trkpt lat="43.6645026" lon="10.6291149"><ele>17.0</ele><time>2026-03-25T10:01:37.92Z</time></trkpt><trkpt lat="43.6645219" lon="10.628988"><ele>16.833333333333336</ele><time>2026-03-25T10:01:38.92Z</time></trkpt><trkpt lat="43.6645348" lon="10.628872"><ele>16.666666666666668</ele><time>2026-03-25T10:01:39.92Z</time></trkpt><trkpt lat="43.6645514" lon="10.6287683"><ele>16.5</ele><time>2026-03-25T10:01:40.921Z</time></trkpt><trkpt lat="43.6645662" lon="10.6286721"><ele>16.333333333333332</ele><time>2026-03-25T10:01:41.92Z</time></trkpt><trkpt lat="43.6645806" lon="10.6285657"><ele>16.166666666666664</ele><time>2026-03-25T10:01:42.92Z</time></trkpt><trkpt lat="43.6645931" lon="10.6284494"><ele>16.0</ele><time>2026-03-25T10:01:43.92Z</time></trkpt><trkpt lat="43.6646083" lon="10.6283249"><ele>15.8</ele><time>2026-03-25T10:01:44.92Z</time></trkpt><trkpt lat="43.6646274" lon="10.6281856"><ele>15.600000000000001</ele><time>2026-03-25T10:01:45.921Z</time></trkpt><trkpt lat="43.6646502" lon="10.6280368"><ele>15.4</ele><time>2026-03-25T10:01:46.92Z</time></trkpt><trkpt lat="43.6646725" lon="10.6278814"><ele>15.2</ele><time>2026-03-25T10:01:47.919Z</time></trkpt><trkpt lat="43.6646952" lon="10.6277195"><ele>15.0</ele><time>2026-03-25T10:01:48.92Z</time></trkpt><trkpt lat="43.6647164" lon="10.6275622"><ele>15.0</ele><time>2026-03-25T10:01:49.919Z</time></trkpt><trkpt lat="43.6647379" lon="10.6274176"><ele>15.0</ele><time>2026-03-25T10:01:50.92Z</time></trkpt><trkpt lat="43.6647588" lon="10.6272815"><ele>15.0</ele><time>2026-03-25T10:01:51.919Z</time></trkpt><trkpt lat="43.664776" lon="10.6271469"><ele>15.0</ele><time>2026-03-25T10:01:52.921Z</time></trkpt><trkpt lat="43.6647934" lon="10.6270128"><ele>15.0</ele><time>2026-03-25T10:01:53.92Z</time></trkpt><trkpt lat="43.6648097" lon="10.6268779"><ele>15.0</ele><time>2026-03-25T10:01:54.919Z</time></trkpt><trkpt lat="43.664823" lon="10.6267308"><ele>15.0</ele><time>2026-03-25T10:01:55.92Z</time></trkpt><trkpt lat="43.6648379" lon="10.6265933"><ele>15.0</ele><time>2026-03-25T10:01:56.92Z</time></trkpt><trkpt lat="43.6648586" lon="10.6264611"><ele>15.0</ele><time>2026-03-25T10:01:57.919Z</time></trkpt><trkpt lat="43.6648765" lon="10.6263285"><ele>15.0</ele><time>2026-03-25T10:01:58.919Z</time></trkpt><trkpt lat="43.6648938" lon="10.6261996"><ele>15.0</ele><time>2026-03-25T10:01:59.919Z</time></trkpt><trkpt lat="43.6649137" lon="10.6260699"><ele>15.0</ele><time>2026-03-25T10:02:00.92Z</time></trkpt><trkpt lat="43.6649268" lon="10.6259376"><ele>15.0</ele><time>2026-03-25T10:02:01.921Z</time></trkpt><trkpt lat="43.6649425" lon="10.6258032"><ele>15.0</ele><time>2026-03-25T10:02:02.919Z</time></trkpt><trkpt lat="43.6649567" lon="10.6256699"><ele>15.0</ele><time>2026-03-25T10:02:03.92Z</time></trkpt><trkpt lat="43.6649686" lon="10.6255421"><ele>15.0</ele><time>2026-03-25T10:02:04.92Z</time></trkpt><trkpt lat="43.6649816" lon="10.6254226"><ele>15.0</ele><time>2026-03-25T10:02:05.92Z</time></trkpt><trkpt lat="43.6649984" lon="10.6253152"><ele>15.0</ele><time>2026-03-25T10:02:06.92Z</time></trkpt><trkpt lat="43.6650269" lon="10.625226"><ele>15.0</ele><time>2026-03-25T10:02:07.92Z</time></trkpt><trkpt lat="43.6651157" lon="10.6251578"><ele>15.0</ele><time>2026-03-25T10:02:09.92Z</time></trkpt><trkpt lat="43.6651977" lon="10.6252087"><ele>15.0</ele><time>2026-03-25T10:02:11.92Z</time></trkpt><trkpt lat="43.6652404" lon="10.625338"><ele>15.0</ele><time>2026-03-25T10:02:13.92Z</time></trkpt><trkpt lat="43.6652596" lon="10.6255274"><ele>15.0</ele><time>2026-03-25T10:02:15.919Z</time></trkpt><trkpt lat="43.6652728" lon="10.6256451"><ele>15.0</ele><time>2026-03-25T10:02:16.92Z</time></trkpt><trkpt lat="43.6652871" lon="10.6257827"><ele>15.0</ele><time>2026-03-25T10:02:17.92Z</time></trkpt><trkpt lat="43.6652988" lon="10.6259313"><ele>15.0</ele><time>2026-03-25T10:02:18.92Z</time></trkpt><trkpt lat="43.6653052" lon="10.6260716"><ele>14.6</ele><time>2026-03-25T10:02:19.92Z</time></trkpt><trkpt lat="43.6653103" lon="10.6262065"><ele>14.2</ele><time>2026-03-25T10:02:20.921Z</time></trkpt><trkpt lat="43.6653181" lon="10.6263477"><ele>13.8</ele><time>2026-03-25T10:02:21.919Z</time></trkpt><trkpt lat="43.6653159" lon="10.6264871"><ele>13.4</ele><time>2026-03-25T10:02:22.92Z</time></trkpt><trkpt lat="43.6653107" lon="10.6266302"><ele>13.0</ele><time>2026-03-25T10:02:23.92Z</time></trkpt><trkpt lat="43.6652951" lon="10.6267839"><ele>13.5</ele><time>2026-03-25T10:02:24.919Z</time></trkpt><trkpt lat="43.6652776" lon="10.6269412"><ele>14.0</ele><time>2026-03-25T10:02:25.919Z</time></trkpt><trkpt lat="43.6652563" lon="10.627104"><ele>14.5</ele><time>2026-03-25T10:02:26.919Z</time></trkpt><trkpt lat="43.6652345" lon="10.6272721"><ele>15.0</ele><time>2026-03-25T10:02:27.919Z</time></trkpt><trkpt lat="43.6652159" lon="10.6274524"><ele>15.0</ele><time>2026-03-25T10:02:28.92Z</time></trkpt><trkpt lat="43.6651987" lon="10.6276309"><ele>15.0</ele><time>2026-03-25T10:02:29.92Z</time></trkpt><trkpt lat="43.6651804" lon="10.6278038"><ele>15.0</ele><time>2026-03-25T10:02:30.919Z</time></trkpt><trkpt lat="43.6651612" lon="10.6279762"><ele>15.0</ele><time>2026-03-25T10:02:31.919Z</time></trkpt><trkpt lat="43.6651391" lon="10.6281493"><ele>15.0</ele><time>2026-03-25T10:02:32.92Z</time></trkpt><trkpt lat="43.6651168" lon="10.6283273"><ele>15.0</ele><time>2026-03-25T10:02:33.919Z</time></trkpt><trkpt lat="43.6651004" lon="10.6285148"><ele>15.0</ele><time>2026-03-25T10:02:34.92Z</time></trkpt><trkpt lat="43.6650864" lon="10.6287084"><ele>15.0</ele><time>2026-03-25T10:02:35.919Z</time></trkpt><trkpt lat="43.6650724" lon="10.6289124"><ele>15.0</ele><time>2026-03-25T10:02:36.919Z</time></trkpt><trkpt lat="43.6650636" lon="10.6291173"><ele>15.0</ele><time>2026-03-25T10:02:37.92Z</time></trkpt><trkpt lat="43.6650587" lon="10.6293213"><ele>15.0</ele><time>2026-03-25T10:02:38.919Z</time></trkpt><trkpt lat="43.6650578" lon="10.6295183"><ele>15.0</ele><time>2026-03-25T10:02:39.92Z</time></trkpt><trkpt lat="43.6650574" lon="10.6297109"><ele>15.0</ele><time>2026-03-25T10:02:40.921Z</time></trkpt><trkpt lat="43.6650586" lon="10.6298966"><ele>15.0</ele><time>2026-03-25T10:02:41.919Z</time></trkpt><trkpt lat="43.6650645" lon="10.6300869"><ele>15.0</ele><time>2026-03-25T10:02:42.919Z</time></trkpt><trkpt lat="43.6650719" lon="10.6302823"><ele>15.0</ele><time>2026-03-25T10:02:43.919Z</time></trkpt><trkpt lat="43.6650794" lon="10.630484"><ele>15.0</ele><time>2026-03-25T10:02:44.919Z</time></trkpt><trkpt lat="43.6650854" lon="10.6306799"><ele>15.0</ele><time>2026-03-25T10:02:45.919Z</time></trkpt><trkpt lat="43.6650948" lon="10.6308786"><ele>15.0</ele><time>2026-03-25T10:02:46.921Z</time></trkpt><trkpt lat="43.6651083" lon="10.6310796"><ele>15.0</ele><time>2026-03-25T10:02:47.92Z</time></trkpt><trkpt lat="43.6651292" lon="10.6312801"><ele>15.25</ele><time>2026-03-25T10:02:48.92Z</time></trkpt><trkpt lat="43.6651564" lon="10.6314812"><ele>15.5</ele><time>2026-03-25T10:02:49.92Z</time></trkpt><trkpt lat="43.6651857" lon="10.6316811"><ele>15.75</ele><time>2026-03-25T10:02:50.92Z</time></trkpt><trkpt lat="43.6652192" lon="10.6318885"><ele>16.0</ele><time>2026-03-25T10:02:51.92Z</time></trkpt><trkpt lat="43.6652507" lon="10.632094"><ele>15.0</ele><time>2026-03-25T10:02:52.92Z</time></trkpt><trkpt lat="43.6652827" lon="10.6323077"><ele>14.0</ele><time>2026-03-25T10:02:53.92Z</time></trkpt><trkpt lat="43.665316" lon="10.6325104"><ele>13.0</ele><time>2026-03-25T10:02:54.92Z</time></trkpt><trkpt lat="43.6653474" lon="10.6327046"><ele>13.5</ele><time>2026-03-25T10:02:55.92Z</time></trkpt><trkpt lat="43.6653787" lon="10.6328889"><ele>14.0</ele><time>2026-03-25T10:02:56.92Z</time></trkpt><trkpt lat="43.6654041" lon="10.6330658"><ele>14.5</ele><time>2026-03-25T10:02:57.92Z</time></trkpt><trkpt lat="43.6654315" lon="10.6332422"><ele>15.0</ele><time>2026-03-25T10:02:58.92Z</time></trkpt><trkpt lat="43.6654609" lon="10.6334189"><ele>15.0</ele><time>2026-03-25T10:02:59.921Z</time></trkpt><trkpt lat="43.6654896" lon="10.6335861"><ele>15.0</ele><time>2026-03-25T10:03:00.92Z</time></trkpt><trkpt lat="43.665517" lon="10.6337492"><ele>15.0</ele><time>2026-03-25T10:03:01.92Z</time></trkpt><trkpt lat="43.6655378" lon="10.6338966"><ele>15.0</ele><time>2026-03-25T10:03:02.92Z</time></trkpt><trkpt lat="43.6655603" lon="10.6340229"><ele>15.0</ele><time>2026-03-25T10:03:03.92Z</time></trkpt><trkpt lat="43.6655735" lon="10.6341555"><ele>14.8</ele><time>2026-03-25T10:03:04.919Z</time></trkpt><trkpt lat="43.6655893" lon="10.634283"><ele>14.6</ele><time>2026-03-25T10:03:05.919Z</time></trkpt><trkpt lat="43.6656059" lon="10.6344139"><ele>14.399999999999999</ele><time>2026-03-25T10:03:06.921Z</time></trkpt><trkpt lat="43.6656291" lon="10.6345545"><ele>14.2</ele><time>2026-03-25T10:03:07.92Z</time></trkpt><trkpt lat="43.6656578" lon="10.6347023"><ele>14.0</ele><time>2026-03-25T10:03:08.92Z</time></trkpt><trkpt lat="43.6656878" lon="10.6348452"><ele>13.75</ele><time>2026-03-25T10:03:09.92Z</time></trkpt><trkpt lat="43.6657153" lon="10.6349897"><ele>13.5</ele><time>2026-03-25T10:03:10.92Z</time></trkpt><trkpt lat="43.6657423" lon="10.6351391"><ele>13.25</ele><time>2026-03-25T10:03:11.92Z</time></trkpt><trkpt lat="43.6657737" lon="10.6352982"><ele>13.0</ele><time>2026-03-25T10:03:12.92Z</time></trkpt><trkpt lat="43.6658047" lon="10.6354765"><ele>13.0</ele><time>2026-03-25T10:03:13.919Z</time></trkpt><trkpt lat="43.6658335" lon="10.6356535"><ele>13.0</ele><time>2026-03-25T10:03:14.92Z</time></trkpt><trkpt lat="43.6658628" lon="10.6358314"><ele>13.0</ele><time>2026-03-25T10:03:15.921Z</time></trkpt><trkpt lat="43.6658912" lon="10.6360106"><ele>13.0</ele><time>2026-03-25T10:03:16.92Z</time></trkpt><trkpt lat="43.6659211" lon="10.6361911"><ele>13.5</ele><time>2026-03-25T10:03:17.921Z</time></trkpt><trkpt lat="43.6659532" lon="10.6363742"><ele>14.0</ele><time>2026-03-25T10:03:18.92Z</time></trkpt><trkpt lat="43.6659834" lon="10.6365556"><ele>14.5</ele><time>2026-03-25T10:03:19.92Z</time></trkpt><trkpt lat="43.6660118" lon="10.6367337"><ele>15.0</ele><time>2026-03-25T10:03:20.921Z</time></trkpt><trkpt lat="43.6660415" lon="10.6369185"><ele>14.5</ele><time>2026-03-25T10:03:21.92Z</time></trkpt><trkpt lat="43.6660733" lon="10.6371035"><ele>14.0</ele><time>2026-03-25T10:03:22.92Z</time></trkpt><trkpt lat="43.6661084" lon="10.6372908"><ele>13.5</ele><time>2026-03-25T10:03:23.921Z</time></trkpt><trkpt lat="43.6661419" lon="10.6374748"><ele>13.0</ele><time>2026-03-25T10:03:24.919Z</time></trkpt><trkpt lat="43.6661776" lon="10.6376482"><ele>13.25</ele><time>2026-03-25T10:03:25.921Z</time></trkpt><trkpt lat="43.6662104" lon="10.6378245"><ele>13.5</ele><time>2026-03-25T10:03:26.919Z</time></trkpt><trkpt lat="43.6662434" lon="10.6379958"><ele>13.75</ele><time>2026-03-25T10:03:27.92Z</time></trkpt><trkpt lat="43.6662797" lon="10.6381758"><ele>14.0</ele><time>2026-03-25T10:03:28.92Z</time></trkpt><trkpt lat="43.6663136" lon="10.6383582"><ele>14.0</ele><time>2026-03-25T10:03:29.92Z</time></trkpt><trkpt lat="43.6663455" lon="10.6385402"><ele>14.0</ele><time>2026-03-25T10:03:30.92Z</time></trkpt><trkpt lat="43.6663777" lon="10.6387225"><ele>14.0</ele><time>2026-03-25T10:03:31.92Z</time></trkpt><trkpt lat="43.666405" lon="10.6389058"><ele>14.0</ele><time>2026-03-25T10:03:32.92Z</time></trkpt><trkpt lat="43.6664284" lon="10.6390873"><ele>14.0</ele><time>2026-03-25T10:03:33.92Z</time></trkpt><trkpt lat="43.6664527" lon="10.6392667"><ele>14.0</ele><time>2026-03-25T10:03:34.919Z</time></trkpt><trkpt lat="43.6664782" lon="10.6394476"><ele>14.0</ele><time>2026-03-25T10:03:35.92Z</time></trkpt><trkpt lat="43.6664993" lon="10.6396281"><ele>14.0</ele><time>2026-03-25T10:03:36.92Z</time></trkpt><trkpt lat="43.6665208" lon="10.6398113"><ele>14.0</ele><time>2026-03-25T10:03:37.919Z</time></trkpt><trkpt lat="43.6665429" lon="10.6399923"><ele>14.0</ele><time>2026-03-25T10:03:38.919Z</time></trkpt><trkpt lat="43.6665639" lon="10.6401746"><ele>14.0</ele><time>2026-03-25T10:03:39.92Z</time></trkpt><trkpt lat="43.6665866" lon="10.6403514"><ele>14.0</ele><time>2026-03-25T10:03:40.92Z</time></trkpt><trkpt lat="43.6666079" lon="10.6405302"><ele>13.75</ele><time>2026-03-25T10:03:41.92Z</time></trkpt><trkpt lat="43.6666247" lon="10.6407005"><ele>13.5</ele><time>2026-03-25T10:03:42.921Z</time></trkpt><trkpt lat="43.6666379" lon="10.6408639"><ele>13.25</ele><time>2026-03-25T10:03:43.92Z</time></trkpt><trkpt lat="43.666654" lon="10.6410192"><ele>13.0</ele><time>2026-03-25T10:03:44.92Z</time></trkpt><trkpt lat="43.6666687" lon="10.6411752"><ele>13.600000000000001</ele><time>2026-03-25T10:03:45.92Z</time></trkpt><trkpt lat="43.6666821" lon="10.6413244"><ele>14.200000000000001</ele><time>2026-03-25T10:03:46.92Z</time></trkpt><trkpt lat="43.6666928" lon="10.6414629"><ele>14.8</ele><time>2026-03-25T10:03:47.92Z</time></trkpt><trkpt lat="43.6666982" lon="10.6415947"><ele>15.4</ele><time>2026-03-25T10:03:48.92Z</time></trkpt><trkpt lat="43.6667008" lon="10.6417165"><ele>16.0</ele><time>2026-03-25T10:03:49.919Z</time></trkpt><trkpt lat="43.6667026" lon="10.6418243"><ele>16.0</ele><time>2026-03-25T10:03:50.92Z</time></trkpt><trkpt lat="43.6666978" lon="10.6419242"><ele>16.0</ele><time>2026-03-25T10:03:51.919Z</time></trkpt><trkpt lat="43.66669" lon="10.6420142"><ele>16.0</ele><time>2026-03-25T10:03:52.92Z</time></trkpt><trkpt lat="43.666697" lon="10.6421625"><ele>16.0</ele><time>2026-03-25T10:03:54.92Z</time></trkpt><trkpt lat="43.6667741" lon="10.6422525"><ele>16.0</ele><time>2026-03-25T10:03:56.921Z</time></trkpt><trkpt lat="43.6669062" lon="10.6422816"><ele>16.166666666666664</ele><time>2026-03-25T10:03:58.92Z</time></trkpt><trkpt lat="43.6669987" lon="10.6422924"><ele>16.333333333333332</ele><time>2026-03-25T10:03:59.92Z</time></trkpt><trkpt lat="43.6670905" lon="10.6423046"><ele>16.5</ele><time>2026-03-25T10:04:00.92Z</time></trkpt><trkpt lat="43.6671593" lon="10.6423163"><ele>16.666666666666668</ele><time>2026-03-25T10:04:01.92Z</time></trkpt><trkpt lat="43.6672471" lon="10.6423315"><ele>16.833333333333336</ele><time>2026-03-25T10:04:03.919Z</time></trkpt><trkpt lat="43.6673144" lon="10.6423476"><ele>17.0</ele><time>2026-03-25T10:04:05.92Z</time></trkpt><trkpt lat="43.6673993" lon="10.6423817"><ele>17.0</ele><time>2026-03-25T10:04:07.92Z</time></trkpt><trkpt lat="43.6674705" lon="10.6423844"><ele>17.0</ele><time>2026-03-25T10:04:08.919Z</time></trkpt><trkpt lat="43.6675534" lon="10.6423891"><ele>17.0</ele><time>2026-03-25T10:04:09.92Z</time></trkpt><trkpt lat="43.667646" lon="10.6423877"><ele>17.0</ele><time>2026-03-25T10:04:10.919Z</time></trkpt><trkpt lat="43.6677479" lon="10.6423967"><ele>17.0</ele><time>2026-03-25T10:04:11.921Z</time></trkpt><trkpt lat="43.6678478" lon="10.6424114"><ele>17.0</ele><time>2026-03-25T10:04:12.921Z</time></trkpt><trkpt lat="43.6679498" lon="10.6424184"><ele>16.8</ele><time>2026-03-25T10:04:13.92Z</time></trkpt><trkpt lat="43.6680578" lon="10.6424284"><ele>16.6</ele><time>2026-03-25T10:04:14.92Z</time></trkpt><trkpt lat="43.6681664" lon="10.6424427"><ele>16.400000000000002</ele><time>2026-03-25T10:04:15.92Z</time></trkpt><trkpt lat="43.6682799" lon="10.6424574"><ele>16.2</ele><time>2026-03-25T10:04:16.921Z</time></trkpt><trkpt lat="43.6683922" lon="10.642476"><ele>16.0</ele><time>2026-03-25T10:04:17.92Z</time></trkpt><trkpt lat="43.6685102" lon="10.6424993"><ele>16.25</ele><time>2026-03-25T10:04:18.921Z</time></trkpt><trkpt lat="43.6686319" lon="10.6425191"><ele>16.5</ele><time>2026-03-25T10:04:19.919Z</time></trkpt><trkpt lat="43.6687597" lon="10.6425339"><ele>16.75</ele><time>2026-03-25T10:04:20.92Z</time></trkpt><trkpt lat="43.6688797" lon="10.6425468"><ele>17.0</ele><time>2026-03-25T10:04:21.92Z</time></trkpt><trkpt lat="43.6689947" lon="10.642563"><ele>17.0</ele><time>2026-03-25T10:04:22.921Z</time></trkpt><trkpt lat="43.6691024" lon="10.6425734"><ele>17.0</ele><time>2026-03-25T10:04:23.92Z</time></trkpt><trkpt lat="43.6691974" lon="10.642581"><ele>17.0</ele><time>2026-03-25T10:04:24.92Z</time></trkpt><trkpt lat="43.669275" lon="10.6425893"><ele>17.0</ele><time>2026-03-25T10:04:25.92Z</time></trkpt><trkpt lat="43.6693589" lon="10.6425903"><ele>17.0</ele><time>2026-03-25T10:04:26.92Z</time></trkpt><trkpt lat="43.6694491" lon="10.6425993"><ele>17.25</ele><time>2026-03-25T10:04:27.92Z</time></trkpt><trkpt lat="43.669557" lon="10.6426048"><ele>17.5</ele><time>2026-03-25T10:04:28.92Z</time></trkpt><trkpt lat="43.6696748" lon="10.6426142"><ele>17.75</ele><time>2026-03-25T10:04:29.92Z</time></trkpt><trkpt lat="43.669804" lon="10.6426259"><ele>18.0</ele><time>2026-03-25T10:04:30.919Z</time></trkpt><trkpt lat="43.6699311" lon="10.6426379"><ele>18.0</ele><time>2026-03-25T10:04:31.919Z</time></trkpt><trkpt lat="43.6700537" lon="10.6426474"><ele>18.0</ele><time>2026-03-25T10:04:32.92Z</time></trkpt><trkpt lat="43.6701683" lon="10.6426643"><ele>18.0</ele><time>2026-03-25T10:04:33.92Z</time></trkpt><trkpt lat="43.6702708" lon="10.6426745"><ele>18.0</ele><time>2026-03-25T10:04:34.92Z</time></trkpt><trkpt lat="43.670358" lon="10.642696"><ele>18.0</ele><time>2026-03-25T10:04:35.92Z</time></trkpt><trkpt lat="43.6704309" lon="10.6427203"><ele>17.8</ele><time>2026-03-25T10:04:36.92Z</time></trkpt><trkpt lat="43.6705023" lon="10.6427484"><ele>17.6</ele><time>2026-03-25T10:04:37.92Z</time></trkpt><trkpt lat="43.6705657" lon="10.6427869"><ele>17.4</ele><time>2026-03-25T10:04:38.921Z</time></trkpt><trkpt lat="43.6706283" lon="10.6428117"><ele>17.2</ele><time>2026-03-25T10:04:39.92Z</time></trkpt><trkpt lat="43.6707333" lon="10.6428172"><ele>17.0</ele><time>2026-03-25T10:04:41.921Z</time></trkpt><trkpt lat="43.6709275" lon="10.6427511"><ele>17.0</ele><time>2026-03-25T10:04:44.919Z</time></trkpt><trkpt lat="43.6710024" lon="10.6427412"><ele>17.0</ele><time>2026-03-25T10:04:45.919Z</time></trkpt><trkpt lat="43.6711023" lon="10.6427522"><ele>17.0</ele><time>2026-03-25T10:04:46.92Z</time></trkpt><trkpt lat="43.6712003" lon="10.6427617"><ele>17.0</ele><time>2026-03-25T10:04:47.92Z</time></trkpt><trkpt lat="43.6713125" lon="10.6427704"><ele>17.0</ele><time>2026-03-25T10:04:48.919Z</time></trkpt><trkpt lat="43.6714586" lon="10.6427865"><ele>17.0</ele><time>2026-03-25T10:04:49.921Z</time></trkpt><trkpt lat="43.6715779" lon="10.6427976"><ele>17.0</ele><time>2026-03-25T10:04:50.92Z</time></trkpt><trkpt lat="43.6716901" lon="10.6428065"><ele>17.0</ele><time>2026-03-25T10:04:51.92Z</time></trkpt><trkpt lat="43.6717919" lon="10.6428189"><ele>17.0</ele><time>2026-03-25T10:04:52.92Z</time></trkpt><trkpt lat="43.6719051" lon="10.6428139"><ele>17.0</ele><time>2026-03-25T10:04:53.92Z</time></trkpt><trkpt lat="43.6720211" lon="10.6428119"><ele>16.5</ele><time>2026-03-25T10:04:54.92Z</time></trkpt><trkpt lat="43.6721421" lon="10.6428107"><ele>16.0</ele><time>2026-03-25T10:04:55.92Z</time></trkpt><trkpt lat="43.6722532" lon="10.6428269"><ele>15.5</ele><time>2026-03-25T10:04:56.919Z</time></trkpt><trkpt lat="43.6723688" lon="10.6428389"><ele>15.0</ele><time>2026-03-25T10:04:57.92Z</time></trkpt><trkpt lat="43.6724877" lon="10.642854"><ele>15.0</ele><time>2026-03-25T10:04:58.919Z</time></trkpt><trkpt lat="43.672605" lon="10.642869"><ele>15.0</ele><time>2026-03-25T10:04:59.919Z</time></trkpt><trkpt lat="43.6727238" lon="10.6428833"><ele>15.0</ele><time>2026-03-25T10:05:00.92Z</time></trkpt><trkpt lat="43.6728426" lon="10.6428993"><ele>15.0</ele><time>2026-03-25T10:05:01.92Z</time></trkpt><trkpt lat="43.6729521" lon="10.6429208"><ele>15.75</ele><time>2026-03-25T10:05:02.92Z</time></trkpt><trkpt lat="43.6730825" lon="10.6429354"><ele>16.5</ele><time>2026-03-25T10:05:03.92Z</time></trkpt><trkpt lat="43.6732025" lon="10.6429454"><ele>17.25</ele><time>2026-03-25T10:05:04.92Z</time></trkpt><trkpt lat="43.6733381" lon="10.6429595"><ele>18.0</ele><time>2026-03-25T10:05:05.919Z</time></trkpt><trkpt lat="43.6734719" lon="10.6429744"><ele>17.75</ele><time>2026-03-25T10:05:06.919Z</time></trkpt><trkpt lat="43.6736097" lon="10.642982"><ele>17.5</ele><time>2026-03-25T10:05:07.92Z</time></trkpt><trkpt lat="43.6737501" lon="10.642994"><ele>17.25</ele><time>2026-03-25T10:05:08.919Z</time></trkpt><trkpt lat="43.6738952" lon="10.6429966"><ele>17.0</ele><time>2026-03-25T10:05:09.92Z</time></trkpt><trkpt lat="43.6740099" lon="10.643001"><ele>17.0</ele><time>2026-03-25T10:05:10.919Z</time></trkpt><trkpt lat="43.6741399" lon="10.6430185"><ele>17.0</ele><time>2026-03-25T10:05:11.919Z</time></trkpt><trkpt lat="43.6742429" lon="10.6430355"><ele>17.0</ele><time>2026-03-25T10:05:12.92Z</time></trkpt><trkpt lat="43.674346" lon="10.6430547"><ele>17.0</ele><time>2026-03-25T10:05:13.919Z</time></trkpt><trkpt lat="43.6744559" lon="10.6430648"><ele>17.0</ele><time>2026-03-25T10:05:14.919Z</time></trkpt><trkpt lat="43.6745602" lon="10.6430914"><ele>16.8</ele><time>2026-03-25T10:05:15.92Z</time></trkpt><trkpt lat="43.6746678" lon="10.6431388"><ele>16.6</ele><time>2026-03-25T10:05:16.92Z</time></trkpt><trkpt lat="43.674768" lon="10.6431868"><ele>16.400000000000002</ele><time>2026-03-25T10:05:17.92Z</time></trkpt><trkpt lat="43.6748645" lon="10.6432722"><ele>16.2</ele><time>2026-03-25T10:05:18.92Z</time></trkpt><trkpt lat="43.6749568" lon="10.6433491"><ele>16.0</ele><time>2026-03-25T10:05:19.92Z</time></trkpt><trkpt lat="43.6750425" lon="10.6434285"><ele>15.999999999999998</ele><time>2026-03-25T10:05:20.92Z</time></trkpt><trkpt lat="43.6751149" lon="10.6435187"><ele>16.0</ele><time>2026-03-25T10:05:21.919Z</time></trkpt><trkpt lat="43.6751769" lon="10.6436025"><ele>16.0</ele><time>2026-03-25T10:05:22.92Z</time></trkpt><trkpt lat="43.6752279" lon="10.6436805"><ele>16.0</ele><time>2026-03-25T10:05:23.92Z</time></trkpt><trkpt lat="43.6752621" lon="10.6437667"><ele>15.999999999999998</ele><time>2026-03-25T10:05:24.92Z</time></trkpt><trkpt lat="43.6752881" lon="10.6438606"><ele>16.0</ele><time>2026-03-25T10:05:25.92Z</time></trkpt><trkpt lat="43.6753161" lon="10.643958"><ele>15.571428571428571</ele><time>2026-03-25T10:05:26.92Z</time></trkpt><trkpt lat="43.6753544" lon="10.6440454"><ele>15.142857142857142</ele><time>2026-03-25T10:05:27.92Z</time></trkpt><trkpt lat="43.6754039" lon="10.6441124"><ele>14.714285714285714</ele><time>2026-03-25T10:05:28.919Z</time></trkpt><trkpt lat="43.6754632" lon="10.644155"><ele>14.285714285714285</ele><time>2026-03-25T10:05:29.921Z</time></trkpt><trkpt lat="43.6755287" lon="10.6441685"><ele>13.857142857142858</ele><time>2026-03-25T10:05:30.92Z</time></trkpt><trkpt lat="43.6755917" lon="10.6441525"><ele>13.428571428571427</ele><time>2026-03-25T10:05:31.919Z</time></trkpt><trkpt lat="43.6756495" lon="10.6441065"><ele>13.0</ele><time>2026-03-25T10:05:32.92Z</time></trkpt><trkpt lat="43.6756974" lon="10.6440352"><ele>13.0</ele><time>2026-03-25T10:05:33.919Z</time></trkpt><trkpt lat="43.6757349" lon="10.6439405"><ele>13.0</ele><time>2026-03-25T10:05:34.92Z</time></trkpt><trkpt lat="43.6757691" lon="10.643833"><ele>13.0</ele><time>2026-03-25T10:05:35.92Z</time></trkpt><trkpt lat="43.6758152" lon="10.6437194"><ele>13.0</ele><time>2026-03-25T10:05:36.919Z</time></trkpt><trkpt lat="43.6758784" lon="10.6436079"><ele>13.0</ele><time>2026-03-25T10:05:37.92Z</time></trkpt><trkpt lat="43.6759594" lon="10.6434981"><ele>13.5</ele><time>2026-03-25T10:05:38.921Z</time></trkpt><trkpt lat="43.6760544" lon="10.643387"><ele>14.0</ele><time>2026-03-25T10:05:39.919Z</time></trkpt><trkpt lat="43.676159" lon="10.6432678"><ele>14.5</ele><time>2026-03-25T10:05:40.92Z</time></trkpt><trkpt lat="43.6762643" lon="10.6431455"><ele>15.0</ele><time>2026-03-25T10:05:41.92Z</time></trkpt><trkpt lat="43.6763653" lon="10.6430221"><ele>15.0</ele><time>2026-03-25T10:05:42.92Z</time></trkpt><trkpt lat="43.6764597" lon="10.6428963"><ele>15.0</ele><time>2026-03-25T10:05:43.92Z</time></trkpt><trkpt lat="43.6765477" lon="10.6427645"><ele>15.0</ele><time>2026-03-25T10:05:44.921Z</time></trkpt><trkpt lat="43.6766346" lon="10.6426214"><ele>15.0</ele><time>2026-03-25T10:05:45.92Z</time></trkpt><trkpt lat="43.6767194" lon="10.6424718"><ele>15.75</ele><time>2026-03-25T10:05:46.92Z</time></trkpt><trkpt lat="43.6768015" lon="10.6423123"><ele>16.5</ele><time>2026-03-25T10:05:47.919Z</time></trkpt><trkpt lat="43.6768764" lon="10.6421455"><ele>17.25</ele><time>2026-03-25T10:05:48.921Z</time></trkpt><trkpt lat="43.6769453" lon="10.6419712"><ele>18.0</ele><time>2026-03-25T10:05:49.92Z</time></trkpt><trkpt lat="43.6770071" lon="10.6417861"><ele>18.0</ele><time>2026-03-25T10:05:50.921Z</time></trkpt><trkpt lat="43.6770636" lon="10.6415936"><ele>18.0</ele><time>2026-03-25T10:05:51.919Z</time></trkpt><trkpt lat="43.6771118" lon="10.6413935"><ele>18.0</ele><time>2026-03-25T10:05:52.919Z</time></trkpt><trkpt lat="43.6771482" lon="10.6411863"><ele>17.666666666666668</ele><time>2026-03-25T10:05:53.92Z</time></trkpt><trkpt lat="43.677181" lon="10.6409773"><ele>17.333333333333336</ele><time>2026-03-25T10:05:54.92Z</time></trkpt><trkpt lat="43.6772033" lon="10.6407629"><ele>17.0</ele><time>2026-03-25T10:05:55.92Z</time></trkpt><trkpt lat="43.6772167" lon="10.6405449"><ele>17.0</ele><time>2026-03-25T10:05:56.919Z</time></trkpt><trkpt lat="43.6772221" lon="10.6403199"><ele>17.0</ele><time>2026-03-25T10:05:57.92Z</time></trkpt><trkpt lat="43.677218" lon="10.6400947"><ele>17.0</ele><time>2026-03-25T10:05:58.92Z</time></trkpt><trkpt lat="43.6772057" lon="10.6398654"><ele>16.666666666666668</ele><time>2026-03-25T10:05:59.92Z</time></trkpt><trkpt lat="43.677185" lon="10.6396383"><ele>16.333333333333332</ele><time>2026-03-25T10:06:00.92Z</time></trkpt><trkpt lat="43.6771594" lon="10.6394061"><ele>16.0</ele><time>2026-03-25T10:06:01.919Z</time></trkpt><trkpt lat="43.6771343" lon="10.6391784"><ele>16.0</ele><time>2026-03-25T10:06:02.92Z</time></trkpt><trkpt lat="43.6771078" lon="10.6389619"><ele>16.0</ele><time>2026-03-25T10:06:03.92Z</time></trkpt><trkpt lat="43.6770775" lon="10.6387479"><ele>16.0</ele><time>2026-03-25T10:06:04.92Z</time></trkpt><trkpt lat="43.677046" lon="10.6385318"><ele>17.0</ele><time>2026-03-25T10:06:05.919Z</time></trkpt><trkpt lat="43.6770157" lon="10.6383153"><ele>18.0</ele><time>2026-03-25T10:06:06.92Z</time></trkpt><trkpt lat="43.6769855" lon="10.6380991"><ele>19.0</ele><time>2026-03-25T10:06:07.919Z</time></trkpt><trkpt lat="43.676955" lon="10.6378864"><ele>17.333333333333332</ele><time>2026-03-25T10:06:08.92Z</time></trkpt><trkpt lat="43.6769249" lon="10.6376765"><ele>15.666666666666668</ele><time>2026-03-25T10:06:09.921Z</time></trkpt><trkpt lat="43.6768952" lon="10.6374623"><ele>14.0</ele><time>2026-03-25T10:06:10.92Z</time></trkpt><trkpt lat="43.6768652" lon="10.6372383"><ele>14.0</ele><time>2026-03-25T10:06:11.92Z</time></trkpt><trkpt lat="43.6768352" lon="10.6370061"><ele>14.0</ele><time>2026-03-25T10:06:12.919Z</time></trkpt><trkpt lat="43.676803" lon="10.6367691"><ele>14.0</ele><time>2026-03-25T10:06:13.92Z</time></trkpt><trkpt lat="43.6767713" lon="10.6365263"><ele>13.666666666666668</ele><time>2026-03-25T10:06:14.92Z</time></trkpt><trkpt lat="43.6767331" lon="10.6362835"><ele>13.333333333333332</ele><time>2026-03-25T10:06:15.92Z</time></trkpt><trkpt lat="43.6766986" lon="10.6360403"><ele>13.0</ele><time>2026-03-25T10:06:16.919Z</time></trkpt><trkpt lat="43.6766645" lon="10.6358053"><ele>13.0</ele><time>2026-03-25T10:06:17.92Z</time></trkpt><trkpt lat="43.6766318" lon="10.6355746"><ele>13.0</ele><time>2026-03-25T10:06:18.92Z</time></trkpt><trkpt lat="43.6766013" lon="10.635351"><ele>13.0</ele><time>2026-03-25T10:06:19.92Z</time></trkpt><trkpt lat="43.6765721" lon="10.6351308"><ele>12.666666666666666</ele><time>2026-03-25T10:06:20.92Z</time></trkpt><trkpt lat="43.6765483" lon="10.6349105"><ele>12.333333333333332</ele><time>2026-03-25T10:06:21.921Z</time></trkpt><trkpt lat="43.6765327" lon="10.6346842"><ele>12.0</ele><time>2026-03-25T10:06:22.919Z</time></trkpt><trkpt lat="43.6765283" lon="10.6344524"><ele>11.666666666666666</ele><time>2026-03-25T10:06:23.92Z</time></trkpt><trkpt lat="43.6765367" lon="10.6342194"><ele>11.333333333333332</ele><time>2026-03-25T10:06:24.921Z</time></trkpt><trkpt lat="43.6765592" lon="10.633984"><ele>11.0</ele><time>2026-03-25T10:06:25.92Z</time></trkpt><trkpt lat="43.6765916" lon="10.6337501"><ele>11.0</ele><time>2026-03-25T10:06:26.92Z</time></trkpt><trkpt lat="43.6766392" lon="10.6335251"><ele>11.0</ele><time>2026-03-25T10:06:27.92Z</time></trkpt><trkpt lat="43.6767061" lon="10.6333104"><ele>11.0</ele><time>2026-03-25T10:06:28.92Z</time></trkpt><trkpt lat="43.6767847" lon="10.633118"><ele>11.0</ele><time>2026-03-25T10:06:29.92Z</time></trkpt><trkpt lat="43.6768769" lon="10.6329429"><ele>11.0</ele><time>2026-03-25T10:06:30.919Z</time></trkpt><trkpt lat="43.6769807" lon="10.6327858"><ele>11.0</ele><time>2026-03-25T10:06:31.921Z</time></trkpt><trkpt lat="43.6770894" lon="10.6326467"><ele>11.5</ele><time>2026-03-25T10:06:32.919Z</time></trkpt><trkpt lat="43.6772053" lon="10.6325237"><ele>12.0</ele><time>2026-03-25T10:06:33.919Z</time></trkpt><trkpt lat="43.6773337" lon="10.6324117"><ele>12.5</ele><time>2026-03-25T10:06:34.919Z</time></trkpt><trkpt lat="43.6774643" lon="10.6323183"><ele>13.0</ele><time>2026-03-25T10:06:35.921Z</time></trkpt><trkpt lat="43.6776031" lon="10.6322421"><ele>13.0</ele><time>2026-03-25T10:06:36.92Z</time></trkpt><trkpt lat="43.6777463" lon="10.63218"><ele>13.0</ele><time>2026-03-25T10:06:37.92Z</time></trkpt><trkpt lat="43.6778904" lon="10.6321402"><ele>13.0</ele><time>2026-03-25T10:06:38.92Z</time></trkpt><trkpt lat="43.6780362" lon="10.6321212"><ele>13.0</ele><time>2026-03-25T10:06:39.921Z</time></trkpt><trkpt lat="43.6781846" lon="10.6321218"><ele>13.0</ele><time>2026-03-25T10:06:40.919Z</time></trkpt><trkpt lat="43.6783315" lon="10.6321391"><ele>13.0</ele><time>2026-03-25T10:06:41.92Z</time></trkpt><trkpt lat="43.6784573" lon="10.6321713"><ele>13.0</ele><time>2026-03-25T10:06:42.92Z</time></trkpt><trkpt lat="43.6785615" lon="10.632208"><ele>13.0</ele><time>2026-03-25T10:06:43.919Z</time></trkpt><trkpt lat="43.6786534" lon="10.6322596"><ele>13.333333333333332</ele><time>2026-03-25T10:06:44.919Z</time></trkpt><trkpt lat="43.6787369" lon="10.6323168"><ele>13.666666666666666</ele><time>2026-03-25T10:06:45.919Z</time></trkpt><trkpt lat="43.6788114" lon="10.6323865"><ele>14.0</ele><time>2026-03-25T10:06:46.92Z</time></trkpt><trkpt lat="43.6788734" lon="10.6324668"><ele>14.333333333333332</ele><time>2026-03-25T10:06:47.92Z</time></trkpt><trkpt lat="43.6789223" lon="10.6325573"><ele>14.666666666666666</ele><time>2026-03-25T10:06:48.919Z</time></trkpt><trkpt lat="43.6789652" lon="10.6326488"><ele>15.0</ele><time>2026-03-25T10:06:49.921Z</time></trkpt><trkpt lat="43.6790124" lon="10.6327296"><ele>15.0</ele><time>2026-03-25T10:06:50.92Z</time></trkpt><trkpt lat="43.6790714" lon="10.6327869"><ele>15.0</ele><time>2026-03-25T10:06:51.92Z</time></trkpt><trkpt lat="43.6791425" lon="10.6328191"><ele>15.0</ele><time>2026-03-25T10:06:52.919Z</time></trkpt><trkpt lat="43.6792146" lon="10.6328163"><ele>15.0</ele><time>2026-03-25T10:06:53.921Z</time></trkpt><trkpt lat="43.6792808" lon="10.63278"><ele>15.0</ele><time>2026-03-25T10:06:54.92Z</time></trkpt><trkpt lat="43.6793359" lon="10.6327115"><ele>15.0</ele><time>2026-03-25T10:06:55.92Z</time></trkpt><trkpt lat="43.6793764" lon="10.6326249"><ele>15.0</ele><time>2026-03-25T10:06:56.919Z</time></trkpt><trkpt lat="43.679409" lon="10.632528"><ele>15.6</ele><time>2026-03-25T10:06:57.92Z</time></trkpt><trkpt lat="43.6794405" lon="10.6324162"><ele>16.2</ele><time>2026-03-25T10:06:58.92Z</time></trkpt><trkpt lat="43.6794869" lon="10.6322968"><ele>16.8</ele><time>2026-03-25T10:06:59.92Z</time></trkpt><trkpt lat="43.6795569" lon="10.6321625"><ele>17.4</ele><time>2026-03-25T10:07:00.921Z</time></trkpt><trkpt lat="43.6796373" lon="10.6320164"><ele>18.0</ele><time>2026-03-25T10:07:01.919Z</time></trkpt><trkpt lat="43.6797236" lon="10.6318577"><ele>15.5</ele><time>2026-03-25T10:07:02.92Z</time></trkpt><trkpt lat="43.6798124" lon="10.631697"><ele>13.0</ele><time>2026-03-25T10:07:03.92Z</time></trkpt><trkpt lat="43.6799004" lon="10.6315401"><ele>10.5</ele><time>2026-03-25T10:07:04.921Z</time></trkpt><trkpt lat="43.6799854" lon="10.6313801"><ele>8.0</ele><time>2026-03-25T10:07:05.919Z</time></trkpt><trkpt lat="43.6800725" lon="10.6312188"><ele>9.0</ele><time>2026-03-25T10:07:06.919Z</time></trkpt><trkpt lat="43.6801628" lon="10.6310503"><ele>10.0</ele><time>2026-03-25T10:07:07.92Z</time></trkpt><trkpt lat="43.6802564" lon="10.6308776"><ele>11.0</ele><time>2026-03-25T10:07:08.919Z</time></trkpt><trkpt lat="43.6803539" lon="10.6307006"><ele>12.666666666666666</ele><time>2026-03-25T10:07:09.92Z</time></trkpt><trkpt lat="43.6804574" lon="10.6305198"><ele>14.333333333333332</ele><time>2026-03-25T10:07:10.92Z</time></trkpt><trkpt lat="43.6805577" lon="10.6303351"><ele>16.0</ele><time>2026-03-25T10:07:11.92Z</time></trkpt><trkpt lat="43.6806545" lon="10.6301488"><ele>16.333333333333332</ele><time>2026-03-25T10:07:12.919Z</time></trkpt><trkpt lat="43.6807491" lon="10.6299598"><ele>16.666666666666668</ele><time>2026-03-25T10:07:13.92Z</time></trkpt><trkpt lat="43.6808469" lon="10.6297736"><ele>17.0</ele><time>2026-03-25T10:07:14.921Z</time></trkpt><trkpt lat="43.6809465" lon="10.6295926"><ele>16.666666666666668</ele><time>2026-03-25T10:07:15.92Z</time></trkpt><trkpt lat="43.6810448" lon="10.6294092"><ele>16.333333333333332</ele><time>2026-03-25T10:07:16.919Z</time></trkpt><trkpt lat="43.6811433" lon="10.6292277"><ele>16.0</ele><time>2026-03-25T10:07:17.92Z</time></trkpt><trkpt lat="43.6812448" lon="10.629045"><ele>15.666666666666666</ele><time>2026-03-25T10:07:18.919Z</time></trkpt><trkpt lat="43.6813452" lon="10.628866"><ele>15.333333333333332</ele><time>2026-03-25T10:07:19.921Z</time></trkpt><trkpt lat="43.6814416" lon="10.6286897"><ele>15.0</ele><time>2026-03-25T10:07:20.92Z</time></trkpt><trkpt lat="43.6815347" lon="10.628511"><ele>16.0</ele><time>2026-03-25T10:07:21.92Z</time></trkpt><trkpt lat="43.6816273" lon="10.6283284"><ele>17.0</ele><time>2026-03-25T10:07:22.919Z</time></trkpt><trkpt lat="43.6817229" lon="10.628146"><ele>18.0</ele><time>2026-03-25T10:07:23.92Z</time></trkpt><trkpt lat="43.681821" lon="10.6279648"><ele>22.333333333333336</ele><time>2026-03-25T10:07:24.92Z</time></trkpt><trkpt lat="43.6819197" lon="10.6277837"><ele>26.666666666666668</ele><time>2026-03-25T10:07:25.92Z</time></trkpt><trkpt lat="43.68202" lon="10.6276011"><ele>31.0</ele><time>2026-03-25T10:07:26.92Z</time></trkpt><trkpt lat="43.6821203" lon="10.6274234"><ele>30.666666666666668</ele><time>2026-03-25T10:07:27.919Z</time></trkpt><trkpt lat="43.6822157" lon="10.6272504"><ele>30.333333333333336</ele><time>2026-03-25T10:07:28.919Z</time></trkpt><trkpt lat="43.6823071" lon="10.6270844"><ele>30.0</ele><time>2026-03-25T10:07:29.92Z</time></trkpt><trkpt lat="43.6823932" lon="10.6269238"><ele>30.0</ele><time>2026-03-25T10:07:30.92Z</time></trkpt><trkpt lat="43.6824792" lon="10.6267651"><ele>30.0</ele><time>2026-03-25T10:07:31.92Z</time></trkpt><trkpt lat="43.6825619" lon="10.6266124"><ele>30.0</ele><time>2026-03-25T10:07:32.92Z</time></trkpt><trkpt lat="43.682644" lon="10.6264628"><ele>30.0</ele><time>2026-03-25T10:07:33.92Z</time></trkpt><trkpt lat="43.6827213" lon="10.6263136"><ele>30.0</ele><time>2026-03-25T10:07:34.919Z</time></trkpt><trkpt lat="43.6827962" lon="10.6261721"><ele>30.0</ele><time>2026-03-25T10:07:35.92Z</time></trkpt><trkpt lat="43.6828687" lon="10.6260368"><ele>30.0</ele><time>2026-03-25T10:07:36.921Z</time></trkpt><trkpt lat="43.6829409" lon="10.6259087"><ele>30.0</ele><time>2026-03-25T10:07:37.92Z</time></trkpt><trkpt lat="43.6830106" lon="10.6257881"><ele>30.0</ele><time>2026-03-25T10:07:38.92Z</time></trkpt><trkpt lat="43.6830811" lon="10.6256812"><ele>30.0</ele><time>2026-03-25T10:07:39.92Z</time></trkpt><trkpt lat="43.6831556" lon="10.625587"><ele>30.0</ele><time>2026-03-25T10:07:40.921Z</time></trkpt><trkpt lat="43.6832328" lon="10.6255054"><ele>30.0</ele><time>2026-03-25T10:07:41.919Z</time></trkpt><trkpt lat="43.6833065" lon="10.6254347"><ele>30.0</ele><time>2026-03-25T10:07:42.92Z</time></trkpt><trkpt lat="43.6833824" lon="10.6253744"><ele>30.0</ele><time>2026-03-25T10:07:43.92Z</time></trkpt><trkpt lat="43.6834573" lon="10.6253244"><ele>30.0</ele><time>2026-03-25T10:07:44.92Z</time></trkpt><trkpt lat="43.6835357" lon="10.6252861"><ele>30.0</ele><time>2026-03-25T10:07:45.92Z</time></trkpt><trkpt lat="43.6836098" lon="10.6252525"><ele>30.0</ele><time>2026-03-25T10:07:46.92Z</time></trkpt><trkpt lat="43.6836738" lon="10.6252104"><ele>30.0</ele><time>2026-03-25T10:07:47.92Z</time></trkpt><trkpt lat="43.6837277" lon="10.6251527"><ele>30.0</ele><time>2026-03-25T10:07:48.919Z</time></trkpt><trkpt lat="43.6837684" lon="10.6250703"><ele>28.166666666666668</ele><time>2026-03-25T10:07:49.92Z</time></trkpt><trkpt lat="43.6837934" lon="10.6249707"><ele>26.333333333333332</ele><time>2026-03-25T10:07:50.92Z</time></trkpt><trkpt lat="43.6837982" lon="10.6248614"><ele>24.5</ele><time>2026-03-25T10:07:51.92Z</time></trkpt><trkpt lat="43.6837845" lon="10.6247457"><ele>22.666666666666664</ele><time>2026-03-25T10:07:52.92Z</time></trkpt><trkpt lat="43.6837545" lon="10.6246297"><ele>20.833333333333332</ele><time>2026-03-25T10:07:53.92Z</time></trkpt><trkpt lat="43.6837325" lon="10.6245049"><ele>19.0</ele><time>2026-03-25T10:07:54.919Z</time></trkpt><trkpt lat="43.6837306" lon="10.6243743"><ele>18.0</ele><time>2026-03-25T10:07:55.92Z</time></trkpt><trkpt lat="43.6837521" lon="10.6242372"><ele>17.0</ele><time>2026-03-25T10:07:56.92Z</time></trkpt><trkpt lat="43.6837827" lon="10.6240887"><ele>16.0</ele><time>2026-03-25T10:07:57.92Z</time></trkpt><trkpt lat="43.6838177" lon="10.6239288"><ele>15.0</ele><time>2026-03-25T10:07:58.92Z</time></trkpt><trkpt lat="43.6838557" lon="10.6237588"><ele>14.75</ele><time>2026-03-25T10:07:59.92Z</time></trkpt><trkpt lat="43.6838979" lon="10.6235796"><ele>14.5</ele><time>2026-03-25T10:08:00.92Z</time></trkpt><trkpt lat="43.6839441" lon="10.6233978"><ele>14.25</ele><time>2026-03-25T10:08:01.92Z</time></trkpt><trkpt lat="43.683994" lon="10.6232181"><ele>14.0</ele><time>2026-03-25T10:08:02.919Z</time></trkpt><trkpt lat="43.6840512" lon="10.6230454"><ele>14.0</ele><time>2026-03-25T10:08:03.919Z</time></trkpt><trkpt lat="43.6841169" lon="10.622871"><ele>14.0</ele><time>2026-03-25T10:08:04.919Z</time></trkpt><trkpt lat="43.6841906" lon="10.6226825"><ele>14.0</ele><time>2026-03-25T10:08:05.92Z</time></trkpt><trkpt lat="43.6842676" lon="10.6224791"><ele>14.0</ele><time>2026-03-25T10:08:06.92Z</time></trkpt><trkpt lat="43.6843463" lon="10.6222589"><ele>14.0</ele><time>2026-03-25T10:08:07.92Z</time></trkpt><trkpt lat="43.6844296" lon="10.6220199"><ele>14.0</ele><time>2026-03-25T10:08:08.921Z</time></trkpt><trkpt lat="43.684514" lon="10.6217859"><ele>14.0</ele><time>2026-03-25T10:08:09.92Z</time></trkpt><trkpt lat="43.6845972" lon="10.6215618"><ele>14.0</ele><time>2026-03-25T10:08:10.92Z</time></trkpt><trkpt lat="43.6846763" lon="10.6213482"><ele>14.0</ele><time>2026-03-25T10:08:11.92Z</time></trkpt><trkpt lat="43.6847539" lon="10.6211453"><ele>14.0</ele><time>2026-03-25T10:08:12.92Z</time></trkpt><trkpt lat="43.6848285" lon="10.620952"><ele>14.0</ele><time>2026-03-25T10:08:13.92Z</time></trkpt><trkpt lat="43.6849002" lon="10.6207625"><ele>14.0</ele><time>2026-03-25T10:08:14.919Z</time></trkpt><trkpt lat="43.6849714" lon="10.620574"><ele>14.0</ele><time>2026-03-25T10:08:15.919Z</time></trkpt><trkpt lat="43.6850425" lon="10.6203846"><ele>14.0</ele><time>2026-03-25T10:08:16.92Z</time></trkpt><trkpt lat="43.6851171" lon="10.6201897"><ele>14.0</ele><time>2026-03-25T10:08:17.92Z</time></trkpt><trkpt lat="43.6851959" lon="10.6199873"><ele>14.0</ele><time>2026-03-25T10:08:18.919Z</time></trkpt><trkpt lat="43.6852745" lon="10.619782"><ele>14.0</ele><time>2026-03-25T10:08:19.92Z</time></trkpt><trkpt lat="43.685357" lon="10.6195701"><ele>14.0</ele><time>2026-03-25T10:08:20.921Z</time></trkpt><trkpt lat="43.6854416" lon="10.6193457"><ele>14.0</ele><time>2026-03-25T10:08:21.919Z</time></trkpt><trkpt lat="43.6855272" lon="10.6191104"><ele>14.0</ele><time>2026-03-25T10:08:22.92Z</time></trkpt><trkpt lat="43.6856158" lon="10.6188722"><ele>14.0</ele><time>2026-03-25T10:08:23.921Z</time></trkpt><trkpt lat="43.6856998" lon="10.6186472"><ele>13.333333333333334</ele><time>2026-03-25T10:08:24.921Z</time></trkpt><trkpt lat="43.6857816" lon="10.6184307"><ele>12.666666666666668</ele><time>2026-03-25T10:08:25.919Z</time></trkpt><trkpt lat="43.6858588" lon="10.6182262"><ele>12.0</ele><time>2026-03-25T10:08:26.92Z</time></trkpt><trkpt lat="43.6859348" lon="10.6180201"><ele>12.0</ele><time>2026-03-25T10:08:27.919Z</time></trkpt><trkpt lat="43.6860107" lon="10.6178129"><ele>12.0</ele><time>2026-03-25T10:08:28.921Z</time></trkpt><trkpt lat="43.6860877" lon="10.6176052"><ele>12.0</ele><time>2026-03-25T10:08:29.919Z</time></trkpt><trkpt lat="43.6861621" lon="10.6173977"><ele>11.666666666666666</ele><time>2026-03-25T10:08:30.919Z</time></trkpt><trkpt lat="43.68623" lon="10.617186"><ele>11.333333333333332</ele><time>2026-03-25T10:08:31.921Z</time></trkpt><trkpt lat="43.6862936" lon="10.616973"><ele>11.0</ele><time>2026-03-25T10:08:32.92Z</time></trkpt><trkpt lat="43.6863525" lon="10.6167585"><ele>11.0</ele><time>2026-03-25T10:08:33.92Z</time></trkpt><trkpt lat="43.6864078" lon="10.6165406"><ele>11.0</ele><time>2026-03-25T10:08:34.92Z</time></trkpt><trkpt lat="43.6864556" lon="10.6163235"><ele>11.0</ele><time>2026-03-25T10:08:35.92Z</time></trkpt><trkpt lat="43.6865028" lon="10.6161072"><ele>11.333333333333332</ele><time>2026-03-25T10:08:36.92Z</time></trkpt><trkpt lat="43.6865453" lon="10.6158944"><ele>11.666666666666666</ele><time>2026-03-25T10:08:37.92Z</time></trkpt><trkpt lat="43.6865847" lon="10.6156843"><ele>12.0</ele><time>2026-03-25T10:08:38.92Z</time></trkpt><trkpt lat="43.6866187" lon="10.6154851"><ele>12.25</ele><time>2026-03-25T10:08:39.921Z</time></trkpt><trkpt lat="43.6866491" lon="10.6152878"><ele>12.5</ele><time>2026-03-25T10:08:40.92Z</time></trkpt><trkpt lat="43.6866785" lon="10.6150841"><ele>12.75</ele><time>2026-03-25T10:08:41.921Z</time></trkpt><trkpt lat="43.6867042" lon="10.6148761"><ele>13.0</ele><time>2026-03-25T10:08:42.919Z</time></trkpt><trkpt lat="43.6867202" lon="10.6146838"><ele>13.0</ele><time>2026-03-25T10:08:43.919Z</time></trkpt><trkpt lat="43.6867341" lon="10.6144881"><ele>13.0</ele><time>2026-03-25T10:08:44.919Z</time></trkpt><trkpt lat="43.6867477" lon="10.6142961"><ele>13.0</ele><time>2026-03-25T10:08:45.92Z</time></trkpt><trkpt lat="43.6867595" lon="10.6141058"><ele>13.0</ele><time>2026-03-25T10:08:46.919Z</time></trkpt><trkpt lat="43.6867665" lon="10.6139151"><ele>12.25</ele><time>2026-03-25T10:08:47.919Z</time></trkpt><trkpt lat="43.6867704" lon="10.6137234"><ele>11.5</ele><time>2026-03-25T10:08:48.92Z</time></trkpt><trkpt lat="43.6867736" lon="10.6135299"><ele>10.75</ele><time>2026-03-25T10:08:49.919Z</time></trkpt><trkpt lat="43.6867728" lon="10.6133395"><ele>10.0</ele><time>2026-03-25T10:08:50.92Z</time></trkpt><trkpt lat="43.6867678" lon="10.613157"><ele>10.0</ele><time>2026-03-25T10:08:51.919Z</time></trkpt><trkpt lat="43.6867602" lon="10.6129744"><ele>10.0</ele><time>2026-03-25T10:08:52.92Z</time></trkpt><trkpt lat="43.6867499" lon="10.6127851"><ele>10.0</ele><time>2026-03-25T10:08:53.92Z</time></trkpt><trkpt lat="43.686738" lon="10.6125935"><ele>10.0</ele><time>2026-03-25T10:08:54.92Z</time></trkpt><trkpt lat="43.6867228" lon="10.612403"><ele>10.0</ele><time>2026-03-25T10:08:55.92Z</time></trkpt><trkpt lat="43.6867047" lon="10.6122122"><ele>10.0</ele><time>2026-03-25T10:08:56.92Z</time></trkpt><trkpt lat="43.6866877" lon="10.6120252"><ele>10.0</ele><time>2026-03-25T10:08:57.921Z</time></trkpt><trkpt lat="43.6866678" lon="10.6118409"><ele>10.0</ele><time>2026-03-25T10:08:58.92Z</time></trkpt><trkpt lat="43.6866496" lon="10.6116601"><ele>10.0</ele><time>2026-03-25T10:08:59.919Z</time></trkpt><trkpt lat="43.6866306" lon="10.6114792"><ele>10.0</ele><time>2026-03-25T10:09:00.92Z</time></trkpt><trkpt lat="43.6866019" lon="10.6112961"><ele>10.0</ele><time>2026-03-25T10:09:01.92Z</time></trkpt><trkpt lat="43.6865733" lon="10.611113"><ele>10.0</ele><time>2026-03-25T10:09:02.92Z</time></trkpt><trkpt lat="43.6865443" lon="10.6109272"><ele>10.0</ele><time>2026-03-25T10:09:03.92Z</time></trkpt><trkpt lat="43.6865118" lon="10.6107424"><ele>10.0</ele><time>2026-03-25T10:09:04.92Z</time></trkpt><trkpt lat="43.6864791" lon="10.6105553"><ele>10.0</ele><time>2026-03-25T10:09:05.92Z</time></trkpt><trkpt lat="43.6864493" lon="10.6103696"><ele>10.0</ele><time>2026-03-25T10:09:06.921Z</time></trkpt><trkpt lat="43.6864146" lon="10.6101763"><ele>10.0</ele><time>2026-03-25T10:09:07.92Z</time></trkpt><trkpt lat="43.6863799" lon="10.6099809"><ele>10.0</ele><time>2026-03-25T10:09:08.92Z</time></trkpt><trkpt lat="43.6863394" lon="10.6097842"><ele>10.0</ele><time>2026-03-25T10:09:09.919Z</time></trkpt><trkpt lat="43.686306" lon="10.6095979"><ele>10.0</ele><time>2026-03-25T10:09:10.92Z</time></trkpt><trkpt lat="43.6862779" lon="10.6094126"><ele>10.0</ele><time>2026-03-25T10:09:11.92Z</time></trkpt><trkpt lat="43.6862488" lon="10.6092196"><ele>10.0</ele><time>2026-03-25T10:09:12.92Z</time></trkpt><trkpt lat="43.6862193" lon="10.6090157"><ele>10.0</ele><time>2026-03-25T10:09:13.92Z</time></trkpt><trkpt lat="43.6861848" lon="10.608816"><ele>10.0</ele><time>2026-03-25T10:09:14.92Z</time></trkpt><trkpt lat="43.6861473" lon="10.6086158"><ele>10.25</ele><time>2026-03-25T10:09:15.92Z</time></trkpt><trkpt lat="43.68612" lon="10.6084286"><ele>10.5</ele><time>2026-03-25T10:09:16.92Z</time></trkpt><trkpt lat="43.6860908" lon="10.6082489"><ele>10.75</ele><time>2026-03-25T10:09:17.921Z</time></trkpt><trkpt lat="43.686058" lon="10.6080531"><ele>11.0</ele><time>2026-03-25T10:09:18.92Z</time></trkpt><trkpt lat="43.6860212" lon="10.6078384"><ele>11.0</ele><time>2026-03-25T10:09:19.92Z</time></trkpt><trkpt lat="43.6859815" lon="10.6076111"><ele>11.0</ele><time>2026-03-25T10:09:20.921Z</time></trkpt><trkpt lat="43.6859458" lon="10.6073697"><ele>11.0</ele><time>2026-03-25T10:09:21.919Z</time></trkpt><trkpt lat="43.685917" lon="10.6071445"><ele>11.333333333333332</ele><time>2026-03-25T10:09:22.92Z</time></trkpt><trkpt lat="43.6858871" lon="10.6069258"><ele>11.666666666666666</ele><time>2026-03-25T10:09:23.919Z</time></trkpt><trkpt lat="43.685854" lon="10.6067047"><ele>12.0</ele><time>2026-03-25T10:09:24.92Z</time></trkpt><trkpt lat="43.6858237" lon="10.6064894"><ele>12.0</ele><time>2026-03-25T10:09:25.919Z</time></trkpt><trkpt lat="43.6857883" lon="10.6062733"><ele>12.0</ele><time>2026-03-25T10:09:26.921Z</time></trkpt><trkpt lat="43.6857528" lon="10.6060586"><ele>12.0</ele><time>2026-03-25T10:09:27.919Z</time></trkpt><trkpt lat="43.6857136" lon="10.6058422"><ele>12.0</ele><time>2026-03-25T10:09:28.919Z</time></trkpt><trkpt lat="43.6856822" lon="10.6056291"><ele>12.0</ele><time>2026-03-25T10:09:29.92Z</time></trkpt><trkpt lat="43.6856474" lon="10.6054154"><ele>12.0</ele><time>2026-03-25T10:09:30.92Z</time></trkpt><trkpt lat="43.6856163" lon="10.6052133"><ele>12.0</ele><time>2026-03-25T10:09:31.92Z</time></trkpt><trkpt lat="43.685582" lon="10.6050117"><ele>12.0</ele><time>2026-03-25T10:09:32.92Z</time></trkpt><trkpt lat="43.6855478" lon="10.6047989"><ele>12.0</ele><time>2026-03-25T10:09:33.92Z</time></trkpt><trkpt lat="43.6855142" lon="10.6045823"><ele>11.666666666666666</ele><time>2026-03-25T10:09:34.919Z</time></trkpt><trkpt lat="43.6854811" lon="10.6043693"><ele>11.333333333333332</ele><time>2026-03-25T10:09:35.919Z</time></trkpt><trkpt lat="43.6854478" lon="10.6041674"><ele>11.0</ele><time>2026-03-25T10:09:36.92Z</time></trkpt><trkpt lat="43.6854198" lon="10.6039688"><ele>11.0</ele><time>2026-03-25T10:09:37.919Z</time></trkpt><trkpt lat="43.6853958" lon="10.6037808"><ele>11.0</ele><time>2026-03-25T10:09:38.92Z</time></trkpt><trkpt lat="43.6853722" lon="10.6036029"><ele>11.0</ele><time>2026-03-25T10:09:39.92Z</time></trkpt><trkpt lat="43.6853426" lon="10.6034279"><ele>11.0</ele><time>2026-03-25T10:09:40.919Z</time></trkpt><trkpt lat="43.6853117" lon="10.6032302"><ele>11.0</ele><time>2026-03-25T10:09:41.921Z</time></trkpt><trkpt lat="43.6852749" lon="10.6030144"><ele>11.0</ele><time>2026-03-25T10:09:42.92Z</time></trkpt><trkpt lat="43.6852406" lon="10.6027875"><ele>11.0</ele><time>2026-03-25T10:09:43.919Z</time></trkpt><trkpt lat="43.6852114" lon="10.6025582"><ele>13.0</ele><time>2026-03-25T10:09:44.92Z</time></trkpt><trkpt lat="43.6851813" lon="10.6023264"><ele>15.0</ele><time>2026-03-25T10:09:45.919Z</time></trkpt><trkpt lat="43.6851567" lon="10.6020913"><ele>17.0</ele><time>2026-03-25T10:09:46.92Z</time></trkpt><trkpt lat="43.6851327" lon="10.6018595"><ele>17.0</ele><time>2026-03-25T10:09:47.919Z</time></trkpt><trkpt lat="43.6851145" lon="10.6016225"><ele>17.0</ele><time>2026-03-25T10:09:48.921Z</time></trkpt><trkpt lat="43.6851038" lon="10.6013916"><ele>17.0</ele><time>2026-03-25T10:09:49.919Z</time></trkpt><trkpt lat="43.6850966" lon="10.6011596"><ele>15.666666666666668</ele><time>2026-03-25T10:09:50.92Z</time></trkpt><trkpt lat="43.6850869" lon="10.6009353"><ele>14.333333333333332</ele><time>2026-03-25T10:09:51.919Z</time></trkpt><trkpt lat="43.6850827" lon="10.600715"><ele>13.0</ele><time>2026-03-25T10:09:52.919Z</time></trkpt><trkpt lat="43.6850868" lon="10.6004916"><ele>13.333333333333332</ele><time>2026-03-25T10:09:53.919Z</time></trkpt><trkpt lat="43.6850915" lon="10.6002617"><ele>13.666666666666668</ele><time>2026-03-25T10:09:54.92Z</time></trkpt><trkpt lat="43.6850996" lon="10.6000336"><ele>14.0</ele><time>2026-03-25T10:09:55.919Z</time></trkpt><trkpt lat="43.6851076" lon="10.5998166"><ele>14.0</ele><time>2026-03-25T10:09:56.919Z</time></trkpt><trkpt lat="43.6851172" lon="10.5996089"><ele>14.0</ele><time>2026-03-25T10:09:57.919Z</time></trkpt><trkpt lat="43.6851297" lon="10.5993993"><ele>14.0</ele><time>2026-03-25T10:09:58.92Z</time></trkpt><trkpt lat="43.6851462" lon="10.5991846"><ele>14.0</ele><time>2026-03-25T10:09:59.919Z</time></trkpt><trkpt lat="43.6851641" lon="10.598982"><ele>14.0</ele><time>2026-03-25T10:10:00.92Z</time></trkpt><trkpt lat="43.6851824" lon="10.5987732"><ele>14.0</ele><time>2026-03-25T10:10:01.92Z</time></trkpt><trkpt lat="43.6852025" lon="10.5985667"><ele>13.75</ele><time>2026-03-25T10:10:02.919Z</time></trkpt><trkpt lat="43.6852187" lon="10.5983612"><ele>13.5</ele><time>2026-03-25T10:10:03.92Z</time></trkpt><trkpt lat="43.6852415" lon="10.5981606"><ele>13.25</ele><time>2026-03-25T10:10:04.919Z</time></trkpt><trkpt lat="43.68526" lon="10.5979623"><ele>13.0</ele><time>2026-03-25T10:10:05.92Z</time></trkpt><trkpt lat="43.6852791" lon="10.5977665"><ele>13.0</ele><time>2026-03-25T10:10:06.919Z</time></trkpt><trkpt lat="43.685298" lon="10.5975693"><ele>13.0</ele><time>2026-03-25T10:10:07.92Z</time></trkpt><trkpt lat="43.6853168" lon="10.5973677"><ele>13.0</ele><time>2026-03-25T10:10:08.92Z</time></trkpt><trkpt lat="43.6853439" lon="10.5971602"><ele>13.0</ele><time>2026-03-25T10:10:09.919Z</time></trkpt><trkpt lat="43.6853689" lon="10.5969567"><ele>13.0</ele><time>2026-03-25T10:10:10.92Z</time></trkpt><trkpt lat="43.6853959" lon="10.596752"><ele>13.0</ele><time>2026-03-25T10:10:11.921Z</time></trkpt><trkpt lat="43.6854159" lon="10.5965421"><ele>13.0</ele><time>2026-03-25T10:10:12.92Z</time></trkpt><trkpt lat="43.6854481" lon="10.5963327"><ele>14.0</ele><time>2026-03-25T10:10:13.919Z</time></trkpt><trkpt lat="43.6854851" lon="10.5961288"><ele>15.0</ele><time>2026-03-25T10:10:14.92Z</time></trkpt><trkpt lat="43.685526" lon="10.5959279"><ele>16.0</ele><time>2026-03-25T10:10:15.921Z</time></trkpt><trkpt lat="43.6855867" lon="10.5957156"><ele>16.0</ele><time>2026-03-25T10:10:16.92Z</time></trkpt><trkpt lat="43.6856457" lon="10.5955247"><ele>16.0</ele><time>2026-03-25T10:10:17.921Z</time></trkpt><trkpt lat="43.6857087" lon="10.5953332"><ele>16.0</ele><time>2026-03-25T10:10:18.919Z</time></trkpt><trkpt lat="43.6857745" lon="10.5951348"><ele>16.0</ele><time>2026-03-25T10:10:19.92Z</time></trkpt><trkpt lat="43.6858372" lon="10.5949345"><ele>16.0</ele><time>2026-03-25T10:10:20.92Z</time></trkpt><trkpt lat="43.6859071" lon="10.5947299"><ele>16.0</ele><time>2026-03-25T10:10:21.919Z</time></trkpt><trkpt lat="43.685977" lon="10.594512"><ele>15.666666666666666</ele><time>2026-03-25T10:10:22.919Z</time></trkpt><trkpt lat="43.6860448" lon="10.5942987"><ele>15.333333333333332</ele><time>2026-03-25T10:10:23.919Z</time></trkpt><trkpt lat="43.6861076" lon="10.594091"><ele>15.0</ele><time>2026-03-25T10:10:24.919Z</time></trkpt><trkpt lat="43.6861795" lon="10.5938745"><ele>14.666666666666668</ele><time>2026-03-25T10:10:25.92Z</time></trkpt><trkpt lat="43.6862527" lon="10.593664"><ele>14.333333333333334</ele><time>2026-03-25T10:10:26.92Z</time></trkpt><trkpt lat="43.6863257" lon="10.5934514"><ele>14.0</ele><time>2026-03-25T10:10:27.92Z</time></trkpt><trkpt lat="43.6863831" lon="10.5932683"><ele>14.0</ele><time>2026-03-25T10:10:28.92Z</time></trkpt><trkpt lat="43.6864645" lon="10.5930557"><ele>14.0</ele><time>2026-03-25T10:10:29.92Z</time></trkpt><trkpt lat="43.6865285" lon="10.5928516"><ele>14.0</ele><time>2026-03-25T10:10:30.92Z</time></trkpt><trkpt lat="43.6865938" lon="10.5926494"><ele>13.666666666666668</ele><time>2026-03-25T10:10:31.92Z</time></trkpt><trkpt lat="43.6866585" lon="10.5924451"><ele>13.333333333333332</ele><time>2026-03-25T10:10:32.92Z</time></trkpt><trkpt lat="43.6867246" lon="10.5922467"><ele>13.0</ele><time>2026-03-25T10:10:33.921Z</time></trkpt><trkpt lat="43.6867891" lon="10.5920471"><ele>12.333333333333332</ele><time>2026-03-25T10:10:34.92Z</time></trkpt><trkpt lat="43.6868543" lon="10.5918469"><ele>11.666666666666666</ele><time>2026-03-25T10:10:35.919Z</time></trkpt><trkpt lat="43.6869199" lon="10.5916368"><ele>11.0</ele><time>2026-03-25T10:10:36.921Z</time></trkpt><trkpt lat="43.6869834" lon="10.5914355"><ele>10.666666666666666</ele><time>2026-03-25T10:10:37.92Z</time></trkpt><trkpt lat="43.6870433" lon="10.5912291"><ele>10.333333333333334</ele><time>2026-03-25T10:10:38.919Z</time></trkpt><trkpt lat="43.6870975" lon="10.5910249"><ele>10.0</ele><time>2026-03-25T10:10:39.92Z</time></trkpt><trkpt lat="43.6871593" lon="10.5907894"><ele>10.666666666666668</ele><time>2026-03-25T10:10:40.92Z</time></trkpt><trkpt lat="43.6872113" lon="10.5905729"><ele>11.333333333333334</ele><time>2026-03-25T10:10:41.919Z</time></trkpt><trkpt lat="43.6872473" lon="10.5903589"><ele>12.0</ele><time>2026-03-25T10:10:42.919Z</time></trkpt><trkpt lat="43.6872904" lon="10.5901534"><ele>12.25</ele><time>2026-03-25T10:10:43.921Z</time></trkpt><trkpt lat="43.6873274" lon="10.589965"><ele>12.5</ele><time>2026-03-25T10:10:44.92Z</time></trkpt><trkpt lat="43.6873564" lon="10.5897685"><ele>12.75</ele><time>2026-03-25T10:10:45.92Z</time></trkpt><trkpt lat="43.6873835" lon="10.5895775"><ele>13.0</ele><time>2026-03-25T10:10:46.92Z</time></trkpt><trkpt lat="43.6874133" lon="10.589381"><ele>13.0</ele><time>2026-03-25T10:10:47.92Z</time></trkpt><trkpt lat="43.6874408" lon="10.5891884"><ele>13.0</ele><time>2026-03-25T10:10:48.92Z</time></trkpt><trkpt lat="43.6874641" lon="10.5890021"><ele>13.0</ele><time>2026-03-25T10:10:49.919Z</time></trkpt><trkpt lat="43.6874909" lon="10.5887945"><ele>13.0</ele><time>2026-03-25T10:10:50.92Z</time></trkpt><trkpt lat="43.6875173" lon="10.5885936"><ele>13.25</ele><time>2026-03-25T10:10:51.921Z</time></trkpt><trkpt lat="43.6875389" lon="10.5883935"><ele>13.5</ele><time>2026-03-25T10:10:52.92Z</time></trkpt><trkpt lat="43.6875659" lon="10.5882116"><ele>13.75</ele><time>2026-03-25T10:10:53.921Z</time></trkpt><trkpt lat="43.68758" lon="10.5879961"><ele>14.0</ele><time>2026-03-25T10:10:54.919Z</time></trkpt><trkpt lat="43.6876083" lon="10.5877971"><ele>14.0</ele><time>2026-03-25T10:10:55.919Z</time></trkpt><trkpt lat="43.6876306" lon="10.587614"><ele>14.0</ele><time>2026-03-25T10:10:56.92Z</time></trkpt><trkpt lat="43.6876467" lon="10.5874379"><ele>14.0</ele><time>2026-03-25T10:10:57.92Z</time></trkpt><trkpt lat="43.6876679" lon="10.5872659"><ele>14.0</ele><time>2026-03-25T10:10:58.919Z</time></trkpt><trkpt lat="43.6876881" lon="10.5871191"><ele>13.666666666666668</ele><time>2026-03-25T10:10:59.921Z</time></trkpt><trkpt lat="43.6877064" lon="10.5869849"><ele>13.333333333333334</ele><time>2026-03-25T10:11:00.919Z</time></trkpt><trkpt lat="43.6877214" lon="10.5868739"><ele>13.0</ele><time>2026-03-25T10:11:01.919Z</time></trkpt><trkpt lat="43.6877389" lon="10.5867674"><ele>12.666666666666668</ele><time>2026-03-25T10:11:02.919Z</time></trkpt><trkpt lat="43.6877683" lon="10.5866797"><ele>12.333333333333334</ele><time>2026-03-25T10:11:03.919Z</time></trkpt><trkpt lat="43.6878126" lon="10.5866121"><ele>12.0</ele><time>2026-03-25T10:11:04.92Z</time></trkpt><trkpt lat="43.6878789" lon="10.586475"><ele>12.0</ele><time>2026-03-25T10:11:06.92Z</time></trkpt><trkpt lat="43.6878809" lon="10.5863097"><ele>12.0</ele><time>2026-03-25T10:11:08.919Z</time></trkpt><trkpt lat="43.6878669" lon="10.5862048"><ele>12.0</ele><time>2026-03-25T10:11:09.92Z</time></trkpt><trkpt lat="43.6878574" lon="10.5860836"><ele>12.0</ele><time>2026-03-25T10:11:10.919Z</time></trkpt><trkpt lat="43.687855" lon="10.5859501"><ele>12.0</ele><time>2026-03-25T10:11:11.919Z</time></trkpt><trkpt lat="43.6878604" lon="10.5858103"><ele>12.0</ele><time>2026-03-25T10:11:12.919Z</time></trkpt><trkpt lat="43.6878631" lon="10.5856557"><ele>12.0</ele><time>2026-03-25T10:11:13.921Z</time></trkpt><trkpt lat="43.6878686" lon="10.5855236"><ele>12.0</ele><time>2026-03-25T10:11:14.92Z</time></trkpt><trkpt lat="43.6878739" lon="10.5853991"><ele>12.0</ele><time>2026-03-25T10:11:15.92Z</time></trkpt><trkpt lat="43.6878805" lon="10.5852756"><ele>12.0</ele><time>2026-03-25T10:11:16.92Z</time></trkpt><trkpt lat="43.6878849" lon="10.5851805"><ele>11.4</ele><time>2026-03-25T10:11:17.919Z</time></trkpt><trkpt lat="43.6878902" lon="10.5850487"><ele>10.799999999999999</ele><time>2026-03-25T10:11:19.921Z</time></trkpt><trkpt lat="43.6878927" lon="10.584953"><ele>10.2</ele><time>2026-03-25T10:11:22.92Z</time></trkpt><trkpt lat="43.6878985" lon="10.5848347"><ele>9.6</ele><time>2026-03-25T10:11:25.92Z</time></trkpt><trkpt lat="43.6878955" lon="10.5846937"><ele>9.0</ele><time>2026-03-25T10:11:27.921Z</time></trkpt><trkpt lat="43.6879032" lon="10.5845576"><ele>9.666666666666666</ele><time>2026-03-25T10:11:29.919Z</time></trkpt><trkpt lat="43.6879093" lon="10.5844672"><ele>10.333333333333332</ele><time>2026-03-25T10:11:30.919Z</time></trkpt><trkpt lat="43.6879286" lon="10.5843691"><ele>11.0</ele><time>2026-03-25T10:11:31.92Z</time></trkpt><trkpt lat="43.6879557" lon="10.5842521"><ele>11.666666666666666</ele><time>2026-03-25T10:11:32.92Z</time></trkpt><trkpt lat="43.6879939" lon="10.5841299"><ele>12.333333333333332</ele><time>2026-03-25T10:11:33.92Z</time></trkpt><trkpt lat="43.6880196" lon="10.5839943"><ele>13.0</ele><time>2026-03-25T10:11:34.919Z</time></trkpt><trkpt lat="43.6880493" lon="10.5838501"><ele>13.0</ele><time>2026-03-25T10:11:35.92Z</time></trkpt><trkpt lat="43.6880808" lon="10.5836845"><ele>13.0</ele><time>2026-03-25T10:11:36.92Z</time></trkpt><trkpt lat="43.6881105" lon="10.5835087"><ele>13.0</ele><time>2026-03-25T10:11:37.921Z</time></trkpt><trkpt lat="43.688133" lon="10.5833433"><ele>13.0</ele><time>2026-03-25T10:11:38.92Z</time></trkpt><trkpt lat="43.6881536" lon="10.5831823"><ele>13.5</ele><time>2026-03-25T10:11:39.92Z</time></trkpt><trkpt lat="43.6881704" lon="10.5830227"><ele>14.0</ele><time>2026-03-25T10:11:40.919Z</time></trkpt><trkpt lat="43.6881871" lon="10.5828554"><ele>14.5</ele><time>2026-03-25T10:11:41.92Z</time></trkpt><trkpt lat="43.6882055" lon="10.5827013"><ele>15.0</ele><time>2026-03-25T10:11:42.92Z</time></trkpt><trkpt lat="43.6882238" lon="10.5825461"><ele>15.5</ele><time>2026-03-25T10:11:43.919Z</time></trkpt><trkpt lat="43.6882494" lon="10.5823916"><ele>16.0</ele><time>2026-03-25T10:11:44.92Z</time></trkpt><trkpt lat="43.6882702" lon="10.5822263"><ele>16.5</ele><time>2026-03-25T10:11:45.92Z</time></trkpt><trkpt lat="43.688289" lon="10.5820531"><ele>17.0</ele><time>2026-03-25T10:11:46.919Z</time></trkpt><trkpt lat="43.68833" lon="10.5816973"><ele>17.0</ele><time>2026-03-25T10:11:48.92Z</time></trkpt><trkpt lat="43.6883286" lon="10.5815527"><ele>17.0</ele><time>2026-03-25T10:11:49.919Z</time></trkpt><trkpt lat="43.6883057" lon="10.581407"><ele>17.0</ele><time>2026-03-25T10:11:50.92Z</time></trkpt><trkpt lat="43.6882585" lon="10.5812635"><ele>17.0</ele><time>2026-03-25T10:11:51.92Z</time></trkpt><trkpt lat="43.6882143" lon="10.5811285"><ele>17.0</ele><time>2026-03-25T10:11:52.92Z</time></trkpt><trkpt lat="43.6881613" lon="10.5810171"><ele>17.0</ele><time>2026-03-25T10:11:53.92Z</time></trkpt><trkpt lat="43.6880654" lon="10.5808894"><ele>17.0</ele><time>2026-03-25T10:11:54.92Z</time></trkpt><trkpt lat="43.6879566" lon="10.5807362"><ele>17.0</ele><time>2026-03-25T10:11:55.92Z</time></trkpt><trkpt lat="43.6878397" lon="10.5805643"><ele>16.333333333333336</ele><time>2026-03-25T10:11:56.92Z</time></trkpt><trkpt lat="43.6877207" lon="10.580386"><ele>15.666666666666668</ele><time>2026-03-25T10:11:57.919Z</time></trkpt><trkpt lat="43.6876057" lon="10.5802135"><ele>15.0</ele><time>2026-03-25T10:11:58.92Z</time></trkpt><trkpt lat="43.6874946" lon="10.5800444"><ele>15.0</ele><time>2026-03-25T10:11:59.92Z</time></trkpt><trkpt lat="43.6873852" lon="10.5798867"><ele>15.0</ele><time>2026-03-25T10:12:00.92Z</time></trkpt><trkpt lat="43.6872671" lon="10.5797425"><ele>15.0</ele><time>2026-03-25T10:12:01.92Z</time></trkpt><trkpt lat="43.6871386" lon="10.5796089"><ele>14.75</ele><time>2026-03-25T10:12:02.919Z</time></trkpt><trkpt lat="43.6870107" lon="10.579494"><ele>14.5</ele><time>2026-03-25T10:12:03.92Z</time></trkpt><trkpt lat="43.6868941" lon="10.5793885"><ele>14.25</ele><time>2026-03-25T10:12:04.92Z</time></trkpt><trkpt lat="43.6867768" lon="10.5792804"><ele>14.0</ele><time>2026-03-25T10:12:05.921Z</time></trkpt><trkpt lat="43.6866591" lon="10.5791742"><ele>14.0</ele><time>2026-03-25T10:12:06.919Z</time></trkpt><trkpt lat="43.6865332" lon="10.5790594"><ele>14.0</ele><time>2026-03-25T10:12:07.919Z</time></trkpt><trkpt lat="43.6864031" lon="10.5789429"><ele>14.0</ele><time>2026-03-25T10:12:08.921Z</time></trkpt><trkpt lat="43.6862751" lon="10.5788303"><ele>14.0</ele><time>2026-03-25T10:12:09.92Z</time></trkpt><trkpt lat="43.6861593" lon="10.5787301"><ele>14.0</ele><time>2026-03-25T10:12:10.921Z</time></trkpt><trkpt lat="43.6860467" lon="10.5786311"><ele>14.0</ele><time>2026-03-25T10:12:11.919Z</time></trkpt><trkpt lat="43.6859383" lon="10.5785356"><ele>14.0</ele><time>2026-03-25T10:12:12.921Z</time></trkpt><trkpt lat="43.6858583" lon="10.5784549"><ele>14.166666666666668</ele><time>2026-03-25T10:12:13.921Z</time></trkpt><trkpt lat="43.6857756" lon="10.5783876"><ele>14.333333333333334</ele><time>2026-03-25T10:12:14.919Z</time></trkpt><trkpt lat="43.6857112" lon="10.5783289"><ele>14.5</ele><time>2026-03-25T10:12:15.92Z</time></trkpt><trkpt lat="43.6856512" lon="10.5782786"><ele>14.666666666666668</ele><time>2026-03-25T10:12:16.92Z</time></trkpt><trkpt lat="43.6855588" lon="10.5781971"><ele>14.833333333333334</ele><time>2026-03-25T10:12:18.92Z</time></trkpt><trkpt lat="43.6854839" lon="10.5781358"><ele>15.0</ele><time>2026-03-25T10:12:20.92Z</time></trkpt><trkpt lat="43.6854123" lon="10.5780799"><ele>15.0</ele><time>2026-03-25T10:12:22.919Z</time></trkpt><trkpt lat="43.6853525" lon="10.5780309"><ele>15.0</ele><time>2026-03-25T10:12:24.92Z</time></trkpt><trkpt lat="43.6852775" lon="10.5779652"><ele>15.0</ele><time>2026-03-25T10:12:30.921Z</time></trkpt><trkpt lat="43.6852185" lon="10.5779059"><ele>15.0</ele><time>2026-03-25T10:12:31.919Z</time></trkpt><trkpt lat="43.6851374" lon="10.5778289"><ele>15.0</ele><time>2026-03-25T10:12:32.92Z</time></trkpt><trkpt lat="43.6850502" lon="10.5777427"><ele>15.0</ele><time>2026-03-25T10:12:33.92Z</time></trkpt><trkpt lat="43.6849404" lon="10.5776414"><ele>15.0</ele><time>2026-03-25T10:12:34.92Z</time></trkpt><trkpt lat="43.6848364" lon="10.5775423"><ele>15.0</ele><time>2026-03-25T10:12:35.92Z</time></trkpt><trkpt lat="43.6847305" lon="10.577437"><ele>15.0</ele><time>2026-03-25T10:12:36.92Z</time></trkpt><trkpt lat="43.6845618" lon="10.5772927"><ele>15.0</ele><time>2026-03-25T10:12:37.919Z</time></trkpt><trkpt lat="43.6844245" lon="10.5771684"><ele>15.0</ele><time>2026-03-25T10:12:38.92Z</time></trkpt><trkpt lat="43.6843007" lon="10.5770544"><ele>15.0</ele><time>2026-03-25T10:12:39.92Z</time></trkpt><trkpt lat="43.6841802" lon="10.5769388"><ele>15.0</ele><time>2026-03-25T10:12:40.919Z</time></trkpt><trkpt lat="43.6840611" lon="10.5768317"><ele>15.0</ele><time>2026-03-25T10:12:41.92Z</time></trkpt><trkpt lat="43.6839408" lon="10.5767267"><ele>15.0</ele><time>2026-03-25T10:12:42.919Z</time></trkpt><trkpt lat="43.6838235" lon="10.5766127"><ele>15.0</ele><time>2026-03-25T10:12:43.92Z</time></trkpt><trkpt lat="43.6837189" lon="10.57648"><ele>15.0</ele><time>2026-03-25T10:12:44.92Z</time></trkpt><trkpt lat="43.6836102" lon="10.5763206"><ele>15.0</ele><time>2026-03-25T10:12:45.92Z</time></trkpt><trkpt lat="43.6835026" lon="10.5761561"><ele>15.0</ele><time>2026-03-25T10:12:46.92Z</time></trkpt><trkpt lat="43.6834019" lon="10.5759719"><ele>15.0</ele><time>2026-03-25T10:12:47.92Z</time></trkpt><trkpt lat="43.6833015" lon="10.5757873"><ele>15.0</ele><time>2026-03-25T10:12:48.92Z</time></trkpt><trkpt lat="43.6831994" lon="10.5755898"><ele>15.0</ele><time>2026-03-25T10:12:49.919Z</time></trkpt><trkpt lat="43.683096" lon="10.5753951"><ele>14.666666666666668</ele><time>2026-03-25T10:12:50.92Z</time></trkpt><trkpt lat="43.6829973" lon="10.5752099"><ele>14.333333333333334</ele><time>2026-03-25T10:12:51.92Z</time></trkpt><trkpt lat="43.6829032" lon="10.5750294"><ele>14.0</ele><time>2026-03-25T10:12:52.919Z</time></trkpt><trkpt lat="43.6828064" lon="10.5748457"><ele>14.0</ele><time>2026-03-25T10:12:53.919Z</time></trkpt><trkpt lat="43.6827076" lon="10.5746502"><ele>14.0</ele><time>2026-03-25T10:12:54.92Z</time></trkpt><trkpt lat="43.682601" lon="10.5744465"><ele>14.0</ele><time>2026-03-25T10:12:55.92Z</time></trkpt><trkpt lat="43.6824961" lon="10.5742441"><ele>14.0</ele><time>2026-03-25T10:12:56.919Z</time></trkpt><trkpt lat="43.6823949" lon="10.5740478"><ele>14.0</ele><time>2026-03-25T10:12:57.92Z</time></trkpt><trkpt lat="43.6823005" lon="10.573867"><ele>14.0</ele><time>2026-03-25T10:12:58.92Z</time></trkpt><trkpt lat="43.6822125" lon="10.5736969"><ele>13.75</ele><time>2026-03-25T10:12:59.921Z</time></trkpt><trkpt lat="43.6821235" lon="10.5735346"><ele>13.5</ele><time>2026-03-25T10:13:00.919Z</time></trkpt><trkpt lat="43.6820347" lon="10.5733721"><ele>13.25</ele><time>2026-03-25T10:13:01.92Z</time></trkpt><trkpt lat="43.681945" lon="10.5732"><ele>13.0</ele><time>2026-03-25T10:13:02.919Z</time></trkpt><trkpt lat="43.6818615" lon="10.573024"><ele>12.666666666666666</ele><time>2026-03-25T10:13:03.92Z</time></trkpt><trkpt lat="43.681776" lon="10.5728446"><ele>12.333333333333332</ele><time>2026-03-25T10:13:04.919Z</time></trkpt><trkpt lat="43.681682" lon="10.5726644"><ele>12.0</ele><time>2026-03-25T10:13:05.92Z</time></trkpt><trkpt lat="43.6815822" lon="10.5724698"><ele>12.0</ele><time>2026-03-25T10:13:06.92Z</time></trkpt><trkpt lat="43.6814763" lon="10.5722666"><ele>12.0</ele><time>2026-03-25T10:13:07.921Z</time></trkpt><trkpt lat="43.681374" lon="10.5720705"><ele>12.0</ele><time>2026-03-25T10:13:08.92Z</time></trkpt><trkpt lat="43.6812722" lon="10.5718862"><ele>12.333333333333332</ele><time>2026-03-25T10:13:09.921Z</time></trkpt><trkpt lat="43.681178" lon="10.5717032"><ele>12.666666666666666</ele><time>2026-03-25T10:13:10.92Z</time></trkpt><trkpt lat="43.6810902" lon="10.5715095"><ele>13.0</ele><time>2026-03-25T10:13:11.919Z</time></trkpt><trkpt lat="43.6810027" lon="10.5712965"><ele>13.0</ele><time>2026-03-25T10:13:12.919Z</time></trkpt><trkpt lat="43.680937" lon="10.5710763"><ele>13.0</ele><time>2026-03-25T10:13:13.919Z</time></trkpt><trkpt lat="43.6808754" lon="10.5708498"><ele>13.0</ele><time>2026-03-25T10:13:14.92Z</time></trkpt><trkpt lat="43.6808249" lon="10.5706184"><ele>13.0</ele><time>2026-03-25T10:13:15.921Z</time></trkpt><trkpt lat="43.680782" lon="10.5703736"><ele>13.0</ele><time>2026-03-25T10:13:16.92Z</time></trkpt><trkpt lat="43.6807483" lon="10.5701378"><ele>13.0</ele><time>2026-03-25T10:13:17.92Z</time></trkpt><trkpt lat="43.6807171" lon="10.5699098"><ele>13.0</ele><time>2026-03-25T10:13:18.921Z</time></trkpt><trkpt lat="43.6806862" lon="10.5696766"><ele>13.0</ele><time>2026-03-25T10:13:19.919Z</time></trkpt><trkpt lat="43.6806565" lon="10.569434"><ele>13.0</ele><time>2026-03-25T10:13:20.92Z</time></trkpt><trkpt lat="43.6806301" lon="10.5691834"><ele>13.0</ele><time>2026-03-25T10:13:21.921Z</time></trkpt><trkpt lat="43.680605" lon="10.5689227"><ele>13.0</ele><time>2026-03-25T10:13:22.92Z</time></trkpt><trkpt lat="43.6805808" lon="10.5686512"><ele>13.0</ele><time>2026-03-25T10:13:23.92Z</time></trkpt><trkpt lat="43.6805521" lon="10.5683749"><ele>13.0</ele><time>2026-03-25T10:13:24.92Z</time></trkpt><trkpt lat="43.6805178" lon="10.5681217"><ele>13.0</ele><time>2026-03-25T10:13:25.919Z</time></trkpt><trkpt lat="43.6804913" lon="10.5678797"><ele>13.0</ele><time>2026-03-25T10:13:26.92Z</time></trkpt><trkpt lat="43.6804672" lon="10.5676485"><ele>13.0</ele><time>2026-03-25T10:13:27.92Z</time></trkpt><trkpt lat="43.6804438" lon="10.5674181"><ele>13.0</ele><time>2026-03-25T10:13:28.921Z</time></trkpt><trkpt lat="43.6804267" lon="10.5671784"><ele>13.0</ele><time>2026-03-25T10:13:29.919Z</time></trkpt><trkpt lat="43.6804145" lon="10.5669405"><ele>13.333333333333332</ele><time>2026-03-25T10:13:30.919Z</time></trkpt><trkpt lat="43.6804194" lon="10.5666974"><ele>13.666666666666668</ele><time>2026-03-25T10:13:31.921Z</time></trkpt><trkpt lat="43.6804385" lon="10.5664507"><ele>14.0</ele><time>2026-03-25T10:13:32.92Z</time></trkpt><trkpt lat="43.6804663" lon="10.5662103"><ele>13.666666666666668</ele><time>2026-03-25T10:13:33.919Z</time></trkpt><trkpt lat="43.6805035" lon="10.565965"><ele>13.333333333333332</ele><time>2026-03-25T10:13:34.92Z</time></trkpt><trkpt lat="43.6805474" lon="10.5657172"><ele>13.0</ele><time>2026-03-25T10:13:35.92Z</time></trkpt><trkpt lat="43.6806033" lon="10.5654796"><ele>13.333333333333332</ele><time>2026-03-25T10:13:36.92Z</time></trkpt><trkpt lat="43.6806582" lon="10.5652389"><ele>13.666666666666668</ele><time>2026-03-25T10:13:37.919Z</time></trkpt><trkpt lat="43.6807543" lon="10.5650299"><ele>14.0</ele><time>2026-03-25T10:13:38.919Z</time></trkpt><trkpt lat="43.6808424" lon="10.5648164"><ele>14.0</ele><time>2026-03-25T10:13:39.919Z</time></trkpt><trkpt lat="43.6809261" lon="10.5646167"><ele>14.0</ele><time>2026-03-25T10:13:40.92Z</time></trkpt><trkpt lat="43.6810136" lon="10.5644209"><ele>14.0</ele><time>2026-03-25T10:13:41.919Z</time></trkpt><trkpt lat="43.6810912" lon="10.5642322"><ele>14.666666666666668</ele><time>2026-03-25T10:13:42.921Z</time></trkpt><trkpt lat="43.6811725" lon="10.5640508"><ele>15.333333333333332</ele><time>2026-03-25T10:13:43.92Z</time></trkpt><trkpt lat="43.6812532" lon="10.5638687"><ele>16.0</ele><time>2026-03-25T10:13:44.921Z</time></trkpt><trkpt lat="43.6813327" lon="10.5636896"><ele>16.0</ele><time>2026-03-25T10:13:45.92Z</time></trkpt><trkpt lat="43.6814109" lon="10.5635099"><ele>16.0</ele><time>2026-03-25T10:13:46.92Z</time></trkpt><trkpt lat="43.6814884" lon="10.5633304"><ele>16.0</ele><time>2026-03-25T10:13:47.919Z</time></trkpt><trkpt lat="43.6815748" lon="10.5631544"><ele>16.0</ele><time>2026-03-25T10:13:48.92Z</time></trkpt><trkpt lat="43.6816665" lon="10.5629768"><ele>16.0</ele><time>2026-03-25T10:13:49.921Z</time></trkpt><trkpt lat="43.6817701" lon="10.5628104"><ele>16.0</ele><time>2026-03-25T10:13:50.919Z</time></trkpt><trkpt lat="43.6818788" lon="10.5626382"><ele>18.0</ele><time>2026-03-25T10:13:51.92Z</time></trkpt><trkpt lat="43.6819876" lon="10.56247"><ele>20.0</ele><time>2026-03-25T10:13:52.919Z</time></trkpt><trkpt lat="43.6820965" lon="10.5622984"><ele>22.0</ele><time>2026-03-25T10:13:53.92Z</time></trkpt><trkpt lat="43.6822073" lon="10.5621297"><ele>20.0</ele><time>2026-03-25T10:13:54.92Z</time></trkpt><trkpt lat="43.682318" lon="10.5619501"><ele>18.0</ele><time>2026-03-25T10:13:55.92Z</time></trkpt><trkpt lat="43.6824272" lon="10.5617724"><ele>16.0</ele><time>2026-03-25T10:13:56.92Z</time></trkpt><trkpt lat="43.6825425" lon="10.5615923"><ele>16.0</ele><time>2026-03-25T10:13:57.92Z</time></trkpt><trkpt lat="43.6826522" lon="10.5614139"><ele>16.0</ele><time>2026-03-25T10:13:58.919Z</time></trkpt><trkpt lat="43.682761" lon="10.5612373"><ele>16.0</ele><time>2026-03-25T10:13:59.919Z</time></trkpt><trkpt lat="43.68287" lon="10.5610583"><ele>15.333333333333332</ele><time>2026-03-25T10:14:00.92Z</time></trkpt><trkpt lat="43.6829697" lon="10.5608637"><ele>14.666666666666668</ele><time>2026-03-25T10:14:01.92Z</time></trkpt><trkpt lat="43.6830686" lon="10.5606592"><ele>14.0</ele><time>2026-03-25T10:14:02.92Z</time></trkpt><trkpt lat="43.6831596" lon="10.5604425"><ele>14.0</ele><time>2026-03-25T10:14:03.919Z</time></trkpt><trkpt lat="43.6832506" lon="10.5602193"><ele>14.0</ele><time>2026-03-25T10:14:04.92Z</time></trkpt><trkpt lat="43.6833411" lon="10.5599954"><ele>14.0</ele><time>2026-03-25T10:14:05.92Z</time></trkpt><trkpt lat="43.6834361" lon="10.5597674"><ele>14.333333333333334</ele><time>2026-03-25T10:14:06.92Z</time></trkpt><trkpt lat="43.6835354" lon="10.5595329"><ele>14.666666666666668</ele><time>2026-03-25T10:14:07.92Z</time></trkpt><trkpt lat="43.6836325" lon="10.5592996"><ele>15.0</ele><time>2026-03-25T10:14:08.92Z</time></trkpt><trkpt lat="43.6837235" lon="10.5590809"><ele>15.0</ele><time>2026-03-25T10:14:09.92Z</time></trkpt><trkpt lat="43.6838056" lon="10.5588662"><ele>15.0</ele><time>2026-03-25T10:14:10.919Z</time></trkpt><trkpt lat="43.6838821" lon="10.5586482"><ele>15.0</ele><time>2026-03-25T10:14:11.919Z</time></trkpt><trkpt lat="43.6839532" lon="10.558433"><ele>15.0</ele><time>2026-03-25T10:14:12.92Z</time></trkpt><trkpt lat="43.6840225" lon="10.5582097"><ele>15.0</ele><time>2026-03-25T10:14:13.92Z</time></trkpt><trkpt lat="43.6840888" lon="10.5579831"><ele>15.0</ele><time>2026-03-25T10:14:14.921Z</time></trkpt><trkpt lat="43.684158" lon="10.5577452"><ele>14.0</ele><time>2026-03-25T10:14:15.921Z</time></trkpt><trkpt lat="43.6842204" lon="10.5575056"><ele>13.0</ele><time>2026-03-25T10:14:16.92Z</time></trkpt><trkpt lat="43.6842762" lon="10.5572726"><ele>12.0</ele><time>2026-03-25T10:14:17.92Z</time></trkpt><trkpt lat="43.6843173" lon="10.5570389"><ele>12.333333333333332</ele><time>2026-03-25T10:14:18.92Z</time></trkpt><trkpt lat="43.6843489" lon="10.5567975"><ele>12.666666666666666</ele><time>2026-03-25T10:14:19.92Z</time></trkpt><trkpt lat="43.6843771" lon="10.5565539"><ele>13.0</ele><time>2026-03-25T10:14:20.92Z</time></trkpt><trkpt lat="43.6844144" lon="10.556295"><ele>16.333333333333332</ele><time>2026-03-25T10:14:21.921Z</time></trkpt><trkpt lat="43.6844479" lon="10.5560374"><ele>19.666666666666668</ele><time>2026-03-25T10:14:22.919Z</time></trkpt><trkpt lat="43.6844821" lon="10.5557786"><ele>23.0</ele><time>2026-03-25T10:14:23.92Z</time></trkpt><trkpt lat="43.6845119" lon="10.5555247"><ele>21.666666666666668</ele><time>2026-03-25T10:14:24.919Z</time></trkpt><trkpt lat="43.6845394" lon="10.5552656"><ele>20.333333333333332</ele><time>2026-03-25T10:14:25.919Z</time></trkpt><trkpt lat="43.6845634" lon="10.5550187"><ele>19.0</ele><time>2026-03-25T10:14:26.92Z</time></trkpt><trkpt lat="43.6845876" lon="10.5547782"><ele>19.0</ele><time>2026-03-25T10:14:27.921Z</time></trkpt><trkpt lat="43.6846119" lon="10.5545543"><ele>19.0</ele><time>2026-03-25T10:14:28.92Z</time></trkpt><trkpt lat="43.684631" lon="10.5543305"><ele>19.0</ele><time>2026-03-25T10:14:29.919Z</time></trkpt><trkpt lat="43.6846439" lon="10.5541163"><ele>18.0</ele><time>2026-03-25T10:14:30.919Z</time></trkpt><trkpt lat="43.6846462" lon="10.5539016"><ele>17.0</ele><time>2026-03-25T10:14:31.919Z</time></trkpt><trkpt lat="43.6846338" lon="10.5536806"><ele>16.0</ele><time>2026-03-25T10:14:32.919Z</time></trkpt><trkpt lat="43.6846277" lon="10.553459"><ele>16.0</ele><time>2026-03-25T10:14:33.919Z</time></trkpt><trkpt lat="43.6845774" lon="10.5532367"><ele>16.0</ele><time>2026-03-25T10:14:34.919Z</time></trkpt><trkpt lat="43.6845276" lon="10.5530145"><ele>16.0</ele><time>2026-03-25T10:14:35.92Z</time></trkpt><trkpt lat="43.6844911" lon="10.5527944"><ele>16.666666666666664</ele><time>2026-03-25T10:14:36.919Z</time></trkpt><trkpt lat="43.6844728" lon="10.5525862"><ele>17.333333333333332</ele><time>2026-03-25T10:14:37.92Z</time></trkpt><trkpt lat="43.6844662" lon="10.5523816"><ele>18.0</ele><time>2026-03-25T10:14:38.921Z</time></trkpt><trkpt lat="43.6844755" lon="10.5521735"><ele>17.0</ele><time>2026-03-25T10:14:39.92Z</time></trkpt><trkpt lat="43.6844888" lon="10.551962"><ele>16.0</ele><time>2026-03-25T10:14:40.92Z</time></trkpt><trkpt lat="43.6845005" lon="10.5517456"><ele>15.0</ele><time>2026-03-25T10:14:41.919Z</time></trkpt><trkpt lat="43.6845134" lon="10.5515299"><ele>15.0</ele><time>2026-03-25T10:14:42.921Z</time></trkpt><trkpt lat="43.6845188" lon="10.5513137"><ele>15.0</ele><time>2026-03-25T10:14:43.919Z</time></trkpt><trkpt lat="43.6845297" lon="10.5510869"><ele>15.0</ele><time>2026-03-25T10:14:44.919Z</time></trkpt><trkpt lat="43.6845481" lon="10.5508628"><ele>15.0</ele><time>2026-03-25T10:14:45.921Z</time></trkpt><trkpt lat="43.6845735" lon="10.5506341"><ele>15.0</ele><time>2026-03-25T10:14:46.92Z</time></trkpt><trkpt lat="43.6846145" lon="10.5504071"><ele>15.0</ele><time>2026-03-25T10:14:47.92Z</time></trkpt><trkpt lat="43.6846585" lon="10.5501828"><ele>15.0</ele><time>2026-03-25T10:14:48.92Z</time></trkpt><trkpt lat="43.6847075" lon="10.5499597"><ele>15.0</ele><time>2026-03-25T10:14:49.92Z</time></trkpt><trkpt lat="43.6847552" lon="10.5497441"><ele>15.0</ele><time>2026-03-25T10:14:50.92Z</time></trkpt><trkpt lat="43.6848062" lon="10.5495283"><ele>15.0</ele><time>2026-03-25T10:14:51.919Z</time></trkpt><trkpt lat="43.684857" lon="10.5493116"><ele>15.0</ele><time>2026-03-25T10:14:52.92Z</time></trkpt><trkpt lat="43.6849053" lon="10.5490974"><ele>15.0</ele><time>2026-03-25T10:14:53.92Z</time></trkpt><trkpt lat="43.6849534" lon="10.5488953"><ele>14.75</ele><time>2026-03-25T10:14:54.92Z</time></trkpt><trkpt lat="43.684998" lon="10.5486993"><ele>14.5</ele><time>2026-03-25T10:14:55.92Z</time></trkpt><trkpt lat="43.6850449" lon="10.5485126"><ele>14.25</ele><time>2026-03-25T10:14:56.92Z</time></trkpt><trkpt lat="43.6850823" lon="10.548339"><ele>14.0</ele><time>2026-03-25T10:14:57.92Z</time></trkpt><trkpt lat="43.6851189" lon="10.5481666"><ele>14.0</ele><time>2026-03-25T10:14:58.92Z</time></trkpt><trkpt lat="43.68516" lon="10.547994"><ele>14.0</ele><time>2026-03-25T10:14:59.92Z</time></trkpt><trkpt lat="43.6852015" lon="10.5478177"><ele>14.0</ele><time>2026-03-25T10:15:00.92Z</time></trkpt><trkpt lat="43.6852412" lon="10.5476444"><ele>14.0</ele><time>2026-03-25T10:15:01.92Z</time></trkpt><trkpt lat="43.6852785" lon="10.5474804"><ele>14.0</ele><time>2026-03-25T10:15:02.921Z</time></trkpt><trkpt lat="43.6853151" lon="10.5473243"><ele>13.999999999999998</ele><time>2026-03-25T10:15:03.92Z</time></trkpt><trkpt lat="43.6853423" lon="10.5471785"><ele>13.999999999999998</ele><time>2026-03-25T10:15:04.92Z</time></trkpt><trkpt lat="43.6853736" lon="10.547046"><ele>14.0</ele><time>2026-03-25T10:15:05.919Z</time></trkpt><trkpt lat="43.6854031" lon="10.546923"><ele>14.0</ele><time>2026-03-25T10:15:06.92Z</time></trkpt><trkpt lat="43.6854252" lon="10.5468128"><ele>14.166666666666668</ele><time>2026-03-25T10:15:07.92Z</time></trkpt><trkpt lat="43.6854443" lon="10.5467157"><ele>14.333333333333334</ele><time>2026-03-25T10:15:08.919Z</time></trkpt><trkpt lat="43.6854724" lon="10.5465749"><ele>14.5</ele><time>2026-03-25T10:15:10.919Z</time></trkpt><trkpt lat="43.6855044" lon="10.5464731"><ele>14.666666666666668</ele><time>2026-03-25T10:15:13.92Z</time></trkpt><trkpt lat="43.6855501" lon="10.5464025"><ele>14.833333333333334</ele><time>2026-03-25T10:15:15.92Z</time></trkpt><trkpt lat="43.6856239" lon="10.546305"><ele>15.0</ele><time>2026-03-25T10:15:17.919Z</time></trkpt><trkpt lat="43.6856738" lon="10.5461644"><ele>14.6</ele><time>2026-03-25T10:15:19.92Z</time></trkpt><trkpt lat="43.685704" lon="10.5460456"><ele>14.2</ele><time>2026-03-25T10:15:20.92Z</time></trkpt><trkpt lat="43.6857414" lon="10.5459086"><ele>13.8</ele><time>2026-03-25T10:15:21.921Z</time></trkpt><trkpt lat="43.6857877" lon="10.5457829"><ele>13.4</ele><time>2026-03-25T10:15:22.919Z</time></trkpt><trkpt lat="43.6858422" lon="10.5456466"><ele>13.0</ele><time>2026-03-25T10:15:23.92Z</time></trkpt><trkpt lat="43.6859062" lon="10.5454897"><ele>13.0</ele><time>2026-03-25T10:15:24.92Z</time></trkpt><trkpt lat="43.6859805" lon="10.5453248"><ele>13.0</ele><time>2026-03-25T10:15:25.92Z</time></trkpt><trkpt lat="43.6860523" lon="10.5451721"><ele>13.0</ele><time>2026-03-25T10:15:26.92Z</time></trkpt><trkpt lat="43.6861288" lon="10.5450115"><ele>13.0</ele><time>2026-03-25T10:15:27.92Z</time></trkpt><trkpt lat="43.6862092" lon="10.5448426"><ele>13.0</ele><time>2026-03-25T10:15:28.919Z</time></trkpt><trkpt lat="43.6862957" lon="10.5446688"><ele>13.0</ele><time>2026-03-25T10:15:29.92Z</time></trkpt><trkpt lat="43.6863831" lon="10.544489"><ele>13.0</ele><time>2026-03-25T10:15:30.921Z</time></trkpt><trkpt lat="43.6864727" lon="10.5442983"><ele>13.0</ele><time>2026-03-25T10:15:31.92Z</time></trkpt><trkpt lat="43.686559" lon="10.5441136"><ele>13.0</ele><time>2026-03-25T10:15:32.921Z</time></trkpt><trkpt lat="43.6866428" lon="10.5439434"><ele>13.0</ele><time>2026-03-25T10:15:33.92Z</time></trkpt><trkpt lat="43.6867233" lon="10.543776"><ele>13.0</ele><time>2026-03-25T10:15:34.92Z</time></trkpt><trkpt lat="43.686803" lon="10.5436115"><ele>13.0</ele><time>2026-03-25T10:15:35.92Z</time></trkpt><trkpt lat="43.6868834" lon="10.5434434"><ele>13.0</ele><time>2026-03-25T10:15:36.92Z</time></trkpt><trkpt lat="43.6869614" lon="10.5432744"><ele>13.0</ele><time>2026-03-25T10:15:37.92Z</time></trkpt><trkpt lat="43.6870361" lon="10.543107"><ele>13.0</ele><time>2026-03-25T10:15:38.921Z</time></trkpt><trkpt lat="43.6871039" lon="10.5429387"><ele>13.0</ele><time>2026-03-25T10:15:39.921Z</time></trkpt><trkpt lat="43.6871641" lon="10.542778"><ele>13.0</ele><time>2026-03-25T10:15:40.92Z</time></trkpt><trkpt lat="43.687215" lon="10.5426236"><ele>13.0</ele><time>2026-03-25T10:15:41.92Z</time></trkpt><trkpt lat="43.6872616" lon="10.5424667"><ele>13.0</ele><time>2026-03-25T10:15:42.92Z</time></trkpt><trkpt lat="43.6873041" lon="10.5423181"><ele>13.0</ele><time>2026-03-25T10:15:43.919Z</time></trkpt><trkpt lat="43.687345" lon="10.542178"><ele>13.0</ele><time>2026-03-25T10:15:44.92Z</time></trkpt><trkpt lat="43.6873828" lon="10.5420399"><ele>13.0</ele><time>2026-03-25T10:15:45.921Z</time></trkpt><trkpt lat="43.6874145" lon="10.5418956"><ele>13.0</ele><time>2026-03-25T10:15:46.92Z</time></trkpt><trkpt lat="43.6874486" lon="10.5417396"><ele>13.0</ele><time>2026-03-25T10:15:47.919Z</time></trkpt><trkpt lat="43.6874862" lon="10.541582"><ele>13.0</ele><time>2026-03-25T10:15:48.919Z</time></trkpt><trkpt lat="43.6875159" lon="10.5414181"><ele>13.0</ele><time>2026-03-25T10:15:49.92Z</time></trkpt><trkpt lat="43.6875534" lon="10.5412505"><ele>13.0</ele><time>2026-03-25T10:15:50.92Z</time></trkpt><trkpt lat="43.6875919" lon="10.5410807"><ele>13.0</ele><time>2026-03-25T10:15:51.919Z</time></trkpt><trkpt lat="43.68763" lon="10.5409159"><ele>13.0</ele><time>2026-03-25T10:15:52.92Z</time></trkpt><trkpt lat="43.6876771" lon="10.5407483"><ele>13.0</ele><time>2026-03-25T10:15:53.919Z</time></trkpt><trkpt lat="43.6877092" lon="10.5405798"><ele>13.0</ele><time>2026-03-25T10:15:54.92Z</time></trkpt><trkpt lat="43.6877512" lon="10.5403968"><ele>16.5</ele><time>2026-03-25T10:15:55.92Z</time></trkpt><trkpt lat="43.6877704" lon="10.5402284"><ele>20.0</ele><time>2026-03-25T10:15:56.919Z</time></trkpt><trkpt lat="43.6878232" lon="10.5400424"><ele>23.5</ele><time>2026-03-25T10:15:57.92Z</time></trkpt><trkpt lat="43.6878726" lon="10.5398781"><ele>27.0</ele><time>2026-03-25T10:15:58.92Z</time></trkpt><trkpt lat="43.6878952" lon="10.5397177"><ele>25.5</ele><time>2026-03-25T10:15:59.919Z</time></trkpt><trkpt lat="43.6879378" lon="10.5395397"><ele>24.0</ele><time>2026-03-25T10:16:00.919Z</time></trkpt><trkpt lat="43.6879836" lon="10.5393541"><ele>22.5</ele><time>2026-03-25T10:16:01.92Z</time></trkpt><trkpt lat="43.6880162" lon="10.5391762"><ele>21.0</ele><time>2026-03-25T10:16:02.921Z</time></trkpt><trkpt lat="43.6880469" lon="10.5390057"><ele>21.0</ele><time>2026-03-25T10:16:03.921Z</time></trkpt><trkpt lat="43.6880824" lon="10.5388398"><ele>21.0</ele><time>2026-03-25T10:16:04.92Z</time></trkpt><trkpt lat="43.6881277" lon="10.5386454"><ele>21.0</ele><time>2026-03-25T10:16:05.92Z</time></trkpt><trkpt lat="43.6881559" lon="10.5385101"><ele>21.0</ele><time>2026-03-25T10:16:06.919Z</time></trkpt><trkpt lat="43.6881945" lon="10.5383324"><ele>20.0</ele><time>2026-03-25T10:16:07.92Z</time></trkpt><trkpt lat="43.688257" lon="10.538158"><ele>19.0</ele><time>2026-03-25T10:16:08.92Z</time></trkpt><trkpt lat="43.68829" lon="10.538"><ele>18.0</ele><time>2026-03-25T10:16:09.919Z</time></trkpt><trkpt lat="43.688312" lon="10.5378568"><ele>17.0</ele><time>2026-03-25T10:16:10.92Z</time></trkpt><trkpt lat="43.6883483" lon="10.5377046"><ele>16.5</ele><time>2026-03-25T10:16:11.921Z</time></trkpt><trkpt lat="43.6883947" lon="10.5375345"><ele>16.0</ele><time>2026-03-25T10:16:12.919Z</time></trkpt><trkpt lat="43.6884351" lon="10.5373551"><ele>15.5</ele><time>2026-03-25T10:16:13.92Z</time></trkpt><trkpt lat="43.6884812" lon="10.5371902"><ele>15.0</ele><time>2026-03-25T10:16:14.92Z</time></trkpt><trkpt lat="43.6885212" lon="10.5370165"><ele>14.5</ele><time>2026-03-25T10:16:15.92Z</time></trkpt><trkpt lat="43.6885623" lon="10.5368504"><ele>14.0</ele><time>2026-03-25T10:16:16.919Z</time></trkpt><trkpt lat="43.6885985" lon="10.5366756"><ele>13.5</ele><time>2026-03-25T10:16:17.919Z</time></trkpt><trkpt lat="43.6886387" lon="10.5365003"><ele>13.0</ele><time>2026-03-25T10:16:18.918Z</time></trkpt><trkpt lat="43.6886808" lon="10.5363262"><ele>13.0</ele><time>2026-03-25T10:16:19.92Z</time></trkpt><trkpt lat="43.6887199" lon="10.5361464"><ele>13.0</ele><time>2026-03-25T10:16:20.92Z</time></trkpt><trkpt lat="43.6887579" lon="10.5359709"><ele>13.0</ele><time>2026-03-25T10:16:21.919Z</time></trkpt><trkpt lat="43.6887951" lon="10.5357908"><ele>13.0</ele><time>2026-03-25T10:16:22.919Z</time></trkpt><trkpt lat="43.6888394" lon="10.5356095"><ele>13.0</ele><time>2026-03-25T10:16:23.918Z</time></trkpt><trkpt lat="43.6888826" lon="10.5354278"><ele>13.0</ele><time>2026-03-25T10:16:24.919Z</time></trkpt><trkpt lat="43.6889247" lon="10.5352469"><ele>13.0</ele><time>2026-03-25T10:16:25.918Z</time></trkpt><trkpt lat="43.6889646" lon="10.5350741"><ele>13.0</ele><time>2026-03-25T10:16:26.919Z</time></trkpt><trkpt lat="43.6889995" lon="10.5349113"><ele>13.0</ele><time>2026-03-25T10:16:27.919Z</time></trkpt><trkpt lat="43.6890266" lon="10.5347647"><ele>13.0</ele><time>2026-03-25T10:16:28.919Z</time></trkpt><trkpt lat="43.6890526" lon="10.5346365"><ele>13.0</ele><time>2026-03-25T10:16:29.919Z</time></trkpt><trkpt lat="43.6890776" lon="10.5345124"><ele>13.0</ele><time>2026-03-25T10:16:30.918Z</time></trkpt><trkpt lat="43.6891042" lon="10.5343958"><ele>13.0</ele><time>2026-03-25T10:16:31.919Z</time></trkpt><trkpt lat="43.6891283" lon="10.5342763"><ele>13.0</ele><time>2026-03-25T10:16:32.92Z</time></trkpt><trkpt lat="43.6891624" lon="10.5341493"><ele>13.0</ele><time>2026-03-25T10:16:33.918Z</time></trkpt><trkpt lat="43.6891929" lon="10.5340237"><ele>13.0</ele><time>2026-03-25T10:16:34.919Z</time></trkpt><trkpt lat="43.6892296" lon="10.5338819"><ele>13.0</ele><time>2026-03-25T10:16:35.919Z</time></trkpt><trkpt lat="43.6892672" lon="10.5337519"><ele>13.0</ele><time>2026-03-25T10:16:36.919Z</time></trkpt><trkpt lat="43.6893063" lon="10.5335933"><ele>13.0</ele><time>2026-03-25T10:16:37.919Z</time></trkpt><trkpt lat="43.689341" lon="10.5334199"><ele>13.0</ele><time>2026-03-25T10:16:38.918Z</time></trkpt><trkpt lat="43.6893815" lon="10.5332431"><ele>13.0</ele><time>2026-03-25T10:16:39.919Z</time></trkpt><trkpt lat="43.6894295" lon="10.5330523"><ele>13.0</ele><time>2026-03-25T10:16:40.918Z</time></trkpt><trkpt lat="43.6894843" lon="10.5328475"><ele>13.0</ele><time>2026-03-25T10:16:41.918Z</time></trkpt><trkpt lat="43.6895314" lon="10.5326515"><ele>13.0</ele><time>2026-03-25T10:16:42.92Z</time></trkpt><trkpt lat="43.6895738" lon="10.5324483"><ele>13.0</ele><time>2026-03-25T10:16:43.918Z</time></trkpt><trkpt lat="43.6896193" lon="10.5322522"><ele>13.0</ele><time>2026-03-25T10:16:44.918Z</time></trkpt><trkpt lat="43.6896618" lon="10.5320609"><ele>13.0</ele><time>2026-03-25T10:16:45.919Z</time></trkpt><trkpt lat="43.6897024" lon="10.5318712"><ele>13.0</ele><time>2026-03-25T10:16:46.919Z</time></trkpt><trkpt lat="43.6897372" lon="10.5316952"><ele>13.0</ele><time>2026-03-25T10:16:47.918Z</time></trkpt><trkpt lat="43.6897745" lon="10.5315207"><ele>13.5</ele><time>2026-03-25T10:16:48.92Z</time></trkpt><trkpt lat="43.6898128" lon="10.5313437"><ele>14.0</ele><time>2026-03-25T10:16:49.919Z</time></trkpt><trkpt lat="43.6898495" lon="10.5311778"><ele>14.5</ele><time>2026-03-25T10:16:50.919Z</time></trkpt><trkpt lat="43.6898854" lon="10.531012"><ele>15.0</ele><time>2026-03-25T10:16:51.919Z</time></trkpt><trkpt lat="43.6899229" lon="10.5308413"><ele>15.0</ele><time>2026-03-25T10:16:52.919Z</time></trkpt><trkpt lat="43.689961" lon="10.5306706"><ele>15.0</ele><time>2026-03-25T10:16:53.919Z</time></trkpt><trkpt lat="43.6899972" lon="10.5304926"><ele>15.0</ele><time>2026-03-25T10:16:54.919Z</time></trkpt><trkpt lat="43.690043" lon="10.5303048"><ele>15.0</ele><time>2026-03-25T10:16:55.918Z</time></trkpt><trkpt lat="43.6900899" lon="10.5301102"><ele>15.0</ele><time>2026-03-25T10:16:56.918Z</time></trkpt><trkpt lat="43.69013" lon="10.5299315"><ele>15.0</ele><time>2026-03-25T10:16:57.918Z</time></trkpt><trkpt lat="43.6901715" lon="10.5297243"><ele>15.0</ele><time>2026-03-25T10:16:58.92Z</time></trkpt><trkpt lat="43.6902173" lon="10.529516"><ele>15.0</ele><time>2026-03-25T10:16:59.919Z</time></trkpt><trkpt lat="43.6902676" lon="10.5293149"><ele>15.666666666666668</ele><time>2026-03-25T10:17:00.92Z</time></trkpt><trkpt lat="43.6903286" lon="10.5291113"><ele>16.333333333333336</ele><time>2026-03-25T10:17:01.918Z</time></trkpt><trkpt lat="43.6903808" lon="10.528908"><ele>17.0</ele><time>2026-03-25T10:17:02.92Z</time></trkpt><trkpt lat="43.6904335" lon="10.5286967"><ele>17.333333333333336</ele><time>2026-03-25T10:17:03.919Z</time></trkpt><trkpt lat="43.6904983" lon="10.5284798"><ele>17.666666666666668</ele><time>2026-03-25T10:17:04.919Z</time></trkpt><trkpt lat="43.6905676" lon="10.5282842"><ele>18.0</ele><time>2026-03-25T10:17:05.92Z</time></trkpt><trkpt lat="43.6906329" lon="10.5280725"><ele>17.666666666666668</ele><time>2026-03-25T10:17:06.919Z</time></trkpt><trkpt lat="43.6906993" lon="10.5278661"><ele>17.333333333333336</ele><time>2026-03-25T10:17:07.919Z</time></trkpt><trkpt lat="43.6907786" lon="10.5276647"><ele>17.0</ele><time>2026-03-25T10:17:08.919Z</time></trkpt><trkpt lat="43.6908569" lon="10.5274737"><ele>17.0</ele><time>2026-03-25T10:17:09.919Z</time></trkpt><trkpt lat="43.6909279" lon="10.5272923"><ele>17.0</ele><time>2026-03-25T10:17:10.918Z</time></trkpt><trkpt lat="43.6910038" lon="10.5271158"><ele>17.0</ele><time>2026-03-25T10:17:11.918Z</time></trkpt><trkpt lat="43.6910884" lon="10.5269433"><ele>17.0</ele><time>2026-03-25T10:17:12.919Z</time></trkpt><trkpt lat="43.6911719" lon="10.5267716"><ele>17.666666666666668</ele><time>2026-03-25T10:17:13.918Z</time></trkpt><trkpt lat="43.6912712" lon="10.5266086"><ele>18.333333333333332</ele><time>2026-03-25T10:17:14.92Z</time></trkpt><trkpt lat="43.6913877" lon="10.5264565"><ele>19.0</ele><time>2026-03-25T10:17:15.92Z</time></trkpt><trkpt lat="43.6915067" lon="10.5263114"><ele>17.0</ele><time>2026-03-25T10:17:16.918Z</time></trkpt><trkpt lat="43.6916243" lon="10.5261667"><ele>15.0</ele><time>2026-03-25T10:17:17.919Z</time></trkpt><trkpt lat="43.691737" lon="10.5260288"><ele>13.0</ele><time>2026-03-25T10:17:18.919Z</time></trkpt><trkpt lat="43.6918429" lon="10.525895"><ele>15.75</ele><time>2026-03-25T10:17:19.92Z</time></trkpt><trkpt lat="43.6919436" lon="10.525758"><ele>18.5</ele><time>2026-03-25T10:17:20.918Z</time></trkpt><trkpt lat="43.6920246" lon="10.5256084"><ele>21.25</ele><time>2026-03-25T10:17:21.919Z</time></trkpt><trkpt lat="43.6920964" lon="10.5254464"><ele>24.0</ele><time>2026-03-25T10:17:22.918Z</time></trkpt><trkpt lat="43.6921553" lon="10.525274"><ele>24.0</ele><time>2026-03-25T10:17:23.919Z</time></trkpt><trkpt lat="43.6922099" lon="10.5250911"><ele>24.0</ele><time>2026-03-25T10:17:24.919Z</time></trkpt><trkpt lat="43.6922672" lon="10.5249089"><ele>24.0</ele><time>2026-03-25T10:17:25.919Z</time></trkpt><trkpt lat="43.6923278" lon="10.5247255"><ele>24.0</ele><time>2026-03-25T10:17:26.919Z</time></trkpt><trkpt lat="43.6923843" lon="10.5245445"><ele>23.25</ele><time>2026-03-25T10:17:27.919Z</time></trkpt><trkpt lat="43.6924459" lon="10.52437"><ele>22.5</ele><time>2026-03-25T10:17:28.918Z</time></trkpt><trkpt lat="43.6925075" lon="10.5241905"><ele>21.75</ele><time>2026-03-25T10:17:29.919Z</time></trkpt><trkpt lat="43.6925646" lon="10.5240147"><ele>21.0</ele><time>2026-03-25T10:17:30.92Z</time></trkpt><trkpt lat="43.6926229" lon="10.5238384"><ele>20.5</ele><time>2026-03-25T10:17:31.918Z</time></trkpt><trkpt lat="43.6926801" lon="10.5236643"><ele>20.0</ele><time>2026-03-25T10:17:32.919Z</time></trkpt><trkpt lat="43.6927317" lon="10.5234959"><ele>19.5</ele><time>2026-03-25T10:17:33.919Z</time></trkpt><trkpt lat="43.6927817" lon="10.5233373"><ele>19.0</ele><time>2026-03-25T10:17:34.918Z</time></trkpt><trkpt lat="43.6928301" lon="10.5231869"><ele>19.0</ele><time>2026-03-25T10:17:35.919Z</time></trkpt><trkpt lat="43.6928773" lon="10.5230433"><ele>19.0</ele><time>2026-03-25T10:17:36.919Z</time></trkpt><trkpt lat="43.6929244" lon="10.5229067"><ele>19.0</ele><time>2026-03-25T10:17:37.918Z</time></trkpt><trkpt lat="43.6929714" lon="10.5227726"><ele>19.0</ele><time>2026-03-25T10:17:38.919Z</time></trkpt><trkpt lat="43.69302" lon="10.5226402"><ele>19.0</ele><time>2026-03-25T10:17:39.919Z</time></trkpt><trkpt lat="43.6930724" lon="10.5225066"><ele>18.599999999999998</ele><time>2026-03-25T10:17:40.92Z</time></trkpt><trkpt lat="43.6931245" lon="10.5223689"><ele>18.2</ele><time>2026-03-25T10:17:41.918Z</time></trkpt><trkpt lat="43.6931735" lon="10.5222329"><ele>17.799999999999997</ele><time>2026-03-25T10:17:42.918Z</time></trkpt><trkpt lat="43.6932182" lon="10.5221019"><ele>17.4</ele><time>2026-03-25T10:17:43.918Z</time></trkpt><trkpt lat="43.6932685" lon="10.5219601"><ele>17.0</ele><time>2026-03-25T10:17:44.919Z</time></trkpt><trkpt lat="43.6933218" lon="10.5218137"><ele>15.75</ele><time>2026-03-25T10:17:45.919Z</time></trkpt><trkpt lat="43.6933765" lon="10.5216657"><ele>14.5</ele><time>2026-03-25T10:17:46.919Z</time></trkpt><trkpt lat="43.6934315" lon="10.5215155"><ele>13.25</ele><time>2026-03-25T10:17:47.919Z</time></trkpt><trkpt lat="43.6934898" lon="10.5213753"><ele>12.0</ele><time>2026-03-25T10:17:48.919Z</time></trkpt><trkpt lat="43.693551" lon="10.521248"><ele>12.6</ele><time>2026-03-25T10:17:49.92Z</time></trkpt><trkpt lat="43.6936211" lon="10.5211421"><ele>13.2</ele><time>2026-03-25T10:17:50.918Z</time></trkpt><trkpt lat="43.6937017" lon="10.5210533"><ele>13.8</ele><time>2026-03-25T10:17:51.92Z</time></trkpt><trkpt lat="43.6937881" lon="10.5209699"><ele>14.4</ele><time>2026-03-25T10:17:52.92Z</time></trkpt><trkpt lat="43.6938758" lon="10.5208855"><ele>15.0</ele><time>2026-03-25T10:17:53.919Z</time></trkpt><trkpt lat="43.6939667" lon="10.5207964"><ele>15.0</ele><time>2026-03-25T10:17:54.919Z</time></trkpt><trkpt lat="43.6940621" lon="10.5207056"><ele>15.0</ele><time>2026-03-25T10:17:55.92Z</time></trkpt><trkpt lat="43.6941572" lon="10.5206134"><ele>15.0</ele><time>2026-03-25T10:17:56.918Z</time></trkpt><trkpt lat="43.6942578" lon="10.5205164"><ele>15.0</ele><time>2026-03-25T10:17:57.919Z</time></trkpt><trkpt lat="43.6943622" lon="10.5204176"><ele>14.5</ele><time>2026-03-25T10:17:58.919Z</time></trkpt><trkpt lat="43.694465" lon="10.5203172"><ele>14.0</ele><time>2026-03-25T10:17:59.918Z</time></trkpt><trkpt lat="43.6945608" lon="10.520219"><ele>13.5</ele><time>2026-03-25T10:18:00.92Z</time></trkpt><trkpt lat="43.6946534" lon="10.5201262"><ele>13.0</ele><time>2026-03-25T10:18:01.919Z</time></trkpt><trkpt lat="43.6947505" lon="10.5200362"><ele>13.0</ele><time>2026-03-25T10:18:02.919Z</time></trkpt><trkpt lat="43.6948427" lon="10.5199473"><ele>13.0</ele><time>2026-03-25T10:18:03.919Z</time></trkpt><trkpt lat="43.6949459" lon="10.5198527"><ele>13.0</ele><time>2026-03-25T10:18:04.919Z</time></trkpt><trkpt lat="43.6950595" lon="10.5197629"><ele>13.0</ele><time>2026-03-25T10:18:05.919Z</time></trkpt><trkpt lat="43.6951762" lon="10.5196758"><ele>13.25</ele><time>2026-03-25T10:18:06.919Z</time></trkpt><trkpt lat="43.6952944" lon="10.5195893"><ele>13.5</ele><time>2026-03-25T10:18:07.919Z</time></trkpt><trkpt lat="43.69541" lon="10.5194992"><ele>13.75</ele><time>2026-03-25T10:18:08.918Z</time></trkpt><trkpt lat="43.695523" lon="10.519403"><ele>14.0</ele><time>2026-03-25T10:18:09.919Z</time></trkpt><trkpt lat="43.6956342" lon="10.5193035"><ele>14.0</ele><time>2026-03-25T10:18:10.92Z</time></trkpt><trkpt lat="43.6957484" lon="10.5192086"><ele>14.0</ele><time>2026-03-25T10:18:11.919Z</time></trkpt><trkpt lat="43.6958681" lon="10.5191311"><ele>14.0</ele><time>2026-03-25T10:18:12.919Z</time></trkpt><trkpt lat="43.6959885" lon="10.5190725"><ele>14.0</ele><time>2026-03-25T10:18:13.92Z</time></trkpt><trkpt lat="43.6961072" lon="10.5190278"><ele>15.75</ele><time>2026-03-25T10:18:14.919Z</time></trkpt><trkpt lat="43.6962243" lon="10.5189876"><ele>17.5</ele><time>2026-03-25T10:18:15.92Z</time></trkpt><trkpt lat="43.6963353" lon="10.518947"><ele>19.25</ele><time>2026-03-25T10:18:16.92Z</time></trkpt><trkpt lat="43.6964419" lon="10.5189002"><ele>21.0</ele><time>2026-03-25T10:18:17.918Z</time></trkpt><trkpt lat="43.6965424" lon="10.518844"><ele>21.0</ele><time>2026-03-25T10:18:18.919Z</time></trkpt><trkpt lat="43.6966392" lon="10.5187836"><ele>21.0</ele><time>2026-03-25T10:18:19.918Z</time></trkpt><trkpt lat="43.6967386" lon="10.5187201"><ele>21.0</ele><time>2026-03-25T10:18:20.919Z</time></trkpt><trkpt lat="43.6968376" lon="10.5186553"><ele>21.0</ele><time>2026-03-25T10:18:21.918Z</time></trkpt><trkpt lat="43.6969378" lon="10.5185831"><ele>21.0</ele><time>2026-03-25T10:18:22.919Z</time></trkpt><trkpt lat="43.6970359" lon="10.5185021"><ele>20.5</ele><time>2026-03-25T10:18:23.919Z</time></trkpt><trkpt lat="43.6971332" lon="10.5184124"><ele>20.0</ele><time>2026-03-25T10:18:24.919Z</time></trkpt><trkpt lat="43.6972315" lon="10.5183169"><ele>19.5</ele><time>2026-03-25T10:18:25.919Z</time></trkpt><trkpt lat="43.6973236" lon="10.5182251"><ele>19.0</ele><time>2026-03-25T10:18:26.918Z</time></trkpt><trkpt lat="43.6974076" lon="10.5181354"><ele>19.0</ele><time>2026-03-25T10:18:27.919Z</time></trkpt><trkpt lat="43.6974865" lon="10.5180499"><ele>19.0</ele><time>2026-03-25T10:18:28.918Z</time></trkpt><trkpt lat="43.6975733" lon="10.5179524"><ele>19.0</ele><time>2026-03-25T10:18:29.92Z</time></trkpt><trkpt lat="43.6976688" lon="10.5178512"><ele>19.0</ele><time>2026-03-25T10:18:30.92Z</time></trkpt><trkpt lat="43.6977754" lon="10.5177533"><ele>18.25</ele><time>2026-03-25T10:18:31.918Z</time></trkpt><trkpt lat="43.6978858" lon="10.5176649"><ele>17.5</ele><time>2026-03-25T10:18:32.919Z</time></trkpt><trkpt lat="43.6979987" lon="10.5175883"><ele>16.75</ele><time>2026-03-25T10:18:33.918Z</time></trkpt><trkpt lat="43.698109" lon="10.5175169"><ele>16.0</ele><time>2026-03-25T10:18:34.918Z</time></trkpt><trkpt lat="43.6982202" lon="10.5174382"><ele>16.0</ele><time>2026-03-25T10:18:35.919Z</time></trkpt><trkpt lat="43.6983291" lon="10.517346"><ele>16.0</ele><time>2026-03-25T10:18:36.919Z</time></trkpt><trkpt lat="43.6984378" lon="10.517243"><ele>16.0</ele><time>2026-03-25T10:18:37.919Z</time></trkpt><trkpt lat="43.6985347" lon="10.5171356"><ele>16.0</ele><time>2026-03-25T10:18:38.919Z</time></trkpt><trkpt lat="43.6986292" lon="10.5170239"><ele>16.0</ele><time>2026-03-25T10:18:39.918Z</time></trkpt><trkpt lat="43.698721" lon="10.5169162"><ele>16.0</ele><time>2026-03-25T10:18:40.918Z</time></trkpt><trkpt lat="43.6988088" lon="10.5168138"><ele>16.0</ele><time>2026-03-25T10:18:41.919Z</time></trkpt><trkpt lat="43.6988936" lon="10.5167095"><ele>16.0</ele><time>2026-03-25T10:18:42.919Z</time></trkpt><trkpt lat="43.698971" lon="10.5166039"><ele>16.0</ele><time>2026-03-25T10:18:43.92Z</time></trkpt><trkpt lat="43.6990409" lon="10.5165"><ele>16.0</ele><time>2026-03-25T10:18:44.918Z</time></trkpt><trkpt lat="43.6991077" lon="10.5164001"><ele>16.0</ele><time>2026-03-25T10:18:45.919Z</time></trkpt><trkpt lat="43.6991739" lon="10.5163104"><ele>16.0</ele><time>2026-03-25T10:18:46.918Z</time></trkpt><trkpt lat="43.6992382" lon="10.5162275"><ele>16.0</ele><time>2026-03-25T10:18:47.919Z</time></trkpt><trkpt lat="43.6993012" lon="10.5161445"><ele>14.999999999999998</ele><time>2026-03-25T10:18:48.918Z</time></trkpt><trkpt lat="43.6993623" lon="10.5160654"><ele>14.0</ele><time>2026-03-25T10:18:49.918Z</time></trkpt><trkpt lat="43.6994152" lon="10.5159825"><ele>13.0</ele><time>2026-03-25T10:18:50.92Z</time></trkpt><trkpt lat="43.6994699" lon="10.5159005"><ele>12.0</ele><time>2026-03-25T10:18:51.918Z</time></trkpt><trkpt lat="43.6995209" lon="10.5158288"><ele>11.0</ele><time>2026-03-25T10:18:52.92Z</time></trkpt><trkpt lat="43.6995686" lon="10.5157524"><ele>10.0</ele><time>2026-03-25T10:18:53.919Z</time></trkpt><trkpt lat="43.6996202" lon="10.5156852"><ele>9.833333333333334</ele><time>2026-03-25T10:18:54.919Z</time></trkpt><trkpt lat="43.6996807" lon="10.5156244"><ele>9.666666666666668</ele><time>2026-03-25T10:18:55.918Z</time></trkpt><trkpt lat="43.6997445" lon="10.5155742"><ele>9.5</ele><time>2026-03-25T10:18:56.918Z</time></trkpt><trkpt lat="43.6998148" lon="10.5155272"><ele>9.333333333333334</ele><time>2026-03-25T10:18:57.918Z</time></trkpt><trkpt lat="43.6998748" lon="10.5154637"><ele>9.166666666666666</ele><time>2026-03-25T10:18:58.919Z</time></trkpt><trkpt lat="43.6999287" lon="10.5153823"><ele>9.0</ele><time>2026-03-25T10:18:59.919Z</time></trkpt><trkpt lat="43.6999706" lon="10.5152852"><ele>9.0</ele><time>2026-03-25T10:19:00.918Z</time></trkpt><trkpt lat="43.7000123" lon="10.5151796"><ele>9.0</ele><time>2026-03-25T10:19:01.918Z</time></trkpt><trkpt lat="43.7000627" lon="10.5150743"><ele>9.0</ele><time>2026-03-25T10:19:02.919Z</time></trkpt><trkpt lat="43.7001272" lon="10.5149876"><ele>9.0</ele><time>2026-03-25T10:19:03.918Z</time></trkpt><trkpt lat="43.7002074" lon="10.5149034"><ele>9.0</ele><time>2026-03-25T10:19:04.918Z</time></trkpt><trkpt lat="43.7002968" lon="10.5148108"><ele>8.75</ele><time>2026-03-25T10:19:05.919Z</time></trkpt><trkpt lat="43.7003889" lon="10.5146997"><ele>8.5</ele><time>2026-03-25T10:19:06.919Z</time></trkpt><trkpt lat="43.7004717" lon="10.5145896"><ele>8.25</ele><time>2026-03-25T10:19:07.919Z</time></trkpt><trkpt lat="43.7005509" lon="10.5144804"><ele>8.0</ele><time>2026-03-25T10:19:08.919Z</time></trkpt><trkpt lat="43.7006313" lon="10.5143731"><ele>8.0</ele><time>2026-03-25T10:19:09.919Z</time></trkpt><trkpt lat="43.7007118" lon="10.5142678"><ele>8.0</ele><time>2026-03-25T10:19:10.918Z</time></trkpt><trkpt lat="43.7007941" lon="10.5141625"><ele>8.0</ele><time>2026-03-25T10:19:11.919Z</time></trkpt><trkpt lat="43.7008688" lon="10.5140592"><ele>8.0</ele><time>2026-03-25T10:19:12.919Z</time></trkpt><trkpt lat="43.7009424" lon="10.5139569"><ele>8.0</ele><time>2026-03-25T10:19:13.92Z</time></trkpt><trkpt lat="43.7010143" lon="10.5138514"><ele>9.25</ele><time>2026-03-25T10:19:14.919Z</time></trkpt><trkpt lat="43.701092" lon="10.5137435"><ele>10.5</ele><time>2026-03-25T10:19:15.918Z</time></trkpt><trkpt lat="43.7011693" lon="10.5136327"><ele>11.75</ele><time>2026-03-25T10:19:16.919Z</time></trkpt><trkpt lat="43.7012567" lon="10.5135203"><ele>13.0</ele><time>2026-03-25T10:19:17.919Z</time></trkpt><trkpt lat="43.7013324" lon="10.5134041"><ele>13.0</ele><time>2026-03-25T10:19:18.919Z</time></trkpt><trkpt lat="43.7014151" lon="10.513296"><ele>13.0</ele><time>2026-03-25T10:19:19.918Z</time></trkpt><trkpt lat="43.7014978" lon="10.5131683"><ele>13.0</ele><time>2026-03-25T10:19:20.92Z</time></trkpt><trkpt lat="43.7015778" lon="10.5130385"><ele>13.0</ele><time>2026-03-25T10:19:21.919Z</time></trkpt><trkpt lat="43.7016674" lon="10.5129018"><ele>12.25</ele><time>2026-03-25T10:19:22.918Z</time></trkpt><trkpt lat="43.7017436" lon="10.5127548"><ele>11.5</ele><time>2026-03-25T10:19:23.918Z</time></trkpt><trkpt lat="43.7018199" lon="10.5126077"><ele>10.75</ele><time>2026-03-25T10:19:24.92Z</time></trkpt><trkpt lat="43.7018892" lon="10.5124544"><ele>10.0</ele><time>2026-03-25T10:19:25.918Z</time></trkpt><trkpt lat="43.7019514" lon="10.512306"><ele>12.6</ele><time>2026-03-25T10:19:26.919Z</time></trkpt><trkpt lat="43.7020098" lon="10.5121677"><ele>15.2</ele><time>2026-03-25T10:19:27.92Z</time></trkpt><trkpt lat="43.7020606" lon="10.5120319"><ele>17.799999999999997</ele><time>2026-03-25T10:19:28.918Z</time></trkpt><trkpt lat="43.7021016" lon="10.5118931"><ele>20.4</ele><time>2026-03-25T10:19:29.919Z</time></trkpt><trkpt lat="43.7021495" lon="10.5117492"><ele>23.0</ele><time>2026-03-25T10:19:30.918Z</time></trkpt><trkpt lat="43.7021914" lon="10.5116045"><ele>23.0</ele><time>2026-03-25T10:19:31.918Z</time></trkpt><trkpt lat="43.7022339" lon="10.511445"><ele>23.0</ele><time>2026-03-25T10:19:32.918Z</time></trkpt><trkpt lat="43.7022745" lon="10.5112932"><ele>23.0</ele><time>2026-03-25T10:19:33.919Z</time></trkpt><trkpt lat="43.702316" lon="10.5111418"><ele>23.0</ele><time>2026-03-25T10:19:34.918Z</time></trkpt><trkpt lat="43.7023645" lon="10.5109956"><ele>22.25</ele><time>2026-03-25T10:19:35.919Z</time></trkpt><trkpt lat="43.7024084" lon="10.5108436"><ele>21.5</ele><time>2026-03-25T10:19:36.918Z</time></trkpt><trkpt lat="43.7024451" lon="10.5106976"><ele>20.75</ele><time>2026-03-25T10:19:37.919Z</time></trkpt><trkpt lat="43.7024882" lon="10.5105443"><ele>20.0</ele><time>2026-03-25T10:19:38.919Z</time></trkpt><trkpt lat="43.7025333" lon="10.5103852"><ele>20.75</ele><time>2026-03-25T10:19:39.92Z</time></trkpt><trkpt lat="43.7025726" lon="10.5102231"><ele>21.5</ele><time>2026-03-25T10:19:40.918Z</time></trkpt><trkpt lat="43.7026223" lon="10.5100564"><ele>22.25</ele><time>2026-03-25T10:19:41.919Z</time></trkpt><trkpt lat="43.7026812" lon="10.5098899"><ele>23.0</ele><time>2026-03-25T10:19:42.919Z</time></trkpt><trkpt lat="43.7027553" lon="10.509736"><ele>23.0</ele><time>2026-03-25T10:19:43.918Z</time></trkpt><trkpt lat="43.7028243" lon="10.5095904"><ele>23.0</ele><time>2026-03-25T10:19:44.919Z</time></trkpt><trkpt lat="43.7028983" lon="10.5094464"><ele>23.0</ele><time>2026-03-25T10:19:45.919Z</time></trkpt><trkpt lat="43.7029739" lon="10.5093056"><ele>23.0</ele><time>2026-03-25T10:19:46.919Z</time></trkpt><trkpt lat="43.7030469" lon="10.5091637"><ele>22.25</ele><time>2026-03-25T10:19:47.919Z</time></trkpt><trkpt lat="43.7031205" lon="10.5090231"><ele>21.5</ele><time>2026-03-25T10:19:48.919Z</time></trkpt><trkpt lat="43.703196" lon="10.5088898"><ele>20.75</ele><time>2026-03-25T10:19:49.918Z</time></trkpt><trkpt lat="43.7032768" lon="10.5087583"><ele>20.0</ele><time>2026-03-25T10:19:50.918Z</time></trkpt><trkpt lat="43.7033605" lon="10.508641"><ele>18.25</ele><time>2026-03-25T10:19:51.919Z</time></trkpt><trkpt lat="43.7034574" lon="10.5085474"><ele>16.5</ele><time>2026-03-25T10:19:52.919Z</time></trkpt><trkpt lat="43.7035529" lon="10.5084488"><ele>14.75</ele><time>2026-03-25T10:19:53.919Z</time></trkpt><trkpt lat="43.703644" lon="10.5083536"><ele>13.0</ele><time>2026-03-25T10:19:54.919Z</time></trkpt><trkpt lat="43.7037371" lon="10.5082678"><ele>13.0</ele><time>2026-03-25T10:19:55.918Z</time></trkpt><trkpt lat="43.7038214" lon="10.5081664"><ele>13.0</ele><time>2026-03-25T10:19:56.919Z</time></trkpt><trkpt lat="43.7039048" lon="10.5080824"><ele>13.0</ele><time>2026-03-25T10:19:57.919Z</time></trkpt><trkpt lat="43.7039914" lon="10.5079889"><ele>13.0</ele><time>2026-03-25T10:19:58.918Z</time></trkpt><trkpt lat="43.7040771" lon="10.5078902"><ele>13.0</ele><time>2026-03-25T10:19:59.918Z</time></trkpt><trkpt lat="43.704176" lon="10.5077973"><ele>12.5</ele><time>2026-03-25T10:20:00.919Z</time></trkpt><trkpt lat="43.704274" lon="10.5077037"><ele>12.0</ele><time>2026-03-25T10:20:01.919Z</time></trkpt><trkpt lat="43.7043718" lon="10.5076094"><ele>11.5</ele><time>2026-03-25T10:20:02.918Z</time></trkpt><trkpt lat="43.7044692" lon="10.5075039"><ele>11.0</ele><time>2026-03-25T10:20:03.918Z</time></trkpt><trkpt lat="43.7045663" lon="10.5074005"><ele>11.0</ele><time>2026-03-25T10:20:04.919Z</time></trkpt><trkpt lat="43.7046611" lon="10.5072913"><ele>11.0</ele><time>2026-03-25T10:20:05.918Z</time></trkpt><trkpt lat="43.7047615" lon="10.5071657"><ele>11.0</ele><time>2026-03-25T10:20:06.919Z</time></trkpt><trkpt lat="43.7048656" lon="10.5070425"><ele>11.0</ele><time>2026-03-25T10:20:07.919Z</time></trkpt><trkpt lat="43.7049613" lon="10.5069147"><ele>10.5</ele><time>2026-03-25T10:20:08.92Z</time></trkpt><trkpt lat="43.7050509" lon="10.5067873"><ele>10.0</ele><time>2026-03-25T10:20:09.919Z</time></trkpt><trkpt lat="43.7051394" lon="10.5066657"><ele>9.5</ele><time>2026-03-25T10:20:10.919Z</time></trkpt><trkpt lat="43.705228" lon="10.506543"><ele>9.0</ele><time>2026-03-25T10:20:11.92Z</time></trkpt><trkpt lat="43.7053097" lon="10.5064284"><ele>9.8</ele><time>2026-03-25T10:20:12.92Z</time></trkpt><trkpt lat="43.7053826" lon="10.5063221"><ele>10.600000000000001</ele><time>2026-03-25T10:20:13.918Z</time></trkpt><trkpt lat="43.7054559" lon="10.5062231"><ele>11.4</ele><time>2026-03-25T10:20:14.919Z</time></trkpt><trkpt lat="43.7055255" lon="10.5061291"><ele>12.200000000000001</ele><time>2026-03-25T10:20:15.919Z</time></trkpt><trkpt lat="43.7055935" lon="10.5060364"><ele>13.0</ele><time>2026-03-25T10:20:16.92Z</time></trkpt><trkpt lat="43.7056645" lon="10.5059411"><ele>13.0</ele><time>2026-03-25T10:20:17.918Z</time></trkpt><trkpt lat="43.7057373" lon="10.5058434"><ele>13.0</ele><time>2026-03-25T10:20:18.918Z</time></trkpt><trkpt lat="43.7058128" lon="10.5057483"><ele>13.0</ele><time>2026-03-25T10:20:19.919Z</time></trkpt><trkpt lat="43.7058947" lon="10.5056422"><ele>13.0</ele><time>2026-03-25T10:20:20.919Z</time></trkpt><trkpt lat="43.7059772" lon="10.5055381"><ele>13.0</ele><time>2026-03-25T10:20:21.919Z</time></trkpt><trkpt lat="43.7060584" lon="10.5054376"><ele>12.8</ele><time>2026-03-25T10:20:22.918Z</time></trkpt><trkpt lat="43.7061416" lon="10.5053342"><ele>12.600000000000001</ele><time>2026-03-25T10:20:23.918Z</time></trkpt><trkpt lat="43.7062188" lon="10.50523"><ele>12.399999999999999</ele><time>2026-03-25T10:20:24.919Z</time></trkpt><trkpt lat="43.706291" lon="10.5051267"><ele>12.2</ele><time>2026-03-25T10:20:25.919Z</time></trkpt><trkpt lat="43.7063605" lon="10.5050324"><ele>12.0</ele><time>2026-03-25T10:20:26.919Z</time></trkpt><trkpt lat="43.7064287" lon="10.5049362"><ele>12.0</ele><time>2026-03-25T10:20:27.919Z</time></trkpt><trkpt lat="43.7064964" lon="10.5048462"><ele>12.0</ele><time>2026-03-25T10:20:28.919Z</time></trkpt><trkpt lat="43.7065564" lon="10.5047603"><ele>12.0</ele><time>2026-03-25T10:20:29.919Z</time></trkpt><trkpt lat="43.7066172" lon="10.504679"><ele>12.0</ele><time>2026-03-25T10:20:30.919Z</time></trkpt><trkpt lat="43.7066678" lon="10.5046051"><ele>12.0</ele><time>2026-03-25T10:20:31.918Z</time></trkpt><trkpt lat="43.7067142" lon="10.5045361"><ele>12.0</ele><time>2026-03-25T10:20:32.92Z</time></trkpt><trkpt lat="43.7067802" lon="10.5044423"><ele>11.8</ele><time>2026-03-25T10:20:34.919Z</time></trkpt><trkpt lat="43.7068312" lon="10.5043722"><ele>11.6</ele><time>2026-03-25T10:20:36.92Z</time></trkpt><trkpt lat="43.706891" lon="10.5042893"><ele>11.4</ele><time>2026-03-25T10:20:38.919Z</time></trkpt><trkpt lat="43.7069949" lon="10.5041821"><ele>11.200000000000001</ele><time>2026-03-25T10:20:40.92Z</time></trkpt><trkpt lat="43.7070501" lon="10.5041401"><ele>11.0</ele><time>2026-03-25T10:20:41.919Z</time></trkpt><trkpt lat="43.707182" lon="10.5040793"><ele>11.0</ele><time>2026-03-25T10:20:43.919Z</time></trkpt><trkpt lat="43.7072572" lon="10.5040525"><ele>11.0</ele><time>2026-03-25T10:20:44.919Z</time></trkpt><trkpt lat="43.7073386" lon="10.5040236"><ele>11.0</ele><time>2026-03-25T10:20:45.919Z</time></trkpt><trkpt lat="43.7074321" lon="10.5039909"><ele>11.0</ele><time>2026-03-25T10:20:46.918Z</time></trkpt><trkpt lat="43.7075208" lon="10.5039596"><ele>11.0</ele><time>2026-03-25T10:20:47.919Z</time></trkpt><trkpt lat="43.7076013" lon="10.503923"><ele>11.0</ele><time>2026-03-25T10:20:48.919Z</time></trkpt><trkpt lat="43.7076687" lon="10.503887"><ele>11.0</ele><time>2026-03-25T10:20:49.92Z</time></trkpt><trkpt lat="43.707729" lon="10.5038466"><ele>11.0</ele><time>2026-03-25T10:20:50.919Z</time></trkpt><trkpt lat="43.707787" lon="10.5038031"><ele>11.0</ele><time>2026-03-25T10:20:51.919Z</time></trkpt><trkpt lat="43.7078493" lon="10.5037517"><ele>11.0</ele><time>2026-03-25T10:20:52.918Z</time></trkpt><trkpt lat="43.7079122" lon="10.503684"><ele>11.0</ele><time>2026-03-25T10:20:53.92Z</time></trkpt><trkpt lat="43.7079746" lon="10.5036044"><ele>11.0</ele><time>2026-03-25T10:20:54.919Z</time></trkpt><trkpt lat="43.7080378" lon="10.5035111"><ele>10.75</ele><time>2026-03-25T10:20:55.919Z</time></trkpt><trkpt lat="43.7081042" lon="10.5034036"><ele>10.5</ele><time>2026-03-25T10:20:56.919Z</time></trkpt><trkpt lat="43.7081723" lon="10.5032845"><ele>10.25</ele><time>2026-03-25T10:20:57.919Z</time></trkpt><trkpt lat="43.7082549" lon="10.5031519"><ele>10.0</ele><time>2026-03-25T10:20:58.919Z</time></trkpt><trkpt lat="43.708333" lon="10.5030141"><ele>10.0</ele><time>2026-03-25T10:20:59.919Z</time></trkpt><trkpt lat="43.7084083" lon="10.5028799"><ele>10.0</ele><time>2026-03-25T10:21:00.918Z</time></trkpt><trkpt lat="43.7084752" lon="10.5027621"><ele>10.0</ele><time>2026-03-25T10:21:01.918Z</time></trkpt><trkpt lat="43.7085408" lon="10.5026548"><ele>10.0</ele><time>2026-03-25T10:21:02.919Z</time></trkpt><trkpt lat="43.7086097" lon="10.5025651"><ele>10.0</ele><time>2026-03-25T10:21:03.919Z</time></trkpt><trkpt lat="43.7086811" lon="10.5025057"><ele>9.4</ele><time>2026-03-25T10:21:04.919Z</time></trkpt><trkpt lat="43.7087579" lon="10.5024957"><ele>8.8</ele><time>2026-03-25T10:21:05.92Z</time></trkpt><trkpt lat="43.7088343" lon="10.5025127"><ele>8.2</ele><time>2026-03-25T10:21:06.918Z</time></trkpt><trkpt lat="43.7089301" lon="10.5025715"><ele>7.6</ele><time>2026-03-25T10:21:07.919Z</time></trkpt><trkpt lat="43.7090405" lon="10.5026566"><ele>7.0</ele><time>2026-03-25T10:21:08.919Z</time></trkpt><trkpt lat="43.7091709" lon="10.5027365"><ele>7.0</ele><time>2026-03-25T10:21:09.92Z</time></trkpt><trkpt lat="43.7093131" lon="10.5028407"><ele>7.0</ele><time>2026-03-25T10:21:10.918Z</time></trkpt><trkpt lat="43.7094607" lon="10.5029363"><ele>7.0</ele><time>2026-03-25T10:21:11.919Z</time></trkpt><trkpt lat="43.7096119" lon="10.5030488"><ele>7.0</ele><time>2026-03-25T10:21:12.92Z</time></trkpt><trkpt lat="43.7097875" lon="10.503181"><ele>7.0</ele><time>2026-03-25T10:21:13.918Z</time></trkpt><trkpt lat="43.7099646" lon="10.5033159"><ele>7.0</ele><time>2026-03-25T10:21:14.919Z</time></trkpt><trkpt lat="43.7101824" lon="10.5034893"><ele>7.0</ele><time>2026-03-25T10:21:15.918Z</time></trkpt><trkpt lat="43.7103697" lon="10.5036455"><ele>7.0</ele><time>2026-03-25T10:21:16.92Z</time></trkpt><trkpt lat="43.7105692" lon="10.5038099"><ele>7.0</ele><time>2026-03-25T10:21:17.919Z</time></trkpt><trkpt lat="43.7107987" lon="10.5039813"><ele>7.0</ele><time>2026-03-25T10:21:18.92Z</time></trkpt><trkpt lat="43.7110087" lon="10.5041497"><ele>7.0</ele><time>2026-03-25T10:21:19.919Z</time></trkpt><trkpt lat="43.7112073" lon="10.5043086"><ele>7.0</ele><time>2026-03-25T10:21:20.92Z</time></trkpt><trkpt lat="43.7113952" lon="10.5044607"><ele>7.0</ele><time>2026-03-25T10:21:21.919Z</time></trkpt><trkpt lat="43.7115787" lon="10.5046081"><ele>7.0</ele><time>2026-03-25T10:21:22.919Z</time></trkpt><trkpt lat="43.7117321" lon="10.5047404"><ele>7.0</ele><time>2026-03-25T10:21:23.918Z</time></trkpt><trkpt lat="43.711897" lon="10.5048858"><ele>7.0</ele><time>2026-03-25T10:21:24.92Z</time></trkpt><trkpt lat="43.7120564" lon="10.5050052"><ele>6.666666666666667</ele><time>2026-03-25T10:21:25.919Z</time></trkpt><trkpt lat="43.7122195" lon="10.505132"><ele>6.333333333333334</ele><time>2026-03-25T10:21:26.918Z</time></trkpt><trkpt lat="43.7123715" lon="10.5052239"><ele>6.0</ele><time>2026-03-25T10:21:27.919Z</time></trkpt><trkpt lat="43.7125177" lon="10.5053324"><ele>6.0</ele><time>2026-03-25T10:21:28.919Z</time></trkpt><trkpt lat="43.7125996" lon="10.505389"><ele>6.0</ele><time>2026-03-25T10:21:29.919Z</time></trkpt><trkpt lat="43.712715" lon="10.5054567"><ele>6.0</ele><time>2026-03-25T10:21:30.919Z</time></trkpt><trkpt lat="43.7128256" lon="10.5055023"><ele>6.0</ele><time>2026-03-25T10:21:31.92Z</time></trkpt><trkpt lat="43.7129133" lon="10.505509"><ele>6.0</ele><time>2026-03-25T10:21:32.919Z</time></trkpt><trkpt lat="43.7129975" lon="10.5054797"><ele>6.0</ele><time>2026-03-25T10:21:33.919Z</time></trkpt><trkpt lat="43.7130797" lon="10.5054169"><ele>6.0</ele><time>2026-03-25T10:21:34.919Z</time></trkpt><trkpt lat="43.713149" lon="10.5053198"><ele>6.0</ele><time>2026-03-25T10:21:35.919Z</time></trkpt><trkpt lat="43.7132147" lon="10.5052138"><ele>6.0</ele><time>2026-03-25T10:21:36.919Z</time></trkpt><trkpt lat="43.7132914" lon="10.505088"><ele>6.0</ele><time>2026-03-25T10:21:37.92Z</time></trkpt><trkpt lat="43.7133765" lon="10.5048873"><ele>6.0</ele><time>2026-03-25T10:21:38.918Z</time></trkpt><trkpt lat="43.7134629" lon="10.5046936"><ele>6.0</ele><time>2026-03-25T10:21:39.92Z</time></trkpt><trkpt lat="43.7135459" lon="10.5044963"><ele>6.0</ele><time>2026-03-25T10:21:40.919Z</time></trkpt><trkpt lat="43.7136189" lon="10.5042989"><ele>5.333333333333333</ele><time>2026-03-25T10:21:41.919Z</time></trkpt><trkpt lat="43.7136813" lon="10.5040849"><ele>4.666666666666666</ele><time>2026-03-25T10:21:42.919Z</time></trkpt><trkpt lat="43.7137443" lon="10.5038595"><ele>4.0</ele><time>2026-03-25T10:21:43.919Z</time></trkpt><trkpt lat="43.7138111" lon="10.5036298"><ele>4.0</ele><time>2026-03-25T10:21:44.919Z</time></trkpt><trkpt lat="43.7138774" lon="10.5033903"><ele>4.0</ele><time>2026-03-25T10:21:45.918Z</time></trkpt><trkpt lat="43.7139424" lon="10.5031547"><ele>4.0</ele><time>2026-03-25T10:21:46.918Z</time></trkpt><trkpt lat="43.7140048" lon="10.5029234"><ele>4.666666666666666</ele><time>2026-03-25T10:21:47.919Z</time></trkpt><trkpt lat="43.7140642" lon="10.502697"><ele>5.333333333333333</ele><time>2026-03-25T10:21:48.919Z</time></trkpt><trkpt lat="43.7141251" lon="10.5024694"><ele>6.0</ele><time>2026-03-25T10:21:49.918Z</time></trkpt><trkpt lat="43.7141882" lon="10.5022563"><ele>5.666666666666667</ele><time>2026-03-25T10:21:50.918Z</time></trkpt><trkpt lat="43.7142423" lon="10.5020398"><ele>5.333333333333334</ele><time>2026-03-25T10:21:51.919Z</time></trkpt><trkpt lat="43.7142847" lon="10.5018208"><ele>5.0</ele><time>2026-03-25T10:21:52.92Z</time></trkpt><trkpt lat="43.7143147" lon="10.5016107"><ele>5.0</ele><time>2026-03-25T10:21:53.919Z</time></trkpt><trkpt lat="43.7143428" lon="10.5013966"><ele>5.0</ele><time>2026-03-25T10:21:54.918Z</time></trkpt><trkpt lat="43.7143669" lon="10.5011811"><ele>5.0</ele><time>2026-03-25T10:21:55.919Z</time></trkpt><trkpt lat="43.7143889" lon="10.5009485"><ele>4.666666666666667</ele><time>2026-03-25T10:21:56.919Z</time></trkpt><trkpt lat="43.7144125" lon="10.5007042"><ele>4.333333333333333</ele><time>2026-03-25T10:21:57.919Z</time></trkpt><trkpt lat="43.7144372" lon="10.5004493"><ele>4.0</ele><time>2026-03-25T10:21:58.92Z</time></trkpt><trkpt lat="43.7144664" lon="10.5001834"><ele>4.0</ele><time>2026-03-25T10:21:59.919Z</time></trkpt><trkpt lat="43.7144943" lon="10.4999122"><ele>4.0</ele><time>2026-03-25T10:22:00.92Z</time></trkpt><trkpt lat="43.7145259" lon="10.4996481"><ele>4.0</ele><time>2026-03-25T10:22:01.918Z</time></trkpt><trkpt lat="43.7145626" lon="10.4994023"><ele>4.333333333333333</ele><time>2026-03-25T10:22:02.919Z</time></trkpt><trkpt lat="43.7146108" lon="10.4991802"><ele>4.666666666666667</ele><time>2026-03-25T10:22:03.918Z</time></trkpt><trkpt lat="43.7146769" lon="10.4989707"><ele>5.0</ele><time>2026-03-25T10:22:04.919Z</time></trkpt><trkpt lat="43.7147582" lon="10.498766"><ele>5.0</ele><time>2026-03-25T10:22:05.918Z</time></trkpt><trkpt lat="43.7148537" lon="10.4985635"><ele>5.0</ele><time>2026-03-25T10:22:06.919Z</time></trkpt><trkpt lat="43.7149676" lon="10.4983665"><ele>5.0</ele><time>2026-03-25T10:22:07.918Z</time></trkpt><trkpt lat="43.7150946" lon="10.4981654"><ele>5.0</ele><time>2026-03-25T10:22:08.918Z</time></trkpt><trkpt lat="43.7152254" lon="10.497957"><ele>5.0</ele><time>2026-03-25T10:22:09.92Z</time></trkpt><trkpt lat="43.7153534" lon="10.4977424"><ele>5.0</ele><time>2026-03-25T10:22:10.918Z</time></trkpt><trkpt lat="43.7154832" lon="10.4975277"><ele>5.0</ele><time>2026-03-25T10:22:11.918Z</time></trkpt><trkpt lat="43.7156141" lon="10.4973111"><ele>5.0</ele><time>2026-03-25T10:22:12.919Z</time></trkpt><trkpt lat="43.7157452" lon="10.4970901"><ele>5.0</ele><time>2026-03-25T10:22:13.919Z</time></trkpt><trkpt lat="43.7158642" lon="10.4968677"><ele>4.666666666666667</ele><time>2026-03-25T10:22:14.918Z</time></trkpt><trkpt lat="43.7159731" lon="10.4966532"><ele>4.333333333333333</ele><time>2026-03-25T10:22:15.919Z</time></trkpt><trkpt lat="43.7160796" lon="10.4964385"><ele>4.0</ele><time>2026-03-25T10:22:16.919Z</time></trkpt><trkpt lat="43.7161837" lon="10.4962219"><ele>3.6666666666666665</ele><time>2026-03-25T10:22:17.919Z</time></trkpt><trkpt lat="43.7163008" lon="10.4960091"><ele>3.333333333333333</ele><time>2026-03-25T10:22:18.918Z</time></trkpt><trkpt lat="43.7164245" lon="10.4957857"><ele>3.0</ele><time>2026-03-25T10:22:19.92Z</time></trkpt><trkpt lat="43.7165509" lon="10.4955642"><ele>3.0</ele><time>2026-03-25T10:22:20.92Z</time></trkpt><trkpt lat="43.7166797" lon="10.4953394"><ele>3.0</ele><time>2026-03-25T10:22:21.919Z</time></trkpt><trkpt lat="43.7168026" lon="10.4951209"><ele>3.0</ele><time>2026-03-25T10:22:22.918Z</time></trkpt><trkpt lat="43.7169259" lon="10.4949117"><ele>3.0</ele><time>2026-03-25T10:22:23.919Z</time></trkpt><trkpt lat="43.7170425" lon="10.4947075"><ele>3.0</ele><time>2026-03-25T10:22:24.92Z</time></trkpt><trkpt lat="43.7171522" lon="10.4945157"><ele>3.0</ele><time>2026-03-25T10:22:25.919Z</time></trkpt><trkpt lat="43.7172565" lon="10.494335"><ele>3.0</ele><time>2026-03-25T10:22:26.919Z</time></trkpt><trkpt lat="43.7173556" lon="10.4941537"><ele>3.0</ele><time>2026-03-25T10:22:27.918Z</time></trkpt><trkpt lat="43.7174644" lon="10.4939738"><ele>3.0</ele><time>2026-03-25T10:22:28.919Z</time></trkpt><trkpt lat="43.7175854" lon="10.4937999"><ele>3.0</ele><time>2026-03-25T10:22:29.919Z</time></trkpt><trkpt lat="43.7177201" lon="10.4936269"><ele>3.0</ele><time>2026-03-25T10:22:30.918Z</time></trkpt><trkpt lat="43.7178645" lon="10.4934605"><ele>3.0</ele><time>2026-03-25T10:22:31.918Z</time></trkpt><trkpt lat="43.7180142" lon="10.4933029"><ele>3.0</ele><time>2026-03-25T10:22:32.919Z</time></trkpt><trkpt lat="43.7181646" lon="10.4931443"><ele>3.0</ele><time>2026-03-25T10:22:33.918Z</time></trkpt><trkpt lat="43.7183155" lon="10.4929927"><ele>3.0</ele><time>2026-03-25T10:22:34.919Z</time></trkpt><trkpt lat="43.7184663" lon="10.4928441"><ele>3.333333333333333</ele><time>2026-03-25T10:22:35.918Z</time></trkpt><trkpt lat="43.7186305" lon="10.4927099"><ele>3.6666666666666665</ele><time>2026-03-25T10:22:36.919Z</time></trkpt><trkpt lat="43.7188115" lon="10.4925963"><ele>4.0</ele><time>2026-03-25T10:22:37.92Z</time></trkpt><trkpt lat="43.7189914" lon="10.4924855"><ele>4.0</ele><time>2026-03-25T10:22:38.918Z</time></trkpt><trkpt lat="43.7191777" lon="10.4923564"><ele>4.0</ele><time>2026-03-25T10:22:39.919Z</time></trkpt><trkpt lat="43.7193704" lon="10.4922262"><ele>4.0</ele><time>2026-03-25T10:22:40.918Z</time></trkpt><trkpt lat="43.7195603" lon="10.4920972"><ele>4.0</ele><time>2026-03-25T10:22:41.918Z</time></trkpt><trkpt lat="43.719741" lon="10.4919716"><ele>4.0</ele><time>2026-03-25T10:22:42.919Z</time></trkpt><trkpt lat="43.719925" lon="10.4918464"><ele>4.0</ele><time>2026-03-25T10:22:43.92Z</time></trkpt><trkpt lat="43.7201153" lon="10.491725"><ele>4.0</ele><time>2026-03-25T10:22:44.919Z</time></trkpt><trkpt lat="43.7203067" lon="10.4916011"><ele>4.0</ele><time>2026-03-25T10:22:45.919Z</time></trkpt><trkpt lat="43.7204989" lon="10.4914803"><ele>4.0</ele><time>2026-03-25T10:22:46.919Z</time></trkpt><trkpt lat="43.7206837" lon="10.4913588"><ele>3.6666666666666665</ele><time>2026-03-25T10:22:47.919Z</time></trkpt><trkpt lat="43.7208587" lon="10.4912463"><ele>3.333333333333333</ele><time>2026-03-25T10:22:48.919Z</time></trkpt><trkpt lat="43.7210317" lon="10.4911376"><ele>3.0</ele><time>2026-03-25T10:22:49.919Z</time></trkpt><trkpt lat="43.7211946" lon="10.4910342"><ele>2.3333333333333335</ele><time>2026-03-25T10:22:50.919Z</time></trkpt><trkpt lat="43.7213499" lon="10.4909422"><ele>1.6666666666666665</ele><time>2026-03-25T10:22:51.92Z</time></trkpt><trkpt lat="43.7215006" lon="10.4908563"><ele>1.0</ele><time>2026-03-25T10:22:52.919Z</time></trkpt><trkpt lat="43.7216466" lon="10.4907697"><ele>1.0</ele><time>2026-03-25T10:22:53.919Z</time></trkpt><trkpt lat="43.7217844" lon="10.4906821"><ele>1.0</ele><time>2026-03-25T10:22:54.919Z</time></trkpt><trkpt lat="43.7219059" lon="10.4905969"><ele>1.0</ele><time>2026-03-25T10:22:55.919Z</time></trkpt><trkpt lat="43.7220067" lon="10.4905105"><ele>1.0</ele><time>2026-03-25T10:22:56.918Z</time></trkpt><trkpt lat="43.7220757" lon="10.4904124"><ele>1.4</ele><time>2026-03-25T10:22:57.918Z</time></trkpt><trkpt lat="43.7221372" lon="10.4903069"><ele>1.8</ele><time>2026-03-25T10:22:58.919Z</time></trkpt><trkpt lat="43.7221874" lon="10.4901845"><ele>2.1999999999999997</ele><time>2026-03-25T10:22:59.918Z</time></trkpt><trkpt lat="43.7222102" lon="10.4900469"><ele>2.6</ele><time>2026-03-25T10:23:00.919Z</time></trkpt><trkpt lat="43.7222094" lon="10.4898979"><ele>3.0</ele><time>2026-03-25T10:23:01.919Z</time></trkpt><trkpt lat="43.7221887" lon="10.4897527"><ele>3.0</ele><time>2026-03-25T10:23:02.919Z</time></trkpt><trkpt lat="43.7221658" lon="10.489603"><ele>3.0</ele><time>2026-03-25T10:23:03.919Z</time></trkpt><trkpt lat="43.7221452" lon="10.4894407"><ele>3.0</ele><time>2026-03-25T10:23:04.919Z</time></trkpt><trkpt lat="43.7221235" lon="10.4892612"><ele>3.0</ele><time>2026-03-25T10:23:05.918Z</time></trkpt><trkpt lat="43.7220967" lon="10.4890644"><ele>3.0</ele><time>2026-03-25T10:23:06.918Z</time></trkpt><trkpt lat="43.7220754" lon="10.4888521"><ele>3.0</ele><time>2026-03-25T10:23:07.919Z</time></trkpt><trkpt lat="43.7220582" lon="10.4886261"><ele>3.0</ele><time>2026-03-25T10:23:08.919Z</time></trkpt><trkpt lat="43.7220409" lon="10.4883832"><ele>3.0</ele><time>2026-03-25T10:23:09.918Z</time></trkpt><trkpt lat="43.7220243" lon="10.4881206"><ele>3.0</ele><time>2026-03-25T10:23:10.919Z</time></trkpt><trkpt lat="43.7220014" lon="10.4878479"><ele>3.0</ele><time>2026-03-25T10:23:11.919Z</time></trkpt><trkpt lat="43.7219681" lon="10.4875695"><ele>3.0</ele><time>2026-03-25T10:23:12.919Z</time></trkpt><trkpt lat="43.7219255" lon="10.4872834"><ele>3.0</ele><time>2026-03-25T10:23:13.919Z</time></trkpt><trkpt lat="43.7218792" lon="10.4869977"><ele>3.0</ele><time>2026-03-25T10:23:14.919Z</time></trkpt><trkpt lat="43.72183" lon="10.4867259"><ele>3.0</ele><time>2026-03-25T10:23:15.918Z</time></trkpt><trkpt lat="43.7217834" lon="10.4864644"><ele>3.0</ele><time>2026-03-25T10:23:16.919Z</time></trkpt><trkpt lat="43.721743" lon="10.4862075"><ele>3.0</ele><time>2026-03-25T10:23:17.918Z</time></trkpt><trkpt lat="43.7217141" lon="10.4859506"><ele>3.0</ele><time>2026-03-25T10:23:18.919Z</time></trkpt><trkpt lat="43.721702" lon="10.4857004"><ele>3.0</ele><time>2026-03-25T10:23:19.919Z</time></trkpt><trkpt lat="43.7217076" lon="10.4854518"><ele>3.0</ele><time>2026-03-25T10:23:20.919Z</time></trkpt><trkpt lat="43.7217251" lon="10.4852036"><ele>3.0</ele><time>2026-03-25T10:23:21.919Z</time></trkpt><trkpt lat="43.7217482" lon="10.4849633"><ele>3.0</ele><time>2026-03-25T10:23:22.919Z</time></trkpt><trkpt lat="43.7217751" lon="10.4847372"><ele>3.0</ele><time>2026-03-25T10:23:23.919Z</time></trkpt><trkpt lat="43.7218052" lon="10.4845246"><ele>3.0</ele><time>2026-03-25T10:23:24.918Z</time></trkpt><trkpt lat="43.7218392" lon="10.4843203"><ele>3.0</ele><time>2026-03-25T10:23:25.919Z</time></trkpt><trkpt lat="43.7218748" lon="10.4841265"><ele>3.0</ele><time>2026-03-25T10:23:26.919Z</time></trkpt><trkpt lat="43.7219108" lon="10.4839389"><ele>3.0</ele><time>2026-03-25T10:23:27.919Z</time></trkpt><trkpt lat="43.7219369" lon="10.4837692"><ele>2.8</ele><time>2026-03-25T10:23:28.919Z</time></trkpt><trkpt lat="43.7219497" lon="10.4836095"><ele>2.5999999999999996</ele><time>2026-03-25T10:23:29.92Z</time></trkpt><trkpt lat="43.7219585" lon="10.4834554"><ele>2.4000000000000004</ele><time>2026-03-25T10:23:30.918Z</time></trkpt><trkpt lat="43.7219646" lon="10.4833049"><ele>2.2</ele><time>2026-03-25T10:23:31.919Z</time></trkpt><trkpt lat="43.7219687" lon="10.4831614"><ele>2.0</ele><time>2026-03-25T10:23:32.919Z</time></trkpt><trkpt lat="43.721972" lon="10.483023"><ele>1.8333333333333333</ele><time>2026-03-25T10:23:33.919Z</time></trkpt><trkpt lat="43.7219768" lon="10.4829038"><ele>1.6666666666666665</ele><time>2026-03-25T10:23:34.918Z</time></trkpt><trkpt lat="43.7219842" lon="10.4828016"><ele>1.5</ele><time>2026-03-25T10:23:35.919Z</time></trkpt><trkpt lat="43.7219878" lon="10.4827103"><ele>1.3333333333333333</ele><time>2026-03-25T10:23:36.919Z</time></trkpt><trkpt lat="43.721989" lon="10.4826179"><ele>1.1666666666666665</ele><time>2026-03-25T10:23:37.919Z</time></trkpt><trkpt lat="43.7219909" lon="10.4825119"><ele>1.0</ele><time>2026-03-25T10:23:38.918Z</time></trkpt><trkpt lat="43.7219938" lon="10.4823925"><ele>1.0</ele><time>2026-03-25T10:23:39.919Z</time></trkpt><trkpt lat="43.7219996" lon="10.4822584"><ele>1.0</ele><time>2026-03-25T10:23:40.919Z</time></trkpt><trkpt lat="43.7220096" lon="10.4821054"><ele>1.0</ele><time>2026-03-25T10:23:41.918Z</time></trkpt><trkpt lat="43.7220226" lon="10.4819244"><ele>1.0</ele><time>2026-03-25T10:23:42.918Z</time></trkpt><trkpt lat="43.7220447" lon="10.4817131"><ele>2.0</ele><time>2026-03-25T10:23:43.919Z</time></trkpt><trkpt lat="43.7220762" lon="10.4814825"><ele>3.0</ele><time>2026-03-25T10:23:44.919Z</time></trkpt><trkpt lat="43.7221177" lon="10.4812404"><ele>4.0</ele><time>2026-03-25T10:23:45.918Z</time></trkpt><trkpt lat="43.7221666" lon="10.4809948"><ele>4.0</ele><time>2026-03-25T10:23:46.918Z</time></trkpt><trkpt lat="43.7222122" lon="10.480762"><ele>4.0</ele><time>2026-03-25T10:23:47.919Z</time></trkpt><trkpt lat="43.7222542" lon="10.480535"><ele>4.0</ele><time>2026-03-25T10:23:48.919Z</time></trkpt><trkpt lat="43.7222911" lon="10.4803083"><ele>3.6666666666666665</ele><time>2026-03-25T10:23:49.918Z</time></trkpt><trkpt lat="43.7223232" lon="10.4800703"><ele>3.333333333333333</ele><time>2026-03-25T10:23:50.919Z</time></trkpt><trkpt lat="43.7223481" lon="10.4798257"><ele>3.0</ele><time>2026-03-25T10:23:51.92Z</time></trkpt><trkpt lat="43.7223659" lon="10.4795705"><ele>3.0</ele><time>2026-03-25T10:23:52.919Z</time></trkpt><trkpt lat="43.7223858" lon="10.4793155"><ele>3.0</ele><time>2026-03-25T10:23:53.918Z</time></trkpt><trkpt lat="43.7224033" lon="10.4790753"><ele>3.0</ele><time>2026-03-25T10:23:54.919Z</time></trkpt><trkpt lat="43.7224207" lon="10.4788509"><ele>2.75</ele><time>2026-03-25T10:23:55.918Z</time></trkpt><trkpt lat="43.7224366" lon="10.4786381"><ele>2.5</ele><time>2026-03-25T10:23:56.919Z</time></trkpt><trkpt lat="43.7224467" lon="10.478437"><ele>2.25</ele><time>2026-03-25T10:23:57.919Z</time></trkpt><trkpt lat="43.722455" lon="10.4782345"><ele>2.0</ele><time>2026-03-25T10:23:58.92Z</time></trkpt><trkpt lat="43.722469" lon="10.4780257"><ele>2.333333333333333</ele><time>2026-03-25T10:23:59.919Z</time></trkpt><trkpt lat="43.7224906" lon="10.4778076"><ele>2.6666666666666665</ele><time>2026-03-25T10:24:00.92Z</time></trkpt><trkpt lat="43.7225207" lon="10.4775863"><ele>3.0</ele><time>2026-03-25T10:24:01.919Z</time></trkpt><trkpt lat="43.7225618" lon="10.4773635"><ele>3.0</ele><time>2026-03-25T10:24:02.918Z</time></trkpt><trkpt lat="43.7226062" lon="10.4771489"><ele>3.0</ele><time>2026-03-25T10:24:03.918Z</time></trkpt><trkpt lat="43.7226448" lon="10.4769544"><ele>3.0</ele><time>2026-03-25T10:24:04.918Z</time></trkpt><trkpt lat="43.7226775" lon="10.4767727"><ele>3.0</ele><time>2026-03-25T10:24:05.918Z</time></trkpt><trkpt lat="43.7227036" lon="10.4765947"><ele>2.75</ele><time>2026-03-25T10:24:06.918Z</time></trkpt><trkpt lat="43.7227345" lon="10.4764184"><ele>2.5</ele><time>2026-03-25T10:24:07.918Z</time></trkpt><trkpt lat="43.722766" lon="10.4762318"><ele>2.25</ele><time>2026-03-25T10:24:08.92Z</time></trkpt><trkpt lat="43.7227986" lon="10.4760381"><ele>2.0</ele><time>2026-03-25T10:24:09.919Z</time></trkpt><trkpt lat="43.7228382" lon="10.4758394"><ele>2.6666666666666665</ele><time>2026-03-25T10:24:10.92Z</time></trkpt><trkpt lat="43.7228889" lon="10.4756288"><ele>3.333333333333333</ele><time>2026-03-25T10:24:11.919Z</time></trkpt><trkpt lat="43.7229504" lon="10.4754028"><ele>4.0</ele><time>2026-03-25T10:24:12.919Z</time></trkpt><trkpt lat="43.7230192" lon="10.4751761"><ele>4.0</ele><time>2026-03-25T10:24:13.918Z</time></trkpt><trkpt lat="43.723088" lon="10.4749598"><ele>4.0</ele><time>2026-03-25T10:24:14.918Z</time></trkpt><trkpt lat="43.7231508" lon="10.4747591"><ele>4.0</ele><time>2026-03-25T10:24:15.92Z</time></trkpt><trkpt lat="43.7232059" lon="10.4745673"><ele>3.75</ele><time>2026-03-25T10:24:16.918Z</time></trkpt><trkpt lat="43.7232504" lon="10.4743849"><ele>3.5</ele><time>2026-03-25T10:24:17.919Z</time></trkpt><trkpt lat="43.7232853" lon="10.4742088"><ele>3.25</ele><time>2026-03-25T10:24:18.919Z</time></trkpt><trkpt lat="43.7233136" lon="10.4740324"><ele>3.0</ele><time>2026-03-25T10:24:19.918Z</time></trkpt><trkpt lat="43.7233357" lon="10.4738597"><ele>3.0</ele><time>2026-03-25T10:24:20.918Z</time></trkpt><trkpt lat="43.7233504" lon="10.4736872"><ele>3.0</ele><time>2026-03-25T10:24:21.919Z</time></trkpt><trkpt lat="43.7233577" lon="10.4735087"><ele>3.0</ele><time>2026-03-25T10:24:22.92Z</time></trkpt><trkpt lat="43.7233563" lon="10.4733241"><ele>3.0</ele><time>2026-03-25T10:24:23.919Z</time></trkpt><trkpt lat="43.7233511" lon="10.473145"><ele>3.0</ele><time>2026-03-25T10:24:24.919Z</time></trkpt><trkpt lat="43.7233457" lon="10.4729776"><ele>3.0</ele><time>2026-03-25T10:24:25.918Z</time></trkpt><trkpt lat="43.7233397" lon="10.4728157"><ele>3.0</ele><time>2026-03-25T10:24:26.919Z</time></trkpt><trkpt lat="43.723332" lon="10.4726492"><ele>3.0</ele><time>2026-03-25T10:24:27.92Z</time></trkpt><trkpt lat="43.7233248" lon="10.4724761"><ele>3.0</ele><time>2026-03-25T10:24:28.919Z</time></trkpt><trkpt lat="43.7233145" lon="10.4723"><ele>3.0</ele><time>2026-03-25T10:24:29.919Z</time></trkpt><trkpt lat="43.723306" lon="10.4721304"><ele>3.0</ele><time>2026-03-25T10:24:30.92Z</time></trkpt><trkpt lat="43.7232975" lon="10.4719656"><ele>3.0</ele><time>2026-03-25T10:24:31.918Z</time></trkpt><trkpt lat="43.7232915" lon="10.4718059"><ele>3.0</ele><time>2026-03-25T10:24:32.918Z</time></trkpt><trkpt lat="43.7232856" lon="10.4716548"><ele>3.0</ele><time>2026-03-25T10:24:33.918Z</time></trkpt><trkpt lat="43.723279" lon="10.471515"><ele>3.0</ele><time>2026-03-25T10:24:34.918Z</time></trkpt><trkpt lat="43.7232707" lon="10.4713727"><ele>3.0</ele><time>2026-03-25T10:24:35.919Z</time></trkpt><trkpt lat="43.723265" lon="10.4712229"><ele>3.0</ele><time>2026-03-25T10:24:36.919Z</time></trkpt><trkpt lat="43.7232621" lon="10.4710656"><ele>3.0</ele><time>2026-03-25T10:24:37.918Z</time></trkpt><trkpt lat="43.7232585" lon="10.4708995"><ele>3.0</ele><time>2026-03-25T10:24:38.919Z</time></trkpt><trkpt lat="43.7232534" lon="10.4707314"><ele>3.0</ele><time>2026-03-25T10:24:39.919Z</time></trkpt><trkpt lat="43.7232512" lon="10.470556"><ele>3.0</ele><time>2026-03-25T10:24:40.919Z</time></trkpt><trkpt lat="43.7232432" lon="10.4703676"><ele>3.0</ele><time>2026-03-25T10:24:41.918Z</time></trkpt><trkpt lat="43.7232342" lon="10.4701802"><ele>3.0</ele><time>2026-03-25T10:24:42.919Z</time></trkpt><trkpt lat="43.7232296" lon="10.4699928"><ele>3.0</ele><time>2026-03-25T10:24:43.92Z</time></trkpt><trkpt lat="43.7232288" lon="10.4698088"><ele>3.0</ele><time>2026-03-25T10:24:44.918Z</time></trkpt><trkpt lat="43.7232276" lon="10.4696292"><ele>3.0</ele><time>2026-03-25T10:24:45.918Z</time></trkpt><trkpt lat="43.723228" lon="10.4694393"><ele>3.0</ele><time>2026-03-25T10:24:46.918Z</time></trkpt><trkpt lat="43.7232257" lon="10.4692539"><ele>3.0</ele><time>2026-03-25T10:24:47.919Z</time></trkpt><trkpt lat="43.7232198" lon="10.4690757"><ele>3.0</ele><time>2026-03-25T10:24:48.919Z</time></trkpt><trkpt lat="43.7232225" lon="10.4688848"><ele>3.333333333333333</ele><time>2026-03-25T10:24:49.919Z</time></trkpt><trkpt lat="43.723223" lon="10.4686929"><ele>3.6666666666666665</ele><time>2026-03-25T10:24:50.918Z</time></trkpt><trkpt lat="43.7232277" lon="10.4684861"><ele>4.0</ele><time>2026-03-25T10:24:51.919Z</time></trkpt><trkpt lat="43.723231" lon="10.4682588"><ele>4.0</ele><time>2026-03-25T10:24:52.92Z</time></trkpt><trkpt lat="43.7232404" lon="10.4680085"><ele>4.0</ele><time>2026-03-25T10:24:53.92Z</time></trkpt><trkpt lat="43.7232482" lon="10.4677507"><ele>4.0</ele><time>2026-03-25T10:24:54.919Z</time></trkpt><trkpt lat="43.7232632" lon="10.4675083"><ele>4.0</ele><time>2026-03-25T10:24:55.919Z</time></trkpt><trkpt lat="43.72328" lon="10.4672741"><ele>4.0</ele><time>2026-03-25T10:24:56.92Z</time></trkpt><trkpt lat="43.7232915" lon="10.4670576"><ele>4.0</ele><time>2026-03-25T10:24:57.919Z</time></trkpt><trkpt lat="43.7233023" lon="10.4668545"><ele>4.0</ele><time>2026-03-25T10:24:58.918Z</time></trkpt><trkpt lat="43.7233124" lon="10.4666563"><ele>4.0</ele><time>2026-03-25T10:24:59.919Z</time></trkpt><trkpt lat="43.7233217" lon="10.4664751"><ele>4.0</ele><time>2026-03-25T10:25:00.919Z</time></trkpt><trkpt lat="43.7233294" lon="10.4663064"><ele>4.0</ele><time>2026-03-25T10:25:01.919Z</time></trkpt><trkpt lat="43.7233561" lon="10.4661429"><ele>4.25</ele><time>2026-03-25T10:25:02.918Z</time></trkpt><trkpt lat="43.7233929" lon="10.4659888"><ele>4.5</ele><time>2026-03-25T10:25:03.919Z</time></trkpt><trkpt lat="43.7234401" lon="10.4658275"><ele>4.75</ele><time>2026-03-25T10:25:04.92Z</time></trkpt><trkpt lat="43.7234931" lon="10.4656625"><ele>5.0</ele><time>2026-03-25T10:25:05.919Z</time></trkpt><trkpt lat="43.7235519" lon="10.4654964"><ele>4.75</ele><time>2026-03-25T10:25:06.919Z</time></trkpt><trkpt lat="43.7236218" lon="10.4653308"><ele>4.5</ele><time>2026-03-25T10:25:07.919Z</time></trkpt><trkpt lat="43.7236918" lon="10.4651644"><ele>4.25</ele><time>2026-03-25T10:25:08.919Z</time></trkpt><trkpt lat="43.7237693" lon="10.4649881"><ele>4.0</ele><time>2026-03-25T10:25:09.919Z</time></trkpt><trkpt lat="43.7238441" lon="10.464822"><ele>4.0</ele><time>2026-03-25T10:25:10.918Z</time></trkpt><trkpt lat="43.7239134" lon="10.4646572"><ele>4.0</ele><time>2026-03-25T10:25:11.919Z</time></trkpt><trkpt lat="43.723981" lon="10.4645001"><ele>4.0</ele><time>2026-03-25T10:25:12.919Z</time></trkpt><trkpt lat="43.7240417" lon="10.4643513"><ele>4.0</ele><time>2026-03-25T10:25:13.919Z</time></trkpt><trkpt lat="43.7241034" lon="10.4642122"><ele>4.2</ele><time>2026-03-25T10:25:14.918Z</time></trkpt><trkpt lat="43.7241626" lon="10.4640719"><ele>4.4</ele><time>2026-03-25T10:25:15.919Z</time></trkpt><trkpt lat="43.7242169" lon="10.4639453"><ele>4.6</ele><time>2026-03-25T10:25:16.92Z</time></trkpt><trkpt lat="43.7242703" lon="10.4638342"><ele>4.8</ele><time>2026-03-25T10:25:17.919Z</time></trkpt><trkpt lat="43.7243116" lon="10.4637426"><ele>5.0</ele><time>2026-03-25T10:25:18.919Z</time></trkpt><trkpt lat="43.7243521" lon="10.4636569"><ele>5.0</ele><time>2026-03-25T10:25:19.919Z</time></trkpt><trkpt lat="43.7243936" lon="10.4635753"><ele>5.0</ele><time>2026-03-25T10:25:20.918Z</time></trkpt><trkpt lat="43.7244441" lon="10.4634756"><ele>5.0</ele><time>2026-03-25T10:25:21.918Z</time></trkpt><trkpt lat="43.7244978" lon="10.4633623"><ele>5.0</ele><time>2026-03-25T10:25:22.919Z</time></trkpt><trkpt lat="43.724556" lon="10.4632353"><ele>5.0</ele><time>2026-03-25T10:25:23.919Z</time></trkpt><trkpt lat="43.7246093" lon="10.463106"><ele>4.6</ele><time>2026-03-25T10:25:24.918Z</time></trkpt><trkpt lat="43.7246583" lon="10.4629843"><ele>4.2</ele><time>2026-03-25T10:25:25.919Z</time></trkpt><trkpt lat="43.7247035" lon="10.4628789"><ele>3.8</ele><time>2026-03-25T10:25:26.918Z</time></trkpt><trkpt lat="43.7247414" lon="10.4627788"><ele>3.4</ele><time>2026-03-25T10:25:27.919Z</time></trkpt><trkpt lat="43.7247844" lon="10.4626679"><ele>3.0</ele><time>2026-03-25T10:25:28.919Z</time></trkpt><trkpt lat="43.7248329" lon="10.4625407"><ele>3.0</ele><time>2026-03-25T10:25:29.92Z</time></trkpt><trkpt lat="43.7248827" lon="10.4624076"><ele>3.0</ele><time>2026-03-25T10:25:30.919Z</time></trkpt><trkpt lat="43.7249333" lon="10.4622765"><ele>3.0</ele><time>2026-03-25T10:25:31.919Z</time></trkpt><trkpt lat="43.7249786" lon="10.46215"><ele>3.0</ele><time>2026-03-25T10:25:32.919Z</time></trkpt><trkpt lat="43.7250172" lon="10.4620344"><ele>3.0</ele><time>2026-03-25T10:25:33.919Z</time></trkpt><trkpt lat="43.7250577" lon="10.4619245"><ele>3.0</ele><time>2026-03-25T10:25:34.919Z</time></trkpt><trkpt lat="43.7250959" lon="10.4618192"><ele>3.0</ele><time>2026-03-25T10:25:35.919Z</time></trkpt><trkpt lat="43.7251361" lon="10.4617204"><ele>3.0</ele><time>2026-03-25T10:25:36.92Z</time></trkpt><trkpt lat="43.7251765" lon="10.4616227"><ele>3.0</ele><time>2026-03-25T10:25:37.918Z</time></trkpt><trkpt lat="43.7252109" lon="10.4615257"><ele>3.0</ele><time>2026-03-25T10:25:38.918Z</time></trkpt><trkpt lat="43.7252455" lon="10.4614194"><ele>3.0</ele><time>2026-03-25T10:25:39.918Z</time></trkpt><trkpt lat="43.7252885" lon="10.4612987"><ele>3.5</ele><time>2026-03-25T10:25:40.919Z</time></trkpt><trkpt lat="43.7253412" lon="10.4611508"><ele>4.0</ele><time>2026-03-25T10:25:41.919Z</time></trkpt><trkpt lat="43.7253998" lon="10.4609838"><ele>4.5</ele><time>2026-03-25T10:25:42.919Z</time></trkpt><trkpt lat="43.7254623" lon="10.4608006"><ele>5.0</ele><time>2026-03-25T10:25:43.919Z</time></trkpt><trkpt lat="43.7255139" lon="10.4606282"><ele>5.0</ele><time>2026-03-25T10:25:44.919Z</time></trkpt><trkpt lat="43.7255574" lon="10.4604777"><ele>5.0</ele><time>2026-03-25T10:25:45.918Z</time></trkpt><trkpt lat="43.7256091" lon="10.4603294"><ele>5.0</ele><time>2026-03-25T10:25:46.918Z</time></trkpt><trkpt lat="43.7256563" lon="10.4601859"><ele>5.0</ele><time>2026-03-25T10:25:47.919Z</time></trkpt><trkpt lat="43.725704" lon="10.4600424"><ele>5.0</ele><time>2026-03-25T10:25:48.919Z</time></trkpt><trkpt lat="43.7257507" lon="10.4598949"><ele>5.0</ele><time>2026-03-25T10:25:49.918Z</time></trkpt><trkpt lat="43.7258029" lon="10.4597473"><ele>5.0</ele><time>2026-03-25T10:25:50.919Z</time></trkpt><trkpt lat="43.7258492" lon="10.4595964"><ele>5.0</ele><time>2026-03-25T10:25:51.919Z</time></trkpt><trkpt lat="43.7258894" lon="10.4594424"><ele>5.0</ele><time>2026-03-25T10:25:52.919Z</time></trkpt><trkpt lat="43.7259238" lon="10.4592905"><ele>5.0</ele><time>2026-03-25T10:25:53.919Z</time></trkpt><trkpt lat="43.7259545" lon="10.4591327"><ele>5.0</ele><time>2026-03-25T10:25:54.919Z</time></trkpt><trkpt lat="43.7259728" lon="10.4589637"><ele>5.0</ele><time>2026-03-25T10:25:55.918Z</time></trkpt><trkpt lat="43.7259769" lon="10.4588013"><ele>5.0</ele><time>2026-03-25T10:25:56.919Z</time></trkpt><trkpt lat="43.7259698" lon="10.4586238"><ele>5.0</ele><time>2026-03-25T10:25:57.919Z</time></trkpt><trkpt lat="43.7259603" lon="10.4584534"><ele>5.0</ele><time>2026-03-25T10:25:58.919Z</time></trkpt><trkpt lat="43.7259555" lon="10.4582803"><ele>5.0</ele><time>2026-03-25T10:25:59.918Z</time></trkpt><trkpt lat="43.7259604" lon="10.4581008"><ele>5.0</ele><time>2026-03-25T10:26:00.918Z</time></trkpt><trkpt lat="43.7259689" lon="10.4579209"><ele>5.0</ele><time>2026-03-25T10:26:01.919Z</time></trkpt><trkpt lat="43.7259772" lon="10.4577439"><ele>5.0</ele><time>2026-03-25T10:26:02.919Z</time></trkpt><trkpt lat="43.7259842" lon="10.4575713"><ele>5.0</ele><time>2026-03-25T10:26:03.919Z</time></trkpt><trkpt lat="43.7259915" lon="10.4574052"><ele>5.0</ele><time>2026-03-25T10:26:04.919Z</time></trkpt><trkpt lat="43.7259992" lon="10.4572458"><ele>5.0</ele><time>2026-03-25T10:26:05.92Z</time></trkpt><trkpt lat="43.726007" lon="10.4570883"><ele>5.0</ele><time>2026-03-25T10:26:06.918Z</time></trkpt><trkpt lat="43.7260173" lon="10.456925"><ele>5.0</ele><time>2026-03-25T10:26:07.92Z</time></trkpt><trkpt lat="43.7260273" lon="10.4567537"><ele>5.0</ele><time>2026-03-25T10:26:08.918Z</time></trkpt><trkpt lat="43.7260354" lon="10.4565749"><ele>5.0</ele><time>2026-03-25T10:26:09.919Z</time></trkpt><trkpt lat="43.726043" lon="10.4563904"><ele>5.0</ele><time>2026-03-25T10:26:10.92Z</time></trkpt><trkpt lat="43.7260487" lon="10.4562136"><ele>5.0</ele><time>2026-03-25T10:26:11.919Z</time></trkpt><trkpt lat="43.7260564" lon="10.4560369"><ele>4.5</ele><time>2026-03-25T10:26:12.92Z</time></trkpt><trkpt lat="43.7260688" lon="10.4558671"><ele>4.0</ele><time>2026-03-25T10:26:13.919Z</time></trkpt><trkpt lat="43.7260793" lon="10.4557054"><ele>3.5</ele><time>2026-03-25T10:26:14.919Z</time></trkpt><trkpt lat="43.726095" lon="10.455539"><ele>3.0</ele><time>2026-03-25T10:26:15.919Z</time></trkpt><trkpt lat="43.7261007" lon="10.4553841"><ele>3.0</ele><time>2026-03-25T10:26:16.919Z</time></trkpt><trkpt lat="43.7261108" lon="10.4552252"><ele>3.0</ele><time>2026-03-25T10:26:17.919Z</time></trkpt><trkpt lat="43.7261182" lon="10.4550735"><ele>3.0</ele><time>2026-03-25T10:26:18.919Z</time></trkpt><trkpt lat="43.7261201" lon="10.4549213"><ele>3.0</ele><time>2026-03-25T10:26:19.919Z</time></trkpt><trkpt lat="43.7261304" lon="10.4547682"><ele>3.0</ele><time>2026-03-25T10:26:20.919Z</time></trkpt><trkpt lat="43.7261364" lon="10.4546152"><ele>3.0</ele><time>2026-03-25T10:26:21.919Z</time></trkpt><trkpt lat="43.7261405" lon="10.4544659"><ele>3.0</ele><time>2026-03-25T10:26:22.92Z</time></trkpt><trkpt lat="43.7261375" lon="10.4543145"><ele>3.0</ele><time>2026-03-25T10:26:23.919Z</time></trkpt><trkpt lat="43.7261403" lon="10.4541714"><ele>3.0</ele><time>2026-03-25T10:26:24.919Z</time></trkpt><trkpt lat="43.7261381" lon="10.4540296"><ele>3.0</ele><time>2026-03-25T10:26:25.919Z</time></trkpt><trkpt lat="43.7261295" lon="10.4538892"><ele>2.8</ele><time>2026-03-25T10:26:26.919Z</time></trkpt><trkpt lat="43.7261233" lon="10.4537495"><ele>2.5999999999999996</ele><time>2026-03-25T10:26:27.92Z</time></trkpt><trkpt lat="43.7261143" lon="10.453604"><ele>2.4000000000000004</ele><time>2026-03-25T10:26:28.919Z</time></trkpt><trkpt lat="43.7261066" lon="10.453457"><ele>2.2</ele><time>2026-03-25T10:26:29.919Z</time></trkpt><trkpt lat="43.7261083" lon="10.4533044"><ele>2.0</ele><time>2026-03-25T10:26:30.919Z</time></trkpt><trkpt lat="43.7261196" lon="10.4531395"><ele>2.0</ele><time>2026-03-25T10:26:31.919Z</time></trkpt><trkpt lat="43.7261324" lon="10.452979"><ele>2.0</ele><time>2026-03-25T10:26:32.92Z</time></trkpt><trkpt lat="43.7261488" lon="10.4528098"><ele>2.0</ele><time>2026-03-25T10:26:33.918Z</time></trkpt><trkpt lat="43.7261628" lon="10.4526428"><ele>2.0</ele><time>2026-03-25T10:26:34.919Z</time></trkpt><trkpt lat="43.7261781" lon="10.4524778"><ele>2.25</ele><time>2026-03-25T10:26:35.918Z</time></trkpt><trkpt lat="43.7261905" lon="10.4523111"><ele>2.5</ele><time>2026-03-25T10:26:36.918Z</time></trkpt><trkpt lat="43.7261995" lon="10.4521436"><ele>2.75</ele><time>2026-03-25T10:26:37.918Z</time></trkpt><trkpt lat="43.7261938" lon="10.4519832"><ele>3.0</ele><time>2026-03-25T10:26:38.918Z</time></trkpt><trkpt lat="43.726171" lon="10.4518306"><ele>3.0</ele><time>2026-03-25T10:26:39.919Z</time></trkpt><trkpt lat="43.7261308" lon="10.451683"><ele>3.0</ele><time>2026-03-25T10:26:40.92Z</time></trkpt><trkpt lat="43.7260703" lon="10.4515452"><ele>3.0</ele><time>2026-03-25T10:26:41.918Z</time></trkpt><trkpt lat="43.7259989" lon="10.4514074"><ele>3.0</ele><time>2026-03-25T10:26:42.92Z</time></trkpt><trkpt lat="43.725922" lon="10.4512718"><ele>3.2</ele><time>2026-03-25T10:26:43.919Z</time></trkpt><trkpt lat="43.7258539" lon="10.4511463"><ele>3.4</ele><time>2026-03-25T10:26:44.918Z</time></trkpt><trkpt lat="43.7257856" lon="10.4510225"><ele>3.6000000000000005</ele><time>2026-03-25T10:26:45.92Z</time></trkpt><trkpt lat="43.7257249" lon="10.4509133"><ele>3.8000000000000003</ele><time>2026-03-25T10:26:46.919Z</time></trkpt><trkpt lat="43.7256634" lon="10.450805"><ele>4.0</ele><time>2026-03-25T10:26:47.92Z</time></trkpt><trkpt lat="43.7255919" lon="10.4506947"><ele>3.9999999999999996</ele><time>2026-03-25T10:26:48.919Z</time></trkpt><trkpt lat="43.7255374" lon="10.4505871"><ele>4.0</ele><time>2026-03-25T10:26:49.918Z</time></trkpt><trkpt lat="43.7254889" lon="10.4504913"><ele>4.0</ele><time>2026-03-25T10:26:50.919Z</time></trkpt><trkpt lat="43.7254499" lon="10.4503914"><ele>4.0</ele><time>2026-03-25T10:26:51.918Z</time></trkpt><trkpt lat="43.7254245" lon="10.4502858"><ele>3.9999999999999996</ele><time>2026-03-25T10:26:52.919Z</time></trkpt><trkpt lat="43.7254209" lon="10.4501735"><ele>4.0</ele><time>2026-03-25T10:26:53.919Z</time></trkpt><trkpt lat="43.7254297" lon="10.4500653"><ele>3.9999999999999996</ele><time>2026-03-25T10:26:54.919Z</time></trkpt><trkpt lat="43.7254483" lon="10.4499721"><ele>4.0</ele><time>2026-03-25T10:26:55.919Z</time></trkpt><trkpt lat="43.7254527" lon="10.4498848"><ele>4.0</ele><time>2026-03-25T10:26:56.918Z</time></trkpt><trkpt lat="43.7253721" lon="10.449754"><ele>4.0</ele><time>2026-03-25T10:26:58.919Z</time></trkpt><trkpt lat="43.725304" lon="10.4497127"><ele>3.9999999999999996</ele><time>2026-03-25T10:26:59.919Z</time></trkpt><trkpt lat="43.7252183" lon="10.449693"><ele>4.0</ele><time>2026-03-25T10:27:00.918Z</time></trkpt><trkpt lat="43.7251258" lon="10.449681"><ele>4.0</ele><time>2026-03-25T10:27:01.92Z</time></trkpt><trkpt lat="43.7250307" lon="10.4496566"><ele>4.0</ele><time>2026-03-25T10:27:02.919Z</time></trkpt><trkpt lat="43.7249379" lon="10.4496124"><ele>4.0</ele><time>2026-03-25T10:27:03.918Z</time></trkpt><trkpt lat="43.7248489" lon="10.4495505"><ele>4.0</ele><time>2026-03-25T10:27:04.918Z</time></trkpt><trkpt lat="43.7247654" lon="10.4494675"><ele>4.0</ele><time>2026-03-25T10:27:05.919Z</time></trkpt><trkpt lat="43.7246843" lon="10.4493616"><ele>3.75</ele><time>2026-03-25T10:27:06.919Z</time></trkpt><trkpt lat="43.7246037" lon="10.4492482"><ele>3.5</ele><time>2026-03-25T10:27:07.918Z</time></trkpt><trkpt lat="43.7245125" lon="10.449124"><ele>3.25</ele><time>2026-03-25T10:27:08.919Z</time></trkpt><trkpt lat="43.7244267" lon="10.4490059"><ele>3.0</ele><time>2026-03-25T10:27:09.918Z</time></trkpt><trkpt lat="43.7243435" lon="10.4488981"><ele>2.5</ele><time>2026-03-25T10:27:10.918Z</time></trkpt><trkpt lat="43.7242582" lon="10.4487924"><ele>2.0</ele><time>2026-03-25T10:27:11.919Z</time></trkpt><trkpt lat="43.724167" lon="10.4486923"><ele>1.5</ele><time>2026-03-25T10:27:12.918Z</time></trkpt><trkpt lat="43.7240667" lon="10.4485914"><ele>1.0</ele><time>2026-03-25T10:27:13.919Z</time></trkpt><trkpt lat="43.7239606" lon="10.4484901"><ele>1.0</ele><time>2026-03-25T10:27:14.92Z</time></trkpt><trkpt lat="43.7238499" lon="10.4483882"><ele>1.0</ele><time>2026-03-25T10:27:15.918Z</time></trkpt><trkpt lat="43.7237364" lon="10.4482876"><ele>1.0</ele><time>2026-03-25T10:27:16.919Z</time></trkpt><trkpt lat="43.7236211" lon="10.4481859"><ele>1.0</ele><time>2026-03-25T10:27:17.92Z</time></trkpt><trkpt lat="43.7235004" lon="10.4480832"><ele>1.25</ele><time>2026-03-25T10:27:18.918Z</time></trkpt><trkpt lat="43.7233855" lon="10.4479813"><ele>1.5</ele><time>2026-03-25T10:27:19.919Z</time></trkpt><trkpt lat="43.7232662" lon="10.4478755"><ele>1.75</ele><time>2026-03-25T10:27:20.918Z</time></trkpt><trkpt lat="43.7231457" lon="10.4477728"><ele>2.0</ele><time>2026-03-25T10:27:21.918Z</time></trkpt><trkpt lat="43.7230275" lon="10.4476773"><ele>2.0</ele><time>2026-03-25T10:27:22.918Z</time></trkpt><trkpt lat="43.7229119" lon="10.4475838"><ele>2.0</ele><time>2026-03-25T10:27:23.918Z</time></trkpt><trkpt lat="43.7227996" lon="10.4474913"><ele>2.0</ele><time>2026-03-25T10:27:24.918Z</time></trkpt><trkpt lat="43.7226895" lon="10.4474033"><ele>2.0</ele><time>2026-03-25T10:27:25.918Z</time></trkpt><trkpt lat="43.7225793" lon="10.4473144"><ele>2.0</ele><time>2026-03-25T10:27:26.92Z</time></trkpt><trkpt lat="43.7224697" lon="10.4472312"><ele>2.0</ele><time>2026-03-25T10:27:27.919Z</time></trkpt><trkpt lat="43.7223626" lon="10.4471492"><ele>2.0</ele><time>2026-03-25T10:27:28.919Z</time></trkpt><trkpt lat="43.722258" lon="10.4470693"><ele>2.0</ele><time>2026-03-25T10:27:29.918Z</time></trkpt><trkpt lat="43.7221543" lon="10.4469922"><ele>2.0</ele><time>2026-03-25T10:27:30.919Z</time></trkpt><trkpt lat="43.722052" lon="10.4469179"><ele>2.0</ele><time>2026-03-25T10:27:31.919Z</time></trkpt><trkpt lat="43.7219468" lon="10.4468442"><ele>2.0</ele><time>2026-03-25T10:27:32.919Z</time></trkpt><trkpt lat="43.7218372" lon="10.4467763"><ele>2.0</ele><time>2026-03-25T10:27:33.919Z</time></trkpt><trkpt lat="43.7217262" lon="10.4467184"><ele>2.25</ele><time>2026-03-25T10:27:34.919Z</time></trkpt><trkpt lat="43.7216128" lon="10.4466745"><ele>2.5</ele><time>2026-03-25T10:27:35.919Z</time></trkpt><trkpt lat="43.7214958" lon="10.4466471"><ele>2.75</ele><time>2026-03-25T10:27:36.919Z</time></trkpt><trkpt lat="43.7213752" lon="10.4466301"><ele>3.0</ele><time>2026-03-25T10:27:37.919Z</time></trkpt><trkpt lat="43.7212527" lon="10.4466204"><ele>3.0</ele><time>2026-03-25T10:27:38.919Z</time></trkpt><trkpt lat="43.7211276" lon="10.446613"><ele>3.0</ele><time>2026-03-25T10:27:39.919Z</time></trkpt><trkpt lat="43.7210097" lon="10.4466036"><ele>3.0</ele><time>2026-03-25T10:27:40.92Z</time></trkpt><trkpt lat="43.7208941" lon="10.4465887"><ele>3.0</ele><time>2026-03-25T10:27:41.918Z</time></trkpt><trkpt lat="43.7207763" lon="10.446571"><ele>3.5</ele><time>2026-03-25T10:27:42.918Z</time></trkpt><trkpt lat="43.7206531" lon="10.4465511"><ele>4.0</ele><time>2026-03-25T10:27:43.919Z</time></trkpt><trkpt lat="43.7205195" lon="10.446519"><ele>4.5</ele><time>2026-03-25T10:27:44.919Z</time></trkpt><trkpt lat="43.7203822" lon="10.4464819"><ele>5.0</ele><time>2026-03-25T10:27:45.919Z</time></trkpt><trkpt lat="43.720248" lon="10.4464397"><ele>5.25</ele><time>2026-03-25T10:27:46.918Z</time></trkpt><trkpt lat="43.7201142" lon="10.4464027"><ele>5.5</ele><time>2026-03-25T10:27:47.919Z</time></trkpt><trkpt lat="43.7199813" lon="10.4463627"><ele>5.75</ele><time>2026-03-25T10:27:48.92Z</time></trkpt><trkpt lat="43.7198449" lon="10.4463221"><ele>6.0</ele><time>2026-03-25T10:27:49.919Z</time></trkpt><trkpt lat="43.7197059" lon="10.4462749"><ele>5.333333333333333</ele><time>2026-03-25T10:27:50.919Z</time></trkpt><trkpt lat="43.719562" lon="10.4462223"><ele>4.666666666666666</ele><time>2026-03-25T10:27:51.919Z</time></trkpt><trkpt lat="43.7194193" lon="10.4461523"><ele>4.0</ele><time>2026-03-25T10:27:52.919Z</time></trkpt><trkpt lat="43.7192772" lon="10.4460687"><ele>4.0</ele><time>2026-03-25T10:27:53.918Z</time></trkpt><trkpt lat="43.7191327" lon="10.4459805"><ele>4.0</ele><time>2026-03-25T10:27:54.919Z</time></trkpt><trkpt lat="43.7189907" lon="10.4458922"><ele>4.0</ele><time>2026-03-25T10:27:55.919Z</time></trkpt><trkpt lat="43.7188541" lon="10.4458122"><ele>4.0</ele><time>2026-03-25T10:27:56.919Z</time></trkpt><trkpt lat="43.7187181" lon="10.4457418"><ele>4.0</ele><time>2026-03-25T10:27:57.918Z</time></trkpt><trkpt lat="43.7185813" lon="10.4456751"><ele>4.0</ele><time>2026-03-25T10:27:58.918Z</time></trkpt><trkpt lat="43.7184438" lon="10.4456126"><ele>4.0</ele><time>2026-03-25T10:27:59.92Z</time></trkpt><trkpt lat="43.718305" lon="10.4455532"><ele>4.0</ele><time>2026-03-25T10:28:00.919Z</time></trkpt><trkpt lat="43.7181627" lon="10.4454929"><ele>4.0</ele><time>2026-03-25T10:28:01.918Z</time></trkpt><trkpt lat="43.7180177" lon="10.4454318"><ele>4.0</ele><time>2026-03-25T10:28:02.92Z</time></trkpt><trkpt lat="43.7178709" lon="10.4453709"><ele>4.333333333333333</ele><time>2026-03-25T10:28:03.919Z</time></trkpt><trkpt lat="43.7177214" lon="10.4453115"><ele>4.666666666666667</ele><time>2026-03-25T10:28:04.918Z</time></trkpt><trkpt lat="43.71757" lon="10.4452517"><ele>5.0</ele><time>2026-03-25T10:28:05.919Z</time></trkpt><trkpt lat="43.717422" lon="10.4451903"><ele>5.0</ele><time>2026-03-25T10:28:06.92Z</time></trkpt><trkpt lat="43.7172755" lon="10.4451292"><ele>5.0</ele><time>2026-03-25T10:28:07.919Z</time></trkpt><trkpt lat="43.7171307" lon="10.4450696"><ele>5.0</ele><time>2026-03-25T10:28:08.919Z</time></trkpt><trkpt lat="43.7169885" lon="10.4450139"><ele>5.0</ele><time>2026-03-25T10:28:09.919Z</time></trkpt><trkpt lat="43.7168485" lon="10.4449534"><ele>5.0</ele><time>2026-03-25T10:28:10.919Z</time></trkpt><trkpt lat="43.7167116" lon="10.444896"><ele>5.0</ele><time>2026-03-25T10:28:11.919Z</time></trkpt><trkpt lat="43.716582" lon="10.4448389"><ele>5.0</ele><time>2026-03-25T10:28:12.919Z</time></trkpt><trkpt lat="43.7164545" lon="10.4447846"><ele>5.0</ele><time>2026-03-25T10:28:13.919Z</time></trkpt><trkpt lat="43.7163244" lon="10.4447294"><ele>5.0</ele><time>2026-03-25T10:28:14.919Z</time></trkpt><trkpt lat="43.7161921" lon="10.444671"><ele>5.0</ele><time>2026-03-25T10:28:15.919Z</time></trkpt><trkpt lat="43.7160588" lon="10.4446062"><ele>5.0</ele><time>2026-03-25T10:28:16.919Z</time></trkpt><trkpt lat="43.7159317" lon="10.44453"><ele>4.75</ele><time>2026-03-25T10:28:17.918Z</time></trkpt><trkpt lat="43.7158053" lon="10.4444475"><ele>4.5</ele><time>2026-03-25T10:28:18.919Z</time></trkpt><trkpt lat="43.7156788" lon="10.4443647"><ele>4.25</ele><time>2026-03-25T10:28:19.919Z</time></trkpt><trkpt lat="43.7155564" lon="10.4442814"><ele>4.0</ele><time>2026-03-25T10:28:20.92Z</time></trkpt><trkpt lat="43.7154352" lon="10.4442083"><ele>4.0</ele><time>2026-03-25T10:28:21.919Z</time></trkpt><trkpt lat="43.7153193" lon="10.4441421"><ele>4.0</ele><time>2026-03-25T10:28:22.919Z</time></trkpt><trkpt lat="43.7152055" lon="10.4440735"><ele>4.0</ele><time>2026-03-25T10:28:23.92Z</time></trkpt><trkpt lat="43.7150922" lon="10.4440026"><ele>4.0</ele><time>2026-03-25T10:28:24.92Z</time></trkpt><trkpt lat="43.7149811" lon="10.4439297"><ele>3.6</ele><time>2026-03-25T10:28:25.919Z</time></trkpt><trkpt lat="43.7148766" lon="10.4438619"><ele>3.2</ele><time>2026-03-25T10:28:26.918Z</time></trkpt><trkpt lat="43.7147853" lon="10.443803"><ele>2.8000000000000003</ele><time>2026-03-25T10:28:27.919Z</time></trkpt><trkpt lat="43.7147019" lon="10.4437503"><ele>2.4000000000000004</ele><time>2026-03-25T10:28:28.919Z</time></trkpt><trkpt lat="43.7146202" lon="10.4436993"><ele>2.0</ele><time>2026-03-25T10:28:29.918Z</time></trkpt><trkpt lat="43.7145331" lon="10.443651"><ele>2.0</ele><time>2026-03-25T10:28:30.919Z</time></trkpt><trkpt lat="43.7144469" lon="10.4436012"><ele>2.0</ele><time>2026-03-25T10:28:31.919Z</time></trkpt><trkpt lat="43.714358" lon="10.4435426"><ele>2.0</ele><time>2026-03-25T10:28:32.918Z</time></trkpt><trkpt lat="43.7142628" lon="10.4434806"><ele>2.0</ele><time>2026-03-25T10:28:33.919Z</time></trkpt><trkpt lat="43.7141537" lon="10.4434148"><ele>2.0</ele><time>2026-03-25T10:28:34.92Z</time></trkpt><trkpt lat="43.7140401" lon="10.4433459"><ele>2.0</ele><time>2026-03-25T10:28:35.918Z</time></trkpt><trkpt lat="43.7139275" lon="10.4432743"><ele>2.0</ele><time>2026-03-25T10:28:36.918Z</time></trkpt><trkpt lat="43.7138143" lon="10.4432059"><ele>2.0</ele><time>2026-03-25T10:28:37.919Z</time></trkpt><trkpt lat="43.713695" lon="10.4431397"><ele>2.0</ele><time>2026-03-25T10:28:38.918Z</time></trkpt><trkpt lat="43.7135739" lon="10.4430769"><ele>2.25</ele><time>2026-03-25T10:28:39.919Z</time></trkpt><trkpt lat="43.7134447" lon="10.4430142"><ele>2.5</ele><time>2026-03-25T10:28:40.919Z</time></trkpt><trkpt lat="43.7133105" lon="10.442955"><ele>2.75</ele><time>2026-03-25T10:28:41.918Z</time></trkpt><trkpt lat="43.7131754" lon="10.4428957"><ele>3.0</ele><time>2026-03-25T10:28:42.919Z</time></trkpt><trkpt lat="43.7130467" lon="10.4428411"><ele>3.0</ele><time>2026-03-25T10:28:43.919Z</time></trkpt><trkpt lat="43.712925" lon="10.4427888"><ele>3.0</ele><time>2026-03-25T10:28:44.919Z</time></trkpt><trkpt lat="43.7128121" lon="10.4427403"><ele>3.0</ele><time>2026-03-25T10:28:45.919Z</time></trkpt><trkpt lat="43.7127049" lon="10.4427016"><ele>3.0</ele><time>2026-03-25T10:28:46.919Z</time></trkpt><trkpt lat="43.7126003" lon="10.4426621"><ele>2.8</ele><time>2026-03-25T10:28:47.918Z</time></trkpt><trkpt lat="43.7125014" lon="10.4426226"><ele>2.5999999999999996</ele><time>2026-03-25T10:28:48.919Z</time></trkpt><trkpt lat="43.7124093" lon="10.4425803"><ele>2.4000000000000004</ele><time>2026-03-25T10:28:49.919Z</time></trkpt><trkpt lat="43.7123281" lon="10.4425299"><ele>2.2</ele><time>2026-03-25T10:28:50.918Z</time></trkpt><trkpt lat="43.7122602" lon="10.4424598"><ele>2.0</ele><time>2026-03-25T10:28:51.919Z</time></trkpt><trkpt lat="43.7122066" lon="10.4423721"><ele>1.9999999999999998</ele><time>2026-03-25T10:28:52.919Z</time></trkpt><trkpt lat="43.7121676" lon="10.4422653"><ele>2.0</ele><time>2026-03-25T10:28:53.92Z</time></trkpt><trkpt lat="43.7121377" lon="10.4421482"><ele>2.0</ele><time>2026-03-25T10:28:54.918Z</time></trkpt><trkpt lat="43.7121091" lon="10.4420328"><ele>2.0</ele><time>2026-03-25T10:28:55.918Z</time></trkpt><trkpt lat="43.7120697" lon="10.4419381"><ele>1.9999999999999998</ele><time>2026-03-25T10:28:56.919Z</time></trkpt><trkpt lat="43.7120157" lon="10.4418657"><ele>2.0</ele><time>2026-03-25T10:28:57.918Z</time></trkpt><trkpt lat="43.7119492" lon="10.4418161"><ele>1.8</ele><time>2026-03-25T10:28:58.92Z</time></trkpt><trkpt lat="43.7118737" lon="10.441799"><ele>1.6</ele><time>2026-03-25T10:28:59.919Z</time></trkpt><trkpt lat="43.7117917" lon="10.4418155"><ele>1.4000000000000001</ele><time>2026-03-25T10:29:00.919Z</time></trkpt><trkpt lat="43.7117027" lon="10.44185"><ele>1.2000000000000002</ele><time>2026-03-25T10:29:01.918Z</time></trkpt><trkpt lat="43.7116025" lon="10.4418964"><ele>1.0</ele><time>2026-03-25T10:29:02.918Z</time></trkpt><trkpt lat="43.711489" lon="10.4419385"><ele>1.0</ele><time>2026-03-25T10:29:03.918Z</time></trkpt><trkpt lat="43.7113688" lon="10.441955"><ele>1.0</ele><time>2026-03-25T10:29:04.918Z</time></trkpt><trkpt lat="43.7112531" lon="10.441944"><ele>1.0</ele><time>2026-03-25T10:29:05.919Z</time></trkpt><trkpt lat="43.711144" lon="10.4419109"><ele>1.0</ele><time>2026-03-25T10:29:06.919Z</time></trkpt><trkpt lat="43.7110412" lon="10.4418559"><ele>1.75</ele><time>2026-03-25T10:29:07.92Z</time></trkpt><trkpt lat="43.7109502" lon="10.4417801"><ele>2.5</ele><time>2026-03-25T10:29:08.918Z</time></trkpt><trkpt lat="43.710859" lon="10.4416847"><ele>3.25</ele><time>2026-03-25T10:29:09.918Z</time></trkpt><trkpt lat="43.7107661" lon="10.4415669"><ele>4.0</ele><time>2026-03-25T10:29:10.919Z</time></trkpt><trkpt lat="43.710665" lon="10.4414341"><ele>3.5</ele><time>2026-03-25T10:29:11.918Z</time></trkpt><trkpt lat="43.7105641" lon="10.4412935"><ele>3.0</ele><time>2026-03-25T10:29:12.919Z</time></trkpt><trkpt lat="43.7104672" lon="10.4411585"><ele>2.5</ele><time>2026-03-25T10:29:13.918Z</time></trkpt><trkpt lat="43.710376" lon="10.4410311"><ele>2.0</ele><time>2026-03-25T10:29:14.92Z</time></trkpt><trkpt lat="43.7102869" lon="10.4409037"><ele>2.75</ele><time>2026-03-25T10:29:15.92Z</time></trkpt><trkpt lat="43.7101982" lon="10.440776"><ele>3.5</ele><time>2026-03-25T10:29:16.92Z</time></trkpt><trkpt lat="43.7101086" lon="10.4406455"><ele>4.25</ele><time>2026-03-25T10:29:17.919Z</time></trkpt><trkpt lat="43.7100206" lon="10.4405169"><ele>5.0</ele><time>2026-03-25T10:29:18.918Z</time></trkpt><trkpt lat="43.7099331" lon="10.4403884"><ele>5.6</ele><time>2026-03-25T10:29:19.919Z</time></trkpt><trkpt lat="43.7098481" lon="10.4402668"><ele>6.2</ele><time>2026-03-25T10:29:20.918Z</time></trkpt><trkpt lat="43.7097663" lon="10.4401541"><ele>6.800000000000001</ele><time>2026-03-25T10:29:21.918Z</time></trkpt><trkpt lat="43.7096906" lon="10.4400463"><ele>7.4</ele><time>2026-03-25T10:29:22.918Z</time></trkpt><trkpt lat="43.7096236" lon="10.4399505"><ele>8.0</ele><time>2026-03-25T10:29:23.918Z</time></trkpt><trkpt lat="43.7095638" lon="10.4398716"><ele>7.999999999999999</ele><time>2026-03-25T10:29:24.92Z</time></trkpt><trkpt lat="43.7095079" lon="10.4397958"><ele>8.0</ele><time>2026-03-25T10:29:25.918Z</time></trkpt><trkpt lat="43.7094535" lon="10.4397196"><ele>8.0</ele><time>2026-03-25T10:29:26.918Z</time></trkpt><trkpt lat="43.7093988" lon="10.439643"><ele>8.0</ele><time>2026-03-25T10:29:27.919Z</time></trkpt><trkpt lat="43.7093446" lon="10.4395678"><ele>7.999999999999999</ele><time>2026-03-25T10:29:28.919Z</time></trkpt><trkpt lat="43.709294" lon="10.4394993"><ele>8.0</ele><time>2026-03-25T10:29:29.92Z</time></trkpt><trkpt lat="43.7092277" lon="10.4393967"><ele>7.4</ele><time>2026-03-25T10:29:31.919Z</time></trkpt><trkpt lat="43.7091867" lon="10.4393299"><ele>6.800000000000001</ele><time>2026-03-25T10:29:34.918Z</time></trkpt><trkpt lat="43.7091258" lon="10.4392533"><ele>6.2</ele><time>2026-03-25T10:29:43.919Z</time></trkpt><trkpt lat="43.7090816" lon="10.4391629"><ele>5.6</ele><time>2026-03-25T10:29:47.919Z</time></trkpt><trkpt lat="43.7089727" lon="10.438986"><ele>5.0</ele><time>2026-03-25T10:29:49.919Z</time></trkpt><trkpt lat="43.7088802" lon="10.4388591"><ele>4.666666666666667</ele><time>2026-03-25T10:29:50.919Z</time></trkpt><trkpt lat="43.7087889" lon="10.4387318"><ele>4.333333333333333</ele><time>2026-03-25T10:29:51.919Z</time></trkpt><trkpt lat="43.7086816" lon="10.4385714"><ele>4.0</ele><time>2026-03-25T10:29:52.919Z</time></trkpt><trkpt lat="43.7085674" lon="10.4383877"><ele>4.0</ele><time>2026-03-25T10:29:53.918Z</time></trkpt><trkpt lat="43.7084497" lon="10.4382108"><ele>4.0</ele><time>2026-03-25T10:29:54.918Z</time></trkpt><trkpt lat="43.7083365" lon="10.4380481"><ele>4.0</ele><time>2026-03-25T10:29:55.919Z</time></trkpt><trkpt lat="43.7082372" lon="10.4379043"><ele>3.8000000000000003</ele><time>2026-03-25T10:29:56.92Z</time></trkpt><trkpt lat="43.7081459" lon="10.4377791"><ele>3.6000000000000005</ele><time>2026-03-25T10:29:57.919Z</time></trkpt><trkpt lat="43.7080661" lon="10.437679"><ele>3.4</ele><time>2026-03-25T10:29:58.92Z</time></trkpt><trkpt lat="43.7080051" lon="10.4375931"><ele>3.2</ele><time>2026-03-25T10:29:59.919Z</time></trkpt><trkpt lat="43.7079445" lon="10.437502"><ele>3.0</ele><time>2026-03-25T10:30:01.919Z</time></trkpt><trkpt lat="43.7078915" lon="10.437362"><ele>3.0</ele><time>2026-03-25T10:30:03.92Z</time></trkpt><trkpt lat="43.7078338" lon="10.4372803"><ele>3.0</ele><time>2026-03-25T10:30:04.919Z</time></trkpt><trkpt lat="43.7077602" lon="10.4372038"><ele>3.0</ele><time>2026-03-25T10:30:05.918Z</time></trkpt><trkpt lat="43.7076723" lon="10.437117"><ele>3.0</ele><time>2026-03-25T10:30:06.92Z</time></trkpt><trkpt lat="43.7075941" lon="10.437009"><ele>3.0</ele><time>2026-03-25T10:30:07.918Z</time></trkpt><trkpt lat="43.7075222" lon="10.4368785"><ele>2.5</ele><time>2026-03-25T10:30:08.919Z</time></trkpt><trkpt lat="43.7074497" lon="10.4367193"><ele>2.0</ele><time>2026-03-25T10:30:09.919Z</time></trkpt><trkpt lat="43.7073812" lon="10.4365585"><ele>1.5</ele><time>2026-03-25T10:30:10.919Z</time></trkpt><trkpt lat="43.707322" lon="10.4363851"><ele>1.0</ele><time>2026-03-25T10:30:11.919Z</time></trkpt><trkpt lat="43.7072702" lon="10.4362109"><ele>0.8</ele><time>2026-03-25T10:30:12.92Z</time></trkpt><trkpt lat="43.7072286" lon="10.436048"><ele>0.6000000000000001</ele><time>2026-03-25T10:30:13.918Z</time></trkpt><trkpt lat="43.7071917" lon="10.4359001"><ele>0.4</ele><time>2026-03-25T10:30:14.92Z</time></trkpt><trkpt lat="43.7071636" lon="10.4357668"><ele>0.2</ele><time>2026-03-25T10:30:15.919Z</time></trkpt><trkpt lat="43.7071357" lon="10.4356416"><ele>0.0</ele><time>2026-03-25T10:30:16.918Z</time></trkpt><trkpt lat="43.7071115" lon="10.4355128"><ele>0.2</ele><time>2026-03-25T10:30:17.92Z</time></trkpt><trkpt lat="43.7070865" lon="10.4353831"><ele>0.4</ele><time>2026-03-25T10:30:18.918Z</time></trkpt><trkpt lat="43.7070762" lon="10.4352453"><ele>0.6000000000000001</ele><time>2026-03-25T10:30:19.918Z</time></trkpt><trkpt lat="43.7070723" lon="10.4351035"><ele>0.8</ele><time>2026-03-25T10:30:20.919Z</time></trkpt><trkpt lat="43.7070739" lon="10.4349549"><ele>1.0</ele><time>2026-03-25T10:30:21.919Z</time></trkpt><trkpt lat="43.707088" lon="10.4348004"><ele>1.5</ele><time>2026-03-25T10:30:22.919Z</time></trkpt><trkpt lat="43.7071095" lon="10.4346346"><ele>2.0</ele><time>2026-03-25T10:30:23.918Z</time></trkpt><trkpt lat="43.7071413" lon="10.434463"><ele>2.5</ele><time>2026-03-25T10:30:24.92Z</time></trkpt><trkpt lat="43.7071926" lon="10.4342778"><ele>3.0</ele><time>2026-03-25T10:30:25.919Z</time></trkpt><trkpt lat="43.7072492" lon="10.4340942"><ele>3.0</ele><time>2026-03-25T10:30:26.919Z</time></trkpt><trkpt lat="43.7073169" lon="10.4339098"><ele>3.0</ele><time>2026-03-25T10:30:27.919Z</time></trkpt><trkpt lat="43.7073858" lon="10.4337204"><ele>3.0</ele><time>2026-03-25T10:30:28.919Z</time></trkpt><trkpt lat="43.7074561" lon="10.4335277"><ele>3.0</ele><time>2026-03-25T10:30:29.919Z</time></trkpt><trkpt lat="43.7075278" lon="10.433325"><ele>3.0</ele><time>2026-03-25T10:30:30.92Z</time></trkpt><trkpt lat="43.7075978" lon="10.4331208"><ele>3.0</ele><time>2026-03-25T10:30:31.919Z</time></trkpt><trkpt lat="43.7076742" lon="10.4329111"><ele>2.3333333333333335</ele><time>2026-03-25T10:30:32.918Z</time></trkpt><trkpt lat="43.7077474" lon="10.4327079"><ele>1.6666666666666665</ele><time>2026-03-25T10:30:33.918Z</time></trkpt><trkpt lat="43.7078177" lon="10.4325201"><ele>1.0</ele><time>2026-03-25T10:30:34.92Z</time></trkpt><trkpt lat="43.7078818" lon="10.4323408"><ele>1.0</ele><time>2026-03-25T10:30:35.918Z</time></trkpt><trkpt lat="43.7079422" lon="10.4321623"><ele>1.0</ele><time>2026-03-25T10:30:36.919Z</time></trkpt><trkpt lat="43.7080036" lon="10.4319937"><ele>1.0</ele><time>2026-03-25T10:30:37.919Z</time></trkpt><trkpt lat="43.7080635" lon="10.4318331"><ele>1.0</ele><time>2026-03-25T10:30:38.919Z</time></trkpt><trkpt lat="43.7081169" lon="10.4316748"><ele>1.0</ele><time>2026-03-25T10:30:39.918Z</time></trkpt><trkpt lat="43.7081675" lon="10.4315254"><ele>1.0</ele><time>2026-03-25T10:30:40.918Z</time></trkpt><trkpt lat="43.7082133" lon="10.4313917"><ele>1.0</ele><time>2026-03-25T10:30:41.919Z</time></trkpt><trkpt lat="43.7082561" lon="10.431271"><ele>1.0</ele><time>2026-03-25T10:30:42.919Z</time></trkpt><trkpt lat="43.708296" lon="10.4311545"><ele>1.0</ele><time>2026-03-25T10:30:43.919Z</time></trkpt><trkpt lat="43.7083345" lon="10.4310502"><ele>0.9999999999999999</ele><time>2026-03-25T10:30:44.918Z</time></trkpt><trkpt lat="43.7083724" lon="10.4309508"><ele>1.0</ele><time>2026-03-25T10:30:45.918Z</time></trkpt><trkpt lat="43.7084021" lon="10.4308657"><ele>1.0</ele><time>2026-03-25T10:30:46.919Z</time></trkpt><trkpt lat="43.7084306" lon="10.4307839"><ele>1.0</ele><time>2026-03-25T10:30:47.919Z</time></trkpt><trkpt lat="43.7084554" lon="10.4307019"><ele>0.9999999999999999</ele><time>2026-03-25T10:30:48.919Z</time></trkpt><trkpt lat="43.7085115" lon="10.4305572"><ele>1.0</ele><time>2026-03-25T10:30:50.918Z</time></trkpt><trkpt lat="43.7085613" lon="10.4304154"><ele>0.9999999999999999</ele><time>2026-03-25T10:30:52.918Z</time></trkpt><trkpt lat="43.708592" lon="10.4303268"><ele>1.0</ele><time>2026-03-25T10:30:53.919Z</time></trkpt><trkpt lat="43.7086243" lon="10.4302361"><ele>1.0</ele><time>2026-03-25T10:30:54.918Z</time></trkpt><trkpt lat="43.7086536" lon="10.4301536"><ele>1.0</ele><time>2026-03-25T10:30:55.918Z</time></trkpt><trkpt lat="43.7087039" lon="10.4300068"><ele>0.9999999999999999</ele><time>2026-03-25T10:30:57.919Z</time></trkpt><trkpt lat="43.7087328" lon="10.4299262"><ele>1.0</ele><time>2026-03-25T10:30:58.919Z</time></trkpt><trkpt lat="43.7087633" lon="10.4298346"><ele>1.0</ele><time>2026-03-25T10:30:59.918Z</time></trkpt><trkpt lat="43.7087985" lon="10.4297382"><ele>1.0</ele><time>2026-03-25T10:31:00.919Z</time></trkpt><trkpt lat="43.7088485" lon="10.4296064"><ele>1.0</ele><time>2026-03-25T10:31:01.919Z</time></trkpt><trkpt lat="43.7089092" lon="10.4294452"><ele>1.0</ele><time>2026-03-25T10:31:02.919Z</time></trkpt><trkpt lat="43.7089727" lon="10.4292678"><ele>1.25</ele><time>2026-03-25T10:31:03.919Z</time></trkpt><trkpt lat="43.7090335" lon="10.4290918"><ele>1.5</ele><time>2026-03-25T10:31:04.919Z</time></trkpt><trkpt lat="43.7090916" lon="10.4289208"><ele>1.75</ele><time>2026-03-25T10:31:05.919Z</time></trkpt><trkpt lat="43.7091467" lon="10.4287693"><ele>2.0</ele><time>2026-03-25T10:31:06.918Z</time></trkpt><trkpt lat="43.7091899" lon="10.4286332"><ele>2.333333333333333</ele><time>2026-03-25T10:31:07.919Z</time></trkpt><trkpt lat="43.7092289" lon="10.4285209"><ele>2.6666666666666665</ele><time>2026-03-25T10:31:08.919Z</time></trkpt><trkpt lat="43.7092675" lon="10.4284265"><ele>3.0</ele><time>2026-03-25T10:31:09.919Z</time></trkpt><trkpt lat="43.7093052" lon="10.4283471"><ele>3.333333333333333</ele><time>2026-03-25T10:31:10.918Z</time></trkpt><trkpt lat="43.7093419" lon="10.428274"><ele>3.6666666666666665</ele><time>2026-03-25T10:31:11.919Z</time></trkpt><trkpt lat="43.7094247" lon="10.4281498"><ele>4.0</ele><time>2026-03-25T10:31:13.918Z</time></trkpt><trkpt lat="43.709505" lon="10.4280523"><ele>4.4</ele><time>2026-03-25T10:31:15.92Z</time></trkpt><trkpt lat="43.709554" lon="10.4279385"><ele>4.800000000000001</ele><time>2026-03-25T10:31:17.919Z</time></trkpt><trkpt lat="43.7095428" lon="10.4277694"><ele>5.199999999999999</ele><time>2026-03-25T10:31:19.918Z</time></trkpt><trkpt lat="43.709548" lon="10.4276445"><ele>5.6</ele><time>2026-03-25T10:31:20.918Z</time></trkpt><trkpt lat="43.7095695" lon="10.4275097"><ele>6.0</ele><time>2026-03-25T10:31:21.919Z</time></trkpt><trkpt lat="43.7096141" lon="10.4273596"><ele>6.0</ele><time>2026-03-25T10:31:22.919Z</time></trkpt><trkpt lat="43.7096716" lon="10.4271852"><ele>6.0</ele><time>2026-03-25T10:31:23.919Z</time></trkpt><trkpt lat="43.7097317" lon="10.4270169"><ele>6.0</ele><time>2026-03-25T10:31:24.92Z</time></trkpt><trkpt lat="43.7097871" lon="10.4268556"><ele>6.0</ele><time>2026-03-25T10:31:25.92Z</time></trkpt><trkpt lat="43.7098377" lon="10.4267193"><ele>5.5</ele><time>2026-03-25T10:31:26.919Z</time></trkpt><trkpt lat="43.7098817" lon="10.4266047"><ele>5.0</ele><time>2026-03-25T10:31:27.919Z</time></trkpt><trkpt lat="43.7099132" lon="10.4265214"><ele>4.5</ele><time>2026-03-25T10:31:28.918Z</time></trkpt><trkpt lat="43.7099575" lon="10.4264135"><ele>4.0</ele><time>2026-03-25T10:31:30.918Z</time></trkpt><trkpt lat="43.7100041" lon="10.4262942"><ele>3.5</ele><time>2026-03-25T10:31:33.919Z</time></trkpt><trkpt lat="43.7100448" lon="10.426198"><ele>3.0</ele><time>2026-03-25T10:31:35.918Z</time></trkpt><trkpt lat="43.710082" lon="10.4261105"><ele>3.0</ele><time>2026-03-25T10:31:36.918Z</time></trkpt><trkpt lat="43.7101369" lon="10.425988"><ele>3.0</ele><time>2026-03-25T10:31:37.92Z</time></trkpt><trkpt lat="43.7102116" lon="10.4258402"><ele>3.0</ele><time>2026-03-25T10:31:38.919Z</time></trkpt><trkpt lat="43.7102908" lon="10.4256582"><ele>3.0</ele><time>2026-03-25T10:31:39.92Z</time></trkpt><trkpt lat="43.7103677" lon="10.4254646"><ele>3.0</ele><time>2026-03-25T10:31:40.919Z</time></trkpt><trkpt lat="43.7104506" lon="10.4252497"><ele>3.0</ele><time>2026-03-25T10:31:41.919Z</time></trkpt><trkpt lat="43.7105396" lon="10.4250066"><ele>3.0</ele><time>2026-03-25T10:31:42.918Z</time></trkpt><trkpt lat="43.7106276" lon="10.4247761"><ele>3.0</ele><time>2026-03-25T10:31:43.919Z</time></trkpt><trkpt lat="43.7107049" lon="10.4245622"><ele>3.0</ele><time>2026-03-25T10:31:44.919Z</time></trkpt><trkpt lat="43.7107752" lon="10.4243589"><ele>3.0</ele><time>2026-03-25T10:31:45.919Z</time></trkpt><trkpt lat="43.7108409" lon="10.4241625"><ele>3.0</ele><time>2026-03-25T10:31:46.918Z</time></trkpt><trkpt lat="43.7108882" lon="10.4239628"><ele>3.0</ele><time>2026-03-25T10:31:47.919Z</time></trkpt><trkpt lat="43.7109248" lon="10.423775"><ele>3.0</ele><time>2026-03-25T10:31:48.92Z</time></trkpt><trkpt lat="43.7109564" lon="10.4235961"><ele>3.0</ele><time>2026-03-25T10:31:49.918Z</time></trkpt><trkpt lat="43.7109769" lon="10.4234481"><ele>3.2</ele><time>2026-03-25T10:31:50.918Z</time></trkpt><trkpt lat="43.7109921" lon="10.4233115"><ele>3.4</ele><time>2026-03-25T10:31:51.919Z</time></trkpt><trkpt lat="43.7110048" lon="10.4231725"><ele>3.6000000000000005</ele><time>2026-03-25T10:31:52.919Z</time></trkpt><trkpt lat="43.7110126" lon="10.4230171"><ele>3.8000000000000003</ele><time>2026-03-25T10:31:53.919Z</time></trkpt><trkpt lat="43.7110179" lon="10.4228654"><ele>4.0</ele><time>2026-03-25T10:31:54.919Z</time></trkpt><trkpt lat="43.7110237" lon="10.4227251"><ele>4.25</ele><time>2026-03-25T10:31:55.919Z</time></trkpt><trkpt lat="43.7110303" lon="10.4225877"><ele>4.5</ele><time>2026-03-25T10:31:56.919Z</time></trkpt><trkpt lat="43.7110383" lon="10.4224375"><ele>4.75</ele><time>2026-03-25T10:31:57.918Z</time></trkpt><trkpt lat="43.7110467" lon="10.4222503"><ele>5.0</ele><time>2026-03-25T10:31:58.919Z</time></trkpt><trkpt lat="43.7110463" lon="10.4220558"><ele>5.0</ele><time>2026-03-25T10:31:59.918Z</time></trkpt><trkpt lat="43.711042" lon="10.4218498"><ele>5.0</ele><time>2026-03-25T10:32:00.92Z</time></trkpt><trkpt lat="43.7110375" lon="10.4216566"><ele>5.0</ele><time>2026-03-25T10:32:01.919Z</time></trkpt><trkpt lat="43.7110334" lon="10.4214765"><ele>5.0</ele><time>2026-03-25T10:32:02.919Z</time></trkpt><trkpt lat="43.711027" lon="10.4213127"><ele>5.0</ele><time>2026-03-25T10:32:03.919Z</time></trkpt><trkpt lat="43.7110207" lon="10.4211696"><ele>5.0</ele><time>2026-03-25T10:32:04.92Z</time></trkpt><trkpt lat="43.7110173" lon="10.4210514"><ele>5.0</ele><time>2026-03-25T10:32:05.918Z</time></trkpt><trkpt lat="43.7110135" lon="10.4209139"><ele>5.0</ele><time>2026-03-25T10:32:07.919Z</time></trkpt><trkpt lat="43.7110223" lon="10.4208076"><ele>5.0</ele><time>2026-03-25T10:32:10.918Z</time></trkpt><trkpt lat="43.7110599" lon="10.4207171"><ele>5.0</ele><time>2026-03-25T10:32:12.919Z</time></trkpt><trkpt lat="43.7110905" lon="10.4206035"><ele>5.0</ele><time>2026-03-25T10:32:14.918Z</time></trkpt><trkpt lat="43.7110688" lon="10.420492"><ele>5.0</ele><time>2026-03-25T10:32:16.918Z</time></trkpt><trkpt lat="43.7110327" lon="10.4203684"><ele>5.0</ele><time>2026-03-25T10:32:17.918Z</time></trkpt><trkpt lat="43.7109914" lon="10.4202339"><ele>5.0</ele><time>2026-03-25T10:32:18.919Z</time></trkpt><trkpt lat="43.7109727" lon="10.4201092"><ele>5.0</ele><time>2026-03-25T10:32:19.919Z</time></trkpt><trkpt lat="43.7109578" lon="10.4199307"><ele>4.5</ele><time>2026-03-25T10:32:20.919Z</time></trkpt><trkpt lat="43.7109346" lon="10.4197444"><ele>4.0</ele><time>2026-03-25T10:32:21.918Z</time></trkpt><trkpt lat="43.710909" lon="10.4195648"><ele>3.5</ele><time>2026-03-25T10:32:22.919Z</time></trkpt><trkpt lat="43.7108845" lon="10.4193793"><ele>3.0</ele><time>2026-03-25T10:32:23.92Z</time></trkpt><trkpt lat="43.710856" lon="10.4191875"><ele>2.8</ele><time>2026-03-25T10:32:24.918Z</time></trkpt><trkpt lat="43.7108308" lon="10.4190111"><ele>2.5999999999999996</ele><time>2026-03-25T10:32:25.919Z</time></trkpt><trkpt lat="43.71082" lon="10.418863"><ele>2.4000000000000004</ele><time>2026-03-25T10:32:26.919Z</time></trkpt><trkpt lat="43.710811" lon="10.4187399"><ele>2.2</ele><time>2026-03-25T10:32:27.918Z</time></trkpt><trkpt lat="43.7108006" lon="10.4186157"><ele>2.0</ele><time>2026-03-25T10:32:28.918Z</time></trkpt><trkpt lat="43.7107858" lon="10.4184751"><ele>2.25</ele><time>2026-03-25T10:32:29.918Z</time></trkpt><trkpt lat="43.7107698" lon="10.418317"><ele>2.5</ele><time>2026-03-25T10:32:30.919Z</time></trkpt><trkpt lat="43.7107535" lon="10.4181377"><ele>2.75</ele><time>2026-03-25T10:32:31.919Z</time></trkpt><trkpt lat="43.710731" lon="10.4179634"><ele>3.0</ele><time>2026-03-25T10:32:32.92Z</time></trkpt><trkpt lat="43.7107175" lon="10.4177963"><ele>3.0</ele><time>2026-03-25T10:32:33.919Z</time></trkpt><trkpt lat="43.710698" lon="10.4176357"><ele>3.0</ele><time>2026-03-25T10:32:34.919Z</time></trkpt><trkpt lat="43.7106782" lon="10.4174851"><ele>3.0</ele><time>2026-03-25T10:32:35.919Z</time></trkpt><trkpt lat="43.710657" lon="10.4173296"><ele>3.0</ele><time>2026-03-25T10:32:36.918Z</time></trkpt><trkpt lat="43.7106287" lon="10.4171466"><ele>3.25</ele><time>2026-03-25T10:32:37.92Z</time></trkpt><trkpt lat="43.7105983" lon="10.4169671"><ele>3.5</ele><time>2026-03-25T10:32:38.92Z</time></trkpt><trkpt lat="43.7105777" lon="10.4167598"><ele>3.75</ele><time>2026-03-25T10:32:39.919Z</time></trkpt><trkpt lat="43.7105538" lon="10.4165707"><ele>4.0</ele><time>2026-03-25T10:32:40.919Z</time></trkpt><trkpt lat="43.710527" lon="10.4163964"><ele>3.5</ele><time>2026-03-25T10:32:41.919Z</time></trkpt><trkpt lat="43.7105035" lon="10.4162261"><ele>3.0</ele><time>2026-03-25T10:32:42.919Z</time></trkpt><trkpt lat="43.710476" lon="10.4160676"><ele>2.5</ele><time>2026-03-25T10:32:43.919Z</time></trkpt><trkpt lat="43.7104521" lon="10.4159141"><ele>2.0</ele><time>2026-03-25T10:32:44.919Z</time></trkpt><trkpt lat="43.7104322" lon="10.415768"><ele>1.9999999999999998</ele><time>2026-03-25T10:32:45.919Z</time></trkpt><trkpt lat="43.7104099" lon="10.4156275"><ele>2.0</ele><time>2026-03-25T10:32:46.919Z</time></trkpt><trkpt lat="43.7103916" lon="10.4154914"><ele>2.0</ele><time>2026-03-25T10:32:47.919Z</time></trkpt><trkpt lat="43.7103762" lon="10.4153676"><ele>2.0</ele><time>2026-03-25T10:32:48.919Z</time></trkpt><trkpt lat="43.7103629" lon="10.4152664"><ele>1.9999999999999998</ele><time>2026-03-25T10:32:49.919Z</time></trkpt><trkpt lat="43.7103549" lon="10.4151729"><ele>2.0</ele><time>2026-03-25T10:32:50.919Z</time></trkpt><trkpt lat="43.7103441" lon="10.4150861"><ele>2.6666666666666665</ele><time>2026-03-25T10:32:51.919Z</time></trkpt><trkpt lat="43.7103342" lon="10.4149437"><ele>3.333333333333333</ele><time>2026-03-25T10:32:53.918Z</time></trkpt><trkpt lat="43.7103163" lon="10.4148223"><ele>4.0</ele><time>2026-03-25T10:32:55.919Z</time></trkpt><trkpt lat="43.7102805" lon="10.4147226"><ele>4.666666666666667</ele><time>2026-03-25T10:32:57.918Z</time></trkpt><trkpt lat="43.7102679" lon="10.4146367"><ele>5.333333333333333</ele><time>2026-03-25T10:32:58.919Z</time></trkpt><trkpt lat="43.7102664" lon="10.414506"><ele>6.0</ele><time>2026-03-25T10:32:59.919Z</time></trkpt><trkpt lat="43.7102418" lon="10.4143559"><ele>6.0</ele><time>2026-03-25T10:33:00.919Z</time></trkpt><trkpt lat="43.7102192" lon="10.414213"><ele>6.0</ele><time>2026-03-25T10:33:01.919Z</time></trkpt><trkpt lat="43.7101984" lon="10.4140845"><ele>6.0</ele><time>2026-03-25T10:33:02.918Z</time></trkpt><trkpt lat="43.7101834" lon="10.4139563"><ele>6.0</ele><time>2026-03-25T10:33:03.918Z</time></trkpt><trkpt lat="43.710165" lon="10.4138214"><ele>6.0</ele><time>2026-03-25T10:33:04.919Z</time></trkpt><trkpt lat="43.7101453" lon="10.4136737"><ele>5.75</ele><time>2026-03-25T10:33:05.919Z</time></trkpt><trkpt lat="43.7101256" lon="10.4135198"><ele>5.5</ele><time>2026-03-25T10:33:06.919Z</time></trkpt><trkpt lat="43.7101056" lon="10.4133655"><ele>5.25</ele><time>2026-03-25T10:33:07.918Z</time></trkpt><trkpt lat="43.7100862" lon="10.4132027"><ele>5.0</ele><time>2026-03-25T10:33:08.918Z</time></trkpt><trkpt lat="43.7100551" lon="10.4130245"><ele>5.333333333333334</ele><time>2026-03-25T10:33:09.918Z</time></trkpt><trkpt lat="43.7100242" lon="10.4128173"><ele>5.666666666666667</ele><time>2026-03-25T10:33:10.92Z</time></trkpt><trkpt lat="43.709992" lon="10.4125947"><ele>6.0</ele><time>2026-03-25T10:33:11.92Z</time></trkpt><trkpt lat="43.7099686" lon="10.4123838"><ele>6.0</ele><time>2026-03-25T10:33:12.919Z</time></trkpt><trkpt lat="43.7099611" lon="10.4121775"><ele>6.0</ele><time>2026-03-25T10:33:13.92Z</time></trkpt><trkpt lat="43.7099412" lon="10.4119619"><ele>6.0</ele><time>2026-03-25T10:33:14.919Z</time></trkpt><trkpt lat="43.7099247" lon="10.4117394"><ele>6.0</ele><time>2026-03-25T10:33:15.919Z</time></trkpt><trkpt lat="43.7099207" lon="10.4115368"><ele>6.0</ele><time>2026-03-25T10:33:16.919Z</time></trkpt><trkpt lat="43.7099108" lon="10.4113453"><ele>6.0</ele><time>2026-03-25T10:33:17.918Z</time></trkpt><trkpt lat="43.7099147" lon="10.4111603"><ele>6.0</ele><time>2026-03-25T10:33:18.918Z</time></trkpt><trkpt lat="43.709919" lon="10.4109923"><ele>6.0</ele><time>2026-03-25T10:33:19.919Z</time></trkpt><trkpt lat="43.7099242" lon="10.4108414"><ele>6.0</ele><time>2026-03-25T10:33:20.919Z</time></trkpt><trkpt lat="43.7099373" lon="10.4107017"><ele>6.0</ele><time>2026-03-25T10:33:21.919Z</time></trkpt><trkpt lat="43.7099582" lon="10.4105742"><ele>6.0</ele><time>2026-03-25T10:33:22.918Z</time></trkpt><trkpt lat="43.7099847" lon="10.4104719"><ele>6.0</ele><time>2026-03-25T10:33:23.919Z</time></trkpt><trkpt lat="43.7100131" lon="10.4103822"><ele>6.5</ele><time>2026-03-25T10:33:24.919Z</time></trkpt><trkpt lat="43.7100372" lon="10.4102966"><ele>7.0</ele><time>2026-03-25T10:33:25.919Z</time></trkpt><trkpt lat="43.710026" lon="10.4101247"><ele>7.5</ele><time>2026-03-25T10:33:27.919Z</time></trkpt><trkpt lat="43.7100013" lon="10.4100313"><ele>8.0</ele><time>2026-03-25T10:33:28.918Z</time></trkpt><trkpt lat="43.7099799" lon="10.4099368"><ele>8.5</ele><time>2026-03-25T10:33:29.918Z</time></trkpt><trkpt lat="43.7099799" lon="10.4098352"><ele>9.0</ele><time>2026-03-25T10:33:30.919Z</time></trkpt><trkpt lat="43.7099958" lon="10.4096878"><ele>8.166666666666666</ele><time>2026-03-25T10:33:32.919Z</time></trkpt><trkpt lat="43.7100223" lon="10.4095217"><ele>7.333333333333333</ele><time>2026-03-25T10:33:34.918Z</time></trkpt><trkpt lat="43.7100301" lon="10.409422"><ele>6.5</ele><time>2026-03-25T10:33:35.919Z</time></trkpt><trkpt lat="43.7100356" lon="10.4093242"><ele>5.666666666666666</ele><time>2026-03-25T10:33:36.918Z</time></trkpt><trkpt lat="43.7100434" lon="10.4092262"><ele>4.833333333333333</ele><time>2026-03-25T10:33:37.919Z</time></trkpt><trkpt lat="43.7100448" lon="10.4091181"><ele>4.0</ele><time>2026-03-25T10:33:38.919Z</time></trkpt><trkpt lat="43.7100494" lon="10.409006"><ele>3.9999999999999996</ele><time>2026-03-25T10:33:39.919Z</time></trkpt><trkpt lat="43.7100569" lon="10.4088947"><ele>4.0</ele><time>2026-03-25T10:33:40.919Z</time></trkpt><trkpt lat="43.7100595" lon="10.4087863"><ele>4.0</ele><time>2026-03-25T10:33:41.919Z</time></trkpt><trkpt lat="43.7100642" lon="10.4086703"><ele>4.0</ele><time>2026-03-25T10:33:42.919Z</time></trkpt><trkpt lat="43.7100681" lon="10.4085554"><ele>3.9999999999999996</ele><time>2026-03-25T10:33:43.919Z</time></trkpt><trkpt lat="43.7100745" lon="10.4084396"><ele>4.0</ele><time>2026-03-25T10:33:44.919Z</time></trkpt><trkpt lat="43.71008" lon="10.4083026"><ele>3.4000000000000004</ele><time>2026-03-25T10:33:45.919Z</time></trkpt><trkpt lat="43.7100857" lon="10.4081567"><ele>2.8000000000000003</ele><time>2026-03-25T10:33:46.92Z</time></trkpt><trkpt lat="43.7100901" lon="10.4080428"><ele>2.2</ele><time>2026-03-25T10:33:47.918Z</time></trkpt><trkpt lat="43.7100906" lon="10.4079467"><ele>1.6</ele><time>2026-03-25T10:33:48.919Z</time></trkpt><trkpt lat="43.7101215" lon="10.4078097"><ele>1.0</ele><time>2026-03-25T10:33:50.919Z</time></trkpt><trkpt lat="43.7101984" lon="10.407717"><ele>2.6</ele><time>2026-03-25T10:33:52.919Z</time></trkpt><trkpt lat="43.7102597" lon="10.4076875"><ele>4.2</ele><time>2026-03-25T10:33:53.92Z</time></trkpt><trkpt lat="43.7103324" lon="10.4076811"><ele>5.800000000000001</ele><time>2026-03-25T10:33:54.919Z</time></trkpt><trkpt lat="43.7104267" lon="10.4076828"><ele>7.4</ele><time>2026-03-25T10:33:55.918Z</time></trkpt><trkpt lat="43.7105386" lon="10.4076826"><ele>9.0</ele><time>2026-03-25T10:33:56.918Z</time></trkpt><trkpt lat="43.7106622" lon="10.4076896"><ele>9.0</ele><time>2026-03-25T10:33:57.919Z</time></trkpt><trkpt lat="43.7107817" lon="10.4077034"><ele>9.0</ele><time>2026-03-25T10:33:58.919Z</time></trkpt><trkpt lat="43.7108988" lon="10.4077153"><ele>9.0</ele><time>2026-03-25T10:33:59.92Z</time></trkpt><trkpt lat="43.7110131" lon="10.4077313"><ele>9.0</ele><time>2026-03-25T10:34:00.92Z</time></trkpt><trkpt lat="43.7111263" lon="10.407762"><ele>8.6</ele><time>2026-03-25T10:34:01.919Z</time></trkpt><trkpt lat="43.711229" lon="10.4078199"><ele>8.2</ele><time>2026-03-25T10:34:02.918Z</time></trkpt><trkpt lat="43.7113244" lon="10.4078872"><ele>7.799999999999999</ele><time>2026-03-25T10:34:03.919Z</time></trkpt><trkpt lat="43.7114225" lon="10.4079136"><ele>7.3999999999999995</ele><time>2026-03-25T10:34:04.919Z</time></trkpt><trkpt lat="43.7115243" lon="10.4079274"><ele>7.0</ele><time>2026-03-25T10:34:05.918Z</time></trkpt><trkpt lat="43.711651" lon="10.4079372"><ele>7.0</ele><time>2026-03-25T10:34:06.918Z</time></trkpt><trkpt lat="43.7117946" lon="10.4079442"><ele>7.0</ele><time>2026-03-25T10:34:07.918Z</time></trkpt><trkpt lat="43.7119344" lon="10.4079463"><ele>7.0</ele><time>2026-03-25T10:34:08.918Z</time></trkpt><trkpt lat="43.712069" lon="10.4079481"><ele>7.0</ele><time>2026-03-25T10:34:09.918Z</time></trkpt><trkpt lat="43.7121996" lon="10.4079435"><ele>7.25</ele><time>2026-03-25T10:34:10.918Z</time></trkpt><trkpt lat="43.7123203" lon="10.4079384"><ele>7.5</ele><time>2026-03-25T10:34:11.918Z</time></trkpt><trkpt lat="43.7124391" lon="10.4079244"><ele>7.75</ele><time>2026-03-25T10:34:12.918Z</time></trkpt><trkpt lat="43.7125548" lon="10.4079059"><ele>8.0</ele><time>2026-03-25T10:34:13.918Z</time></trkpt><trkpt lat="43.7126646" lon="10.4078895"><ele>7.833333333333333</ele><time>2026-03-25T10:34:14.918Z</time></trkpt><trkpt lat="43.7127662" lon="10.4078755"><ele>7.666666666666666</ele><time>2026-03-25T10:34:15.918Z</time></trkpt><trkpt lat="43.7128427" lon="10.4078586"><ele>7.5</ele><time>2026-03-25T10:34:16.919Z</time></trkpt><trkpt lat="43.7129049" lon="10.407843"><ele>7.333333333333334</ele><time>2026-03-25T10:34:17.918Z</time></trkpt><trkpt lat="43.7129881" lon="10.4078"><ele>7.166666666666667</ele><time>2026-03-25T10:34:19.917Z</time></trkpt><trkpt lat="43.7130364" lon="10.4077417"><ele>7.0</ele><time>2026-03-25T10:34:21.918Z</time></trkpt><trkpt lat="43.7130953" lon="10.4076012"><ele>7.000000000000001</ele><time>2026-03-25T10:34:24.918Z</time></trkpt><trkpt lat="43.7131248" lon="10.407512"><ele>7.0</ele><time>2026-03-25T10:34:25.917Z</time></trkpt><trkpt lat="43.7131568" lon="10.4074193"><ele>7.0</ele><time>2026-03-25T10:34:26.917Z</time></trkpt><trkpt lat="43.7131973" lon="10.4073173"><ele>7.0</ele><time>2026-03-25T10:34:27.918Z</time></trkpt><trkpt lat="43.7132423" lon="10.4072162"><ele>7.000000000000001</ele><time>2026-03-25T10:34:28.917Z</time></trkpt><trkpt lat="43.7132809" lon="10.407117"><ele>7.0</ele><time>2026-03-25T10:34:29.918Z</time></trkpt><trkpt lat="43.7133222" lon="10.407015"><ele>7.0</ele><time>2026-03-25T10:34:30.918Z</time></trkpt><trkpt lat="43.7133612" lon="10.4068936"><ele>6.999999999999999</ele><time>2026-03-25T10:34:31.918Z</time></trkpt><trkpt lat="43.7133991" lon="10.4067585"><ele>6.999999999999999</ele><time>2026-03-25T10:34:32.918Z</time></trkpt><trkpt lat="43.7134464" lon="10.4066149"><ele>7.0</ele><time>2026-03-25T10:34:33.918Z</time></trkpt><trkpt lat="43.7134991" lon="10.4064588"><ele>7.0</ele><time>2026-03-25T10:34:34.918Z</time></trkpt><trkpt lat="43.7135668" lon="10.4062855"><ele>6.5</ele><time>2026-03-25T10:34:35.917Z</time></trkpt><trkpt lat="43.7136326" lon="10.4061122"><ele>6.0</ele><time>2026-03-25T10:34:36.918Z</time></trkpt><trkpt lat="43.7136964" lon="10.4059421"><ele>5.5</ele><time>2026-03-25T10:34:37.917Z</time></trkpt><trkpt lat="43.7137616" lon="10.4057765"><ele>5.0</ele><time>2026-03-25T10:34:38.918Z</time></trkpt><trkpt lat="43.7138316" lon="10.4056148"><ele>5.0</ele><time>2026-03-25T10:34:39.918Z</time></trkpt><trkpt lat="43.7138969" lon="10.405462"><ele>5.0</ele><time>2026-03-25T10:34:40.918Z</time></trkpt><trkpt lat="43.7139599" lon="10.4053188"><ele>5.0</ele><time>2026-03-25T10:34:41.917Z</time></trkpt><trkpt lat="43.714023" lon="10.4051787"><ele>5.0</ele><time>2026-03-25T10:34:42.919Z</time></trkpt><trkpt lat="43.7140814" lon="10.4050494"><ele>5.0</ele><time>2026-03-25T10:34:43.918Z</time></trkpt><trkpt lat="43.7141361" lon="10.4049293"><ele>5.0</ele><time>2026-03-25T10:34:44.917Z</time></trkpt><trkpt lat="43.7141841" lon="10.4048252"><ele>5.0</ele><time>2026-03-25T10:34:45.919Z</time></trkpt><trkpt lat="43.7142255" lon="10.4047389"><ele>5.0</ele><time>2026-03-25T10:34:46.919Z</time></trkpt><trkpt lat="43.7142945" lon="10.4046028"><ele>5.0</ele><time>2026-03-25T10:34:48.918Z</time></trkpt><trkpt lat="43.7143591" lon="10.4044657"><ele>5.6</ele><time>2026-03-25T10:34:50.918Z</time></trkpt><trkpt lat="43.7144142" lon="10.4043575"><ele>6.2</ele><time>2026-03-25T10:34:52.918Z</time></trkpt><trkpt lat="43.7144656" lon="10.4042555"><ele>6.800000000000001</ele><time>2026-03-25T10:34:54.918Z</time></trkpt><trkpt lat="43.7145097" lon="10.4041566"><ele>7.4</ele><time>2026-03-25T10:34:56.919Z</time></trkpt><trkpt lat="43.7145675" lon="10.4040706"><ele>8.0</ele><time>2026-03-25T10:34:58.918Z</time></trkpt><trkpt lat="43.7146312" lon="10.4039409"><ele>7.999999999999999</ele><time>2026-03-25T10:35:00.918Z</time></trkpt><trkpt lat="43.7146654" lon="10.40385"><ele>8.0</ele><time>2026-03-25T10:35:01.919Z</time></trkpt><trkpt lat="43.7147045" lon="10.4037499"><ele>8.0</ele><time>2026-03-25T10:35:02.918Z</time></trkpt><trkpt lat="43.7147528" lon="10.403647"><ele>8.0</ele><time>2026-03-25T10:35:03.918Z</time></trkpt><trkpt lat="43.7148004" lon="10.4035502"><ele>7.999999999999999</ele><time>2026-03-25T10:35:04.918Z</time></trkpt><trkpt lat="43.7148421" lon="10.4034583"><ele>8.0</ele><time>2026-03-25T10:35:05.918Z</time></trkpt><trkpt lat="43.7148934" lon="10.4033428"><ele>8.200000000000001</ele><time>2026-03-25T10:35:07.917Z</time></trkpt><trkpt lat="43.714938" lon="10.4032463"><ele>8.4</ele><time>2026-03-25T10:35:09.918Z</time></trkpt><trkpt lat="43.7150094" lon="10.4030946"><ele>8.600000000000001</ele><time>2026-03-25T10:35:11.918Z</time></trkpt><trkpt lat="43.7150464" lon="10.4029862"><ele>8.8</ele><time>2026-03-25T10:35:12.918Z</time></trkpt><trkpt lat="43.7151084" lon="10.4028579"><ele>9.0</ele><time>2026-03-25T10:35:13.919Z</time></trkpt><trkpt lat="43.7151672" lon="10.4027274"><ele>9.2</ele><time>2026-03-25T10:35:14.918Z</time></trkpt><trkpt lat="43.7152229" lon="10.4025962"><ele>9.4</ele><time>2026-03-25T10:35:15.918Z</time></trkpt><trkpt lat="43.7152712" lon="10.4024689"><ele>9.6</ele><time>2026-03-25T10:35:16.917Z</time></trkpt><trkpt lat="43.7153159" lon="10.4023519"><ele>9.8</ele><time>2026-03-25T10:35:17.917Z</time></trkpt><trkpt lat="43.7153541" lon="10.4022434"><ele>10.0</ele><time>2026-03-25T10:35:18.918Z</time></trkpt><trkpt lat="43.7153877" lon="10.4021546"><ele>10.166666666666668</ele><time>2026-03-25T10:35:19.918Z</time></trkpt><trkpt lat="43.715409" lon="10.4020564"><ele>10.333333333333334</ele><time>2026-03-25T10:35:21.919Z</time></trkpt><trkpt lat="43.7154471" lon="10.4019438"><ele>10.5</ele><time>2026-03-25T10:35:24.918Z</time></trkpt><trkpt lat="43.7154587" lon="10.4018533"><ele>10.666666666666666</ele><time>2026-03-25T10:35:27.918Z</time></trkpt><trkpt lat="43.7154943" lon="10.4017726"><ele>10.833333333333332</ele><time>2026-03-25T10:35:43.918Z</time></trkpt><trkpt lat="43.7155532" lon="10.4016454"><ele>11.0</ele><time>2026-03-25T10:35:45.919Z</time></trkpt><trkpt lat="43.715588" lon="10.4015342"><ele>11.0</ele><time>2026-03-25T10:35:47.918Z</time></trkpt><trkpt lat="43.715626" lon="10.4013516"><ele>11.0</ele><time>2026-03-25T10:35:49.918Z</time></trkpt><trkpt lat="43.7156527" lon="10.4012272"><ele>11.0</ele><time>2026-03-25T10:35:50.919Z</time></trkpt><trkpt lat="43.7156808" lon="10.4010782"><ele>11.0</ele><time>2026-03-25T10:35:51.918Z</time></trkpt><trkpt lat="43.7157109" lon="10.4009066"><ele>9.75</ele><time>2026-03-25T10:35:52.918Z</time></trkpt><trkpt lat="43.7157376" lon="10.4007364"><ele>8.5</ele><time>2026-03-25T10:35:53.917Z</time></trkpt><trkpt lat="43.7157641" lon="10.4005679"><ele>7.25</ele><time>2026-03-25T10:35:54.919Z</time></trkpt><trkpt lat="43.7157852" lon="10.4004153"><ele>6.0</ele><time>2026-03-25T10:35:55.918Z</time></trkpt><trkpt lat="43.7157824" lon="10.400272"><ele>5.8</ele><time>2026-03-25T10:35:56.917Z</time></trkpt><trkpt lat="43.7158001" lon="10.4001339"><ele>5.6</ele><time>2026-03-25T10:35:57.918Z</time></trkpt><trkpt lat="43.7158037" lon="10.3999899"><ele>5.4</ele><time>2026-03-25T10:35:58.918Z</time></trkpt><trkpt lat="43.7158089" lon="10.3998498"><ele>5.2</ele><time>2026-03-25T10:35:59.918Z</time></trkpt><trkpt lat="43.7158081" lon="10.3997082"><ele>5.0</ele><time>2026-03-25T10:36:00.918Z</time></trkpt><trkpt lat="43.7158113" lon="10.3995731"><ele>5.8</ele><time>2026-03-25T10:36:01.918Z</time></trkpt><trkpt lat="43.7158046" lon="10.3994411"><ele>6.6</ele><time>2026-03-25T10:36:02.919Z</time></trkpt><trkpt lat="43.7158047" lon="10.3993177"><ele>7.4</ele><time>2026-03-25T10:36:03.918Z</time></trkpt><trkpt lat="43.7157998" lon="10.3992128"><ele>8.2</ele><time>2026-03-25T10:36:04.918Z</time></trkpt><trkpt lat="43.7157923" lon="10.3990672"><ele>9.0</ele><time>2026-03-25T10:36:06.917Z</time></trkpt><trkpt lat="43.7157856" lon="10.3989441"><ele>9.8</ele><time>2026-03-25T10:36:09.917Z</time></trkpt><trkpt lat="43.7157588" lon="10.3988002"><ele>10.600000000000001</ele><time>2026-03-25T10:36:11.918Z</time></trkpt><trkpt lat="43.715742" lon="10.3987"><ele>11.4</ele><time>2026-03-25T10:36:12.918Z</time></trkpt><trkpt lat="43.7157217" lon="10.3985901"><ele>12.200000000000001</ele><time>2026-03-25T10:36:13.919Z</time></trkpt><trkpt lat="43.7157007" lon="10.3984637"><ele>13.0</ele><time>2026-03-25T10:36:14.918Z</time></trkpt><trkpt lat="43.7156731" lon="10.3983388"><ele>13.0</ele><time>2026-03-25T10:36:15.917Z</time></trkpt><trkpt lat="43.7156477" lon="10.3981968"><ele>13.0</ele><time>2026-03-25T10:36:16.918Z</time></trkpt><trkpt lat="43.7156089" lon="10.3980547"><ele>13.0</ele><time>2026-03-25T10:36:17.917Z</time></trkpt><trkpt lat="43.71557" lon="10.3979005"><ele>13.0</ele><time>2026-03-25T10:36:18.917Z</time></trkpt><trkpt lat="43.7155239" lon="10.3977537"><ele>13.0</ele><time>2026-03-25T10:36:19.919Z</time></trkpt><trkpt lat="43.7154789" lon="10.3976171"><ele>12.0</ele><time>2026-03-25T10:36:20.917Z</time></trkpt><trkpt lat="43.7154306" lon="10.3974766"><ele>11.0</ele><time>2026-03-25T10:36:21.917Z</time></trkpt><trkpt lat="43.715382" lon="10.3973445"><ele>10.0</ele><time>2026-03-25T10:36:22.918Z</time></trkpt><trkpt lat="43.7153325" lon="10.3972197"><ele>9.0</ele><time>2026-03-25T10:36:23.918Z</time></trkpt><trkpt lat="43.7152826" lon="10.3971032"><ele>8.0</ele><time>2026-03-25T10:36:24.918Z</time></trkpt><trkpt lat="43.7152323" lon="10.3969889"><ele>7.800000000000001</ele><time>2026-03-25T10:36:25.918Z</time></trkpt><trkpt lat="43.7151891" lon="10.39687"><ele>7.6000000000000005</ele><time>2026-03-25T10:36:26.918Z</time></trkpt><trkpt lat="43.7151441" lon="10.3967556"><ele>7.3999999999999995</ele><time>2026-03-25T10:36:27.918Z</time></trkpt><trkpt lat="43.7151005" lon="10.3966374"><ele>7.199999999999999</ele><time>2026-03-25T10:36:28.918Z</time></trkpt><trkpt lat="43.7150654" lon="10.3965211"><ele>7.0</ele><time>2026-03-25T10:36:29.918Z</time></trkpt><trkpt lat="43.7150295" lon="10.3964136"><ele>6.500000000000001</ele><time>2026-03-25T10:36:30.917Z</time></trkpt><trkpt lat="43.7149946" lon="10.3963148"><ele>6.0</ele><time>2026-03-25T10:36:31.918Z</time></trkpt><trkpt lat="43.7149503" lon="10.3962303"><ele>5.5</ele><time>2026-03-25T10:36:32.918Z</time></trkpt><trkpt lat="43.7149084" lon="10.3961407"><ele>5.0</ele><time>2026-03-25T10:36:33.918Z</time></trkpt><trkpt lat="43.7148708" lon="10.3960477"><ele>4.5</ele><time>2026-03-25T10:36:34.919Z</time></trkpt><trkpt lat="43.7148389" lon="10.3959709"><ele>4.0</ele><time>2026-03-25T10:36:35.918Z</time></trkpt><trkpt lat="43.7147826" lon="10.395838"><ele>4.0</ele><time>2026-03-25T10:36:37.917Z</time></trkpt><trkpt lat="43.7147861" lon="10.3957304"><ele>4.0</ele><time>2026-03-25T10:36:39.917Z</time></trkpt><trkpt lat="43.7148273" lon="10.3956418"><ele>4.0</ele><time>2026-03-25T10:36:41.917Z</time></trkpt><trkpt lat="43.7149427" lon="10.3955466"><ele>4.0</ele><time>2026-03-25T10:36:43.917Z</time></trkpt><trkpt lat="43.7150237" lon="10.3954836"><ele>4.0</ele><time>2026-03-25T10:36:44.918Z</time></trkpt><trkpt lat="43.7151144" lon="10.3954136"><ele>4.6</ele><time>2026-03-25T10:36:45.918Z</time></trkpt><trkpt lat="43.7152015" lon="10.3953422"><ele>5.2</ele><time>2026-03-25T10:36:46.918Z</time></trkpt><trkpt lat="43.7152798" lon="10.3952781"><ele>5.799999999999999</ele><time>2026-03-25T10:36:47.918Z</time></trkpt><trkpt lat="43.7153427" lon="10.3952228"><ele>6.3999999999999995</ele><time>2026-03-25T10:36:48.918Z</time></trkpt><trkpt lat="43.7154248" lon="10.3951638"><ele>7.0</ele><time>2026-03-25T10:36:50.918Z</time></trkpt><trkpt lat="43.7155151" lon="10.3950993"><ele>7.500000000000001</ele><time>2026-03-25T10:37:32.918Z</time></trkpt><trkpt lat="43.7155912" lon="10.3950571"><ele>8.0</ele><time>2026-03-25T10:37:35.918Z</time></trkpt><trkpt lat="43.7156688" lon="10.3951356"><ele>8.5</ele><time>2026-03-25T10:37:38.918Z</time></trkpt><trkpt lat="43.7157068" lon="10.3952688"><ele>9.0</ele><time>2026-03-25T10:37:40.917Z</time></trkpt><trkpt lat="43.7157332" lon="10.3953491"><ele>9.5</ele><time>2026-03-25T10:37:41.918Z</time></trkpt><trkpt lat="43.7157655" lon="10.3954403"><ele>10.0</ele><time>2026-03-25T10:37:42.917Z</time></trkpt><trkpt lat="43.7158025" lon="10.3955389"><ele>10.285714285714285</ele><time>2026-03-25T10:37:43.918Z</time></trkpt><trkpt lat="43.7158474" lon="10.3956505"><ele>10.571428571428571</ele><time>2026-03-25T10:37:44.919Z</time></trkpt><trkpt lat="43.7158794" lon="10.3957366"><ele>10.857142857142858</ele><time>2026-03-25T10:37:45.918Z</time></trkpt><trkpt lat="43.7159087" lon="10.3958278"><ele>11.142857142857142</ele><time>2026-03-25T10:37:46.918Z</time></trkpt><trkpt lat="43.7159327" lon="10.395918"><ele>11.428571428571429</ele><time>2026-03-25T10:37:47.918Z</time></trkpt><trkpt lat="43.7159554" lon="10.3960034"><ele>11.714285714285714</ele><time>2026-03-25T10:37:48.918Z</time></trkpt><trkpt lat="43.71598" lon="10.3960887"><ele>12.0</ele><time>2026-03-25T10:37:49.917Z</time></trkpt><trkpt lat="43.7160136" lon="10.3962138"><ele>12.0</ele><time>2026-03-25T10:37:51.917Z</time></trkpt><trkpt lat="43.7160634" lon="10.3963206"><ele>12.0</ele><time>2026-03-25T10:37:54.918Z</time></trkpt><trkpt lat="43.7160909" lon="10.3964104"><ele>12.0</ele><time>2026-03-25T10:37:56.918Z</time></trkpt><trkpt lat="43.7161209" lon="10.3965218"><ele>12.0</ele><time>2026-03-25T10:37:58.918Z</time></trkpt><trkpt lat="43.7161556" lon="10.396657"><ele>12.0</ele><time>2026-03-25T10:38:00.918Z</time></trkpt><trkpt lat="43.7161769" lon="10.3967427"><ele>12.0</ele><time>2026-03-25T10:38:01.917Z</time></trkpt><trkpt lat="43.7161989" lon="10.396828"><ele>11.5</ele><time>2026-03-25T10:38:02.918Z</time></trkpt><trkpt lat="43.7162181" lon="10.3969157"><ele>11.0</ele><time>2026-03-25T10:38:03.918Z</time></trkpt><trkpt lat="43.7162378" lon="10.3970058"><ele>10.5</ele><time>2026-03-25T10:38:04.918Z</time></trkpt><trkpt lat="43.7162568" lon="10.3971003"><ele>10.0</ele><time>2026-03-25T10:38:05.919Z</time></trkpt><trkpt lat="43.7162748" lon="10.3971902"><ele>9.5</ele><time>2026-03-25T10:38:06.918Z</time></trkpt><trkpt lat="43.7162917" lon="10.397276"><ele>9.0</ele><time>2026-03-25T10:38:07.918Z</time></trkpt><trkpt lat="43.7163278" lon="10.3974441"><ele>9.142857142857144</ele><time>2026-03-25T10:38:09.918Z</time></trkpt><trkpt lat="43.7163458" lon="10.3975355"><ele>9.285714285714286</ele><time>2026-03-25T10:38:10.918Z</time></trkpt><trkpt lat="43.7163659" lon="10.3976326"><ele>9.428571428571429</ele><time>2026-03-25T10:38:11.919Z</time></trkpt><trkpt lat="43.7163878" lon="10.3977391"><ele>9.571428571428573</ele><time>2026-03-25T10:38:12.919Z</time></trkpt><trkpt lat="43.7164102" lon="10.3978374"><ele>9.714285714285715</ele><time>2026-03-25T10:38:13.918Z</time></trkpt><trkpt lat="43.716435" lon="10.397937"><ele>9.857142857142858</ele><time>2026-03-25T10:38:14.919Z</time></trkpt><trkpt lat="43.7164559" lon="10.3980297"><ele>10.0</ele><time>2026-03-25T10:38:15.918Z</time></trkpt><trkpt lat="43.7164729" lon="10.3981279"><ele>10.0</ele><time>2026-03-25T10:38:16.917Z</time></trkpt><trkpt lat="43.7164909" lon="10.3982288"><ele>10.0</ele><time>2026-03-25T10:38:17.919Z</time></trkpt><trkpt lat="43.7165115" lon="10.3983314"><ele>10.0</ele><time>2026-03-25T10:38:18.917Z</time></trkpt><trkpt lat="43.7165292" lon="10.3984348"><ele>10.0</ele><time>2026-03-25T10:38:19.918Z</time></trkpt><trkpt lat="43.716546" lon="10.3985428"><ele>10.0</ele><time>2026-03-25T10:38:20.918Z</time></trkpt><trkpt lat="43.7165641" lon="10.3986428"><ele>10.0</ele><time>2026-03-25T10:38:21.917Z</time></trkpt><trkpt lat="43.7165782" lon="10.3987336"><ele>10.0</ele><time>2026-03-25T10:38:22.919Z</time></trkpt><trkpt lat="43.7165888" lon="10.398823"><ele>10.0</ele><time>2026-03-25T10:38:23.918Z</time></trkpt><trkpt lat="43.7166006" lon="10.3989894"><ele>10.0</ele><time>2026-03-25T10:38:25.918Z</time></trkpt><trkpt lat="43.7166177" lon="10.3991595"><ele>10.0</ele><time>2026-03-25T10:38:27.917Z</time></trkpt><trkpt lat="43.7166348" lon="10.399312"><ele>10.0</ele><time>2026-03-25T10:38:29.917Z</time></trkpt><trkpt lat="43.7166495" lon="10.3994559"><ele>10.0</ele><time>2026-03-25T10:38:31.917Z</time></trkpt><trkpt lat="43.7166603" lon="10.3995755"><ele>10.0</ele><time>2026-03-25T10:38:33.918Z</time></trkpt><trkpt lat="43.7166691" lon="10.399688"><ele>10.0</ele><time>2026-03-25T10:38:35.918Z</time></trkpt><trkpt lat="43.7166622" lon="10.3998035"><ele>10.0</ele><time>2026-03-25T10:38:37.918Z</time></trkpt><trkpt lat="43.716695" lon="10.3998808"><ele>10.0</ele><time>2026-03-25T10:38:39.917Z</time></trkpt><trkpt lat="43.7167575" lon="10.3999133"><ele>10.0</ele><time>2026-03-25T10:38:41.918Z</time></trkpt><trkpt lat="43.7168522" lon="10.399907"><ele>10.333333333333334</ele><time>2026-03-25T10:38:43.918Z</time></trkpt><trkpt lat="43.7169296" lon="10.3998928"><ele>10.666666666666668</ele><time>2026-03-25T10:38:44.918Z</time></trkpt><trkpt lat="43.7169929" lon="10.3998954"><ele>11.0</ele><time>2026-03-25T10:38:45.917Z</time></trkpt><trkpt lat="43.7170577" lon="10.3998994"><ele>11.333333333333334</ele><time>2026-03-25T10:38:46.918Z</time></trkpt><trkpt lat="43.7171778" lon="10.3998959"><ele>11.666666666666666</ele><time>2026-03-25T10:38:48.918Z</time></trkpt><trkpt lat="43.7172408" lon="10.3998973"><ele>12.0</ele><time>2026-03-25T10:38:49.918Z</time></trkpt><trkpt lat="43.7173631" lon="10.3998957"><ele>12.0</ele><time>2026-03-25T10:38:51.917Z</time></trkpt><trkpt lat="43.7174286" lon="10.3998958"><ele>12.0</ele><time>2026-03-25T10:38:52.919Z</time></trkpt><trkpt lat="43.7174952" lon="10.3998912"><ele>12.0</ele><time>2026-03-25T10:38:53.918Z</time></trkpt><trkpt lat="43.7175607" lon="10.3998919"><ele>12.0</ele><time>2026-03-25T10:38:54.919Z</time></trkpt><trkpt lat="43.7176749" lon="10.3998925"><ele>12.0</ele><time>2026-03-25T10:38:56.918Z</time></trkpt><trkpt lat="43.7177861" lon="10.3999058"><ele>12.0</ele><time>2026-03-25T10:38:58.918Z</time></trkpt><trkpt lat="43.7178904" lon="10.3998827"><ele>11.666666666666666</ele><time>2026-03-25T10:39:00.918Z</time></trkpt><trkpt lat="43.7179768" lon="10.3998825"><ele>11.333333333333334</ele><time>2026-03-25T10:39:02.918Z</time></trkpt><trkpt lat="43.7180557" lon="10.3998728"><ele>11.0</ele><time>2026-03-25T10:41:34.918Z</time></trkpt><trkpt lat="43.7181279" lon="10.3998805"><ele>10.666666666666668</ele><time>2026-03-25T10:41:37.918Z</time></trkpt><trkpt lat="43.7181989" lon="10.3998882"><ele>10.333333333333334</ele><time>2026-03-25T10:41:40.917Z</time></trkpt><trkpt lat="43.7182985" lon="10.3999063"><ele>10.0</ele><time>2026-03-25T10:41:43.869Z</time></trkpt><trkpt lat="43.7183797" lon="10.3999206"><ele>9.5</ele><time>2026-03-25T10:41:46.918Z</time></trkpt><trkpt lat="43.7186164" lon="10.3999107"><ele>9.0</ele><time>2026-03-25T10:41:48.917Z</time></trkpt><trkpt lat="43.7188802" lon="10.3998986"><ele>9.0</ele><time>2026-03-25T10:41:49.919Z</time></trkpt><trkpt lat="43.71896" lon="10.3999186"><ele>9.0</ele><time>2026-03-25T10:41:52.917Z</time></trkpt><trkpt lat="43.7190348" lon="10.3999303"><ele>9.0</ele><time>2026-03-25T10:41:58.818Z</time></trkpt><trkpt lat="43.719107" lon="10.3999703"><ele>9.0</ele><time>2026-03-25T10:42:01.917Z</time></trkpt><trkpt lat="43.7192252" lon="10.4000369"><ele>9.0</ele><time>2026-03-25T10:42:03.917Z</time></trkpt><trkpt lat="43.7193014" lon="10.4000695"><ele>9.0</ele><time>2026-03-25T10:42:04.919Z</time></trkpt><trkpt lat="43.7194164" lon="10.4000682"><ele>9.0</ele><time>2026-03-25T10:42:06.918Z</time></trkpt><trkpt lat="43.7195269" lon="10.4000184"><ele>9.0</ele><time>2026-03-25T10:42:08.919Z</time></trkpt><trkpt lat="43.7196195" lon="10.3999371"><ele>9.0</ele><time>2026-03-25T10:42:10.918Z</time></trkpt><trkpt lat="43.7196963" lon="10.3998623"><ele>9.0</ele><time>2026-03-25T10:42:12.919Z</time></trkpt><trkpt lat="43.7197495" lon="10.3997876"><ele>9.0</ele><time>2026-03-25T10:42:14.918Z</time></trkpt><trkpt lat="43.7198202" lon="10.3997039"><ele>9.0</ele><time>2026-03-25T10:42:17.918Z</time></trkpt><trkpt lat="43.719894" lon="10.399743"><ele>9.0</ele><time>2026-03-25T10:42:20.918Z</time></trkpt><trkpt lat="43.7199614" lon="10.399808"><ele>9.0</ele><time>2026-03-25T10:42:22.919Z</time></trkpt><trkpt lat="43.7200695" lon="10.3998651"><ele>9.0</ele><time>2026-03-25T10:42:25.919Z</time></trkpt><trkpt lat="43.7201752" lon="10.3999911"><ele>9.0</ele><time>2026-03-25T10:42:27.919Z</time></trkpt><trkpt lat="43.7202331" lon="10.4000423"><ele>8.4</ele><time>2026-03-25T10:42:28.918Z</time></trkpt><trkpt lat="43.7202908" lon="10.4000899"><ele>7.800000000000001</ele><time>2026-03-25T10:42:29.917Z</time></trkpt><trkpt lat="43.720351" lon="10.4001321"><ele>7.199999999999999</ele><time>2026-03-25T10:42:30.919Z</time></trkpt><trkpt lat="43.7204636" lon="10.4002134"><ele>6.6</ele><time>2026-03-25T10:42:32.918Z</time></trkpt><trkpt lat="43.7205846" lon="10.400267"><ele>6.0</ele><time>2026-03-25T10:42:34.918Z</time></trkpt><trkpt lat="43.7207045" lon="10.400301"><ele>5.999999999999999</ele><time>2026-03-25T10:42:36.918Z</time></trkpt><trkpt lat="43.7207671" lon="10.4003105"><ele>6.0</ele><time>2026-03-25T10:42:37.917Z</time></trkpt><trkpt lat="43.7208317" lon="10.4003187"><ele>6.0</ele><time>2026-03-25T10:42:38.919Z</time></trkpt><trkpt lat="43.7208992" lon="10.4003284"><ele>6.0</ele><time>2026-03-25T10:42:39.918Z</time></trkpt><trkpt lat="43.7209656" lon="10.4003367"><ele>6.0</ele><time>2026-03-25T10:42:40.919Z</time></trkpt><trkpt lat="43.7210326" lon="10.4003448"><ele>5.999999999999999</ele><time>2026-03-25T10:42:41.918Z</time></trkpt><trkpt lat="43.7210972" lon="10.4003465"><ele>6.0</ele><time>2026-03-25T10:42:42.919Z</time></trkpt><trkpt lat="43.7211976" lon="10.4003596"><ele>6.6</ele><time>2026-03-25T10:42:44.917Z</time></trkpt><trkpt lat="43.7212851" lon="10.4003282"><ele>7.199999999999999</ele><time>2026-03-25T10:42:48.918Z</time></trkpt><trkpt lat="43.7213267" lon="10.4002513"><ele>7.800000000000001</ele><time>2026-03-25T10:42:50.918Z</time></trkpt><trkpt lat="43.7213982" lon="10.4001371"><ele>8.4</ele><time>2026-03-25T10:42:52.918Z</time></trkpt><trkpt lat="43.7214868" lon="10.4000344"><ele>9.0</ele><time>2026-03-25T10:42:54.918Z</time></trkpt><trkpt lat="43.7215713" lon="10.3999516"><ele>9.0</ele><time>2026-03-25T10:42:56.918Z</time></trkpt><trkpt lat="43.7216408" lon="10.3998759"><ele>9.0</ele><time>2026-03-25T10:42:58.918Z</time></trkpt><trkpt lat="43.7216987" lon="10.3998109"><ele>9.0</ele><time>2026-03-25T10:43:00.918Z</time></trkpt><trkpt lat="43.7217745" lon="10.3997284"><ele>9.0</ele><time>2026-03-25T10:43:02.918Z</time></trkpt><trkpt lat="43.7218336" lon="10.399572"><ele>9.0</ele><time>2026-03-25T10:43:04.918Z</time></trkpt><trkpt lat="43.7218545" lon="10.3994883"><ele>9.0</ele><time>2026-03-25T10:43:05.917Z</time></trkpt><trkpt lat="43.7218723" lon="10.3993986"><ele>9.0</ele><time>2026-03-25T10:43:06.918Z</time></trkpt><trkpt lat="43.7218898" lon="10.3993144"><ele>9.0</ele><time>2026-03-25T10:43:07.917Z</time></trkpt><trkpt lat="43.7219186" lon="10.3991422"><ele>9.0</ele><time>2026-03-25T10:43:09.919Z</time></trkpt><trkpt lat="43.7219313" lon="10.3990518"><ele>9.0</ele><time>2026-03-25T10:43:10.917Z</time></trkpt><trkpt lat="43.721942" lon="10.3989631"><ele>9.0</ele><time>2026-03-25T10:43:11.919Z</time></trkpt><trkpt lat="43.7219677" lon="10.3987985"><ele>9.0</ele><time>2026-03-25T10:43:13.918Z</time></trkpt><trkpt lat="43.7219838" lon="10.3986731"><ele>9.0</ele><time>2026-03-25T10:43:15.918Z</time></trkpt><trkpt lat="43.7220013" lon="10.3985816"><ele>9.0</ele><time>2026-03-25T10:43:17.918Z</time></trkpt><trkpt lat="43.7220218" lon="10.3984892"><ele>9.0</ele><time>2026-03-25T10:43:19.917Z</time></trkpt><trkpt lat="43.7220644" lon="10.3984016"><ele>9.0</ele><time>2026-03-25T10:43:22.918Z</time></trkpt><trkpt lat="43.7221017" lon="10.3982887"><ele>9.0</ele><time>2026-03-25T10:43:25.918Z</time></trkpt><trkpt lat="43.7221403" lon="10.3982023"><ele>9.0</ele><time>2026-03-25T10:43:27.917Z</time></trkpt><trkpt lat="43.7221917" lon="10.3981164"><ele>9.0</ele><time>2026-03-25T10:43:29.919Z</time></trkpt><trkpt lat="43.7222472" lon="10.398055"><ele>9.0</ele><time>2026-03-25T10:43:31.919Z</time></trkpt><trkpt lat="43.722323" lon="10.3980546"><ele>9.0</ele><time>2026-03-25T10:43:34.917Z</time></trkpt><trkpt lat="43.7223879" lon="10.398127"><ele>9.0</ele><time>2026-03-25T10:43:37.918Z</time></trkpt><trkpt lat="43.7224095" lon="10.3982488"><ele>9.0</ele><time>2026-03-25T10:43:40.919Z</time></trkpt><trkpt lat="43.7224365" lon="10.3983671"><ele>9.0</ele><time>2026-03-25T10:43:43.918Z</time></trkpt><trkpt lat="43.7224759" lon="10.3984658"><ele>9.0</ele><time>2026-03-25T10:43:46.918Z</time></trkpt><trkpt lat="43.7225365" lon="10.3985041"><ele>9.0</ele><time>2026-03-25T10:43:50.917Z</time></trkpt><trkpt lat="43.7226022" lon="10.3984888"><ele>9.0</ele><time>2026-03-25T10:43:55.918Z</time></trkpt><trkpt lat="43.7226948" lon="10.398479"><ele>9.0</ele><time>2026-03-25T10:43:59.918Z</time></trkpt><trkpt lat="43.7227766" lon="10.39849"><ele>9.0</ele><time>2026-03-25T10:44:02.918Z</time></trkpt><trkpt lat="43.7228291" lon="10.3985604"><ele>8.4</ele><time>2026-03-25T10:44:05.917Z</time></trkpt><trkpt lat="43.7228252" lon="10.3986501"><ele>7.800000000000001</ele><time>2026-03-25T10:44:07.918Z</time></trkpt><trkpt lat="43.7228102" lon="10.398763"><ele>7.199999999999999</ele><time>2026-03-25T10:44:09.918Z</time></trkpt><trkpt lat="43.7227955" lon="10.3989096"><ele>6.6</ele><time>2026-03-25T10:44:11.919Z</time></trkpt><trkpt lat="43.7227755" lon="10.3990482"><ele>6.0</ele><time>2026-03-25T10:44:13.919Z</time></trkpt><trkpt lat="43.7227412" lon="10.3991828"><ele>6.5</ele><time>2026-03-25T10:44:15.919Z</time></trkpt><trkpt lat="43.7227104" lon="10.399343"><ele>7.0</ele><time>2026-03-25T10:44:17.918Z</time></trkpt><trkpt lat="43.7226961" lon="10.3994379"><ele>7.5</ele><time>2026-03-25T10:44:18.918Z</time></trkpt><trkpt lat="43.7226791" lon="10.399536"><ele>8.0</ele><time>2026-03-25T10:44:19.919Z</time></trkpt><trkpt lat="43.7226563" lon="10.3996353"><ele>8.5</ele><time>2026-03-25T10:44:20.917Z</time></trkpt><trkpt lat="43.7226358" lon="10.399734"><ele>9.0</ele><time>2026-03-25T10:44:21.919Z</time></trkpt><trkpt lat="43.7226156" lon="10.3998322"><ele>9.0</ele><time>2026-03-25T10:44:22.918Z</time></trkpt><trkpt lat="43.722592" lon="10.3999426"><ele>9.0</ele><time>2026-03-25T10:44:23.918Z</time></trkpt><trkpt lat="43.7225635" lon="10.4000737"><ele>9.0</ele><time>2026-03-25T10:44:24.918Z</time></trkpt><trkpt lat="43.7225329" lon="10.4002049"><ele>9.0</ele><time>2026-03-25T10:44:25.917Z</time></trkpt><trkpt lat="43.7225042" lon="10.4003333"><ele>9.0</ele><time>2026-03-25T10:44:26.918Z</time></trkpt><trkpt lat="43.7224757" lon="10.4004498"><ele>8.833333333333334</ele><time>2026-03-25T10:44:27.917Z</time></trkpt><trkpt lat="43.7224504" lon="10.4005553"><ele>8.666666666666666</ele><time>2026-03-25T10:44:28.918Z</time></trkpt><trkpt lat="43.7224313" lon="10.4006551"><ele>8.5</ele><time>2026-03-25T10:44:29.918Z</time></trkpt><trkpt lat="43.7224155" lon="10.4007427"><ele>8.333333333333332</ele><time>2026-03-25T10:44:30.917Z</time></trkpt><trkpt lat="43.7223876" lon="10.4008879"><ele>8.166666666666666</ele><time>2026-03-25T10:44:32.918Z</time></trkpt><trkpt lat="43.7223657" lon="10.4009857"><ele>8.0</ele><time>2026-03-25T10:44:34.918Z</time></trkpt><trkpt lat="43.7223355" lon="10.4011423"><ele>7.999999999999999</ele><time>2026-03-25T10:44:40.918Z</time></trkpt><trkpt lat="43.7223103" lon="10.4012408"><ele>8.0</ele><time>2026-03-25T10:44:41.918Z</time></trkpt><trkpt lat="43.7222774" lon="10.4013428"><ele>8.0</ele><time>2026-03-25T10:44:42.918Z</time></trkpt><trkpt lat="43.7222495" lon="10.4014364"><ele>8.0</ele><time>2026-03-25T10:44:43.917Z</time></trkpt><trkpt lat="43.7222143" lon="10.401576"><ele>7.999999999999999</ele><time>2026-03-25T10:44:45.917Z</time></trkpt><trkpt lat="43.7221991" lon="10.4016636"><ele>8.0</ele><time>2026-03-25T10:44:52.918Z</time></trkpt><trkpt lat="43.7222721" lon="10.4017234"><ele>7.833333333333333</ele><time>2026-03-25T10:44:55.917Z</time></trkpt><trkpt lat="43.7223608" lon="10.4017302"><ele>7.666666666666666</ele><time>2026-03-25T10:44:57.918Z</time></trkpt><trkpt lat="43.7224453" lon="10.4017148"><ele>7.5</ele><time>2026-03-25T10:44:59.917Z</time></trkpt><trkpt lat="43.7225266" lon="10.4017172"><ele>7.333333333333334</ele><time>2026-03-25T10:45:01.918Z</time></trkpt><trkpt lat="43.722603" lon="10.4017259"><ele>7.166666666666667</ele><time>2026-03-25T10:45:03.917Z</time></trkpt><trkpt lat="43.7226858" lon="10.4017279"><ele>7.0</ele><time>2026-03-25T10:45:06.918Z</time></trkpt><trkpt lat="43.7227481" lon="10.4017038"><ele>6.666666666666667</ele><time>2026-03-25T10:45:37.918Z</time></trkpt><trkpt lat="43.7228155" lon="10.401714"><ele>6.333333333333334</ele><time>2026-03-25T10:45:40.916Z</time></trkpt><trkpt lat="43.7228788" lon="10.4016247"><ele>6.0</ele><time>2026-03-25T10:45:43.917Z</time></trkpt><trkpt lat="43.7229016" lon="10.4015285"><ele>5.666666666666667</ele><time>2026-03-25T10:45:44.917Z</time></trkpt><trkpt lat="43.7229251" lon="10.4014168"><ele>5.333333333333334</ele><time>2026-03-25T10:45:45.917Z</time></trkpt><trkpt lat="43.7229478" lon="10.4012889"><ele>5.0</ele><time>2026-03-25T10:45:46.917Z</time></trkpt><trkpt lat="43.7229732" lon="10.4011659"><ele>4.8</ele><time>2026-03-25T10:45:47.917Z</time></trkpt><trkpt lat="43.7230004" lon="10.4010568"><ele>4.6</ele><time>2026-03-25T10:45:48.918Z</time></trkpt><trkpt lat="43.7230275" lon="10.4009417"><ele>4.4</ele><time>2026-03-25T10:45:49.917Z</time></trkpt><trkpt lat="43.7230561" lon="10.4008054"><ele>4.2</ele><time>2026-03-25T10:45:50.917Z</time></trkpt><trkpt lat="43.7230895" lon="10.4006494"><ele>4.0</ele><time>2026-03-25T10:45:51.917Z</time></trkpt><trkpt lat="43.7231266" lon="10.4004876"><ele>4.5</ele><time>2026-03-25T10:45:52.916Z</time></trkpt><trkpt lat="43.7231629" lon="10.4003254"><ele>5.0</ele><time>2026-03-25T10:45:53.917Z</time></trkpt><trkpt lat="43.7231999" lon="10.400167"><ele>5.5</ele><time>2026-03-25T10:45:54.918Z</time></trkpt><trkpt lat="43.7232328" lon="10.4000122"><ele>6.0</ele><time>2026-03-25T10:45:55.916Z</time></trkpt><trkpt lat="43.7232654" lon="10.3998634"><ele>6.0</ele><time>2026-03-25T10:45:56.916Z</time></trkpt><trkpt lat="43.7232982" lon="10.399722"><ele>6.0</ele><time>2026-03-25T10:45:57.917Z</time></trkpt><trkpt lat="43.7233303" lon="10.3995813"><ele>6.0</ele><time>2026-03-25T10:45:58.917Z</time></trkpt><trkpt lat="43.7233597" lon="10.3994427"><ele>6.0</ele><time>2026-03-25T10:45:59.918Z</time></trkpt><trkpt lat="43.7233911" lon="10.3993031"><ele>6.0</ele><time>2026-03-25T10:46:00.916Z</time></trkpt><trkpt lat="43.7234218" lon="10.3991673"><ele>6.0</ele><time>2026-03-25T10:46:01.917Z</time></trkpt><trkpt lat="43.723454" lon="10.3990334"><ele>6.0</ele><time>2026-03-25T10:46:02.917Z</time></trkpt><trkpt lat="43.7234902" lon="10.3988978"><ele>6.0</ele><time>2026-03-25T10:46:03.917Z</time></trkpt><trkpt lat="43.7235239" lon="10.398759"><ele>6.0</ele><time>2026-03-25T10:46:04.917Z</time></trkpt><trkpt lat="43.7235605" lon="10.3986329"><ele>6.0</ele><time>2026-03-25T10:46:05.916Z</time></trkpt><trkpt lat="43.7235955" lon="10.3985187"><ele>5.666666666666667</ele><time>2026-03-25T10:46:06.917Z</time></trkpt><trkpt lat="43.7236315" lon="10.3984157"><ele>5.333333333333333</ele><time>2026-03-25T10:46:07.916Z</time></trkpt><trkpt lat="43.7236661" lon="10.398304"><ele>5.0</ele><time>2026-03-25T10:46:08.916Z</time></trkpt><trkpt lat="43.723704" lon="10.3981813"><ele>4.666666666666666</ele><time>2026-03-25T10:46:09.916Z</time></trkpt><trkpt lat="43.7237424" lon="10.3980662"><ele>4.333333333333333</ele><time>2026-03-25T10:46:10.917Z</time></trkpt><trkpt lat="43.723782" lon="10.3979683"><ele>4.0</ele><time>2026-03-25T10:46:11.918Z</time></trkpt><trkpt lat="43.7238176" lon="10.3978781"><ele>3.9999999999999996</ele><time>2026-03-25T10:46:12.917Z</time></trkpt><trkpt lat="43.7238471" lon="10.3977835"><ele>4.0</ele><time>2026-03-25T10:46:13.917Z</time></trkpt><trkpt lat="43.7238762" lon="10.3976899"><ele>4.0</ele><time>2026-03-25T10:46:14.917Z</time></trkpt><trkpt lat="43.7239068" lon="10.3975987"><ele>4.0</ele><time>2026-03-25T10:46:15.916Z</time></trkpt><trkpt lat="43.723954" lon="10.3974653"><ele>3.9999999999999996</ele><time>2026-03-25T10:46:17.917Z</time></trkpt><trkpt lat="43.723973" lon="10.3973767"><ele>4.0</ele><time>2026-03-25T10:46:20.916Z</time></trkpt><trkpt lat="43.7240031" lon="10.3972828"><ele>4.0</ele><time>2026-03-25T10:46:43.917Z</time></trkpt><trkpt lat="43.7240334" lon="10.3972049"><ele>4.0</ele><time>2026-03-25T10:46:44.918Z</time></trkpt><trkpt lat="43.7240617" lon="10.3970957"><ele>4.0</ele><time>2026-03-25T10:46:45.916Z</time></trkpt><trkpt lat="43.7240877" lon="10.3969712"><ele>4.0</ele><time>2026-03-25T10:46:46.917Z</time></trkpt><trkpt lat="43.7241121" lon="10.3968227"><ele>4.0</ele><time>2026-03-25T10:46:47.918Z</time></trkpt><trkpt lat="43.7241398" lon="10.3966487"><ele>3.75</ele><time>2026-03-25T10:46:48.917Z</time></trkpt><trkpt lat="43.7241725" lon="10.3964559"><ele>3.5</ele><time>2026-03-25T10:46:49.917Z</time></trkpt><trkpt lat="43.7242062" lon="10.3962627"><ele>3.25</ele><time>2026-03-25T10:46:50.918Z</time></trkpt><trkpt lat="43.7242399" lon="10.3960616"><ele>3.0</ele><time>2026-03-25T10:46:51.916Z</time></trkpt><trkpt lat="43.7242777" lon="10.3958557"><ele>3.333333333333333</ele><time>2026-03-25T10:46:52.917Z</time></trkpt><trkpt lat="43.7243172" lon="10.3956312"><ele>3.6666666666666665</ele><time>2026-03-25T10:46:53.916Z</time></trkpt><trkpt lat="43.7243613" lon="10.3953907"><ele>4.0</ele><time>2026-03-25T10:46:54.916Z</time></trkpt><trkpt lat="43.7244088" lon="10.3951487"><ele>4.0</ele><time>2026-03-25T10:46:55.917Z</time></trkpt><trkpt lat="43.7244527" lon="10.3949223"><ele>4.0</ele><time>2026-03-25T10:46:56.916Z</time></trkpt><trkpt lat="43.7244907" lon="10.3947232"><ele>4.0</ele><time>2026-03-25T10:46:57.917Z</time></trkpt><trkpt lat="43.7245264" lon="10.3945367"><ele>4.0</ele><time>2026-03-25T10:46:58.918Z</time></trkpt><trkpt lat="43.7245615" lon="10.3943489"><ele>4.0</ele><time>2026-03-25T10:46:59.917Z</time></trkpt><trkpt lat="43.7246" lon="10.3941527"><ele>4.0</ele><time>2026-03-25T10:47:00.918Z</time></trkpt><trkpt lat="43.7246367" lon="10.3939612"><ele>4.0</ele><time>2026-03-25T10:47:01.917Z</time></trkpt><trkpt lat="43.7246726" lon="10.393779"><ele>3.8000000000000003</ele><time>2026-03-25T10:47:02.916Z</time></trkpt><trkpt lat="43.7247017" lon="10.3936139"><ele>3.6000000000000005</ele><time>2026-03-25T10:47:03.916Z</time></trkpt><trkpt lat="43.7247302" lon="10.3934694"><ele>3.4</ele><time>2026-03-25T10:47:04.917Z</time></trkpt><trkpt lat="43.724755" lon="10.3933487"><ele>3.2</ele><time>2026-03-25T10:47:05.917Z</time></trkpt><trkpt lat="43.7247771" lon="10.3932366"><ele>3.0</ele><time>2026-03-25T10:47:06.916Z</time></trkpt><trkpt lat="43.7247955" lon="10.3931325"><ele>3.0</ele><time>2026-03-25T10:47:07.917Z</time></trkpt><trkpt lat="43.7248122" lon="10.3930432"><ele>3.0</ele><time>2026-03-25T10:47:08.916Z</time></trkpt><trkpt lat="43.7248383" lon="10.3928955"><ele>3.0</ele><time>2026-03-25T10:47:10.917Z</time></trkpt><trkpt lat="43.7248683" lon="10.392732"><ele>3.0</ele><time>2026-03-25T10:47:12.917Z</time></trkpt><trkpt lat="43.724881" lon="10.3926412"><ele>3.0</ele><time>2026-03-25T10:47:13.916Z</time></trkpt><trkpt lat="43.724894" lon="10.3925553"><ele>3.0</ele><time>2026-03-25T10:47:14.917Z</time></trkpt><trkpt lat="43.7249186" lon="10.3924003"><ele>3.0</ele><time>2026-03-25T10:47:16.916Z</time></trkpt><trkpt lat="43.7249376" lon="10.3922901"><ele>3.0</ele><time>2026-03-25T10:47:18.917Z</time></trkpt><trkpt lat="43.7249546" lon="10.3921776"><ele>3.0</ele><time>2026-03-25T10:47:20.918Z</time></trkpt><trkpt lat="43.7249666" lon="10.3920741"><ele>3.0</ele><time>2026-03-25T10:47:22.917Z</time></trkpt><trkpt lat="43.7249707" lon="10.3919486"><ele>3.0</ele><time>2026-03-25T10:47:24.917Z</time></trkpt><trkpt lat="43.7249678" lon="10.3918449"><ele>3.0</ele><time>2026-03-25T10:47:26.917Z</time></trkpt><trkpt lat="43.7249573" lon="10.3917009"><ele>3.0</ele><time>2026-03-25T10:47:28.917Z</time></trkpt><trkpt lat="43.7249532" lon="10.3916115"><ele>3.0</ele><time>2026-03-25T10:47:29.917Z</time></trkpt><trkpt lat="43.7249519" lon="10.3914582"><ele>3.0</ele><time>2026-03-25T10:47:31.917Z</time></trkpt><trkpt lat="43.7249665" lon="10.3913421"><ele>3.0</ele><time>2026-03-25T10:47:33.917Z</time></trkpt><trkpt lat="43.7249764" lon="10.3912469"><ele>3.0</ele><time>2026-03-25T10:47:35.917Z</time></trkpt><trkpt lat="43.7249005" lon="10.3912064"><ele>3.0</ele><time>2026-03-25T10:47:38.917Z</time></trkpt><trkpt lat="43.7248014" lon="10.3912822"><ele>3.0</ele><time>2026-03-25T10:47:40.917Z</time></trkpt><trkpt lat="43.7247302" lon="10.3913304"><ele>3.0</ele><time>2026-03-25T10:47:41.916Z</time></trkpt><trkpt lat="43.7246532" lon="10.3913747"><ele>3.0</ele><time>2026-03-25T10:47:42.916Z</time></trkpt><trkpt lat="43.7245704" lon="10.3914157"><ele>3.0</ele><time>2026-03-25T10:47:43.917Z</time></trkpt><trkpt lat="43.724483" lon="10.3914612"><ele>3.0</ele><time>2026-03-25T10:47:44.917Z</time></trkpt><trkpt lat="43.7244073" lon="10.3914994"><ele>3.0</ele><time>2026-03-25T10:47:45.917Z</time></trkpt><trkpt lat="43.7243326" lon="10.3915372"><ele>2.8333333333333335</ele><time>2026-03-25T10:47:46.916Z</time></trkpt><trkpt lat="43.7242599" lon="10.3915752"><ele>2.6666666666666665</ele><time>2026-03-25T10:47:47.916Z</time></trkpt><trkpt lat="43.7241876" lon="10.3916122"><ele>2.5</ele><time>2026-03-25T10:47:48.916Z</time></trkpt><trkpt lat="43.7241147" lon="10.3916487"><ele>2.333333333333333</ele><time>2026-03-25T10:47:49.916Z</time></trkpt><trkpt lat="43.72404" lon="10.3916884"><ele>2.1666666666666665</ele><time>2026-03-25T10:47:50.917Z</time></trkpt><trkpt lat="43.7239627" lon="10.3917255"><ele>2.0</ele><time>2026-03-25T10:47:51.916Z</time></trkpt><trkpt lat="43.7238845" lon="10.3917637"><ele>1.9999999999999998</ele><time>2026-03-25T10:47:52.916Z</time></trkpt><trkpt lat="43.723816" lon="10.3917971"><ele>2.0</ele><time>2026-03-25T10:47:53.916Z</time></trkpt><trkpt lat="43.7237532" lon="10.3918253"><ele>2.0</ele><time>2026-03-25T10:47:54.917Z</time></trkpt><trkpt lat="43.7236925" lon="10.3918531"><ele>2.0</ele><time>2026-03-25T10:47:55.917Z</time></trkpt><trkpt lat="43.7235784" lon="10.3919159"><ele>1.9999999999999998</ele><time>2026-03-25T10:47:57.916Z</time></trkpt><trkpt lat="43.7234653" lon="10.3919764"><ele>2.0</ele><time>2026-03-25T10:47:59.916Z</time></trkpt><trkpt lat="43.7233635" lon="10.3920257"><ele>2.1666666666666665</ele><time>2026-03-25T10:48:01.918Z</time></trkpt><trkpt lat="43.7232797" lon="10.392061"><ele>2.333333333333333</ele><time>2026-03-25T10:48:03.917Z</time></trkpt><trkpt lat="43.7232065" lon="10.3921094"><ele>2.5</ele><time>2026-03-25T10:48:05.916Z</time></trkpt><trkpt lat="43.7231204" lon="10.3921471"><ele>2.6666666666666665</ele><time>2026-03-25T10:48:07.917Z</time></trkpt><trkpt lat="43.723042" lon="10.3921729"><ele>2.8333333333333335</ele><time>2026-03-25T10:48:10.918Z</time></trkpt><trkpt lat="43.7229716" lon="10.3921888"><ele>3.0</ele><time>2026-03-25T10:48:12.917Z</time></trkpt><trkpt lat="43.7228852" lon="10.3921911"><ele>2.8</ele><time>2026-03-25T10:48:14.917Z</time></trkpt><trkpt lat="43.7227863" lon="10.3921823"><ele>2.5999999999999996</ele><time>2026-03-25T10:48:16.917Z</time></trkpt><trkpt lat="43.7226866" lon="10.39217"><ele>2.4000000000000004</ele><time>2026-03-25T10:48:18.918Z</time></trkpt><trkpt lat="43.722576" lon="10.3921393"><ele>2.2</ele><time>2026-03-25T10:48:20.917Z</time></trkpt><trkpt lat="43.7224664" lon="10.3920936"><ele>2.0</ele><time>2026-03-25T10:48:22.917Z</time></trkpt><trkpt lat="43.7223393" lon="10.3920397"><ele>2.0</ele><time>2026-03-25T10:48:24.916Z</time></trkpt><trkpt lat="43.7222671" lon="10.3920103"><ele>1.9999999999999998</ele><time>2026-03-25T10:48:25.916Z</time></trkpt><trkpt lat="43.7221949" lon="10.3919781"><ele>2.0</ele><time>2026-03-25T10:48:26.916Z</time></trkpt><trkpt lat="43.7221227" lon="10.391946"><ele>2.0</ele><time>2026-03-25T10:48:27.916Z</time></trkpt><trkpt lat="43.7220563" lon="10.3919156"><ele>1.9999999999999998</ele><time>2026-03-25T10:48:28.918Z</time></trkpt><trkpt lat="43.7219953" lon="10.3918873"><ele>2.0</ele><time>2026-03-25T10:48:29.916Z</time></trkpt><trkpt lat="43.7219348" lon="10.39186"><ele>2.0</ele><time>2026-03-25T10:48:30.917Z</time></trkpt><trkpt lat="43.7218733" lon="10.3918356"><ele>2.4285714285714284</ele><time>2026-03-25T10:48:31.917Z</time></trkpt><trkpt lat="43.7218071" lon="10.3918117"><ele>2.8571428571428568</ele><time>2026-03-25T10:48:32.917Z</time></trkpt><trkpt lat="43.7217428" lon="10.3917885"><ele>3.2857142857142856</ele><time>2026-03-25T10:48:33.917Z</time></trkpt><trkpt lat="43.7216812" lon="10.3917602"><ele>3.7142857142857144</ele><time>2026-03-25T10:48:34.917Z</time></trkpt><trkpt lat="43.7216186" lon="10.3917258"><ele>4.142857142857143</ele><time>2026-03-25T10:48:35.916Z</time></trkpt><trkpt lat="43.7215583" lon="10.3916909"><ele>4.571428571428571</ele><time>2026-03-25T10:48:36.918Z</time></trkpt><trkpt lat="43.7214991" lon="10.3916536"><ele>5.0</ele><time>2026-03-25T10:48:37.917Z</time></trkpt><trkpt lat="43.721438" lon="10.3916085"><ele>5.0</ele><time>2026-03-25T10:48:38.917Z</time></trkpt><trkpt lat="43.7213724" lon="10.3915595"><ele>5.0</ele><time>2026-03-25T10:48:39.918Z</time></trkpt><trkpt lat="43.7212969" lon="10.3914961"><ele>5.0</ele><time>2026-03-25T10:48:40.916Z</time></trkpt><trkpt lat="43.7212145" lon="10.3914321"><ele>5.0</ele><time>2026-03-25T10:48:41.918Z</time></trkpt><trkpt lat="43.7211221" lon="10.3913688"><ele>5.0</ele><time>2026-03-25T10:48:42.918Z</time></trkpt><trkpt lat="43.7210156" lon="10.3913035"><ele>5.2</ele><time>2026-03-25T10:48:43.917Z</time></trkpt><trkpt lat="43.7209108" lon="10.3912402"><ele>5.4</ele><time>2026-03-25T10:48:44.918Z</time></trkpt><trkpt lat="43.7208132" lon="10.3911765"><ele>5.6</ele><time>2026-03-25T10:48:45.918Z</time></trkpt><trkpt lat="43.7207192" lon="10.3911117"><ele>5.8</ele><time>2026-03-25T10:48:46.916Z</time></trkpt><trkpt lat="43.720629" lon="10.3910485"><ele>6.0</ele><time>2026-03-25T10:48:47.918Z</time></trkpt><trkpt lat="43.7205407" lon="10.3909881"><ele>6.0</ele><time>2026-03-25T10:48:48.917Z</time></trkpt><trkpt lat="43.7204596" lon="10.3909338"><ele>6.0</ele><time>2026-03-25T10:48:49.917Z</time></trkpt><trkpt lat="43.7203777" lon="10.3908776"><ele>6.0</ele><time>2026-03-25T10:48:50.916Z</time></trkpt><trkpt lat="43.7202908" lon="10.3908181"><ele>6.0</ele><time>2026-03-25T10:48:51.917Z</time></trkpt><trkpt lat="43.7202063" lon="10.3907592"><ele>6.0</ele><time>2026-03-25T10:48:52.917Z</time></trkpt><trkpt lat="43.7201146" lon="10.3906948"><ele>5.6</ele><time>2026-03-25T10:48:53.918Z</time></trkpt><trkpt lat="43.7200123" lon="10.3906264"><ele>5.199999999999999</ele><time>2026-03-25T10:48:54.918Z</time></trkpt><trkpt lat="43.7199116" lon="10.3905611"><ele>4.800000000000001</ele><time>2026-03-25T10:48:55.917Z</time></trkpt><trkpt lat="43.7198208" lon="10.3905004"><ele>4.4</ele><time>2026-03-25T10:48:56.917Z</time></trkpt><trkpt lat="43.7197438" lon="10.3904497"><ele>4.0</ele><time>2026-03-25T10:48:57.918Z</time></trkpt><trkpt lat="43.7196706" lon="10.3904029"><ele>3.9999999999999996</ele><time>2026-03-25T10:48:58.918Z</time></trkpt><trkpt lat="43.7196047" lon="10.3903598"><ele>4.0</ele><time>2026-03-25T10:48:59.917Z</time></trkpt><trkpt lat="43.7195453" lon="10.3903194"><ele>4.0</ele><time>2026-03-25T10:49:00.918Z</time></trkpt><trkpt lat="43.7194883" lon="10.3902819"><ele>4.0</ele><time>2026-03-25T10:49:01.917Z</time></trkpt><trkpt lat="43.7194311" lon="10.3902452"><ele>3.9999999999999996</ele><time>2026-03-25T10:49:02.917Z</time></trkpt><trkpt lat="43.7193238" lon="10.3901748"><ele>4.0</ele><time>2026-03-25T10:49:04.917Z</time></trkpt><trkpt lat="43.7192379" lon="10.3901191"><ele>3.9999999999999996</ele><time>2026-03-25T10:49:06.917Z</time></trkpt><trkpt lat="43.7191714" lon="10.3900839"><ele>4.0</ele><time>2026-03-25T10:49:09.916Z</time></trkpt><trkpt lat="43.7191053" lon="10.3900313"><ele>4.0</ele><time>2026-03-25T10:49:16.917Z</time></trkpt><trkpt lat="43.7190227" lon="10.3899712"><ele>4.0</ele><time>2026-03-25T10:49:18.917Z</time></trkpt><trkpt lat="43.7189172" lon="10.3898971"><ele>3.9999999999999996</ele><time>2026-03-25T10:49:20.917Z</time></trkpt><trkpt lat="43.7188479" lon="10.3898556"><ele>4.0</ele><time>2026-03-25T10:49:21.917Z</time></trkpt><trkpt lat="43.7187756" lon="10.3898107"><ele>3.9999999999999996</ele><time>2026-03-25T10:49:22.917Z</time></trkpt><trkpt lat="43.7187053" lon="10.3897661"><ele>4.0</ele><time>2026-03-25T10:49:23.916Z</time></trkpt><trkpt lat="43.7186387" lon="10.3897292"><ele>4.0</ele><time>2026-03-25T10:49:24.916Z</time></trkpt><trkpt lat="43.7185712" lon="10.3896914"><ele>4.0</ele><time>2026-03-25T10:49:25.917Z</time></trkpt><trkpt lat="43.718495" lon="10.3896439"><ele>3.9999999999999996</ele><time>2026-03-25T10:49:26.917Z</time></trkpt><trkpt lat="43.718404" lon="10.3895853"><ele>4.0</ele><time>2026-03-25T10:49:27.916Z</time></trkpt><trkpt lat="43.718301" lon="10.3895111"><ele>3.8000000000000003</ele><time>2026-03-25T10:49:28.918Z</time></trkpt><trkpt lat="43.7182043" lon="10.3894413"><ele>3.6000000000000005</ele><time>2026-03-25T10:49:29.917Z</time></trkpt><trkpt lat="43.7181075" lon="10.3893719"><ele>3.4</ele><time>2026-03-25T10:49:30.917Z</time></trkpt><trkpt lat="43.718008" lon="10.389303"><ele>3.2</ele><time>2026-03-25T10:49:31.917Z</time></trkpt><trkpt lat="43.717914" lon="10.3892396"><ele>3.0</ele><time>2026-03-25T10:49:32.917Z</time></trkpt><trkpt lat="43.7178271" lon="10.389182"><ele>3.0</ele><time>2026-03-25T10:49:33.917Z</time></trkpt><trkpt lat="43.7177437" lon="10.3891262"><ele>3.0</ele><time>2026-03-25T10:49:34.917Z</time></trkpt><trkpt lat="43.7176613" lon="10.3890695"><ele>3.0</ele><time>2026-03-25T10:49:35.916Z</time></trkpt><trkpt lat="43.7175682" lon="10.3890076"><ele>3.0</ele><time>2026-03-25T10:49:36.917Z</time></trkpt><trkpt lat="43.7174709" lon="10.3889454"><ele>3.0</ele><time>2026-03-25T10:49:37.917Z</time></trkpt><trkpt lat="43.7173589" lon="10.3888715"><ele>2.75</ele><time>2026-03-25T10:49:38.917Z</time></trkpt><trkpt lat="43.7172286" lon="10.3887867"><ele>2.5</ele><time>2026-03-25T10:49:39.918Z</time></trkpt><trkpt lat="43.717094" lon="10.3887003"><ele>2.25</ele><time>2026-03-25T10:49:40.917Z</time></trkpt><trkpt lat="43.7169654" lon="10.3886162"><ele>2.0</ele><time>2026-03-25T10:49:41.917Z</time></trkpt><trkpt lat="43.7168495" lon="10.3885366"><ele>2.6</ele><time>2026-03-25T10:49:42.917Z</time></trkpt><trkpt lat="43.7167455" lon="10.3884634"><ele>3.2</ele><time>2026-03-25T10:49:43.917Z</time></trkpt><trkpt lat="43.7166467" lon="10.3883929"><ele>3.8</ele><time>2026-03-25T10:49:44.918Z</time></trkpt><trkpt lat="43.7165513" lon="10.3883263"><ele>4.4</ele><time>2026-03-25T10:49:45.917Z</time></trkpt><trkpt lat="43.7164603" lon="10.3882664"><ele>5.0</ele><time>2026-03-25T10:49:46.916Z</time></trkpt><trkpt lat="43.7163593" lon="10.3882042"><ele>5.0</ele><time>2026-03-25T10:49:47.916Z</time></trkpt><trkpt lat="43.7162551" lon="10.3881376"><ele>5.0</ele><time>2026-03-25T10:49:48.917Z</time></trkpt><trkpt lat="43.7161446" lon="10.3880596"><ele>5.0</ele><time>2026-03-25T10:49:49.916Z</time></trkpt><trkpt lat="43.7160299" lon="10.3879798"><ele>5.0</ele><time>2026-03-25T10:49:50.916Z</time></trkpt><trkpt lat="43.715914" lon="10.3879089"><ele>4.5</ele><time>2026-03-25T10:49:51.917Z</time></trkpt><trkpt lat="43.7157947" lon="10.3878554"><ele>4.0</ele><time>2026-03-25T10:49:52.917Z</time></trkpt><trkpt lat="43.715681" lon="10.3878241"><ele>3.5</ele><time>2026-03-25T10:49:53.916Z</time></trkpt><trkpt lat="43.7155647" lon="10.387811"><ele>3.0</ele><time>2026-03-25T10:49:54.916Z</time></trkpt><trkpt lat="43.7154441" lon="10.3878252"><ele>3.0</ele><time>2026-03-25T10:49:55.917Z</time></trkpt><trkpt lat="43.7153311" lon="10.3878601"><ele>3.0</ele><time>2026-03-25T10:49:56.916Z</time></trkpt><trkpt lat="43.7152211" lon="10.3879042"><ele>3.0</ele><time>2026-03-25T10:49:57.917Z</time></trkpt><trkpt lat="43.7151096" lon="10.3879568"><ele>3.0</ele><time>2026-03-25T10:49:58.918Z</time></trkpt><trkpt lat="43.7149936" lon="10.3880143"><ele>3.5999999999999996</ele><time>2026-03-25T10:49:59.917Z</time></trkpt><trkpt lat="43.7148765" lon="10.3880691"><ele>4.199999999999999</ele><time>2026-03-25T10:50:00.918Z</time></trkpt><trkpt lat="43.7147708" lon="10.3881195"><ele>4.8</ele><time>2026-03-25T10:50:01.917Z</time></trkpt><trkpt lat="43.7146705" lon="10.3881709"><ele>5.3999999999999995</ele><time>2026-03-25T10:50:02.917Z</time></trkpt><trkpt lat="43.7145722" lon="10.3882238"><ele>6.0</ele><time>2026-03-25T10:50:03.917Z</time></trkpt><trkpt lat="43.7144811" lon="10.3882783"><ele>5.3999999999999995</ele><time>2026-03-25T10:50:04.916Z</time></trkpt><trkpt lat="43.7143921" lon="10.3883289"><ele>4.8</ele><time>2026-03-25T10:50:05.917Z</time></trkpt><trkpt lat="43.7142986" lon="10.3883751"><ele>4.199999999999999</ele><time>2026-03-25T10:50:06.917Z</time></trkpt><trkpt lat="43.7142021" lon="10.3884173"><ele>3.5999999999999996</ele><time>2026-03-25T10:50:07.917Z</time></trkpt><trkpt lat="43.7141041" lon="10.3884613"><ele>3.0</ele><time>2026-03-25T10:50:08.917Z</time></trkpt><trkpt lat="43.7140102" lon="10.3885015"><ele>3.0</ele><time>2026-03-25T10:50:09.917Z</time></trkpt><trkpt lat="43.713913" lon="10.3885437"><ele>3.0</ele><time>2026-03-25T10:50:10.917Z</time></trkpt><trkpt lat="43.713813" lon="10.3885891"><ele>3.0</ele><time>2026-03-25T10:50:11.916Z</time></trkpt><trkpt lat="43.7137238" lon="10.388628"><ele>3.0</ele><time>2026-03-25T10:50:12.917Z</time></trkpt><trkpt lat="43.7136499" lon="10.3886584"><ele>3.0</ele><time>2026-03-25T10:50:13.918Z</time></trkpt><trkpt lat="43.713582" lon="10.3886894"><ele>3.0</ele><time>2026-03-25T10:50:14.916Z</time></trkpt><trkpt lat="43.7135186" lon="10.388727"><ele>3.0</ele><time>2026-03-25T10:50:15.917Z</time></trkpt><trkpt lat="43.7134604" lon="10.3887736"><ele>3.0</ele><time>2026-03-25T10:50:16.916Z</time></trkpt><trkpt lat="43.7133979" lon="10.3888891"><ele>3.0</ele><time>2026-03-25T10:50:18.916Z</time></trkpt><trkpt lat="43.7134047" lon="10.3890341"><ele>3.0</ele><time>2026-03-25T10:50:20.916Z</time></trkpt><trkpt lat="43.7134303" lon="10.3891149"><ele>3.0</ele><time>2026-03-25T10:50:21.917Z</time></trkpt><trkpt lat="43.7134711" lon="10.3892112"><ele>3.0</ele><time>2026-03-25T10:50:22.917Z</time></trkpt><trkpt lat="43.7135165" lon="10.3893189"><ele>3.0</ele><time>2026-03-25T10:50:23.917Z</time></trkpt><trkpt lat="43.7135627" lon="10.3894289"><ele>3.0</ele><time>2026-03-25T10:50:24.916Z</time></trkpt><trkpt lat="43.7136047" lon="10.3895248"><ele>3.0</ele><time>2026-03-25T10:50:25.916Z</time></trkpt><trkpt lat="43.713641" lon="10.3896099"><ele>3.0</ele><time>2026-03-25T10:50:26.917Z</time></trkpt><trkpt lat="43.7136846" lon="10.3897494"><ele>3.0</ele><time>2026-03-25T10:50:28.917Z</time></trkpt><trkpt lat="43.7136911" lon="10.3898732"><ele>3.0</ele><time>2026-03-25T10:50:30.917Z</time></trkpt><trkpt lat="43.713696" lon="10.390004"><ele>3.0</ele><time>2026-03-25T10:50:32.917Z</time></trkpt><trkpt lat="43.7137601" lon="10.3901041"><ele>3.0</ele><time>2026-03-25T10:50:34.918Z</time></trkpt><trkpt lat="43.7138128" lon="10.3901535"><ele>3.0</ele><time>2026-03-25T10:50:35.918Z</time></trkpt><trkpt lat="43.713867" lon="10.3902194"><ele>3.0</ele><time>2026-03-25T10:50:36.918Z</time></trkpt><trkpt lat="43.7139122" lon="10.3902943"><ele>3.0</ele><time>2026-03-25T10:50:37.916Z</time></trkpt><trkpt lat="43.7139492" lon="10.3903849"><ele>3.0</ele><time>2026-03-25T10:50:38.917Z</time></trkpt><trkpt lat="43.7139721" lon="10.3904903"><ele>3.3333333333333335</ele><time>2026-03-25T10:50:39.917Z</time></trkpt><trkpt lat="43.7139861" lon="10.3906042"><ele>3.666666666666667</ele><time>2026-03-25T10:50:40.916Z</time></trkpt><trkpt lat="43.713991" lon="10.3907132"><ele>4.0</ele><time>2026-03-25T10:50:41.916Z</time></trkpt><trkpt lat="43.713988" lon="10.3908238"><ele>4.333333333333334</ele><time>2026-03-25T10:50:42.917Z</time></trkpt><trkpt lat="43.7139777" lon="10.3909333"><ele>4.666666666666667</ele><time>2026-03-25T10:50:43.916Z</time></trkpt><trkpt lat="43.7139698" lon="10.3910277"><ele>5.0</ele><time>2026-03-25T10:50:44.917Z</time></trkpt><trkpt lat="43.7139717" lon="10.3911157"><ele>5.0</ele><time>2026-03-25T10:50:45.917Z</time></trkpt><trkpt lat="43.713983" lon="10.3912052"><ele>5.0</ele><time>2026-03-25T10:50:46.917Z</time></trkpt><trkpt lat="43.713999" lon="10.3912952"><ele>5.0</ele><time>2026-03-25T10:50:47.917Z</time></trkpt><trkpt lat="43.7140171" lon="10.3913901"><ele>5.0</ele><time>2026-03-25T10:50:48.916Z</time></trkpt><trkpt lat="43.7140372" lon="10.391483"><ele>5.0</ele><time>2026-03-25T10:50:49.917Z</time></trkpt><trkpt lat="43.7140627" lon="10.3915807"><ele>5.0</ele><time>2026-03-25T10:50:50.916Z</time></trkpt><trkpt lat="43.7140945" lon="10.3916889"><ele>5.0</ele><time>2026-03-25T10:50:51.916Z</time></trkpt><trkpt lat="43.7141298" lon="10.391797"><ele>5.0</ele><time>2026-03-25T10:50:52.918Z</time></trkpt><trkpt lat="43.7141697" lon="10.3919054"><ele>5.0</ele><time>2026-03-25T10:50:53.916Z</time></trkpt><trkpt lat="43.7142133" lon="10.3920159"><ele>5.0</ele><time>2026-03-25T10:50:54.918Z</time></trkpt><trkpt lat="43.7142584" lon="10.3921231"><ele>5.0</ele><time>2026-03-25T10:50:55.917Z</time></trkpt><trkpt lat="43.7143059" lon="10.392231"><ele>5.0</ele><time>2026-03-25T10:50:56.917Z</time></trkpt><trkpt lat="43.7143526" lon="10.3923347"><ele>5.0</ele><time>2026-03-25T10:50:57.917Z</time></trkpt><trkpt lat="43.7143982" lon="10.3924401"><ele>5.0</ele><time>2026-03-25T10:50:58.917Z</time></trkpt><trkpt lat="43.7144451" lon="10.3925453"><ele>5.0</ele><time>2026-03-25T10:50:59.916Z</time></trkpt><trkpt lat="43.7144892" lon="10.3926465"><ele>5.0</ele><time>2026-03-25T10:51:00.917Z</time></trkpt><trkpt lat="43.7145324" lon="10.3927444"><ele>5.0</ele><time>2026-03-25T10:51:01.917Z</time></trkpt><trkpt lat="43.714578" lon="10.3928432"><ele>5.0</ele><time>2026-03-25T10:51:02.917Z</time></trkpt><trkpt lat="43.7146241" lon="10.3929403"><ele>5.0</ele><time>2026-03-25T10:51:03.917Z</time></trkpt><trkpt lat="43.7146719" lon="10.3930364"><ele>5.166666666666667</ele><time>2026-03-25T10:51:04.917Z</time></trkpt><trkpt lat="43.7147168" lon="10.3931281"><ele>5.333333333333334</ele><time>2026-03-25T10:51:05.917Z</time></trkpt><trkpt lat="43.7147603" lon="10.3932221"><ele>5.5</ele><time>2026-03-25T10:51:06.917Z</time></trkpt><trkpt lat="43.7148025" lon="10.3933106"><ele>5.666666666666667</ele><time>2026-03-25T10:51:07.916Z</time></trkpt><trkpt lat="43.7148412" lon="10.3933881"><ele>5.833333333333333</ele><time>2026-03-25T10:51:08.917Z</time></trkpt><trkpt lat="43.7149097" lon="10.3935272"><ele>6.0</ele><time>2026-03-25T10:51:10.917Z</time></trkpt><trkpt lat="43.7149761" lon="10.3936665"><ele>6.0</ele><time>2026-03-25T10:51:12.917Z</time></trkpt><trkpt lat="43.7150393" lon="10.3937971"><ele>6.0</ele><time>2026-03-25T10:51:14.918Z</time></trkpt><trkpt lat="43.7150994" lon="10.3939165"><ele>6.0</ele><time>2026-03-25T10:51:16.916Z</time></trkpt><trkpt lat="43.7151418" lon="10.3939921"><ele>6.0</ele><time>2026-03-25T10:51:18.916Z</time></trkpt><trkpt lat="43.7152041" lon="10.3940915"><ele>6.0</ele><time>2026-03-25T10:51:22.917Z</time></trkpt><trkpt lat="43.7152701" lon="10.3942026"><ele>6.0</ele><time>2026-03-25T10:51:24.917Z</time></trkpt><trkpt lat="43.7153377" lon="10.394328"><ele>6.0</ele><time>2026-03-25T10:51:26.917Z</time></trkpt><trkpt lat="43.7153923" lon="10.3944398"><ele>6.0</ele><time>2026-03-25T10:51:28.917Z</time></trkpt><trkpt lat="43.7154239" lon="10.3945173"><ele>6.0</ele><time>2026-03-25T10:51:30.916Z</time></trkpt><trkpt lat="43.7154881" lon="10.3946679"><ele>6.0</ele><time>2026-03-25T10:51:52.918Z</time></trkpt><trkpt lat="43.7155356" lon="10.3947738"><ele>6.666666666666667</ele><time>2026-03-25T10:51:53.916Z</time></trkpt><trkpt lat="43.7155709" lon="10.3948518"><ele>7.333333333333334</ele><time>2026-03-25T10:51:54.917Z</time></trkpt><trkpt lat="43.7156339" lon="10.395"><ele>8.0</ele><time>2026-03-25T10:51:56.916Z</time></trkpt><trkpt lat="43.7156665" lon="10.3950858"><ele>8.666666666666668</ele><time>2026-03-25T10:51:57.917Z</time></trkpt><trkpt lat="43.7157039" lon="10.395186"><ele>9.333333333333334</ele><time>2026-03-25T10:51:58.916Z</time></trkpt><trkpt lat="43.7157473" lon="10.3953092"><ele>10.0</ele><time>2026-03-25T10:51:59.917Z</time></trkpt><trkpt lat="43.7157957" lon="10.3954453"><ele>10.4</ele><time>2026-03-25T10:52:00.916Z</time></trkpt><trkpt lat="43.7158416" lon="10.3955722"><ele>10.8</ele><time>2026-03-25T10:52:01.917Z</time></trkpt><trkpt lat="43.7158857" lon="10.3956981"><ele>11.2</ele><time>2026-03-25T10:52:02.917Z</time></trkpt><trkpt lat="43.7159317" lon="10.3958332"><ele>11.6</ele><time>2026-03-25T10:52:03.917Z</time></trkpt><trkpt lat="43.7159778" lon="10.3959747"><ele>12.0</ele><time>2026-03-25T10:52:04.917Z</time></trkpt><trkpt lat="43.7160218" lon="10.3961198"><ele>12.0</ele><time>2026-03-25T10:52:05.917Z</time></trkpt><trkpt lat="43.716063" lon="10.3962657"><ele>12.0</ele><time>2026-03-25T10:52:06.917Z</time></trkpt><trkpt lat="43.7161017" lon="10.3964052"><ele>12.0</ele><time>2026-03-25T10:52:07.917Z</time></trkpt><trkpt lat="43.716137" lon="10.3965375"><ele>12.0</ele><time>2026-03-25T10:52:08.916Z</time></trkpt><trkpt lat="43.7161666" lon="10.3966603"><ele>12.0</ele><time>2026-03-25T10:52:09.916Z</time></trkpt><trkpt lat="43.7161944" lon="10.3967835"><ele>11.4</ele><time>2026-03-25T10:52:10.916Z</time></trkpt><trkpt lat="43.7162239" lon="10.3969124"><ele>10.799999999999999</ele><time>2026-03-25T10:52:11.917Z</time></trkpt><trkpt lat="43.7162526" lon="10.3970411"><ele>10.2</ele><time>2026-03-25T10:52:12.917Z</time></trkpt><trkpt lat="43.7162791" lon="10.3971656"><ele>9.6</ele><time>2026-03-25T10:52:13.917Z</time></trkpt><trkpt lat="43.7163024" lon="10.3972867"><ele>9.0</ele><time>2026-03-25T10:52:14.916Z</time></trkpt><trkpt lat="43.716325" lon="10.3974063"><ele>9.2</ele><time>2026-03-25T10:52:15.918Z</time></trkpt><trkpt lat="43.7163483" lon="10.3975286"><ele>9.4</ele><time>2026-03-25T10:52:16.917Z</time></trkpt><trkpt lat="43.7163709" lon="10.3976481"><ele>9.6</ele><time>2026-03-25T10:52:17.916Z</time></trkpt><trkpt lat="43.7163948" lon="10.3977702"><ele>9.8</ele><time>2026-03-25T10:52:18.917Z</time></trkpt><trkpt lat="43.7164202" lon="10.3979002"><ele>10.0</ele><time>2026-03-25T10:52:19.916Z</time></trkpt><trkpt lat="43.7164467" lon="10.3980317"><ele>10.0</ele><time>2026-03-25T10:52:20.916Z</time></trkpt><trkpt lat="43.7164747" lon="10.3981634"><ele>10.0</ele><time>2026-03-25T10:52:21.916Z</time></trkpt><trkpt lat="43.7165044" lon="10.3982985"><ele>10.0</ele><time>2026-03-25T10:52:22.917Z</time></trkpt><trkpt lat="43.7165319" lon="10.3984355"><ele>10.0</ele><time>2026-03-25T10:52:23.916Z</time></trkpt><trkpt lat="43.716554" lon="10.398571"><ele>10.0</ele><time>2026-03-25T10:52:24.917Z</time></trkpt><trkpt lat="43.7165718" lon="10.398696"><ele>10.0</ele><time>2026-03-25T10:52:25.916Z</time></trkpt><trkpt lat="43.716587" lon="10.3988165"><ele>10.0</ele><time>2026-03-25T10:52:26.917Z</time></trkpt><trkpt lat="43.7165991" lon="10.3989363"><ele>10.0</ele><time>2026-03-25T10:52:27.916Z</time></trkpt><trkpt lat="43.7166077" lon="10.3990319"><ele>10.0</ele><time>2026-03-25T10:52:28.917Z</time></trkpt><trkpt lat="43.7166149" lon="10.3991185"><ele>10.0</ele><time>2026-03-25T10:52:30.917Z</time></trkpt><trkpt lat="43.7166288" lon="10.3992513"><ele>10.0</ele><time>2026-03-25T10:52:35.916Z</time></trkpt><trkpt lat="43.7166396" lon="10.3993782"><ele>10.0</ele><time>2026-03-25T10:52:37.916Z</time></trkpt><trkpt lat="43.7166449" lon="10.3994689"><ele>10.0</ele><time>2026-03-25T10:52:38.918Z</time></trkpt><trkpt lat="43.71665" lon="10.399569"><ele>10.0</ele><time>2026-03-25T10:52:39.916Z</time></trkpt><trkpt lat="43.7166538" lon="10.3996689"><ele>10.0</ele><time>2026-03-25T10:52:40.916Z</time></trkpt><trkpt lat="43.7166552" lon="10.3997715"><ele>10.0</ele><time>2026-03-25T10:52:41.917Z</time></trkpt><trkpt lat="43.716652" lon="10.3998858"><ele>10.0</ele><time>2026-03-25T10:52:42.917Z</time></trkpt><trkpt lat="43.7166461" lon="10.4000195"><ele>10.0</ele><time>2026-03-25T10:52:43.917Z</time></trkpt><trkpt lat="43.7166396" lon="10.4001537"><ele>10.0</ele><time>2026-03-25T10:52:44.917Z</time></trkpt><trkpt lat="43.7166317" lon="10.4002832"><ele>10.0</ele><time>2026-03-25T10:52:45.917Z</time></trkpt><trkpt lat="43.7166208" lon="10.4004157"><ele>10.0</ele><time>2026-03-25T10:52:46.917Z</time></trkpt><trkpt lat="43.7166074" lon="10.4005491"><ele>10.0</ele><time>2026-03-25T10:52:47.917Z</time></trkpt><trkpt lat="43.7165925" lon="10.4006792"><ele>10.5</ele><time>2026-03-25T10:52:48.917Z</time></trkpt><trkpt lat="43.716577" lon="10.4008016"><ele>11.0</ele><time>2026-03-25T10:52:49.916Z</time></trkpt><trkpt lat="43.7165636" lon="10.400904"><ele>11.5</ele><time>2026-03-25T10:52:50.916Z</time></trkpt><trkpt lat="43.7165455" lon="10.4010162"><ele>12.0</ele><time>2026-03-25T10:52:52.916Z</time></trkpt><trkpt lat="43.7165231" lon="10.4011317"><ele>12.499999999999998</ele><time>2026-03-25T10:52:55.917Z</time></trkpt><trkpt lat="43.7164949" lon="10.4012459"><ele>13.0</ele><time>2026-03-25T10:52:57.918Z</time></trkpt><trkpt lat="43.7164659" lon="10.4013757"><ele>13.2</ele><time>2026-03-25T10:52:59.918Z</time></trkpt><trkpt lat="43.7164392" lon="10.4015112"><ele>13.4</ele><time>2026-03-25T10:53:01.917Z</time></trkpt><trkpt lat="43.7164127" lon="10.4016554"><ele>13.599999999999998</ele><time>2026-03-25T10:53:03.917Z</time></trkpt><trkpt lat="43.7163969" lon="10.4017424"><ele>13.799999999999999</ele><time>2026-03-25T10:53:04.916Z</time></trkpt><trkpt lat="43.7163579" lon="10.4019009"><ele>14.0</ele><time>2026-03-25T10:53:06.917Z</time></trkpt><trkpt lat="43.7163242" lon="10.4020303"><ele>14.000000000000002</ele><time>2026-03-25T10:53:08.918Z</time></trkpt><trkpt lat="43.7162968" lon="10.4021288"><ele>14.0</ele><time>2026-03-25T10:53:10.917Z</time></trkpt><trkpt lat="43.7162706" lon="10.4022355"><ele>14.0</ele><time>2026-03-25T10:53:12.916Z</time></trkpt><trkpt lat="43.7162317" lon="10.4023688"><ele>14.0</ele><time>2026-03-25T10:53:14.917Z</time></trkpt><trkpt lat="43.7162083" lon="10.4024549"><ele>14.000000000000002</ele><time>2026-03-25T10:53:15.916Z</time></trkpt><trkpt lat="43.7161847" lon="10.4025417"><ele>14.0</ele><time>2026-03-25T10:53:16.916Z</time></trkpt><trkpt lat="43.7161613" lon="10.4026291"><ele>13.857142857142858</ele><time>2026-03-25T10:53:17.917Z</time></trkpt><trkpt lat="43.7161383" lon="10.402719"><ele>13.714285714285715</ele><time>2026-03-25T10:53:18.917Z</time></trkpt><trkpt lat="43.7161129" lon="10.402809"><ele>13.571428571428571</ele><time>2026-03-25T10:53:19.917Z</time></trkpt><trkpt lat="43.7160841" lon="10.4029012"><ele>13.428571428571429</ele><time>2026-03-25T10:53:20.916Z</time></trkpt><trkpt lat="43.7160582" lon="10.4029924"><ele>13.285714285714286</ele><time>2026-03-25T10:53:21.917Z</time></trkpt><trkpt lat="43.7160313" lon="10.4030869"><ele>13.142857142857142</ele><time>2026-03-25T10:53:22.917Z</time></trkpt><trkpt lat="43.7160002" lon="10.4031882"><ele>13.0</ele><time>2026-03-25T10:53:23.916Z</time></trkpt><trkpt lat="43.7159686" lon="10.4032868"><ele>12.666666666666666</ele><time>2026-03-25T10:53:24.917Z</time></trkpt><trkpt lat="43.7159399" lon="10.4033852"><ele>12.333333333333332</ele><time>2026-03-25T10:53:25.918Z</time></trkpt><trkpt lat="43.7159105" lon="10.4034872"><ele>12.0</ele><time>2026-03-25T10:53:26.917Z</time></trkpt><trkpt lat="43.7158795" lon="10.4035888"><ele>11.666666666666666</ele><time>2026-03-25T10:53:27.917Z</time></trkpt><trkpt lat="43.7158489" lon="10.4036924"><ele>11.333333333333332</ele><time>2026-03-25T10:53:28.916Z</time></trkpt><trkpt lat="43.7158218" lon="10.4037874"><ele>11.0</ele><time>2026-03-25T10:53:29.917Z</time></trkpt><trkpt lat="43.7157963" lon="10.4038823"><ele>11.0</ele><time>2026-03-25T10:53:30.918Z</time></trkpt><trkpt lat="43.7157727" lon="10.4039794"><ele>11.0</ele><time>2026-03-25T10:53:31.917Z</time></trkpt><trkpt lat="43.7157523" lon="10.4040681"><ele>11.0</ele><time>2026-03-25T10:53:32.917Z</time></trkpt><trkpt lat="43.7157319" lon="10.4041532"><ele>11.0</ele><time>2026-03-25T10:53:33.918Z</time></trkpt><trkpt lat="43.7157102" lon="10.4042364"><ele>11.0</ele><time>2026-03-25T10:53:34.918Z</time></trkpt><trkpt lat="43.7156649" lon="10.40439"><ele>11.0</ele><time>2026-03-25T10:53:36.916Z</time></trkpt><trkpt lat="43.7156179" lon="10.4045457"><ele>11.0</ele><time>2026-03-25T10:53:38.916Z</time></trkpt><trkpt lat="43.7155845" lon="10.4046416"><ele>11.0</ele><time>2026-03-25T10:53:39.916Z</time></trkpt><trkpt lat="43.7155461" lon="10.4047522"><ele>11.0</ele><time>2026-03-25T10:53:40.917Z</time></trkpt><trkpt lat="43.7155038" lon="10.4048781"><ele>11.0</ele><time>2026-03-25T10:53:41.916Z</time></trkpt><trkpt lat="43.7154546" lon="10.4050199"><ele>11.0</ele><time>2026-03-25T10:53:42.916Z</time></trkpt><trkpt lat="43.7153997" lon="10.4051541"><ele>11.0</ele><time>2026-03-25T10:53:43.917Z</time></trkpt><trkpt lat="43.7153424" lon="10.4052857"><ele>11.0</ele><time>2026-03-25T10:53:44.916Z</time></trkpt><trkpt lat="43.7152903" lon="10.4054102"><ele>11.0</ele><time>2026-03-25T10:53:45.917Z</time></trkpt><trkpt lat="43.7152379" lon="10.4055375"><ele>11.0</ele><time>2026-03-25T10:53:46.917Z</time></trkpt><trkpt lat="43.7151823" lon="10.4056699"><ele>11.0</ele><time>2026-03-25T10:53:47.917Z</time></trkpt><trkpt lat="43.7151287" lon="10.4057959"><ele>11.0</ele><time>2026-03-25T10:53:48.917Z</time></trkpt><trkpt lat="43.715076" lon="10.4059219"><ele>11.0</ele><time>2026-03-25T10:53:49.916Z</time></trkpt><trkpt lat="43.7150178" lon="10.4060549"><ele>11.0</ele><time>2026-03-25T10:53:50.917Z</time></trkpt><trkpt lat="43.7149598" lon="10.406185"><ele>11.0</ele><time>2026-03-25T10:53:51.917Z</time></trkpt><trkpt lat="43.7148998" lon="10.4063188"><ele>11.0</ele><time>2026-03-25T10:53:52.917Z</time></trkpt><trkpt lat="43.7148485" lon="10.4064405"><ele>10.4</ele><time>2026-03-25T10:53:53.916Z</time></trkpt><trkpt lat="43.7147939" lon="10.4065613"><ele>9.8</ele><time>2026-03-25T10:53:54.916Z</time></trkpt><trkpt lat="43.7147386" lon="10.4066853"><ele>9.200000000000001</ele><time>2026-03-25T10:53:55.916Z</time></trkpt><trkpt lat="43.7146825" lon="10.4067996"><ele>8.600000000000001</ele><time>2026-03-25T10:53:56.916Z</time></trkpt><trkpt lat="43.7146294" lon="10.4069093"><ele>8.0</ele><time>2026-03-25T10:53:57.917Z</time></trkpt><trkpt lat="43.7145764" lon="10.4070235"><ele>8.0</ele><time>2026-03-25T10:53:58.917Z</time></trkpt><trkpt lat="43.7145252" lon="10.4071402"><ele>8.0</ele><time>2026-03-25T10:53:59.917Z</time></trkpt><trkpt lat="43.71447" lon="10.407262"><ele>8.0</ele><time>2026-03-25T10:54:00.917Z</time></trkpt><trkpt lat="43.7144208" lon="10.4073776"><ele>8.0</ele><time>2026-03-25T10:54:01.917Z</time></trkpt><trkpt lat="43.7143721" lon="10.4074861"><ele>8.0</ele><time>2026-03-25T10:54:02.916Z</time></trkpt><trkpt lat="43.7143247" lon="10.4075904"><ele>8.166666666666666</ele><time>2026-03-25T10:54:03.917Z</time></trkpt><trkpt lat="43.7142807" lon="10.4076831"><ele>8.333333333333332</ele><time>2026-03-25T10:54:04.916Z</time></trkpt><trkpt lat="43.7142393" lon="10.4077696"><ele>8.5</ele><time>2026-03-25T10:54:05.916Z</time></trkpt><trkpt lat="43.7142004" lon="10.4078524"><ele>8.666666666666666</ele><time>2026-03-25T10:54:06.916Z</time></trkpt><trkpt lat="43.714139" lon="10.4079955"><ele>8.833333333333334</ele><time>2026-03-25T10:54:08.917Z</time></trkpt><trkpt lat="43.7140877" lon="10.4081118"><ele>9.0</ele><time>2026-03-25T10:54:10.917Z</time></trkpt><trkpt lat="43.7140413" lon="10.4082153"><ele>9.0</ele><time>2026-03-25T10:54:12.918Z</time></trkpt><trkpt lat="43.7140043" lon="10.4083043"><ele>9.0</ele><time>2026-03-25T10:54:14.917Z</time></trkpt><trkpt lat="43.7139641" lon="10.4083984"><ele>9.0</ele><time>2026-03-25T10:54:16.917Z</time></trkpt><trkpt lat="43.7139085" lon="10.408532"><ele>9.0</ele><time>2026-03-25T10:54:18.916Z</time></trkpt><trkpt lat="43.7138729" lon="10.4086093"><ele>9.0</ele><time>2026-03-25T10:54:19.916Z</time></trkpt><trkpt lat="43.7138343" lon="10.4086854"><ele>9.0</ele><time>2026-03-25T10:54:20.916Z</time></trkpt><trkpt lat="43.7137908" lon="10.408761"><ele>8.833333333333334</ele><time>2026-03-25T10:54:21.917Z</time></trkpt><trkpt lat="43.7137372" lon="10.4088392"><ele>8.666666666666666</ele><time>2026-03-25T10:54:22.917Z</time></trkpt><trkpt lat="43.7136734" lon="10.4089219"><ele>8.5</ele><time>2026-03-25T10:54:23.917Z</time></trkpt><trkpt lat="43.7136012" lon="10.409005"><ele>8.333333333333332</ele><time>2026-03-25T10:54:24.917Z</time></trkpt><trkpt lat="43.713533" lon="10.4090752"><ele>8.166666666666666</ele><time>2026-03-25T10:54:25.917Z</time></trkpt><trkpt lat="43.713465" lon="10.4091413"><ele>8.0</ele><time>2026-03-25T10:54:26.917Z</time></trkpt><trkpt lat="43.7134043" lon="10.4091983"><ele>7.499999999999999</ele><time>2026-03-25T10:54:27.917Z</time></trkpt><trkpt lat="43.713336" lon="10.4092635"><ele>7.0</ele><time>2026-03-25T10:54:29.916Z</time></trkpt><trkpt lat="43.7132789" lon="10.4093028"><ele>6.5</ele><time>2026-03-25T10:54:32.916Z</time></trkpt><trkpt lat="43.7132045" lon="10.4093436"><ele>6.0</ele><time>2026-03-25T10:54:34.916Z</time></trkpt><trkpt lat="43.7130925" lon="10.4093992"><ele>5.5</ele><time>2026-03-25T10:54:36.917Z</time></trkpt><trkpt lat="43.7130316" lon="10.4094258"><ele>5.0</ele><time>2026-03-25T10:54:37.917Z</time></trkpt><trkpt lat="43.7129611" lon="10.4094507"><ele>5.0</ele><time>2026-03-25T10:54:38.917Z</time></trkpt><trkpt lat="43.7128842" lon="10.4094689"><ele>5.0</ele><time>2026-03-25T10:54:39.917Z</time></trkpt><trkpt lat="43.7127981" lon="10.4094783"><ele>5.0</ele><time>2026-03-25T10:54:40.917Z</time></trkpt><trkpt lat="43.7127121" lon="10.4094834"><ele>5.0</ele><time>2026-03-25T10:54:41.917Z</time></trkpt><trkpt lat="43.7126168" lon="10.4094842"><ele>5.0</ele><time>2026-03-25T10:54:42.917Z</time></trkpt><trkpt lat="43.7125121" lon="10.409485"><ele>5.0</ele><time>2026-03-25T10:54:43.918Z</time></trkpt><trkpt lat="43.7124089" lon="10.4094856"><ele>5.0</ele><time>2026-03-25T10:54:44.918Z</time></trkpt><trkpt lat="43.7123114" lon="10.4094867"><ele>5.0</ele><time>2026-03-25T10:54:45.917Z</time></trkpt><trkpt lat="43.712215" lon="10.4094895"><ele>5.0</ele><time>2026-03-25T10:54:46.917Z</time></trkpt><trkpt lat="43.71212" lon="10.4094909"><ele>5.0</ele><time>2026-03-25T10:54:47.916Z</time></trkpt><trkpt lat="43.7120233" lon="10.4094908"><ele>5.0</ele><time>2026-03-25T10:54:48.917Z</time></trkpt><trkpt lat="43.7119315" lon="10.4094908"><ele>5.0</ele><time>2026-03-25T10:54:49.917Z</time></trkpt><trkpt lat="43.7118389" lon="10.4094887"><ele>5.0</ele><time>2026-03-25T10:54:50.917Z</time></trkpt><trkpt lat="43.7117486" lon="10.4094854"><ele>5.0</ele><time>2026-03-25T10:54:51.917Z</time></trkpt><trkpt lat="43.7116658" lon="10.4094854"><ele>5.0</ele><time>2026-03-25T10:54:52.916Z</time></trkpt><trkpt lat="43.7115841" lon="10.4094847"><ele>5.0</ele><time>2026-03-25T10:54:53.917Z</time></trkpt><trkpt lat="43.7114985" lon="10.4094815"><ele>5.0</ele><time>2026-03-25T10:54:54.918Z</time></trkpt><trkpt lat="43.7114088" lon="10.4094776"><ele>5.0</ele><time>2026-03-25T10:54:55.917Z</time></trkpt><trkpt lat="43.7113191" lon="10.4094735"><ele>5.0</ele><time>2026-03-25T10:54:56.917Z</time></trkpt><trkpt lat="43.7112398" lon="10.4094702"><ele>5.0</ele><time>2026-03-25T10:54:57.917Z</time></trkpt><trkpt lat="43.7111647" lon="10.4094679"><ele>5.0</ele><time>2026-03-25T10:54:58.917Z</time></trkpt><trkpt lat="43.7110923" lon="10.4094656"><ele>5.0</ele><time>2026-03-25T10:54:59.917Z</time></trkpt><trkpt lat="43.7110248" lon="10.4094605"><ele>5.0</ele><time>2026-03-25T10:55:00.917Z</time></trkpt><trkpt lat="43.7109597" lon="10.4094543"><ele>5.0</ele><time>2026-03-25T10:55:01.917Z</time></trkpt><trkpt lat="43.71084" lon="10.4094506"><ele>5.0</ele><time>2026-03-25T10:55:03.917Z</time></trkpt><trkpt lat="43.7107255" lon="10.4094951"><ele>5.0</ele><time>2026-03-25T10:55:05.917Z</time></trkpt><trkpt lat="43.7106706" lon="10.4095416"><ele>5.0</ele><time>2026-03-25T10:55:06.916Z</time></trkpt><trkpt lat="43.7106188" lon="10.4096019"><ele>5.0</ele><time>2026-03-25T10:55:07.917Z</time></trkpt><trkpt lat="43.7105687" lon="10.4096653"><ele>5.666666666666667</ele><time>2026-03-25T10:55:08.917Z</time></trkpt><trkpt lat="43.7105181" lon="10.4097281"><ele>6.333333333333334</ele><time>2026-03-25T10:55:09.917Z</time></trkpt><trkpt lat="43.7104681" lon="10.4097901"><ele>7.0</ele><time>2026-03-25T10:55:10.917Z</time></trkpt><trkpt lat="43.7104204" lon="10.4098498"><ele>7.666666666666667</ele><time>2026-03-25T10:55:11.917Z</time></trkpt><trkpt lat="43.7103298" lon="10.4099649"><ele>8.333333333333334</ele><time>2026-03-25T10:55:13.916Z</time></trkpt><trkpt lat="43.7102313" lon="10.4100613"><ele>9.0</ele><time>2026-03-25T10:55:15.917Z</time></trkpt><trkpt lat="43.7101394" lon="10.4101025"><ele>9.0</ele><time>2026-03-25T10:55:17.916Z</time></trkpt><trkpt lat="43.7100765" lon="10.4101067"><ele>9.0</ele><time>2026-03-25T10:55:19.917Z</time></trkpt><trkpt lat="43.7099869" lon="10.4101071"><ele>9.0</ele><time>2026-03-25T10:55:21.916Z</time></trkpt><trkpt lat="43.7099087" lon="10.4101798"><ele>9.0</ele><time>2026-03-25T10:55:23.916Z</time></trkpt><trkpt lat="43.7098864" lon="10.4103281"><ele>9.0</ele><time>2026-03-25T10:55:25.917Z</time></trkpt><trkpt lat="43.7098941" lon="10.4104258"><ele>9.0</ele><time>2026-03-25T10:55:26.916Z</time></trkpt><trkpt lat="43.7099057" lon="10.4105279"><ele>8.5</ele><time>2026-03-25T10:55:27.916Z</time></trkpt><trkpt lat="43.7099124" lon="10.4106342"><ele>8.0</ele><time>2026-03-25T10:55:28.917Z</time></trkpt><trkpt lat="43.7099181" lon="10.4107414"><ele>7.5</ele><time>2026-03-25T10:55:29.918Z</time></trkpt><trkpt lat="43.7099175" lon="10.410851"><ele>7.0</ele><time>2026-03-25T10:55:30.917Z</time></trkpt><trkpt lat="43.7099139" lon="10.4109686"><ele>6.5</ele><time>2026-03-25T10:55:31.917Z</time></trkpt><trkpt lat="43.7099089" lon="10.4110877"><ele>6.0</ele><time>2026-03-25T10:55:32.916Z</time></trkpt><trkpt lat="43.7099028" lon="10.4112147"><ele>6.0</ele><time>2026-03-25T10:55:33.917Z</time></trkpt><trkpt lat="43.709899" lon="10.4113454"><ele>6.0</ele><time>2026-03-25T10:55:34.918Z</time></trkpt><trkpt lat="43.7098978" lon="10.4114728"><ele>6.0</ele><time>2026-03-25T10:55:35.917Z</time></trkpt><trkpt lat="43.7098985" lon="10.4115922"><ele>6.0</ele><time>2026-03-25T10:55:36.917Z</time></trkpt><trkpt lat="43.7099006" lon="10.4116977"><ele>6.0</ele><time>2026-03-25T10:55:37.918Z</time></trkpt><trkpt lat="43.7099041" lon="10.4117871"><ele>6.0</ele><time>2026-03-25T10:55:38.916Z</time></trkpt><trkpt lat="43.7098985" lon="10.4119084"><ele>6.0</ele><time>2026-03-25T10:55:40.916Z</time></trkpt><trkpt lat="43.7098525" lon="10.4119933"><ele>6.0</ele><time>2026-03-25T10:55:42.917Z</time></trkpt><trkpt lat="43.7097534" lon="10.4120486"><ele>6.0</ele><time>2026-03-25T10:55:44.918Z</time></trkpt><trkpt lat="43.7096897" lon="10.4120773"><ele>6.0</ele><time>2026-03-25T10:55:45.917Z</time></trkpt><trkpt lat="43.7096239" lon="10.4121214"><ele>6.0</ele><time>2026-03-25T10:55:46.916Z</time></trkpt><trkpt lat="43.7095555" lon="10.4121826"><ele>6.0</ele><time>2026-03-25T10:55:47.917Z</time></trkpt><trkpt lat="43.7094904" lon="10.4122547"><ele>6.0</ele><time>2026-03-25T10:55:48.917Z</time></trkpt><trkpt lat="43.7094223" lon="10.4123415"><ele>6.0</ele><time>2026-03-25T10:55:49.917Z</time></trkpt><trkpt lat="43.709347" lon="10.4124386"><ele>6.0</ele><time>2026-03-25T10:55:50.918Z</time></trkpt><trkpt lat="43.7092702" lon="10.4125279"><ele>6.0</ele><time>2026-03-25T10:55:51.917Z</time></trkpt><trkpt lat="43.7091941" lon="10.4126134"><ele>6.0</ele><time>2026-03-25T10:55:52.917Z</time></trkpt><trkpt lat="43.7091197" lon="10.4126889"><ele>6.199999999999999</ele><time>2026-03-25T10:55:53.916Z</time></trkpt><trkpt lat="43.709047" lon="10.412761"><ele>6.3999999999999995</ele><time>2026-03-25T10:55:54.916Z</time></trkpt><trkpt lat="43.7089723" lon="10.4128344"><ele>6.6</ele><time>2026-03-25T10:55:55.917Z</time></trkpt><trkpt lat="43.7089002" lon="10.4129064"><ele>6.8</ele><time>2026-03-25T10:55:56.916Z</time></trkpt><trkpt lat="43.7088205" lon="10.4129841"><ele>7.0</ele><time>2026-03-25T10:55:57.916Z</time></trkpt><trkpt lat="43.708733" lon="10.4130742"><ele>7.199999999999999</ele><time>2026-03-25T10:55:58.917Z</time></trkpt><trkpt lat="43.7086358" lon="10.4131675"><ele>7.3999999999999995</ele><time>2026-03-25T10:55:59.916Z</time></trkpt><trkpt lat="43.708541" lon="10.4132581"><ele>7.6000000000000005</ele><time>2026-03-25T10:56:00.916Z</time></trkpt><trkpt lat="43.7084555" lon="10.4133379"><ele>7.800000000000001</ele><time>2026-03-25T10:56:01.915Z</time></trkpt><trkpt lat="43.7083838" lon="10.4134079"><ele>8.0</ele><time>2026-03-25T10:56:02.916Z</time></trkpt><trkpt lat="43.7083241" lon="10.4134618"><ele>8.5</ele><time>2026-03-25T10:56:03.915Z</time></trkpt><trkpt lat="43.7082306" lon="10.4134917"><ele>9.0</ele><time>2026-03-25T10:56:05.915Z</time></trkpt><trkpt lat="43.7081624" lon="10.413445"><ele>9.5</ele><time>2026-03-25T10:56:07.916Z</time></trkpt><trkpt lat="43.708103" lon="10.4133395"><ele>10.0</ele><time>2026-03-25T10:56:09.916Z</time></trkpt><trkpt lat="43.7080691" lon="10.4132583"><ele>10.5</ele><time>2026-03-25T10:56:10.916Z</time></trkpt><trkpt lat="43.7080266" lon="10.4131521"><ele>11.0</ele><time>2026-03-25T10:56:11.916Z</time></trkpt><trkpt lat="43.707981" lon="10.4130464"><ele>10.833333333333332</ele><time>2026-03-25T10:56:12.916Z</time></trkpt><trkpt lat="43.707934" lon="10.4129402"><ele>10.666666666666666</ele><time>2026-03-25T10:56:13.917Z</time></trkpt><trkpt lat="43.7078877" lon="10.412831"><ele>10.5</ele><time>2026-03-25T10:56:14.917Z</time></trkpt><trkpt lat="43.7078425" lon="10.4127204"><ele>10.333333333333334</ele><time>2026-03-25T10:56:15.917Z</time></trkpt><trkpt lat="43.7078003" lon="10.4126212"><ele>10.166666666666668</ele><time>2026-03-25T10:56:16.916Z</time></trkpt><trkpt lat="43.7077618" lon="10.4125284"><ele>10.0</ele><time>2026-03-25T10:56:17.916Z</time></trkpt><trkpt lat="43.7077234" lon="10.4124426"><ele>10.0</ele><time>2026-03-25T10:56:18.915Z</time></trkpt><trkpt lat="43.7076874" lon="10.4123598"><ele>10.0</ele><time>2026-03-25T10:56:19.915Z</time></trkpt><trkpt lat="43.7076313" lon="10.4122166"><ele>10.0</ele><time>2026-03-25T10:56:21.916Z</time></trkpt><trkpt lat="43.7075906" lon="10.4120857"><ele>10.0</ele><time>2026-03-25T10:56:23.917Z</time></trkpt><trkpt lat="43.7075444" lon="10.4120164"><ele>10.0</ele><time>2026-03-25T10:56:25.916Z</time></trkpt><trkpt lat="43.7074805" lon="10.4120419"><ele>10.0</ele><time>2026-03-25T10:56:27.916Z</time></trkpt><trkpt lat="43.7073989" lon="10.4121536"><ele>10.0</ele><time>2026-03-25T10:56:29.916Z</time></trkpt><trkpt lat="43.7073565" lon="10.4122284"><ele>10.0</ele><time>2026-03-25T10:56:30.916Z</time></trkpt><trkpt lat="43.7073072" lon="10.412318"><ele>10.0</ele><time>2026-03-25T10:56:31.915Z</time></trkpt><trkpt lat="43.7072542" lon="10.4124125"><ele>10.0</ele><time>2026-03-25T10:56:32.915Z</time></trkpt><trkpt lat="43.7072034" lon="10.4125054"><ele>10.0</ele><time>2026-03-25T10:56:33.915Z</time></trkpt><trkpt lat="43.7071527" lon="10.4125969"><ele>10.0</ele><time>2026-03-25T10:56:34.916Z</time></trkpt><trkpt lat="43.7070988" lon="10.4126894"><ele>10.0</ele><time>2026-03-25T10:56:35.916Z</time></trkpt><trkpt lat="43.7070519" lon="10.4127828"><ele>10.0</ele><time>2026-03-25T10:56:36.915Z</time></trkpt><trkpt lat="43.7070026" lon="10.4128814"><ele>10.0</ele><time>2026-03-25T10:56:37.917Z</time></trkpt><trkpt lat="43.706954" lon="10.4129863"><ele>10.0</ele><time>2026-03-25T10:56:38.916Z</time></trkpt><trkpt lat="43.7069072" lon="10.4130972"><ele>10.0</ele><time>2026-03-25T10:56:39.915Z</time></trkpt><trkpt lat="43.7068631" lon="10.4132125"><ele>10.0</ele><time>2026-03-25T10:56:40.916Z</time></trkpt><trkpt lat="43.706821" lon="10.4133269"><ele>10.0</ele><time>2026-03-25T10:56:41.915Z</time></trkpt><trkpt lat="43.7067813" lon="10.413438"><ele>10.0</ele><time>2026-03-25T10:56:42.917Z</time></trkpt><trkpt lat="43.7067413" lon="10.413552"><ele>10.0</ele><time>2026-03-25T10:56:43.916Z</time></trkpt><trkpt lat="43.7067018" lon="10.4136629"><ele>10.0</ele><time>2026-03-25T10:56:44.916Z</time></trkpt><trkpt lat="43.7066613" lon="10.4137811"><ele>10.0</ele><time>2026-03-25T10:56:45.917Z</time></trkpt><trkpt lat="43.706621" lon="10.4139035"><ele>10.2</ele><time>2026-03-25T10:56:46.915Z</time></trkpt><trkpt lat="43.706581" lon="10.4140223"><ele>10.4</ele><time>2026-03-25T10:56:47.916Z</time></trkpt><trkpt lat="43.7065436" lon="10.4141406"><ele>10.600000000000001</ele><time>2026-03-25T10:56:48.915Z</time></trkpt><trkpt lat="43.7065087" lon="10.4142617"><ele>10.8</ele><time>2026-03-25T10:56:49.917Z</time></trkpt><trkpt lat="43.7064777" lon="10.4143845"><ele>11.0</ele><time>2026-03-25T10:56:50.916Z</time></trkpt><trkpt lat="43.7064477" lon="10.4145116"><ele>11.0</ele><time>2026-03-25T10:56:51.916Z</time></trkpt><trkpt lat="43.7064181" lon="10.4146322"><ele>11.0</ele><time>2026-03-25T10:56:52.916Z</time></trkpt><trkpt lat="43.7063914" lon="10.4147577"><ele>11.0</ele><time>2026-03-25T10:56:53.916Z</time></trkpt><trkpt lat="43.7063644" lon="10.4148846"><ele>11.0</ele><time>2026-03-25T10:56:54.916Z</time></trkpt><trkpt lat="43.7063399" lon="10.415014"><ele>11.0</ele><time>2026-03-25T10:56:55.916Z</time></trkpt><trkpt lat="43.7063129" lon="10.4151434"><ele>10.600000000000001</ele><time>2026-03-25T10:56:56.915Z</time></trkpt><trkpt lat="43.7062943" lon="10.4152759"><ele>10.200000000000001</ele><time>2026-03-25T10:56:57.916Z</time></trkpt><trkpt lat="43.7062712" lon="10.4154087"><ele>9.8</ele><time>2026-03-25T10:56:58.916Z</time></trkpt><trkpt lat="43.7062456" lon="10.4155478"><ele>9.4</ele><time>2026-03-25T10:56:59.915Z</time></trkpt><trkpt lat="43.7062193" lon="10.4156891"><ele>9.0</ele><time>2026-03-25T10:57:00.915Z</time></trkpt><trkpt lat="43.7061873" lon="10.4158442"><ele>8.75</ele><time>2026-03-25T10:57:01.917Z</time></trkpt><trkpt lat="43.7061562" lon="10.4160066"><ele>8.5</ele><time>2026-03-25T10:57:02.915Z</time></trkpt><trkpt lat="43.7061344" lon="10.4161638"><ele>8.25</ele><time>2026-03-25T10:57:03.916Z</time></trkpt><trkpt lat="43.7061061" lon="10.4163229"><ele>8.0</ele><time>2026-03-25T10:57:04.916Z</time></trkpt><trkpt lat="43.7060802" lon="10.4164796"><ele>8.75</ele><time>2026-03-25T10:57:05.916Z</time></trkpt><trkpt lat="43.7060506" lon="10.4166422"><ele>9.5</ele><time>2026-03-25T10:57:06.916Z</time></trkpt><trkpt lat="43.7060204" lon="10.4168135"><ele>10.25</ele><time>2026-03-25T10:57:07.916Z</time></trkpt><trkpt lat="43.70599" lon="10.4169748"><ele>11.0</ele><time>2026-03-25T10:57:08.916Z</time></trkpt><trkpt lat="43.7059616" lon="10.4171392"><ele>9.75</ele><time>2026-03-25T10:57:09.916Z</time></trkpt><trkpt lat="43.7059323" lon="10.4173046"><ele>8.5</ele><time>2026-03-25T10:57:10.917Z</time></trkpt><trkpt lat="43.7059044" lon="10.4174676"><ele>7.25</ele><time>2026-03-25T10:57:11.917Z</time></trkpt><trkpt lat="43.7058777" lon="10.4176294"><ele>6.0</ele><time>2026-03-25T10:57:12.916Z</time></trkpt><trkpt lat="43.7058521" lon="10.4177907"><ele>6.0</ele><time>2026-03-25T10:57:13.916Z</time></trkpt><trkpt lat="43.7058236" lon="10.4179649"><ele>6.0</ele><time>2026-03-25T10:57:14.917Z</time></trkpt><trkpt lat="43.7057959" lon="10.4181291"><ele>6.0</ele><time>2026-03-25T10:57:15.916Z</time></trkpt><trkpt lat="43.7057672" lon="10.4182738"><ele>6.0</ele><time>2026-03-25T10:57:16.916Z</time></trkpt><trkpt lat="43.7057388" lon="10.4184108"><ele>6.0</ele><time>2026-03-25T10:57:17.915Z</time></trkpt><trkpt lat="43.7057127" lon="10.4185435"><ele>6.0</ele><time>2026-03-25T10:57:18.915Z</time></trkpt><trkpt lat="43.7056949" lon="10.4186714"><ele>6.0</ele><time>2026-03-25T10:57:19.916Z</time></trkpt><trkpt lat="43.7056788" lon="10.4187794"><ele>6.0</ele><time>2026-03-25T10:57:20.916Z</time></trkpt><trkpt lat="43.7056633" lon="10.4188716"><ele>6.0</ele><time>2026-03-25T10:57:21.916Z</time></trkpt><trkpt lat="43.705648" lon="10.4189726"><ele>6.0</ele><time>2026-03-25T10:57:22.916Z</time></trkpt><trkpt lat="43.70563" lon="10.4190844"><ele>6.0</ele><time>2026-03-25T10:57:23.916Z</time></trkpt><trkpt lat="43.705618" lon="10.4192"><ele>6.0</ele><time>2026-03-25T10:57:24.916Z</time></trkpt><trkpt lat="43.7056105" lon="10.4193298"><ele>6.0</ele><time>2026-03-25T10:57:25.916Z</time></trkpt><trkpt lat="43.7056077" lon="10.419474"><ele>6.0</ele><time>2026-03-25T10:57:26.916Z</time></trkpt><trkpt lat="43.7056031" lon="10.4196281"><ele>6.0</ele><time>2026-03-25T10:57:27.916Z</time></trkpt><trkpt lat="43.7055997" lon="10.4197925"><ele>6.0</ele><time>2026-03-25T10:57:28.916Z</time></trkpt><trkpt lat="43.7055996" lon="10.419955"><ele>6.0</ele><time>2026-03-25T10:57:29.916Z</time></trkpt><trkpt lat="43.7055999" lon="10.4201126"><ele>6.0</ele><time>2026-03-25T10:57:30.915Z</time></trkpt><trkpt lat="43.7056004" lon="10.4202659"><ele>6.0</ele><time>2026-03-25T10:57:31.917Z</time></trkpt><trkpt lat="43.7056023" lon="10.4204101"><ele>6.0</ele><time>2026-03-25T10:57:32.916Z</time></trkpt><trkpt lat="43.7056029" lon="10.4205556"><ele>6.0</ele><time>2026-03-25T10:57:33.916Z</time></trkpt><trkpt lat="43.7056024" lon="10.420709"><ele>6.0</ele><time>2026-03-25T10:57:34.915Z</time></trkpt><trkpt lat="43.7056002" lon="10.4208653"><ele>6.0</ele><time>2026-03-25T10:57:35.917Z</time></trkpt><trkpt lat="43.7055944" lon="10.4210215"><ele>6.0</ele><time>2026-03-25T10:57:36.917Z</time></trkpt><trkpt lat="43.7055919" lon="10.4211846"><ele>5.75</ele><time>2026-03-25T10:57:37.917Z</time></trkpt><trkpt lat="43.7055953" lon="10.4213618"><ele>5.5</ele><time>2026-03-25T10:57:38.917Z</time></trkpt><trkpt lat="43.7055941" lon="10.4215439"><ele>5.25</ele><time>2026-03-25T10:57:39.917Z</time></trkpt><trkpt lat="43.7055925" lon="10.4217184"><ele>5.0</ele><time>2026-03-25T10:57:40.915Z</time></trkpt><trkpt lat="43.7055892" lon="10.4218871"><ele>5.0</ele><time>2026-03-25T10:57:41.916Z</time></trkpt><trkpt lat="43.7055854" lon="10.4220494"><ele>5.0</ele><time>2026-03-25T10:57:42.916Z</time></trkpt><trkpt lat="43.7055809" lon="10.422203"><ele>5.0</ele><time>2026-03-25T10:57:43.916Z</time></trkpt><trkpt lat="43.7055769" lon="10.422359"><ele>5.0</ele><time>2026-03-25T10:57:44.916Z</time></trkpt><trkpt lat="43.705572" lon="10.4225236"><ele>5.0</ele><time>2026-03-25T10:57:45.916Z</time></trkpt><trkpt lat="43.7055636" lon="10.4226977"><ele>5.0</ele><time>2026-03-25T10:57:46.915Z</time></trkpt><trkpt lat="43.7055518" lon="10.4228813"><ele>5.0</ele><time>2026-03-25T10:57:47.916Z</time></trkpt><trkpt lat="43.705534" lon="10.423051"><ele>5.0</ele><time>2026-03-25T10:57:48.916Z</time></trkpt><trkpt lat="43.7055145" lon="10.4232139"><ele>5.0</ele><time>2026-03-25T10:57:49.916Z</time></trkpt><trkpt lat="43.705495" lon="10.423373"><ele>5.0</ele><time>2026-03-25T10:57:50.916Z</time></trkpt><trkpt lat="43.705475" lon="10.4235308"><ele>5.0</ele><time>2026-03-25T10:57:51.916Z</time></trkpt><trkpt lat="43.7054517" lon="10.4236894"><ele>5.0</ele><time>2026-03-25T10:57:52.915Z</time></trkpt><trkpt lat="43.7054275" lon="10.423844"><ele>5.25</ele><time>2026-03-25T10:57:53.915Z</time></trkpt><trkpt lat="43.7053934" lon="10.4240018"><ele>5.5</ele><time>2026-03-25T10:57:54.917Z</time></trkpt><trkpt lat="43.7053558" lon="10.4241589"><ele>5.75</ele><time>2026-03-25T10:57:55.915Z</time></trkpt><trkpt lat="43.7053137" lon="10.4243189"><ele>6.0</ele><time>2026-03-25T10:57:56.917Z</time></trkpt><trkpt lat="43.7052701" lon="10.4244793"><ele>6.5</ele><time>2026-03-25T10:57:57.917Z</time></trkpt><trkpt lat="43.7052272" lon="10.4246298"><ele>7.0</ele><time>2026-03-25T10:57:58.916Z</time></trkpt><trkpt lat="43.7051805" lon="10.4247722"><ele>7.5</ele><time>2026-03-25T10:57:59.915Z</time></trkpt><trkpt lat="43.7051337" lon="10.4249156"><ele>8.0</ele><time>2026-03-25T10:58:00.916Z</time></trkpt><trkpt lat="43.7050819" lon="10.4250633"><ele>8.75</ele><time>2026-03-25T10:58:01.917Z</time></trkpt><trkpt lat="43.7050239" lon="10.4252139"><ele>9.5</ele><time>2026-03-25T10:58:02.915Z</time></trkpt><trkpt lat="43.7049562" lon="10.425366"><ele>10.25</ele><time>2026-03-25T10:58:03.916Z</time></trkpt><trkpt lat="43.7048863" lon="10.4255072"><ele>11.0</ele><time>2026-03-25T10:58:04.915Z</time></trkpt><trkpt lat="43.7048196" lon="10.4256366"><ele>11.0</ele><time>2026-03-25T10:58:05.916Z</time></trkpt><trkpt lat="43.7047583" lon="10.4257553"><ele>11.0</ele><time>2026-03-25T10:58:06.915Z</time></trkpt><trkpt lat="43.7047042" lon="10.4258576"><ele>11.0</ele><time>2026-03-25T10:58:07.915Z</time></trkpt><trkpt lat="43.7046526" lon="10.4259486"><ele>11.0</ele><time>2026-03-25T10:58:08.916Z</time></trkpt><trkpt lat="43.7046009" lon="10.4260357"><ele>11.0</ele><time>2026-03-25T10:58:09.916Z</time></trkpt><trkpt lat="43.7045465" lon="10.4261268"><ele>11.0</ele><time>2026-03-25T10:58:10.916Z</time></trkpt><trkpt lat="43.7044848" lon="10.426229"><ele>11.0</ele><time>2026-03-25T10:58:11.915Z</time></trkpt><trkpt lat="43.7044164" lon="10.4263394"><ele>11.0</ele><time>2026-03-25T10:58:12.916Z</time></trkpt><trkpt lat="43.7043441" lon="10.4264626"><ele>11.0</ele><time>2026-03-25T10:58:13.916Z</time></trkpt><trkpt lat="43.7042655" lon="10.4265944"><ele>11.0</ele><time>2026-03-25T10:58:14.916Z</time></trkpt><trkpt lat="43.7041894" lon="10.4267326"><ele>11.0</ele><time>2026-03-25T10:58:15.915Z</time></trkpt><trkpt lat="43.7041176" lon="10.4268577"><ele>11.0</ele><time>2026-03-25T10:58:16.917Z</time></trkpt><trkpt lat="43.7040542" lon="10.4269618"><ele>11.0</ele><time>2026-03-25T10:58:17.917Z</time></trkpt><trkpt lat="43.7039965" lon="10.4270567"><ele>11.0</ele><time>2026-03-25T10:58:18.915Z</time></trkpt><trkpt lat="43.7039328" lon="10.4271567"><ele>11.0</ele><time>2026-03-25T10:58:19.915Z</time></trkpt><trkpt lat="43.7038658" lon="10.4272644"><ele>10.75</ele><time>2026-03-25T10:58:20.915Z</time></trkpt><trkpt lat="43.7037895" lon="10.4273947"><ele>10.5</ele><time>2026-03-25T10:58:21.916Z</time></trkpt><trkpt lat="43.7037099" lon="10.4275339"><ele>10.25</ele><time>2026-03-25T10:58:22.915Z</time></trkpt><trkpt lat="43.7036232" lon="10.4276805"><ele>10.0</ele><time>2026-03-25T10:58:23.917Z</time></trkpt><trkpt lat="43.7035347" lon="10.4278295"><ele>10.0</ele><time>2026-03-25T10:58:24.916Z</time></trkpt><trkpt lat="43.7034471" lon="10.4279743"><ele>10.0</ele><time>2026-03-25T10:58:25.916Z</time></trkpt><trkpt lat="43.7033573" lon="10.4281229"><ele>10.0</ele><time>2026-03-25T10:58:26.916Z</time></trkpt><trkpt lat="43.7032694" lon="10.4282761"><ele>10.0</ele><time>2026-03-25T10:58:27.916Z</time></trkpt><trkpt lat="43.7031805" lon="10.4284228"><ele>10.0</ele><time>2026-03-25T10:58:28.917Z</time></trkpt><trkpt lat="43.7030903" lon="10.4285774"><ele>10.0</ele><time>2026-03-25T10:58:29.915Z</time></trkpt><trkpt lat="43.703" lon="10.4287326"><ele>10.0</ele><time>2026-03-25T10:58:30.916Z</time></trkpt><trkpt lat="43.7029025" lon="10.4288865"><ele>10.0</ele><time>2026-03-25T10:58:31.916Z</time></trkpt><trkpt lat="43.7028062" lon="10.4290439"><ele>9.666666666666668</ele><time>2026-03-25T10:58:32.916Z</time></trkpt><trkpt lat="43.7027101" lon="10.4292046"><ele>9.333333333333334</ele><time>2026-03-25T10:58:33.916Z</time></trkpt><trkpt lat="43.7026193" lon="10.4293679"><ele>9.0</ele><time>2026-03-25T10:58:34.915Z</time></trkpt><trkpt lat="43.7025236" lon="10.4295299"><ele>9.0</ele><time>2026-03-25T10:58:35.916Z</time></trkpt><trkpt lat="43.7024369" lon="10.4296786"><ele>9.0</ele><time>2026-03-25T10:58:36.916Z</time></trkpt><trkpt lat="43.70235" lon="10.4298264"><ele>9.0</ele><time>2026-03-25T10:58:37.916Z</time></trkpt><trkpt lat="43.7022612" lon="10.4299718"><ele>9.0</ele><time>2026-03-25T10:58:38.916Z</time></trkpt><trkpt lat="43.7021754" lon="10.430113"><ele>9.0</ele><time>2026-03-25T10:58:39.916Z</time></trkpt><trkpt lat="43.7020887" lon="10.430256"><ele>9.0</ele><time>2026-03-25T10:58:40.916Z</time></trkpt><trkpt lat="43.7020043" lon="10.4303934"><ele>9.0</ele><time>2026-03-25T10:58:41.915Z</time></trkpt><trkpt lat="43.7019233" lon="10.4305238"><ele>9.0</ele><time>2026-03-25T10:58:42.916Z</time></trkpt><trkpt lat="43.7018456" lon="10.4306531"><ele>9.0</ele><time>2026-03-25T10:58:43.916Z</time></trkpt><trkpt lat="43.7017755" lon="10.4307667"><ele>9.0</ele><time>2026-03-25T10:58:44.916Z</time></trkpt><trkpt lat="43.7017076" lon="10.4308766"><ele>9.0</ele><time>2026-03-25T10:58:45.916Z</time></trkpt><trkpt lat="43.7016393" lon="10.4309812"><ele>9.0</ele><time>2026-03-25T10:58:46.916Z</time></trkpt><trkpt lat="43.7015811" lon="10.4310798"><ele>9.0</ele><time>2026-03-25T10:58:47.916Z</time></trkpt><trkpt lat="43.7015232" lon="10.4311704"><ele>9.0</ele><time>2026-03-25T10:58:48.916Z</time></trkpt><trkpt lat="43.7014679" lon="10.4312392"><ele>9.0</ele><time>2026-03-25T10:58:49.916Z</time></trkpt><trkpt lat="43.7014153" lon="10.431295"><ele>9.0</ele><time>2026-03-25T10:58:50.917Z</time></trkpt><trkpt lat="43.7013067" lon="10.4313541"><ele>9.0</ele><time>2026-03-25T10:58:52.916Z</time></trkpt><trkpt lat="43.7011978" lon="10.4313915"><ele>9.0</ele><time>2026-03-25T10:58:54.915Z</time></trkpt><trkpt lat="43.7011207" lon="10.4315045"><ele>8.833333333333334</ele><time>2026-03-25T10:58:56.916Z</time></trkpt><trkpt lat="43.7011081" lon="10.4316336"><ele>8.666666666666666</ele><time>2026-03-25T10:58:58.915Z</time></trkpt><trkpt lat="43.7011421" lon="10.431752"><ele>8.5</ele><time>2026-03-25T10:59:00.916Z</time></trkpt><trkpt lat="43.7012072" lon="10.4318258"><ele>8.333333333333332</ele><time>2026-03-25T10:59:02.915Z</time></trkpt><trkpt lat="43.701275" lon="10.4318415"><ele>8.166666666666666</ele><time>2026-03-25T10:59:04.915Z</time></trkpt><trkpt lat="43.7013419" lon="10.4318773"><ele>8.0</ele><time>2026-03-25T10:59:07.916Z</time></trkpt><trkpt lat="43.701379" lon="10.4319667"><ele>8.0</ele><time>2026-03-25T10:59:10.915Z</time></trkpt><trkpt lat="43.7014085" lon="10.4320762"><ele>8.0</ele><time>2026-03-25T10:59:12.916Z</time></trkpt><trkpt lat="43.7014515" lon="10.4322211"><ele>8.0</ele><time>2026-03-25T10:59:14.916Z</time></trkpt><trkpt lat="43.7014774" lon="10.4323049"><ele>8.0</ele><time>2026-03-25T10:59:15.916Z</time></trkpt><trkpt lat="43.7015329" lon="10.4324655"><ele>8.0</ele><time>2026-03-25T10:59:17.917Z</time></trkpt><trkpt lat="43.7015626" lon="10.4325555"><ele>7.2</ele><time>2026-03-25T10:59:18.916Z</time></trkpt><trkpt lat="43.7015963" lon="10.4326544"><ele>6.4</ele><time>2026-03-25T10:59:19.915Z</time></trkpt><trkpt lat="43.7016369" lon="10.4327812"><ele>5.6000000000000005</ele><time>2026-03-25T10:59:20.916Z</time></trkpt><trkpt lat="43.7016844" lon="10.4329231"><ele>4.800000000000001</ele><time>2026-03-25T10:59:21.917Z</time></trkpt><trkpt lat="43.7017357" lon="10.4330791"><ele>4.0</ele><time>2026-03-25T10:59:22.915Z</time></trkpt><trkpt lat="43.7017888" lon="10.4332412"><ele>4.0</ele><time>2026-03-25T10:59:23.915Z</time></trkpt><trkpt lat="43.701838" lon="10.4333925"><ele>4.0</ele><time>2026-03-25T10:59:24.916Z</time></trkpt><trkpt lat="43.7018838" lon="10.4335392"><ele>4.0</ele><time>2026-03-25T10:59:25.915Z</time></trkpt><trkpt lat="43.7019304" lon="10.433682"><ele>4.0</ele><time>2026-03-25T10:59:26.915Z</time></trkpt><trkpt lat="43.7019767" lon="10.4338197"><ele>3.833333333333333</ele><time>2026-03-25T10:59:27.916Z</time></trkpt><trkpt lat="43.7020214" lon="10.4339563"><ele>3.6666666666666665</ele><time>2026-03-25T10:59:28.916Z</time></trkpt><trkpt lat="43.7020616" lon="10.43408"><ele>3.5</ele><time>2026-03-25T10:59:29.916Z</time></trkpt><trkpt lat="43.7020961" lon="10.4341889"><ele>3.333333333333333</ele><time>2026-03-25T10:59:30.916Z</time></trkpt><trkpt lat="43.702123" lon="10.4342702"><ele>3.1666666666666665</ele><time>2026-03-25T10:59:31.915Z</time></trkpt><trkpt lat="43.702148" lon="10.4343505"><ele>3.0</ele><time>2026-03-25T10:59:33.915Z</time></trkpt><trkpt lat="43.7021749" lon="10.4344337"><ele>3.0</ele><time>2026-03-25T10:59:35.916Z</time></trkpt><trkpt lat="43.7022149" lon="10.4345453"><ele>3.0</ele><time>2026-03-25T10:59:37.915Z</time></trkpt><trkpt lat="43.7022375" lon="10.4346267"><ele>3.0</ele><time>2026-03-25T10:59:38.917Z</time></trkpt><trkpt lat="43.702268" lon="10.4347322"><ele>3.0</ele><time>2026-03-25T10:59:39.916Z</time></trkpt><trkpt lat="43.7022977" lon="10.4348292"><ele>3.0</ele><time>2026-03-25T10:59:40.915Z</time></trkpt><trkpt lat="43.7023229" lon="10.4349092"><ele>3.0</ele><time>2026-03-25T10:59:41.915Z</time></trkpt><trkpt lat="43.702374" lon="10.4350614"><ele>3.0</ele><time>2026-03-25T10:59:43.916Z</time></trkpt><trkpt lat="43.702403" lon="10.4351406"><ele>3.0</ele><time>2026-03-25T10:59:44.916Z</time></trkpt><trkpt lat="43.7024334" lon="10.4352218"><ele>3.0</ele><time>2026-03-25T10:59:45.916Z</time></trkpt><trkpt lat="43.7024681" lon="10.4353151"><ele>3.0</ele><time>2026-03-25T10:59:46.915Z</time></trkpt><trkpt lat="43.7025125" lon="10.4354321"><ele>3.0</ele><time>2026-03-25T10:59:47.915Z</time></trkpt><trkpt lat="43.7025557" lon="10.4355406"><ele>3.0</ele><time>2026-03-25T10:59:48.916Z</time></trkpt><trkpt lat="43.7025933" lon="10.4356322"><ele>3.0</ele><time>2026-03-25T10:59:49.917Z</time></trkpt><trkpt lat="43.7026314" lon="10.4357579"><ele>3.0</ele><time>2026-03-25T10:59:51.917Z</time></trkpt><trkpt lat="43.7026187" lon="10.435855"><ele>3.0</ele><time>2026-03-25T10:59:54.917Z</time></trkpt><trkpt lat="43.7025217" lon="10.4359098"><ele>3.0</ele><time>2026-03-25T10:59:56.916Z</time></trkpt><trkpt lat="43.7024277" lon="10.4359245"><ele>3.0</ele><time>2026-03-25T10:59:57.916Z</time></trkpt><trkpt lat="43.7023133" lon="10.4359295"><ele>3.0</ele><time>2026-03-25T10:59:58.915Z</time></trkpt><trkpt lat="43.7021901" lon="10.4359301"><ele>3.0</ele><time>2026-03-25T10:59:59.915Z</time></trkpt><trkpt lat="43.7020492" lon="10.4359316"><ele>3.0</ele><time>2026-03-25T11:00:00.916Z</time></trkpt><trkpt lat="43.7018995" lon="10.4359387"><ele>3.0</ele><time>2026-03-25T11:00:01.916Z</time></trkpt><trkpt lat="43.701745" lon="10.4359493"><ele>3.0</ele><time>2026-03-25T11:00:02.916Z</time></trkpt><trkpt lat="43.7015917" lon="10.4359593"><ele>3.0</ele><time>2026-03-25T11:00:03.917Z</time></trkpt><trkpt lat="43.7014542" lon="10.435969"><ele>3.0</ele><time>2026-03-25T11:00:04.917Z</time></trkpt><trkpt lat="43.7013291" lon="10.4359799"><ele>3.0</ele><time>2026-03-25T11:00:05.916Z</time></trkpt><trkpt lat="43.7012113" lon="10.4359954"><ele>3.0</ele><time>2026-03-25T11:00:06.916Z</time></trkpt><trkpt lat="43.7011013" lon="10.4360142"><ele>3.0</ele><time>2026-03-25T11:00:07.915Z</time></trkpt><trkpt lat="43.7009978" lon="10.4360333"><ele>3.0</ele><time>2026-03-25T11:00:08.916Z</time></trkpt><trkpt lat="43.7009086" lon="10.4360459"><ele>3.0</ele><time>2026-03-25T11:00:09.916Z</time></trkpt><trkpt lat="43.7008279" lon="10.4360488"><ele>3.0</ele><time>2026-03-25T11:00:10.915Z</time></trkpt><trkpt lat="43.7007583" lon="10.4360411"><ele>3.0</ele><time>2026-03-25T11:00:11.917Z</time></trkpt><trkpt lat="43.7006828" lon="10.4360241"><ele>3.0</ele><time>2026-03-25T11:00:13.915Z</time></trkpt><trkpt lat="43.700614" lon="10.4359789"><ele>3.0</ele><time>2026-03-25T11:00:15.915Z</time></trkpt><trkpt lat="43.7005122" lon="10.435891"><ele>3.0</ele><time>2026-03-25T11:00:17.916Z</time></trkpt><trkpt lat="43.7003954" lon="10.4358651"><ele>3.0</ele><time>2026-03-25T11:00:19.915Z</time></trkpt><trkpt lat="43.7003028" lon="10.4359175"><ele>3.1666666666666665</ele><time>2026-03-25T11:00:21.916Z</time></trkpt><trkpt lat="43.7002068" lon="10.4359942"><ele>3.333333333333333</ele><time>2026-03-25T11:00:23.916Z</time></trkpt><trkpt lat="43.7001415" lon="10.4360417"><ele>3.5</ele><time>2026-03-25T11:00:24.916Z</time></trkpt><trkpt lat="43.7000691" lon="10.4360829"><ele>3.6666666666666665</ele><time>2026-03-25T11:00:25.916Z</time></trkpt><trkpt lat="43.6999863" lon="10.4361133"><ele>3.833333333333333</ele><time>2026-03-25T11:00:26.916Z</time></trkpt><trkpt lat="43.699893" lon="10.4361323"><ele>4.0</ele><time>2026-03-25T11:00:27.916Z</time></trkpt><trkpt lat="43.6997986" lon="10.4361432"><ele>4.0</ele><time>2026-03-25T11:00:28.916Z</time></trkpt><trkpt lat="43.6997062" lon="10.436148"><ele>4.0</ele><time>2026-03-25T11:00:29.916Z</time></trkpt><trkpt lat="43.6996037" lon="10.4361459"><ele>4.0</ele><time>2026-03-25T11:00:30.916Z</time></trkpt><trkpt lat="43.6994907" lon="10.4361417"><ele>4.0</ele><time>2026-03-25T11:00:31.916Z</time></trkpt><trkpt lat="43.6993671" lon="10.4361346"><ele>4.0</ele><time>2026-03-25T11:00:32.916Z</time></trkpt><trkpt lat="43.6992432" lon="10.4361217"><ele>4.25</ele><time>2026-03-25T11:00:33.916Z</time></trkpt><trkpt lat="43.6991116" lon="10.436102"><ele>4.5</ele><time>2026-03-25T11:00:34.916Z</time></trkpt><trkpt lat="43.6989709" lon="10.4360764"><ele>4.75</ele><time>2026-03-25T11:00:35.916Z</time></trkpt><trkpt lat="43.6988378" lon="10.436046"><ele>5.0</ele><time>2026-03-25T11:00:36.915Z</time></trkpt><trkpt lat="43.6986934" lon="10.4360057"><ele>4.0</ele><time>2026-03-25T11:00:37.917Z</time></trkpt><trkpt lat="43.6985462" lon="10.4359601"><ele>3.0</ele><time>2026-03-25T11:00:38.916Z</time></trkpt><trkpt lat="43.6983946" lon="10.4359151"><ele>2.0</ele><time>2026-03-25T11:00:39.916Z</time></trkpt><trkpt lat="43.6982377" lon="10.4358613"><ele>2.0</ele><time>2026-03-25T11:00:40.916Z</time></trkpt><trkpt lat="43.6980942" lon="10.4358098"><ele>2.0</ele><time>2026-03-25T11:00:41.916Z</time></trkpt><trkpt lat="43.6979549" lon="10.4357565"><ele>2.0</ele><time>2026-03-25T11:00:42.916Z</time></trkpt><trkpt lat="43.6978155" lon="10.4357041"><ele>2.0</ele><time>2026-03-25T11:00:43.916Z</time></trkpt><trkpt lat="43.6976885" lon="10.4356589"><ele>2.75</ele><time>2026-03-25T11:00:44.916Z</time></trkpt><trkpt lat="43.6975548" lon="10.4356161"><ele>3.5</ele><time>2026-03-25T11:00:45.915Z</time></trkpt><trkpt lat="43.6974206" lon="10.4355725"><ele>4.25</ele><time>2026-03-25T11:00:46.915Z</time></trkpt><trkpt lat="43.6972824" lon="10.4355282"><ele>5.0</ele><time>2026-03-25T11:00:47.916Z</time></trkpt><trkpt lat="43.697137" lon="10.4354816"><ele>4.75</ele><time>2026-03-25T11:00:48.916Z</time></trkpt><trkpt lat="43.6969989" lon="10.4354362"><ele>4.5</ele><time>2026-03-25T11:00:49.915Z</time></trkpt><trkpt lat="43.6968646" lon="10.435392"><ele>4.25</ele><time>2026-03-25T11:00:50.916Z</time></trkpt><trkpt lat="43.6967208" lon="10.435346"><ele>4.0</ele><time>2026-03-25T11:00:51.915Z</time></trkpt><trkpt lat="43.6965845" lon="10.4353054"><ele>5.0</ele><time>2026-03-25T11:00:52.915Z</time></trkpt><trkpt lat="43.6964405" lon="10.4352597"><ele>6.0</ele><time>2026-03-25T11:00:53.916Z</time></trkpt><trkpt lat="43.6962946" lon="10.4352134"><ele>7.0</ele><time>2026-03-25T11:00:54.915Z</time></trkpt><trkpt lat="43.6961432" lon="10.4351673"><ele>6.666666666666667</ele><time>2026-03-25T11:00:55.916Z</time></trkpt><trkpt lat="43.6959869" lon="10.4351196"><ele>6.333333333333334</ele><time>2026-03-25T11:00:56.916Z</time></trkpt><trkpt lat="43.6958338" lon="10.4350744"><ele>6.0</ele><time>2026-03-25T11:00:57.916Z</time></trkpt><trkpt lat="43.6956756" lon="10.4350297"><ele>6.0</ele><time>2026-03-25T11:00:58.917Z</time></trkpt><trkpt lat="43.6955102" lon="10.4349895"><ele>6.0</ele><time>2026-03-25T11:00:59.916Z</time></trkpt><trkpt lat="43.69536" lon="10.4349588"><ele>6.0</ele><time>2026-03-25T11:01:00.916Z</time></trkpt><trkpt lat="43.6952039" lon="10.4349309"><ele>5.666666666666667</ele><time>2026-03-25T11:01:01.917Z</time></trkpt><trkpt lat="43.695048" lon="10.4349084"><ele>5.333333333333334</ele><time>2026-03-25T11:01:02.916Z</time></trkpt><trkpt lat="43.6948887" lon="10.4348923"><ele>5.0</ele><time>2026-03-25T11:01:03.916Z</time></trkpt><trkpt lat="43.6947291" lon="10.4348844"><ele>5.0</ele><time>2026-03-25T11:01:04.916Z</time></trkpt><trkpt lat="43.6945689" lon="10.4348802"><ele>5.0</ele><time>2026-03-25T11:01:05.916Z</time></trkpt><trkpt lat="43.6944096" lon="10.4348804"><ele>5.0</ele><time>2026-03-25T11:01:06.915Z</time></trkpt><trkpt lat="43.6942363" lon="10.4348855"><ele>4.666666666666667</ele><time>2026-03-25T11:01:07.916Z</time></trkpt><trkpt lat="43.6940718" lon="10.4348941"><ele>4.333333333333333</ele><time>2026-03-25T11:01:08.915Z</time></trkpt><trkpt lat="43.6939041" lon="10.4349026"><ele>4.0</ele><time>2026-03-25T11:01:09.916Z</time></trkpt><trkpt lat="43.6937425" lon="10.4349131"><ele>4.0</ele><time>2026-03-25T11:01:10.916Z</time></trkpt><trkpt lat="43.6935854" lon="10.4349226"><ele>4.0</ele><time>2026-03-25T11:01:11.917Z</time></trkpt><trkpt lat="43.6934313" lon="10.4349322"><ele>4.0</ele><time>2026-03-25T11:01:12.916Z</time></trkpt><trkpt lat="43.6932805" lon="10.4349397"><ele>4.0</ele><time>2026-03-25T11:01:13.916Z</time></trkpt><trkpt lat="43.6931368" lon="10.4349465"><ele>4.0</ele><time>2026-03-25T11:01:14.916Z</time></trkpt><trkpt lat="43.6929913" lon="10.434952"><ele>4.0</ele><time>2026-03-25T11:01:15.916Z</time></trkpt><trkpt lat="43.6928649" lon="10.4349537"><ele>4.0</ele><time>2026-03-25T11:01:16.916Z</time></trkpt><trkpt lat="43.692748" lon="10.4349568"><ele>3.6</ele><time>2026-03-25T11:01:17.915Z</time></trkpt><trkpt lat="43.6926482" lon="10.4349524"><ele>3.2</ele><time>2026-03-25T11:01:18.916Z</time></trkpt><trkpt lat="43.6925492" lon="10.4349329"><ele>2.8000000000000003</ele><time>2026-03-25T11:01:19.915Z</time></trkpt><trkpt lat="43.6924541" lon="10.4348908"><ele>2.4000000000000004</ele><time>2026-03-25T11:01:20.916Z</time></trkpt><trkpt lat="43.6923656" lon="10.4348227"><ele>2.0</ele><time>2026-03-25T11:01:21.915Z</time></trkpt><trkpt lat="43.6922925" lon="10.4347324"><ele>1.8</ele><time>2026-03-25T11:01:22.915Z</time></trkpt><trkpt lat="43.692233" lon="10.4346177"><ele>1.6</ele><time>2026-03-25T11:01:23.917Z</time></trkpt><trkpt lat="43.6921914" lon="10.4344961"><ele>1.4000000000000001</ele><time>2026-03-25T11:01:24.916Z</time></trkpt><trkpt lat="43.6921551" lon="10.4343615"><ele>1.2000000000000002</ele><time>2026-03-25T11:01:25.915Z</time></trkpt><trkpt lat="43.6921075" lon="10.4342366"><ele>1.0</ele><time>2026-03-25T11:01:26.916Z</time></trkpt><trkpt lat="43.6920466" lon="10.434125"><ele>1.0</ele><time>2026-03-25T11:01:27.916Z</time></trkpt><trkpt lat="43.6919694" lon="10.4340376"><ele>1.0</ele><time>2026-03-25T11:01:28.916Z</time></trkpt><trkpt lat="43.6918771" lon="10.4339833"><ele>1.0</ele><time>2026-03-25T11:01:29.916Z</time></trkpt><trkpt lat="43.6917785" lon="10.4339687"><ele>1.0</ele><time>2026-03-25T11:01:30.916Z</time></trkpt><trkpt lat="43.6916742" lon="10.4339933"><ele>1.0</ele><time>2026-03-25T11:01:31.917Z</time></trkpt><trkpt lat="43.6915813" lon="10.4340548"><ele>1.25</ele><time>2026-03-25T11:01:32.917Z</time></trkpt><trkpt lat="43.6915" lon="10.4341452"><ele>1.5</ele><time>2026-03-25T11:01:33.915Z</time></trkpt><trkpt lat="43.6914316" lon="10.4342593"><ele>1.75</ele><time>2026-03-25T11:01:34.915Z</time></trkpt><trkpt lat="43.6913731" lon="10.4343965"><ele>2.0</ele><time>2026-03-25T11:01:35.915Z</time></trkpt><trkpt lat="43.6913197" lon="10.434559"><ele>2.0</ele><time>2026-03-25T11:01:36.916Z</time></trkpt><trkpt lat="43.6912637" lon="10.4347346"><ele>2.0</ele><time>2026-03-25T11:01:37.916Z</time></trkpt><trkpt lat="43.6912041" lon="10.4349283"><ele>2.0</ele><time>2026-03-25T11:01:38.916Z</time></trkpt><trkpt lat="43.6911326" lon="10.4351383"><ele>1.6666666666666665</ele><time>2026-03-25T11:01:39.915Z</time></trkpt><trkpt lat="43.6910596" lon="10.4353489"><ele>1.3333333333333333</ele><time>2026-03-25T11:01:40.917Z</time></trkpt><trkpt lat="43.6909924" lon="10.435559"><ele>1.0</ele><time>2026-03-25T11:01:41.916Z</time></trkpt><trkpt lat="43.6909186" lon="10.4357633"><ele>1.0</ele><time>2026-03-25T11:01:42.915Z</time></trkpt><trkpt lat="43.6908307" lon="10.4359638"><ele>1.0</ele><time>2026-03-25T11:01:43.916Z</time></trkpt><trkpt lat="43.6907277" lon="10.4361604"><ele>1.0</ele><time>2026-03-25T11:01:44.916Z</time></trkpt><trkpt lat="43.6906075" lon="10.4363592"><ele>1.3333333333333333</ele><time>2026-03-25T11:01:45.916Z</time></trkpt><trkpt lat="43.6904802" lon="10.4365624"><ele>1.6666666666666665</ele><time>2026-03-25T11:01:46.917Z</time></trkpt><trkpt lat="43.6903512" lon="10.4367677"><ele>2.0</ele><time>2026-03-25T11:01:47.916Z</time></trkpt><trkpt lat="43.6902243" lon="10.4369623"><ele>2.0</ele><time>2026-03-25T11:01:48.915Z</time></trkpt><trkpt lat="43.6901029" lon="10.4371529"><ele>2.0</ele><time>2026-03-25T11:01:49.915Z</time></trkpt><trkpt lat="43.6899846" lon="10.4373404"><ele>2.0</ele><time>2026-03-25T11:01:50.917Z</time></trkpt><trkpt lat="43.6898662" lon="10.4375238"><ele>2.0</ele><time>2026-03-25T11:01:51.916Z</time></trkpt><trkpt lat="43.6897497" lon="10.4377148"><ele>2.0</ele><time>2026-03-25T11:01:52.916Z</time></trkpt><trkpt lat="43.6896282" lon="10.4379048"><ele>2.0</ele><time>2026-03-25T11:01:53.915Z</time></trkpt><trkpt lat="43.6895086" lon="10.438088"><ele>2.333333333333333</ele><time>2026-03-25T11:01:54.916Z</time></trkpt><trkpt lat="43.68939" lon="10.4382569"><ele>2.6666666666666665</ele><time>2026-03-25T11:01:55.915Z</time></trkpt><trkpt lat="43.6892751" lon="10.4384068"><ele>3.0</ele><time>2026-03-25T11:01:56.916Z</time></trkpt><trkpt lat="43.6891652" lon="10.4385206"><ele>3.0</ele><time>2026-03-25T11:01:57.916Z</time></trkpt><trkpt lat="43.6890481" lon="10.4385992"><ele>3.0</ele><time>2026-03-25T11:01:58.916Z</time></trkpt><trkpt lat="43.6889226" lon="10.4386561"><ele>3.0</ele><time>2026-03-25T11:01:59.917Z</time></trkpt><trkpt lat="43.6887978" lon="10.4386816"><ele>3.0</ele><time>2026-03-25T11:02:00.915Z</time></trkpt><trkpt lat="43.6886661" lon="10.4386815"><ele>2.75</ele><time>2026-03-25T11:02:01.915Z</time></trkpt><trkpt lat="43.6885286" lon="10.438656"><ele>2.5</ele><time>2026-03-25T11:02:02.916Z</time></trkpt><trkpt lat="43.6883926" lon="10.4386049"><ele>2.25</ele><time>2026-03-25T11:02:03.916Z</time></trkpt><trkpt lat="43.6882514" lon="10.4385349"><ele>2.0</ele><time>2026-03-25T11:02:04.916Z</time></trkpt><trkpt lat="43.6881091" lon="10.4384366"><ele>2.0</ele><time>2026-03-25T11:02:05.916Z</time></trkpt><trkpt lat="43.6879637" lon="10.4383193"><ele>2.0</ele><time>2026-03-25T11:02:06.916Z</time></trkpt><trkpt lat="43.6878222" lon="10.4382058"><ele>2.0</ele><time>2026-03-25T11:02:07.915Z</time></trkpt><trkpt lat="43.6876835" lon="10.4380917"><ele>2.0</ele><time>2026-03-25T11:02:08.916Z</time></trkpt><trkpt lat="43.6875562" lon="10.437981"><ele>2.0</ele><time>2026-03-25T11:02:09.917Z</time></trkpt><trkpt lat="43.6874427" lon="10.4378761"><ele>2.0</ele><time>2026-03-25T11:02:10.916Z</time></trkpt><trkpt lat="43.687356" lon="10.4377652"><ele>2.0</ele><time>2026-03-25T11:02:11.915Z</time></trkpt><trkpt lat="43.6872886" lon="10.4376352"><ele>1.75</ele><time>2026-03-25T11:02:12.916Z</time></trkpt><trkpt lat="43.687237" lon="10.4374856"><ele>1.5</ele><time>2026-03-25T11:02:13.916Z</time></trkpt><trkpt lat="43.6871895" lon="10.4373351"><ele>1.25</ele><time>2026-03-25T11:02:14.917Z</time></trkpt><trkpt lat="43.6871534" lon="10.4371806"><ele>1.0</ele><time>2026-03-25T11:02:15.916Z</time></trkpt><trkpt lat="43.6871684" lon="10.4370111"><ele>0.75</ele><time>2026-03-25T11:02:16.915Z</time></trkpt><trkpt lat="43.6871969" lon="10.4368553"><ele>0.5</ele><time>2026-03-25T11:02:17.916Z</time></trkpt><trkpt lat="43.6872556" lon="10.4367153"><ele>0.25</ele><time>2026-03-25T11:02:18.916Z</time></trkpt><trkpt lat="43.6873323" lon="10.4366102"><ele>0.0</ele><time>2026-03-25T11:02:19.917Z</time></trkpt><trkpt lat="43.6874325" lon="10.4365337"><ele>0.0</ele><time>2026-03-25T11:02:20.915Z</time></trkpt><trkpt lat="43.6875403" lon="10.4364875"><ele>0.0</ele><time>2026-03-25T11:02:21.915Z</time></trkpt><trkpt lat="43.6876548" lon="10.436482"><ele>0.0</ele><time>2026-03-25T11:02:22.915Z</time></trkpt><trkpt lat="43.6877649" lon="10.4365087"><ele>0.0</ele><time>2026-03-25T11:02:23.916Z</time></trkpt><trkpt lat="43.687867" lon="10.436567"><ele>0.25</ele><time>2026-03-25T11:02:24.915Z</time></trkpt><trkpt lat="43.6879696" lon="10.4366465"><ele>0.5</ele><time>2026-03-25T11:02:25.916Z</time></trkpt><trkpt lat="43.6880327" lon="10.4367805"><ele>0.75</ele><time>2026-03-25T11:02:26.916Z</time></trkpt><trkpt lat="43.6880727" lon="10.4369376"><ele>1.0</ele><time>2026-03-25T11:02:27.917Z</time></trkpt><trkpt lat="43.6880862" lon="10.4371083"><ele>1.0</ele><time>2026-03-25T11:02:28.915Z</time></trkpt><trkpt lat="43.6880728" lon="10.437285"><ele>1.0</ele><time>2026-03-25T11:02:29.916Z</time></trkpt><trkpt lat="43.6880361" lon="10.4374692"><ele>1.0</ele><time>2026-03-25T11:02:30.916Z</time></trkpt><trkpt lat="43.6879764" lon="10.4376727"><ele>1.0</ele><time>2026-03-25T11:02:31.916Z</time></trkpt><trkpt lat="43.6878979" lon="10.4378913"><ele>1.3333333333333333</ele><time>2026-03-25T11:02:32.915Z</time></trkpt><trkpt lat="43.687807" lon="10.4381203"><ele>1.6666666666666665</ele><time>2026-03-25T11:02:33.915Z</time></trkpt><trkpt lat="43.6877076" lon="10.4383608"><ele>2.0</ele><time>2026-03-25T11:02:34.917Z</time></trkpt><trkpt lat="43.6876074" lon="10.4385922"><ele>2.0</ele><time>2026-03-25T11:02:35.915Z</time></trkpt><trkpt lat="43.6875072" lon="10.4388206"><ele>2.0</ele><time>2026-03-25T11:02:36.917Z</time></trkpt><trkpt lat="43.6874034" lon="10.4390531"><ele>2.0</ele><time>2026-03-25T11:02:37.917Z</time></trkpt><trkpt lat="43.6872961" lon="10.4392933"><ele>2.0</ele><time>2026-03-25T11:02:38.915Z</time></trkpt><trkpt lat="43.6871853" lon="10.4395457"><ele>2.0</ele><time>2026-03-25T11:02:39.916Z</time></trkpt><trkpt lat="43.6870633" lon="10.4398088"><ele>2.0</ele><time>2026-03-25T11:02:40.917Z</time></trkpt><trkpt lat="43.6869433" lon="10.4400702"><ele>2.0</ele><time>2026-03-25T11:02:41.916Z</time></trkpt><trkpt lat="43.6868246" lon="10.4403221"><ele>2.0</ele><time>2026-03-25T11:02:42.916Z</time></trkpt><trkpt lat="43.6867077" lon="10.440565"><ele>2.0</ele><time>2026-03-25T11:02:43.917Z</time></trkpt><trkpt lat="43.6865951" lon="10.4408036"><ele>2.0</ele><time>2026-03-25T11:02:44.915Z</time></trkpt><trkpt lat="43.6864847" lon="10.4410438"><ele>2.0</ele><time>2026-03-25T11:02:45.916Z</time></trkpt><trkpt lat="43.6863758" lon="10.4412823"><ele>2.0</ele><time>2026-03-25T11:02:46.916Z</time></trkpt><trkpt lat="43.6862656" lon="10.4415234"><ele>2.0</ele><time>2026-03-25T11:02:47.915Z</time></trkpt><trkpt lat="43.6861509" lon="10.4417706"><ele>2.0</ele><time>2026-03-25T11:02:48.916Z</time></trkpt><trkpt lat="43.6860315" lon="10.4420241"><ele>2.0</ele><time>2026-03-25T11:02:49.915Z</time></trkpt><trkpt lat="43.6859061" lon="10.4422768"><ele>2.5</ele><time>2026-03-25T11:02:50.915Z</time></trkpt><trkpt lat="43.6857839" lon="10.4425481"><ele>3.0</ele><time>2026-03-25T11:02:51.917Z</time></trkpt><trkpt lat="43.6856638" lon="10.4428163"><ele>2.6666666666666665</ele><time>2026-03-25T11:02:52.916Z</time></trkpt><trkpt lat="43.6855478" lon="10.4430736"><ele>2.333333333333333</ele><time>2026-03-25T11:02:53.915Z</time></trkpt><trkpt lat="43.6854369" lon="10.443321"><ele>2.0</ele><time>2026-03-25T11:02:54.917Z</time></trkpt><trkpt lat="43.6853266" lon="10.443567"><ele>2.0</ele><time>2026-03-25T11:02:55.915Z</time></trkpt><trkpt lat="43.6852162" lon="10.4438147"><ele>2.0</ele><time>2026-03-25T11:02:56.915Z</time></trkpt><trkpt lat="43.6851004" lon="10.4440622"><ele>2.0</ele><time>2026-03-25T11:02:57.916Z</time></trkpt><trkpt lat="43.6849833" lon="10.4443171"><ele>2.0</ele><time>2026-03-25T11:02:58.917Z</time></trkpt><trkpt lat="43.6848571" lon="10.4445802"><ele>2.0</ele><time>2026-03-25T11:02:59.916Z</time></trkpt><trkpt lat="43.6847315" lon="10.4448546"><ele>1.5</ele><time>2026-03-25T11:03:00.916Z</time></trkpt><trkpt lat="43.6846033" lon="10.4451377"><ele>1.0</ele><time>2026-03-25T11:03:01.915Z</time></trkpt><trkpt lat="43.6844767" lon="10.4454203"><ele>0.6666666666666666</ele><time>2026-03-25T11:03:02.915Z</time></trkpt><trkpt lat="43.6843591" lon="10.4456918"><ele>0.3333333333333333</ele><time>2026-03-25T11:03:03.915Z</time></trkpt><trkpt lat="43.6842466" lon="10.4459518"><ele>0.0</ele><time>2026-03-25T11:03:04.916Z</time></trkpt><trkpt lat="43.6841358" lon="10.4462094"><ele>-0.3333333333333333</ele><time>2026-03-25T11:03:05.916Z</time></trkpt><trkpt lat="43.6840255" lon="10.4464649"><ele>-0.6666666666666666</ele><time>2026-03-25T11:03:06.916Z</time></trkpt><trkpt lat="43.6839184" lon="10.4467171"><ele>-1.0</ele><time>2026-03-25T11:03:07.916Z</time></trkpt><trkpt lat="43.683814" lon="10.4469638"><ele>-0.6666666666666666</ele><time>2026-03-25T11:03:08.916Z</time></trkpt><trkpt lat="43.6837161" lon="10.4471983"><ele>-0.3333333333333333</ele><time>2026-03-25T11:03:09.916Z</time></trkpt><trkpt lat="43.6836218" lon="10.4474171"><ele>0.0</ele><time>2026-03-25T11:03:10.915Z</time></trkpt><trkpt lat="43.6835346" lon="10.4476172"><ele>0.0</ele><time>2026-03-25T11:03:11.915Z</time></trkpt><trkpt lat="43.6834554" lon="10.4478012"><ele>0.0</ele><time>2026-03-25T11:03:12.916Z</time></trkpt><trkpt lat="43.6833864" lon="10.4479639"><ele>0.0</ele><time>2026-03-25T11:03:13.916Z</time></trkpt><trkpt lat="43.6833317" lon="10.4480966"><ele>0.0</ele><time>2026-03-25T11:03:14.915Z</time></trkpt><trkpt lat="43.6832834" lon="10.448198"><ele>0.16666666666666666</ele><time>2026-03-25T11:03:15.915Z</time></trkpt><trkpt lat="43.683237" lon="10.4482853"><ele>0.3333333333333333</ele><time>2026-03-25T11:03:16.916Z</time></trkpt><trkpt lat="43.6831933" lon="10.44836"><ele>0.5</ele><time>2026-03-25T11:03:17.915Z</time></trkpt><trkpt lat="43.6831125" lon="10.4484213"><ele>0.6666666666666666</ele><time>2026-03-25T11:03:19.916Z</time></trkpt><trkpt lat="43.6830266" lon="10.4483972"><ele>0.8333333333333333</ele><time>2026-03-25T11:03:21.915Z</time></trkpt><trkpt lat="43.6829817" lon="10.4482881"><ele>1.0</ele><time>2026-03-25T11:03:23.917Z</time></trkpt><trkpt lat="43.6829756" lon="10.4481748"><ele>1.0</ele><time>2026-03-25T11:03:25.916Z</time></trkpt><trkpt lat="43.6829405" lon="10.4480783"><ele>0.9999999999999999</ele><time>2026-03-25T11:03:27.916Z</time></trkpt><trkpt lat="43.6828792" lon="10.4480441"><ele>1.0</ele><time>2026-03-25T11:03:29.915Z</time></trkpt><trkpt lat="43.6828137" lon="10.4480843"><ele>1.0</ele><time>2026-03-25T11:03:31.916Z</time></trkpt><trkpt lat="43.6827929" lon="10.4481669"><ele>0.9999999999999999</ele><time>2026-03-25T11:03:33.916Z</time></trkpt><trkpt lat="43.6828224" lon="10.4482487"><ele>1.0</ele><time>2026-03-25T11:03:36.916Z</time></trkpt><trkpt lat="43.6828554" lon="10.4483348"><ele>1.0</ele><time>2026-03-25T11:06:11.915Z</time></trkpt><trkpt lat="43.6829273" lon="10.4484819"><ele>1.0</ele><time>2026-03-25T11:06:13.915Z</time></trkpt><trkpt lat="43.6829581" lon="10.4485646"><ele>1.0</ele><time>2026-03-25T11:06:14.916Z</time></trkpt><trkpt lat="43.6829708" lon="10.4487351"><ele>1.0</ele><time>2026-03-25T11:06:16.916Z</time></trkpt><trkpt lat="43.6829589" lon="10.4488542"><ele>1.0</ele><time>2026-03-25T11:06:17.915Z</time></trkpt><trkpt lat="43.6829441" lon="10.448995"><ele>1.0</ele><time>2026-03-25T11:06:18.916Z</time></trkpt><trkpt lat="43.6829108" lon="10.449156"><ele>1.0</ele><time>2026-03-25T11:06:19.916Z</time></trkpt><trkpt lat="43.6828491" lon="10.4493292"><ele>1.0</ele><time>2026-03-25T11:06:20.915Z</time></trkpt><trkpt lat="43.6827844" lon="10.4495137"><ele>1.0</ele><time>2026-03-25T11:06:21.916Z</time></trkpt><trkpt lat="43.6827141" lon="10.449701"><ele>1.0</ele><time>2026-03-25T11:06:22.916Z</time></trkpt><trkpt lat="43.6826407" lon="10.449904"><ele>1.3333333333333333</ele><time>2026-03-25T11:06:23.916Z</time></trkpt><trkpt lat="43.6825611" lon="10.4501212"><ele>1.6666666666666665</ele><time>2026-03-25T11:06:24.917Z</time></trkpt><trkpt lat="43.6824812" lon="10.4503405"><ele>2.0</ele><time>2026-03-25T11:06:25.917Z</time></trkpt><trkpt lat="43.682398" lon="10.4505683"><ele>1.3333333333333333</ele><time>2026-03-25T11:06:26.916Z</time></trkpt><trkpt lat="43.6823099" lon="10.4508086"><ele>0.6666666666666666</ele><time>2026-03-25T11:06:27.916Z</time></trkpt><trkpt lat="43.6822197" lon="10.4510516"><ele>0.0</ele><time>2026-03-25T11:06:28.916Z</time></trkpt><trkpt lat="43.6821251" lon="10.4512956"><ele>0.0</ele><time>2026-03-25T11:06:29.916Z</time></trkpt><trkpt lat="43.6820203" lon="10.4515594"><ele>0.0</ele><time>2026-03-25T11:06:30.915Z</time></trkpt><trkpt lat="43.6819112" lon="10.4518229"><ele>0.0</ele><time>2026-03-25T11:06:31.916Z</time></trkpt><trkpt lat="43.6818023" lon="10.4520923"><ele>0.6666666666666666</ele><time>2026-03-25T11:06:32.916Z</time></trkpt><trkpt lat="43.6816972" lon="10.452359"><ele>1.3333333333333333</ele><time>2026-03-25T11:06:33.916Z</time></trkpt><trkpt lat="43.6815889" lon="10.4526379"><ele>2.0</ele><time>2026-03-25T11:06:34.916Z</time></trkpt><trkpt lat="43.681472" lon="10.4529359"><ele>2.0</ele><time>2026-03-25T11:06:35.916Z</time></trkpt><trkpt lat="43.6813532" lon="10.4532405"><ele>2.0</ele><time>2026-03-25T11:06:36.917Z</time></trkpt><trkpt lat="43.6812373" lon="10.4535374"><ele>1.5</ele><time>2026-03-25T11:06:37.916Z</time></trkpt><trkpt lat="43.6811229" lon="10.4538287"><ele>1.0</ele><time>2026-03-25T11:06:38.916Z</time></trkpt><trkpt lat="43.6810086" lon="10.454119"><ele>0.5</ele><time>2026-03-25T11:06:39.917Z</time></trkpt><trkpt lat="43.6808929" lon="10.4544134"><ele>0.0</ele><time>2026-03-25T11:06:40.915Z</time></trkpt><trkpt lat="43.6807809" lon="10.4547013"><ele>0.0</ele><time>2026-03-25T11:06:41.916Z</time></trkpt><trkpt lat="43.6806687" lon="10.4549927"><ele>0.0</ele><time>2026-03-25T11:06:42.916Z</time></trkpt><trkpt lat="43.6805522" lon="10.4552931"><ele>0.5</ele><time>2026-03-25T11:06:43.915Z</time></trkpt><trkpt lat="43.6804368" lon="10.4555904"><ele>1.0</ele><time>2026-03-25T11:06:44.917Z</time></trkpt><trkpt lat="43.6803229" lon="10.4558801"><ele>1.0</ele><time>2026-03-25T11:06:45.915Z</time></trkpt><trkpt lat="43.6802076" lon="10.4561681"><ele>1.0</ele><time>2026-03-25T11:06:46.916Z</time></trkpt><trkpt lat="43.6800913" lon="10.4564519"><ele>1.0</ele><time>2026-03-25T11:06:47.916Z</time></trkpt><trkpt lat="43.6799762" lon="10.4567312"><ele>1.0</ele><time>2026-03-25T11:06:48.916Z</time></trkpt><trkpt lat="43.6798682" lon="10.4569873"><ele>1.0</ele><time>2026-03-25T11:06:49.915Z</time></trkpt><trkpt lat="43.67976" lon="10.457232"><ele>1.0</ele><time>2026-03-25T11:06:50.917Z</time></trkpt><trkpt lat="43.6796534" lon="10.4574682"><ele>1.0</ele><time>2026-03-25T11:06:51.915Z</time></trkpt><trkpt lat="43.6795526" lon="10.4576906"><ele>1.0</ele><time>2026-03-25T11:06:52.915Z</time></trkpt><trkpt lat="43.6794563" lon="10.4578996"><ele>0.6666666666666666</ele><time>2026-03-25T11:06:53.915Z</time></trkpt><trkpt lat="43.6793607" lon="10.4581005"><ele>0.3333333333333333</ele><time>2026-03-25T11:06:54.916Z</time></trkpt><trkpt lat="43.6792669" lon="10.4582939"><ele>0.0</ele><time>2026-03-25T11:06:55.916Z</time></trkpt><trkpt lat="43.6791748" lon="10.4584831"><ele>0.0</ele><time>2026-03-25T11:06:56.915Z</time></trkpt><trkpt lat="43.679088" lon="10.4586585"><ele>0.0</ele><time>2026-03-25T11:06:57.916Z</time></trkpt><trkpt lat="43.6789995" lon="10.4588288"><ele>0.0</ele><time>2026-03-25T11:06:58.916Z</time></trkpt><trkpt lat="43.6789061" lon="10.4590036"><ele>0.6666666666666666</ele><time>2026-03-25T11:06:59.916Z</time></trkpt><trkpt lat="43.678814" lon="10.4591741"><ele>1.3333333333333333</ele><time>2026-03-25T11:07:00.917Z</time></trkpt><trkpt lat="43.6787252" lon="10.4593414"><ele>2.0</ele><time>2026-03-25T11:07:01.915Z</time></trkpt><trkpt lat="43.678636" lon="10.459509"><ele>1.6666666666666665</ele><time>2026-03-25T11:07:02.916Z</time></trkpt><trkpt lat="43.6785462" lon="10.459676"><ele>1.3333333333333333</ele><time>2026-03-25T11:07:03.915Z</time></trkpt><trkpt lat="43.6784535" lon="10.4598457"><ele>1.0</ele><time>2026-03-25T11:07:04.916Z</time></trkpt><trkpt lat="43.6783591" lon="10.4600136"><ele>1.0</ele><time>2026-03-25T11:07:05.916Z</time></trkpt><trkpt lat="43.6782599" lon="10.4601851"><ele>1.0</ele><time>2026-03-25T11:07:06.915Z</time></trkpt><trkpt lat="43.6781533" lon="10.4603677"><ele>1.0</ele><time>2026-03-25T11:07:07.915Z</time></trkpt><trkpt lat="43.6780478" lon="10.4605531"><ele>1.0</ele><time>2026-03-25T11:07:08.916Z</time></trkpt><trkpt lat="43.6779483" lon="10.4607324"><ele>1.0</ele><time>2026-03-25T11:07:09.916Z</time></trkpt><trkpt lat="43.6778515" lon="10.4609062"><ele>1.0</ele><time>2026-03-25T11:07:10.916Z</time></trkpt><trkpt lat="43.67776" lon="10.4610689"><ele>1.0</ele><time>2026-03-25T11:07:11.916Z</time></trkpt><trkpt lat="43.6776752" lon="10.4612198"><ele>1.0</ele><time>2026-03-25T11:07:12.916Z</time></trkpt><trkpt lat="43.6775991" lon="10.4613493"><ele>1.0</ele><time>2026-03-25T11:07:13.916Z</time></trkpt><trkpt lat="43.6775268" lon="10.461462"><ele>1.0</ele><time>2026-03-25T11:07:14.916Z</time></trkpt><trkpt lat="43.6774579" lon="10.4615608"><ele>1.25</ele><time>2026-03-25T11:07:15.916Z</time></trkpt><trkpt lat="43.6774022" lon="10.4616462"><ele>1.5</ele><time>2026-03-25T11:07:16.916Z</time></trkpt><trkpt lat="43.6773629" lon="10.4617142"><ele>1.75</ele><time>2026-03-25T11:07:17.916Z</time></trkpt><trkpt lat="43.6772557" lon="10.4619532"><ele>2.0</ele><time>2026-03-25T11:08:23.916Z</time></trkpt><trkpt lat="43.6771663" lon="10.4621482"><ele>2.0</ele><time>2026-03-25T11:08:24.915Z</time></trkpt><trkpt lat="43.6770855" lon="10.4623094"><ele>2.0</ele><time>2026-03-25T11:08:25.916Z</time></trkpt><trkpt lat="43.6769984" lon="10.462474"><ele>2.0</ele><time>2026-03-25T11:08:26.916Z</time></trkpt><trkpt lat="43.6769057" lon="10.4626426"><ele>2.0</ele><time>2026-03-25T11:08:27.916Z</time></trkpt><trkpt lat="43.6768128" lon="10.4628113"><ele>1.6666666666666665</ele><time>2026-03-25T11:08:28.916Z</time></trkpt><trkpt lat="43.6767118" lon="10.4629973"><ele>1.3333333333333333</ele><time>2026-03-25T11:08:29.915Z</time></trkpt><trkpt lat="43.6766007" lon="10.4632049"><ele>1.0</ele><time>2026-03-25T11:08:30.915Z</time></trkpt><trkpt lat="43.6764871" lon="10.4634143"><ele>1.0</ele><time>2026-03-25T11:08:31.915Z</time></trkpt><trkpt lat="43.6763745" lon="10.4636198"><ele>1.0</ele><time>2026-03-25T11:08:32.916Z</time></trkpt><trkpt lat="43.6762656" lon="10.4638195"><ele>1.0</ele><time>2026-03-25T11:08:33.916Z</time></trkpt><trkpt lat="43.6761543" lon="10.4640279"><ele>1.0</ele><time>2026-03-25T11:08:34.916Z</time></trkpt><trkpt lat="43.6760346" lon="10.4642527"><ele>1.0</ele><time>2026-03-25T11:08:35.917Z</time></trkpt><trkpt lat="43.6759123" lon="10.4644874"><ele>1.0</ele><time>2026-03-25T11:08:36.915Z</time></trkpt><trkpt lat="43.6757855" lon="10.4647329"><ele>1.0</ele><time>2026-03-25T11:08:37.917Z</time></trkpt><trkpt lat="43.6756534" lon="10.4649869"><ele>1.0</ele><time>2026-03-25T11:08:38.916Z</time></trkpt><trkpt lat="43.6755204" lon="10.4652338"><ele>1.0</ele><time>2026-03-25T11:08:39.915Z</time></trkpt><trkpt lat="43.6753784" lon="10.4654922"><ele>1.0</ele><time>2026-03-25T11:08:40.917Z</time></trkpt><trkpt lat="43.6752349" lon="10.46575"><ele>1.0</ele><time>2026-03-25T11:08:41.917Z</time></trkpt><trkpt lat="43.6750899" lon="10.4660082"><ele>1.0</ele><time>2026-03-25T11:08:42.916Z</time></trkpt><trkpt lat="43.6749435" lon="10.4662701"><ele>1.0</ele><time>2026-03-25T11:08:43.915Z</time></trkpt><trkpt lat="43.6748019" lon="10.4665251"><ele>1.0</ele><time>2026-03-25T11:08:44.916Z</time></trkpt><trkpt lat="43.6746613" lon="10.4667795"><ele>1.0</ele><time>2026-03-25T11:08:45.915Z</time></trkpt><trkpt lat="43.6745207" lon="10.4670334"><ele>0.5</ele><time>2026-03-25T11:08:46.914Z</time></trkpt><trkpt lat="43.6743784" lon="10.4672879"><ele>0.0</ele><time>2026-03-25T11:08:47.915Z</time></trkpt><trkpt lat="43.6742341" lon="10.4675461"><ele>0.0</ele><time>2026-03-25T11:08:48.915Z</time></trkpt><trkpt lat="43.6740904" lon="10.4678061"><ele>0.0</ele><time>2026-03-25T11:08:49.915Z</time></trkpt><trkpt lat="43.6739464" lon="10.468071"><ele>-0.5</ele><time>2026-03-25T11:08:50.914Z</time></trkpt><trkpt lat="43.6738014" lon="10.4683447"><ele>-1.0</ele><time>2026-03-25T11:08:51.914Z</time></trkpt><trkpt lat="43.6736598" lon="10.4686105"><ele>-0.5</ele><time>2026-03-25T11:08:52.915Z</time></trkpt><trkpt lat="43.6735171" lon="10.4688786"><ele>0.0</ele><time>2026-03-25T11:08:53.916Z</time></trkpt><trkpt lat="43.6733737" lon="10.4691512"><ele>0.0</ele><time>2026-03-25T11:08:54.915Z</time></trkpt><trkpt lat="43.6732327" lon="10.4694282"><ele>0.0</ele><time>2026-03-25T11:08:55.915Z</time></trkpt><trkpt lat="43.6730908" lon="10.4697111"><ele>0.5</ele><time>2026-03-25T11:08:56.915Z</time></trkpt><trkpt lat="43.672953" lon="10.4699998"><ele>1.0</ele><time>2026-03-25T11:08:57.915Z</time></trkpt><trkpt lat="43.6728192" lon="10.4702948"><ele>1.0</ele><time>2026-03-25T11:08:58.915Z</time></trkpt><trkpt lat="43.6726911" lon="10.4705968"><ele>1.0</ele><time>2026-03-25T11:08:59.914Z</time></trkpt><trkpt lat="43.6725721" lon="10.4708865"><ele>1.0</ele><time>2026-03-25T11:09:00.914Z</time></trkpt><trkpt lat="43.6724572" lon="10.471177"><ele>1.0</ele><time>2026-03-25T11:09:01.914Z</time></trkpt><trkpt lat="43.6723452" lon="10.471479"><ele>1.5</ele><time>2026-03-25T11:09:02.915Z</time></trkpt><trkpt lat="43.6722383" lon="10.4717948"><ele>2.0</ele><time>2026-03-25T11:09:03.915Z</time></trkpt><trkpt lat="43.6721327" lon="10.4721249"><ele>2.0</ele><time>2026-03-25T11:09:04.916Z</time></trkpt><trkpt lat="43.6720308" lon="10.4724639"><ele>2.0</ele><time>2026-03-25T11:09:05.915Z</time></trkpt><trkpt lat="43.6719319" lon="10.4728071"><ele>2.0</ele><time>2026-03-25T11:09:06.915Z</time></trkpt><trkpt lat="43.6718379" lon="10.4731534"><ele>2.0</ele><time>2026-03-25T11:09:07.915Z</time></trkpt><trkpt lat="43.6717542" lon="10.4734836"><ele>1.5</ele><time>2026-03-25T11:09:08.914Z</time></trkpt><trkpt lat="43.6716769" lon="10.4738125"><ele>1.0</ele><time>2026-03-25T11:09:09.914Z</time></trkpt><trkpt lat="43.6716067" lon="10.4741458"><ele>1.0</ele><time>2026-03-25T11:09:10.914Z</time></trkpt><trkpt lat="43.671541" lon="10.4744826"><ele>1.0</ele><time>2026-03-25T11:09:11.915Z</time></trkpt><trkpt lat="43.6714808" lon="10.4748241"><ele>0.5</ele><time>2026-03-25T11:09:12.914Z</time></trkpt><trkpt lat="43.6714278" lon="10.4751637"><ele>0.0</ele><time>2026-03-25T11:09:13.915Z</time></trkpt><trkpt lat="43.6713796" lon="10.4755041"><ele>1.5</ele><time>2026-03-25T11:09:14.915Z</time></trkpt><trkpt lat="43.6713363" lon="10.4758511"><ele>3.0</ele><time>2026-03-25T11:09:15.914Z</time></trkpt><trkpt lat="43.6713024" lon="10.4761879"><ele>2.5</ele><time>2026-03-25T11:09:16.914Z</time></trkpt><trkpt lat="43.671274" lon="10.476523"><ele>2.0</ele><time>2026-03-25T11:09:17.916Z</time></trkpt><trkpt lat="43.6712527" lon="10.4768569"><ele>1.5</ele><time>2026-03-25T11:09:18.914Z</time></trkpt><trkpt lat="43.6712348" lon="10.4771904"><ele>1.0</ele><time>2026-03-25T11:09:19.915Z</time></trkpt><trkpt lat="43.6712205" lon="10.4775299"><ele>1.0</ele><time>2026-03-25T11:09:20.915Z</time></trkpt><trkpt lat="43.6712106" lon="10.4778753"><ele>1.0</ele><time>2026-03-25T11:09:21.915Z</time></trkpt><trkpt lat="43.6712067" lon="10.4782306"><ele>1.0</ele><time>2026-03-25T11:09:22.915Z</time></trkpt><trkpt lat="43.6712094" lon="10.4785973"><ele>1.0</ele><time>2026-03-25T11:09:23.915Z</time></trkpt><trkpt lat="43.6712139" lon="10.4789574"><ele>1.0</ele><time>2026-03-25T11:09:24.916Z</time></trkpt><trkpt lat="43.6712198" lon="10.4793257"><ele>1.0</ele><time>2026-03-25T11:09:25.915Z</time></trkpt><trkpt lat="43.671228" lon="10.4796998"><ele>1.5</ele><time>2026-03-25T11:09:26.914Z</time></trkpt><trkpt lat="43.6712378" lon="10.4800714"><ele>2.0</ele><time>2026-03-25T11:09:27.915Z</time></trkpt><trkpt lat="43.6712509" lon="10.4804369"><ele>2.0</ele><time>2026-03-25T11:09:28.914Z</time></trkpt><trkpt lat="43.6712647" lon="10.4807946"><ele>2.0</ele><time>2026-03-25T11:09:29.914Z</time></trkpt><trkpt lat="43.671281" lon="10.4811583"><ele>3.0</ele><time>2026-03-25T11:09:30.914Z</time></trkpt><trkpt lat="43.6712968" lon="10.4815397"><ele>4.0</ele><time>2026-03-25T11:09:31.914Z</time></trkpt><trkpt lat="43.6713111" lon="10.4819196"><ele>3.0</ele><time>2026-03-25T11:09:32.915Z</time></trkpt><trkpt lat="43.6713221" lon="10.4823105"><ele>2.0</ele><time>2026-03-25T11:09:33.915Z</time></trkpt><trkpt lat="43.6713329" lon="10.4827054"><ele>1.5</ele><time>2026-03-25T11:09:34.915Z</time></trkpt><trkpt lat="43.6713439" lon="10.4830931"><ele>1.0</ele><time>2026-03-25T11:09:35.914Z</time></trkpt><trkpt lat="43.6713566" lon="10.4834874"><ele>1.5</ele><time>2026-03-25T11:09:36.915Z</time></trkpt><trkpt lat="43.6713704" lon="10.4838871"><ele>2.0</ele><time>2026-03-25T11:09:37.915Z</time></trkpt><trkpt lat="43.6713844" lon="10.4842923"><ele>2.0</ele><time>2026-03-25T11:09:38.915Z</time></trkpt><trkpt lat="43.671399" lon="10.4847073"><ele>2.0</ele><time>2026-03-25T11:09:39.915Z</time></trkpt><trkpt lat="43.6714129" lon="10.4851119"><ele>2.5</ele><time>2026-03-25T11:09:40.914Z</time></trkpt><trkpt lat="43.6714265" lon="10.4855206"><ele>3.0</ele><time>2026-03-25T11:09:41.914Z</time></trkpt><trkpt lat="43.6714394" lon="10.4859348"><ele>2.0</ele><time>2026-03-25T11:09:42.914Z</time></trkpt><trkpt lat="43.6714529" lon="10.4863489"><ele>1.0</ele><time>2026-03-25T11:09:43.915Z</time></trkpt><trkpt lat="43.6714664" lon="10.4867651"><ele>1.5</ele><time>2026-03-25T11:09:44.915Z</time></trkpt><trkpt lat="43.6714807" lon="10.4871798"><ele>2.0</ele><time>2026-03-25T11:09:45.915Z</time></trkpt><trkpt lat="43.6714948" lon="10.4875963"><ele>1.5</ele><time>2026-03-25T11:09:46.915Z</time></trkpt><trkpt lat="43.6715099" lon="10.4880226"><ele>1.0</ele><time>2026-03-25T11:09:47.915Z</time></trkpt><trkpt lat="43.671525" lon="10.4884367"><ele>1.5</ele><time>2026-03-25T11:09:48.914Z</time></trkpt><trkpt lat="43.6715403" lon="10.4888485"><ele>2.0</ele><time>2026-03-25T11:09:49.915Z</time></trkpt><trkpt lat="43.6715549" lon="10.4892579"><ele>1.5</ele><time>2026-03-25T11:09:50.914Z</time></trkpt><trkpt lat="43.6715684" lon="10.4896602"><ele>1.0</ele><time>2026-03-25T11:09:51.914Z</time></trkpt><trkpt lat="43.6715812" lon="10.4900604"><ele>1.0</ele><time>2026-03-25T11:09:52.915Z</time></trkpt><trkpt lat="43.6715937" lon="10.4904537"><ele>1.0</ele><time>2026-03-25T11:09:53.915Z</time></trkpt><trkpt lat="43.6716056" lon="10.490845"><ele>1.0</ele><time>2026-03-25T11:09:54.916Z</time></trkpt><trkpt lat="43.671615" lon="10.4912391"><ele>1.0</ele><time>2026-03-25T11:09:55.914Z</time></trkpt><trkpt lat="43.6716177" lon="10.4916175"><ele>1.5</ele><time>2026-03-25T11:09:56.915Z</time></trkpt><trkpt lat="43.6716074" lon="10.4919892"><ele>2.0</ele><time>2026-03-25T11:09:57.915Z</time></trkpt><trkpt lat="43.6715897" lon="10.4923643"><ele>2.0</ele><time>2026-03-25T11:09:58.915Z</time></trkpt><trkpt lat="43.6715649" lon="10.4927344"><ele>2.0</ele><time>2026-03-25T11:09:59.915Z</time></trkpt><trkpt lat="43.6715326" lon="10.4931054"><ele>2.0</ele><time>2026-03-25T11:10:00.914Z</time></trkpt><trkpt lat="43.6714956" lon="10.4934758"><ele>2.0</ele><time>2026-03-25T11:10:01.915Z</time></trkpt><trkpt lat="43.6714544" lon="10.4938513"><ele>2.0</ele><time>2026-03-25T11:10:02.915Z</time></trkpt><trkpt lat="43.67141" lon="10.4942378"><ele>2.0</ele><time>2026-03-25T11:10:03.914Z</time></trkpt><trkpt lat="43.671367" lon="10.494608"><ele>2.5</ele><time>2026-03-25T11:10:04.915Z</time></trkpt><trkpt lat="43.6713241" lon="10.494996"><ele>3.0</ele><time>2026-03-25T11:10:05.914Z</time></trkpt><trkpt lat="43.6712802" lon="10.4953909"><ele>3.0</ele><time>2026-03-25T11:10:06.914Z</time></trkpt><trkpt lat="43.6712359" lon="10.4957731"><ele>3.0</ele><time>2026-03-25T11:10:07.915Z</time></trkpt><trkpt lat="43.6711875" lon="10.4961834"><ele>2.5</ele><time>2026-03-25T11:10:08.914Z</time></trkpt><trkpt lat="43.6711396" lon="10.4965806"><ele>2.0</ele><time>2026-03-25T11:10:09.915Z</time></trkpt><trkpt lat="43.6710915" lon="10.4969717"><ele>1.5</ele><time>2026-03-25T11:10:10.915Z</time></trkpt><trkpt lat="43.671042" lon="10.49737"><ele>1.0</ele><time>2026-03-25T11:10:11.915Z</time></trkpt><trkpt lat="43.6709929" lon="10.4977619"><ele>1.0</ele><time>2026-03-25T11:10:12.915Z</time></trkpt><trkpt lat="43.6709445" lon="10.4981556"><ele>1.0</ele><time>2026-03-25T11:10:13.915Z</time></trkpt><trkpt lat="43.6708993" lon="10.4985461"><ele>2.0</ele><time>2026-03-25T11:10:14.915Z</time></trkpt><trkpt lat="43.670855" lon="10.4989337"><ele>3.0</ele><time>2026-03-25T11:10:15.915Z</time></trkpt><trkpt lat="43.6708071" lon="10.4993496"><ele>3.0</ele><time>2026-03-25T11:10:16.915Z</time></trkpt><trkpt lat="43.67076" lon="10.4997584"><ele>3.0</ele><time>2026-03-25T11:10:17.914Z</time></trkpt><trkpt lat="43.6707128" lon="10.5001647"><ele>3.0</ele><time>2026-03-25T11:10:18.915Z</time></trkpt><trkpt lat="43.6706638" lon="10.5005778"><ele>3.0</ele><time>2026-03-25T11:10:19.915Z</time></trkpt><trkpt lat="43.6706157" lon="10.5009907"><ele>3.0</ele><time>2026-03-25T11:10:20.915Z</time></trkpt><trkpt lat="43.670566" lon="10.5014067"><ele>3.0</ele><time>2026-03-25T11:10:21.915Z</time></trkpt><trkpt lat="43.6705141" lon="10.5018181"><ele>2.5</ele><time>2026-03-25T11:10:22.914Z</time></trkpt><trkpt lat="43.6704635" lon="10.5022184"><ele>2.0</ele><time>2026-03-25T11:10:23.915Z</time></trkpt><trkpt lat="43.6704117" lon="10.5026397"><ele>2.0</ele><time>2026-03-25T11:10:24.914Z</time></trkpt><trkpt lat="43.6703624" lon="10.5030489"><ele>2.0</ele><time>2026-03-25T11:10:25.914Z</time></trkpt><trkpt lat="43.670314" lon="10.5034519"><ele>2.5</ele><time>2026-03-25T11:10:26.914Z</time></trkpt><trkpt lat="43.6702647" lon="10.5038663"><ele>3.0</ele><time>2026-03-25T11:10:27.915Z</time></trkpt><trkpt lat="43.6702199" lon="10.5042496"><ele>3.0</ele><time>2026-03-25T11:10:28.915Z</time></trkpt><trkpt lat="43.6701732" lon="10.5046451"><ele>3.0</ele><time>2026-03-25T11:10:29.915Z</time></trkpt><trkpt lat="43.6701263" lon="10.5050325"><ele>3.0</ele><time>2026-03-25T11:10:30.914Z</time></trkpt><trkpt lat="43.6700787" lon="10.5054085"><ele>3.0</ele><time>2026-03-25T11:10:31.915Z</time></trkpt><trkpt lat="43.6700288" lon="10.505807"><ele>2.0</ele><time>2026-03-25T11:10:32.916Z</time></trkpt><trkpt lat="43.6699818" lon="10.5061993"><ele>1.0</ele><time>2026-03-25T11:10:33.915Z</time></trkpt><trkpt lat="43.6699365" lon="10.5065917"><ele>1.0</ele><time>2026-03-25T11:10:34.915Z</time></trkpt><trkpt lat="43.6698895" lon="10.5070065"><ele>1.0</ele><time>2026-03-25T11:10:35.916Z</time></trkpt><trkpt lat="43.6698456" lon="10.5073923"><ele>1.0</ele><time>2026-03-25T11:10:36.916Z</time></trkpt><trkpt lat="43.6697994" lon="10.5077945"><ele>1.0</ele><time>2026-03-25T11:10:37.914Z</time></trkpt><trkpt lat="43.6697531" lon="10.5081935"><ele>1.5</ele><time>2026-03-25T11:10:38.916Z</time></trkpt><trkpt lat="43.6697072" lon="10.5085823"><ele>2.0</ele><time>2026-03-25T11:10:39.914Z</time></trkpt><trkpt lat="43.6696584" lon="10.5089958"><ele>2.0</ele><time>2026-03-25T11:10:40.914Z</time></trkpt><trkpt lat="43.6696105" lon="10.5094008"><ele>2.0</ele><time>2026-03-25T11:10:41.914Z</time></trkpt><trkpt lat="43.6695631" lon="10.5098003"><ele>2.5</ele><time>2026-03-25T11:10:42.914Z</time></trkpt><trkpt lat="43.6695127" lon="10.5102142"><ele>3.0</ele><time>2026-03-25T11:10:43.915Z</time></trkpt><trkpt lat="43.6694664" lon="10.5105953"><ele>3.0</ele><time>2026-03-25T11:10:44.915Z</time></trkpt><trkpt lat="43.6694197" lon="10.5109943"><ele>3.0</ele><time>2026-03-25T11:10:45.916Z</time></trkpt><trkpt lat="43.6693728" lon="10.5113912"><ele>3.5</ele><time>2026-03-25T11:10:46.915Z</time></trkpt><trkpt lat="43.6693266" lon="10.5117766"><ele>4.0</ele><time>2026-03-25T11:10:47.915Z</time></trkpt><trkpt lat="43.6692781" lon="10.5121795"><ele>4.5</ele><time>2026-03-25T11:10:48.915Z</time></trkpt><trkpt lat="43.6692314" lon="10.5125681"><ele>5.0</ele><time>2026-03-25T11:10:49.914Z</time></trkpt><trkpt lat="43.6691859" lon="10.512953"><ele>4.0</ele><time>2026-03-25T11:10:50.914Z</time></trkpt><trkpt lat="43.6691415" lon="10.5133575"><ele>3.0</ele><time>2026-03-25T11:10:51.915Z</time></trkpt><trkpt lat="43.6690969" lon="10.5137405"><ele>3.0</ele><time>2026-03-25T11:10:52.914Z</time></trkpt><trkpt lat="43.6690486" lon="10.5141453"><ele>3.0</ele><time>2026-03-25T11:10:53.914Z</time></trkpt><trkpt lat="43.6689999" lon="10.5145502"><ele>2.5</ele><time>2026-03-25T11:10:54.915Z</time></trkpt><trkpt lat="43.6689501" lon="10.5149578"><ele>2.0</ele><time>2026-03-25T11:10:55.915Z</time></trkpt><trkpt lat="43.6689005" lon="10.5153615"><ele>3.0</ele><time>2026-03-25T11:10:56.915Z</time></trkpt><trkpt lat="43.6688501" lon="10.5157697"><ele>4.0</ele><time>2026-03-25T11:10:57.915Z</time></trkpt><trkpt lat="43.6688007" lon="10.5161766"><ele>4.5</ele><time>2026-03-25T11:10:58.914Z</time></trkpt><trkpt lat="43.6687503" lon="10.5166032"><ele>5.0</ele><time>2026-03-25T11:10:59.916Z</time></trkpt><trkpt lat="43.6687036" lon="10.5170048"><ele>4.0</ele><time>2026-03-25T11:11:00.916Z</time></trkpt><trkpt lat="43.6686537" lon="10.5174202"><ele>3.0</ele><time>2026-03-25T11:11:01.915Z</time></trkpt><trkpt lat="43.6686049" lon="10.5178352"><ele>2.5</ele><time>2026-03-25T11:11:02.915Z</time></trkpt><trkpt lat="43.6685569" lon="10.5182532"><ele>2.0</ele><time>2026-03-25T11:11:03.915Z</time></trkpt><trkpt lat="43.6685097" lon="10.5186661"><ele>1.5</ele><time>2026-03-25T11:11:04.915Z</time></trkpt><trkpt lat="43.6684618" lon="10.5190829"><ele>1.0</ele><time>2026-03-25T11:11:05.915Z</time></trkpt><trkpt lat="43.6684119" lon="10.5194903"><ele>1.5</ele><time>2026-03-25T11:11:06.915Z</time></trkpt><trkpt lat="43.6683573" lon="10.5199126"><ele>2.0</ele><time>2026-03-25T11:11:07.915Z</time></trkpt><trkpt lat="43.6683074" lon="10.5203021"><ele>3.5</ele><time>2026-03-25T11:11:08.915Z</time></trkpt><trkpt lat="43.6682574" lon="10.5207063"><ele>5.0</ele><time>2026-03-25T11:11:09.914Z</time></trkpt><trkpt lat="43.6682101" lon="10.5211033"><ele>3.5</ele><time>2026-03-25T11:11:10.914Z</time></trkpt><trkpt lat="43.6681631" lon="10.5215014"><ele>2.0</ele><time>2026-03-25T11:11:11.915Z</time></trkpt><trkpt lat="43.6681175" lon="10.5218956"><ele>2.0</ele><time>2026-03-25T11:11:12.915Z</time></trkpt><trkpt lat="43.6680729" lon="10.5222926"><ele>2.0</ele><time>2026-03-25T11:11:13.915Z</time></trkpt><trkpt lat="43.6680293" lon="10.5226883"><ele>3.0</ele><time>2026-03-25T11:11:14.915Z</time></trkpt><trkpt lat="43.6679838" lon="10.523098"><ele>4.0</ele><time>2026-03-25T11:11:15.915Z</time></trkpt><trkpt lat="43.6679397" lon="10.5234715"><ele>4.5</ele><time>2026-03-25T11:11:16.916Z</time></trkpt><trkpt lat="43.667894" lon="10.5238558"><ele>5.0</ele><time>2026-03-25T11:11:17.914Z</time></trkpt><trkpt lat="43.6678495" lon="10.5242313"><ele>5.0</ele><time>2026-03-25T11:11:18.915Z</time></trkpt><trkpt lat="43.6678046" lon="10.524608"><ele>5.0</ele><time>2026-03-25T11:11:19.914Z</time></trkpt><trkpt lat="43.6677588" lon="10.5249809"><ele>4.5</ele><time>2026-03-25T11:11:20.914Z</time></trkpt><trkpt lat="43.667712" lon="10.5253584"><ele>4.0</ele><time>2026-03-25T11:11:21.914Z</time></trkpt><trkpt lat="43.6676664" lon="10.5257284"><ele>3.5</ele><time>2026-03-25T11:11:22.915Z</time></trkpt><trkpt lat="43.6676177" lon="10.5261133"><ele>3.0</ele><time>2026-03-25T11:11:23.915Z</time></trkpt><trkpt lat="43.667568" lon="10.526473"><ele>2.5</ele><time>2026-03-25T11:11:24.915Z</time></trkpt><trkpt lat="43.6675112" lon="10.5268574"><ele>2.0</ele><time>2026-03-25T11:11:25.916Z</time></trkpt><trkpt lat="43.6674445" lon="10.5272378"><ele>2.0</ele><time>2026-03-25T11:11:26.916Z</time></trkpt><trkpt lat="43.6673693" lon="10.5276233"><ele>2.0</ele><time>2026-03-25T11:11:27.915Z</time></trkpt><trkpt lat="43.6672842" lon="10.5280011"><ele>3.0</ele><time>2026-03-25T11:11:28.915Z</time></trkpt><trkpt lat="43.6671876" lon="10.5283789"><ele>4.0</ele><time>2026-03-25T11:11:29.914Z</time></trkpt><trkpt lat="43.6670817" lon="10.5287426"><ele>4.0</ele><time>2026-03-25T11:11:30.915Z</time></trkpt><trkpt lat="43.666958" lon="10.5291107"><ele>4.0</ele><time>2026-03-25T11:11:31.914Z</time></trkpt><trkpt lat="43.6668332" lon="10.5294416"><ele>4.0</ele><time>2026-03-25T11:11:32.915Z</time></trkpt><trkpt lat="43.6666956" lon="10.5297781"><ele>4.0</ele><time>2026-03-25T11:11:33.914Z</time></trkpt><trkpt lat="43.6665503" lon="10.5301023"><ele>4.5</ele><time>2026-03-25T11:11:34.914Z</time></trkpt><trkpt lat="43.6663961" lon="10.530416"><ele>5.0</ele><time>2026-03-25T11:11:35.916Z</time></trkpt><trkpt lat="43.6662304" lon="10.5307224"><ele>5.0</ele><time>2026-03-25T11:11:36.914Z</time></trkpt><trkpt lat="43.6660666" lon="10.5310002"><ele>5.0</ele><time>2026-03-25T11:11:37.916Z</time></trkpt><trkpt lat="43.6658927" lon="10.5312698"><ele>5.0</ele><time>2026-03-25T11:11:38.915Z</time></trkpt><trkpt lat="43.6657012" lon="10.5315367"><ele>5.0</ele><time>2026-03-25T11:11:39.914Z</time></trkpt><trkpt lat="43.6655173" lon="10.5317695"><ele>5.0</ele><time>2026-03-25T11:11:40.915Z</time></trkpt><trkpt lat="43.6653226" lon="10.5320041"><ele>5.0</ele><time>2026-03-25T11:11:41.916Z</time></trkpt><trkpt lat="43.6651262" lon="10.532224"><ele>5.5</ele><time>2026-03-25T11:11:42.915Z</time></trkpt><trkpt lat="43.6649237" lon="10.5324314"><ele>6.0</ele><time>2026-03-25T11:11:43.915Z</time></trkpt><trkpt lat="43.6647131" lon="10.5326275"><ele>6.0</ele><time>2026-03-25T11:11:44.915Z</time></trkpt><trkpt lat="43.6645076" lon="10.5328064"><ele>6.0</ele><time>2026-03-25T11:11:45.915Z</time></trkpt><trkpt lat="43.6642925" lon="10.5329815"><ele>5.5</ele><time>2026-03-25T11:11:46.915Z</time></trkpt><trkpt lat="43.6640625" lon="10.5331575"><ele>5.0</ele><time>2026-03-25T11:11:47.916Z</time></trkpt><trkpt lat="43.6638472" lon="10.5333126"><ele>5.0</ele><time>2026-03-25T11:11:48.916Z</time></trkpt><trkpt lat="43.6636212" lon="10.5334665"><ele>5.0</ele><time>2026-03-25T11:11:49.915Z</time></trkpt><trkpt lat="43.6634055" lon="10.5336102"><ele>4.0</ele><time>2026-03-25T11:11:50.915Z</time></trkpt><trkpt lat="43.6631975" lon="10.5337459"><ele>3.0</ele><time>2026-03-25T11:11:51.914Z</time></trkpt><trkpt lat="43.6629906" lon="10.5338765"><ele>3.0</ele><time>2026-03-25T11:11:52.914Z</time></trkpt><trkpt lat="43.6627982" lon="10.5339939"><ele>3.0</ele><time>2026-03-25T11:11:53.914Z</time></trkpt><trkpt lat="43.6625977" lon="10.5341153"><ele>3.0</ele><time>2026-03-25T11:11:54.915Z</time></trkpt><trkpt lat="43.6623865" lon="10.5342406"><ele>2.5</ele><time>2026-03-25T11:11:55.915Z</time></trkpt><trkpt lat="43.6621802" lon="10.5343625"><ele>2.0</ele><time>2026-03-25T11:11:56.915Z</time></trkpt><trkpt lat="43.6619653" lon="10.5344899"><ele>4.0</ele><time>2026-03-25T11:11:57.914Z</time></trkpt><trkpt lat="43.6617443" lon="10.5346226"><ele>6.0</ele><time>2026-03-25T11:11:58.915Z</time></trkpt><trkpt lat="43.6615208" lon="10.534758"><ele>6.0</ele><time>2026-03-25T11:11:59.915Z</time></trkpt><trkpt lat="43.6612918" lon="10.5348967"><ele>6.0</ele><time>2026-03-25T11:12:00.916Z</time></trkpt><trkpt lat="43.6610638" lon="10.5350329"><ele>6.0</ele><time>2026-03-25T11:12:01.915Z</time></trkpt><trkpt lat="43.6608309" lon="10.5351706"><ele>6.0</ele><time>2026-03-25T11:12:02.915Z</time></trkpt><trkpt lat="43.6605892" lon="10.5353139"><ele>5.0</ele><time>2026-03-25T11:12:03.914Z</time></trkpt><trkpt lat="43.6603522" lon="10.5354504"><ele>4.0</ele><time>2026-03-25T11:12:04.915Z</time></trkpt><trkpt lat="43.6601054" lon="10.5355891"><ele>4.0</ele><time>2026-03-25T11:12:05.915Z</time></trkpt><trkpt lat="43.6598515" lon="10.5357288"><ele>4.0</ele><time>2026-03-25T11:12:06.914Z</time></trkpt><trkpt lat="43.6595992" lon="10.535873"><ele>4.0</ele><time>2026-03-25T11:12:07.915Z</time></trkpt><trkpt lat="43.6593414" lon="10.536025"><ele>4.0</ele><time>2026-03-25T11:12:08.915Z</time></trkpt><trkpt lat="43.6590861" lon="10.5361806"><ele>3.5</ele><time>2026-03-25T11:12:09.916Z</time></trkpt><trkpt lat="43.6588285" lon="10.5363402"><ele>3.0</ele><time>2026-03-25T11:12:10.916Z</time></trkpt><trkpt lat="43.6585647" lon="10.5364947"><ele>4.5</ele><time>2026-03-25T11:12:11.915Z</time></trkpt><trkpt lat="43.6583158" lon="10.5366405"><ele>6.0</ele><time>2026-03-25T11:12:12.916Z</time></trkpt><trkpt lat="43.6580612" lon="10.5367899"><ele>6.0</ele><time>2026-03-25T11:12:13.914Z</time></trkpt><trkpt lat="43.6578073" lon="10.5369422"><ele>6.0</ele><time>2026-03-25T11:12:14.914Z</time></trkpt><trkpt lat="43.6575561" lon="10.5370928"><ele>7.0</ele><time>2026-03-25T11:12:15.915Z</time></trkpt><trkpt lat="43.6573039" lon="10.5372426"><ele>8.0</ele><time>2026-03-25T11:12:16.914Z</time></trkpt><trkpt lat="43.6570505" lon="10.5373921"><ele>7.0</ele><time>2026-03-25T11:12:17.915Z</time></trkpt><trkpt lat="43.6567968" lon="10.5375456"><ele>6.0</ele><time>2026-03-25T11:12:18.914Z</time></trkpt><trkpt lat="43.6565403" lon="10.5376997"><ele>6.0</ele><time>2026-03-25T11:12:19.915Z</time></trkpt><trkpt lat="43.6562951" lon="10.5378488"><ele>6.0</ele><time>2026-03-25T11:12:20.915Z</time></trkpt><trkpt lat="43.656052" lon="10.537996"><ele>5.5</ele><time>2026-03-25T11:12:21.914Z</time></trkpt><trkpt lat="43.6558066" lon="10.5381435"><ele>5.0</ele><time>2026-03-25T11:12:22.915Z</time></trkpt><trkpt lat="43.6555623" lon="10.5382902"><ele>5.0</ele><time>2026-03-25T11:12:23.916Z</time></trkpt><trkpt lat="43.6553183" lon="10.5384387"><ele>5.0</ele><time>2026-03-25T11:12:24.915Z</time></trkpt><trkpt lat="43.6550766" lon="10.5385903"><ele>4.5</ele><time>2026-03-25T11:12:25.914Z</time></trkpt><trkpt lat="43.6548377" lon="10.5387488"><ele>4.0</ele><time>2026-03-25T11:12:26.915Z</time></trkpt><trkpt lat="43.6545992" lon="10.5389165"><ele>5.5</ele><time>2026-03-25T11:12:27.915Z</time></trkpt><trkpt lat="43.6543735" lon="10.5390859"><ele>7.0</ele><time>2026-03-25T11:12:28.915Z</time></trkpt><trkpt lat="43.654152" lon="10.5392655"><ele>7.0</ele><time>2026-03-25T11:12:29.915Z</time></trkpt><trkpt lat="43.6539318" lon="10.5394578"><ele>7.0</ele><time>2026-03-25T11:12:30.914Z</time></trkpt><trkpt lat="43.6537102" lon="10.5396625"><ele>6.0</ele><time>2026-03-25T11:12:31.914Z</time></trkpt><trkpt lat="43.6534937" lon="10.5398832"><ele>5.0</ele><time>2026-03-25T11:12:32.915Z</time></trkpt><trkpt lat="43.6532878" lon="10.540118"><ele>5.0</ele><time>2026-03-25T11:12:33.914Z</time></trkpt><trkpt lat="43.6530892" lon="10.5403686"><ele>5.0</ele><time>2026-03-25T11:12:34.915Z</time></trkpt><trkpt lat="43.652895" lon="10.5406367"><ele>5.5</ele><time>2026-03-25T11:12:35.915Z</time></trkpt><trkpt lat="43.6527144" lon="10.5409044"><ele>6.0</ele><time>2026-03-25T11:12:36.915Z</time></trkpt><trkpt lat="43.6525416" lon="10.5411817"><ele>6.0</ele><time>2026-03-25T11:12:37.914Z</time></trkpt><trkpt lat="43.6523797" lon="10.5414674"><ele>6.0</ele><time>2026-03-25T11:12:38.915Z</time></trkpt><trkpt lat="43.6522308" lon="10.5417496"><ele>6.0</ele><time>2026-03-25T11:12:39.916Z</time></trkpt><trkpt lat="43.6520953" lon="10.5420284"><ele>6.0</ele><time>2026-03-25T11:12:40.915Z</time></trkpt><trkpt lat="43.6519728" lon="10.5422983"><ele>5.0</ele><time>2026-03-25T11:12:41.916Z</time></trkpt><trkpt lat="43.6518601" lon="10.5425665"><ele>4.0</ele><time>2026-03-25T11:12:42.915Z</time></trkpt><trkpt lat="43.6517514" lon="10.5428403"><ele>4.333333333333333</ele><time>2026-03-25T11:12:43.915Z</time></trkpt><trkpt lat="43.6516489" lon="10.5431066"><ele>4.666666666666667</ele><time>2026-03-25T11:12:44.915Z</time></trkpt><trkpt lat="43.6515489" lon="10.5433748"><ele>5.0</ele><time>2026-03-25T11:12:45.914Z</time></trkpt><trkpt lat="43.6514514" lon="10.543645"><ele>4.333333333333334</ele><time>2026-03-25T11:12:46.915Z</time></trkpt><trkpt lat="43.6513591" lon="10.5439071"><ele>3.666666666666667</ele><time>2026-03-25T11:12:47.914Z</time></trkpt><trkpt lat="43.6512677" lon="10.5441647"><ele>3.0</ele><time>2026-03-25T11:12:48.914Z</time></trkpt><trkpt lat="43.651177" lon="10.5444207"><ele>3.666666666666667</ele><time>2026-03-25T11:12:49.915Z</time></trkpt><trkpt lat="43.6510868" lon="10.54468"><ele>4.333333333333334</ele><time>2026-03-25T11:12:50.914Z</time></trkpt><trkpt lat="43.6509968" lon="10.5449478"><ele>5.0</ele><time>2026-03-25T11:12:51.914Z</time></trkpt><trkpt lat="43.6509084" lon="10.5452102"><ele>5.0</ele><time>2026-03-25T11:12:52.916Z</time></trkpt><trkpt lat="43.6508191" lon="10.5454799"><ele>5.0</ele><time>2026-03-25T11:12:53.915Z</time></trkpt><trkpt lat="43.6507245" lon="10.5457633"><ele>5.0</ele><time>2026-03-25T11:12:54.915Z</time></trkpt><trkpt lat="43.6506288" lon="10.5460601"><ele>4.5</ele><time>2026-03-25T11:12:55.914Z</time></trkpt><trkpt lat="43.6505301" lon="10.5463634"><ele>4.0</ele><time>2026-03-25T11:12:56.915Z</time></trkpt><trkpt lat="43.6504241" lon="10.5466701"><ele>4.0</ele><time>2026-03-25T11:12:57.914Z</time></trkpt><trkpt lat="43.6503112" lon="10.5469877"><ele>4.0</ele><time>2026-03-25T11:12:58.915Z</time></trkpt><trkpt lat="43.6501917" lon="10.5473185"><ele>4.0</ele><time>2026-03-25T11:12:59.914Z</time></trkpt><trkpt lat="43.6500706" lon="10.5476445"><ele>4.0</ele><time>2026-03-25T11:13:00.914Z</time></trkpt><trkpt lat="43.6499494" lon="10.5479798"><ele>4.0</ele><time>2026-03-25T11:13:01.915Z</time></trkpt><trkpt lat="43.649823" lon="10.5483211"><ele>4.0</ele><time>2026-03-25T11:13:02.915Z</time></trkpt><trkpt lat="43.6496989" lon="10.5486652"><ele>4.5</ele><time>2026-03-25T11:13:03.915Z</time></trkpt><trkpt lat="43.6495753" lon="10.5490115"><ele>5.0</ele><time>2026-03-25T11:13:04.914Z</time></trkpt><trkpt lat="43.6494576" lon="10.5493516"><ele>5.0</ele><time>2026-03-25T11:13:05.914Z</time></trkpt><trkpt lat="43.6493397" lon="10.5496857"><ele>5.0</ele><time>2026-03-25T11:13:06.915Z</time></trkpt><trkpt lat="43.6492181" lon="10.550016"><ele>5.0</ele><time>2026-03-25T11:13:07.915Z</time></trkpt><trkpt lat="43.6490994" lon="10.5503302"><ele>5.0</ele><time>2026-03-25T11:13:08.915Z</time></trkpt><trkpt lat="43.6489749" lon="10.5506429"><ele>5.5</ele><time>2026-03-25T11:13:09.915Z</time></trkpt><trkpt lat="43.6488451" lon="10.5509461"><ele>6.0</ele><time>2026-03-25T11:13:10.916Z</time></trkpt><trkpt lat="43.6487099" lon="10.5512324"><ele>6.0</ele><time>2026-03-25T11:13:11.914Z</time></trkpt><trkpt lat="43.6485598" lon="10.5515175"><ele>6.0</ele><time>2026-03-25T11:13:12.914Z</time></trkpt><trkpt lat="43.6484014" lon="10.5517942"><ele>6.0</ele><time>2026-03-25T11:13:13.914Z</time></trkpt><trkpt lat="43.6482349" lon="10.5520585"><ele>6.0</ele><time>2026-03-25T11:13:14.914Z</time></trkpt><trkpt lat="43.6480604" lon="10.5523124"><ele>6.0</ele><time>2026-03-25T11:13:15.915Z</time></trkpt><trkpt lat="43.6478777" lon="10.5525498"><ele>6.0</ele><time>2026-03-25T11:13:16.915Z</time></trkpt><trkpt lat="43.6476858" lon="10.5527758"><ele>5.5</ele><time>2026-03-25T11:13:17.915Z</time></trkpt><trkpt lat="43.6474896" lon="10.5529938"><ele>5.0</ele><time>2026-03-25T11:13:18.914Z</time></trkpt><trkpt lat="43.6472912" lon="10.5532035"><ele>5.0</ele><time>2026-03-25T11:13:19.915Z</time></trkpt><trkpt lat="43.6470791" lon="10.5534175"><ele>5.0</ele><time>2026-03-25T11:13:20.915Z</time></trkpt><trkpt lat="43.6468643" lon="10.5536284"><ele>6.0</ele><time>2026-03-25T11:13:21.914Z</time></trkpt><trkpt lat="43.6466469" lon="10.553836"><ele>7.0</ele><time>2026-03-25T11:13:22.915Z</time></trkpt><trkpt lat="43.6464188" lon="10.5540494"><ele>7.0</ele><time>2026-03-25T11:13:23.915Z</time></trkpt><trkpt lat="43.6461984" lon="10.5542544"><ele>7.0</ele><time>2026-03-25T11:13:24.914Z</time></trkpt><trkpt lat="43.6459724" lon="10.554463"><ele>6.5</ele><time>2026-03-25T11:13:25.915Z</time></trkpt><trkpt lat="43.6457467" lon="10.5546743"><ele>6.0</ele><time>2026-03-25T11:13:26.915Z</time></trkpt><trkpt lat="43.6455238" lon="10.554881"><ele>6.0</ele><time>2026-03-25T11:13:27.915Z</time></trkpt><trkpt lat="43.6452924" lon="10.5550928"><ele>6.0</ele><time>2026-03-25T11:13:28.915Z</time></trkpt><trkpt lat="43.6450616" lon="10.5553079"><ele>6.0</ele><time>2026-03-25T11:13:29.915Z</time></trkpt><trkpt lat="43.6448318" lon="10.5555257"><ele>6.0</ele><time>2026-03-25T11:13:30.914Z</time></trkpt><trkpt lat="43.6445947" lon="10.5557489"><ele>5.5</ele><time>2026-03-25T11:13:31.914Z</time></trkpt><trkpt lat="43.6443664" lon="10.5559637"><ele>5.0</ele><time>2026-03-25T11:13:32.915Z</time></trkpt><trkpt lat="43.6441325" lon="10.5561837"><ele>5.5</ele><time>2026-03-25T11:13:33.915Z</time></trkpt><trkpt lat="43.6438962" lon="10.5564053"><ele>6.0</ele><time>2026-03-25T11:13:34.915Z</time></trkpt><trkpt lat="43.6436565" lon="10.5566288"><ele>6.0</ele><time>2026-03-25T11:13:35.916Z</time></trkpt><trkpt lat="43.6434175" lon="10.55685"><ele>6.0</ele><time>2026-03-25T11:13:36.914Z</time></trkpt><trkpt lat="43.6431757" lon="10.5570702"><ele>6.0</ele><time>2026-03-25T11:13:37.915Z</time></trkpt><trkpt lat="43.6429355" lon="10.5572906"><ele>6.0</ele><time>2026-03-25T11:13:38.916Z</time></trkpt><trkpt lat="43.6426895" lon="10.5575172"><ele>6.0</ele><time>2026-03-25T11:13:39.916Z</time></trkpt><trkpt lat="43.6424551" lon="10.5577345"><ele>6.0</ele><time>2026-03-25T11:13:40.915Z</time></trkpt><trkpt lat="43.6422177" lon="10.5579559"><ele>6.5</ele><time>2026-03-25T11:13:41.914Z</time></trkpt><trkpt lat="43.6419816" lon="10.558179"><ele>7.0</ele><time>2026-03-25T11:13:42.914Z</time></trkpt><trkpt lat="43.6417434" lon="10.5583984"><ele>7.0</ele><time>2026-03-25T11:13:43.914Z</time></trkpt><trkpt lat="43.6415063" lon="10.5586162"><ele>7.0</ele><time>2026-03-25T11:13:44.915Z</time></trkpt><trkpt lat="43.6412695" lon="10.5588355"><ele>7.5</ele><time>2026-03-25T11:13:45.914Z</time></trkpt><trkpt lat="43.6410349" lon="10.5590542"><ele>8.0</ele><time>2026-03-25T11:13:46.915Z</time></trkpt><trkpt lat="43.6407966" lon="10.5592805"><ele>8.0</ele><time>2026-03-25T11:13:47.915Z</time></trkpt><trkpt lat="43.6405705" lon="10.5594952"><ele>8.0</ele><time>2026-03-25T11:13:48.914Z</time></trkpt><trkpt lat="43.6403445" lon="10.5597089"><ele>5.0</ele><time>2026-03-25T11:13:49.915Z</time></trkpt><trkpt lat="43.6401224" lon="10.5599165"><ele>2.0</ele><time>2026-03-25T11:13:50.916Z</time></trkpt><trkpt lat="43.6398998" lon="10.5601225"><ele>2.0</ele><time>2026-03-25T11:13:51.914Z</time></trkpt><trkpt lat="43.6396761" lon="10.5603278"><ele>2.0</ele><time>2026-03-25T11:13:52.914Z</time></trkpt><trkpt lat="43.63945" lon="10.5605384"><ele>3.0</ele><time>2026-03-25T11:13:53.914Z</time></trkpt><trkpt lat="43.639224" lon="10.5607532"><ele>4.0</ele><time>2026-03-25T11:13:54.914Z</time></trkpt><trkpt lat="43.6389889" lon="10.5609741"><ele>4.0</ele><time>2026-03-25T11:13:55.914Z</time></trkpt><trkpt lat="43.6387618" lon="10.5611868"><ele>4.0</ele><time>2026-03-25T11:13:56.914Z</time></trkpt><trkpt lat="43.6385302" lon="10.5614037"><ele>6.0</ele><time>2026-03-25T11:13:57.915Z</time></trkpt><trkpt lat="43.6382991" lon="10.5616196"><ele>8.0</ele><time>2026-03-25T11:13:58.915Z</time></trkpt><trkpt lat="43.6380645" lon="10.5618378"><ele>8.5</ele><time>2026-03-25T11:13:59.914Z</time></trkpt><trkpt lat="43.637823" lon="10.5620611"><ele>9.0</ele><time>2026-03-25T11:14:00.916Z</time></trkpt><trkpt lat="43.6375908" lon="10.5622803"><ele>10.5</ele><time>2026-03-25T11:14:01.914Z</time></trkpt><trkpt lat="43.6373556" lon="10.5625042"><ele>12.0</ele><time>2026-03-25T11:14:02.914Z</time></trkpt><trkpt lat="43.6371124" lon="10.562736"><ele>10.5</ele><time>2026-03-25T11:14:03.914Z</time></trkpt><trkpt lat="43.6368777" lon="10.5629594"><ele>9.0</ele><time>2026-03-25T11:14:04.914Z</time></trkpt><trkpt lat="43.6366384" lon="10.5631857"><ele>9.0</ele><time>2026-03-25T11:14:05.914Z</time></trkpt><trkpt lat="43.6364002" lon="10.5634098"><ele>9.0</ele><time>2026-03-25T11:14:06.915Z</time></trkpt><trkpt lat="43.6361606" lon="10.5636346"><ele>9.5</ele><time>2026-03-25T11:14:07.914Z</time></trkpt><trkpt lat="43.6359179" lon="10.5638624"><ele>10.0</ele><time>2026-03-25T11:14:08.915Z</time></trkpt><trkpt lat="43.635683" lon="10.5640833"><ele>10.0</ele><time>2026-03-25T11:14:09.915Z</time></trkpt><trkpt lat="43.6354484" lon="10.5643057"><ele>10.0</ele><time>2026-03-25T11:14:10.914Z</time></trkpt><trkpt lat="43.6352093" lon="10.5645368"><ele>10.0</ele><time>2026-03-25T11:14:11.914Z</time></trkpt><trkpt lat="43.6349826" lon="10.5647664"><ele>10.0</ele><time>2026-03-25T11:14:12.915Z</time></trkpt><trkpt lat="43.6347596" lon="10.5650016"><ele>10.0</ele><time>2026-03-25T11:14:13.916Z</time></trkpt><trkpt lat="43.6345428" lon="10.5652441"><ele>10.0</ele><time>2026-03-25T11:14:14.915Z</time></trkpt><trkpt lat="43.6343374" lon="10.5654949"><ele>10.5</ele><time>2026-03-25T11:14:15.915Z</time></trkpt><trkpt lat="43.6341422" lon="10.5657555"><ele>11.0</ele><time>2026-03-25T11:14:16.915Z</time></trkpt><trkpt lat="43.6339614" lon="10.5660234"><ele>11.0</ele><time>2026-03-25T11:14:17.916Z</time></trkpt><trkpt lat="43.633793" lon="10.5662986"><ele>11.0</ele><time>2026-03-25T11:14:18.915Z</time></trkpt><trkpt lat="43.6336375" lon="10.5665872"><ele>11.0</ele><time>2026-03-25T11:14:19.914Z</time></trkpt><trkpt lat="43.6335001" lon="10.5668748"><ele>11.0</ele><time>2026-03-25T11:14:20.915Z</time></trkpt><trkpt lat="43.6333752" lon="10.5671737"><ele>10.0</ele><time>2026-03-25T11:14:21.914Z</time></trkpt><trkpt lat="43.6332589" lon="10.5674843"><ele>9.0</ele><time>2026-03-25T11:14:22.914Z</time></trkpt><trkpt lat="43.6331529" lon="10.5678042"><ele>8.5</ele><time>2026-03-25T11:14:23.915Z</time></trkpt><trkpt lat="43.6330572" lon="10.5681347"><ele>8.0</ele><time>2026-03-25T11:14:24.915Z</time></trkpt><trkpt lat="43.6329773" lon="10.5684728"><ele>8.5</ele><time>2026-03-25T11:14:25.914Z</time></trkpt><trkpt lat="43.632912" lon="10.5688174"><ele>9.0</ele><time>2026-03-25T11:14:26.915Z</time></trkpt><trkpt lat="43.6328638" lon="10.5691752"><ele>9.0</ele><time>2026-03-25T11:14:27.915Z</time></trkpt><trkpt lat="43.6328338" lon="10.5695284"><ele>9.0</ele><time>2026-03-25T11:14:28.915Z</time></trkpt><trkpt lat="43.6328179" lon="10.5698878"><ele>9.0</ele><time>2026-03-25T11:14:29.915Z</time></trkpt><trkpt lat="43.6328147" lon="10.5702562"><ele>9.0</ele><time>2026-03-25T11:14:30.915Z</time></trkpt><trkpt lat="43.632822" lon="10.5706275"><ele>9.0</ele><time>2026-03-25T11:14:31.914Z</time></trkpt><trkpt lat="43.6328459" lon="10.5710021"><ele>9.0</ele><time>2026-03-25T11:14:32.915Z</time></trkpt><trkpt lat="43.6328861" lon="10.5713758"><ele>9.0</ele><time>2026-03-25T11:14:33.914Z</time></trkpt><trkpt lat="43.6329452" lon="10.571751"><ele>9.0</ele><time>2026-03-25T11:14:34.914Z</time></trkpt><trkpt lat="43.6330195" lon="10.5721322"><ele>8.0</ele><time>2026-03-25T11:14:35.916Z</time></trkpt><trkpt lat="43.6331019" lon="10.5725027"><ele>7.0</ele><time>2026-03-25T11:14:36.915Z</time></trkpt><trkpt lat="43.6331923" lon="10.572878"><ele>7.0</ele><time>2026-03-25T11:14:37.915Z</time></trkpt><trkpt lat="43.6332898" lon="10.5732658"><ele>7.0</ele><time>2026-03-25T11:14:38.915Z</time></trkpt><trkpt lat="43.6333904" lon="10.573655"><ele>8.0</ele><time>2026-03-25T11:14:39.914Z</time></trkpt><trkpt lat="43.6334908" lon="10.5740384"><ele>9.0</ele><time>2026-03-25T11:14:40.915Z</time></trkpt><trkpt lat="43.633585" lon="10.574403"><ele>9.5</ele><time>2026-03-25T11:14:41.915Z</time></trkpt><trkpt lat="43.6336739" lon="10.5747521"><ele>10.0</ele><time>2026-03-25T11:14:42.915Z</time></trkpt><trkpt lat="43.6337585" lon="10.5750926"><ele>9.0</ele><time>2026-03-25T11:14:43.915Z</time></trkpt><trkpt lat="43.6338347" lon="10.5754151"><ele>8.0</ele><time>2026-03-25T11:14:44.915Z</time></trkpt><trkpt lat="43.6339076" lon="10.5757402"><ele>8.0</ele><time>2026-03-25T11:14:45.914Z</time></trkpt><trkpt lat="43.6339727" lon="10.5760755"><ele>8.0</ele><time>2026-03-25T11:14:46.914Z</time></trkpt><trkpt lat="43.6340309" lon="10.5764173"><ele>8.0</ele><time>2026-03-25T11:14:47.915Z</time></trkpt><trkpt lat="43.6340806" lon="10.5767703"><ele>8.0</ele><time>2026-03-25T11:14:48.914Z</time></trkpt><trkpt lat="43.6341185" lon="10.5771286"><ele>8.5</ele><time>2026-03-25T11:14:49.914Z</time></trkpt><trkpt lat="43.6341463" lon="10.5774937"><ele>9.0</ele><time>2026-03-25T11:14:50.915Z</time></trkpt><trkpt lat="43.6341652" lon="10.5778676"><ele>9.5</ele><time>2026-03-25T11:14:51.915Z</time></trkpt><trkpt lat="43.6341747" lon="10.5782222"><ele>10.0</ele><time>2026-03-25T11:14:52.914Z</time></trkpt><trkpt lat="43.6341813" lon="10.5785631"><ele>9.5</ele><time>2026-03-25T11:14:53.914Z</time></trkpt><trkpt lat="43.6341872" lon="10.5788924"><ele>9.0</ele><time>2026-03-25T11:14:54.915Z</time></trkpt><trkpt lat="43.6341953" lon="10.5792081"><ele>9.0</ele><time>2026-03-25T11:14:55.915Z</time></trkpt><trkpt lat="43.6342041" lon="10.5795282"><ele>9.0</ele><time>2026-03-25T11:14:56.915Z</time></trkpt><trkpt lat="43.6342176" lon="10.5798577"><ele>9.0</ele><time>2026-03-25T11:14:57.915Z</time></trkpt><trkpt lat="43.6342339" lon="10.5801994"><ele>9.0</ele><time>2026-03-25T11:14:58.915Z</time></trkpt><trkpt lat="43.6342479" lon="10.5805571"><ele>10.0</ele><time>2026-03-25T11:14:59.914Z</time></trkpt><trkpt lat="43.6342589" lon="10.5809114"><ele>11.0</ele><time>2026-03-25T11:15:00.915Z</time></trkpt><trkpt lat="43.6342693" lon="10.5812756"><ele>11.0</ele><time>2026-03-25T11:15:01.914Z</time></trkpt><trkpt lat="43.6342779" lon="10.5816561"><ele>11.0</ele><time>2026-03-25T11:15:02.914Z</time></trkpt><trkpt lat="43.6342836" lon="10.5820491"><ele>11.5</ele><time>2026-03-25T11:15:03.915Z</time></trkpt><trkpt lat="43.6342886" lon="10.5824471"><ele>12.0</ele><time>2026-03-25T11:15:04.915Z</time></trkpt><trkpt lat="43.6342921" lon="10.5828404"><ele>11.0</ele><time>2026-03-25T11:15:05.915Z</time></trkpt><trkpt lat="43.6342978" lon="10.5832345"><ele>10.0</ele><time>2026-03-25T11:15:06.915Z</time></trkpt><trkpt lat="43.6343049" lon="10.5836324"><ele>9.5</ele><time>2026-03-25T11:15:07.916Z</time></trkpt><trkpt lat="43.6343113" lon="10.5840178"><ele>9.0</ele><time>2026-03-25T11:15:08.915Z</time></trkpt><trkpt lat="43.6343161" lon="10.5844107"><ele>11.0</ele><time>2026-03-25T11:15:09.915Z</time></trkpt><trkpt lat="43.6343168" lon="10.5848116"><ele>13.0</ele><time>2026-03-25T11:15:10.914Z</time></trkpt><trkpt lat="43.6343154" lon="10.5852059"><ele>13.0</ele><time>2026-03-25T11:15:11.915Z</time></trkpt><trkpt lat="43.6343076" lon="10.5856121"><ele>13.0</ele><time>2026-03-25T11:15:12.914Z</time></trkpt><trkpt lat="43.6342929" lon="10.5860122"><ele>12.0</ele><time>2026-03-25T11:15:13.915Z</time></trkpt><trkpt lat="43.6342722" lon="10.5864054"><ele>11.0</ele><time>2026-03-25T11:15:14.916Z</time></trkpt><trkpt lat="43.6342431" lon="10.5867957"><ele>9.5</ele><time>2026-03-25T11:15:15.915Z</time></trkpt><trkpt lat="43.6342084" lon="10.5871806"><ele>8.0</ele><time>2026-03-25T11:15:16.915Z</time></trkpt><trkpt lat="43.6341669" lon="10.5875665"><ele>9.5</ele><time>2026-03-25T11:15:17.914Z</time></trkpt><trkpt lat="43.6341233" lon="10.587949"><ele>11.0</ele><time>2026-03-25T11:15:18.914Z</time></trkpt><trkpt lat="43.6340791" lon="10.5883221"><ele>13.0</ele><time>2026-03-25T11:15:19.916Z</time></trkpt><trkpt lat="43.6340304" lon="10.5887061"><ele>15.0</ele><time>2026-03-25T11:15:20.915Z</time></trkpt><trkpt lat="43.6339815" lon="10.589089"><ele>15.0</ele><time>2026-03-25T11:15:21.915Z</time></trkpt><trkpt lat="43.6339341" lon="10.5894693"><ele>15.0</ele><time>2026-03-25T11:15:22.916Z</time></trkpt><trkpt lat="43.633885" lon="10.5898581"><ele>14.5</ele><time>2026-03-25T11:15:23.915Z</time></trkpt><trkpt lat="43.6338366" lon="10.59023"><ele>14.0</ele><time>2026-03-25T11:15:24.914Z</time></trkpt><trkpt lat="43.6337847" lon="10.5906067"><ele>13.5</ele><time>2026-03-25T11:15:25.916Z</time></trkpt><trkpt lat="43.6337321" lon="10.5909872"><ele>13.0</ele><time>2026-03-25T11:15:26.915Z</time></trkpt><trkpt lat="43.6336809" lon="10.5913707"><ele>13.0</ele><time>2026-03-25T11:15:27.914Z</time></trkpt><trkpt lat="43.6336287" lon="10.5917733"><ele>13.0</ele><time>2026-03-25T11:15:28.915Z</time></trkpt><trkpt lat="43.6335772" lon="10.5921757"><ele>13.0</ele><time>2026-03-25T11:15:29.915Z</time></trkpt><trkpt lat="43.6335257" lon="10.5925763"><ele>13.0</ele><time>2026-03-25T11:15:30.915Z</time></trkpt><trkpt lat="43.6334715" lon="10.5929906"><ele>13.5</ele><time>2026-03-25T11:15:31.915Z</time></trkpt><trkpt lat="43.6334193" lon="10.5933881"><ele>14.0</ele><time>2026-03-25T11:15:32.915Z</time></trkpt><trkpt lat="43.6333668" lon="10.5937877"><ele>14.5</ele><time>2026-03-25T11:15:33.914Z</time></trkpt><trkpt lat="43.6333157" lon="10.5941833"><ele>15.0</ele><time>2026-03-25T11:15:34.915Z</time></trkpt><trkpt lat="43.6332653" lon="10.594577"><ele>14.0</ele><time>2026-03-25T11:15:35.914Z</time></trkpt><trkpt lat="43.6332174" lon="10.5949638"><ele>13.0</ele><time>2026-03-25T11:15:36.916Z</time></trkpt><trkpt lat="43.6331676" lon="10.5953518"><ele>12.5</ele><time>2026-03-25T11:15:37.914Z</time></trkpt><trkpt lat="43.6331193" lon="10.5957334"><ele>12.0</ele><time>2026-03-25T11:15:38.915Z</time></trkpt><trkpt lat="43.6330714" lon="10.5961282"><ele>11.5</ele><time>2026-03-25T11:15:39.915Z</time></trkpt><trkpt lat="43.6330286" lon="10.5964933"><ele>11.0</ele><time>2026-03-25T11:15:40.914Z</time></trkpt><trkpt lat="43.6329847" lon="10.5968747"><ele>11.5</ele><time>2026-03-25T11:15:41.915Z</time></trkpt><trkpt lat="43.6329415" lon="10.5972502"><ele>12.0</ele><time>2026-03-25T11:15:42.915Z</time></trkpt><trkpt lat="43.632901" lon="10.5976315"><ele>12.5</ele><time>2026-03-25T11:15:43.915Z</time></trkpt><trkpt lat="43.6328635" lon="10.5980073"><ele>13.0</ele><time>2026-03-25T11:15:44.915Z</time></trkpt><trkpt lat="43.6328297" lon="10.598387"><ele>13.0</ele><time>2026-03-25T11:15:45.914Z</time></trkpt><trkpt lat="43.6328028" lon="10.5987622"><ele>13.0</ele><time>2026-03-25T11:15:46.915Z</time></trkpt><trkpt lat="43.6327831" lon="10.5991522"><ele>13.0</ele><time>2026-03-25T11:15:47.914Z</time></trkpt><trkpt lat="43.632771" lon="10.5995129"><ele>13.0</ele><time>2026-03-25T11:15:48.915Z</time></trkpt><trkpt lat="43.6327661" lon="10.599888"><ele>13.0</ele><time>2026-03-25T11:15:49.915Z</time></trkpt><trkpt lat="43.6327689" lon="10.6002623"><ele>13.0</ele><time>2026-03-25T11:15:50.916Z</time></trkpt><trkpt lat="43.6327792" lon="10.6006432"><ele>13.5</ele><time>2026-03-25T11:15:51.916Z</time></trkpt><trkpt lat="43.6327965" lon="10.6010211"><ele>14.0</ele><time>2026-03-25T11:15:52.915Z</time></trkpt><trkpt lat="43.6328217" lon="10.6014002"><ele>15.0</ele><time>2026-03-25T11:15:53.914Z</time></trkpt><trkpt lat="43.6328544" lon="10.6017673"><ele>16.0</ele><time>2026-03-25T11:15:54.915Z</time></trkpt><trkpt lat="43.6328966" lon="10.6021434"><ele>16.0</ele><time>2026-03-25T11:15:55.916Z</time></trkpt><trkpt lat="43.6329455" lon="10.6024898"><ele>16.0</ele><time>2026-03-25T11:15:56.914Z</time></trkpt><trkpt lat="43.6330045" lon="10.6028489"><ele>15.5</ele><time>2026-03-25T11:15:57.914Z</time></trkpt><trkpt lat="43.6330709" lon="10.6032015"><ele>15.0</ele><time>2026-03-25T11:15:58.916Z</time></trkpt><trkpt lat="43.633144" lon="10.6035541"><ele>16.0</ele><time>2026-03-25T11:15:59.914Z</time></trkpt><trkpt lat="43.6332232" lon="10.6039013"><ele>17.0</ele><time>2026-03-25T11:16:00.915Z</time></trkpt><trkpt lat="43.6333099" lon="10.6042478"><ele>17.0</ele><time>2026-03-25T11:16:01.914Z</time></trkpt><trkpt lat="43.6333999" lon="10.6045831"><ele>17.0</ele><time>2026-03-25T11:16:02.916Z</time></trkpt><trkpt lat="43.6334992" lon="10.6049275"><ele>17.0</ele><time>2026-03-25T11:16:03.916Z</time></trkpt><trkpt lat="43.6336006" lon="10.6052457"><ele>17.0</ele><time>2026-03-25T11:16:04.915Z</time></trkpt><trkpt lat="43.6337154" lon="10.6055741"><ele>16.5</ele><time>2026-03-25T11:16:05.914Z</time></trkpt><trkpt lat="43.6338386" lon="10.6058967"><ele>16.0</ele><time>2026-03-25T11:16:06.914Z</time></trkpt><trkpt lat="43.6339722" lon="10.6062234"><ele>16.0</ele><time>2026-03-25T11:16:07.915Z</time></trkpt><trkpt lat="43.6341165" lon="10.6065549"><ele>16.0</ele><time>2026-03-25T11:16:08.915Z</time></trkpt><trkpt lat="43.6342589" lon="10.6068656"><ele>15.5</ele><time>2026-03-25T11:16:09.915Z</time></trkpt><trkpt lat="43.6344106" lon="10.6071764"><ele>15.0</ele><time>2026-03-25T11:16:10.915Z</time></trkpt><trkpt lat="43.6345738" lon="10.6074923"><ele>15.0</ele><time>2026-03-25T11:16:11.915Z</time></trkpt><trkpt lat="43.6347397" lon="10.607787"><ele>15.0</ele><time>2026-03-25T11:16:12.915Z</time></trkpt><trkpt lat="43.6349171" lon="10.6080825"><ele>14.5</ele><time>2026-03-25T11:16:13.915Z</time></trkpt><trkpt lat="43.6351006" lon="10.6083751"><ele>14.0</ele><time>2026-03-25T11:16:14.915Z</time></trkpt><trkpt lat="43.635286" lon="10.6086667"><ele>14.5</ele><time>2026-03-25T11:16:15.914Z</time></trkpt><trkpt lat="43.6354746" lon="10.60896"><ele>15.0</ele><time>2026-03-25T11:16:16.915Z</time></trkpt><trkpt lat="43.6356611" lon="10.6092377"><ele>16.0</ele><time>2026-03-25T11:16:17.914Z</time></trkpt><trkpt lat="43.6358503" lon="10.6095098"><ele>17.0</ele><time>2026-03-25T11:16:18.915Z</time></trkpt><trkpt lat="43.6360446" lon="10.6097822"><ele>15.5</ele><time>2026-03-25T11:16:19.914Z</time></trkpt><trkpt lat="43.6362337" lon="10.6100415"><ele>14.0</ele><time>2026-03-25T11:16:20.915Z</time></trkpt><trkpt lat="43.6364244" lon="10.6103034"><ele>14.5</ele><time>2026-03-25T11:16:21.914Z</time></trkpt><trkpt lat="43.6366178" lon="10.6105684"><ele>15.0</ele><time>2026-03-25T11:16:22.915Z</time></trkpt><trkpt lat="43.6368137" lon="10.6108303"><ele>14.5</ele><time>2026-03-25T11:16:23.915Z</time></trkpt><trkpt lat="43.6370107" lon="10.6110934"><ele>14.0</ele><time>2026-03-25T11:16:24.915Z</time></trkpt><trkpt lat="43.6372082" lon="10.6113534"><ele>15.0</ele><time>2026-03-25T11:16:25.914Z</time></trkpt><trkpt lat="43.6374059" lon="10.6116175"><ele>16.0</ele><time>2026-03-25T11:16:26.916Z</time></trkpt><trkpt lat="43.6376112" lon="10.6118842"><ele>16.0</ele><time>2026-03-25T11:16:27.914Z</time></trkpt><trkpt lat="43.6378115" lon="10.6121449"><ele>16.0</ele><time>2026-03-25T11:16:28.916Z</time></trkpt><trkpt lat="43.6380145" lon="10.6124091"><ele>16.0</ele><time>2026-03-25T11:16:29.915Z</time></trkpt><trkpt lat="43.6382196" lon="10.6126768"><ele>16.0</ele><time>2026-03-25T11:16:30.915Z</time></trkpt><trkpt lat="43.6384247" lon="10.6129441"><ele>16.0</ele><time>2026-03-25T11:16:31.914Z</time></trkpt><trkpt lat="43.6386315" lon="10.6132143"><ele>16.0</ele><time>2026-03-25T11:16:32.915Z</time></trkpt><trkpt lat="43.6388358" lon="10.6134834"><ele>15.5</ele><time>2026-03-25T11:16:33.915Z</time></trkpt><trkpt lat="43.6390394" lon="10.6137534"><ele>15.0</ele><time>2026-03-25T11:16:34.915Z</time></trkpt><trkpt lat="43.6392447" lon="10.6140277"><ele>15.0</ele><time>2026-03-25T11:16:35.914Z</time></trkpt><trkpt lat="43.6394442" lon="10.6142862"><ele>15.0</ele><time>2026-03-25T11:16:36.914Z</time></trkpt><trkpt lat="43.6396417" lon="10.6145414"><ele>15.5</ele><time>2026-03-25T11:16:37.914Z</time></trkpt><trkpt lat="43.6398411" lon="10.6147973"><ele>16.0</ele><time>2026-03-25T11:16:38.915Z</time></trkpt><trkpt lat="43.6400398" lon="10.6150545"><ele>16.0</ele><time>2026-03-25T11:16:39.915Z</time></trkpt><trkpt lat="43.6402392" lon="10.6153156"><ele>16.0</ele><time>2026-03-25T11:16:40.915Z</time></trkpt><trkpt lat="43.6404383" lon="10.6155786"><ele>16.0</ele><time>2026-03-25T11:16:41.916Z</time></trkpt><trkpt lat="43.6406405" lon="10.6158447"><ele>16.0</ele><time>2026-03-25T11:16:42.915Z</time></trkpt><trkpt lat="43.6408485" lon="10.6161152"><ele>16.0</ele><time>2026-03-25T11:16:43.914Z</time></trkpt><trkpt lat="43.6410517" lon="10.6163767"><ele>16.0</ele><time>2026-03-25T11:16:44.915Z</time></trkpt><trkpt lat="43.641257" lon="10.6166373"><ele>15.5</ele><time>2026-03-25T11:16:45.916Z</time></trkpt><trkpt lat="43.6414624" lon="10.6169003"><ele>15.0</ele><time>2026-03-25T11:16:46.915Z</time></trkpt><trkpt lat="43.6416618" lon="10.6171592"><ele>15.0</ele><time>2026-03-25T11:16:47.914Z</time></trkpt><trkpt lat="43.6418558" lon="10.6174107"><ele>15.0</ele><time>2026-03-25T11:16:48.915Z</time></trkpt><trkpt lat="43.6420451" lon="10.6176566"><ele>15.0</ele><time>2026-03-25T11:16:49.914Z</time></trkpt><trkpt lat="43.6422342" lon="10.6179034"><ele>15.0</ele><time>2026-03-25T11:16:50.916Z</time></trkpt><trkpt lat="43.6424303" lon="10.618158"><ele>15.0</ele><time>2026-03-25T11:16:51.915Z</time></trkpt><trkpt lat="43.6426253" lon="10.6184098"><ele>15.0</ele><time>2026-03-25T11:16:52.916Z</time></trkpt><trkpt lat="43.6428261" lon="10.6186682"><ele>14.5</ele><time>2026-03-25T11:16:53.915Z</time></trkpt><trkpt lat="43.6430309" lon="10.6189348"><ele>14.0</ele><time>2026-03-25T11:16:54.914Z</time></trkpt><trkpt lat="43.6432354" lon="10.6192041"><ele>14.0</ele><time>2026-03-25T11:16:55.915Z</time></trkpt><trkpt lat="43.6434408" lon="10.6194776"><ele>14.0</ele><time>2026-03-25T11:16:56.915Z</time></trkpt><trkpt lat="43.6436454" lon="10.6197521"><ele>15.0</ele><time>2026-03-25T11:16:57.915Z</time></trkpt><trkpt lat="43.6438523" lon="10.6200268"><ele>16.0</ele><time>2026-03-25T11:16:58.915Z</time></trkpt><trkpt lat="43.6440648" lon="10.620305"><ele>15.5</ele><time>2026-03-25T11:16:59.916Z</time></trkpt><trkpt lat="43.64427" lon="10.6205755"><ele>15.0</ele><time>2026-03-25T11:17:00.916Z</time></trkpt><trkpt lat="43.6444748" lon="10.6208465"><ele>14.5</ele><time>2026-03-25T11:17:01.915Z</time></trkpt><trkpt lat="43.6446786" lon="10.6211184"><ele>14.0</ele><time>2026-03-25T11:17:02.915Z</time></trkpt><trkpt lat="43.6448772" lon="10.6213898"><ele>15.0</ele><time>2026-03-25T11:17:03.914Z</time></trkpt><trkpt lat="43.6450731" lon="10.6216635"><ele>16.0</ele><time>2026-03-25T11:17:04.916Z</time></trkpt><trkpt lat="43.6452627" lon="10.6219385"><ele>16.5</ele><time>2026-03-25T11:17:05.914Z</time></trkpt><trkpt lat="43.6454474" lon="10.6222206"><ele>17.0</ele><time>2026-03-25T11:17:06.915Z</time></trkpt><trkpt lat="43.6456256" lon="10.622516"><ele>17.0</ele><time>2026-03-25T11:17:07.915Z</time></trkpt><trkpt lat="43.6457869" lon="10.6228139"><ele>17.0</ele><time>2026-03-25T11:17:08.914Z</time></trkpt><trkpt lat="43.6459384" lon="10.6231233"><ele>17.0</ele><time>2026-03-25T11:17:09.915Z</time></trkpt><trkpt lat="43.6460829" lon="10.6234437"><ele>17.0</ele><time>2026-03-25T11:17:10.914Z</time></trkpt><trkpt lat="43.6462182" lon="10.6237697"><ele>17.0</ele><time>2026-03-25T11:17:11.915Z</time></trkpt><trkpt lat="43.6463436" lon="10.624104"><ele>17.0</ele><time>2026-03-25T11:17:12.914Z</time></trkpt><trkpt lat="43.6464598" lon="10.6244431"><ele>16.0</ele><time>2026-03-25T11:17:13.915Z</time></trkpt><trkpt lat="43.6465675" lon="10.6247913"><ele>15.0</ele><time>2026-03-25T11:17:14.915Z</time></trkpt><trkpt lat="43.6466684" lon="10.6251537"><ele>15.0</ele><time>2026-03-25T11:17:15.915Z</time></trkpt><trkpt lat="43.6467556" lon="10.625513"><ele>15.0</ele><time>2026-03-25T11:17:16.915Z</time></trkpt><trkpt lat="43.6468337" lon="10.625878"><ele>16.0</ele><time>2026-03-25T11:17:17.916Z</time></trkpt><trkpt lat="43.6468984" lon="10.6262489"><ele>17.0</ele><time>2026-03-25T11:17:18.915Z</time></trkpt><trkpt lat="43.6469482" lon="10.6266205"><ele>16.5</ele><time>2026-03-25T11:17:19.914Z</time></trkpt><trkpt lat="43.646985" lon="10.6269936"><ele>16.0</ele><time>2026-03-25T11:17:20.915Z</time></trkpt><trkpt lat="43.6470109" lon="10.6273657"><ele>16.0</ele><time>2026-03-25T11:17:21.915Z</time></trkpt><trkpt lat="43.6470278" lon="10.6277414"><ele>16.0</ele><time>2026-03-25T11:17:22.914Z</time></trkpt><trkpt lat="43.6470362" lon="10.6281244"><ele>16.0</ele><time>2026-03-25T11:17:23.915Z</time></trkpt><trkpt lat="43.6470376" lon="10.6284956"><ele>16.0</ele><time>2026-03-25T11:17:24.914Z</time></trkpt><trkpt lat="43.6470358" lon="10.6288693"><ele>16.5</ele><time>2026-03-25T11:17:25.915Z</time></trkpt><trkpt lat="43.6470313" lon="10.629247"><ele>17.0</ele><time>2026-03-25T11:17:26.916Z</time></trkpt><trkpt lat="43.6470252" lon="10.6296242"><ele>17.0</ele><time>2026-03-25T11:17:27.916Z</time></trkpt><trkpt lat="43.647016" lon="10.6300024"><ele>17.0</ele><time>2026-03-25T11:17:28.914Z</time></trkpt><trkpt lat="43.6470079" lon="10.6303779"><ele>17.5</ele><time>2026-03-25T11:17:29.914Z</time></trkpt><trkpt lat="43.6470009" lon="10.6307547"><ele>18.0</ele><time>2026-03-25T11:17:30.915Z</time></trkpt><trkpt lat="43.6469939" lon="10.6311389"><ele>18.0</ele><time>2026-03-25T11:17:31.915Z</time></trkpt><trkpt lat="43.6469869" lon="10.6315111"><ele>18.0</ele><time>2026-03-25T11:17:32.915Z</time></trkpt><trkpt lat="43.6469789" lon="10.6318858"><ele>16.5</ele><time>2026-03-25T11:17:33.915Z</time></trkpt><trkpt lat="43.6469708" lon="10.6322627"><ele>15.0</ele><time>2026-03-25T11:17:34.914Z</time></trkpt><trkpt lat="43.6469631" lon="10.6326367"><ele>14.5</ele><time>2026-03-25T11:17:35.915Z</time></trkpt><trkpt lat="43.646956" lon="10.6330131"><ele>14.0</ele><time>2026-03-25T11:17:36.915Z</time></trkpt><trkpt lat="43.6469494" lon="10.6333904"><ele>16.0</ele><time>2026-03-25T11:17:37.916Z</time></trkpt><trkpt lat="43.6469434" lon="10.6337732"><ele>18.0</ele><time>2026-03-25T11:17:38.914Z</time></trkpt><trkpt lat="43.6469374" lon="10.6341681"><ele>18.0</ele><time>2026-03-25T11:17:39.914Z</time></trkpt><trkpt lat="43.6469316" lon="10.6345559"><ele>18.0</ele><time>2026-03-25T11:17:40.916Z</time></trkpt><trkpt lat="43.6469255" lon="10.6349479"><ele>17.0</ele><time>2026-03-25T11:17:41.915Z</time></trkpt><trkpt lat="43.6469183" lon="10.6353435"><ele>16.0</ele><time>2026-03-25T11:17:42.914Z</time></trkpt><trkpt lat="43.6469109" lon="10.6357363"><ele>16.0</ele><time>2026-03-25T11:17:43.915Z</time></trkpt><trkpt lat="43.6469039" lon="10.6361283"><ele>16.0</ele><time>2026-03-25T11:17:44.915Z</time></trkpt><trkpt lat="43.6468965" lon="10.6365161"><ele>16.0</ele><time>2026-03-25T11:17:45.915Z</time></trkpt><trkpt lat="43.6468893" lon="10.636904"><ele>16.0</ele><time>2026-03-25T11:17:46.916Z</time></trkpt><trkpt lat="43.6468833" lon="10.6372966"><ele>15.5</ele><time>2026-03-25T11:17:47.915Z</time></trkpt><trkpt lat="43.6468787" lon="10.6376783"><ele>15.0</ele><time>2026-03-25T11:17:48.914Z</time></trkpt><trkpt lat="43.6468749" lon="10.638064"><ele>16.0</ele><time>2026-03-25T11:17:49.914Z</time></trkpt><trkpt lat="43.6468686" lon="10.6384543"><ele>17.0</ele><time>2026-03-25T11:17:50.915Z</time></trkpt><trkpt lat="43.6468621" lon="10.6388437"><ele>17.0</ele><time>2026-03-25T11:17:51.915Z</time></trkpt><trkpt lat="43.6468577" lon="10.6392392"><ele>17.0</ele><time>2026-03-25T11:17:52.915Z</time></trkpt><trkpt lat="43.646855" lon="10.6396374"><ele>16.5</ele><time>2026-03-25T11:17:53.914Z</time></trkpt><trkpt lat="43.6468534" lon="10.6400404"><ele>16.0</ele><time>2026-03-25T11:17:54.915Z</time></trkpt><trkpt lat="43.6468503" lon="10.6404503"><ele>16.0</ele><time>2026-03-25T11:17:55.914Z</time></trkpt><trkpt lat="43.6468457" lon="10.6408457"><ele>16.0</ele><time>2026-03-25T11:17:56.915Z</time></trkpt><trkpt lat="43.6468376" lon="10.6412409"><ele>17.0</ele><time>2026-03-25T11:17:57.914Z</time></trkpt><trkpt lat="43.6468291" lon="10.6416368"><ele>18.0</ele><time>2026-03-25T11:17:58.916Z</time></trkpt><trkpt lat="43.6468198" lon="10.6420259"><ele>18.5</ele><time>2026-03-25T11:17:59.915Z</time></trkpt><trkpt lat="43.646809" lon="10.6424132"><ele>19.0</ele><time>2026-03-25T11:18:00.915Z</time></trkpt><trkpt lat="43.6468007" lon="10.6427969"><ele>19.5</ele><time>2026-03-25T11:18:01.914Z</time></trkpt><trkpt lat="43.6467903" lon="10.6431831"><ele>20.0</ele><time>2026-03-25T11:18:02.915Z</time></trkpt><trkpt lat="43.6467779" lon="10.6435763"><ele>21.0</ele><time>2026-03-25T11:18:03.914Z</time></trkpt><trkpt lat="43.6467683" lon="10.6439488"><ele>22.0</ele><time>2026-03-25T11:18:04.915Z</time></trkpt><trkpt lat="43.6467632" lon="10.6443101"><ele>22.0</ele><time>2026-03-25T11:18:05.915Z</time></trkpt><trkpt lat="43.6467593" lon="10.6446633"><ele>22.0</ele><time>2026-03-25T11:18:06.915Z</time></trkpt><trkpt lat="43.6467595" lon="10.6450082"><ele>22.0</ele><time>2026-03-25T11:18:07.915Z</time></trkpt><trkpt lat="43.6467675" lon="10.6453543"><ele>22.0</ele><time>2026-03-25T11:18:08.914Z</time></trkpt><trkpt lat="43.6467796" lon="10.6456975"><ele>22.0</ele><time>2026-03-25T11:18:09.915Z</time></trkpt><trkpt lat="43.646803" lon="10.6460429"><ele>22.0</ele><time>2026-03-25T11:18:10.915Z</time></trkpt><trkpt lat="43.646834" lon="10.6463897"><ele>22.0</ele><time>2026-03-25T11:18:11.914Z</time></trkpt><trkpt lat="43.646871" lon="10.646733"><ele>22.0</ele><time>2026-03-25T11:18:12.915Z</time></trkpt><trkpt lat="43.6469163" lon="10.6470739"><ele>21.0</ele><time>2026-03-25T11:18:13.915Z</time></trkpt><trkpt lat="43.6469711" lon="10.6474098"><ele>20.0</ele><time>2026-03-25T11:18:14.914Z</time></trkpt><trkpt lat="43.6470369" lon="10.6477363"><ele>18.5</ele><time>2026-03-25T11:18:15.914Z</time></trkpt><trkpt lat="43.6471578" lon="10.6481086"><ele>17.0</ele><time>2026-03-25T11:18:16.915Z</time></trkpt><trkpt lat="43.647251" lon="10.6484368"><ele>15.0</ele><time>2026-03-25T11:18:17.915Z</time></trkpt><trkpt lat="43.6473544" lon="10.6487591"><ele>13.0</ele><time>2026-03-25T11:18:18.916Z</time></trkpt><trkpt lat="43.6474685" lon="10.649084"><ele>13.0</ele><time>2026-03-25T11:18:19.914Z</time></trkpt><trkpt lat="43.6475919" lon="10.6493956"><ele>13.0</ele><time>2026-03-25T11:18:20.915Z</time></trkpt><trkpt lat="43.6477228" lon="10.6497038"><ele>13.5</ele><time>2026-03-25T11:18:21.914Z</time></trkpt><trkpt lat="43.6478657" lon="10.6500084"><ele>14.0</ele><time>2026-03-25T11:18:22.915Z</time></trkpt><trkpt lat="43.6480154" lon="10.6503068"><ele>14.5</ele><time>2026-03-25T11:18:23.916Z</time></trkpt><trkpt lat="43.6481713" lon="10.6506004"><ele>15.0</ele><time>2026-03-25T11:18:24.914Z</time></trkpt><trkpt lat="43.6483306" lon="10.6508922"><ele>15.5</ele><time>2026-03-25T11:18:25.915Z</time></trkpt><trkpt lat="43.6484962" lon="10.6511914"><ele>16.0</ele><time>2026-03-25T11:18:26.915Z</time></trkpt><trkpt lat="43.6486709" lon="10.6514979"><ele>16.5</ele><time>2026-03-25T11:18:27.915Z</time></trkpt><trkpt lat="43.6488412" lon="10.6517969"><ele>17.0</ele><time>2026-03-25T11:18:28.914Z</time></trkpt><trkpt lat="43.6490158" lon="10.6520997"><ele>18.0</ele><time>2026-03-25T11:18:29.914Z</time></trkpt><trkpt lat="43.6491923" lon="10.6524067"><ele>19.0</ele><time>2026-03-25T11:18:30.914Z</time></trkpt><trkpt lat="43.6493672" lon="10.6527144"><ele>20.0</ele><time>2026-03-25T11:18:31.914Z</time></trkpt><trkpt lat="43.6495433" lon="10.6530249"><ele>21.0</ele><time>2026-03-25T11:18:32.915Z</time></trkpt><trkpt lat="43.6497194" lon="10.6533335"><ele>21.5</ele><time>2026-03-25T11:18:33.915Z</time></trkpt><trkpt lat="43.6498973" lon="10.6536434"><ele>22.0</ele><time>2026-03-25T11:18:34.915Z</time></trkpt><trkpt lat="43.6500791" lon="10.653961"><ele>22.0</ele><time>2026-03-25T11:18:35.914Z</time></trkpt><trkpt lat="43.6502542" lon="10.6542689"><ele>22.0</ele><time>2026-03-25T11:18:36.914Z</time></trkpt><trkpt lat="43.6504295" lon="10.6545797"><ele>23.0</ele><time>2026-03-25T11:18:37.915Z</time></trkpt><trkpt lat="43.6506066" lon="10.6548936"><ele>24.0</ele><time>2026-03-25T11:18:38.915Z</time></trkpt><trkpt lat="43.6507856" lon="10.655205"><ele>25.0</ele><time>2026-03-25T11:18:39.915Z</time></trkpt><trkpt lat="43.6509656" lon="10.6555189"><ele>26.0</ele><time>2026-03-25T11:18:40.915Z</time></trkpt><trkpt lat="43.6511453" lon="10.6558329"><ele>25.0</ele><time>2026-03-25T11:18:41.915Z</time></trkpt><trkpt lat="43.6513264" lon="10.6561514"><ele>24.0</ele><time>2026-03-25T11:18:42.914Z</time></trkpt><trkpt lat="43.65151" lon="10.656471"><ele>24.0</ele><time>2026-03-25T11:18:43.914Z</time></trkpt><trkpt lat="43.6516873" lon="10.6567791"><ele>24.0</ele><time>2026-03-25T11:18:44.915Z</time></trkpt><trkpt lat="43.6518682" lon="10.6570926"><ele>24.5</ele><time>2026-03-25T11:18:45.915Z</time></trkpt><trkpt lat="43.6520486" lon="10.6574055"><ele>25.0</ele><time>2026-03-25T11:18:46.914Z</time></trkpt><trkpt lat="43.6522258" lon="10.6577118"><ele>24.0</ele><time>2026-03-25T11:18:47.916Z</time></trkpt><trkpt lat="43.6524071" lon="10.6580277"><ele>23.0</ele><time>2026-03-25T11:18:48.914Z</time></trkpt><trkpt lat="43.6525866" lon="10.658342"><ele>22.0</ele><time>2026-03-25T11:18:49.915Z</time></trkpt><trkpt lat="43.6527659" lon="10.658658"><ele>21.0</ele><time>2026-03-25T11:18:50.915Z</time></trkpt><trkpt lat="43.652946" lon="10.6589758"><ele>21.0</ele><time>2026-03-25T11:18:51.915Z</time></trkpt><trkpt lat="43.6531226" lon="10.6592937"><ele>21.0</ele><time>2026-03-25T11:18:52.914Z</time></trkpt><trkpt lat="43.6532981" lon="10.6596146"><ele>19.0</ele><time>2026-03-25T11:18:53.915Z</time></trkpt><trkpt lat="43.6534686" lon="10.6599365"><ele>17.0</ele><time>2026-03-25T11:18:54.915Z</time></trkpt><trkpt lat="43.6536339" lon="10.6602539"><ele>17.0</ele><time>2026-03-25T11:18:55.915Z</time></trkpt><trkpt lat="43.6538001" lon="10.6605855"><ele>17.0</ele><time>2026-03-25T11:18:56.915Z</time></trkpt><trkpt lat="43.65396" lon="10.660917"><ele>18.0</ele><time>2026-03-25T11:18:57.914Z</time></trkpt><trkpt lat="43.6541111" lon="10.6612503"><ele>19.0</ele><time>2026-03-25T11:18:58.916Z</time></trkpt><trkpt lat="43.654254" lon="10.6615901"><ele>19.0</ele><time>2026-03-25T11:18:59.916Z</time></trkpt><trkpt lat="43.6543884" lon="10.661932"><ele>19.0</ele><time>2026-03-25T11:19:00.914Z</time></trkpt><trkpt lat="43.6545154" lon="10.6622828"><ele>17.0</ele><time>2026-03-25T11:19:01.914Z</time></trkpt><trkpt lat="43.6546329" lon="10.6626353"><ele>15.0</ele><time>2026-03-25T11:19:02.916Z</time></trkpt><trkpt lat="43.6547403" lon="10.6629863"><ele>14.5</ele><time>2026-03-25T11:19:03.914Z</time></trkpt><trkpt lat="43.6548419" lon="10.6633538"><ele>14.0</ele><time>2026-03-25T11:19:04.915Z</time></trkpt><trkpt lat="43.6549328" lon="10.6637211"><ele>13.5</ele><time>2026-03-25T11:19:05.915Z</time></trkpt><trkpt lat="43.6550131" lon="10.6640894"><ele>13.0</ele><time>2026-03-25T11:19:06.915Z</time></trkpt><trkpt lat="43.6550863" lon="10.6644736"><ele>13.0</ele><time>2026-03-25T11:19:07.914Z</time></trkpt><trkpt lat="43.6551481" lon="10.6648478"><ele>13.0</ele><time>2026-03-25T11:19:08.914Z</time></trkpt><trkpt lat="43.6552017" lon="10.665234"><ele>14.0</ele><time>2026-03-25T11:19:09.916Z</time></trkpt><trkpt lat="43.6552436" lon="10.6656224"><ele>15.0</ele><time>2026-03-25T11:19:10.915Z</time></trkpt><trkpt lat="43.6552743" lon="10.6660059"><ele>15.0</ele><time>2026-03-25T11:19:11.915Z</time></trkpt><trkpt lat="43.6552962" lon="10.6664066"><ele>15.0</ele><time>2026-03-25T11:19:12.915Z</time></trkpt><trkpt lat="43.6553093" lon="10.6668088"><ele>16.0</ele><time>2026-03-25T11:19:13.915Z</time></trkpt><trkpt lat="43.6553118" lon="10.6672102"><ele>17.0</ele><time>2026-03-25T11:19:14.915Z</time></trkpt><trkpt lat="43.6553033" lon="10.6676248"><ele>17.5</ele><time>2026-03-25T11:19:15.914Z</time></trkpt><trkpt lat="43.6552846" lon="10.6680243"><ele>18.0</ele><time>2026-03-25T11:19:16.915Z</time></trkpt><trkpt lat="43.6552548" lon="10.6684314"><ele>17.0</ele><time>2026-03-25T11:19:17.915Z</time></trkpt><trkpt lat="43.6552157" lon="10.6688345"><ele>16.0</ele><time>2026-03-25T11:19:18.915Z</time></trkpt><trkpt lat="43.6551693" lon="10.6692256"><ele>17.0</ele><time>2026-03-25T11:19:19.914Z</time></trkpt><trkpt lat="43.6551139" lon="10.6696251"><ele>18.0</ele><time>2026-03-25T11:19:20.915Z</time></trkpt><trkpt lat="43.6550549" lon="10.6700087"><ele>19.0</ele><time>2026-03-25T11:19:21.915Z</time></trkpt><trkpt lat="43.6549921" lon="10.6703736"><ele>20.0</ele><time>2026-03-25T11:19:22.915Z</time></trkpt><trkpt lat="43.6549201" lon="10.6707443"><ele>20.0</ele><time>2026-03-25T11:19:23.915Z</time></trkpt><trkpt lat="43.654844" lon="10.6711008"><ele>20.0</ele><time>2026-03-25T11:19:24.914Z</time></trkpt><trkpt lat="43.6547596" lon="10.6714629"><ele>19.5</ele><time>2026-03-25T11:19:25.915Z</time></trkpt><trkpt lat="43.6546706" lon="10.6718171"><ele>19.0</ele><time>2026-03-25T11:19:26.915Z</time></trkpt><trkpt lat="43.6545785" lon="10.6721508"><ele>18.0</ele><time>2026-03-25T11:19:27.915Z</time></trkpt><trkpt lat="43.6544827" lon="10.6724828"><ele>17.0</ele><time>2026-03-25T11:19:28.915Z</time></trkpt><trkpt lat="43.654391" lon="10.6728081"><ele>17.0</ele><time>2026-03-25T11:19:29.915Z</time></trkpt><trkpt lat="43.6543077" lon="10.673122"><ele>17.0</ele><time>2026-03-25T11:19:30.915Z</time></trkpt><trkpt lat="43.6542332" lon="10.6734325"><ele>17.666666666666668</ele><time>2026-03-25T11:19:31.915Z</time></trkpt><trkpt lat="43.6541688" lon="10.6737182"><ele>18.333333333333332</ele><time>2026-03-25T11:19:32.915Z</time></trkpt><trkpt lat="43.6541103" lon="10.6739964"><ele>19.0</ele><time>2026-03-25T11:19:33.915Z</time></trkpt><trkpt lat="43.6540553" lon="10.674268"><ele>19.333333333333332</ele><time>2026-03-25T11:19:34.914Z</time></trkpt><trkpt lat="43.6540076" lon="10.6745251"><ele>19.666666666666668</ele><time>2026-03-25T11:19:35.915Z</time></trkpt><trkpt lat="43.653962" lon="10.674792"><ele>20.0</ele><time>2026-03-25T11:19:36.915Z</time></trkpt><trkpt lat="43.6539209" lon="10.675054"><ele>20.0</ele><time>2026-03-25T11:19:37.915Z</time></trkpt><trkpt lat="43.6538846" lon="10.6753173"><ele>20.0</ele><time>2026-03-25T11:19:38.916Z</time></trkpt><trkpt lat="43.653853" lon="10.6756006"><ele>20.0</ele><time>2026-03-25T11:19:39.916Z</time></trkpt><trkpt lat="43.6538291" lon="10.6758702"><ele>20.0</ele><time>2026-03-25T11:19:40.916Z</time></trkpt><trkpt lat="43.6538078" lon="10.6761582"><ele>20.0</ele><time>2026-03-25T11:19:41.916Z</time></trkpt><trkpt lat="43.6537909" lon="10.6764501"><ele>20.0</ele><time>2026-03-25T11:19:42.916Z</time></trkpt><trkpt lat="43.653778" lon="10.6767375"><ele>20.0</ele><time>2026-03-25T11:19:43.915Z</time></trkpt><trkpt lat="43.6537709" lon="10.6770429"><ele>20.0</ele><time>2026-03-25T11:19:44.915Z</time></trkpt><trkpt lat="43.6537707" lon="10.6773394"><ele>20.0</ele><time>2026-03-25T11:19:45.914Z</time></trkpt><trkpt lat="43.6537797" lon="10.6776331"><ele>20.666666666666668</ele><time>2026-03-25T11:19:46.915Z</time></trkpt><trkpt lat="43.6537981" lon="10.6779393"><ele>21.333333333333332</ele><time>2026-03-25T11:19:47.914Z</time></trkpt><trkpt lat="43.6538234" lon="10.6782221"><ele>22.0</ele><time>2026-03-25T11:19:48.916Z</time></trkpt><trkpt lat="43.653856" lon="10.6785106"><ele>22.0</ele><time>2026-03-25T11:19:49.916Z</time></trkpt><trkpt lat="43.6538949" lon="10.6787904"><ele>22.0</ele><time>2026-03-25T11:19:50.915Z</time></trkpt><trkpt lat="43.6539404" lon="10.6790663"><ele>22.0</ele><time>2026-03-25T11:19:51.915Z</time></trkpt><trkpt lat="43.65399" lon="10.679331"><ele>22.666666666666664</ele><time>2026-03-25T11:19:52.915Z</time></trkpt><trkpt lat="43.6540454" lon="10.6795908"><ele>23.333333333333332</ele><time>2026-03-25T11:19:53.914Z</time></trkpt><trkpt lat="43.6541065" lon="10.6798468"><ele>24.0</ele><time>2026-03-25T11:19:54.915Z</time></trkpt><trkpt lat="43.6541765" lon="10.6801138"><ele>24.666666666666664</ele><time>2026-03-25T11:19:55.916Z</time></trkpt><trkpt lat="43.6542473" lon="10.6803588"><ele>25.333333333333332</ele><time>2026-03-25T11:19:56.915Z</time></trkpt><trkpt lat="43.6543248" lon="10.6806104"><ele>26.0</ele><time>2026-03-25T11:19:57.914Z</time></trkpt><trkpt lat="43.6544066" lon="10.6808551"><ele>31.333333333333332</ele><time>2026-03-25T11:19:58.916Z</time></trkpt><trkpt lat="43.6544952" lon="10.6810994"><ele>36.666666666666664</ele><time>2026-03-25T11:19:59.915Z</time></trkpt><trkpt lat="43.6545909" lon="10.6813434"><ele>42.0</ele><time>2026-03-25T11:20:00.915Z</time></trkpt><trkpt lat="43.6546926" lon="10.6815884"><ele>42.0</ele><time>2026-03-25T11:20:01.915Z</time></trkpt><trkpt lat="43.6547965" lon="10.6818222"><ele>42.0</ele><time>2026-03-25T11:20:02.915Z</time></trkpt><trkpt lat="43.6549108" lon="10.68206"><ele>42.0</ele><time>2026-03-25T11:20:03.914Z</time></trkpt><trkpt lat="43.6550237" lon="10.6822755"><ele>41.666666666666664</ele><time>2026-03-25T11:20:04.916Z</time></trkpt><trkpt lat="43.6551484" lon="10.6824924"><ele>41.33333333333333</ele><time>2026-03-25T11:20:05.915Z</time></trkpt><trkpt lat="43.6552748" lon="10.6826972"><ele>41.0</ele><time>2026-03-25T11:20:06.916Z</time></trkpt><trkpt lat="43.6554004" lon="10.6828925"><ele>40.666666666666664</ele><time>2026-03-25T11:20:07.915Z</time></trkpt><trkpt lat="43.6555223" lon="10.68308"><ele>40.333333333333336</ele><time>2026-03-25T11:20:08.916Z</time></trkpt><trkpt lat="43.6556457" lon="10.6832704"><ele>40.0</ele><time>2026-03-25T11:20:09.916Z</time></trkpt><trkpt lat="43.6557705" lon="10.683462"><ele>38.66666666666667</ele><time>2026-03-25T11:20:10.915Z</time></trkpt><trkpt lat="43.655903" lon="10.6836635"><ele>37.333333333333336</ele><time>2026-03-25T11:20:11.914Z</time></trkpt><trkpt lat="43.6560254" lon="10.6838483"><ele>36.0</ele><time>2026-03-25T11:20:12.915Z</time></trkpt><trkpt lat="43.6561504" lon="10.6840374"><ele>36.0</ele><time>2026-03-25T11:20:13.914Z</time></trkpt><trkpt lat="43.6562735" lon="10.6842233"><ele>36.0</ele><time>2026-03-25T11:20:14.914Z</time></trkpt><trkpt lat="43.6563991" lon="10.6844136"><ele>36.0</ele><time>2026-03-25T11:20:15.916Z</time></trkpt><trkpt lat="43.6565247" lon="10.6846038"><ele>36.666666666666664</ele><time>2026-03-25T11:20:16.914Z</time></trkpt><trkpt lat="43.6566493" lon="10.684793"><ele>37.33333333333333</ele><time>2026-03-25T11:20:17.914Z</time></trkpt><trkpt lat="43.6567683" lon="10.6849793"><ele>38.0</ele><time>2026-03-25T11:20:18.915Z</time></trkpt><trkpt lat="43.6568868" lon="10.6851682"><ele>34.33333333333333</ele><time>2026-03-25T11:20:19.915Z</time></trkpt><trkpt lat="43.6569883" lon="10.6853379"><ele>30.666666666666664</ele><time>2026-03-25T11:20:20.915Z</time></trkpt><trkpt lat="43.6570845" lon="10.6855076"><ele>27.0</ele><time>2026-03-25T11:20:21.916Z</time></trkpt><trkpt lat="43.6571726" lon="10.6856727"><ele>27.0</ele><time>2026-03-25T11:20:22.914Z</time></trkpt><trkpt lat="43.6572554" lon="10.68584"><ele>27.0</ele><time>2026-03-25T11:20:23.915Z</time></trkpt><trkpt lat="43.6573301" lon="10.6860103"><ele>27.0</ele><time>2026-03-25T11:20:24.915Z</time></trkpt><trkpt lat="43.657401" lon="10.6861918"><ele>27.0</ele><time>2026-03-25T11:20:25.914Z</time></trkpt><trkpt lat="43.6574661" lon="10.686381"><ele>28.0</ele><time>2026-03-25T11:20:26.915Z</time></trkpt><trkpt lat="43.6575299" lon="10.6865876"><ele>29.0</ele><time>2026-03-25T11:20:27.914Z</time></trkpt><trkpt lat="43.6575845" lon="10.6867888"><ele>30.0</ele><time>2026-03-25T11:20:28.915Z</time></trkpt><trkpt lat="43.6576384" lon="10.6870065"><ele>27.333333333333332</ele><time>2026-03-25T11:20:29.915Z</time></trkpt><trkpt lat="43.6576904" lon="10.6872298"><ele>24.666666666666664</ele><time>2026-03-25T11:20:30.914Z</time></trkpt><trkpt lat="43.6577431" lon="10.6874609"><ele>22.0</ele><time>2026-03-25T11:20:31.914Z</time></trkpt><trkpt lat="43.6577944" lon="10.6876852"><ele>20.333333333333332</ele><time>2026-03-25T11:20:32.915Z</time></trkpt><trkpt lat="43.6578446" lon="10.6879022"><ele>18.666666666666668</ele><time>2026-03-25T11:20:33.914Z</time></trkpt><trkpt lat="43.6578925" lon="10.6881107"><ele>17.0</ele><time>2026-03-25T11:20:34.915Z</time></trkpt><trkpt lat="43.6579437" lon="10.6883274"><ele>17.0</ele><time>2026-03-25T11:20:35.915Z</time></trkpt><trkpt lat="43.6579927" lon="10.6885343"><ele>17.0</ele><time>2026-03-25T11:20:36.915Z</time></trkpt><trkpt lat="43.658043" lon="10.6887518"><ele>17.0</ele><time>2026-03-25T11:20:37.915Z</time></trkpt><trkpt lat="43.6580932" lon="10.6889715"><ele>17.333333333333336</ele><time>2026-03-25T11:20:38.916Z</time></trkpt><trkpt lat="43.6581453" lon="10.6891982"><ele>17.666666666666668</ele><time>2026-03-25T11:20:39.915Z</time></trkpt><trkpt lat="43.6581988" lon="10.6894258"><ele>18.0</ele><time>2026-03-25T11:20:40.915Z</time></trkpt><trkpt lat="43.6582536" lon="10.6896581"><ele>18.0</ele><time>2026-03-25T11:20:41.914Z</time></trkpt><trkpt lat="43.6583066" lon="10.6898907"><ele>18.0</ele><time>2026-03-25T11:20:42.916Z</time></trkpt><trkpt lat="43.6583621" lon="10.6901348"><ele>18.0</ele><time>2026-03-25T11:20:43.915Z</time></trkpt><trkpt lat="43.6584131" lon="10.6903615"><ele>19.0</ele><time>2026-03-25T11:20:44.915Z</time></trkpt><trkpt lat="43.6584678" lon="10.690599"><ele>20.0</ele><time>2026-03-25T11:20:45.914Z</time></trkpt><trkpt lat="43.6585224" lon="10.6908309"><ele>21.0</ele><time>2026-03-25T11:20:46.915Z</time></trkpt><trkpt lat="43.6585778" lon="10.6910644"><ele>22.333333333333336</ele><time>2026-03-25T11:20:47.914Z</time></trkpt><trkpt lat="43.6586328" lon="10.6912964"><ele>23.666666666666668</ele><time>2026-03-25T11:20:48.914Z</time></trkpt><trkpt lat="43.658688" lon="10.6915317"><ele>25.0</ele><time>2026-03-25T11:20:49.915Z</time></trkpt><trkpt lat="43.658742" lon="10.691765"><ele>28.0</ele><time>2026-03-25T11:20:50.915Z</time></trkpt><trkpt lat="43.6587982" lon="10.6920071"><ele>31.0</ele><time>2026-03-25T11:20:51.916Z</time></trkpt><trkpt lat="43.6588515" lon="10.6922336"><ele>34.0</ele><time>2026-03-25T11:20:52.914Z</time></trkpt><trkpt lat="43.6589092" lon="10.692476"><ele>34.0</ele><time>2026-03-25T11:20:53.915Z</time></trkpt><trkpt lat="43.6589671" lon="10.6927214"><ele>34.0</ele><time>2026-03-25T11:20:54.915Z</time></trkpt><trkpt lat="43.6590252" lon="10.6929721"><ele>34.0</ele><time>2026-03-25T11:20:55.914Z</time></trkpt><trkpt lat="43.6590832" lon="10.6932229"><ele>34.66666666666667</ele><time>2026-03-25T11:20:56.915Z</time></trkpt><trkpt lat="43.6591413" lon="10.6934768"><ele>35.333333333333336</ele><time>2026-03-25T11:20:57.915Z</time></trkpt><trkpt lat="43.6592005" lon="10.6937315"><ele>36.0</ele><time>2026-03-25T11:20:58.915Z</time></trkpt><trkpt lat="43.6592635" lon="10.6939997"><ele>37.333333333333336</ele><time>2026-03-25T11:20:59.915Z</time></trkpt><trkpt lat="43.6593204" lon="10.69425"><ele>38.66666666666667</ele><time>2026-03-25T11:21:00.915Z</time></trkpt><trkpt lat="43.6593789" lon="10.6945134"><ele>40.0</ele><time>2026-03-25T11:21:01.914Z</time></trkpt><trkpt lat="43.6594365" lon="10.6947751"><ele>41.0</ele><time>2026-03-25T11:21:02.914Z</time></trkpt><trkpt lat="43.6594962" lon="10.6950399"><ele>42.0</ele><time>2026-03-25T11:21:03.915Z</time></trkpt><trkpt lat="43.6595564" lon="10.6953044"><ele>43.0</ele><time>2026-03-25T11:21:04.914Z</time></trkpt><trkpt lat="43.6596169" lon="10.6955697"><ele>43.0</ele><time>2026-03-25T11:21:05.914Z</time></trkpt><trkpt lat="43.6596753" lon="10.6958264"><ele>43.0</ele><time>2026-03-25T11:21:06.916Z</time></trkpt><trkpt lat="43.659735" lon="10.6960868"><ele>43.0</ele><time>2026-03-25T11:21:07.914Z</time></trkpt><trkpt lat="43.6597889" lon="10.6963176"><ele>44.333333333333336</ele><time>2026-03-25T11:21:08.914Z</time></trkpt><trkpt lat="43.6598428" lon="10.6965465"><ele>45.666666666666664</ele><time>2026-03-25T11:21:09.916Z</time></trkpt><trkpt lat="43.659891" lon="10.6967554"><ele>47.0</ele><time>2026-03-25T11:21:10.914Z</time></trkpt><trkpt lat="43.6599311" lon="10.6969356"><ele>48.0</ele><time>2026-03-25T11:21:11.915Z</time></trkpt><trkpt lat="43.6599627" lon="10.6970883"><ele>49.0</ele><time>2026-03-25T11:21:12.914Z</time></trkpt><trkpt lat="43.6599907" lon="10.697218"><ele>50.0</ele><time>2026-03-25T11:21:13.915Z</time></trkpt><trkpt lat="43.6600167" lon="10.6973312"><ele>51.0</ele><time>2026-03-25T11:21:14.915Z</time></trkpt><trkpt lat="43.6600434" lon="10.6974416"><ele>52.0</ele><time>2026-03-25T11:21:15.914Z</time></trkpt><trkpt lat="43.6600714" lon="10.6975455"><ele>52.0</ele><time>2026-03-25T11:21:16.915Z</time></trkpt><trkpt lat="43.6601016" lon="10.6976593"><ele>52.0</ele><time>2026-03-25T11:21:17.914Z</time></trkpt><trkpt lat="43.6601336" lon="10.6977782"><ele>52.0</ele><time>2026-03-25T11:21:18.914Z</time></trkpt><trkpt lat="43.660167" lon="10.697909"><ele>52.0</ele><time>2026-03-25T11:21:19.915Z</time></trkpt><trkpt lat="43.660201" lon="10.6980489"><ele>52.0</ele><time>2026-03-25T11:21:20.916Z</time></trkpt><trkpt lat="43.6602368" lon="10.6982024"><ele>52.0</ele><time>2026-03-25T11:21:21.916Z</time></trkpt><trkpt lat="43.6602744" lon="10.698363"><ele>52.0</ele><time>2026-03-25T11:21:22.915Z</time></trkpt><trkpt lat="43.6603193" lon="10.6985362"><ele>52.0</ele><time>2026-03-25T11:21:23.915Z</time></trkpt><trkpt lat="43.6603571" lon="10.698724"><ele>52.0</ele><time>2026-03-25T11:21:24.914Z</time></trkpt><trkpt lat="43.6603985" lon="10.6989117"><ele>49.75</ele><time>2026-03-25T11:21:25.914Z</time></trkpt><trkpt lat="43.6604375" lon="10.6990916"><ele>47.5</ele><time>2026-03-25T11:21:26.915Z</time></trkpt><trkpt lat="43.6604794" lon="10.6992704"><ele>45.25</ele><time>2026-03-25T11:21:27.915Z</time></trkpt><trkpt lat="43.6605196" lon="10.6994434"><ele>43.0</ele><time>2026-03-25T11:21:28.914Z</time></trkpt><trkpt lat="43.6605632" lon="10.6996179"><ele>43.0</ele><time>2026-03-25T11:21:29.915Z</time></trkpt><trkpt lat="43.6606085" lon="10.6997913"><ele>43.0</ele><time>2026-03-25T11:21:30.914Z</time></trkpt><trkpt lat="43.6606573" lon="10.6999727"><ele>43.0</ele><time>2026-03-25T11:21:31.915Z</time></trkpt><trkpt lat="43.6607062" lon="10.7001418"><ele>43.0</ele><time>2026-03-25T11:21:32.914Z</time></trkpt><trkpt lat="43.6607601" lon="10.7003149"><ele>43.0</ele><time>2026-03-25T11:21:33.915Z</time></trkpt><trkpt lat="43.6608127" lon="10.7004805"><ele>43.0</ele><time>2026-03-25T11:21:34.915Z</time></trkpt><trkpt lat="43.6608671" lon="10.7006454"><ele>43.0</ele><time>2026-03-25T11:21:35.915Z</time></trkpt><trkpt lat="43.6609237" lon="10.7008045"><ele>43.0</ele><time>2026-03-25T11:21:36.915Z</time></trkpt><trkpt lat="43.6609826" lon="10.7009684"><ele>43.0</ele><time>2026-03-25T11:21:37.915Z</time></trkpt><trkpt lat="43.6610437" lon="10.7011312"><ele>43.0</ele><time>2026-03-25T11:21:38.914Z</time></trkpt><trkpt lat="43.6611127" lon="10.7013038"><ele>43.0</ele><time>2026-03-25T11:21:39.915Z</time></trkpt><trkpt lat="43.6611806" lon="10.7014677"><ele>43.0</ele><time>2026-03-25T11:21:40.915Z</time></trkpt><trkpt lat="43.6612568" lon="10.701647"><ele>43.0</ele><time>2026-03-25T11:21:41.914Z</time></trkpt><trkpt lat="43.6613384" lon="10.7018335"><ele>43.0</ele><time>2026-03-25T11:21:42.915Z</time></trkpt><trkpt lat="43.6614284" lon="10.7020338"><ele>43.0</ele><time>2026-03-25T11:21:43.914Z</time></trkpt><trkpt lat="43.6615278" lon="10.7022508"><ele>42.66666666666667</ele><time>2026-03-25T11:21:44.915Z</time></trkpt><trkpt lat="43.6616294" lon="10.702489"><ele>42.333333333333336</ele><time>2026-03-25T11:21:45.915Z</time></trkpt><trkpt lat="43.66174" lon="10.7027362"><ele>42.0</ele><time>2026-03-25T11:21:46.915Z</time></trkpt><trkpt lat="43.661861" lon="10.7030008"><ele>38.333333333333336</ele><time>2026-03-25T11:21:47.915Z</time></trkpt><trkpt lat="43.661972" lon="10.70324"><ele>34.66666666666667</ele><time>2026-03-25T11:21:48.914Z</time></trkpt><trkpt lat="43.662086" lon="10.7034852"><ele>31.0</ele><time>2026-03-25T11:21:49.915Z</time></trkpt><trkpt lat="43.6621983" lon="10.7037297"><ele>30.0</ele><time>2026-03-25T11:21:50.915Z</time></trkpt><trkpt lat="43.6623189" lon="10.703985"><ele>29.0</ele><time>2026-03-25T11:21:51.914Z</time></trkpt><trkpt lat="43.6624403" lon="10.7042549"><ele>31.0</ele><time>2026-03-25T11:21:52.915Z</time></trkpt><trkpt lat="43.6625654" lon="10.7045441"><ele>33.0</ele><time>2026-03-25T11:21:53.915Z</time></trkpt><trkpt lat="43.6626893" lon="10.7048437"><ele>31.5</ele><time>2026-03-25T11:21:54.914Z</time></trkpt><trkpt lat="43.6628177" lon="10.7051689"><ele>30.0</ele><time>2026-03-25T11:21:55.915Z</time></trkpt><trkpt lat="43.6629338" lon="10.7054659"><ele>28.0</ele><time>2026-03-25T11:21:56.915Z</time></trkpt><trkpt lat="43.6630559" lon="10.7057756"><ele>26.0</ele><time>2026-03-25T11:21:57.914Z</time></trkpt><trkpt lat="43.6631788" lon="10.7060823"><ele>25.5</ele><time>2026-03-25T11:21:58.915Z</time></trkpt><trkpt lat="43.6633056" lon="10.7063927"><ele>25.0</ele><time>2026-03-25T11:21:59.914Z</time></trkpt><trkpt lat="43.6634336" lon="10.706699"><ele>25.0</ele><time>2026-03-25T11:22:00.915Z</time></trkpt><trkpt lat="43.6635627" lon="10.7070097"><ele>25.0</ele><time>2026-03-25T11:22:01.914Z</time></trkpt><trkpt lat="43.6636934" lon="10.7073146"><ele>25.0</ele><time>2026-03-25T11:22:02.914Z</time></trkpt><trkpt lat="43.663831" lon="10.7076251"><ele>25.0</ele><time>2026-03-25T11:22:03.915Z</time></trkpt><trkpt lat="43.6639688" lon="10.7079049"><ele>25.0</ele><time>2026-03-25T11:22:04.916Z</time></trkpt><trkpt lat="43.6641199" lon="10.7081855"><ele>25.0</ele><time>2026-03-25T11:22:05.915Z</time></trkpt><trkpt lat="43.6642765" lon="10.7084549"><ele>24.5</ele><time>2026-03-25T11:22:06.915Z</time></trkpt><trkpt lat="43.66444" lon="10.708715"><ele>24.0</ele><time>2026-03-25T11:22:07.915Z</time></trkpt><trkpt lat="43.6646063" lon="10.7089635"><ele>24.0</ele><time>2026-03-25T11:22:08.914Z</time></trkpt><trkpt lat="43.6647786" lon="10.709199"><ele>24.0</ele><time>2026-03-25T11:22:09.916Z</time></trkpt><trkpt lat="43.6649623" lon="10.7094222"><ele>24.5</ele><time>2026-03-25T11:22:10.915Z</time></trkpt><trkpt lat="43.6651609" lon="10.7096397"><ele>25.0</ele><time>2026-03-25T11:22:11.914Z</time></trkpt><trkpt lat="43.6653543" lon="10.7098303"><ele>23.0</ele><time>2026-03-25T11:22:12.915Z</time></trkpt><trkpt lat="43.6655615" lon="10.7100199"><ele>21.0</ele><time>2026-03-25T11:22:13.915Z</time></trkpt><trkpt lat="43.6657715" lon="10.7102026"><ele>21.0</ele><time>2026-03-25T11:22:14.915Z</time></trkpt><trkpt lat="43.6659848" lon="10.7103866"><ele>21.0</ele><time>2026-03-25T11:22:15.914Z</time></trkpt><trkpt lat="43.6661987" lon="10.710576"><ele>21.0</ele><time>2026-03-25T11:22:16.915Z</time></trkpt><trkpt lat="43.6664183" lon="10.7107667"><ele>21.0</ele><time>2026-03-25T11:22:17.915Z</time></trkpt><trkpt lat="43.6666282" lon="10.7109505"><ele>20.5</ele><time>2026-03-25T11:22:18.915Z</time></trkpt><trkpt lat="43.6668386" lon="10.7111356"><ele>20.0</ele><time>2026-03-25T11:22:19.914Z</time></trkpt><trkpt lat="43.6670338" lon="10.7113057"><ele>19.5</ele><time>2026-03-25T11:22:20.915Z</time></trkpt><trkpt lat="43.6672303" lon="10.7114867"><ele>19.0</ele><time>2026-03-25T11:22:21.916Z</time></trkpt><trkpt lat="43.6674229" lon="10.7116758"><ele>19.0</ele><time>2026-03-25T11:22:22.915Z</time></trkpt><trkpt lat="43.6676069" lon="10.7118723"><ele>19.0</ele><time>2026-03-25T11:22:23.914Z</time></trkpt><trkpt lat="43.6677868" lon="10.7120721"><ele>20.0</ele><time>2026-03-25T11:22:24.915Z</time></trkpt><trkpt lat="43.6679622" lon="10.7122839"><ele>21.0</ele><time>2026-03-25T11:22:25.916Z</time></trkpt><trkpt lat="43.6681318" lon="10.712505"><ele>20.5</ele><time>2026-03-25T11:22:26.915Z</time></trkpt><trkpt lat="43.6683013" lon="10.7127421"><ele>20.0</ele><time>2026-03-25T11:22:27.915Z</time></trkpt><trkpt lat="43.6684597" lon="10.7129802"><ele>19.5</ele><time>2026-03-25T11:22:28.915Z</time></trkpt><trkpt lat="43.6686158" lon="10.7132349"><ele>19.0</ele><time>2026-03-25T11:22:29.914Z</time></trkpt><trkpt lat="43.6687655" lon="10.7135008"><ele>19.0</ele><time>2026-03-25T11:22:30.916Z</time></trkpt><trkpt lat="43.6689068" lon="10.7137765"><ele>19.0</ele><time>2026-03-25T11:22:31.914Z</time></trkpt><trkpt lat="43.6690407" lon="10.7140566"><ele>19.0</ele><time>2026-03-25T11:22:32.915Z</time></trkpt><trkpt lat="43.6691675" lon="10.7143426"><ele>19.0</ele><time>2026-03-25T11:22:33.914Z</time></trkpt><trkpt lat="43.6692824" lon="10.7146267"><ele>19.0</ele><time>2026-03-25T11:22:34.915Z</time></trkpt><trkpt lat="43.6693865" lon="10.7149133"><ele>19.0</ele><time>2026-03-25T11:22:35.914Z</time></trkpt><trkpt lat="43.6694751" lon="10.7151849"><ele>19.0</ele><time>2026-03-25T11:22:36.916Z</time></trkpt><trkpt lat="43.6695586" lon="10.7154602"><ele>19.333333333333332</ele><time>2026-03-25T11:22:37.915Z</time></trkpt><trkpt lat="43.6696377" lon="10.7157345"><ele>19.666666666666668</ele><time>2026-03-25T11:22:38.915Z</time></trkpt><trkpt lat="43.6697141" lon="10.7160084"><ele>20.0</ele><time>2026-03-25T11:22:39.915Z</time></trkpt><trkpt lat="43.6697863" lon="10.7162773"><ele>20.0</ele><time>2026-03-25T11:22:40.915Z</time></trkpt><trkpt lat="43.6698547" lon="10.7165426"><ele>20.0</ele><time>2026-03-25T11:22:41.915Z</time></trkpt><trkpt lat="43.6699185" lon="10.7167983"><ele>20.0</ele><time>2026-03-25T11:22:42.916Z</time></trkpt><trkpt lat="43.669981" lon="10.7170506"><ele>20.0</ele><time>2026-03-25T11:22:43.915Z</time></trkpt><trkpt lat="43.6700375" lon="10.7172833"><ele>20.0</ele><time>2026-03-25T11:22:44.914Z</time></trkpt><trkpt lat="43.6700944" lon="10.7175097"><ele>20.0</ele><time>2026-03-25T11:22:45.915Z</time></trkpt><trkpt lat="43.6701515" lon="10.717734"><ele>20.0</ele><time>2026-03-25T11:22:46.915Z</time></trkpt><trkpt lat="43.6702083" lon="10.7179679"><ele>20.0</ele><time>2026-03-25T11:22:47.915Z</time></trkpt><trkpt lat="43.6702658" lon="10.7182076"><ele>20.0</ele><time>2026-03-25T11:22:48.914Z</time></trkpt><trkpt lat="43.6703255" lon="10.7184579"><ele>20.0</ele><time>2026-03-25T11:22:49.915Z</time></trkpt><trkpt lat="43.6703897" lon="10.7187161"><ele>20.0</ele><time>2026-03-25T11:22:50.915Z</time></trkpt><trkpt lat="43.6704595" lon="10.7189896"><ele>20.0</ele><time>2026-03-25T11:22:51.915Z</time></trkpt><trkpt lat="43.6705292" lon="10.7192568"><ele>20.666666666666668</ele><time>2026-03-25T11:22:52.915Z</time></trkpt><trkpt lat="43.6706026" lon="10.7195398"><ele>21.333333333333332</ele><time>2026-03-25T11:22:53.915Z</time></trkpt><trkpt lat="43.6706762" lon="10.7198353"><ele>22.0</ele><time>2026-03-25T11:22:54.915Z</time></trkpt><trkpt lat="43.6707481" lon="10.7201409"><ele>22.5</ele><time>2026-03-25T11:22:55.916Z</time></trkpt><trkpt lat="43.6708189" lon="10.7204482"><ele>23.0</ele><time>2026-03-25T11:22:56.916Z</time></trkpt><trkpt lat="43.6708921" lon="10.7207615"><ele>22.5</ele><time>2026-03-25T11:22:57.914Z</time></trkpt><trkpt lat="43.6709648" lon="10.7210691"><ele>22.0</ele><time>2026-03-25T11:22:58.915Z</time></trkpt><trkpt lat="43.6710384" lon="10.7213695"><ele>22.0</ele><time>2026-03-25T11:22:59.915Z</time></trkpt><trkpt lat="43.6711068" lon="10.7216478"><ele>22.0</ele><time>2026-03-25T11:23:00.914Z</time></trkpt><trkpt lat="43.6711752" lon="10.721925"><ele>22.0</ele><time>2026-03-25T11:23:01.916Z</time></trkpt><trkpt lat="43.6712414" lon="10.7221935"><ele>21.666666666666664</ele><time>2026-03-25T11:23:02.915Z</time></trkpt><trkpt lat="43.6713058" lon="10.7224557"><ele>21.333333333333332</ele><time>2026-03-25T11:23:03.914Z</time></trkpt><trkpt lat="43.6713689" lon="10.7227135"><ele>21.0</ele><time>2026-03-25T11:23:04.914Z</time></trkpt><trkpt lat="43.6714326" lon="10.7229724"><ele>21.0</ele><time>2026-03-25T11:23:05.914Z</time></trkpt><trkpt lat="43.6714949" lon="10.7232319"><ele>21.0</ele><time>2026-03-25T11:23:06.916Z</time></trkpt><trkpt lat="43.6715552" lon="10.7235"><ele>21.0</ele><time>2026-03-25T11:23:07.915Z</time></trkpt><trkpt lat="43.6716052" lon="10.7237584"><ele>21.333333333333332</ele><time>2026-03-25T11:23:08.915Z</time></trkpt><trkpt lat="43.6716482" lon="10.7240206"><ele>21.666666666666664</ele><time>2026-03-25T11:23:09.914Z</time></trkpt><trkpt lat="43.6716839" lon="10.7242811"><ele>22.0</ele><time>2026-03-25T11:23:10.914Z</time></trkpt><trkpt lat="43.6717138" lon="10.7245387"><ele>22.333333333333332</ele><time>2026-03-25T11:23:11.914Z</time></trkpt><trkpt lat="43.6717414" lon="10.7248066"><ele>22.666666666666668</ele><time>2026-03-25T11:23:12.915Z</time></trkpt><trkpt lat="43.671764" lon="10.7250792"><ele>23.0</ele><time>2026-03-25T11:23:13.916Z</time></trkpt><trkpt lat="43.6717817" lon="10.7253564"><ele>22.333333333333336</ele><time>2026-03-25T11:23:14.915Z</time></trkpt><trkpt lat="43.6717936" lon="10.7256418"><ele>21.666666666666668</ele><time>2026-03-25T11:23:15.916Z</time></trkpt><trkpt lat="43.6717976" lon="10.7259084"><ele>21.0</ele><time>2026-03-25T11:23:16.915Z</time></trkpt><trkpt lat="43.6717951" lon="10.726169"><ele>21.0</ele><time>2026-03-25T11:23:17.914Z</time></trkpt><trkpt lat="43.6717884" lon="10.7264197"><ele>21.0</ele><time>2026-03-25T11:23:18.916Z</time></trkpt><trkpt lat="43.6717786" lon="10.7266604"><ele>21.0</ele><time>2026-03-25T11:23:19.915Z</time></trkpt><trkpt lat="43.6717626" lon="10.7269108"><ele>22.666666666666664</ele><time>2026-03-25T11:23:20.915Z</time></trkpt><trkpt lat="43.6717424" lon="10.7271722"><ele>24.333333333333332</ele><time>2026-03-25T11:23:21.914Z</time></trkpt><trkpt lat="43.6717184" lon="10.7274446"><ele>26.0</ele><time>2026-03-25T11:23:22.915Z</time></trkpt><trkpt lat="43.671694" lon="10.7277336"><ele>26.333333333333332</ele><time>2026-03-25T11:23:23.916Z</time></trkpt><trkpt lat="43.6716712" lon="10.7280127"><ele>26.666666666666664</ele><time>2026-03-25T11:23:24.915Z</time></trkpt><trkpt lat="43.6716463" lon="10.7282903"><ele>27.0</ele><time>2026-03-25T11:23:25.914Z</time></trkpt><trkpt lat="43.6716214" lon="10.7285574"><ele>26.333333333333336</ele><time>2026-03-25T11:23:26.915Z</time></trkpt><trkpt lat="43.6715966" lon="10.7288123"><ele>25.666666666666668</ele><time>2026-03-25T11:23:27.914Z</time></trkpt><trkpt lat="43.6715713" lon="10.7290721"><ele>25.0</ele><time>2026-03-25T11:23:28.915Z</time></trkpt><trkpt lat="43.671545" lon="10.7293321"><ele>25.0</ele><time>2026-03-25T11:23:29.915Z</time></trkpt><trkpt lat="43.6715195" lon="10.7295866"><ele>25.0</ele><time>2026-03-25T11:23:30.914Z</time></trkpt><trkpt lat="43.6714912" lon="10.7298381"><ele>25.0</ele><time>2026-03-25T11:23:31.915Z</time></trkpt><trkpt lat="43.6714671" lon="10.7300668"><ele>24.75</ele><time>2026-03-25T11:23:32.916Z</time></trkpt><trkpt lat="43.6714459" lon="10.7302732"><ele>24.5</ele><time>2026-03-25T11:23:33.914Z</time></trkpt><trkpt lat="43.6714239" lon="10.7304426"><ele>24.25</ele><time>2026-03-25T11:23:34.915Z</time></trkpt><trkpt lat="43.6713915" lon="10.73058"><ele>24.0</ele><time>2026-03-25T11:23:35.916Z</time></trkpt><trkpt lat="43.6713418" lon="10.7306965"><ele>24.0</ele><time>2026-03-25T11:23:36.914Z</time></trkpt><trkpt lat="43.6712759" lon="10.7307893"><ele>24.0</ele><time>2026-03-25T11:23:37.916Z</time></trkpt><trkpt lat="43.6711965" lon="10.7308575"><ele>24.0</ele><time>2026-03-25T11:23:38.914Z</time></trkpt><trkpt lat="43.6711019" lon="10.7309033"><ele>24.0</ele><time>2026-03-25T11:23:39.915Z</time></trkpt><trkpt lat="43.6710051" lon="10.7309203"><ele>24.0</ele><time>2026-03-25T11:23:40.914Z</time></trkpt><trkpt lat="43.6709078" lon="10.7309056"><ele>24.0</ele><time>2026-03-25T11:23:41.914Z</time></trkpt><trkpt lat="43.6708151" lon="10.7308563"><ele>24.0</ele><time>2026-03-25T11:23:42.916Z</time></trkpt><trkpt lat="43.670731" lon="10.730776"><ele>24.0</ele><time>2026-03-25T11:23:43.914Z</time></trkpt><trkpt lat="43.6706594" lon="10.7306649"><ele>24.0</ele><time>2026-03-25T11:23:44.914Z</time></trkpt><trkpt lat="43.6706096" lon="10.7305348"><ele>24.0</ele><time>2026-03-25T11:23:45.914Z</time></trkpt><trkpt lat="43.6705844" lon="10.730393"><ele>24.0</ele><time>2026-03-25T11:23:46.914Z</time></trkpt><trkpt lat="43.6705851" lon="10.7302403"><ele>24.0</ele><time>2026-03-25T11:23:47.915Z</time></trkpt><trkpt lat="43.6706105" lon="10.7300942"><ele>24.0</ele><time>2026-03-25T11:23:48.915Z</time></trkpt><trkpt lat="43.6706607" lon="10.7299618"><ele>24.0</ele><time>2026-03-25T11:23:49.915Z</time></trkpt><trkpt lat="43.6707324" lon="10.729856"><ele>24.0</ele><time>2026-03-25T11:23:50.915Z</time></trkpt><trkpt lat="43.6708224" lon="10.7297694"><ele>24.0</ele><time>2026-03-25T11:23:51.914Z</time></trkpt><trkpt lat="43.6709314" lon="10.7296837"><ele>24.0</ele><time>2026-03-25T11:23:52.915Z</time></trkpt><trkpt lat="43.6710519" lon="10.7295852"><ele>24.0</ele><time>2026-03-25T11:23:53.915Z</time></trkpt><trkpt lat="43.6711828" lon="10.7294713"><ele>24.0</ele><time>2026-03-25T11:23:54.915Z</time></trkpt><trkpt lat="43.6713259" lon="10.729344"><ele>24.333333333333336</ele><time>2026-03-25T11:23:55.914Z</time></trkpt><trkpt lat="43.6714621" lon="10.7292234"><ele>24.666666666666668</ele><time>2026-03-25T11:23:56.915Z</time></trkpt><trkpt lat="43.6715952" lon="10.7291061"><ele>25.0</ele><time>2026-03-25T11:23:57.915Z</time></trkpt><trkpt lat="43.6717249" lon="10.7289893"><ele>25.0</ele><time>2026-03-25T11:23:58.915Z</time></trkpt><trkpt lat="43.6718554" lon="10.7288701"><ele>25.0</ele><time>2026-03-25T11:23:59.915Z</time></trkpt><trkpt lat="43.6719918" lon="10.7287461"><ele>25.0</ele><time>2026-03-25T11:24:00.915Z</time></trkpt><trkpt lat="43.6721226" lon="10.7286286"><ele>25.25</ele><time>2026-03-25T11:24:01.914Z</time></trkpt><trkpt lat="43.6722461" lon="10.7285174"><ele>25.5</ele><time>2026-03-25T11:24:02.914Z</time></trkpt><trkpt lat="43.6723694" lon="10.7284002"><ele>25.75</ele><time>2026-03-25T11:24:03.915Z</time></trkpt><trkpt lat="43.6724832" lon="10.7282829"><ele>26.0</ele><time>2026-03-25T11:24:04.915Z</time></trkpt><trkpt lat="43.6725895" lon="10.7281564"><ele>26.0</ele><time>2026-03-25T11:24:05.916Z</time></trkpt><trkpt lat="43.672687" lon="10.7280267"><ele>26.0</ele><time>2026-03-25T11:24:06.916Z</time></trkpt><trkpt lat="43.6727718" lon="10.727902"><ele>26.0</ele><time>2026-03-25T11:24:07.915Z</time></trkpt><trkpt lat="43.6728443" lon="10.7277669"><ele>26.0</ele><time>2026-03-25T11:24:08.915Z</time></trkpt><trkpt lat="43.6728983" lon="10.7276187"><ele>26.25</ele><time>2026-03-25T11:24:09.914Z</time></trkpt><trkpt lat="43.6729351" lon="10.7274577"><ele>26.5</ele><time>2026-03-25T11:24:10.915Z</time></trkpt><trkpt lat="43.6729529" lon="10.7272753"><ele>26.75</ele><time>2026-03-25T11:24:11.914Z</time></trkpt><trkpt lat="43.6729502" lon="10.7270909"><ele>27.0</ele><time>2026-03-25T11:24:12.914Z</time></trkpt><trkpt lat="43.6729303" lon="10.7268885"><ele>27.0</ele><time>2026-03-25T11:24:13.915Z</time></trkpt><trkpt lat="43.6729003" lon="10.7266761"><ele>27.0</ele><time>2026-03-25T11:24:14.915Z</time></trkpt><trkpt lat="43.6728629" lon="10.7264634"><ele>27.0</ele><time>2026-03-25T11:24:15.915Z</time></trkpt><trkpt lat="43.672817" lon="10.7262332"><ele>25.333333333333332</ele><time>2026-03-25T11:24:16.915Z</time></trkpt><trkpt lat="43.6727682" lon="10.7260166"><ele>23.666666666666664</ele><time>2026-03-25T11:24:17.915Z</time></trkpt><trkpt lat="43.6727151" lon="10.7258052"><ele>22.0</ele><time>2026-03-25T11:24:18.914Z</time></trkpt><trkpt lat="43.6726619" lon="10.7256087"><ele>22.0</ele><time>2026-03-25T11:24:19.915Z</time></trkpt><trkpt lat="43.6726253" lon="10.7254642"><ele>22.0</ele><time>2026-03-25T11:24:20.914Z</time></trkpt><trkpt lat="43.672602" lon="10.7253237"><ele>22.0</ele><time>2026-03-25T11:24:21.914Z</time></trkpt><trkpt lat="43.6725976" lon="10.7251881"><ele>22.0</ele><time>2026-03-25T11:24:22.914Z</time></trkpt><trkpt lat="43.6726106" lon="10.7250618"><ele>22.0</ele><time>2026-03-25T11:24:23.915Z</time></trkpt><trkpt lat="43.67264" lon="10.7249299"><ele>22.0</ele><time>2026-03-25T11:24:24.915Z</time></trkpt><trkpt lat="43.6726848" lon="10.7248022"><ele>22.0</ele><time>2026-03-25T11:24:25.915Z</time></trkpt><trkpt lat="43.6727487" lon="10.7246759"><ele>22.0</ele><time>2026-03-25T11:24:26.916Z</time></trkpt><trkpt lat="43.6728372" lon="10.7245412"><ele>22.0</ele><time>2026-03-25T11:24:27.915Z</time></trkpt><trkpt lat="43.6729346" lon="10.7244046"><ele>21.25</ele><time>2026-03-25T11:24:28.914Z</time></trkpt><trkpt lat="43.6730387" lon="10.7242522"><ele>20.5</ele><time>2026-03-25T11:24:29.914Z</time></trkpt><trkpt lat="43.6731367" lon="10.724098"><ele>19.75</ele><time>2026-03-25T11:24:30.914Z</time></trkpt><trkpt lat="43.6732248" lon="10.7239499"><ele>19.0</ele><time>2026-03-25T11:24:31.914Z</time></trkpt><trkpt lat="43.673313" lon="10.7238058"><ele>19.0</ele><time>2026-03-25T11:24:32.915Z</time></trkpt><trkpt lat="43.6734023" lon="10.7236847"><ele>19.0</ele><time>2026-03-25T11:24:33.915Z</time></trkpt><trkpt lat="43.6735016" lon="10.7235912"><ele>19.0</ele><time>2026-03-25T11:24:34.914Z</time></trkpt><trkpt lat="43.6736156" lon="10.7235223"><ele>19.0</ele><time>2026-03-25T11:24:35.914Z</time></trkpt><trkpt lat="43.6737379" lon="10.723478"><ele>19.5</ele><time>2026-03-25T11:24:36.915Z</time></trkpt><trkpt lat="43.6738678" lon="10.723465"><ele>20.0</ele><time>2026-03-25T11:24:37.913Z</time></trkpt><trkpt lat="43.6739973" lon="10.7234712"><ele>20.5</ele><time>2026-03-25T11:24:38.913Z</time></trkpt><trkpt lat="43.674126" lon="10.7234835"><ele>21.0</ele><time>2026-03-25T11:24:39.913Z</time></trkpt><trkpt lat="43.6742635" lon="10.7234933"><ele>21.0</ele><time>2026-03-25T11:24:40.914Z</time></trkpt><trkpt lat="43.6744069" lon="10.7235025"><ele>21.0</ele><time>2026-03-25T11:24:41.913Z</time></trkpt><trkpt lat="43.6745601" lon="10.7235137"><ele>21.0</ele><time>2026-03-25T11:24:42.914Z</time></trkpt><trkpt lat="43.6747256" lon="10.7235267"><ele>20.333333333333332</ele><time>2026-03-25T11:24:43.913Z</time></trkpt><trkpt lat="43.674905" lon="10.7235409"><ele>19.666666666666664</ele><time>2026-03-25T11:24:44.915Z</time></trkpt><trkpt lat="43.6751005" lon="10.7235554"><ele>19.0</ele><time>2026-03-25T11:24:45.914Z</time></trkpt><trkpt lat="43.6753016" lon="10.7235698"><ele>19.0</ele><time>2026-03-25T11:24:46.915Z</time></trkpt><trkpt lat="43.6754957" lon="10.723584"><ele>19.0</ele><time>2026-03-25T11:24:47.913Z</time></trkpt><trkpt lat="43.6756939" lon="10.7235987"><ele>19.0</ele><time>2026-03-25T11:24:48.914Z</time></trkpt><trkpt lat="43.6758928" lon="10.7236146"><ele>19.0</ele><time>2026-03-25T11:24:49.914Z</time></trkpt><trkpt lat="43.6760919" lon="10.7236315"><ele>19.0</ele><time>2026-03-25T11:24:50.915Z</time></trkpt><trkpt lat="43.6762926" lon="10.7236494"><ele>19.0</ele><time>2026-03-25T11:24:51.913Z</time></trkpt><trkpt lat="43.6764926" lon="10.7236661"><ele>18.666666666666664</ele><time>2026-03-25T11:24:52.913Z</time></trkpt><trkpt lat="43.676693" lon="10.7236806"><ele>18.333333333333332</ele><time>2026-03-25T11:24:53.914Z</time></trkpt><trkpt lat="43.6768868" lon="10.7236914"><ele>18.0</ele><time>2026-03-25T11:24:54.913Z</time></trkpt><trkpt lat="43.6770696" lon="10.7237035"><ele>18.0</ele><time>2026-03-25T11:24:55.914Z</time></trkpt><trkpt lat="43.6772497" lon="10.7237215"><ele>18.0</ele><time>2026-03-25T11:24:56.914Z</time></trkpt><trkpt lat="43.6774175" lon="10.7237501"><ele>18.0</ele><time>2026-03-25T11:24:57.914Z</time></trkpt><trkpt lat="43.6775705" lon="10.7237901"><ele>18.0</ele><time>2026-03-25T11:24:58.914Z</time></trkpt><trkpt lat="43.6777093" lon="10.72384"><ele>18.0</ele><time>2026-03-25T11:24:59.914Z</time></trkpt><trkpt lat="43.6778303" lon="10.7238953"><ele>18.0</ele><time>2026-03-25T11:25:00.915Z</time></trkpt><trkpt lat="43.6779299" lon="10.7239617"><ele>18.0</ele><time>2026-03-25T11:25:01.914Z</time></trkpt><trkpt lat="43.6780085" lon="10.7240468"><ele>18.0</ele><time>2026-03-25T11:25:02.914Z</time></trkpt><trkpt lat="43.6780726" lon="10.7241442"><ele>18.0</ele><time>2026-03-25T11:25:03.914Z</time></trkpt><trkpt lat="43.6781334" lon="10.72425"><ele>18.0</ele><time>2026-03-25T11:25:04.913Z</time></trkpt><trkpt lat="43.6782074" lon="10.7243286"><ele>18.0</ele><time>2026-03-25T11:25:05.915Z</time></trkpt><trkpt lat="43.6782953" lon="10.7243774"><ele>18.0</ele><time>2026-03-25T11:25:06.914Z</time></trkpt><trkpt lat="43.6783898" lon="10.7244087"><ele>18.2</ele><time>2026-03-25T11:25:07.913Z</time></trkpt><trkpt lat="43.6784873" lon="10.7244223"><ele>18.4</ele><time>2026-03-25T11:25:08.913Z</time></trkpt><trkpt lat="43.6785825" lon="10.7244059"><ele>18.599999999999998</ele><time>2026-03-25T11:25:09.914Z</time></trkpt><trkpt lat="43.6786656" lon="10.724354"><ele>18.8</ele><time>2026-03-25T11:25:10.914Z</time></trkpt><trkpt lat="43.6787264" lon="10.7242722"><ele>19.0</ele><time>2026-03-25T11:25:11.914Z</time></trkpt><trkpt lat="43.6787557" lon="10.7241601"><ele>19.0</ele><time>2026-03-25T11:25:12.914Z</time></trkpt><trkpt lat="43.6787646" lon="10.724046"><ele>19.0</ele><time>2026-03-25T11:25:13.914Z</time></trkpt><trkpt lat="43.6787525" lon="10.7239275"><ele>19.0</ele><time>2026-03-25T11:25:14.914Z</time></trkpt><trkpt lat="43.67874" lon="10.7238003"><ele>19.0</ele><time>2026-03-25T11:25:15.913Z</time></trkpt><trkpt lat="43.678755" lon="10.7236783"><ele>19.0</ele><time>2026-03-25T11:25:16.914Z</time></trkpt><trkpt lat="43.6787976" lon="10.7235634"><ele>19.0</ele><time>2026-03-25T11:25:17.913Z</time></trkpt><trkpt lat="43.6788689" lon="10.7234731"><ele>19.0</ele><time>2026-03-25T11:25:18.913Z</time></trkpt><trkpt lat="43.6789663" lon="10.7234099"><ele>19.0</ele><time>2026-03-25T11:25:19.913Z</time></trkpt><trkpt lat="43.679083" lon="10.7233589"><ele>19.0</ele><time>2026-03-25T11:25:20.913Z</time></trkpt><trkpt lat="43.6792109" lon="10.7233051"><ele>19.0</ele><time>2026-03-25T11:25:21.915Z</time></trkpt><trkpt lat="43.679353" lon="10.7232414"><ele>18.666666666666664</ele><time>2026-03-25T11:25:22.915Z</time></trkpt><trkpt lat="43.6795065" lon="10.7231721"><ele>18.333333333333332</ele><time>2026-03-25T11:25:23.914Z</time></trkpt><trkpt lat="43.679651" lon="10.7231066"><ele>18.0</ele><time>2026-03-25T11:25:24.914Z</time></trkpt><trkpt lat="43.6797956" lon="10.7230374"><ele>18.0</ele><time>2026-03-25T11:25:25.914Z</time></trkpt><trkpt lat="43.6799377" lon="10.7229641"><ele>18.0</ele><time>2026-03-25T11:25:26.915Z</time></trkpt><trkpt lat="43.680071" lon="10.7228907"><ele>18.0</ele><time>2026-03-25T11:25:27.913Z</time></trkpt><trkpt lat="43.6802" lon="10.7228154"><ele>18.0</ele><time>2026-03-25T11:25:28.913Z</time></trkpt><trkpt lat="43.6803319" lon="10.7227357"><ele>17.666666666666668</ele><time>2026-03-25T11:25:29.913Z</time></trkpt><trkpt lat="43.680469" lon="10.7226491"><ele>17.333333333333336</ele><time>2026-03-25T11:25:30.914Z</time></trkpt><trkpt lat="43.6806122" lon="10.722553"><ele>17.0</ele><time>2026-03-25T11:25:31.914Z</time></trkpt><trkpt lat="43.6807495" lon="10.7224537"><ele>17.0</ele><time>2026-03-25T11:25:32.914Z</time></trkpt><trkpt lat="43.6808935" lon="10.7223415"><ele>17.0</ele><time>2026-03-25T11:25:33.914Z</time></trkpt><trkpt lat="43.6810387" lon="10.7222194"><ele>17.0</ele><time>2026-03-25T11:25:34.914Z</time></trkpt><trkpt lat="43.6811852" lon="10.7220885"><ele>17.0</ele><time>2026-03-25T11:25:35.915Z</time></trkpt><trkpt lat="43.681336" lon="10.7219437"><ele>17.0</ele><time>2026-03-25T11:25:36.914Z</time></trkpt><trkpt lat="43.6814875" lon="10.7217882"><ele>17.0</ele><time>2026-03-25T11:25:37.914Z</time></trkpt><trkpt lat="43.6816344" lon="10.7216288"><ele>17.333333333333336</ele><time>2026-03-25T11:25:38.914Z</time></trkpt><trkpt lat="43.6817826" lon="10.7214576"><ele>17.666666666666668</ele><time>2026-03-25T11:25:39.913Z</time></trkpt><trkpt lat="43.6819282" lon="10.721276"><ele>18.0</ele><time>2026-03-25T11:25:40.913Z</time></trkpt><trkpt lat="43.6820844" lon="10.7210686"><ele>18.0</ele><time>2026-03-25T11:25:41.914Z</time></trkpt><trkpt lat="43.6822509" lon="10.7208407"><ele>18.0</ele><time>2026-03-25T11:25:42.915Z</time></trkpt><trkpt lat="43.682427" lon="10.7206039"><ele>18.0</ele><time>2026-03-25T11:25:43.914Z</time></trkpt><trkpt lat="43.682616" lon="10.7203598"><ele>18.0</ele><time>2026-03-25T11:25:44.913Z</time></trkpt><trkpt lat="43.6828077" lon="10.7201116"><ele>17.0</ele><time>2026-03-25T11:25:45.913Z</time></trkpt><trkpt lat="43.6829961" lon="10.719863"><ele>16.0</ele><time>2026-03-25T11:25:46.913Z</time></trkpt><trkpt lat="43.6831842" lon="10.7196111"><ele>16.0</ele><time>2026-03-25T11:25:47.914Z</time></trkpt><trkpt lat="43.683365" lon="10.7193651"><ele>16.0</ele><time>2026-03-25T11:25:48.915Z</time></trkpt><trkpt lat="43.6835486" lon="10.7191156"><ele>17.0</ele><time>2026-03-25T11:25:49.913Z</time></trkpt><trkpt lat="43.6837338" lon="10.7188636"><ele>18.0</ele><time>2026-03-25T11:25:50.913Z</time></trkpt><trkpt lat="43.6839163" lon="10.7186142"><ele>17.5</ele><time>2026-03-25T11:25:51.915Z</time></trkpt><trkpt lat="43.6840977" lon="10.7183642"><ele>17.0</ele><time>2026-03-25T11:25:52.914Z</time></trkpt><trkpt lat="43.6842772" lon="10.7181132"><ele>17.5</ele><time>2026-03-25T11:25:53.913Z</time></trkpt><trkpt lat="43.6844609" lon="10.7178609"><ele>18.0</ele><time>2026-03-25T11:25:54.914Z</time></trkpt><trkpt lat="43.684649" lon="10.7176031"><ele>17.0</ele><time>2026-03-25T11:25:55.914Z</time></trkpt><trkpt lat="43.6848309" lon="10.7173538"><ele>16.0</ele><time>2026-03-25T11:25:56.914Z</time></trkpt><trkpt lat="43.6850134" lon="10.7171015"><ele>16.0</ele><time>2026-03-25T11:25:57.914Z</time></trkpt><trkpt lat="43.6851982" lon="10.7168483"><ele>16.0</ele><time>2026-03-25T11:25:58.914Z</time></trkpt><trkpt lat="43.6853826" lon="10.7165952"><ele>17.0</ele><time>2026-03-25T11:25:59.915Z</time></trkpt><trkpt lat="43.6855691" lon="10.716342"><ele>18.0</ele><time>2026-03-25T11:26:00.914Z</time></trkpt><trkpt lat="43.6857511" lon="10.7160969"><ele>17.5</ele><time>2026-03-25T11:26:01.914Z</time></trkpt><trkpt lat="43.6859242" lon="10.7158634"><ele>17.0</ele><time>2026-03-25T11:26:02.914Z</time></trkpt><trkpt lat="43.6860914" lon="10.7156367"><ele>17.333333333333336</ele><time>2026-03-25T11:26:03.914Z</time></trkpt><trkpt lat="43.6862452" lon="10.715426"><ele>17.666666666666668</ele><time>2026-03-25T11:26:04.914Z</time></trkpt><trkpt lat="43.6863951" lon="10.7152181"><ele>18.0</ele><time>2026-03-25T11:26:05.913Z</time></trkpt><trkpt lat="43.6865514" lon="10.7150046"><ele>18.5</ele><time>2026-03-25T11:26:06.914Z</time></trkpt><trkpt lat="43.6867103" lon="10.7147838"><ele>19.0</ele><time>2026-03-25T11:26:07.914Z</time></trkpt><trkpt lat="43.686874" lon="10.7145569"><ele>15.5</ele><time>2026-03-25T11:26:08.914Z</time></trkpt><trkpt lat="43.6870389" lon="10.7143274"><ele>12.0</ele><time>2026-03-25T11:26:09.915Z</time></trkpt><trkpt lat="43.687204" lon="10.7141029"><ele>12.0</ele><time>2026-03-25T11:26:10.913Z</time></trkpt><trkpt lat="43.6873663" lon="10.7138827"><ele>12.0</ele><time>2026-03-25T11:26:11.913Z</time></trkpt><trkpt lat="43.6875163" lon="10.7136797"><ele>12.0</ele><time>2026-03-25T11:26:12.914Z</time></trkpt><trkpt lat="43.6876603" lon="10.7134846"><ele>13.0</ele><time>2026-03-25T11:26:13.914Z</time></trkpt><trkpt lat="43.6878031" lon="10.7132911"><ele>14.0</ele><time>2026-03-25T11:26:14.914Z</time></trkpt><trkpt lat="43.6879444" lon="10.7130983"><ele>15.0</ele><time>2026-03-25T11:26:15.914Z</time></trkpt><trkpt lat="43.6880823" lon="10.7129076"><ele>15.333333333333332</ele><time>2026-03-25T11:26:16.914Z</time></trkpt><trkpt lat="43.6882152" lon="10.7127196"><ele>15.666666666666666</ele><time>2026-03-25T11:26:17.914Z</time></trkpt><trkpt lat="43.6883545" lon="10.7125212"><ele>16.0</ele><time>2026-03-25T11:26:18.914Z</time></trkpt><trkpt lat="43.6885048" lon="10.7123037"><ele>15.666666666666666</ele><time>2026-03-25T11:26:19.914Z</time></trkpt><trkpt lat="43.6886576" lon="10.7120874"><ele>15.333333333333332</ele><time>2026-03-25T11:26:20.914Z</time></trkpt><trkpt lat="43.6888186" lon="10.7118711"><ele>15.0</ele><time>2026-03-25T11:26:21.914Z</time></trkpt><trkpt lat="43.6889877" lon="10.7116528"><ele>15.0</ele><time>2026-03-25T11:26:22.914Z</time></trkpt><trkpt lat="43.6891558" lon="10.7114308"><ele>15.0</ele><time>2026-03-25T11:26:23.914Z</time></trkpt><trkpt lat="43.689321" lon="10.7112026"><ele>14.5</ele><time>2026-03-25T11:26:24.915Z</time></trkpt><trkpt lat="43.6894835" lon="10.710966"><ele>14.0</ele><time>2026-03-25T11:26:25.913Z</time></trkpt><trkpt lat="43.689645" lon="10.7107143"><ele>14.0</ele><time>2026-03-25T11:26:26.915Z</time></trkpt><trkpt lat="43.6898087" lon="10.7104485"><ele>14.0</ele><time>2026-03-25T11:26:27.913Z</time></trkpt><trkpt lat="43.6899647" lon="10.7101836"><ele>14.5</ele><time>2026-03-25T11:26:28.915Z</time></trkpt><trkpt lat="43.690119" lon="10.7099145"><ele>15.0</ele><time>2026-03-25T11:26:29.913Z</time></trkpt><trkpt lat="43.6902683" lon="10.7096397"><ele>14.5</ele><time>2026-03-25T11:26:30.914Z</time></trkpt><trkpt lat="43.690415" lon="10.709366"><ele>14.0</ele><time>2026-03-25T11:26:31.913Z</time></trkpt><trkpt lat="43.6905619" lon="10.7090926"><ele>14.0</ele><time>2026-03-25T11:26:32.913Z</time></trkpt><trkpt lat="43.6907073" lon="10.708823"><ele>14.0</ele><time>2026-03-25T11:26:33.914Z</time></trkpt><trkpt lat="43.6908477" lon="10.7085636"><ele>14.0</ele><time>2026-03-25T11:26:34.915Z</time></trkpt><trkpt lat="43.6909825" lon="10.7083135"><ele>14.0</ele><time>2026-03-25T11:26:35.913Z</time></trkpt><trkpt lat="43.6911057" lon="10.7080828"><ele>14.0</ele><time>2026-03-25T11:26:36.913Z</time></trkpt><trkpt lat="43.6912251" lon="10.7078622"><ele>14.0</ele><time>2026-03-25T11:26:37.913Z</time></trkpt><trkpt lat="43.6913462" lon="10.7076571"><ele>14.0</ele><time>2026-03-25T11:26:38.914Z</time></trkpt><trkpt lat="43.691469" lon="10.7074735"><ele>14.0</ele><time>2026-03-25T11:26:39.914Z</time></trkpt><trkpt lat="43.6915961" lon="10.7073061"><ele>14.0</ele><time>2026-03-25T11:26:40.915Z</time></trkpt><trkpt lat="43.6917321" lon="10.707152"><ele>14.0</ele><time>2026-03-25T11:26:41.913Z</time></trkpt><trkpt lat="43.6918801" lon="10.7070107"><ele>14.0</ele><time>2026-03-25T11:26:42.913Z</time></trkpt><trkpt lat="43.6920395" lon="10.7068828"><ele>13.75</ele><time>2026-03-25T11:26:43.914Z</time></trkpt><trkpt lat="43.692193" lon="10.7067827"><ele>13.5</ele><time>2026-03-25T11:26:44.914Z</time></trkpt><trkpt lat="43.6923272" lon="10.7067136"><ele>13.25</ele><time>2026-03-25T11:26:45.914Z</time></trkpt><trkpt lat="43.6924375" lon="10.7066747"><ele>13.0</ele><time>2026-03-25T11:26:46.913Z</time></trkpt><trkpt lat="43.6925334" lon="10.70666"><ele>12.999999999999998</ele><time>2026-03-25T11:26:47.914Z</time></trkpt><trkpt lat="43.6926232" lon="10.706671"><ele>13.0</ele><time>2026-03-25T11:26:48.914Z</time></trkpt><trkpt lat="43.6927067" lon="10.706699"><ele>13.0</ele><time>2026-03-25T11:26:49.914Z</time></trkpt><trkpt lat="43.692783" lon="10.7067306"><ele>13.0</ele><time>2026-03-25T11:26:50.915Z</time></trkpt><trkpt lat="43.692856" lon="10.7067342"><ele>12.999999999999998</ele><time>2026-03-25T11:26:51.914Z</time></trkpt><trkpt lat="43.6929199" lon="10.7067"><ele>13.0</ele><time>2026-03-25T11:26:52.913Z</time></trkpt><trkpt lat="43.6929679" lon="10.7066361"><ele>12.999999999999998</ele><time>2026-03-25T11:26:53.914Z</time></trkpt><trkpt lat="43.6929851" lon="10.7065448"><ele>13.0</ele><time>2026-03-25T11:26:54.913Z</time></trkpt><trkpt lat="43.69298" lon="10.7064547"><ele>13.0</ele><time>2026-03-25T11:26:55.914Z</time></trkpt><trkpt lat="43.692946" lon="10.7063697"><ele>13.0</ele><time>2026-03-25T11:26:56.914Z</time></trkpt><trkpt lat="43.6928897" lon="10.706303"><ele>12.999999999999998</ele><time>2026-03-25T11:26:57.914Z</time></trkpt><trkpt lat="43.6928157" lon="10.7062554"><ele>13.0</ele><time>2026-03-25T11:26:58.913Z</time></trkpt><trkpt lat="43.6927307" lon="10.7062008"><ele>13.0</ele><time>2026-03-25T11:26:59.913Z</time></trkpt><trkpt lat="43.6926546" lon="10.7061288"><ele>13.0</ele><time>2026-03-25T11:27:00.913Z</time></trkpt><trkpt lat="43.6925914" lon="10.7060346"><ele>13.0</ele><time>2026-03-25T11:27:01.914Z</time></trkpt><trkpt lat="43.6925296" lon="10.7059103"><ele>13.0</ele><time>2026-03-25T11:27:02.913Z</time></trkpt><trkpt lat="43.692468" lon="10.7057787"><ele>13.0</ele><time>2026-03-25T11:27:03.915Z</time></trkpt><trkpt lat="43.6923931" lon="10.7056512"><ele>13.0</ele><time>2026-03-25T11:27:04.914Z</time></trkpt><trkpt lat="43.6923009" lon="10.705539"><ele>13.0</ele><time>2026-03-25T11:27:05.914Z</time></trkpt><trkpt lat="43.692186" lon="10.7054398"><ele>13.0</ele><time>2026-03-25T11:27:06.913Z</time></trkpt><trkpt lat="43.6920479" lon="10.7053428"><ele>13.0</ele><time>2026-03-25T11:27:07.914Z</time></trkpt><trkpt lat="43.6919095" lon="10.7052353"><ele>13.0</ele><time>2026-03-25T11:27:08.913Z</time></trkpt><trkpt lat="43.6917578" lon="10.7051045"><ele>13.0</ele><time>2026-03-25T11:27:09.913Z</time></trkpt><trkpt lat="43.6915977" lon="10.7049605"><ele>13.0</ele><time>2026-03-25T11:27:10.913Z</time></trkpt><trkpt lat="43.6914406" lon="10.7048234"><ele>13.0</ele><time>2026-03-25T11:27:11.913Z</time></trkpt><trkpt lat="43.6912822" lon="10.7046868"><ele>13.0</ele><time>2026-03-25T11:27:12.914Z</time></trkpt><trkpt lat="43.6911243" lon="10.7045515"><ele>13.0</ele><time>2026-03-25T11:27:13.913Z</time></trkpt><trkpt lat="43.6909613" lon="10.7044132"><ele>12.666666666666666</ele><time>2026-03-25T11:27:14.914Z</time></trkpt><trkpt lat="43.690795" lon="10.704269"><ele>12.333333333333332</ele><time>2026-03-25T11:27:15.913Z</time></trkpt><trkpt lat="43.6906366" lon="10.7041293"><ele>12.0</ele><time>2026-03-25T11:27:16.914Z</time></trkpt><trkpt lat="43.6904743" lon="10.7039863"><ele>12.0</ele><time>2026-03-25T11:27:17.915Z</time></trkpt><trkpt lat="43.6903126" lon="10.7038435"><ele>12.0</ele><time>2026-03-25T11:27:18.914Z</time></trkpt><trkpt lat="43.6901615" lon="10.7037077"><ele>12.0</ele><time>2026-03-25T11:27:19.913Z</time></trkpt><trkpt lat="43.6900141" lon="10.703585"><ele>12.333333333333332</ele><time>2026-03-25T11:27:20.914Z</time></trkpt><trkpt lat="43.6898719" lon="10.7034834"><ele>12.666666666666666</ele><time>2026-03-25T11:27:21.913Z</time></trkpt><trkpt lat="43.6897271" lon="10.7034004"><ele>13.0</ele><time>2026-03-25T11:27:22.914Z</time></trkpt><trkpt lat="43.6895709" lon="10.703337"><ele>13.0</ele><time>2026-03-25T11:27:23.913Z</time></trkpt><trkpt lat="43.6894156" lon="10.703297"><ele>13.0</ele><time>2026-03-25T11:27:24.914Z</time></trkpt><trkpt lat="43.689251" lon="10.7032771"><ele>13.0</ele><time>2026-03-25T11:27:25.913Z</time></trkpt><trkpt lat="43.6890834" lon="10.7032816"><ele>13.0</ele><time>2026-03-25T11:27:26.914Z</time></trkpt><trkpt lat="43.6889057" lon="10.7033006"><ele>13.0</ele><time>2026-03-25T11:27:27.914Z</time></trkpt><trkpt lat="43.6887176" lon="10.7033242"><ele>13.0</ele><time>2026-03-25T11:27:28.914Z</time></trkpt><trkpt lat="43.6885194" lon="10.7033511"><ele>13.0</ele><time>2026-03-25T11:27:29.914Z</time></trkpt><trkpt lat="43.6883086" lon="10.7033815"><ele>13.0</ele><time>2026-03-25T11:27:30.914Z</time></trkpt><trkpt lat="43.6880864" lon="10.7034164"><ele>13.0</ele><time>2026-03-25T11:27:31.914Z</time></trkpt><trkpt lat="43.687872" lon="10.703449"><ele>13.0</ele><time>2026-03-25T11:27:32.914Z</time></trkpt><trkpt lat="43.6876487" lon="10.7034805"><ele>13.0</ele><time>2026-03-25T11:27:33.913Z</time></trkpt><trkpt lat="43.6874287" lon="10.7035107"><ele>13.0</ele><time>2026-03-25T11:27:34.913Z</time></trkpt><trkpt lat="43.6872201" lon="10.7035395"><ele>13.0</ele><time>2026-03-25T11:27:35.915Z</time></trkpt><trkpt lat="43.6870259" lon="10.7035691"><ele>13.0</ele><time>2026-03-25T11:27:36.913Z</time></trkpt><trkpt lat="43.6868374" lon="10.7035951"><ele>13.0</ele><time>2026-03-25T11:27:37.913Z</time></trkpt><trkpt lat="43.6866477" lon="10.7036189"><ele>13.333333333333332</ele><time>2026-03-25T11:27:38.914Z</time></trkpt><trkpt lat="43.6864595" lon="10.7036413"><ele>13.666666666666668</ele><time>2026-03-25T11:27:39.914Z</time></trkpt><trkpt lat="43.6862877" lon="10.7036605"><ele>14.0</ele><time>2026-03-25T11:27:40.913Z</time></trkpt><trkpt lat="43.6861129" lon="10.7036761"><ele>14.333333333333334</ele><time>2026-03-25T11:27:41.913Z</time></trkpt><trkpt lat="43.6859318" lon="10.7036781"><ele>14.666666666666668</ele><time>2026-03-25T11:27:42.915Z</time></trkpt><trkpt lat="43.6857481" lon="10.7036657"><ele>15.0</ele><time>2026-03-25T11:27:43.914Z</time></trkpt><trkpt lat="43.6855565" lon="10.7036404"><ele>15.0</ele><time>2026-03-25T11:27:44.914Z</time></trkpt><trkpt lat="43.685364" lon="10.7036083"><ele>15.0</ele><time>2026-03-25T11:27:45.913Z</time></trkpt><trkpt lat="43.6851659" lon="10.7035741"><ele>15.0</ele><time>2026-03-25T11:27:46.914Z</time></trkpt><trkpt lat="43.6849687" lon="10.7035378"><ele>14.666666666666668</ele><time>2026-03-25T11:27:47.914Z</time></trkpt><trkpt lat="43.6847937" lon="10.703502"><ele>14.333333333333334</ele><time>2026-03-25T11:27:48.915Z</time></trkpt><trkpt lat="43.6846289" lon="10.7034665"><ele>14.0</ele><time>2026-03-25T11:27:49.913Z</time></trkpt><trkpt lat="43.6844754" lon="10.7034267"><ele>14.25</ele><time>2026-03-25T11:27:50.913Z</time></trkpt><trkpt lat="43.6843347" lon="10.703377"><ele>14.5</ele><time>2026-03-25T11:27:51.914Z</time></trkpt><trkpt lat="43.6842018" lon="10.7033135"><ele>14.75</ele><time>2026-03-25T11:27:52.914Z</time></trkpt><trkpt lat="43.6840789" lon="10.703234"><ele>15.0</ele><time>2026-03-25T11:27:53.915Z</time></trkpt><trkpt lat="43.6839627" lon="10.7031326"><ele>15.0</ele><time>2026-03-25T11:27:54.915Z</time></trkpt><trkpt lat="43.6838512" lon="10.7030052"><ele>15.0</ele><time>2026-03-25T11:27:55.914Z</time></trkpt><trkpt lat="43.6837497" lon="10.7028615"><ele>15.0</ele><time>2026-03-25T11:27:56.914Z</time></trkpt><trkpt lat="43.6836471" lon="10.7026938"><ele>15.0</ele><time>2026-03-25T11:27:57.913Z</time></trkpt><trkpt lat="43.6835397" lon="10.7025107"><ele>15.0</ele><time>2026-03-25T11:27:58.914Z</time></trkpt><trkpt lat="43.6834303" lon="10.7023181"><ele>15.0</ele><time>2026-03-25T11:27:59.915Z</time></trkpt><trkpt lat="43.6833146" lon="10.702116"><ele>15.0</ele><time>2026-03-25T11:28:00.914Z</time></trkpt><trkpt lat="43.6831963" lon="10.7019127"><ele>15.0</ele><time>2026-03-25T11:28:01.915Z</time></trkpt><trkpt lat="43.6830754" lon="10.7017077"><ele>15.0</ele><time>2026-03-25T11:28:02.913Z</time></trkpt><trkpt lat="43.6829545" lon="10.7015035"><ele>15.0</ele><time>2026-03-25T11:28:03.914Z</time></trkpt><trkpt lat="43.6828417" lon="10.7013076"><ele>15.0</ele><time>2026-03-25T11:28:04.914Z</time></trkpt><trkpt lat="43.6827311" lon="10.7011114"><ele>15.0</ele><time>2026-03-25T11:28:05.914Z</time></trkpt><trkpt lat="43.6826215" lon="10.7009153"><ele>15.0</ele><time>2026-03-25T11:28:06.915Z</time></trkpt><trkpt lat="43.6825144" lon="10.7007275"><ele>15.0</ele><time>2026-03-25T11:28:07.915Z</time></trkpt><trkpt lat="43.682411" lon="10.7005501"><ele>15.0</ele><time>2026-03-25T11:28:08.914Z</time></trkpt><trkpt lat="43.6823136" lon="10.7003819"><ele>15.0</ele><time>2026-03-25T11:28:09.914Z</time></trkpt><trkpt lat="43.6822204" lon="10.70022"><ele>15.25</ele><time>2026-03-25T11:28:10.913Z</time></trkpt><trkpt lat="43.6821324" lon="10.7000661"><ele>15.5</ele><time>2026-03-25T11:28:11.914Z</time></trkpt><trkpt lat="43.6820555" lon="10.6999319"><ele>15.75</ele><time>2026-03-25T11:28:12.913Z</time></trkpt><trkpt lat="43.681986" lon="10.6998143"><ele>16.0</ele><time>2026-03-25T11:28:13.914Z</time></trkpt><trkpt lat="43.6819241" lon="10.6997149"><ele>15.857142857142856</ele><time>2026-03-25T11:28:14.913Z</time></trkpt><trkpt lat="43.6818728" lon="10.6996337"><ele>15.714285714285712</ele><time>2026-03-25T11:28:15.914Z</time></trkpt><trkpt lat="43.6818317" lon="10.6995668"><ele>15.571428571428571</ele><time>2026-03-25T11:28:16.913Z</time></trkpt><trkpt lat="43.6817741" lon="10.6994746"><ele>15.428571428571427</ele><time>2026-03-25T11:28:18.913Z</time></trkpt><trkpt lat="43.6817323" lon="10.6994033"><ele>15.285714285714285</ele><time>2026-03-25T11:28:21.914Z</time></trkpt><trkpt lat="43.6816929" lon="10.699335"><ele>15.142857142857142</ele><time>2026-03-25T11:28:40.914Z</time></trkpt><trkpt lat="43.6816438" lon="10.6992623"><ele>15.0</ele><time>2026-03-25T11:28:42.914Z</time></trkpt><trkpt lat="43.6816042" lon="10.6991861"><ele>15.0</ele><time>2026-03-25T11:28:44.914Z</time></trkpt><trkpt lat="43.6815559" lon="10.6990911"><ele>15.0</ele><time>2026-03-25T11:28:47.914Z</time></trkpt><trkpt lat="43.6815189" lon="10.6990128"><ele>15.0</ele><time>2026-03-25T11:29:20.913Z</time></trkpt><trkpt lat="43.6814699" lon="10.6989458"><ele>15.0</ele><time>2026-03-25T11:29:37.913Z</time></trkpt><trkpt lat="43.6814366" lon="10.6988467"><ele>15.0</ele><time>2026-03-25T11:31:51.913Z</time></trkpt><trkpt lat="43.6813909" lon="10.6987667"><ele>15.0</ele><time>2026-03-25T11:31:55.914Z</time></trkpt><trkpt lat="43.6813488" lon="10.6986985"><ele>15.0</ele><time>2026-03-25T11:31:58.914Z</time></trkpt><trkpt lat="43.681299" lon="10.698631"><ele>15.0</ele><time>2026-03-25T11:32:02.915Z</time></trkpt><trkpt lat="43.6812557" lon="10.6985454"><ele>15.0</ele><time>2026-03-25T11:32:06.914Z</time></trkpt><trkpt lat="43.6811894" lon="10.6984459"><ele>15.0</ele><time>2026-03-25T11:32:09.913Z</time></trkpt><trkpt lat="43.6811362" lon="10.6983492"><ele>15.0</ele><time>2026-03-25T11:32:11.914Z</time></trkpt><trkpt lat="43.6810852" lon="10.6982504"><ele>15.0</ele><time>2026-03-25T11:32:13.914Z</time></trkpt><trkpt lat="43.6810353" lon="10.6981587"><ele>15.0</ele><time>2026-03-25T11:32:15.914Z</time></trkpt><trkpt lat="43.6809619" lon="10.6980381"><ele>15.0</ele><time>2026-03-25T11:32:17.914Z</time></trkpt><trkpt lat="43.6808816" lon="10.697906"><ele>15.0</ele><time>2026-03-25T11:32:19.914Z</time></trkpt><trkpt lat="43.6808156" lon="10.6977979"><ele>15.0</ele><time>2026-03-25T11:32:21.913Z</time></trkpt><trkpt lat="43.6807485" lon="10.6976756"><ele>15.0</ele><time>2026-03-25T11:32:23.913Z</time></trkpt><trkpt lat="43.6807038" lon="10.697599"><ele>15.0</ele><time>2026-03-25T11:32:24.913Z</time></trkpt><trkpt lat="43.680653" lon="10.6975152"><ele>15.0</ele><time>2026-03-25T11:32:25.913Z</time></trkpt><trkpt lat="43.6806044" lon="10.6974367"><ele>15.0</ele><time>2026-03-25T11:32:26.914Z</time></trkpt><trkpt lat="43.68054" lon="10.6973359"><ele>15.0</ele><time>2026-03-25T11:32:28.913Z</time></trkpt><trkpt lat="43.6804835" lon="10.6972328"><ele>15.0</ele><time>2026-03-25T11:32:31.914Z</time></trkpt><trkpt lat="43.6804184" lon="10.697116"><ele>15.0</ele><time>2026-03-25T11:32:33.914Z</time></trkpt><trkpt lat="43.6803777" lon="10.697046"><ele>15.0</ele><time>2026-03-25T11:32:34.913Z</time></trkpt><trkpt lat="43.6803349" lon="10.6969706"><ele>15.0</ele><time>2026-03-25T11:32:35.914Z</time></trkpt><trkpt lat="43.6802872" lon="10.6968909"><ele>15.0</ele><time>2026-03-25T11:32:36.914Z</time></trkpt><trkpt lat="43.6802348" lon="10.6967986"><ele>15.0</ele><time>2026-03-25T11:32:37.914Z</time></trkpt><trkpt lat="43.6801763" lon="10.6966923"><ele>15.0</ele><time>2026-03-25T11:32:38.913Z</time></trkpt><trkpt lat="43.6801144" lon="10.6965826"><ele>15.0</ele><time>2026-03-25T11:32:39.914Z</time></trkpt><trkpt lat="43.6800525" lon="10.6964763"><ele>15.0</ele><time>2026-03-25T11:32:40.913Z</time></trkpt><trkpt lat="43.6799941" lon="10.6963737"><ele>15.0</ele><time>2026-03-25T11:32:41.914Z</time></trkpt><trkpt lat="43.6799335" lon="10.6962643"><ele>15.0</ele><time>2026-03-25T11:32:42.913Z</time></trkpt><trkpt lat="43.6798644" lon="10.6961437"><ele>15.0</ele><time>2026-03-25T11:32:43.913Z</time></trkpt><trkpt lat="43.6797905" lon="10.6960192"><ele>15.0</ele><time>2026-03-25T11:32:44.913Z</time></trkpt><trkpt lat="43.6797142" lon="10.695892"><ele>15.0</ele><time>2026-03-25T11:32:45.913Z</time></trkpt><trkpt lat="43.6796331" lon="10.6957557"><ele>15.0</ele><time>2026-03-25T11:32:46.914Z</time></trkpt><trkpt lat="43.6795515" lon="10.6956136"><ele>15.0</ele><time>2026-03-25T11:32:47.915Z</time></trkpt><trkpt lat="43.6794709" lon="10.6954678"><ele>15.0</ele><time>2026-03-25T11:32:48.914Z</time></trkpt><trkpt lat="43.6793912" lon="10.6953242"><ele>14.25</ele><time>2026-03-25T11:32:49.914Z</time></trkpt><trkpt lat="43.6793094" lon="10.6951793"><ele>13.5</ele><time>2026-03-25T11:32:50.913Z</time></trkpt><trkpt lat="43.6792249" lon="10.6950326"><ele>12.75</ele><time>2026-03-25T11:32:51.915Z</time></trkpt><trkpt lat="43.6791423" lon="10.6948875"><ele>12.0</ele><time>2026-03-25T11:32:52.914Z</time></trkpt><trkpt lat="43.6790642" lon="10.6947452"><ele>12.0</ele><time>2026-03-25T11:32:53.913Z</time></trkpt><trkpt lat="43.6789905" lon="10.6946"><ele>12.0</ele><time>2026-03-25T11:32:54.914Z</time></trkpt><trkpt lat="43.67892" lon="10.6944545"><ele>12.0</ele><time>2026-03-25T11:32:55.913Z</time></trkpt><trkpt lat="43.6788529" lon="10.6943075"><ele>12.0</ele><time>2026-03-25T11:32:56.913Z</time></trkpt><trkpt lat="43.6787908" lon="10.6941644"><ele>12.25</ele><time>2026-03-25T11:32:57.914Z</time></trkpt><trkpt lat="43.6787281" lon="10.6940126"><ele>12.5</ele><time>2026-03-25T11:32:58.913Z</time></trkpt><trkpt lat="43.6786589" lon="10.6938459"><ele>12.75</ele><time>2026-03-25T11:32:59.914Z</time></trkpt><trkpt lat="43.6785875" lon="10.6936793"><ele>13.0</ele><time>2026-03-25T11:33:00.915Z</time></trkpt><trkpt lat="43.6785165" lon="10.6935149"><ele>13.25</ele><time>2026-03-25T11:33:01.914Z</time></trkpt><trkpt lat="43.6784455" lon="10.693344"><ele>13.5</ele><time>2026-03-25T11:33:02.913Z</time></trkpt><trkpt lat="43.6783731" lon="10.6931678"><ele>13.75</ele><time>2026-03-25T11:33:03.914Z</time></trkpt><trkpt lat="43.6782937" lon="10.6929782"><ele>14.0</ele><time>2026-03-25T11:33:04.913Z</time></trkpt><trkpt lat="43.6782092" lon="10.6927807"><ele>13.666666666666668</ele><time>2026-03-25T11:33:05.913Z</time></trkpt><trkpt lat="43.6781223" lon="10.6925741"><ele>13.333333333333332</ele><time>2026-03-25T11:33:06.913Z</time></trkpt><trkpt lat="43.6780351" lon="10.6923612"><ele>13.0</ele><time>2026-03-25T11:33:07.914Z</time></trkpt><trkpt lat="43.677951" lon="10.6921573"><ele>13.0</ele><time>2026-03-25T11:33:08.914Z</time></trkpt><trkpt lat="43.6778709" lon="10.6919666"><ele>13.0</ele><time>2026-03-25T11:33:09.914Z</time></trkpt><trkpt lat="43.6777954" lon="10.6917916"><ele>13.0</ele><time>2026-03-25T11:33:10.914Z</time></trkpt><trkpt lat="43.6777271" lon="10.6916327"><ele>13.0</ele><time>2026-03-25T11:33:11.914Z</time></trkpt><trkpt lat="43.677662" lon="10.6914801"><ele>13.4</ele><time>2026-03-25T11:33:12.913Z</time></trkpt><trkpt lat="43.6776032" lon="10.6913388"><ele>13.8</ele><time>2026-03-25T11:33:13.914Z</time></trkpt><trkpt lat="43.6775526" lon="10.6912129"><ele>14.2</ele><time>2026-03-25T11:33:14.913Z</time></trkpt><trkpt lat="43.677509" lon="10.6911003"><ele>14.6</ele><time>2026-03-25T11:33:15.913Z</time></trkpt><trkpt lat="43.6774712" lon="10.6909969"><ele>15.0</ele><time>2026-03-25T11:33:16.913Z</time></trkpt><trkpt lat="43.6774386" lon="10.6908968"><ele>15.0</ele><time>2026-03-25T11:33:17.914Z</time></trkpt><trkpt lat="43.6774075" lon="10.6907873"><ele>15.0</ele><time>2026-03-25T11:33:18.913Z</time></trkpt><trkpt lat="43.677376" lon="10.6906587"><ele>15.0</ele><time>2026-03-25T11:33:19.915Z</time></trkpt><trkpt lat="43.6773465" lon="10.6905043"><ele>15.0</ele><time>2026-03-25T11:33:20.914Z</time></trkpt><trkpt lat="43.677318" lon="10.6903247"><ele>15.0</ele><time>2026-03-25T11:33:21.914Z</time></trkpt><trkpt lat="43.6772903" lon="10.6901162"><ele>15.0</ele><time>2026-03-25T11:33:22.913Z</time></trkpt><trkpt lat="43.6772631" lon="10.6898793"><ele>15.0</ele><time>2026-03-25T11:33:23.913Z</time></trkpt><trkpt lat="43.6772387" lon="10.6896277"><ele>15.0</ele><time>2026-03-25T11:33:24.914Z</time></trkpt><trkpt lat="43.6772065" lon="10.6893482"><ele>15.333333333333332</ele><time>2026-03-25T11:33:25.915Z</time></trkpt><trkpt lat="43.6771755" lon="10.6890467"><ele>15.666666666666666</ele><time>2026-03-25T11:33:26.914Z</time></trkpt><trkpt lat="43.6771471" lon="10.6887357"><ele>16.0</ele><time>2026-03-25T11:33:27.914Z</time></trkpt><trkpt lat="43.6771187" lon="10.6884407"><ele>15.333333333333332</ele><time>2026-03-25T11:33:28.915Z</time></trkpt><trkpt lat="43.6770937" lon="10.6881657"><ele>14.666666666666668</ele><time>2026-03-25T11:33:29.914Z</time></trkpt><trkpt lat="43.6770682" lon="10.687901"><ele>14.0</ele><time>2026-03-25T11:33:30.914Z</time></trkpt><trkpt lat="43.6770423" lon="10.6876502"><ele>14.0</ele><time>2026-03-25T11:33:31.914Z</time></trkpt><trkpt lat="43.6770075" lon="10.6874135"><ele>14.0</ele><time>2026-03-25T11:33:32.914Z</time></trkpt><trkpt lat="43.6769576" lon="10.6871903"><ele>14.0</ele><time>2026-03-25T11:33:33.914Z</time></trkpt><trkpt lat="43.6768842" lon="10.6869711"><ele>14.333333333333334</ele><time>2026-03-25T11:33:34.913Z</time></trkpt><trkpt lat="43.6767995" lon="10.6867482"><ele>14.666666666666668</ele><time>2026-03-25T11:33:35.913Z</time></trkpt><trkpt lat="43.6767184" lon="10.6865346"><ele>15.0</ele><time>2026-03-25T11:33:36.913Z</time></trkpt><trkpt lat="43.6766458" lon="10.6863379"><ele>15.0</ele><time>2026-03-25T11:33:37.914Z</time></trkpt><trkpt lat="43.6765832" lon="10.6861583"><ele>15.0</ele><time>2026-03-25T11:33:38.914Z</time></trkpt><trkpt lat="43.6765306" lon="10.685993"><ele>15.0</ele><time>2026-03-25T11:33:39.913Z</time></trkpt><trkpt lat="43.6764883" lon="10.6858312"><ele>15.0</ele><time>2026-03-25T11:33:40.913Z</time></trkpt><trkpt lat="43.6764531" lon="10.6856839"><ele>15.0</ele><time>2026-03-25T11:33:41.913Z</time></trkpt><trkpt lat="43.676423" lon="10.6855564"><ele>15.0</ele><time>2026-03-25T11:33:42.914Z</time></trkpt><trkpt lat="43.6763952" lon="10.6854483"><ele>15.0</ele><time>2026-03-25T11:33:43.913Z</time></trkpt><trkpt lat="43.676366" lon="10.6853469"><ele>15.0</ele><time>2026-03-25T11:33:44.914Z</time></trkpt><trkpt lat="43.6763372" lon="10.6852433"><ele>15.0</ele><time>2026-03-25T11:33:45.915Z</time></trkpt><trkpt lat="43.6763108" lon="10.6851444"><ele>15.0</ele><time>2026-03-25T11:33:46.914Z</time></trkpt><trkpt lat="43.6762845" lon="10.6850383"><ele>15.0</ele><time>2026-03-25T11:33:47.914Z</time></trkpt><trkpt lat="43.676257" lon="10.684926"><ele>15.0</ele><time>2026-03-25T11:33:48.914Z</time></trkpt><trkpt lat="43.6762254" lon="10.6848116"><ele>15.0</ele><time>2026-03-25T11:33:49.914Z</time></trkpt><trkpt lat="43.676193" lon="10.6847009"><ele>15.0</ele><time>2026-03-25T11:33:50.914Z</time></trkpt><trkpt lat="43.6761636" lon="10.68461"><ele>15.0</ele><time>2026-03-25T11:33:51.914Z</time></trkpt><trkpt lat="43.6760967" lon="10.6845075"><ele>15.0</ele><time>2026-03-25T11:33:53.913Z</time></trkpt><trkpt lat="43.6759946" lon="10.6845361"><ele>15.0</ele><time>2026-03-25T11:33:55.914Z</time></trkpt><trkpt lat="43.6759344" lon="10.6845622"><ele>15.0</ele><time>2026-03-25T11:33:56.915Z</time></trkpt><trkpt lat="43.6758613" lon="10.6845997"><ele>15.0</ele><time>2026-03-25T11:33:57.914Z</time></trkpt><trkpt lat="43.6757871" lon="10.6846338"><ele>15.0</ele><time>2026-03-25T11:33:58.914Z</time></trkpt><trkpt lat="43.6756615" lon="10.6846974"><ele>15.0</ele><time>2026-03-25T11:33:59.914Z</time></trkpt><trkpt lat="43.6755755" lon="10.6847432"><ele>15.0</ele><time>2026-03-25T11:34:00.914Z</time></trkpt><trkpt lat="43.6755088" lon="10.6847899"><ele>15.0</ele><time>2026-03-25T11:34:01.914Z</time></trkpt><trkpt lat="43.6754138" lon="10.6848139"><ele>15.0</ele><time>2026-03-25T11:34:03.913Z</time></trkpt><trkpt lat="43.6753452" lon="10.6847512"><ele>15.0</ele><time>2026-03-25T11:34:05.913Z</time></trkpt><trkpt lat="43.6753345" lon="10.6845643"><ele>15.0</ele><time>2026-03-25T11:34:07.914Z</time></trkpt><trkpt lat="43.6753122" lon="10.6844445"><ele>15.0</ele><time>2026-03-25T11:34:08.913Z</time></trkpt><trkpt lat="43.6752983" lon="10.6842904"><ele>15.0</ele><time>2026-03-25T11:34:09.915Z</time></trkpt><trkpt lat="43.6752845" lon="10.6841537"><ele>15.0</ele><time>2026-03-25T11:34:10.914Z</time></trkpt><trkpt lat="43.6752717" lon="10.6840169"><ele>15.0</ele><time>2026-03-25T11:34:11.915Z</time></trkpt><trkpt lat="43.675259" lon="10.6838986"><ele>15.0</ele><time>2026-03-25T11:34:12.914Z</time></trkpt><trkpt lat="43.6752486" lon="10.683794"><ele>15.0</ele><time>2026-03-25T11:34:13.913Z</time></trkpt><trkpt lat="43.6752341" lon="10.6837033"><ele>15.0</ele><time>2026-03-25T11:34:14.914Z</time></trkpt><trkpt lat="43.6751888" lon="10.6836073"><ele>15.0</ele><time>2026-03-25T11:34:16.914Z</time></trkpt><trkpt lat="43.6751065" lon="10.6836485"><ele>15.0</ele><time>2026-03-25T11:34:19.914Z</time></trkpt><trkpt lat="43.6750762" lon="10.6837288"><ele>15.0</ele><time>2026-03-25T11:34:21.914Z</time></trkpt><trkpt lat="43.6750887" lon="10.6838248"><ele>15.0</ele><time>2026-03-25T11:34:24.913Z</time></trkpt><trkpt lat="43.6750547" lon="10.683742"><ele>15.0</ele><time>2026-03-25T11:36:19.913Z</time></trkpt><trkpt lat="43.6750324" lon="10.683641"><ele>15.0</ele><time>2026-03-25T11:36:26.799Z</time></trkpt><trkpt lat="43.6749984" lon="10.6835538"><ele>15.0</ele><time>2026-03-25T11:36:33.912Z</time></trkpt><trkpt lat="43.6749711" lon="10.6834564"><ele>14.857142857142858</ele><time>2026-03-25T11:36:40.913Z</time></trkpt><trkpt lat="43.6749234" lon="10.683371"><ele>14.714285714285714</ele><time>2026-03-25T11:36:47.913Z</time></trkpt><trkpt lat="43.6748806" lon="10.6832921"><ele>14.571428571428571</ele><time>2026-03-25T11:36:54.878Z</time></trkpt><trkpt lat="43.6748226" lon="10.6832503"><ele>14.428571428571429</ele><time>2026-03-25T11:36:59.913Z</time></trkpt><trkpt lat="43.6747502" lon="10.6832746"><ele>14.285714285714285</ele><time>2026-03-25T11:37:05.913Z</time></trkpt><trkpt lat="43.6746868" lon="10.6833123"><ele>14.142857142857142</ele><time>2026-03-25T11:37:10.913Z</time></trkpt><trkpt lat="43.6746283" lon="10.6832525"><ele>14.0</ele><time>2026-03-25T11:37:16.909Z</time></trkpt><trkpt lat="43.6745815" lon="10.6831825"><ele>14.0</ele><time>2026-03-25T11:37:22.914Z</time></trkpt><trkpt lat="43.6745413" lon="10.6831136"><ele>14.0</ele><time>2026-03-25T11:37:27.912Z</time></trkpt><trkpt lat="43.6745301" lon="10.6830265"><ele>14.0</ele><time>2026-03-25T11:37:35.912Z</time></trkpt><trkpt lat="43.6745524" lon="10.6831197"><ele>14.0</ele><time>2026-03-25T11:50:48.818Z</time></trkpt><trkpt lat="43.6746233" lon="10.6831387"><ele>14.0</ele><time>2026-03-25T11:51:26.913Z</time></trkpt><trkpt lat="43.6746291" lon="10.68324"><ele>14.0</ele><time>2026-03-25T11:51:29.912Z</time></trkpt><trkpt lat="43.6746828" lon="10.683305"><ele>14.0</ele><time>2026-03-25T11:51:34.911Z</time></trkpt><trkpt lat="43.6747533" lon="10.6832929"><ele>14.0</ele><time>2026-03-25T11:51:41.911Z</time></trkpt><trkpt lat="43.6748139" lon="10.6832688"><ele>14.0</ele><time>2026-03-25T11:51:46.912Z</time></trkpt><trkpt lat="43.6748793" lon="10.6832549"><ele>14.0</ele><time>2026-03-25T11:51:52.911Z</time></trkpt><trkpt lat="43.6749325" lon="10.6833218"><ele>14.0</ele><time>2026-03-25T11:51:56.911Z</time></trkpt><trkpt lat="43.6749716" lon="10.6834028"><ele>14.0</ele><time>2026-03-25T11:52:00.911Z</time></trkpt><trkpt lat="43.6749977" lon="10.6834959"><ele>14.0</ele><time>2026-03-25T11:52:05.913Z</time></trkpt><trkpt lat="43.6750131" lon="10.6835978"><ele>14.0</ele><time>2026-03-25T11:52:10.912Z</time></trkpt><trkpt lat="43.6750427" lon="10.6836898"><ele>14.166666666666668</ele><time>2026-03-25T11:52:15.911Z</time></trkpt><trkpt lat="43.6750852" lon="10.6837693"><ele>14.333333333333334</ele><time>2026-03-25T11:52:20.894Z</time></trkpt><trkpt lat="43.6751191" lon="10.683673"><ele>14.5</ele><time>2026-03-25T11:54:47.911Z</time></trkpt><trkpt lat="43.675163" lon="10.6836085"><ele>14.666666666666668</ele><time>2026-03-25T11:54:51.911Z</time></trkpt><trkpt lat="43.6752228" lon="10.6836567"><ele>14.833333333333334</ele><time>2026-03-25T11:54:56.911Z</time></trkpt><trkpt lat="43.6752462" lon="10.6837848"><ele>15.0</ele><time>2026-03-25T11:54:58.911Z</time></trkpt><trkpt lat="43.6752555" lon="10.6839432"><ele>15.0</ele><time>2026-03-25T11:55:00.91Z</time></trkpt><trkpt lat="43.6752708" lon="10.6840638"><ele>15.0</ele><time>2026-03-25T11:55:02.91Z</time></trkpt><trkpt lat="43.6752858" lon="10.6841806"><ele>15.0</ele><time>2026-03-25T11:55:04.911Z</time></trkpt><trkpt lat="43.6753085" lon="10.6843372"><ele>15.0</ele><time>2026-03-25T11:55:06.912Z</time></trkpt><trkpt lat="43.6753291" lon="10.684495"><ele>15.0</ele><time>2026-03-25T11:55:08.911Z</time></trkpt><trkpt lat="43.6753361" lon="10.6846226"><ele>15.0</ele><time>2026-03-25T11:55:10.91Z</time></trkpt><trkpt lat="43.6753388" lon="10.6847398"><ele>15.0</ele><time>2026-03-25T11:55:12.912Z</time></trkpt><trkpt lat="43.6753732" lon="10.684826"><ele>15.0</ele><time>2026-03-25T11:55:14.911Z</time></trkpt><trkpt lat="43.6754667" lon="10.6847938"><ele>15.0</ele><time>2026-03-25T11:55:17.91Z</time></trkpt><trkpt lat="43.6755371" lon="10.6847507"><ele>15.0</ele><time>2026-03-25T11:55:19.911Z</time></trkpt><trkpt lat="43.6756114" lon="10.6847109"><ele>15.0</ele><time>2026-03-25T11:55:21.911Z</time></trkpt><trkpt lat="43.6756864" lon="10.6846939"><ele>15.0</ele><time>2026-03-25T11:55:23.91Z</time></trkpt><trkpt lat="43.6757492" lon="10.6846748"><ele>15.0</ele><time>2026-03-25T11:55:25.911Z</time></trkpt><trkpt lat="43.6758237" lon="10.6846343"><ele>15.0</ele><time>2026-03-25T11:55:28.911Z</time></trkpt><trkpt lat="43.6758883" lon="10.684613"><ele>15.0</ele><time>2026-03-25T11:55:31.911Z</time></trkpt><trkpt lat="43.6759586" lon="10.6846064"><ele>15.0</ele><time>2026-03-25T11:57:26.912Z</time></trkpt><trkpt lat="43.6760292" lon="10.6845985"><ele>15.0</ele><time>2026-03-25T11:57:30.91Z</time></trkpt><trkpt lat="43.6760997" lon="10.6846414"><ele>15.0</ele><time>2026-03-25T11:57:34.911Z</time></trkpt><trkpt lat="43.6761941" lon="10.684784"><ele>15.0</ele><time>2026-03-25T11:57:36.91Z</time></trkpt><trkpt lat="43.6762333" lon="10.684881"><ele>15.0</ele><time>2026-03-25T11:57:37.911Z</time></trkpt><trkpt lat="43.6762707" lon="10.6849924"><ele>15.0</ele><time>2026-03-25T11:57:38.912Z</time></trkpt><trkpt lat="43.6763021" lon="10.6851048"><ele>15.0</ele><time>2026-03-25T11:57:39.91Z</time></trkpt><trkpt lat="43.6763338" lon="10.6852162"><ele>15.0</ele><time>2026-03-25T11:57:40.911Z</time></trkpt><trkpt lat="43.6763638" lon="10.6853272"><ele>15.0</ele><time>2026-03-25T11:57:41.911Z</time></trkpt><trkpt lat="43.6763882" lon="10.6854432"><ele>15.0</ele><time>2026-03-25T11:57:42.911Z</time></trkpt><trkpt lat="43.6764186" lon="10.6855629"><ele>15.0</ele><time>2026-03-25T11:57:43.912Z</time></trkpt><trkpt lat="43.6764579" lon="10.6856992"><ele>15.0</ele><time>2026-03-25T11:57:44.911Z</time></trkpt><trkpt lat="43.676501" lon="10.6858538"><ele>15.0</ele><time>2026-03-25T11:57:45.911Z</time></trkpt><trkpt lat="43.6765481" lon="10.6860129"><ele>15.0</ele><time>2026-03-25T11:57:46.91Z</time></trkpt><trkpt lat="43.676599" lon="10.6861681"><ele>15.0</ele><time>2026-03-25T11:57:47.911Z</time></trkpt><trkpt lat="43.6766511" lon="10.6863238"><ele>15.0</ele><time>2026-03-25T11:57:48.911Z</time></trkpt><trkpt lat="43.6767075" lon="10.6864935"><ele>15.0</ele><time>2026-03-25T11:57:49.911Z</time></trkpt><trkpt lat="43.6767628" lon="10.6866591"><ele>15.0</ele><time>2026-03-25T11:57:50.91Z</time></trkpt><trkpt lat="43.67682" lon="10.6868104"><ele>15.0</ele><time>2026-03-25T11:57:51.91Z</time></trkpt><trkpt lat="43.6768719" lon="10.6869605"><ele>15.0</ele><time>2026-03-25T11:57:52.91Z</time></trkpt><trkpt lat="43.67692" lon="10.6871198"><ele>15.0</ele><time>2026-03-25T11:57:53.911Z</time></trkpt><trkpt lat="43.6769651" lon="10.6872923"><ele>15.0</ele><time>2026-03-25T11:57:54.911Z</time></trkpt><trkpt lat="43.6770008" lon="10.6874718"><ele>14.666666666666668</ele><time>2026-03-25T11:57:55.91Z</time></trkpt><trkpt lat="43.6770319" lon="10.6876609"><ele>14.333333333333334</ele><time>2026-03-25T11:57:56.911Z</time></trkpt><trkpt lat="43.677057" lon="10.6878729"><ele>14.0</ele><time>2026-03-25T11:57:57.911Z</time></trkpt><trkpt lat="43.6770794" lon="10.6881026"><ele>14.0</ele><time>2026-03-25T11:57:58.91Z</time></trkpt><trkpt lat="43.677105" lon="10.6883289"><ele>14.0</ele><time>2026-03-25T11:57:59.91Z</time></trkpt><trkpt lat="43.6771289" lon="10.688557"><ele>14.0</ele><time>2026-03-25T11:58:00.91Z</time></trkpt><trkpt lat="43.6771554" lon="10.6887922"><ele>14.333333333333334</ele><time>2026-03-25T11:58:01.91Z</time></trkpt><trkpt lat="43.6771819" lon="10.6890344"><ele>14.666666666666668</ele><time>2026-03-25T11:58:02.912Z</time></trkpt><trkpt lat="43.6772103" lon="10.6892849"><ele>15.0</ele><time>2026-03-25T11:58:03.91Z</time></trkpt><trkpt lat="43.6772369" lon="10.6895227"><ele>15.0</ele><time>2026-03-25T11:58:04.912Z</time></trkpt><trkpt lat="43.6772613" lon="10.6897445"><ele>15.0</ele><time>2026-03-25T11:58:05.911Z</time></trkpt><trkpt lat="43.6772827" lon="10.6899568"><ele>15.0</ele><time>2026-03-25T11:58:06.911Z</time></trkpt><trkpt lat="43.6773034" lon="10.6901608"><ele>15.0</ele><time>2026-03-25T11:58:07.911Z</time></trkpt><trkpt lat="43.677324" lon="10.6903585"><ele>15.0</ele><time>2026-03-25T11:58:08.911Z</time></trkpt><trkpt lat="43.6773504" lon="10.6905481"><ele>15.0</ele><time>2026-03-25T11:58:09.911Z</time></trkpt><trkpt lat="43.6773863" lon="10.690723"><ele>15.0</ele><time>2026-03-25T11:58:10.912Z</time></trkpt><trkpt lat="43.6774301" lon="10.6908852"><ele>15.0</ele><time>2026-03-25T11:58:11.91Z</time></trkpt><trkpt lat="43.6774771" lon="10.6910314"><ele>15.0</ele><time>2026-03-25T11:58:12.912Z</time></trkpt><trkpt lat="43.6775257" lon="10.691161"><ele>15.0</ele><time>2026-03-25T11:58:13.912Z</time></trkpt><trkpt lat="43.6775782" lon="10.6912903"><ele>15.0</ele><time>2026-03-25T11:58:14.911Z</time></trkpt><trkpt lat="43.6776392" lon="10.691427"><ele>15.0</ele><time>2026-03-25T11:58:15.911Z</time></trkpt><trkpt lat="43.677702" lon="10.6915789"><ele>15.0</ele><time>2026-03-25T11:58:16.911Z</time></trkpt><trkpt lat="43.6777711" lon="10.6917479"><ele>15.0</ele><time>2026-03-25T11:58:17.911Z</time></trkpt><trkpt lat="43.6778446" lon="10.6919247"><ele>15.0</ele><time>2026-03-25T11:58:18.911Z</time></trkpt><trkpt lat="43.6779246" lon="10.6921153"><ele>15.0</ele><time>2026-03-25T11:58:19.911Z</time></trkpt><trkpt lat="43.6780128" lon="10.6923224"><ele>14.666666666666668</ele><time>2026-03-25T11:58:20.912Z</time></trkpt><trkpt lat="43.6781071" lon="10.6925483"><ele>14.333333333333334</ele><time>2026-03-25T11:58:21.911Z</time></trkpt><trkpt lat="43.6781989" lon="10.692763"><ele>14.0</ele><time>2026-03-25T11:58:22.911Z</time></trkpt><trkpt lat="43.6782861" lon="10.6929794"><ele>14.0</ele><time>2026-03-25T11:58:23.911Z</time></trkpt><trkpt lat="43.6783775" lon="10.6931944"><ele>14.0</ele><time>2026-03-25T11:58:24.911Z</time></trkpt><trkpt lat="43.6784681" lon="10.6934035"><ele>14.0</ele><time>2026-03-25T11:58:25.91Z</time></trkpt><trkpt lat="43.6785589" lon="10.6936116"><ele>13.666666666666668</ele><time>2026-03-25T11:58:26.911Z</time></trkpt><trkpt lat="43.6786458" lon="10.6938104"><ele>13.333333333333332</ele><time>2026-03-25T11:58:27.911Z</time></trkpt><trkpt lat="43.6787272" lon="10.694006"><ele>13.0</ele><time>2026-03-25T11:58:28.911Z</time></trkpt><trkpt lat="43.6788106" lon="10.6942024"><ele>13.0</ele><time>2026-03-25T11:58:29.911Z</time></trkpt><trkpt lat="43.6788964" lon="10.6943983"><ele>13.0</ele><time>2026-03-25T11:58:30.911Z</time></trkpt><trkpt lat="43.6789885" lon="10.6945951"><ele>13.0</ele><time>2026-03-25T11:58:31.912Z</time></trkpt><trkpt lat="43.6790886" lon="10.6947912"><ele>12.666666666666666</ele><time>2026-03-25T11:58:32.912Z</time></trkpt><trkpt lat="43.6791956" lon="10.6949967"><ele>12.333333333333332</ele><time>2026-03-25T11:58:33.91Z</time></trkpt><trkpt lat="43.6793121" lon="10.6952051"><ele>12.0</ele><time>2026-03-25T11:58:34.91Z</time></trkpt><trkpt lat="43.6794333" lon="10.6954233"><ele>12.666666666666668</ele><time>2026-03-25T11:58:35.911Z</time></trkpt><trkpt lat="43.6795609" lon="10.6956397"><ele>13.333333333333334</ele><time>2026-03-25T11:58:36.91Z</time></trkpt><trkpt lat="43.6796877" lon="10.6958624"><ele>14.0</ele><time>2026-03-25T11:58:37.91Z</time></trkpt><trkpt lat="43.6798183" lon="10.6960963"><ele>14.333333333333334</ele><time>2026-03-25T11:58:38.911Z</time></trkpt><trkpt lat="43.6799489" lon="10.6963275"><ele>14.666666666666668</ele><time>2026-03-25T11:58:39.911Z</time></trkpt><trkpt lat="43.6800753" lon="10.6965602"><ele>15.0</ele><time>2026-03-25T11:58:40.911Z</time></trkpt><trkpt lat="43.6802062" lon="10.6967852"><ele>15.0</ele><time>2026-03-25T11:58:41.911Z</time></trkpt><trkpt lat="43.6803391" lon="10.6970054"><ele>15.0</ele><time>2026-03-25T11:58:42.911Z</time></trkpt><trkpt lat="43.680472" lon="10.6972389"><ele>15.0</ele><time>2026-03-25T11:58:43.911Z</time></trkpt><trkpt lat="43.680609" lon="10.6974789"><ele>15.0</ele><time>2026-03-25T11:58:44.911Z</time></trkpt><trkpt lat="43.6807465" lon="10.697722"><ele>15.0</ele><time>2026-03-25T11:58:45.912Z</time></trkpt><trkpt lat="43.6808856" lon="10.697959"><ele>15.0</ele><time>2026-03-25T11:58:46.911Z</time></trkpt><trkpt lat="43.681029" lon="10.698211"><ele>15.0</ele><time>2026-03-25T11:58:47.911Z</time></trkpt><trkpt lat="43.6811777" lon="10.6984711"><ele>15.0</ele><time>2026-03-25T11:58:48.911Z</time></trkpt><trkpt lat="43.681322" lon="10.6987153"><ele>15.0</ele><time>2026-03-25T11:58:49.911Z</time></trkpt><trkpt lat="43.6814551" lon="10.6989481"><ele>15.0</ele><time>2026-03-25T11:58:50.911Z</time></trkpt><trkpt lat="43.6815849" lon="10.6991709"><ele>15.0</ele><time>2026-03-25T11:58:51.911Z</time></trkpt><trkpt lat="43.6817103" lon="10.6993835"><ele>15.333333333333332</ele><time>2026-03-25T11:58:52.91Z</time></trkpt><trkpt lat="43.6818374" lon="10.6995982"><ele>15.666666666666666</ele><time>2026-03-25T11:58:53.912Z</time></trkpt><trkpt lat="43.6819696" lon="10.6998221"><ele>16.0</ele><time>2026-03-25T11:58:54.912Z</time></trkpt><trkpt lat="43.6820936" lon="10.7000385"><ele>15.666666666666666</ele><time>2026-03-25T11:58:55.911Z</time></trkpt><trkpt lat="43.6822184" lon="10.7002544"><ele>15.333333333333332</ele><time>2026-03-25T11:58:56.911Z</time></trkpt><trkpt lat="43.6823486" lon="10.7004779"><ele>15.0</ele><time>2026-03-25T11:58:57.911Z</time></trkpt><trkpt lat="43.6824756" lon="10.7006994"><ele>15.0</ele><time>2026-03-25T11:58:58.912Z</time></trkpt><trkpt lat="43.6826009" lon="10.700913"><ele>15.0</ele><time>2026-03-25T11:58:59.911Z</time></trkpt><trkpt lat="43.6827163" lon="10.7011131"><ele>15.0</ele><time>2026-03-25T11:59:00.911Z</time></trkpt><trkpt lat="43.6828318" lon="10.7013058"><ele>15.0</ele><time>2026-03-25T11:59:01.91Z</time></trkpt><trkpt lat="43.6829477" lon="10.7015058"><ele>15.0</ele><time>2026-03-25T11:59:02.911Z</time></trkpt><trkpt lat="43.6830678" lon="10.701719"><ele>15.0</ele><time>2026-03-25T11:59:03.912Z</time></trkpt><trkpt lat="43.6831905" lon="10.7019355"><ele>15.0</ele><time>2026-03-25T11:59:04.91Z</time></trkpt><trkpt lat="43.6833104" lon="10.7021479"><ele>15.0</ele><time>2026-03-25T11:59:05.911Z</time></trkpt><trkpt lat="43.6834237" lon="10.7023497"><ele>15.0</ele><time>2026-03-25T11:59:06.911Z</time></trkpt><trkpt lat="43.6835365" lon="10.7025523"><ele>15.0</ele><time>2026-03-25T11:59:07.911Z</time></trkpt><trkpt lat="43.683651" lon="10.7027482"><ele>15.0</ele><time>2026-03-25T11:59:08.91Z</time></trkpt><trkpt lat="43.6837646" lon="10.7029259"><ele>15.0</ele><time>2026-03-25T11:59:09.911Z</time></trkpt><trkpt lat="43.6838796" lon="10.7030822"><ele>15.0</ele><time>2026-03-25T11:59:10.912Z</time></trkpt><trkpt lat="43.6840001" lon="10.7032127"><ele>15.0</ele><time>2026-03-25T11:59:11.91Z</time></trkpt><trkpt lat="43.6841281" lon="10.7033097"><ele>15.0</ele><time>2026-03-25T11:59:12.911Z</time></trkpt><trkpt lat="43.6842621" lon="10.7033741"><ele>15.0</ele><time>2026-03-25T11:59:13.911Z</time></trkpt><trkpt lat="43.6844116" lon="10.7034216"><ele>14.666666666666668</ele><time>2026-03-25T11:59:14.911Z</time></trkpt><trkpt lat="43.6845785" lon="10.7034642"><ele>14.333333333333334</ele><time>2026-03-25T11:59:15.911Z</time></trkpt><trkpt lat="43.6847581" lon="10.7035012"><ele>14.0</ele><time>2026-03-25T11:59:16.91Z</time></trkpt><trkpt lat="43.6849466" lon="10.7035367"><ele>14.0</ele><time>2026-03-25T11:59:17.91Z</time></trkpt><trkpt lat="43.6851445" lon="10.7035756"><ele>14.0</ele><time>2026-03-25T11:59:18.91Z</time></trkpt><trkpt lat="43.685337" lon="10.7036147"><ele>14.0</ele><time>2026-03-25T11:59:19.912Z</time></trkpt><trkpt lat="43.6855186" lon="10.7036519"><ele>14.333333333333334</ele><time>2026-03-25T11:59:20.911Z</time></trkpt><trkpt lat="43.6856973" lon="10.7036793"><ele>14.666666666666668</ele><time>2026-03-25T11:59:21.912Z</time></trkpt><trkpt lat="43.6858841" lon="10.7036908"><ele>15.0</ele><time>2026-03-25T11:59:22.91Z</time></trkpt><trkpt lat="43.6860784" lon="10.70369"><ele>14.666666666666668</ele><time>2026-03-25T11:59:23.912Z</time></trkpt><trkpt lat="43.6862776" lon="10.7036744"><ele>14.333333333333334</ele><time>2026-03-25T11:59:24.91Z</time></trkpt><trkpt lat="43.6864816" lon="10.7036465"><ele>14.0</ele><time>2026-03-25T11:59:25.911Z</time></trkpt><trkpt lat="43.6866921" lon="10.7036178"><ele>14.0</ele><time>2026-03-25T11:59:26.91Z</time></trkpt><trkpt lat="43.6869096" lon="10.7035918"><ele>14.0</ele><time>2026-03-25T11:59:27.911Z</time></trkpt><trkpt lat="43.6871274" lon="10.7035682"><ele>14.0</ele><time>2026-03-25T11:59:28.911Z</time></trkpt><trkpt lat="43.687338" lon="10.7035394"><ele>13.666666666666668</ele><time>2026-03-25T11:59:29.912Z</time></trkpt><trkpt lat="43.68754" lon="10.7035057"><ele>13.333333333333332</ele><time>2026-03-25T11:59:30.911Z</time></trkpt><trkpt lat="43.68774" lon="10.7034742"><ele>13.0</ele><time>2026-03-25T11:59:31.912Z</time></trkpt><trkpt lat="43.6879409" lon="10.7034468"><ele>13.0</ele><time>2026-03-25T11:59:32.91Z</time></trkpt><trkpt lat="43.6881408" lon="10.703419"><ele>13.0</ele><time>2026-03-25T11:59:33.91Z</time></trkpt><trkpt lat="43.6883287" lon="10.703394"><ele>13.0</ele><time>2026-03-25T11:59:34.91Z</time></trkpt><trkpt lat="43.6885081" lon="10.7033703"><ele>13.0</ele><time>2026-03-25T11:59:35.911Z</time></trkpt><trkpt lat="43.6886896" lon="10.7033445"><ele>13.0</ele><time>2026-03-25T11:59:36.912Z</time></trkpt><trkpt lat="43.6888678" lon="10.7033213"><ele>13.0</ele><time>2026-03-25T11:59:37.911Z</time></trkpt><trkpt lat="43.6890514" lon="10.7032969"><ele>13.0</ele><time>2026-03-25T11:59:38.911Z</time></trkpt><trkpt lat="43.6892259" lon="10.7032953"><ele>13.0</ele><time>2026-03-25T11:59:39.911Z</time></trkpt><trkpt lat="43.6893984" lon="10.7033073"><ele>13.0</ele><time>2026-03-25T11:59:40.911Z</time></trkpt><trkpt lat="43.689571" lon="10.7033422"><ele>13.0</ele><time>2026-03-25T11:59:41.911Z</time></trkpt><trkpt lat="43.6897334" lon="10.7034034"><ele>13.0</ele><time>2026-03-25T11:59:42.91Z</time></trkpt><trkpt lat="43.6898842" lon="10.7034926"><ele>13.0</ele><time>2026-03-25T11:59:43.91Z</time></trkpt><trkpt lat="43.6900343" lon="10.7036097"><ele>12.666666666666666</ele><time>2026-03-25T11:59:44.912Z</time></trkpt><trkpt lat="43.6901913" lon="10.7037453"><ele>12.333333333333332</ele><time>2026-03-25T11:59:45.91Z</time></trkpt><trkpt lat="43.6903575" lon="10.7038886"><ele>12.0</ele><time>2026-03-25T11:59:46.91Z</time></trkpt><trkpt lat="43.690525" lon="10.7040363"><ele>12.0</ele><time>2026-03-25T11:59:47.911Z</time></trkpt><trkpt lat="43.6906842" lon="10.7041784"><ele>12.0</ele><time>2026-03-25T11:59:48.912Z</time></trkpt><trkpt lat="43.6908315" lon="10.7043138"><ele>12.0</ele><time>2026-03-25T11:59:49.911Z</time></trkpt><trkpt lat="43.690977" lon="10.7044403"><ele>12.333333333333332</ele><time>2026-03-25T11:59:50.912Z</time></trkpt><trkpt lat="43.6911186" lon="10.7045623"><ele>12.666666666666666</ele><time>2026-03-25T11:59:51.911Z</time></trkpt><trkpt lat="43.6912557" lon="10.7046797"><ele>13.0</ele><time>2026-03-25T11:59:52.911Z</time></trkpt><trkpt lat="43.6913872" lon="10.7047966"><ele>13.0</ele><time>2026-03-25T11:59:53.91Z</time></trkpt><trkpt lat="43.6915163" lon="10.7049081"><ele>13.0</ele><time>2026-03-25T11:59:54.91Z</time></trkpt><trkpt lat="43.6916468" lon="10.7050167"><ele>13.0</ele><time>2026-03-25T11:59:55.91Z</time></trkpt><trkpt lat="43.6917788" lon="10.7051257"><ele>13.0</ele><time>2026-03-25T11:59:56.911Z</time></trkpt><trkpt lat="43.6919074" lon="10.705235"><ele>13.0</ele><time>2026-03-25T11:59:57.912Z</time></trkpt><trkpt lat="43.6920304" lon="10.7053401"><ele>13.0</ele><time>2026-03-25T11:59:58.91Z</time></trkpt><trkpt lat="43.6921466" lon="10.7054292"><ele>13.0</ele><time>2026-03-25T11:59:59.91Z</time></trkpt><trkpt lat="43.6922562" lon="10.7055104"><ele>12.8</ele><time>2026-03-25T12:00:00.911Z</time></trkpt><trkpt lat="43.6923528" lon="10.7056018"><ele>12.600000000000001</ele><time>2026-03-25T12:00:01.91Z</time></trkpt><trkpt lat="43.6924301" lon="10.7057091"><ele>12.399999999999999</ele><time>2026-03-25T12:00:02.911Z</time></trkpt><trkpt lat="43.6924947" lon="10.7058267"><ele>12.2</ele><time>2026-03-25T12:00:03.91Z</time></trkpt><trkpt lat="43.6925505" lon="10.7059423"><ele>12.0</ele><time>2026-03-25T12:00:04.911Z</time></trkpt><trkpt lat="43.6925996" lon="10.7060497"><ele>12.166666666666666</ele><time>2026-03-25T12:00:05.911Z</time></trkpt><trkpt lat="43.69263" lon="10.7061356"><ele>12.333333333333332</ele><time>2026-03-25T12:00:06.911Z</time></trkpt><trkpt lat="43.692647" lon="10.706229"><ele>12.5</ele><time>2026-03-25T12:00:08.911Z</time></trkpt><trkpt lat="43.6926581" lon="10.706331"><ele>12.666666666666666</ele><time>2026-03-25T12:00:12.91Z</time></trkpt><trkpt lat="43.6926228" lon="10.7064264"><ele>12.833333333333332</ele><time>2026-03-25T12:00:15.91Z</time></trkpt><trkpt lat="43.6925219" lon="10.7065508"><ele>13.0</ele><time>2026-03-25T12:00:17.909Z</time></trkpt><trkpt lat="43.6924382" lon="10.706617"><ele>13.0</ele><time>2026-03-25T12:00:18.909Z</time></trkpt><trkpt lat="43.6923428" lon="10.7066724"><ele>13.0</ele><time>2026-03-25T12:00:19.91Z</time></trkpt><trkpt lat="43.6922361" lon="10.7067306"><ele>13.0</ele><time>2026-03-25T12:00:20.909Z</time></trkpt><trkpt lat="43.6921112" lon="10.7068061"><ele>13.0</ele><time>2026-03-25T12:00:21.91Z</time></trkpt><trkpt lat="43.6919853" lon="10.7068997"><ele>13.333333333333332</ele><time>2026-03-25T12:00:22.91Z</time></trkpt><trkpt lat="43.6918617" lon="10.7070031"><ele>13.666666666666668</ele><time>2026-03-25T12:00:23.911Z</time></trkpt><trkpt lat="43.6917338" lon="10.7071198"><ele>14.0</ele><time>2026-03-25T12:00:24.91Z</time></trkpt><trkpt lat="43.6916074" lon="10.7072605"><ele>14.0</ele><time>2026-03-25T12:00:25.909Z</time></trkpt><trkpt lat="43.6914829" lon="10.7074215"><ele>14.0</ele><time>2026-03-25T12:00:26.91Z</time></trkpt><trkpt lat="43.6913635" lon="10.7076058"><ele>14.0</ele><time>2026-03-25T12:00:27.91Z</time></trkpt><trkpt lat="43.6912468" lon="10.7078106"><ele>14.0</ele><time>2026-03-25T12:00:28.91Z</time></trkpt><trkpt lat="43.6911308" lon="10.7080255"><ele>14.0</ele><time>2026-03-25T12:00:29.91Z</time></trkpt><trkpt lat="43.6910151" lon="10.7082371"><ele>14.0</ele><time>2026-03-25T12:00:30.909Z</time></trkpt><trkpt lat="43.6908962" lon="10.708451"><ele>14.0</ele><time>2026-03-25T12:00:31.91Z</time></trkpt><trkpt lat="43.6907728" lon="10.7086779"><ele>14.0</ele><time>2026-03-25T12:00:32.909Z</time></trkpt><trkpt lat="43.6906429" lon="10.7089221"><ele>14.0</ele><time>2026-03-25T12:00:33.911Z</time></trkpt><trkpt lat="43.6905063" lon="10.7091817"><ele>14.5</ele><time>2026-03-25T12:00:34.909Z</time></trkpt><trkpt lat="43.6903641" lon="10.7094453"><ele>15.0</ele><time>2026-03-25T12:00:35.91Z</time></trkpt><trkpt lat="43.6902221" lon="10.7097077"><ele>15.0</ele><time>2026-03-25T12:00:36.91Z</time></trkpt><trkpt lat="43.6900773" lon="10.7099724"><ele>15.0</ele><time>2026-03-25T12:00:37.909Z</time></trkpt><trkpt lat="43.6899273" lon="10.7102394"><ele>14.5</ele><time>2026-03-25T12:00:38.911Z</time></trkpt><trkpt lat="43.689771" lon="10.7105032"><ele>14.0</ele><time>2026-03-25T12:00:39.91Z</time></trkpt><trkpt lat="43.6896048" lon="10.7107661"><ele>14.0</ele><time>2026-03-25T12:00:40.909Z</time></trkpt><trkpt lat="43.6894324" lon="10.711025"><ele>14.0</ele><time>2026-03-25T12:00:41.911Z</time></trkpt><trkpt lat="43.6892632" lon="10.7112684"><ele>14.333333333333334</ele><time>2026-03-25T12:00:42.909Z</time></trkpt><trkpt lat="43.6891041" lon="10.711495"><ele>14.666666666666668</ele><time>2026-03-25T12:00:43.909Z</time></trkpt><trkpt lat="43.6889564" lon="10.7117018"><ele>15.0</ele><time>2026-03-25T12:00:44.91Z</time></trkpt><trkpt lat="43.6888146" lon="10.7119012"><ele>15.0</ele><time>2026-03-25T12:00:45.91Z</time></trkpt><trkpt lat="43.6886699" lon="10.7120975"><ele>15.0</ele><time>2026-03-25T12:00:46.91Z</time></trkpt><trkpt lat="43.6885193" lon="10.7122988"><ele>15.0</ele><time>2026-03-25T12:00:47.909Z</time></trkpt><trkpt lat="43.6883624" lon="10.7125056"><ele>15.0</ele><time>2026-03-25T12:00:48.909Z</time></trkpt><trkpt lat="43.6881989" lon="10.7127225"><ele>15.0</ele><time>2026-03-25T12:00:49.91Z</time></trkpt><trkpt lat="43.6880282" lon="10.7129505"><ele>15.0</ele><time>2026-03-25T12:00:50.91Z</time></trkpt><trkpt lat="43.6878535" lon="10.7131867"><ele>15.0</ele><time>2026-03-25T12:00:51.911Z</time></trkpt><trkpt lat="43.6876757" lon="10.7134278"><ele>13.5</ele><time>2026-03-25T12:00:52.909Z</time></trkpt><trkpt lat="43.6875" lon="10.713671"><ele>12.0</ele><time>2026-03-25T12:00:53.91Z</time></trkpt><trkpt lat="43.6873263" lon="10.7139098"><ele>12.0</ele><time>2026-03-25T12:00:54.91Z</time></trkpt><trkpt lat="43.6871539" lon="10.7141459"><ele>12.0</ele><time>2026-03-25T12:00:55.91Z</time></trkpt><trkpt lat="43.6869819" lon="10.7143827"><ele>15.5</ele><time>2026-03-25T12:00:56.909Z</time></trkpt><trkpt lat="43.6868079" lon="10.7146184"><ele>19.0</ele><time>2026-03-25T12:00:57.91Z</time></trkpt><trkpt lat="43.6866321" lon="10.7148535"><ele>19.0</ele><time>2026-03-25T12:00:58.909Z</time></trkpt><trkpt lat="43.6864582" lon="10.7150911"><ele>19.0</ele><time>2026-03-25T12:00:59.91Z</time></trkpt><trkpt lat="43.6862821" lon="10.7153347"><ele>18.5</ele><time>2026-03-25T12:01:00.91Z</time></trkpt><trkpt lat="43.6861039" lon="10.7155802"><ele>18.0</ele><time>2026-03-25T12:01:01.909Z</time></trkpt><trkpt lat="43.6859256" lon="10.7158249"><ele>18.0</ele><time>2026-03-25T12:01:02.91Z</time></trkpt><trkpt lat="43.6857419" lon="10.7160743"><ele>18.0</ele><time>2026-03-25T12:01:03.91Z</time></trkpt><trkpt lat="43.6855568" lon="10.7163276"><ele>18.0</ele><time>2026-03-25T12:01:04.91Z</time></trkpt><trkpt lat="43.6853682" lon="10.7165882"><ele>18.0</ele><time>2026-03-25T12:01:05.911Z</time></trkpt><trkpt lat="43.6851814" lon="10.716848"><ele>17.0</ele><time>2026-03-25T12:01:06.911Z</time></trkpt><trkpt lat="43.6849927" lon="10.7171064"><ele>16.0</ele><time>2026-03-25T12:01:07.909Z</time></trkpt><trkpt lat="43.6848059" lon="10.7173632"><ele>16.0</ele><time>2026-03-25T12:01:08.909Z</time></trkpt><trkpt lat="43.6846207" lon="10.7176158"><ele>16.0</ele><time>2026-03-25T12:01:09.91Z</time></trkpt><trkpt lat="43.6844406" lon="10.7178629"><ele>16.5</ele><time>2026-03-25T12:01:10.909Z</time></trkpt><trkpt lat="43.6842686" lon="10.7181003"><ele>17.0</ele><time>2026-03-25T12:01:11.91Z</time></trkpt><trkpt lat="43.6840996" lon="10.7183346"><ele>17.0</ele><time>2026-03-25T12:01:12.91Z</time></trkpt><trkpt lat="43.6839267" lon="10.7185652"><ele>17.0</ele><time>2026-03-25T12:01:13.91Z</time></trkpt><trkpt lat="43.6837514" lon="10.7187997"><ele>16.5</ele><time>2026-03-25T12:01:14.91Z</time></trkpt><trkpt lat="43.6835775" lon="10.7190348"><ele>16.0</ele><time>2026-03-25T12:01:15.911Z</time></trkpt><trkpt lat="43.6834009" lon="10.719279"><ele>16.0</ele><time>2026-03-25T12:01:16.91Z</time></trkpt><trkpt lat="43.6832214" lon="10.719536"><ele>16.0</ele><time>2026-03-25T12:01:17.909Z</time></trkpt><trkpt lat="43.6830387" lon="10.7198002"><ele>16.0</ele><time>2026-03-25T12:01:18.91Z</time></trkpt><trkpt lat="43.6828502" lon="10.7200635"><ele>16.0</ele><time>2026-03-25T12:01:19.91Z</time></trkpt><trkpt lat="43.6826605" lon="10.7203236"><ele>17.0</ele><time>2026-03-25T12:01:20.91Z</time></trkpt><trkpt lat="43.6824652" lon="10.7205814"><ele>18.0</ele><time>2026-03-25T12:01:21.91Z</time></trkpt><trkpt lat="43.6822693" lon="10.7208348"><ele>18.0</ele><time>2026-03-25T12:01:22.91Z</time></trkpt><trkpt lat="43.6820743" lon="10.7210804"><ele>18.0</ele><time>2026-03-25T12:01:23.91Z</time></trkpt><trkpt lat="43.6818883" lon="10.7213139"><ele>18.0</ele><time>2026-03-25T12:01:24.909Z</time></trkpt><trkpt lat="43.681706" lon="10.7215313"><ele>18.0</ele><time>2026-03-25T12:01:25.909Z</time></trkpt><trkpt lat="43.6815256" lon="10.7217309"><ele>17.666666666666668</ele><time>2026-03-25T12:01:26.91Z</time></trkpt><trkpt lat="43.6813457" lon="10.7219145"><ele>17.333333333333336</ele><time>2026-03-25T12:01:27.91Z</time></trkpt><trkpt lat="43.6811707" lon="10.7220782"><ele>17.0</ele><time>2026-03-25T12:01:28.911Z</time></trkpt><trkpt lat="43.6810036" lon="10.7222224"><ele>17.0</ele><time>2026-03-25T12:01:29.91Z</time></trkpt><trkpt lat="43.6808444" lon="10.7223577"><ele>17.0</ele><time>2026-03-25T12:01:30.909Z</time></trkpt><trkpt lat="43.680685" lon="10.7224793"><ele>17.0</ele><time>2026-03-25T12:01:31.91Z</time></trkpt><trkpt lat="43.680524" lon="10.7225916"><ele>17.0</ele><time>2026-03-25T12:01:32.909Z</time></trkpt><trkpt lat="43.6803602" lon="10.7226997"><ele>17.0</ele><time>2026-03-25T12:01:33.909Z</time></trkpt><trkpt lat="43.6802036" lon="10.7228006"><ele>17.0</ele><time>2026-03-25T12:01:34.91Z</time></trkpt><trkpt lat="43.6800491" lon="10.7228906"><ele>17.333333333333336</ele><time>2026-03-25T12:01:35.91Z</time></trkpt><trkpt lat="43.6798944" lon="10.722975"><ele>17.666666666666668</ele><time>2026-03-25T12:01:36.91Z</time></trkpt><trkpt lat="43.6797418" lon="10.723053"><ele>18.0</ele><time>2026-03-25T12:01:37.909Z</time></trkpt><trkpt lat="43.6795971" lon="10.7231213"><ele>18.0</ele><time>2026-03-25T12:01:38.91Z</time></trkpt><trkpt lat="43.6794663" lon="10.7231804"><ele>18.0</ele><time>2026-03-25T12:01:39.911Z</time></trkpt><trkpt lat="43.6793389" lon="10.7232348"><ele>18.0</ele><time>2026-03-25T12:01:40.911Z</time></trkpt><trkpt lat="43.679214" lon="10.7232894"><ele>18.0</ele><time>2026-03-25T12:01:41.909Z</time></trkpt><trkpt lat="43.6790934" lon="10.7233466"><ele>18.25</ele><time>2026-03-25T12:01:42.909Z</time></trkpt><trkpt lat="43.6789764" lon="10.7233939"><ele>18.5</ele><time>2026-03-25T12:01:43.91Z</time></trkpt><trkpt lat="43.6788597" lon="10.7234356"><ele>18.75</ele><time>2026-03-25T12:01:44.91Z</time></trkpt><trkpt lat="43.6787476" lon="10.7234785"><ele>19.0</ele><time>2026-03-25T12:01:45.91Z</time></trkpt><trkpt lat="43.6786417" lon="10.7235219"><ele>18.75</ele><time>2026-03-25T12:01:46.909Z</time></trkpt><trkpt lat="43.6785383" lon="10.7235754"><ele>18.5</ele><time>2026-03-25T12:01:47.91Z</time></trkpt><trkpt lat="43.6784373" lon="10.7236287"><ele>18.25</ele><time>2026-03-25T12:01:48.91Z</time></trkpt><trkpt lat="43.6783293" lon="10.7236815"><ele>18.0</ele><time>2026-03-25T12:01:49.91Z</time></trkpt><trkpt lat="43.6782139" lon="10.7237344"><ele>18.0</ele><time>2026-03-25T12:01:50.909Z</time></trkpt><trkpt lat="43.6780894" lon="10.7237761"><ele>18.0</ele><time>2026-03-25T12:01:51.911Z</time></trkpt><trkpt lat="43.6779554" lon="10.7237913"><ele>18.0</ele><time>2026-03-25T12:01:52.911Z</time></trkpt><trkpt lat="43.6778146" lon="10.7237817"><ele>18.0</ele><time>2026-03-25T12:01:53.909Z</time></trkpt><trkpt lat="43.6776604" lon="10.7237593"><ele>18.0</ele><time>2026-03-25T12:01:54.91Z</time></trkpt><trkpt lat="43.6775121" lon="10.7237362"><ele>18.0</ele><time>2026-03-25T12:01:55.91Z</time></trkpt><trkpt lat="43.6773668" lon="10.7237145"><ele>18.0</ele><time>2026-03-25T12:01:56.909Z</time></trkpt><trkpt lat="43.6772182" lon="10.7236987"><ele>18.0</ele><time>2026-03-25T12:01:57.909Z</time></trkpt><trkpt lat="43.6770668" lon="10.7236854"><ele>18.0</ele><time>2026-03-25T12:01:58.91Z</time></trkpt><trkpt lat="43.6769145" lon="10.7236714"><ele>18.0</ele><time>2026-03-25T12:01:59.91Z</time></trkpt><trkpt lat="43.6767731" lon="10.7236604"><ele>18.0</ele><time>2026-03-25T12:02:00.91Z</time></trkpt><trkpt lat="43.6766357" lon="10.7236524"><ele>18.0</ele><time>2026-03-25T12:02:01.91Z</time></trkpt><trkpt lat="43.6764886" lon="10.7236422"><ele>18.0</ele><time>2026-03-25T12:02:02.91Z</time></trkpt><trkpt lat="43.6763335" lon="10.7236363"><ele>18.0</ele><time>2026-03-25T12:02:03.909Z</time></trkpt><trkpt lat="43.6761834" lon="10.723623"><ele>18.0</ele><time>2026-03-25T12:02:04.911Z</time></trkpt><trkpt lat="43.6760385" lon="10.7236081"><ele>18.25</ele><time>2026-03-25T12:02:05.91Z</time></trkpt><trkpt lat="43.6759102" lon="10.7235927"><ele>18.5</ele><time>2026-03-25T12:02:06.91Z</time></trkpt><trkpt lat="43.6757929" lon="10.7235821"><ele>18.75</ele><time>2026-03-25T12:02:07.91Z</time></trkpt><trkpt lat="43.6756851" lon="10.7235749"><ele>19.0</ele><time>2026-03-25T12:02:08.911Z</time></trkpt><trkpt lat="43.6755566" lon="10.723566"><ele>19.0</ele><time>2026-03-25T12:02:09.91Z</time></trkpt><trkpt lat="43.6754009" lon="10.7235632"><ele>19.0</ele><time>2026-03-25T12:02:10.91Z</time></trkpt><trkpt lat="43.6752323" lon="10.7235515"><ele>19.0</ele><time>2026-03-25T12:02:11.91Z</time></trkpt><trkpt lat="43.6750671" lon="10.7235296"><ele>19.0</ele><time>2026-03-25T12:02:12.91Z</time></trkpt><trkpt lat="43.6749086" lon="10.7235126"><ele>19.0</ele><time>2026-03-25T12:02:13.91Z</time></trkpt><trkpt lat="43.6747345" lon="10.723503"><ele>19.0</ele><time>2026-03-25T12:02:14.911Z</time></trkpt><trkpt lat="43.6745595" lon="10.7234847"><ele>19.5</ele><time>2026-03-25T12:02:15.909Z</time></trkpt><trkpt lat="43.6743985" lon="10.7234678"><ele>20.0</ele><time>2026-03-25T12:02:16.91Z</time></trkpt><trkpt lat="43.6742583" lon="10.7234523"><ele>20.5</ele><time>2026-03-25T12:02:17.909Z</time></trkpt><trkpt lat="43.6741319" lon="10.7234421"><ele>21.0</ele><time>2026-03-25T12:02:18.91Z</time></trkpt><trkpt lat="43.6740189" lon="10.7234396"><ele>21.0</ele><time>2026-03-25T12:02:19.91Z</time></trkpt><trkpt lat="43.6739121" lon="10.7234286"><ele>21.0</ele><time>2026-03-25T12:02:20.91Z</time></trkpt><trkpt lat="43.6738137" lon="10.7234096"><ele>21.0</ele><time>2026-03-25T12:02:21.91Z</time></trkpt><trkpt lat="43.6737212" lon="10.7233827"><ele>21.0</ele><time>2026-03-25T12:02:22.91Z</time></trkpt><trkpt lat="43.6736298" lon="10.7233469"><ele>21.0</ele><time>2026-03-25T12:02:23.909Z</time></trkpt><trkpt lat="43.673544" lon="10.7232978"><ele>20.6</ele><time>2026-03-25T12:02:24.91Z</time></trkpt><trkpt lat="43.673454" lon="10.7232389"><ele>20.200000000000003</ele><time>2026-03-25T12:02:25.91Z</time></trkpt><trkpt lat="43.6733641" lon="10.7231763"><ele>19.799999999999997</ele><time>2026-03-25T12:02:26.91Z</time></trkpt><trkpt lat="43.6732661" lon="10.7231097"><ele>19.4</ele><time>2026-03-25T12:02:27.91Z</time></trkpt><trkpt lat="43.6731657" lon="10.723036"><ele>19.0</ele><time>2026-03-25T12:02:28.909Z</time></trkpt><trkpt lat="43.6730585" lon="10.72296"><ele>19.0</ele><time>2026-03-25T12:02:29.91Z</time></trkpt><trkpt lat="43.6729536" lon="10.7228763"><ele>19.0</ele><time>2026-03-25T12:02:30.909Z</time></trkpt><trkpt lat="43.672852" lon="10.7227944"><ele>19.0</ele><time>2026-03-25T12:02:31.91Z</time></trkpt><trkpt lat="43.6727521" lon="10.7227163"><ele>19.0</ele><time>2026-03-25T12:02:32.91Z</time></trkpt><trkpt lat="43.6726553" lon="10.7226568"><ele>19.2</ele><time>2026-03-25T12:02:33.909Z</time></trkpt><trkpt lat="43.6725565" lon="10.7226202"><ele>19.4</ele><time>2026-03-25T12:02:34.91Z</time></trkpt><trkpt lat="43.6724555" lon="10.7226069"><ele>19.6</ele><time>2026-03-25T12:02:35.91Z</time></trkpt><trkpt lat="43.6723573" lon="10.722622"><ele>19.8</ele><time>2026-03-25T12:02:36.91Z</time></trkpt><trkpt lat="43.672266" lon="10.7226661"><ele>20.0</ele><time>2026-03-25T12:02:37.91Z</time></trkpt><trkpt lat="43.6721846" lon="10.7227369"><ele>20.0</ele><time>2026-03-25T12:02:38.911Z</time></trkpt><trkpt lat="43.6721116" lon="10.7228328"><ele>20.0</ele><time>2026-03-25T12:02:39.91Z</time></trkpt><trkpt lat="43.6720558" lon="10.7229473"><ele>20.0</ele><time>2026-03-25T12:02:40.909Z</time></trkpt><trkpt lat="43.6720127" lon="10.7230713"><ele>20.0</ele><time>2026-03-25T12:02:41.91Z</time></trkpt><trkpt lat="43.671983" lon="10.7232036"><ele>20.0</ele><time>2026-03-25T12:02:42.91Z</time></trkpt><trkpt lat="43.6719785" lon="10.7233242"><ele>20.0</ele><time>2026-03-25T12:02:43.91Z</time></trkpt><trkpt lat="43.6719965" lon="10.7234443"><ele>20.0</ele><time>2026-03-25T12:02:44.909Z</time></trkpt><trkpt lat="43.6720325" lon="10.7235855"><ele>20.0</ele><time>2026-03-25T12:02:45.91Z</time></trkpt><trkpt lat="43.6720786" lon="10.723745"><ele>20.0</ele><time>2026-03-25T12:02:46.91Z</time></trkpt><trkpt lat="43.6721273" lon="10.7239009"><ele>20.0</ele><time>2026-03-25T12:02:47.91Z</time></trkpt><trkpt lat="43.6721693" lon="10.7240619"><ele>20.0</ele><time>2026-03-25T12:02:48.909Z</time></trkpt><trkpt lat="43.6722108" lon="10.7242162"><ele>20.0</ele><time>2026-03-25T12:02:49.909Z</time></trkpt><trkpt lat="43.6722501" lon="10.7243575"><ele>20.0</ele><time>2026-03-25T12:02:50.91Z</time></trkpt><trkpt lat="43.6722918" lon="10.7244962"><ele>20.0</ele><time>2026-03-25T12:02:51.91Z</time></trkpt><trkpt lat="43.672336" lon="10.7246342"><ele>20.0</ele><time>2026-03-25T12:02:52.909Z</time></trkpt><trkpt lat="43.6723794" lon="10.7247785"><ele>20.4</ele><time>2026-03-25T12:02:53.909Z</time></trkpt><trkpt lat="43.6724232" lon="10.724917"><ele>20.8</ele><time>2026-03-25T12:02:54.91Z</time></trkpt><trkpt lat="43.6724636" lon="10.7250479"><ele>21.200000000000003</ele><time>2026-03-25T12:02:55.909Z</time></trkpt><trkpt lat="43.6725028" lon="10.7251815"><ele>21.6</ele><time>2026-03-25T12:02:56.911Z</time></trkpt><trkpt lat="43.6725406" lon="10.7253141"><ele>22.0</ele><time>2026-03-25T12:02:57.91Z</time></trkpt><trkpt lat="43.6725771" lon="10.7254469"><ele>22.0</ele><time>2026-03-25T12:02:58.91Z</time></trkpt><trkpt lat="43.6726153" lon="10.7255806"><ele>22.0</ele><time>2026-03-25T12:02:59.909Z</time></trkpt><trkpt lat="43.6726523" lon="10.7257114"><ele>22.0</ele><time>2026-03-25T12:03:00.91Z</time></trkpt><trkpt lat="43.6726902" lon="10.7258532"><ele>22.0</ele><time>2026-03-25T12:03:01.91Z</time></trkpt><trkpt lat="43.6727318" lon="10.7260011"><ele>22.0</ele><time>2026-03-25T12:03:02.909Z</time></trkpt><trkpt lat="43.6727706" lon="10.7261523"><ele>23.25</ele><time>2026-03-25T12:03:03.909Z</time></trkpt><trkpt lat="43.6727984" lon="10.7262994"><ele>24.5</ele><time>2026-03-25T12:03:04.91Z</time></trkpt><trkpt lat="43.6728216" lon="10.7264452"><ele>25.75</ele><time>2026-03-25T12:03:05.91Z</time></trkpt><trkpt lat="43.6728504" lon="10.7266095"><ele>27.0</ele><time>2026-03-25T12:03:06.91Z</time></trkpt><trkpt lat="43.6728851" lon="10.7268011"><ele>27.5</ele><time>2026-03-25T12:03:07.909Z</time></trkpt><trkpt lat="43.6729199" lon="10.7270072"><ele>28.0</ele><time>2026-03-25T12:03:08.909Z</time></trkpt><trkpt lat="43.6729402" lon="10.7272109"><ele>28.5</ele><time>2026-03-25T12:03:09.909Z</time></trkpt><trkpt lat="43.6729344" lon="10.7274077"><ele>29.0</ele><time>2026-03-25T12:03:10.91Z</time></trkpt><trkpt lat="43.6729047" lon="10.7275913"><ele>29.5</ele><time>2026-03-25T12:03:11.91Z</time></trkpt><trkpt lat="43.6728455" lon="10.7277567"><ele>30.0</ele><time>2026-03-25T12:03:12.91Z</time></trkpt><trkpt lat="43.6727666" lon="10.7279018"><ele>30.5</ele><time>2026-03-25T12:03:13.91Z</time></trkpt><trkpt lat="43.6726773" lon="10.728035"><ele>31.0</ele><time>2026-03-25T12:03:14.909Z</time></trkpt><trkpt lat="43.6725795" lon="10.7281494"><ele>29.75</ele><time>2026-03-25T12:03:15.909Z</time></trkpt><trkpt lat="43.6724713" lon="10.7282375"><ele>28.5</ele><time>2026-03-25T12:03:16.909Z</time></trkpt><trkpt lat="43.6723544" lon="10.7283162"><ele>27.25</ele><time>2026-03-25T12:03:17.91Z</time></trkpt><trkpt lat="43.6722384" lon="10.7283118"><ele>26.0</ele><time>2026-03-25T12:03:18.909Z</time></trkpt><trkpt lat="43.6721389" lon="10.7282738"><ele>26.0</ele><time>2026-03-25T12:03:19.909Z</time></trkpt><trkpt lat="43.6720618" lon="10.7282018"><ele>26.0</ele><time>2026-03-25T12:03:20.91Z</time></trkpt><trkpt lat="43.6719916" lon="10.7281022"><ele>26.0</ele><time>2026-03-25T12:03:21.911Z</time></trkpt><trkpt lat="43.6719208" lon="10.7279802"><ele>26.0</ele><time>2026-03-25T12:03:22.91Z</time></trkpt><trkpt lat="43.6718669" lon="10.7278357"><ele>26.0</ele><time>2026-03-25T12:03:23.91Z</time></trkpt><trkpt lat="43.6718677" lon="10.7276621"><ele>26.0</ele><time>2026-03-25T12:03:24.909Z</time></trkpt><trkpt lat="43.6718708" lon="10.7274942"><ele>26.0</ele><time>2026-03-25T12:03:25.91Z</time></trkpt><trkpt lat="43.6718884" lon="10.7273049"><ele>26.0</ele><time>2026-03-25T12:03:26.909Z</time></trkpt><trkpt lat="43.6718988" lon="10.7270894"><ele>26.0</ele><time>2026-03-25T12:03:27.91Z</time></trkpt><trkpt lat="43.6719089" lon="10.7268543"><ele>24.333333333333332</ele><time>2026-03-25T12:03:28.909Z</time></trkpt><trkpt lat="43.6719097" lon="10.7266066"><ele>22.666666666666664</ele><time>2026-03-25T12:03:29.91Z</time></trkpt><trkpt lat="43.6719126" lon="10.7263614"><ele>21.0</ele><time>2026-03-25T12:03:30.909Z</time></trkpt><trkpt lat="43.6719156" lon="10.7261229"><ele>21.0</ele><time>2026-03-25T12:03:31.909Z</time></trkpt><trkpt lat="43.6719078" lon="10.7258716"><ele>21.0</ele><time>2026-03-25T12:03:32.91Z</time></trkpt><trkpt lat="43.6718974" lon="10.7256014"><ele>21.0</ele><time>2026-03-25T12:03:33.91Z</time></trkpt><trkpt lat="43.6718837" lon="10.7253247"><ele>21.666666666666668</ele><time>2026-03-25T12:03:34.911Z</time></trkpt><trkpt lat="43.6718649" lon="10.7250359"><ele>22.333333333333336</ele><time>2026-03-25T12:03:35.909Z</time></trkpt><trkpt lat="43.6718438" lon="10.7247472"><ele>23.0</ele><time>2026-03-25T12:03:36.91Z</time></trkpt><trkpt lat="43.6718126" lon="10.7244622"><ele>22.666666666666668</ele><time>2026-03-25T12:03:37.909Z</time></trkpt><trkpt lat="43.6717703" lon="10.724166"><ele>22.333333333333332</ele><time>2026-03-25T12:03:38.91Z</time></trkpt><trkpt lat="43.6717181" lon="10.7238629"><ele>22.0</ele><time>2026-03-25T12:03:39.909Z</time></trkpt><trkpt lat="43.6716556" lon="10.7235466"><ele>21.5</ele><time>2026-03-25T12:03:40.91Z</time></trkpt><trkpt lat="43.6715839" lon="10.7232188"><ele>21.0</ele><time>2026-03-25T12:03:41.91Z</time></trkpt><trkpt lat="43.6715062" lon="10.722882"><ele>21.0</ele><time>2026-03-25T12:03:42.911Z</time></trkpt><trkpt lat="43.6714208" lon="10.7225381"><ele>21.0</ele><time>2026-03-25T12:03:43.91Z</time></trkpt><trkpt lat="43.6713298" lon="10.7221931"><ele>21.0</ele><time>2026-03-25T12:03:44.91Z</time></trkpt><trkpt lat="43.6712431" lon="10.7218293"><ele>21.0</ele><time>2026-03-25T12:03:45.91Z</time></trkpt><trkpt lat="43.6711573" lon="10.7214698"><ele>21.5</ele><time>2026-03-25T12:03:46.91Z</time></trkpt><trkpt lat="43.671075" lon="10.7211258"><ele>22.0</ele><time>2026-03-25T12:03:47.91Z</time></trkpt><trkpt lat="43.6709954" lon="10.7207862"><ele>22.0</ele><time>2026-03-25T12:03:48.91Z</time></trkpt><trkpt lat="43.6709104" lon="10.7204469"><ele>22.0</ele><time>2026-03-25T12:03:49.909Z</time></trkpt><trkpt lat="43.6708238" lon="10.7201047"><ele>22.0</ele><time>2026-03-25T12:03:50.909Z</time></trkpt><trkpt lat="43.6707354" lon="10.7197551"><ele>22.0</ele><time>2026-03-25T12:03:51.911Z</time></trkpt><trkpt lat="43.6706478" lon="10.7194083"><ele>21.0</ele><time>2026-03-25T12:03:52.91Z</time></trkpt><trkpt lat="43.6705644" lon="10.7190594"><ele>20.0</ele><time>2026-03-25T12:03:53.909Z</time></trkpt><trkpt lat="43.6704784" lon="10.7187078"><ele>19.5</ele><time>2026-03-25T12:03:54.91Z</time></trkpt><trkpt lat="43.6703914" lon="10.7183496"><ele>19.0</ele><time>2026-03-25T12:03:55.91Z</time></trkpt><trkpt lat="43.6703034" lon="10.7179863"><ele>19.5</ele><time>2026-03-25T12:03:56.91Z</time></trkpt><trkpt lat="43.6702171" lon="10.717625"><ele>20.0</ele><time>2026-03-25T12:03:57.909Z</time></trkpt><trkpt lat="43.6701306" lon="10.71726"><ele>20.0</ele><time>2026-03-25T12:03:58.91Z</time></trkpt><trkpt lat="43.6700416" lon="10.7168993"><ele>20.0</ele><time>2026-03-25T12:03:59.91Z</time></trkpt><trkpt lat="43.6699529" lon="10.716535"><ele>20.0</ele><time>2026-03-25T12:04:00.909Z</time></trkpt><trkpt lat="43.66986" lon="10.7161707"><ele>20.0</ele><time>2026-03-25T12:04:01.909Z</time></trkpt><trkpt lat="43.6697607" lon="10.7158107"><ele>20.0</ele><time>2026-03-25T12:04:02.909Z</time></trkpt><trkpt lat="43.6696585" lon="10.7154606"><ele>20.0</ele><time>2026-03-25T12:04:03.91Z</time></trkpt><trkpt lat="43.6695506" lon="10.7151138"><ele>20.0</ele><time>2026-03-25T12:04:04.911Z</time></trkpt><trkpt lat="43.6694323" lon="10.7147751"><ele>20.0</ele><time>2026-03-25T12:04:05.91Z</time></trkpt><trkpt lat="43.6693093" lon="10.714449"><ele>19.5</ele><time>2026-03-25T12:04:06.909Z</time></trkpt><trkpt lat="43.6691732" lon="10.7141248"><ele>19.0</ele><time>2026-03-25T12:04:07.91Z</time></trkpt><trkpt lat="43.6690277" lon="10.7138043"><ele>19.0</ele><time>2026-03-25T12:04:08.911Z</time></trkpt><trkpt lat="43.6688742" lon="10.7134959"><ele>19.0</ele><time>2026-03-25T12:04:09.91Z</time></trkpt><trkpt lat="43.6687069" lon="10.7131953"><ele>19.5</ele><time>2026-03-25T12:04:10.91Z</time></trkpt><trkpt lat="43.6685322" lon="10.7129123"><ele>20.0</ele><time>2026-03-25T12:04:11.91Z</time></trkpt><trkpt lat="43.6683486" lon="10.7126408"><ele>20.5</ele><time>2026-03-25T12:04:12.909Z</time></trkpt><trkpt lat="43.6681549" lon="10.7123824"><ele>21.0</ele><time>2026-03-25T12:04:13.909Z</time></trkpt><trkpt lat="43.6679529" lon="10.7121322"><ele>20.0</ele><time>2026-03-25T12:04:14.91Z</time></trkpt><trkpt lat="43.6677453" lon="10.7118939"><ele>19.0</ele><time>2026-03-25T12:04:15.909Z</time></trkpt><trkpt lat="43.6675274" lon="10.7116649"><ele>19.0</ele><time>2026-03-25T12:04:16.909Z</time></trkpt><trkpt lat="43.6673037" lon="10.7114466"><ele>19.0</ele><time>2026-03-25T12:04:17.909Z</time></trkpt><trkpt lat="43.6670724" lon="10.7112298"><ele>20.0</ele><time>2026-03-25T12:04:18.91Z</time></trkpt><trkpt lat="43.6668369" lon="10.7110253"><ele>21.0</ele><time>2026-03-25T12:04:19.91Z</time></trkpt><trkpt lat="43.666595" lon="10.71082"><ele>21.0</ele><time>2026-03-25T12:04:20.91Z</time></trkpt><trkpt lat="43.6663516" lon="10.7106154"><ele>21.0</ele><time>2026-03-25T12:04:21.909Z</time></trkpt><trkpt lat="43.6661058" lon="10.7104117"><ele>21.0</ele><time>2026-03-25T12:04:22.909Z</time></trkpt><trkpt lat="43.6658638" lon="10.7102073"><ele>21.0</ele><time>2026-03-25T12:04:23.91Z</time></trkpt><trkpt lat="43.6656257" lon="10.7100054"><ele>21.0</ele><time>2026-03-25T12:04:24.909Z</time></trkpt><trkpt lat="43.6653986" lon="10.709799"><ele>21.0</ele><time>2026-03-25T12:04:25.91Z</time></trkpt><trkpt lat="43.6651815" lon="10.7095767"><ele>22.5</ele><time>2026-03-25T12:04:26.91Z</time></trkpt><trkpt lat="43.6649709" lon="10.7093397"><ele>24.0</ele><time>2026-03-25T12:04:27.91Z</time></trkpt><trkpt lat="43.6647746" lon="10.7090874"><ele>24.0</ele><time>2026-03-25T12:04:28.91Z</time></trkpt><trkpt lat="43.6645907" lon="10.7088295"><ele>24.0</ele><time>2026-03-25T12:04:29.909Z</time></trkpt><trkpt lat="43.6644145" lon="10.708561"><ele>24.5</ele><time>2026-03-25T12:04:30.911Z</time></trkpt><trkpt lat="43.6642495" lon="10.7082802"><ele>25.0</ele><time>2026-03-25T12:04:31.911Z</time></trkpt><trkpt lat="43.6640919" lon="10.7079929"><ele>25.5</ele><time>2026-03-25T12:04:32.91Z</time></trkpt><trkpt lat="43.6639409" lon="10.7077003"><ele>26.0</ele><time>2026-03-25T12:04:33.91Z</time></trkpt><trkpt lat="43.6638011" lon="10.7073926"><ele>26.0</ele><time>2026-03-25T12:04:34.91Z</time></trkpt><trkpt lat="43.6636666" lon="10.7070723"><ele>26.0</ele><time>2026-03-25T12:04:35.909Z</time></trkpt><trkpt lat="43.6635333" lon="10.7067417"><ele>26.0</ele><time>2026-03-25T12:04:36.91Z</time></trkpt><trkpt lat="43.6633983" lon="10.7064037"><ele>26.0</ele><time>2026-03-25T12:04:37.91Z</time></trkpt><trkpt lat="43.6632675" lon="10.7060618"><ele>26.0</ele><time>2026-03-25T12:04:38.91Z</time></trkpt><trkpt lat="43.6631373" lon="10.7057202"><ele>26.0</ele><time>2026-03-25T12:04:39.91Z</time></trkpt><trkpt lat="43.663011" lon="10.7053828"><ele>28.0</ele><time>2026-03-25T12:04:40.91Z</time></trkpt><trkpt lat="43.6628818" lon="10.7050487"><ele>30.0</ele><time>2026-03-25T12:04:41.91Z</time></trkpt><trkpt lat="43.6627458" lon="10.7047189"><ele>29.5</ele><time>2026-03-25T12:04:42.91Z</time></trkpt><trkpt lat="43.6626051" lon="10.7043941"><ele>29.0</ele><time>2026-03-25T12:04:43.91Z</time></trkpt><trkpt lat="43.6624591" lon="10.7040682"><ele>29.0</ele><time>2026-03-25T12:04:44.91Z</time></trkpt><trkpt lat="43.6623153" lon="10.7037487"><ele>29.0</ele><time>2026-03-25T12:04:45.91Z</time></trkpt><trkpt lat="43.6621723" lon="10.7034372"><ele>30.0</ele><time>2026-03-25T12:04:46.91Z</time></trkpt><trkpt lat="43.6620295" lon="10.7031328"><ele>31.0</ele><time>2026-03-25T12:04:47.91Z</time></trkpt><trkpt lat="43.6618888" lon="10.7028285"><ele>34.5</ele><time>2026-03-25T12:04:48.91Z</time></trkpt><trkpt lat="43.6617484" lon="10.7025276"><ele>38.0</ele><time>2026-03-25T12:04:49.91Z</time></trkpt><trkpt lat="43.6616096" lon="10.7022236"><ele>38.0</ele><time>2026-03-25T12:04:50.909Z</time></trkpt><trkpt lat="43.6614747" lon="10.7019216"><ele>38.0</ele><time>2026-03-25T12:04:51.909Z</time></trkpt><trkpt lat="43.6613438" lon="10.7016243"><ele>40.5</ele><time>2026-03-25T12:04:52.911Z</time></trkpt><trkpt lat="43.6612152" lon="10.7013291"><ele>43.0</ele><time>2026-03-25T12:04:53.91Z</time></trkpt><trkpt lat="43.6610848" lon="10.7010326"><ele>43.0</ele><time>2026-03-25T12:04:54.91Z</time></trkpt><trkpt lat="43.6609676" lon="10.7007243"><ele>43.0</ele><time>2026-03-25T12:04:55.91Z</time></trkpt><trkpt lat="43.6608706" lon="10.7004015"><ele>41.0</ele><time>2026-03-25T12:04:56.91Z</time></trkpt><trkpt lat="43.6607795" lon="10.7000821"><ele>39.0</ele><time>2026-03-25T12:04:57.91Z</time></trkpt><trkpt lat="43.6606959" lon="10.6997659"><ele>39.0</ele><time>2026-03-25T12:04:58.91Z</time></trkpt><trkpt lat="43.6606127" lon="10.6994383"><ele>39.0</ele><time>2026-03-25T12:04:59.91Z</time></trkpt><trkpt lat="43.6605336" lon="10.6991035"><ele>41.0</ele><time>2026-03-25T12:05:00.91Z</time></trkpt><trkpt lat="43.6604565" lon="10.6987695"><ele>43.0</ele><time>2026-03-25T12:05:01.909Z</time></trkpt><trkpt lat="43.6603783" lon="10.6984386"><ele>47.5</ele><time>2026-03-25T12:05:02.909Z</time></trkpt><trkpt lat="43.6603024" lon="10.6981104"><ele>52.0</ele><time>2026-03-25T12:05:03.91Z</time></trkpt><trkpt lat="43.6602307" lon="10.6977863"><ele>52.0</ele><time>2026-03-25T12:05:04.91Z</time></trkpt><trkpt lat="43.6601631" lon="10.697456"><ele>52.0</ele><time>2026-03-25T12:05:05.91Z</time></trkpt><trkpt lat="43.6600882" lon="10.6971226"><ele>49.5</ele><time>2026-03-25T12:05:06.91Z</time></trkpt><trkpt lat="43.660001" lon="10.6968099"><ele>47.0</ele><time>2026-03-25T12:05:07.91Z</time></trkpt><trkpt lat="43.6599259" lon="10.6964762"><ele>47.0</ele><time>2026-03-25T12:05:08.909Z</time></trkpt><trkpt lat="43.6598452" lon="10.6961495"><ele>47.0</ele><time>2026-03-25T12:05:09.909Z</time></trkpt><trkpt lat="43.659772" lon="10.6958267"><ele>46.0</ele><time>2026-03-25T12:05:10.909Z</time></trkpt><trkpt lat="43.6596933" lon="10.6955039"><ele>45.0</ele><time>2026-03-25T12:05:11.91Z</time></trkpt><trkpt lat="43.6596111" lon="10.6951706"><ele>45.0</ele><time>2026-03-25T12:05:12.91Z</time></trkpt><trkpt lat="43.6595274" lon="10.6948344"><ele>45.0</ele><time>2026-03-25T12:05:13.911Z</time></trkpt><trkpt lat="43.6594465" lon="10.6945017"><ele>42.5</ele><time>2026-03-25T12:05:14.909Z</time></trkpt><trkpt lat="43.6593722" lon="10.6941811"><ele>40.0</ele><time>2026-03-25T12:05:15.909Z</time></trkpt><trkpt lat="43.6593017" lon="10.6938654"><ele>38.66666666666667</ele><time>2026-03-25T12:05:16.909Z</time></trkpt><trkpt lat="43.6592359" lon="10.6935638"><ele>37.333333333333336</ele><time>2026-03-25T12:05:17.91Z</time></trkpt><trkpt lat="43.6591743" lon="10.6932735"><ele>36.0</ele><time>2026-03-25T12:05:18.909Z</time></trkpt><trkpt lat="43.6591168" lon="10.6930058"><ele>35.333333333333336</ele><time>2026-03-25T12:05:19.909Z</time></trkpt><trkpt lat="43.6590553" lon="10.6927454"><ele>34.66666666666667</ele><time>2026-03-25T12:05:20.911Z</time></trkpt><trkpt lat="43.6589962" lon="10.6924957"><ele>34.0</ele><time>2026-03-25T12:05:21.909Z</time></trkpt><trkpt lat="43.6589367" lon="10.6922428"><ele>34.0</ele><time>2026-03-25T12:05:22.91Z</time></trkpt><trkpt lat="43.6588782" lon="10.6919851"><ele>34.0</ele><time>2026-03-25T12:05:23.909Z</time></trkpt><trkpt lat="43.6588181" lon="10.6917228"><ele>34.0</ele><time>2026-03-25T12:05:24.91Z</time></trkpt><trkpt lat="43.658755" lon="10.6914521"><ele>31.0</ele><time>2026-03-25T12:05:25.909Z</time></trkpt><trkpt lat="43.6586921" lon="10.6911744"><ele>28.0</ele><time>2026-03-25T12:05:26.91Z</time></trkpt><trkpt lat="43.6586251" lon="10.6908807"><ele>25.0</ele><time>2026-03-25T12:05:27.91Z</time></trkpt><trkpt lat="43.6585532" lon="10.6905801"><ele>23.0</ele><time>2026-03-25T12:05:28.909Z</time></trkpt><trkpt lat="43.6584765" lon="10.6902655"><ele>21.0</ele><time>2026-03-25T12:05:29.911Z</time></trkpt><trkpt lat="43.6583926" lon="10.6899339"><ele>20.0</ele><time>2026-03-25T12:05:30.91Z</time></trkpt><trkpt lat="43.6583084" lon="10.6895982"><ele>19.0</ele><time>2026-03-25T12:05:31.91Z</time></trkpt><trkpt lat="43.6582235" lon="10.6892512"><ele>19.0</ele><time>2026-03-25T12:05:32.911Z</time></trkpt><trkpt lat="43.6581417" lon="10.6889022"><ele>19.0</ele><time>2026-03-25T12:05:33.909Z</time></trkpt><trkpt lat="43.6580597" lon="10.6885596"><ele>18.0</ele><time>2026-03-25T12:05:34.91Z</time></trkpt><trkpt lat="43.6579771" lon="10.6882147"><ele>17.0</ele><time>2026-03-25T12:05:35.911Z</time></trkpt><trkpt lat="43.6578959" lon="10.6878691"><ele>17.5</ele><time>2026-03-25T12:05:36.91Z</time></trkpt><trkpt lat="43.6578152" lon="10.6875272"><ele>18.0</ele><time>2026-03-25T12:05:37.911Z</time></trkpt><trkpt lat="43.65774" lon="10.6871864"><ele>24.0</ele><time>2026-03-25T12:05:38.91Z</time></trkpt><trkpt lat="43.6576614" lon="10.6868478"><ele>30.0</ele><time>2026-03-25T12:05:39.91Z</time></trkpt><trkpt lat="43.6575796" lon="10.6865223"><ele>30.0</ele><time>2026-03-25T12:05:40.91Z</time></trkpt><trkpt lat="43.6574867" lon="10.6862071"><ele>30.0</ele><time>2026-03-25T12:05:41.909Z</time></trkpt><trkpt lat="43.6573784" lon="10.6859138"><ele>28.5</ele><time>2026-03-25T12:05:42.909Z</time></trkpt><trkpt lat="43.6572504" lon="10.6856413"><ele>27.0</ele><time>2026-03-25T12:05:43.91Z</time></trkpt><trkpt lat="43.6571053" lon="10.6853828"><ele>32.5</ele><time>2026-03-25T12:05:44.909Z</time></trkpt><trkpt lat="43.6569455" lon="10.6851266"><ele>38.0</ele><time>2026-03-25T12:05:45.909Z</time></trkpt><trkpt lat="43.6567759" lon="10.6848699"><ele>38.0</ele><time>2026-03-25T12:05:46.91Z</time></trkpt><trkpt lat="43.6565989" lon="10.6846089"><ele>38.0</ele><time>2026-03-25T12:05:47.91Z</time></trkpt><trkpt lat="43.6564202" lon="10.6843433"><ele>37.0</ele><time>2026-03-25T12:05:48.91Z</time></trkpt><trkpt lat="43.6562406" lon="10.6840786"><ele>36.0</ele><time>2026-03-25T12:05:49.91Z</time></trkpt><trkpt lat="43.6560616" lon="10.6838098"><ele>38.0</ele><time>2026-03-25T12:05:50.909Z</time></trkpt><trkpt lat="43.6558838" lon="10.6835322"><ele>40.0</ele><time>2026-03-25T12:05:51.909Z</time></trkpt><trkpt lat="43.6557064" lon="10.6832545"><ele>40.0</ele><time>2026-03-25T12:05:52.91Z</time></trkpt><trkpt lat="43.6555288" lon="10.6829801"><ele>40.0</ele><time>2026-03-25T12:05:53.911Z</time></trkpt><trkpt lat="43.6553572" lon="10.6827055"><ele>40.5</ele><time>2026-03-25T12:05:54.91Z</time></trkpt><trkpt lat="43.655191" lon="10.6824249"><ele>41.0</ele><time>2026-03-25T12:05:55.91Z</time></trkpt><trkpt lat="43.6550328" lon="10.6821391"><ele>41.5</ele><time>2026-03-25T12:05:56.91Z</time></trkpt><trkpt lat="43.6548825" lon="10.6818522"><ele>42.0</ele><time>2026-03-25T12:05:57.909Z</time></trkpt><trkpt lat="43.6547433" lon="10.6815598"><ele>42.0</ele><time>2026-03-25T12:05:58.91Z</time></trkpt><trkpt lat="43.6546176" lon="10.681264"><ele>42.0</ele><time>2026-03-25T12:05:59.91Z</time></trkpt><trkpt lat="43.6545032" lon="10.680965"><ele>34.0</ele><time>2026-03-25T12:06:00.91Z</time></trkpt><trkpt lat="43.6544014" lon="10.680659"><ele>26.0</ele><time>2026-03-25T12:06:01.909Z</time></trkpt><trkpt lat="43.6543076" lon="10.6803527"><ele>25.0</ele><time>2026-03-25T12:06:02.91Z</time></trkpt><trkpt lat="43.6542184" lon="10.6800405"><ele>24.0</ele><time>2026-03-25T12:06:03.909Z</time></trkpt><trkpt lat="43.6541371" lon="10.6797178"><ele>23.0</ele><time>2026-03-25T12:06:04.91Z</time></trkpt><trkpt lat="43.6540644" lon="10.6793904"><ele>22.0</ele><time>2026-03-25T12:06:05.91Z</time></trkpt><trkpt lat="43.6539983" lon="10.6790583"><ele>22.0</ele><time>2026-03-25T12:06:06.91Z</time></trkpt><trkpt lat="43.6539424" lon="10.6787209"><ele>22.0</ele><time>2026-03-25T12:06:07.91Z</time></trkpt><trkpt lat="43.6538991" lon="10.6783786"><ele>22.0</ele><time>2026-03-25T12:06:08.91Z</time></trkpt><trkpt lat="43.653867" lon="10.6780342"><ele>22.0</ele><time>2026-03-25T12:06:09.91Z</time></trkpt><trkpt lat="43.6538423" lon="10.6776867"><ele>21.0</ele><time>2026-03-25T12:06:10.91Z</time></trkpt><trkpt lat="43.653828" lon="10.6773284"><ele>20.0</ele><time>2026-03-25T12:06:11.91Z</time></trkpt><trkpt lat="43.6538247" lon="10.6769608"><ele>20.0</ele><time>2026-03-25T12:06:12.91Z</time></trkpt><trkpt lat="43.6538367" lon="10.676589"><ele>20.0</ele><time>2026-03-25T12:06:13.91Z</time></trkpt><trkpt lat="43.653863" lon="10.6762176"><ele>20.0</ele><time>2026-03-25T12:06:14.91Z</time></trkpt><trkpt lat="43.6538946" lon="10.6758511"><ele>20.0</ele><time>2026-03-25T12:06:15.91Z</time></trkpt><trkpt lat="43.6539328" lon="10.6754838"><ele>20.0</ele><time>2026-03-25T12:06:16.909Z</time></trkpt><trkpt lat="43.653983" lon="10.6751218"><ele>20.0</ele><time>2026-03-25T12:06:17.91Z</time></trkpt><trkpt lat="43.6540411" lon="10.6747625"><ele>19.5</ele><time>2026-03-25T12:06:18.91Z</time></trkpt><trkpt lat="43.6541065" lon="10.6744036"><ele>19.0</ele><time>2026-03-25T12:06:19.91Z</time></trkpt><trkpt lat="43.6541782" lon="10.6740425"><ele>19.0</ele><time>2026-03-25T12:06:20.909Z</time></trkpt><trkpt lat="43.6542559" lon="10.673678"><ele>19.0</ele><time>2026-03-25T12:06:21.909Z</time></trkpt><trkpt lat="43.6543387" lon="10.6733113"><ele>18.0</ele><time>2026-03-25T12:06:22.91Z</time></trkpt><trkpt lat="43.6544219" lon="10.6729489"><ele>17.0</ele><time>2026-03-25T12:06:23.91Z</time></trkpt><trkpt lat="43.6545076" lon="10.6725903"><ele>17.0</ele><time>2026-03-25T12:06:24.91Z</time></trkpt><trkpt lat="43.6546028" lon="10.6722395"><ele>17.0</ele><time>2026-03-25T12:06:25.909Z</time></trkpt><trkpt lat="43.6547034" lon="10.6718887"><ele>18.0</ele><time>2026-03-25T12:06:26.911Z</time></trkpt><trkpt lat="43.6548003" lon="10.6715417"><ele>19.0</ele><time>2026-03-25T12:06:27.91Z</time></trkpt><trkpt lat="43.6548877" lon="10.6711896"><ele>19.5</ele><time>2026-03-25T12:06:28.91Z</time></trkpt><trkpt lat="43.6549678" lon="10.6708274"><ele>20.0</ele><time>2026-03-25T12:06:29.909Z</time></trkpt><trkpt lat="43.6550428" lon="10.6704582"><ele>19.0</ele><time>2026-03-25T12:06:30.909Z</time></trkpt><trkpt lat="43.6551125" lon="10.670085"><ele>18.0</ele><time>2026-03-25T12:06:31.909Z</time></trkpt><trkpt lat="43.6551747" lon="10.66971"><ele>17.0</ele><time>2026-03-25T12:06:32.909Z</time></trkpt><trkpt lat="43.6552268" lon="10.669335"><ele>16.0</ele><time>2026-03-25T12:06:33.91Z</time></trkpt><trkpt lat="43.6552694" lon="10.6689597"><ele>16.0</ele><time>2026-03-25T12:06:34.91Z</time></trkpt><trkpt lat="43.6553046" lon="10.6685839"><ele>16.0</ele><time>2026-03-25T12:06:35.91Z</time></trkpt><trkpt lat="43.6553344" lon="10.668213"><ele>16.0</ele><time>2026-03-25T12:06:36.909Z</time></trkpt><trkpt lat="43.6553551" lon="10.6678387"><ele>16.0</ele><time>2026-03-25T12:06:37.911Z</time></trkpt><trkpt lat="43.6553702" lon="10.6674609"><ele>16.5</ele><time>2026-03-25T12:06:38.91Z</time></trkpt><trkpt lat="43.6553766" lon="10.6670806"><ele>17.0</ele><time>2026-03-25T12:06:39.91Z</time></trkpt><trkpt lat="43.6553763" lon="10.6666986"><ele>16.0</ele><time>2026-03-25T12:06:40.909Z</time></trkpt><trkpt lat="43.6553618" lon="10.6663251"><ele>15.0</ele><time>2026-03-25T12:06:41.91Z</time></trkpt><trkpt lat="43.6553373" lon="10.6659535"><ele>14.5</ele><time>2026-03-25T12:06:42.91Z</time></trkpt><trkpt lat="43.6553014" lon="10.6655809"><ele>14.0</ele><time>2026-03-25T12:06:43.91Z</time></trkpt><trkpt lat="43.6552562" lon="10.6652071"><ele>13.5</ele><time>2026-03-25T12:06:44.91Z</time></trkpt><trkpt lat="43.6552048" lon="10.6648331"><ele>13.0</ele><time>2026-03-25T12:06:45.909Z</time></trkpt><trkpt lat="43.6551487" lon="10.6644647"><ele>13.0</ele><time>2026-03-25T12:06:46.909Z</time></trkpt><trkpt lat="43.6550823" lon="10.6640993"><ele>13.0</ele><time>2026-03-25T12:06:47.91Z</time></trkpt><trkpt lat="43.6550056" lon="10.6637386"><ele>13.5</ele><time>2026-03-25T12:06:48.91Z</time></trkpt><trkpt lat="43.6549184" lon="10.6633798"><ele>14.0</ele><time>2026-03-25T12:06:49.91Z</time></trkpt><trkpt lat="43.6548202" lon="10.6630243"><ele>14.5</ele><time>2026-03-25T12:06:50.91Z</time></trkpt><trkpt lat="43.6547161" lon="10.6626774"><ele>15.0</ele><time>2026-03-25T12:06:51.909Z</time></trkpt><trkpt lat="43.6546049" lon="10.6623416"><ele>15.0</ele><time>2026-03-25T12:06:52.911Z</time></trkpt><trkpt lat="43.6544853" lon="10.6620122"><ele>15.0</ele><time>2026-03-25T12:06:53.91Z</time></trkpt><trkpt lat="43.6543565" lon="10.6616873"><ele>16.0</ele><time>2026-03-25T12:06:54.91Z</time></trkpt><trkpt lat="43.654222" lon="10.6613623"><ele>17.0</ele><time>2026-03-25T12:06:55.91Z</time></trkpt><trkpt lat="43.6540865" lon="10.6610402"><ele>17.0</ele><time>2026-03-25T12:06:56.91Z</time></trkpt><trkpt lat="43.6539438" lon="10.6607277"><ele>17.0</ele><time>2026-03-25T12:06:57.909Z</time></trkpt><trkpt lat="43.6538015" lon="10.6604335"><ele>17.0</ele><time>2026-03-25T12:06:58.91Z</time></trkpt><trkpt lat="43.6536672" lon="10.6601663"><ele>17.0</ele><time>2026-03-25T12:06:59.91Z</time></trkpt><trkpt lat="43.6535423" lon="10.6599204"><ele>17.0</ele><time>2026-03-25T12:07:00.909Z</time></trkpt><trkpt lat="43.6534237" lon="10.6596828"><ele>17.0</ele><time>2026-03-25T12:07:01.91Z</time></trkpt><trkpt lat="43.6533056" lon="10.6594434"><ele>17.0</ele><time>2026-03-25T12:07:02.91Z</time></trkpt><trkpt lat="43.6531975" lon="10.659217"><ele>18.333333333333336</ele><time>2026-03-25T12:07:03.91Z</time></trkpt><trkpt lat="43.6531054" lon="10.6590142"><ele>19.666666666666668</ele><time>2026-03-25T12:07:04.909Z</time></trkpt><trkpt lat="43.6530302" lon="10.6588179"><ele>21.0</ele><time>2026-03-25T12:07:05.91Z</time></trkpt><trkpt lat="43.6529761" lon="10.6586159"><ele>21.75</ele><time>2026-03-25T12:07:06.909Z</time></trkpt><trkpt lat="43.6529425" lon="10.6584157"><ele>22.5</ele><time>2026-03-25T12:07:07.909Z</time></trkpt><trkpt lat="43.6529355" lon="10.6582245"><ele>23.25</ele><time>2026-03-25T12:07:08.91Z</time></trkpt><trkpt lat="43.6529541" lon="10.6580386"><ele>24.0</ele><time>2026-03-25T12:07:09.91Z</time></trkpt><trkpt lat="43.6529924" lon="10.6578564"><ele>23.5</ele><time>2026-03-25T12:07:10.91Z</time></trkpt><trkpt lat="43.6530487" lon="10.657679"><ele>23.0</ele><time>2026-03-25T12:07:11.909Z</time></trkpt><trkpt lat="43.6531209" lon="10.6575196"><ele>22.5</ele><time>2026-03-25T12:07:12.909Z</time></trkpt><trkpt lat="43.6532012" lon="10.6573845"><ele>22.0</ele><time>2026-03-25T12:07:13.91Z</time></trkpt><trkpt lat="43.6532889" lon="10.6572616"><ele>22.0</ele><time>2026-03-25T12:07:14.909Z</time></trkpt><trkpt lat="43.6533867" lon="10.6571317"><ele>22.0</ele><time>2026-03-25T12:07:15.909Z</time></trkpt><trkpt lat="43.6534927" lon="10.6569937"><ele>22.0</ele><time>2026-03-25T12:07:16.91Z</time></trkpt><trkpt lat="43.6536031" lon="10.656857"><ele>22.0</ele><time>2026-03-25T12:07:17.91Z</time></trkpt><trkpt lat="43.6537154" lon="10.6567192"><ele>20.25</ele><time>2026-03-25T12:07:18.91Z</time></trkpt><trkpt lat="43.6538286" lon="10.6565763"><ele>18.5</ele><time>2026-03-25T12:07:19.911Z</time></trkpt><trkpt lat="43.6539441" lon="10.6564438"><ele>16.75</ele><time>2026-03-25T12:07:20.91Z</time></trkpt><trkpt lat="43.6540499" lon="10.6563435"><ele>15.0</ele><time>2026-03-25T12:07:21.91Z</time></trkpt><trkpt lat="43.6541352" lon="10.6562765"><ele>15.0</ele><time>2026-03-25T12:07:22.91Z</time></trkpt><trkpt lat="43.6542097" lon="10.656243"><ele>15.0</ele><time>2026-03-25T12:07:23.91Z</time></trkpt><trkpt lat="43.654323" lon="10.6562422"><ele>15.0</ele><time>2026-03-25T12:07:25.91Z</time></trkpt><trkpt lat="43.6544309" lon="10.6562676"><ele>15.0</ele><time>2026-03-25T12:07:27.91Z</time></trkpt><trkpt lat="43.654494" lon="10.6562816"><ele>15.0</ele><time>2026-03-25T12:07:28.909Z</time></trkpt><trkpt lat="43.6545671" lon="10.6562949"><ele>15.0</ele><time>2026-03-25T12:07:29.909Z</time></trkpt><trkpt lat="43.6546523" lon="10.6563054"><ele>15.0</ele><time>2026-03-25T12:07:30.91Z</time></trkpt><trkpt lat="43.6547546" lon="10.6563199"><ele>15.0</ele><time>2026-03-25T12:07:31.91Z</time></trkpt><trkpt lat="43.6548646" lon="10.6563339"><ele>15.0</ele><time>2026-03-25T12:07:32.909Z</time></trkpt><trkpt lat="43.6549767" lon="10.6563518"><ele>15.0</ele><time>2026-03-25T12:07:33.91Z</time></trkpt><trkpt lat="43.6550837" lon="10.6563962"><ele>15.0</ele><time>2026-03-25T12:07:34.91Z</time></trkpt><trkpt lat="43.6551794" lon="10.6564832"><ele>15.0</ele><time>2026-03-25T12:07:35.91Z</time></trkpt><trkpt lat="43.6552723" lon="10.6566018"><ele>15.0</ele><time>2026-03-25T12:07:36.909Z</time></trkpt><trkpt lat="43.6553688" lon="10.6567397"><ele>15.0</ele><time>2026-03-25T12:07:37.909Z</time></trkpt><trkpt lat="43.6554658" lon="10.6568775"><ele>15.0</ele><time>2026-03-25T12:07:38.909Z</time></trkpt><trkpt lat="43.655561" lon="10.657002"><ele>15.0</ele><time>2026-03-25T12:07:39.91Z</time></trkpt><trkpt lat="43.6556545" lon="10.6571131"><ele>15.0</ele><time>2026-03-25T12:07:40.91Z</time></trkpt><trkpt lat="43.6557521" lon="10.6572137"><ele>15.0</ele><time>2026-03-25T12:07:41.91Z</time></trkpt><trkpt lat="43.6558584" lon="10.6573078"><ele>15.0</ele><time>2026-03-25T12:07:42.911Z</time></trkpt><trkpt lat="43.6559701" lon="10.6573972"><ele>15.0</ele><time>2026-03-25T12:07:43.911Z</time></trkpt><trkpt lat="43.656081" lon="10.6574759"><ele>15.0</ele><time>2026-03-25T12:07:44.91Z</time></trkpt><trkpt lat="43.6561908" lon="10.6575461"><ele>15.0</ele><time>2026-03-25T12:07:45.91Z</time></trkpt><trkpt lat="43.6563051" lon="10.657612"><ele>15.0</ele><time>2026-03-25T12:07:46.91Z</time></trkpt><trkpt lat="43.6564244" lon="10.6576673"><ele>15.0</ele><time>2026-03-25T12:07:47.91Z</time></trkpt><trkpt lat="43.6565433" lon="10.6577144"><ele>15.0</ele><time>2026-03-25T12:07:48.91Z</time></trkpt><trkpt lat="43.6566654" lon="10.6577538"><ele>15.0</ele><time>2026-03-25T12:07:49.911Z</time></trkpt><trkpt lat="43.6567924" lon="10.6577835"><ele>15.0</ele><time>2026-03-25T12:07:50.909Z</time></trkpt><trkpt lat="43.6569293" lon="10.6578046"><ele>15.333333333333332</ele><time>2026-03-25T12:07:51.91Z</time></trkpt><trkpt lat="43.657075" lon="10.6578181"><ele>15.666666666666666</ele><time>2026-03-25T12:07:52.91Z</time></trkpt><trkpt lat="43.6572257" lon="10.6578227"><ele>16.0</ele><time>2026-03-25T12:07:53.91Z</time></trkpt><trkpt lat="43.6573821" lon="10.6578193"><ele>16.0</ele><time>2026-03-25T12:07:54.911Z</time></trkpt><trkpt lat="43.6575389" lon="10.6578093"><ele>16.0</ele><time>2026-03-25T12:07:55.91Z</time></trkpt><trkpt lat="43.6576909" lon="10.6577966"><ele>16.0</ele><time>2026-03-25T12:07:56.91Z</time></trkpt><trkpt lat="43.6578359" lon="10.6577845"><ele>15.666666666666666</ele><time>2026-03-25T12:07:57.909Z</time></trkpt><trkpt lat="43.65798" lon="10.6577738"><ele>15.333333333333332</ele><time>2026-03-25T12:07:58.91Z</time></trkpt><trkpt lat="43.6581298" lon="10.6577647"><ele>15.0</ele><time>2026-03-25T12:07:59.911Z</time></trkpt><trkpt lat="43.6582853" lon="10.6577593"><ele>15.0</ele><time>2026-03-25T12:08:00.91Z</time></trkpt><trkpt lat="43.6584454" lon="10.6577538"><ele>15.0</ele><time>2026-03-25T12:08:01.909Z</time></trkpt><trkpt lat="43.6586013" lon="10.6577443"><ele>15.0</ele><time>2026-03-25T12:08:02.91Z</time></trkpt><trkpt lat="43.6587509" lon="10.6577354"><ele>15.0</ele><time>2026-03-25T12:08:03.91Z</time></trkpt><trkpt lat="43.6589078" lon="10.6577254"><ele>15.0</ele><time>2026-03-25T12:08:04.91Z</time></trkpt><trkpt lat="43.6590736" lon="10.657717"><ele>15.0</ele><time>2026-03-25T12:08:05.91Z</time></trkpt><trkpt lat="43.6592417" lon="10.6577102"><ele>15.0</ele><time>2026-03-25T12:08:06.911Z</time></trkpt><trkpt lat="43.6594077" lon="10.6577055"><ele>15.0</ele><time>2026-03-25T12:08:07.91Z</time></trkpt><trkpt lat="43.6595701" lon="10.6576992"><ele>15.0</ele><time>2026-03-25T12:08:08.911Z</time></trkpt><trkpt lat="43.6597329" lon="10.6576903"><ele>14.333333333333332</ele><time>2026-03-25T12:08:09.909Z</time></trkpt><trkpt lat="43.6599027" lon="10.6576784"><ele>13.666666666666666</ele><time>2026-03-25T12:08:10.909Z</time></trkpt><trkpt lat="43.660076" lon="10.6576677"><ele>13.0</ele><time>2026-03-25T12:08:11.911Z</time></trkpt><trkpt lat="43.6602452" lon="10.6576599"><ele>13.0</ele><time>2026-03-25T12:08:12.909Z</time></trkpt><trkpt lat="43.660416" lon="10.6576537"><ele>13.0</ele><time>2026-03-25T12:08:13.91Z</time></trkpt><trkpt lat="43.660607" lon="10.6576429"><ele>13.0</ele><time>2026-03-25T12:08:14.909Z</time></trkpt><trkpt lat="43.6608141" lon="10.6576297"><ele>13.0</ele><time>2026-03-25T12:08:15.91Z</time></trkpt><trkpt lat="43.6610271" lon="10.6576187"><ele>13.0</ele><time>2026-03-25T12:08:16.91Z</time></trkpt><trkpt lat="43.661243" lon="10.6576115"><ele>13.0</ele><time>2026-03-25T12:08:17.91Z</time></trkpt><trkpt lat="43.6614602" lon="10.6576035"><ele>13.0</ele><time>2026-03-25T12:08:18.91Z</time></trkpt><trkpt lat="43.6616765" lon="10.6575972"><ele>13.0</ele><time>2026-03-25T12:08:19.91Z</time></trkpt><trkpt lat="43.6618859" lon="10.6575901"><ele>13.0</ele><time>2026-03-25T12:08:20.91Z</time></trkpt><trkpt lat="43.6620845" lon="10.6575816"><ele>13.0</ele><time>2026-03-25T12:08:21.91Z</time></trkpt><trkpt lat="43.6622738" lon="10.6575669"><ele>13.0</ele><time>2026-03-25T12:08:22.91Z</time></trkpt><trkpt lat="43.6624599" lon="10.6575553"><ele>13.0</ele><time>2026-03-25T12:08:23.91Z</time></trkpt><trkpt lat="43.6626454" lon="10.6575455"><ele>13.333333333333332</ele><time>2026-03-25T12:08:24.91Z</time></trkpt><trkpt lat="43.6628259" lon="10.657541"><ele>13.666666666666668</ele><time>2026-03-25T12:08:25.91Z</time></trkpt><trkpt lat="43.663" lon="10.6575365"><ele>14.0</ele><time>2026-03-25T12:08:26.909Z</time></trkpt><trkpt lat="43.6631675" lon="10.6575357"><ele>14.0</ele><time>2026-03-25T12:08:27.91Z</time></trkpt><trkpt lat="43.6633365" lon="10.6575413"><ele>14.0</ele><time>2026-03-25T12:08:28.909Z</time></trkpt><trkpt lat="43.6635036" lon="10.6575577"><ele>14.0</ele><time>2026-03-25T12:08:29.909Z</time></trkpt><trkpt lat="43.6636582" lon="10.6575848"><ele>14.25</ele><time>2026-03-25T12:08:30.909Z</time></trkpt><trkpt lat="43.6637965" lon="10.6576166"><ele>14.5</ele><time>2026-03-25T12:08:31.909Z</time></trkpt><trkpt lat="43.6639275" lon="10.6576552"><ele>14.75</ele><time>2026-03-25T12:08:32.91Z</time></trkpt><trkpt lat="43.6640478" lon="10.6577065"><ele>15.0</ele><time>2026-03-25T12:08:33.909Z</time></trkpt><trkpt lat="43.6641515" lon="10.6577617"><ele>14.833333333333334</ele><time>2026-03-25T12:08:34.91Z</time></trkpt><trkpt lat="43.6642325" lon="10.6578159"><ele>14.666666666666668</ele><time>2026-03-25T12:08:35.911Z</time></trkpt><trkpt lat="43.6643001" lon="10.657867"><ele>14.5</ele><time>2026-03-25T12:08:36.91Z</time></trkpt><trkpt lat="43.664352" lon="10.6579174"><ele>14.333333333333334</ele><time>2026-03-25T12:08:37.91Z</time></trkpt><trkpt lat="43.6644209" lon="10.658012"><ele>14.166666666666668</ele><time>2026-03-25T12:08:39.91Z</time></trkpt><trkpt lat="43.6644617" lon="10.6581416"><ele>14.0</ele><time>2026-03-25T12:08:41.91Z</time></trkpt><trkpt lat="43.6644687" lon="10.6582423"><ele>14.000000000000002</ele><time>2026-03-25T12:08:42.909Z</time></trkpt><trkpt lat="43.6644781" lon="10.6583619"><ele>14.0</ele><time>2026-03-25T12:08:43.91Z</time></trkpt><trkpt lat="43.6645077" lon="10.6584647"><ele>14.0</ele><time>2026-03-25T12:08:44.909Z</time></trkpt><trkpt lat="43.6645549" lon="10.6585496"><ele>14.0</ele><time>2026-03-25T12:08:45.911Z</time></trkpt><trkpt lat="43.6646106" lon="10.6586169"><ele>14.000000000000002</ele><time>2026-03-25T12:08:46.911Z</time></trkpt><trkpt lat="43.6646777" lon="10.6586611"><ele>14.0</ele><time>2026-03-25T12:08:47.909Z</time></trkpt><trkpt lat="43.6647523" lon="10.6586776"><ele>14.000000000000002</ele><time>2026-03-25T12:08:48.91Z</time></trkpt><trkpt lat="43.6648283" lon="10.6586665"><ele>14.0</ele><time>2026-03-25T12:08:49.91Z</time></trkpt><trkpt lat="43.6648995" lon="10.6586253"><ele>14.0</ele><time>2026-03-25T12:08:50.91Z</time></trkpt><trkpt lat="43.6649607" lon="10.6585603"><ele>14.0</ele><time>2026-03-25T12:08:51.91Z</time></trkpt><trkpt lat="43.6650098" lon="10.6584729"><ele>14.000000000000002</ele><time>2026-03-25T12:08:52.91Z</time></trkpt><trkpt lat="43.6650487" lon="10.6583689"><ele>14.0</ele><time>2026-03-25T12:08:53.91Z</time></trkpt><trkpt lat="43.665076" lon="10.6582493"><ele>14.0</ele><time>2026-03-25T12:08:54.909Z</time></trkpt><trkpt lat="43.6650972" lon="10.6581068"><ele>14.0</ele><time>2026-03-25T12:08:55.911Z</time></trkpt><trkpt lat="43.6651391" lon="10.6579526"><ele>14.0</ele><time>2026-03-25T12:08:56.91Z</time></trkpt><trkpt lat="43.6651845" lon="10.6577869"><ele>14.0</ele><time>2026-03-25T12:08:57.91Z</time></trkpt><trkpt lat="43.6652218" lon="10.6576258"><ele>14.0</ele><time>2026-03-25T12:08:58.91Z</time></trkpt><trkpt lat="43.6652567" lon="10.6574523"><ele>14.0</ele><time>2026-03-25T12:08:59.909Z</time></trkpt><trkpt lat="43.6652905" lon="10.6572714"><ele>14.0</ele><time>2026-03-25T12:09:00.91Z</time></trkpt><trkpt lat="43.6653252" lon="10.6570836"><ele>14.0</ele><time>2026-03-25T12:09:01.909Z</time></trkpt><trkpt lat="43.6653581" lon="10.656893"><ele>14.0</ele><time>2026-03-25T12:09:02.909Z</time></trkpt><trkpt lat="43.6653904" lon="10.6566982"><ele>14.0</ele><time>2026-03-25T12:09:03.91Z</time></trkpt><trkpt lat="43.6654232" lon="10.6565155"><ele>14.0</ele><time>2026-03-25T12:09:04.909Z</time></trkpt><trkpt lat="43.665458" lon="10.6563466"><ele>14.0</ele><time>2026-03-25T12:09:05.909Z</time></trkpt><trkpt lat="43.6654891" lon="10.6562002"><ele>14.000000000000002</ele><time>2026-03-25T12:09:06.909Z</time></trkpt><trkpt lat="43.6655308" lon="10.6560802"><ele>14.0</ele><time>2026-03-25T12:09:07.91Z</time></trkpt><trkpt lat="43.665584" lon="10.6559836"><ele>14.0</ele><time>2026-03-25T12:09:08.909Z</time></trkpt><trkpt lat="43.6656452" lon="10.6559073"><ele>14.0</ele><time>2026-03-25T12:09:09.909Z</time></trkpt><trkpt lat="43.6657156" lon="10.655852"><ele>14.000000000000002</ele><time>2026-03-25T12:09:10.909Z</time></trkpt><trkpt lat="43.6657942" lon="10.6558217"><ele>14.0</ele><time>2026-03-25T12:09:11.909Z</time></trkpt><trkpt lat="43.6658699" lon="10.6558135"><ele>14.000000000000002</ele><time>2026-03-25T12:09:12.909Z</time></trkpt><trkpt lat="43.6659469" lon="10.6558344"><ele>14.0</ele><time>2026-03-25T12:09:13.91Z</time></trkpt><trkpt lat="43.6660251" lon="10.6558764"><ele>14.0</ele><time>2026-03-25T12:09:14.91Z</time></trkpt><trkpt lat="43.6661031" lon="10.655919"><ele>14.0</ele><time>2026-03-25T12:09:15.909Z</time></trkpt><trkpt lat="43.666186" lon="10.6559231"><ele>14.000000000000002</ele><time>2026-03-25T12:09:16.91Z</time></trkpt><trkpt lat="43.6662589" lon="10.6559039"><ele>14.0</ele><time>2026-03-25T12:09:17.91Z</time></trkpt><trkpt lat="43.6663253" lon="10.6558535"><ele>13.833333333333334</ele><time>2026-03-25T12:09:18.91Z</time></trkpt><trkpt lat="43.6663761" lon="10.6557797"><ele>13.666666666666668</ele><time>2026-03-25T12:09:19.91Z</time></trkpt><trkpt lat="43.6664052" lon="10.6556814"><ele>13.5</ele><time>2026-03-25T12:09:20.91Z</time></trkpt><trkpt lat="43.6664064" lon="10.6555791"><ele>13.333333333333332</ele><time>2026-03-25T12:09:21.909Z</time></trkpt><trkpt lat="43.666386" lon="10.6554604"><ele>13.166666666666666</ele><time>2026-03-25T12:09:22.909Z</time></trkpt><trkpt lat="43.6663457" lon="10.6553434"><ele>13.0</ele><time>2026-03-25T12:09:23.91Z</time></trkpt><trkpt lat="43.6662911" lon="10.6552205"><ele>12.75</ele><time>2026-03-25T12:09:24.91Z</time></trkpt><trkpt lat="43.6662499" lon="10.6550819"><ele>12.5</ele><time>2026-03-25T12:09:25.91Z</time></trkpt><trkpt lat="43.6662199" lon="10.6549229"><ele>12.25</ele><time>2026-03-25T12:09:26.91Z</time></trkpt><trkpt lat="43.6662023" lon="10.6547376"><ele>12.0</ele><time>2026-03-25T12:09:27.909Z</time></trkpt><trkpt lat="43.6661935" lon="10.6545475"><ele>12.0</ele><time>2026-03-25T12:09:28.91Z</time></trkpt><trkpt lat="43.6661851" lon="10.6543625"><ele>12.0</ele><time>2026-03-25T12:09:29.91Z</time></trkpt><trkpt lat="43.6661786" lon="10.654166"><ele>12.0</ele><time>2026-03-25T12:09:30.911Z</time></trkpt><trkpt lat="43.6661684" lon="10.6539484"><ele>12.0</ele><time>2026-03-25T12:09:31.911Z</time></trkpt><trkpt lat="43.6661531" lon="10.653731"><ele>12.5</ele><time>2026-03-25T12:09:32.911Z</time></trkpt><trkpt lat="43.6661398" lon="10.653531"><ele>13.0</ele><time>2026-03-25T12:09:33.909Z</time></trkpt><trkpt lat="43.6661392" lon="10.65334"><ele>13.5</ele><time>2026-03-25T12:09:34.909Z</time></trkpt><trkpt lat="43.6661577" lon="10.6531568"><ele>14.0</ele><time>2026-03-25T12:09:35.91Z</time></trkpt><trkpt lat="43.6661926" lon="10.652976"><ele>13.75</ele><time>2026-03-25T12:09:36.909Z</time></trkpt><trkpt lat="43.6662382" lon="10.652781"><ele>13.5</ele><time>2026-03-25T12:09:37.91Z</time></trkpt><trkpt lat="43.6662828" lon="10.6525987"><ele>13.25</ele><time>2026-03-25T12:09:38.909Z</time></trkpt><trkpt lat="43.6663276" lon="10.6524257"><ele>13.0</ele><time>2026-03-25T12:09:39.91Z</time></trkpt><trkpt lat="43.6663709" lon="10.6522597"><ele>13.0</ele><time>2026-03-25T12:09:40.91Z</time></trkpt><trkpt lat="43.6664135" lon="10.6521059"><ele>13.0</ele><time>2026-03-25T12:09:41.909Z</time></trkpt><trkpt lat="43.666456" lon="10.6519523"><ele>13.0</ele><time>2026-03-25T12:09:42.91Z</time></trkpt><trkpt lat="43.6664941" lon="10.6517934"><ele>13.0</ele><time>2026-03-25T12:09:43.911Z</time></trkpt><trkpt lat="43.6665234" lon="10.6516389"><ele>13.0</ele><time>2026-03-25T12:09:44.91Z</time></trkpt><trkpt lat="43.6665463" lon="10.651478"><ele>13.0</ele><time>2026-03-25T12:09:45.91Z</time></trkpt><trkpt lat="43.666561" lon="10.6513218"><ele>13.0</ele><time>2026-03-25T12:09:46.911Z</time></trkpt><trkpt lat="43.6665729" lon="10.6511679"><ele>13.0</ele><time>2026-03-25T12:09:47.91Z</time></trkpt><trkpt lat="43.6665823" lon="10.6510242"><ele>13.0</ele><time>2026-03-25T12:09:48.91Z</time></trkpt><trkpt lat="43.6665902" lon="10.6508929"><ele>13.2</ele><time>2026-03-25T12:09:49.909Z</time></trkpt><trkpt lat="43.666597" lon="10.6507714"><ele>13.4</ele><time>2026-03-25T12:09:50.909Z</time></trkpt><trkpt lat="43.6666031" lon="10.6506437"><ele>13.599999999999998</ele><time>2026-03-25T12:09:51.909Z</time></trkpt><trkpt lat="43.6666061" lon="10.6505078"><ele>13.799999999999999</ele><time>2026-03-25T12:09:52.91Z</time></trkpt><trkpt lat="43.6666102" lon="10.6503668"><ele>14.0</ele><time>2026-03-25T12:09:53.909Z</time></trkpt><trkpt lat="43.6666152" lon="10.6502185"><ele>14.0</ele><time>2026-03-25T12:09:54.91Z</time></trkpt><trkpt lat="43.6666206" lon="10.6500654"><ele>13.999999999999998</ele><time>2026-03-25T12:09:55.91Z</time></trkpt><trkpt lat="43.6666304" lon="10.6499237"><ele>13.999999999999998</ele><time>2026-03-25T12:09:56.909Z</time></trkpt><trkpt lat="43.6666411" lon="10.6497873"><ele>14.0</ele><time>2026-03-25T12:09:57.91Z</time></trkpt><trkpt lat="43.666647" lon="10.6496572"><ele>14.0</ele><time>2026-03-25T12:09:58.91Z</time></trkpt><trkpt lat="43.6666515" lon="10.6495336"><ele>13.833333333333334</ele><time>2026-03-25T12:09:59.911Z</time></trkpt><trkpt lat="43.6666582" lon="10.649416"><ele>13.666666666666668</ele><time>2026-03-25T12:10:00.91Z</time></trkpt><trkpt lat="43.6666631" lon="10.6493085"><ele>13.5</ele><time>2026-03-25T12:10:01.91Z</time></trkpt><trkpt lat="43.6666706" lon="10.6492017"><ele>13.333333333333332</ele><time>2026-03-25T12:10:02.909Z</time></trkpt><trkpt lat="43.6666794" lon="10.6490848"><ele>13.166666666666666</ele><time>2026-03-25T12:10:03.91Z</time></trkpt><trkpt lat="43.6666862" lon="10.6489634"><ele>13.0</ele><time>2026-03-25T12:10:04.909Z</time></trkpt><trkpt lat="43.6666969" lon="10.6488323"><ele>12.999999999999998</ele><time>2026-03-25T12:10:05.911Z</time></trkpt><trkpt lat="43.6667014" lon="10.6487002"><ele>13.0</ele><time>2026-03-25T12:10:06.91Z</time></trkpt><trkpt lat="43.666703" lon="10.6485767"><ele>13.0</ele><time>2026-03-25T12:10:07.909Z</time></trkpt><trkpt lat="43.6667052" lon="10.6484853"><ele>13.0</ele><time>2026-03-25T12:10:08.911Z</time></trkpt><trkpt lat="43.666725" lon="10.6483749"><ele>12.999999999999998</ele><time>2026-03-25T12:10:10.909Z</time></trkpt><trkpt lat="43.6668104" lon="10.6483544"><ele>13.0</ele><time>2026-03-25T12:10:13.909Z</time></trkpt><trkpt lat="43.666859" lon="10.6484126"><ele>13.0</ele><time>2026-03-25T12:10:15.91Z</time></trkpt><trkpt lat="43.666904" lon="10.6485245"><ele>13.0</ele><time>2026-03-25T12:10:18.911Z</time></trkpt><trkpt lat="43.6669612" lon="10.6485815"><ele>13.0</ele><time>2026-03-25T12:10:20.874Z</time></trkpt><trkpt lat="43.6670284" lon="10.6485883"><ele>13.0</ele><time>2026-03-25T12:10:22.911Z</time></trkpt><trkpt lat="43.6670691" lon="10.6484951"><ele>13.0</ele><time>2026-03-25T12:10:25.91Z</time></trkpt><trkpt lat="43.6671254" lon="10.6485482"><ele>13.0</ele><time>2026-03-25T12:11:15.91Z</time></trkpt><trkpt lat="43.6671774" lon="10.6485986"><ele>13.0</ele><time>2026-03-25T12:11:20.91Z</time></trkpt><trkpt lat="43.6672308" lon="10.6486588"><ele>13.0</ele><time>2026-03-25T12:11:29.91Z</time></trkpt><trkpt lat="43.6672865" lon="10.648614"><ele>13.0</ele><time>2026-03-25T12:11:41.831Z</time></trkpt><trkpt lat="43.6672235" lon="10.6485603"><ele>13.0</ele><time>2026-03-25T12:34:25.919Z</time></trkpt><trkpt lat="43.6672768" lon="10.6486339"><ele>13.0</ele><time>2026-03-25T12:35:26.906Z</time></trkpt><trkpt lat="43.6672682" lon="10.6487298"><ele>13.0</ele><time>2026-03-25T12:35:32.906Z</time></trkpt><trkpt lat="43.6672812" lon="10.6486267"><ele>13.0</ele><time>2026-03-25T12:35:37.906Z</time></trkpt><trkpt lat="43.6672136" lon="10.6486421"><ele>13.0</ele><time>2026-03-25T12:40:08.879Z</time></trkpt><trkpt lat="43.6671455" lon="10.6485867"><ele>13.0</ele><time>2026-03-25T12:40:12.907Z</time></trkpt><trkpt lat="43.6670894" lon="10.648539"><ele>13.0</ele><time>2026-03-25T12:40:16.907Z</time></trkpt><trkpt lat="43.667053" lon="10.6484623"><ele>13.0</ele><time>2026-03-25T12:40:23.912Z</time></trkpt><trkpt lat="43.6669894" lon="10.6484901"><ele>13.0</ele><time>2026-03-25T12:42:00.906Z</time></trkpt><trkpt lat="43.6669024" lon="10.6485158"><ele>13.0</ele><time>2026-03-25T12:42:02.905Z</time></trkpt><trkpt lat="43.6668747" lon="10.6486326"><ele>13.0</ele><time>2026-03-25T12:42:04.906Z</time></trkpt><trkpt lat="43.6669282" lon="10.6486965"><ele>13.0</ele><time>2026-03-25T12:42:06.905Z</time></trkpt><trkpt lat="43.6670434" lon="10.6487204"><ele>12.999999999999998</ele><time>2026-03-25T12:42:08.907Z</time></trkpt><trkpt lat="43.667119" lon="10.6487626"><ele>13.0</ele><time>2026-03-25T12:42:10.906Z</time></trkpt><trkpt lat="43.6671242" lon="10.6488795"><ele>13.0</ele><time>2026-03-25T12:42:13.905Z</time></trkpt><trkpt lat="43.6671226" lon="10.6489785"><ele>13.0</ele><time>2026-03-25T12:42:15.905Z</time></trkpt><trkpt lat="43.667082" lon="10.6490862"><ele>12.999999999999998</ele><time>2026-03-25T12:42:18.905Z</time></trkpt><trkpt lat="43.666991" lon="10.6490697"><ele>13.0</ele><time>2026-03-25T12:42:21.906Z</time></trkpt><trkpt lat="43.6669263" lon="10.6490676"><ele>12.999999999999998</ele><time>2026-03-25T12:42:22.906Z</time></trkpt><trkpt lat="43.6668278" lon="10.6490748"><ele>13.0</ele><time>2026-03-25T12:42:24.906Z</time></trkpt><trkpt lat="43.6667529" lon="10.6491158"><ele>13.0</ele><time>2026-03-25T12:43:11.906Z</time></trkpt><trkpt lat="43.6666885" lon="10.649067"><ele>13.0</ele><time>2026-03-25T12:43:16.906Z</time></trkpt><trkpt lat="43.6666745" lon="10.6489509"><ele>12.999999999999998</ele><time>2026-03-25T12:43:18.905Z</time></trkpt><trkpt lat="43.6666807" lon="10.6488318"><ele>13.0</ele><time>2026-03-25T12:43:19.907Z</time></trkpt><trkpt lat="43.6666909" lon="10.6486831"><ele>13.0</ele><time>2026-03-25T12:43:20.906Z</time></trkpt><trkpt lat="43.6667028" lon="10.6485108"><ele>13.0</ele><time>2026-03-25T12:43:21.905Z</time></trkpt><trkpt lat="43.6667113" lon="10.6483138"><ele>13.0</ele><time>2026-03-25T12:43:22.906Z</time></trkpt><trkpt lat="43.666722" lon="10.6480912"><ele>13.0</ele><time>2026-03-25T12:43:23.906Z</time></trkpt><trkpt lat="43.6667345" lon="10.6478914"><ele>12.75</ele><time>2026-03-25T12:43:24.906Z</time></trkpt><trkpt lat="43.6667458" lon="10.6477127"><ele>12.5</ele><time>2026-03-25T12:43:25.906Z</time></trkpt><trkpt lat="43.666756" lon="10.6475289"><ele>12.25</ele><time>2026-03-25T12:43:26.907Z</time></trkpt><trkpt lat="43.6667569" lon="10.6473374"><ele>12.0</ele><time>2026-03-25T12:43:27.905Z</time></trkpt><trkpt lat="43.6667606" lon="10.6471523"><ele>12.0</ele><time>2026-03-25T12:43:28.906Z</time></trkpt><trkpt lat="43.6667717" lon="10.6469972"><ele>12.0</ele><time>2026-03-25T12:43:29.907Z</time></trkpt><trkpt lat="43.666783" lon="10.6468772"><ele>12.0</ele><time>2026-03-25T12:43:30.905Z</time></trkpt><trkpt lat="43.6667938" lon="10.646789"><ele>12.0</ele><time>2026-03-25T12:43:31.905Z</time></trkpt><trkpt lat="43.6668324" lon="10.6466569"><ele>12.0</ele><time>2026-03-25T12:43:33.905Z</time></trkpt><trkpt lat="43.6669136" lon="10.6465213"><ele>12.399999999999999</ele><time>2026-03-25T12:43:35.905Z</time></trkpt><trkpt lat="43.6669413" lon="10.6463861"><ele>12.799999999999999</ele><time>2026-03-25T12:43:37.906Z</time></trkpt><trkpt lat="43.6668863" lon="10.6462181"><ele>13.2</ele><time>2026-03-25T12:43:39.906Z</time></trkpt><trkpt lat="43.6668533" lon="10.6460947"><ele>13.6</ele><time>2026-03-25T12:43:40.906Z</time></trkpt><trkpt lat="43.6668357" lon="10.6459397"><ele>14.0</ele><time>2026-03-25T12:43:41.906Z</time></trkpt><trkpt lat="43.6668327" lon="10.6457635"><ele>14.5</ele><time>2026-03-25T12:43:42.906Z</time></trkpt><trkpt lat="43.6668394" lon="10.6455918"><ele>15.0</ele><time>2026-03-25T12:43:43.906Z</time></trkpt><trkpt lat="43.666851" lon="10.6454329"><ele>15.5</ele><time>2026-03-25T12:43:44.907Z</time></trkpt><trkpt lat="43.6668586" lon="10.6452714"><ele>16.0</ele><time>2026-03-25T12:43:45.906Z</time></trkpt><trkpt lat="43.6668632" lon="10.6451038"><ele>16.0</ele><time>2026-03-25T12:43:46.906Z</time></trkpt><trkpt lat="43.6668691" lon="10.6449328"><ele>16.0</ele><time>2026-03-25T12:43:47.907Z</time></trkpt><trkpt lat="43.6668779" lon="10.6447568"><ele>16.0</ele><time>2026-03-25T12:43:48.906Z</time></trkpt><trkpt lat="43.666888" lon="10.6445764"><ele>16.0</ele><time>2026-03-25T12:43:49.905Z</time></trkpt><trkpt lat="43.6668955" lon="10.644391"><ele>16.0</ele><time>2026-03-25T12:43:50.905Z</time></trkpt><trkpt lat="43.666905" lon="10.6442067"><ele>16.0</ele><time>2026-03-25T12:43:51.905Z</time></trkpt><trkpt lat="43.6669159" lon="10.6440247"><ele>16.0</ele><time>2026-03-25T12:43:52.907Z</time></trkpt><trkpt lat="43.6669235" lon="10.6438437"><ele>16.0</ele><time>2026-03-25T12:43:53.906Z</time></trkpt><trkpt lat="43.6669227" lon="10.6436631"><ele>16.0</ele><time>2026-03-25T12:43:54.905Z</time></trkpt><trkpt lat="43.6669192" lon="10.6434837"><ele>16.0</ele><time>2026-03-25T12:43:55.906Z</time></trkpt><trkpt lat="43.6669118" lon="10.6433049"><ele>16.0</ele><time>2026-03-25T12:43:56.906Z</time></trkpt><trkpt lat="43.6669021" lon="10.6431287"><ele>16.0</ele><time>2026-03-25T12:43:57.906Z</time></trkpt><trkpt lat="43.6668917" lon="10.6429652"><ele>15.999999999999998</ele><time>2026-03-25T12:43:58.906Z</time></trkpt><trkpt lat="43.6668807" lon="10.642817"><ele>16.0</ele><time>2026-03-25T12:43:59.906Z</time></trkpt><trkpt lat="43.6668695" lon="10.6426859"><ele>16.0</ele><time>2026-03-25T12:44:00.906Z</time></trkpt><trkpt lat="43.6668612" lon="10.6425751"><ele>16.0</ele><time>2026-03-25T12:44:01.906Z</time></trkpt><trkpt lat="43.6668584" lon="10.6424846"><ele>15.999999999999998</ele><time>2026-03-25T12:44:02.906Z</time></trkpt><trkpt lat="43.6668632" lon="10.6423654"><ele>16.0</ele><time>2026-03-25T12:44:04.905Z</time></trkpt><trkpt lat="43.6668729" lon="10.642269"><ele>16.0</ele><time>2026-03-25T12:44:06.906Z</time></trkpt><trkpt lat="43.666869" lon="10.6420846"><ele>16.0</ele><time>2026-03-25T12:44:08.907Z</time></trkpt><trkpt lat="43.6668519" lon="10.6419626"><ele>16.0</ele><time>2026-03-25T12:44:09.906Z</time></trkpt><trkpt lat="43.6668244" lon="10.6418219"><ele>16.0</ele><time>2026-03-25T12:44:10.906Z</time></trkpt><trkpt lat="43.6667986" lon="10.6416768"><ele>16.0</ele><time>2026-03-25T12:44:11.905Z</time></trkpt><trkpt lat="43.6667731" lon="10.6415076"><ele>16.0</ele><time>2026-03-25T12:44:12.906Z</time></trkpt><trkpt lat="43.6667452" lon="10.6413084"><ele>16.0</ele><time>2026-03-25T12:44:13.905Z</time></trkpt><trkpt lat="43.6667221" lon="10.6411162"><ele>16.0</ele><time>2026-03-25T12:44:14.907Z</time></trkpt><trkpt lat="43.6667018" lon="10.6409273"><ele>16.0</ele><time>2026-03-25T12:44:15.906Z</time></trkpt><trkpt lat="43.6666783" lon="10.6407326"><ele>15.5</ele><time>2026-03-25T12:44:16.907Z</time></trkpt><trkpt lat="43.6666552" lon="10.6405366"><ele>15.0</ele><time>2026-03-25T12:44:17.906Z</time></trkpt><trkpt lat="43.6666335" lon="10.640345"><ele>14.5</ele><time>2026-03-25T12:44:18.906Z</time></trkpt><trkpt lat="43.6666128" lon="10.6401567"><ele>14.0</ele><time>2026-03-25T12:44:19.906Z</time></trkpt><trkpt lat="43.6665923" lon="10.6399776"><ele>14.0</ele><time>2026-03-25T12:44:20.907Z</time></trkpt><trkpt lat="43.6665753" lon="10.6398118"><ele>14.0</ele><time>2026-03-25T12:44:21.906Z</time></trkpt><trkpt lat="43.6665579" lon="10.6396469"><ele>14.0</ele><time>2026-03-25T12:44:22.907Z</time></trkpt><trkpt lat="43.6665397" lon="10.6394691"><ele>14.0</ele><time>2026-03-25T12:44:23.906Z</time></trkpt><trkpt lat="43.6665157" lon="10.6392669"><ele>14.0</ele><time>2026-03-25T12:44:24.905Z</time></trkpt><trkpt lat="43.6664825" lon="10.639046"><ele>14.0</ele><time>2026-03-25T12:44:25.906Z</time></trkpt><trkpt lat="43.6664415" lon="10.6388123"><ele>14.0</ele><time>2026-03-25T12:44:26.906Z</time></trkpt><trkpt lat="43.6663985" lon="10.6385862"><ele>14.0</ele><time>2026-03-25T12:44:27.907Z</time></trkpt><trkpt lat="43.6663587" lon="10.6383755"><ele>14.0</ele><time>2026-03-25T12:44:28.906Z</time></trkpt><trkpt lat="43.6663227" lon="10.6381808"><ele>14.0</ele><time>2026-03-25T12:44:29.906Z</time></trkpt><trkpt lat="43.6662839" lon="10.6379906"><ele>14.0</ele><time>2026-03-25T12:44:30.906Z</time></trkpt><trkpt lat="43.6662462" lon="10.6378002"><ele>13.75</ele><time>2026-03-25T12:44:31.907Z</time></trkpt><trkpt lat="43.6662113" lon="10.6376107"><ele>13.5</ele><time>2026-03-25T12:44:32.906Z</time></trkpt><trkpt lat="43.6661753" lon="10.6374218"><ele>13.25</ele><time>2026-03-25T12:44:33.907Z</time></trkpt><trkpt lat="43.6661386" lon="10.637233"><ele>13.0</ele><time>2026-03-25T12:44:34.906Z</time></trkpt><trkpt lat="43.6661042" lon="10.6370464"><ele>13.333333333333332</ele><time>2026-03-25T12:44:35.906Z</time></trkpt><trkpt lat="43.6660725" lon="10.6368798"><ele>13.666666666666666</ele><time>2026-03-25T12:44:36.905Z</time></trkpt><trkpt lat="43.666051" lon="10.6367542"><ele>14.0</ele><time>2026-03-25T12:44:37.906Z</time></trkpt><trkpt lat="43.6660383" lon="10.6366592"><ele>14.333333333333332</ele><time>2026-03-25T12:44:38.907Z</time></trkpt><trkpt lat="43.6660253" lon="10.6365736"><ele>14.666666666666666</ele><time>2026-03-25T12:44:39.906Z</time></trkpt><trkpt lat="43.666015" lon="10.6364846"><ele>15.0</ele><time>2026-03-25T12:44:40.906Z</time></trkpt><trkpt lat="43.6660025" lon="10.6363993"><ele>15.0</ele><time>2026-03-25T12:44:41.906Z</time></trkpt><trkpt lat="43.6659722" lon="10.6362394"><ele>15.0</ele><time>2026-03-25T12:44:43.906Z</time></trkpt><trkpt lat="43.665937" lon="10.6360561"><ele>15.0</ele><time>2026-03-25T12:44:45.905Z</time></trkpt><trkpt lat="43.6659197" lon="10.6359409"><ele>15.0</ele><time>2026-03-25T12:44:46.906Z</time></trkpt><trkpt lat="43.665901" lon="10.635824"><ele>15.0</ele><time>2026-03-25T12:44:47.905Z</time></trkpt><trkpt lat="43.665882" lon="10.6357026"><ele>14.6</ele><time>2026-03-25T12:44:48.906Z</time></trkpt><trkpt lat="43.6658621" lon="10.6355795"><ele>14.2</ele><time>2026-03-25T12:44:49.905Z</time></trkpt><trkpt lat="43.6658403" lon="10.6354562"><ele>13.8</ele><time>2026-03-25T12:44:50.905Z</time></trkpt><trkpt lat="43.6658162" lon="10.6353252"><ele>13.4</ele><time>2026-03-25T12:44:51.906Z</time></trkpt><trkpt lat="43.6657879" lon="10.6351957"><ele>13.0</ele><time>2026-03-25T12:44:52.905Z</time></trkpt><trkpt lat="43.6657616" lon="10.6350769"><ele>12.833333333333332</ele><time>2026-03-25T12:44:53.906Z</time></trkpt><trkpt lat="43.6657357" lon="10.6349628"><ele>12.666666666666666</ele><time>2026-03-25T12:44:54.906Z</time></trkpt><trkpt lat="43.6657155" lon="10.6348727"><ele>12.5</ele><time>2026-03-25T12:44:55.905Z</time></trkpt><trkpt lat="43.6656984" lon="10.6347774"><ele>12.333333333333332</ele><time>2026-03-25T12:44:57.905Z</time></trkpt><trkpt lat="43.6656368" lon="10.6346958"><ele>12.166666666666666</ele><time>2026-03-25T12:45:00.906Z</time></trkpt><trkpt lat="43.6655618" lon="10.6347194"><ele>12.0</ele><time>2026-03-25T12:45:02.905Z</time></trkpt><trkpt lat="43.665478" lon="10.6347575"><ele>12.0</ele><time>2026-03-25T12:45:04.906Z</time></trkpt><trkpt lat="43.6653852" lon="10.6347768"><ele>12.0</ele><time>2026-03-25T12:45:06.906Z</time></trkpt><trkpt lat="43.6652819" lon="10.6347787"><ele>12.0</ele><time>2026-03-25T12:45:08.907Z</time></trkpt><trkpt lat="43.6651882" lon="10.6347772"><ele>12.0</ele><time>2026-03-25T12:45:10.906Z</time></trkpt><trkpt lat="43.6650942" lon="10.6347574"><ele>12.0</ele><time>2026-03-25T12:45:12.905Z</time></trkpt><trkpt lat="43.6649987" lon="10.6347203"><ele>12.666666666666666</ele><time>2026-03-25T12:45:14.907Z</time></trkpt><trkpt lat="43.6649129" lon="10.6347056"><ele>13.333333333333332</ele><time>2026-03-25T12:45:16.906Z</time></trkpt><trkpt lat="43.6648332" lon="10.6347552"><ele>14.0</ele><time>2026-03-25T12:45:18.906Z</time></trkpt><trkpt lat="43.6648119" lon="10.6348631"><ele>14.666666666666666</ele><time>2026-03-25T12:45:20.906Z</time></trkpt><trkpt lat="43.6648114" lon="10.6350256"><ele>15.333333333333332</ele><time>2026-03-25T12:45:22.906Z</time></trkpt><trkpt lat="43.664806" lon="10.6351264"><ele>16.0</ele><time>2026-03-25T12:45:23.907Z</time></trkpt><trkpt lat="43.6648039" lon="10.6352355"><ele>15.999999999999998</ele><time>2026-03-25T12:45:24.905Z</time></trkpt><trkpt lat="43.6648018" lon="10.6353459"><ele>16.0</ele><time>2026-03-25T12:45:25.905Z</time></trkpt><trkpt lat="43.6648003" lon="10.6354659"><ele>16.0</ele><time>2026-03-25T12:45:26.907Z</time></trkpt><trkpt lat="43.6648003" lon="10.6355949"><ele>16.0</ele><time>2026-03-25T12:45:27.906Z</time></trkpt><trkpt lat="43.664799" lon="10.6357138"><ele>15.999999999999998</ele><time>2026-03-25T12:45:28.907Z</time></trkpt><trkpt lat="43.6648026" lon="10.6358052"><ele>16.0</ele><time>2026-03-25T12:45:29.905Z</time></trkpt><trkpt lat="43.6647999" lon="10.6358937"><ele>15.999999999999998</ele><time>2026-03-25T12:45:30.907Z</time></trkpt><trkpt lat="43.6648024" lon="10.6359928"><ele>16.0</ele><time>2026-03-25T12:45:31.906Z</time></trkpt><trkpt lat="43.6648024" lon="10.636086"><ele>16.0</ele><time>2026-03-25T12:45:32.905Z</time></trkpt><trkpt lat="43.6648049" lon="10.6362564"><ele>16.0</ele><time>2026-03-25T12:45:34.905Z</time></trkpt><trkpt lat="43.664787" lon="10.636379"><ele>15.999999999999998</ele><time>2026-03-25T12:45:36.906Z</time></trkpt><trkpt lat="43.6647611" lon="10.6364706"><ele>16.0</ele><time>2026-03-25T12:45:39.907Z</time></trkpt><trkpt lat="43.6647472" lon="10.6365626"><ele>15.999999999999998</ele><time>2026-03-25T12:45:43.906Z</time></trkpt><trkpt lat="43.6647476" lon="10.6366591"><ele>16.0</ele><time>2026-03-25T12:55:35.905Z</time></trkpt><trkpt lat="43.6647543" lon="10.6367607"><ele>16.0</ele><time>2026-03-25T12:55:37.905Z</time></trkpt><trkpt lat="43.6647929" lon="10.6368526"><ele>16.0</ele><time>2026-03-25T12:55:40.906Z</time></trkpt><trkpt lat="43.6648729" lon="10.6368963"><ele>15.999999999999998</ele><time>2026-03-25T12:55:44.939Z</time></trkpt><trkpt lat="43.664972" lon="10.6369048"><ele>16.0</ele><time>2026-03-25T12:55:46.833Z</time></trkpt><trkpt lat="43.6650759" lon="10.6368971"><ele>16.0</ele><time>2026-03-25T12:55:48.905Z</time></trkpt><trkpt lat="43.6651727" lon="10.6368875"><ele>16.0</ele><time>2026-03-25T12:55:50.905Z</time></trkpt><trkpt lat="43.6652498" lon="10.6368838"><ele>16.0</ele><time>2026-03-25T12:55:51.906Z</time></trkpt><trkpt lat="43.6653431" lon="10.6368863"><ele>16.0</ele><time>2026-03-25T12:55:52.905Z</time></trkpt><trkpt lat="43.6654402" lon="10.6368858"><ele>16.0</ele><time>2026-03-25T12:55:53.905Z</time></trkpt><trkpt lat="43.6655572" lon="10.636892"><ele>15.8</ele><time>2026-03-25T12:55:54.905Z</time></trkpt><trkpt lat="43.665672" lon="10.6368939"><ele>15.600000000000001</ele><time>2026-03-25T12:55:55.904Z</time></trkpt><trkpt lat="43.6657713" lon="10.6368968"><ele>15.4</ele><time>2026-03-25T12:55:56.906Z</time></trkpt><trkpt lat="43.6658489" lon="10.6368999"><ele>15.2</ele><time>2026-03-25T12:55:57.905Z</time></trkpt><trkpt lat="43.6659584" lon="10.6369046"><ele>15.0</ele><time>2026-03-25T12:55:59.904Z</time></trkpt><trkpt lat="43.6660132" lon="10.6368543"><ele>15.0</ele><time>2026-03-25T12:56:04.904Z</time></trkpt><trkpt lat="43.6660436" lon="10.6367439"><ele>15.0</ele><time>2026-03-25T12:56:06.905Z</time></trkpt><trkpt lat="43.666044" lon="10.6366431"><ele>15.0</ele><time>2026-03-25T12:56:07.904Z</time></trkpt><trkpt lat="43.66603" lon="10.6365073"><ele>15.0</ele><time>2026-03-25T12:56:08.906Z</time></trkpt><trkpt lat="43.666005" lon="10.6363618"><ele>15.0</ele><time>2026-03-25T12:56:09.905Z</time></trkpt><trkpt lat="43.6659757" lon="10.6362168"><ele>14.5</ele><time>2026-03-25T12:56:10.906Z</time></trkpt><trkpt lat="43.6659476" lon="10.636063"><ele>14.0</ele><time>2026-03-25T12:56:11.904Z</time></trkpt><trkpt lat="43.6659175" lon="10.6358924"><ele>13.5</ele><time>2026-03-25T12:56:12.906Z</time></trkpt><trkpt lat="43.6658855" lon="10.6357039"><ele>13.0</ele><time>2026-03-25T12:56:13.905Z</time></trkpt><trkpt lat="43.6658532" lon="10.6355124"><ele>13.0</ele><time>2026-03-25T12:56:14.904Z</time></trkpt><trkpt lat="43.6658237" lon="10.6353337"><ele>13.0</ele><time>2026-03-25T12:56:15.905Z</time></trkpt><trkpt lat="43.6658002" lon="10.6351675"><ele>13.0</ele><time>2026-03-25T12:56:16.905Z</time></trkpt><trkpt lat="43.6657758" lon="10.6350044"><ele>13.0</ele><time>2026-03-25T12:56:17.905Z</time></trkpt><trkpt lat="43.6657475" lon="10.6348289"><ele>12.75</ele><time>2026-03-25T12:56:18.905Z</time></trkpt><trkpt lat="43.6657109" lon="10.6346381"><ele>12.5</ele><time>2026-03-25T12:56:19.905Z</time></trkpt><trkpt lat="43.6656741" lon="10.634436"><ele>12.25</ele><time>2026-03-25T12:56:20.905Z</time></trkpt><trkpt lat="43.6656428" lon="10.6342386"><ele>12.0</ele><time>2026-03-25T12:56:21.906Z</time></trkpt><trkpt lat="43.6656136" lon="10.6340584"><ele>12.399999999999999</ele><time>2026-03-25T12:56:22.905Z</time></trkpt><trkpt lat="43.665588" lon="10.6339053"><ele>12.799999999999999</ele><time>2026-03-25T12:56:23.905Z</time></trkpt><trkpt lat="43.6655656" lon="10.6337689"><ele>13.2</ele><time>2026-03-25T12:56:24.904Z</time></trkpt><trkpt lat="43.6655446" lon="10.6336236"><ele>13.6</ele><time>2026-03-25T12:56:25.904Z</time></trkpt><trkpt lat="43.6655199" lon="10.633468"><ele>14.0</ele><time>2026-03-25T12:56:26.905Z</time></trkpt><trkpt lat="43.6654927" lon="10.6332941"><ele>14.333333333333334</ele><time>2026-03-25T12:56:27.905Z</time></trkpt><trkpt lat="43.6654595" lon="10.6331005"><ele>14.666666666666668</ele><time>2026-03-25T12:56:28.904Z</time></trkpt><trkpt lat="43.6654244" lon="10.6328947"><ele>15.0</ele><time>2026-03-25T12:56:29.905Z</time></trkpt><trkpt lat="43.6653874" lon="10.6326818"><ele>14.333333333333332</ele><time>2026-03-25T12:56:30.904Z</time></trkpt><trkpt lat="43.6653529" lon="10.6324709"><ele>13.666666666666666</ele><time>2026-03-25T12:56:31.905Z</time></trkpt><trkpt lat="43.6653177" lon="10.6322609"><ele>13.0</ele><time>2026-03-25T12:56:32.905Z</time></trkpt><trkpt lat="43.6652849" lon="10.6320569"><ele>13.75</ele><time>2026-03-25T12:56:33.904Z</time></trkpt><trkpt lat="43.6652511" lon="10.6318526"><ele>14.5</ele><time>2026-03-25T12:56:34.905Z</time></trkpt><trkpt lat="43.6652166" lon="10.6316502"><ele>15.25</ele><time>2026-03-25T12:56:35.905Z</time></trkpt><trkpt lat="43.665189" lon="10.6314535"><ele>16.0</ele><time>2026-03-25T12:56:36.904Z</time></trkpt><trkpt lat="43.6651655" lon="10.6312594"><ele>15.75</ele><time>2026-03-25T12:56:37.904Z</time></trkpt><trkpt lat="43.6651501" lon="10.6310677"><ele>15.5</ele><time>2026-03-25T12:56:38.904Z</time></trkpt><trkpt lat="43.6651383" lon="10.6308838"><ele>15.25</ele><time>2026-03-25T12:56:39.905Z</time></trkpt><trkpt lat="43.6651292" lon="10.6307016"><ele>15.0</ele><time>2026-03-25T12:56:40.905Z</time></trkpt><trkpt lat="43.6651221" lon="10.6305167"><ele>15.0</ele><time>2026-03-25T12:56:41.905Z</time></trkpt><trkpt lat="43.6651196" lon="10.6303265"><ele>15.0</ele><time>2026-03-25T12:56:42.905Z</time></trkpt><trkpt lat="43.6651156" lon="10.6301375"><ele>15.0</ele><time>2026-03-25T12:56:43.905Z</time></trkpt><trkpt lat="43.6651123" lon="10.6299023"><ele>15.0</ele><time>2026-03-25T12:56:44.904Z</time></trkpt><trkpt lat="43.6651091" lon="10.6296587"><ele>15.333333333333332</ele><time>2026-03-25T12:56:45.905Z</time></trkpt><trkpt lat="43.6651101" lon="10.6293994"><ele>15.666666666666666</ele><time>2026-03-25T12:56:46.904Z</time></trkpt><trkpt lat="43.6651149" lon="10.6291519"><ele>16.0</ele><time>2026-03-25T12:56:47.906Z</time></trkpt><trkpt lat="43.6651298" lon="10.6289004"><ele>16.0</ele><time>2026-03-25T12:56:48.905Z</time></trkpt><trkpt lat="43.665151" lon="10.6286456"><ele>16.0</ele><time>2026-03-25T12:56:49.905Z</time></trkpt><trkpt lat="43.6651754" lon="10.6283883"><ele>16.0</ele><time>2026-03-25T12:56:50.904Z</time></trkpt><trkpt lat="43.6652047" lon="10.6281324"><ele>15.666666666666666</ele><time>2026-03-25T12:56:51.906Z</time></trkpt><trkpt lat="43.6652353" lon="10.6278751"><ele>15.333333333333332</ele><time>2026-03-25T12:56:52.904Z</time></trkpt><trkpt lat="43.6652661" lon="10.6276265"><ele>15.0</ele><time>2026-03-25T12:56:53.905Z</time></trkpt><trkpt lat="43.6652956" lon="10.6273909"><ele>14.333333333333332</ele><time>2026-03-25T12:56:54.905Z</time></trkpt><trkpt lat="43.6653204" lon="10.6271657"><ele>13.666666666666666</ele><time>2026-03-25T12:56:55.904Z</time></trkpt><trkpt lat="43.665342" lon="10.6269432"><ele>13.0</ele><time>2026-03-25T12:56:56.905Z</time></trkpt><trkpt lat="43.6653592" lon="10.6267155"><ele>13.0</ele><time>2026-03-25T12:56:57.905Z</time></trkpt><trkpt lat="43.6653686" lon="10.6264826"><ele>13.0</ele><time>2026-03-25T12:56:58.904Z</time></trkpt><trkpt lat="43.6653687" lon="10.626256"><ele>13.0</ele><time>2026-03-25T12:56:59.904Z</time></trkpt><trkpt lat="43.6653577" lon="10.626042"><ele>13.25</ele><time>2026-03-25T12:57:00.905Z</time></trkpt><trkpt lat="43.6653421" lon="10.6258391"><ele>13.5</ele><time>2026-03-25T12:57:01.904Z</time></trkpt><trkpt lat="43.6653276" lon="10.6256532"><ele>13.75</ele><time>2026-03-25T12:57:02.904Z</time></trkpt><trkpt lat="43.6653137" lon="10.6254777"><ele>14.0</ele><time>2026-03-25T12:57:03.906Z</time></trkpt><trkpt lat="43.6652971" lon="10.6253243"><ele>14.2</ele><time>2026-03-25T12:57:04.905Z</time></trkpt><trkpt lat="43.6652822" lon="10.6251887"><ele>14.399999999999999</ele><time>2026-03-25T12:57:05.905Z</time></trkpt><trkpt lat="43.6652619" lon="10.6250552"><ele>14.6</ele><time>2026-03-25T12:57:06.906Z</time></trkpt><trkpt lat="43.665241" lon="10.6249099"><ele>14.8</ele><time>2026-03-25T12:57:07.905Z</time></trkpt><trkpt lat="43.6652275" lon="10.6247475"><ele>15.0</ele><time>2026-03-25T12:57:08.906Z</time></trkpt><trkpt lat="43.6652188" lon="10.6245654"><ele>15.25</ele><time>2026-03-25T12:57:09.905Z</time></trkpt><trkpt lat="43.6652147" lon="10.6243776"><ele>15.5</ele><time>2026-03-25T12:57:10.905Z</time></trkpt><trkpt lat="43.6652158" lon="10.624191"><ele>15.75</ele><time>2026-03-25T12:57:11.905Z</time></trkpt><trkpt lat="43.6652245" lon="10.6240225"><ele>16.0</ele><time>2026-03-25T12:57:12.904Z</time></trkpt><trkpt lat="43.6652379" lon="10.6238663"><ele>15.999999999999998</ele><time>2026-03-25T12:57:13.904Z</time></trkpt><trkpt lat="43.6652539" lon="10.6237221"><ele>16.0</ele><time>2026-03-25T12:57:14.905Z</time></trkpt><trkpt lat="43.6652718" lon="10.6235875"><ele>16.0</ele><time>2026-03-25T12:57:15.905Z</time></trkpt><trkpt lat="43.6652867" lon="10.6234744"><ele>16.0</ele><time>2026-03-25T12:57:16.905Z</time></trkpt><trkpt lat="43.6653017" lon="10.6233681"><ele>15.999999999999998</ele><time>2026-03-25T12:57:17.906Z</time></trkpt><trkpt lat="43.665313" lon="10.6232658"><ele>16.0</ele><time>2026-03-25T12:57:18.906Z</time></trkpt><trkpt lat="43.6653271" lon="10.6231734"><ele>15.8</ele><time>2026-03-25T12:57:19.904Z</time></trkpt><trkpt lat="43.6653388" lon="10.6230335"><ele>15.600000000000001</ele><time>2026-03-25T12:57:21.906Z</time></trkpt><trkpt lat="43.665353" lon="10.6229111"><ele>15.4</ele><time>2026-03-25T12:57:24.905Z</time></trkpt><trkpt lat="43.6653642" lon="10.6228192"><ele>15.2</ele><time>2026-03-25T12:57:26.905Z</time></trkpt><trkpt lat="43.6653767" lon="10.6227047"><ele>15.0</ele><time>2026-03-25T12:57:29.904Z</time></trkpt><trkpt lat="43.665387" lon="10.622554"><ele>15.0</ele><time>2026-03-25T12:57:32.905Z</time></trkpt><trkpt lat="43.6654022" lon="10.6224574"><ele>15.0</ele><time>2026-03-25T12:57:33.905Z</time></trkpt><trkpt lat="43.6654174" lon="10.6223342"><ele>15.0</ele><time>2026-03-25T12:57:34.904Z</time></trkpt><trkpt lat="43.6654336" lon="10.6222109"><ele>15.0</ele><time>2026-03-25T12:57:35.905Z</time></trkpt><trkpt lat="43.6654536" lon="10.6220871"><ele>15.0</ele><time>2026-03-25T12:57:36.904Z</time></trkpt><trkpt lat="43.6654781" lon="10.6219591"><ele>15.0</ele><time>2026-03-25T12:57:37.905Z</time></trkpt><trkpt lat="43.6654993" lon="10.6218218"><ele>15.0</ele><time>2026-03-25T12:57:38.905Z</time></trkpt><trkpt lat="43.6655161" lon="10.621698"><ele>15.0</ele><time>2026-03-25T12:57:39.905Z</time></trkpt><trkpt lat="43.6655308" lon="10.6215813"><ele>15.0</ele><time>2026-03-25T12:57:40.905Z</time></trkpt><trkpt lat="43.6655484" lon="10.6214444"><ele>15.0</ele><time>2026-03-25T12:57:41.904Z</time></trkpt><trkpt lat="43.665568" lon="10.6212767"><ele>15.0</ele><time>2026-03-25T12:57:42.905Z</time></trkpt><trkpt lat="43.6655877" lon="10.621106"><ele>15.0</ele><time>2026-03-25T12:57:43.906Z</time></trkpt><trkpt lat="43.6656102" lon="10.620944"><ele>15.0</ele><time>2026-03-25T12:57:44.906Z</time></trkpt><trkpt lat="43.665633" lon="10.6207954"><ele>15.0</ele><time>2026-03-25T12:57:45.905Z</time></trkpt><trkpt lat="43.6656551" lon="10.6206563"><ele>15.0</ele><time>2026-03-25T12:57:46.905Z</time></trkpt><trkpt lat="43.665674" lon="10.6205207"><ele>15.0</ele><time>2026-03-25T12:57:47.904Z</time></trkpt><trkpt lat="43.6656906" lon="10.6203892"><ele>14.6</ele><time>2026-03-25T12:57:48.904Z</time></trkpt><trkpt lat="43.6657029" lon="10.6202582"><ele>14.2</ele><time>2026-03-25T12:57:49.905Z</time></trkpt><trkpt lat="43.6657205" lon="10.6201354"><ele>13.8</ele><time>2026-03-25T12:57:50.905Z</time></trkpt><trkpt lat="43.6657343" lon="10.6200141"><ele>13.4</ele><time>2026-03-25T12:57:51.905Z</time></trkpt><trkpt lat="43.6657524" lon="10.6198827"><ele>13.0</ele><time>2026-03-25T12:57:52.904Z</time></trkpt><trkpt lat="43.66577" lon="10.6197436"><ele>13.0</ele><time>2026-03-25T12:57:53.905Z</time></trkpt><trkpt lat="43.6657892" lon="10.6195953"><ele>13.0</ele><time>2026-03-25T12:57:54.904Z</time></trkpt><trkpt lat="43.665804" lon="10.6194579"><ele>13.0</ele><time>2026-03-25T12:57:55.905Z</time></trkpt><trkpt lat="43.665818" lon="10.6193318"><ele>13.0</ele><time>2026-03-25T12:57:56.905Z</time></trkpt><trkpt lat="43.6658311" lon="10.6192138"><ele>13.0</ele><time>2026-03-25T12:57:57.904Z</time></trkpt><trkpt lat="43.6658413" lon="10.6190968"><ele>13.0</ele><time>2026-03-25T12:57:58.905Z</time></trkpt><trkpt lat="43.665851" lon="10.6189801"><ele>13.0</ele><time>2026-03-25T12:57:59.906Z</time></trkpt><trkpt lat="43.665853" lon="10.6188731"><ele>13.0</ele><time>2026-03-25T12:58:00.904Z</time></trkpt><trkpt lat="43.665848" lon="10.6187136"><ele>13.0</ele><time>2026-03-25T12:58:02.905Z</time></trkpt><trkpt lat="43.6658538" lon="10.6185523"><ele>13.0</ele><time>2026-03-25T12:58:04.905Z</time></trkpt><trkpt lat="43.6658957" lon="10.6183879"><ele>12.999999999999998</ele><time>2026-03-25T12:58:06.904Z</time></trkpt><trkpt lat="43.6659268" lon="10.618293"><ele>13.0</ele><time>2026-03-25T12:58:07.905Z</time></trkpt><trkpt lat="43.6659603" lon="10.6181793"><ele>13.0</ele><time>2026-03-25T12:58:08.905Z</time></trkpt><trkpt lat="43.6659846" lon="10.6180553"><ele>13.0</ele><time>2026-03-25T12:58:09.904Z</time></trkpt><trkpt lat="43.6660026" lon="10.6179299"><ele>12.999999999999998</ele><time>2026-03-25T12:58:10.905Z</time></trkpt><trkpt lat="43.6660174" lon="10.6178102"><ele>13.0</ele><time>2026-03-25T12:58:11.904Z</time></trkpt><trkpt lat="43.6660327" lon="10.6176911"><ele>12.333333333333332</ele><time>2026-03-25T12:58:12.905Z</time></trkpt><trkpt lat="43.6660493" lon="10.6175718"><ele>11.666666666666666</ele><time>2026-03-25T12:58:13.905Z</time></trkpt><trkpt lat="43.6660702" lon="10.617454"><ele>11.0</ele><time>2026-03-25T12:58:14.905Z</time></trkpt><trkpt lat="43.6660887" lon="10.6173315"><ele>10.333333333333332</ele><time>2026-03-25T12:58:15.904Z</time></trkpt><trkpt lat="43.6661065" lon="10.6172098"><ele>9.666666666666666</ele><time>2026-03-25T12:58:16.904Z</time></trkpt><trkpt lat="43.6661241" lon="10.6170868"><ele>9.0</ele><time>2026-03-25T12:58:17.905Z</time></trkpt><trkpt lat="43.6661417" lon="10.6169627"><ele>9.0</ele><time>2026-03-25T12:58:18.905Z</time></trkpt><trkpt lat="43.6661517" lon="10.6168497"><ele>9.0</ele><time>2026-03-25T12:58:19.905Z</time></trkpt><trkpt lat="43.6661631" lon="10.616743"><ele>9.0</ele><time>2026-03-25T12:58:20.904Z</time></trkpt><trkpt lat="43.6661765" lon="10.6166331"><ele>9.0</ele><time>2026-03-25T12:58:21.904Z</time></trkpt><trkpt lat="43.6661897" lon="10.6165136"><ele>9.0</ele><time>2026-03-25T12:58:22.905Z</time></trkpt><trkpt lat="43.6662065" lon="10.6163894"><ele>9.0</ele><time>2026-03-25T12:58:23.905Z</time></trkpt><trkpt lat="43.6662278" lon="10.6162563"><ele>9.6</ele><time>2026-03-25T12:58:24.904Z</time></trkpt><trkpt lat="43.6662481" lon="10.6161198"><ele>10.2</ele><time>2026-03-25T12:58:25.905Z</time></trkpt><trkpt lat="43.666265" lon="10.6159884"><ele>10.799999999999999</ele><time>2026-03-25T12:58:26.904Z</time></trkpt><trkpt lat="43.6662786" lon="10.6158672"><ele>11.4</ele><time>2026-03-25T12:58:27.905Z</time></trkpt><trkpt lat="43.666295" lon="10.6157471"><ele>12.0</ele><time>2026-03-25T12:58:28.904Z</time></trkpt><trkpt lat="43.6663079" lon="10.6156309"><ele>11.999999999999998</ele><time>2026-03-25T12:58:29.905Z</time></trkpt><trkpt lat="43.6663216" lon="10.6155176"><ele>12.0</ele><time>2026-03-25T12:58:30.905Z</time></trkpt><trkpt lat="43.6663355" lon="10.6154101"><ele>12.0</ele><time>2026-03-25T12:58:31.904Z</time></trkpt><trkpt lat="43.6663461" lon="10.615312"><ele>12.0</ele><time>2026-03-25T12:58:32.906Z</time></trkpt><trkpt lat="43.6663604" lon="10.6152151"><ele>12.0</ele><time>2026-03-25T12:58:33.906Z</time></trkpt><trkpt lat="43.6663714" lon="10.6151227"><ele>11.999999999999998</ele><time>2026-03-25T12:58:34.905Z</time></trkpt><trkpt lat="43.6663848" lon="10.6150314"><ele>12.0</ele><time>2026-03-25T12:58:35.905Z</time></trkpt><trkpt lat="43.6663975" lon="10.6149402"><ele>11.999999999999998</ele><time>2026-03-25T12:58:36.904Z</time></trkpt><trkpt lat="43.6664109" lon="10.6148359"><ele>12.0</ele><time>2026-03-25T12:58:37.905Z</time></trkpt><trkpt lat="43.6664238" lon="10.6147282"><ele>12.0</ele><time>2026-03-25T12:58:38.905Z</time></trkpt><trkpt lat="43.6664375" lon="10.6146282"><ele>12.0</ele><time>2026-03-25T12:58:39.904Z</time></trkpt><trkpt lat="43.6664481" lon="10.6145287"><ele>12.0</ele><time>2026-03-25T12:58:40.905Z</time></trkpt><trkpt lat="43.6664564" lon="10.6144344"><ele>11.999999999999998</ele><time>2026-03-25T12:58:41.905Z</time></trkpt><trkpt lat="43.6664674" lon="10.6143357"><ele>12.0</ele><time>2026-03-25T12:58:42.905Z</time></trkpt><trkpt lat="43.6664756" lon="10.6142439"><ele>12.0</ele><time>2026-03-25T12:58:43.905Z</time></trkpt><trkpt lat="43.6664828" lon="10.6141552"><ele>12.0</ele><time>2026-03-25T12:58:44.904Z</time></trkpt><trkpt lat="43.6664923" lon="10.6140055"><ele>12.0</ele><time>2026-03-25T12:58:46.904Z</time></trkpt><trkpt lat="43.6665307" lon="10.613864"><ele>12.0</ele><time>2026-03-25T12:58:48.904Z</time></trkpt><trkpt lat="43.6665583" lon="10.6137728"><ele>12.0</ele><time>2026-03-25T12:58:49.905Z</time></trkpt><trkpt lat="43.6665803" lon="10.6136744"><ele>12.0</ele><time>2026-03-25T12:58:50.906Z</time></trkpt><trkpt lat="43.6665917" lon="10.6135654"><ele>12.0</ele><time>2026-03-25T12:58:51.906Z</time></trkpt><trkpt lat="43.6665964" lon="10.6134367"><ele>12.0</ele><time>2026-03-25T12:58:52.904Z</time></trkpt><trkpt lat="43.6666034" lon="10.6132857"><ele>12.0</ele><time>2026-03-25T12:58:53.904Z</time></trkpt><trkpt lat="43.6666177" lon="10.6131355"><ele>12.0</ele><time>2026-03-25T12:58:54.905Z</time></trkpt><trkpt lat="43.6666341" lon="10.6129858"><ele>12.0</ele><time>2026-03-25T12:58:55.905Z</time></trkpt><trkpt lat="43.6666532" lon="10.6128335"><ele>12.0</ele><time>2026-03-25T12:58:56.904Z</time></trkpt><trkpt lat="43.6666723" lon="10.6126801"><ele>12.0</ele><time>2026-03-25T12:58:57.906Z</time></trkpt><trkpt lat="43.6666938" lon="10.612529"><ele>12.0</ele><time>2026-03-25T12:58:58.904Z</time></trkpt><trkpt lat="43.6667151" lon="10.6123822"><ele>12.0</ele><time>2026-03-25T12:58:59.905Z</time></trkpt><trkpt lat="43.6667578" lon="10.6120727"><ele>12.0</ele><time>2026-03-25T12:59:01.904Z</time></trkpt><trkpt lat="43.666779" lon="10.6119105"><ele>12.0</ele><time>2026-03-25T12:59:02.905Z</time></trkpt><trkpt lat="43.6667985" lon="10.6117461"><ele>12.0</ele><time>2026-03-25T12:59:03.905Z</time></trkpt><trkpt lat="43.6668182" lon="10.6115855"><ele>12.0</ele><time>2026-03-25T12:59:04.905Z</time></trkpt><trkpt lat="43.6668373" lon="10.6114308"><ele>12.0</ele><time>2026-03-25T12:59:05.905Z</time></trkpt><trkpt lat="43.6668567" lon="10.6112748"><ele>12.0</ele><time>2026-03-25T12:59:06.906Z</time></trkpt><trkpt lat="43.6668753" lon="10.6111184"><ele>12.0</ele><time>2026-03-25T12:59:07.904Z</time></trkpt><trkpt lat="43.6668965" lon="10.61096"><ele>12.0</ele><time>2026-03-25T12:59:08.904Z</time></trkpt><trkpt lat="43.6669183" lon="10.6107961"><ele>12.25</ele><time>2026-03-25T12:59:09.905Z</time></trkpt><trkpt lat="43.6669406" lon="10.6106235"><ele>12.5</ele><time>2026-03-25T12:59:10.904Z</time></trkpt><trkpt lat="43.6669671" lon="10.6104457"><ele>12.75</ele><time>2026-03-25T12:59:11.904Z</time></trkpt><trkpt lat="43.6669901" lon="10.6102603"><ele>13.0</ele><time>2026-03-25T12:59:12.904Z</time></trkpt><trkpt lat="43.6670462" lon="10.6098174"><ele>13.333333333333332</ele><time>2026-03-25T12:59:15.452Z</time></trkpt><trkpt lat="43.6670768" lon="10.6095491"><ele>13.666666666666668</ele><time>2026-03-25T12:59:16.905Z</time></trkpt><trkpt lat="43.6670969" lon="10.6093685"><ele>14.0</ele><time>2026-03-25T12:59:17.905Z</time></trkpt><trkpt lat="43.6671223" lon="10.6091977"><ele>13.5</ele><time>2026-03-25T12:59:18.905Z</time></trkpt><trkpt lat="43.6671418" lon="10.609022"><ele>13.0</ele><time>2026-03-25T12:59:19.904Z</time></trkpt><trkpt lat="43.6671659" lon="10.6088424"><ele>12.5</ele><time>2026-03-25T12:59:20.904Z</time></trkpt><trkpt lat="43.6671831" lon="10.6086521"><ele>12.0</ele><time>2026-03-25T12:59:21.906Z</time></trkpt><trkpt lat="43.6672098" lon="10.6084579"><ele>11.666666666666666</ele><time>2026-03-25T12:59:22.905Z</time></trkpt><trkpt lat="43.6672345" lon="10.6082511"><ele>11.333333333333332</ele><time>2026-03-25T12:59:23.905Z</time></trkpt><trkpt lat="43.6672637" lon="10.6080298"><ele>11.0</ele><time>2026-03-25T12:59:24.905Z</time></trkpt><trkpt lat="43.6672922" lon="10.6078152"><ele>11.0</ele><time>2026-03-25T12:59:25.905Z</time></trkpt><trkpt lat="43.6673179" lon="10.6076105"><ele>11.0</ele><time>2026-03-25T12:59:26.905Z</time></trkpt><trkpt lat="43.6673444" lon="10.607405"><ele>11.0</ele><time>2026-03-25T12:59:27.905Z</time></trkpt><trkpt lat="43.6673721" lon="10.6071955"><ele>11.25</ele><time>2026-03-25T12:59:28.904Z</time></trkpt><trkpt lat="43.6673981" lon="10.6069836"><ele>11.5</ele><time>2026-03-25T12:59:29.905Z</time></trkpt><trkpt lat="43.6674226" lon="10.6067833"><ele>11.75</ele><time>2026-03-25T12:59:30.904Z</time></trkpt><trkpt lat="43.6674503" lon="10.6065868"><ele>12.0</ele><time>2026-03-25T12:59:31.904Z</time></trkpt><trkpt lat="43.6674796" lon="10.606393"><ele>12.0</ele><time>2026-03-25T12:59:32.905Z</time></trkpt><trkpt lat="43.6675031" lon="10.6062054"><ele>12.0</ele><time>2026-03-25T12:59:33.905Z</time></trkpt><trkpt lat="43.6675275" lon="10.6059997"><ele>12.0</ele><time>2026-03-25T12:59:34.905Z</time></trkpt><trkpt lat="43.6675483" lon="10.6058256"><ele>12.0</ele><time>2026-03-25T12:59:35.905Z</time></trkpt><trkpt lat="43.6675663" lon="10.6056906"><ele>12.0</ele><time>2026-03-25T12:59:36.904Z</time></trkpt><trkpt lat="43.667587" lon="10.6055331"><ele>12.0</ele><time>2026-03-25T12:59:37.905Z</time></trkpt><trkpt lat="43.6676042" lon="10.6053814"><ele>12.0</ele><time>2026-03-25T12:59:38.904Z</time></trkpt><trkpt lat="43.6676196" lon="10.6052382"><ele>12.0</ele><time>2026-03-25T12:59:39.905Z</time></trkpt><trkpt lat="43.6676363" lon="10.6050966"><ele>12.0</ele><time>2026-03-25T12:59:40.904Z</time></trkpt><trkpt lat="43.6676577" lon="10.604942"><ele>12.0</ele><time>2026-03-25T12:59:41.905Z</time></trkpt><trkpt lat="43.6676758" lon="10.6047713"><ele>12.0</ele><time>2026-03-25T12:59:42.904Z</time></trkpt><trkpt lat="43.6676947" lon="10.6045882"><ele>12.0</ele><time>2026-03-25T12:59:43.905Z</time></trkpt><trkpt lat="43.667715" lon="10.6043996"><ele>12.0</ele><time>2026-03-25T12:59:44.904Z</time></trkpt><trkpt lat="43.6677364" lon="10.6042203"><ele>12.0</ele><time>2026-03-25T12:59:45.905Z</time></trkpt><trkpt lat="43.6677574" lon="10.6040394"><ele>12.0</ele><time>2026-03-25T12:59:46.905Z</time></trkpt><trkpt lat="43.6677822" lon="10.6038547"><ele>12.0</ele><time>2026-03-25T12:59:47.904Z</time></trkpt><trkpt lat="43.6678073" lon="10.6036764"><ele>12.0</ele><time>2026-03-25T12:59:48.905Z</time></trkpt><trkpt lat="43.6678309" lon="10.6035046"><ele>12.0</ele><time>2026-03-25T12:59:49.905Z</time></trkpt><trkpt lat="43.6678516" lon="10.6033418"><ele>12.0</ele><time>2026-03-25T12:59:50.904Z</time></trkpt><trkpt lat="43.6678713" lon="10.6031837"><ele>12.0</ele><time>2026-03-25T12:59:51.905Z</time></trkpt><trkpt lat="43.667894" lon="10.603028"><ele>12.0</ele><time>2026-03-25T12:59:52.906Z</time></trkpt><trkpt lat="43.6679132" lon="10.6028823"><ele>12.0</ele><time>2026-03-25T12:59:53.904Z</time></trkpt><trkpt lat="43.6679317" lon="10.6027456"><ele>12.0</ele><time>2026-03-25T12:59:54.904Z</time></trkpt><trkpt lat="43.6679436" lon="10.6026191"><ele>12.0</ele><time>2026-03-25T12:59:55.904Z</time></trkpt><trkpt lat="43.6679583" lon="10.6025011"><ele>12.0</ele><time>2026-03-25T12:59:56.905Z</time></trkpt><trkpt lat="43.6679716" lon="10.6023853"><ele>12.0</ele><time>2026-03-25T12:59:57.905Z</time></trkpt><trkpt lat="43.6679881" lon="10.6022691"><ele>12.0</ele><time>2026-03-25T12:59:58.904Z</time></trkpt><trkpt lat="43.6679992" lon="10.6021459"><ele>12.0</ele><time>2026-03-25T12:59:59.905Z</time></trkpt><trkpt lat="43.6680155" lon="10.6020201"><ele>12.0</ele><time>2026-03-25T13:00:00.905Z</time></trkpt><trkpt lat="43.6680348" lon="10.6018905"><ele>12.0</ele><time>2026-03-25T13:00:01.905Z</time></trkpt><trkpt lat="43.6680565" lon="10.601746"><ele>12.0</ele><time>2026-03-25T13:00:02.905Z</time></trkpt><trkpt lat="43.668077" lon="10.6015877"><ele>11.5</ele><time>2026-03-25T13:00:03.905Z</time></trkpt><trkpt lat="43.6680981" lon="10.6014203"><ele>11.0</ele><time>2026-03-25T13:00:04.905Z</time></trkpt><trkpt lat="43.6681199" lon="10.60124"><ele>10.5</ele><time>2026-03-25T13:00:05.905Z</time></trkpt><trkpt lat="43.6681425" lon="10.6010561"><ele>10.0</ele><time>2026-03-25T13:00:06.905Z</time></trkpt><trkpt lat="43.6681665" lon="10.6008647"><ele>10.0</ele><time>2026-03-25T13:00:07.904Z</time></trkpt><trkpt lat="43.66819" lon="10.6006738"><ele>10.0</ele><time>2026-03-25T13:00:08.905Z</time></trkpt><trkpt lat="43.6682138" lon="10.6004824"><ele>10.0</ele><time>2026-03-25T13:00:09.905Z</time></trkpt><trkpt lat="43.6682372" lon="10.6002872"><ele>10.0</ele><time>2026-03-25T13:00:10.905Z</time></trkpt><trkpt lat="43.6682579" lon="10.6000887"><ele>10.0</ele><time>2026-03-25T13:00:11.906Z</time></trkpt><trkpt lat="43.6682803" lon="10.5998792"><ele>10.0</ele><time>2026-03-25T13:00:12.906Z</time></trkpt><trkpt lat="43.6683051" lon="10.5996609"><ele>10.0</ele><time>2026-03-25T13:00:13.905Z</time></trkpt><trkpt lat="43.6683295" lon="10.5994435"><ele>10.25</ele><time>2026-03-25T13:00:14.906Z</time></trkpt><trkpt lat="43.6683558" lon="10.599242"><ele>10.5</ele><time>2026-03-25T13:00:15.905Z</time></trkpt><trkpt lat="43.668385" lon="10.5990469"><ele>10.75</ele><time>2026-03-25T13:00:16.904Z</time></trkpt><trkpt lat="43.6684171" lon="10.5988543"><ele>11.0</ele><time>2026-03-25T13:00:17.905Z</time></trkpt><trkpt lat="43.6684494" lon="10.5986624"><ele>11.0</ele><time>2026-03-25T13:00:18.904Z</time></trkpt><trkpt lat="43.668477" lon="10.5984791"><ele>11.0</ele><time>2026-03-25T13:00:19.904Z</time></trkpt><trkpt lat="43.6684977" lon="10.5983041"><ele>11.0</ele><time>2026-03-25T13:00:20.904Z</time></trkpt><trkpt lat="43.6685169" lon="10.5981371"><ele>11.0</ele><time>2026-03-25T13:00:21.905Z</time></trkpt><trkpt lat="43.668537" lon="10.597975"><ele>11.0</ele><time>2026-03-25T13:00:22.905Z</time></trkpt><trkpt lat="43.6685577" lon="10.5978169"><ele>11.0</ele><time>2026-03-25T13:00:23.905Z</time></trkpt><trkpt lat="43.6685747" lon="10.5976632"><ele>11.0</ele><time>2026-03-25T13:00:24.905Z</time></trkpt><trkpt lat="43.6685929" lon="10.5975124"><ele>11.0</ele><time>2026-03-25T13:00:25.904Z</time></trkpt><trkpt lat="43.6686125" lon="10.5973613"><ele>11.0</ele><time>2026-03-25T13:00:26.906Z</time></trkpt><trkpt lat="43.6686324" lon="10.5972077"><ele>11.0</ele><time>2026-03-25T13:00:27.904Z</time></trkpt><trkpt lat="43.6686579" lon="10.597053"><ele>11.0</ele><time>2026-03-25T13:00:28.905Z</time></trkpt><trkpt lat="43.6686816" lon="10.5968899"><ele>11.0</ele><time>2026-03-25T13:00:29.905Z</time></trkpt><trkpt lat="43.6686973" lon="10.5967133"><ele>11.25</ele><time>2026-03-25T13:00:30.904Z</time></trkpt><trkpt lat="43.6687113" lon="10.5965249"><ele>11.5</ele><time>2026-03-25T13:00:31.904Z</time></trkpt><trkpt lat="43.6687293" lon="10.5963321"><ele>11.75</ele><time>2026-03-25T13:00:32.905Z</time></trkpt><trkpt lat="43.6687508" lon="10.5961313"><ele>12.0</ele><time>2026-03-25T13:00:33.904Z</time></trkpt><trkpt lat="43.6687746" lon="10.5959269"><ele>12.0</ele><time>2026-03-25T13:00:34.905Z</time></trkpt><trkpt lat="43.6688012" lon="10.5957256"><ele>12.0</ele><time>2026-03-25T13:00:35.905Z</time></trkpt><trkpt lat="43.6688249" lon="10.5955359"><ele>12.0</ele><time>2026-03-25T13:00:36.904Z</time></trkpt><trkpt lat="43.6688476" lon="10.5953561"><ele>12.0</ele><time>2026-03-25T13:00:37.905Z</time></trkpt><trkpt lat="43.6688665" lon="10.5951848"><ele>12.0</ele><time>2026-03-25T13:00:38.906Z</time></trkpt><trkpt lat="43.6688853" lon="10.5950257"><ele>12.0</ele><time>2026-03-25T13:00:39.905Z</time></trkpt><trkpt lat="43.6689038" lon="10.5948806"><ele>12.0</ele><time>2026-03-25T13:00:40.905Z</time></trkpt><trkpt lat="43.668924" lon="10.5947444"><ele>12.0</ele><time>2026-03-25T13:00:41.904Z</time></trkpt><trkpt lat="43.6689435" lon="10.5946091"><ele>12.0</ele><time>2026-03-25T13:00:42.906Z</time></trkpt><trkpt lat="43.6689623" lon="10.5944732"><ele>12.0</ele><time>2026-03-25T13:00:43.905Z</time></trkpt><trkpt lat="43.6689804" lon="10.5943367"><ele>12.0</ele><time>2026-03-25T13:00:44.905Z</time></trkpt><trkpt lat="43.6689976" lon="10.5942005"><ele>12.0</ele><time>2026-03-25T13:00:45.904Z</time></trkpt><trkpt lat="43.6690119" lon="10.5940617"><ele>12.0</ele><time>2026-03-25T13:00:46.905Z</time></trkpt><trkpt lat="43.6690298" lon="10.5939113"><ele>12.0</ele><time>2026-03-25T13:00:47.906Z</time></trkpt><trkpt lat="43.6690473" lon="10.5937607"><ele>12.399999999999999</ele><time>2026-03-25T13:00:48.905Z</time></trkpt><trkpt lat="43.6690636" lon="10.5936222"><ele>12.799999999999999</ele><time>2026-03-25T13:00:49.905Z</time></trkpt><trkpt lat="43.6690804" lon="10.5934964"><ele>13.2</ele><time>2026-03-25T13:00:50.905Z</time></trkpt><trkpt lat="43.6690965" lon="10.5933759"><ele>13.6</ele><time>2026-03-25T13:00:51.905Z</time></trkpt><trkpt lat="43.6691114" lon="10.5932548"><ele>14.0</ele><time>2026-03-25T13:00:52.904Z</time></trkpt><trkpt lat="43.6691245" lon="10.5931301"><ele>14.0</ele><time>2026-03-25T13:00:53.904Z</time></trkpt><trkpt lat="43.6691404" lon="10.5929854"><ele>14.0</ele><time>2026-03-25T13:00:54.904Z</time></trkpt><trkpt lat="43.6691585" lon="10.5928136"><ele>14.0</ele><time>2026-03-25T13:00:55.905Z</time></trkpt><trkpt lat="43.6691801" lon="10.5926074"><ele>14.0</ele><time>2026-03-25T13:00:56.905Z</time></trkpt><trkpt lat="43.6692114" lon="10.5923813"><ele>13.666666666666668</ele><time>2026-03-25T13:00:57.905Z</time></trkpt><trkpt lat="43.6692536" lon="10.5921341"><ele>13.333333333333332</ele><time>2026-03-25T13:00:58.905Z</time></trkpt><trkpt lat="43.6692934" lon="10.5918557"><ele>13.0</ele><time>2026-03-25T13:00:59.906Z</time></trkpt><trkpt lat="43.6693332" lon="10.5915652"><ele>13.0</ele><time>2026-03-25T13:01:00.906Z</time></trkpt><trkpt lat="43.669372" lon="10.5912737"><ele>13.0</ele><time>2026-03-25T13:01:01.904Z</time></trkpt><trkpt lat="43.6694072" lon="10.590989"><ele>13.0</ele><time>2026-03-25T13:01:02.905Z</time></trkpt><trkpt lat="43.6694409" lon="10.5906929"><ele>12.333333333333332</ele><time>2026-03-25T13:01:03.905Z</time></trkpt><trkpt lat="43.669477" lon="10.5904025"><ele>11.666666666666666</ele><time>2026-03-25T13:01:04.904Z</time></trkpt><trkpt lat="43.6695116" lon="10.5901208"><ele>11.0</ele><time>2026-03-25T13:01:05.905Z</time></trkpt><trkpt lat="43.6695464" lon="10.5898451"><ele>11.0</ele><time>2026-03-25T13:01:06.905Z</time></trkpt><trkpt lat="43.6695804" lon="10.5895689"><ele>11.0</ele><time>2026-03-25T13:01:07.905Z</time></trkpt><trkpt lat="43.669617" lon="10.5893029"><ele>11.0</ele><time>2026-03-25T13:01:08.905Z</time></trkpt><trkpt lat="43.6696514" lon="10.5890487"><ele>11.0</ele><time>2026-03-25T13:01:09.905Z</time></trkpt><trkpt lat="43.6696828" lon="10.5888109"><ele>11.0</ele><time>2026-03-25T13:01:10.905Z</time></trkpt><trkpt lat="43.6697114" lon="10.5885879"><ele>11.0</ele><time>2026-03-25T13:01:11.905Z</time></trkpt><trkpt lat="43.6697389" lon="10.5883804"><ele>11.25</ele><time>2026-03-25T13:01:12.905Z</time></trkpt><trkpt lat="43.6697652" lon="10.588188"><ele>11.5</ele><time>2026-03-25T13:01:13.904Z</time></trkpt><trkpt lat="43.6697912" lon="10.588006"><ele>11.75</ele><time>2026-03-25T13:01:14.904Z</time></trkpt><trkpt lat="43.6698136" lon="10.5878268"><ele>12.0</ele><time>2026-03-25T13:01:15.904Z</time></trkpt><trkpt lat="43.6698338" lon="10.5876444"><ele>11.75</ele><time>2026-03-25T13:01:16.904Z</time></trkpt><trkpt lat="43.6698535" lon="10.5874571"><ele>11.5</ele><time>2026-03-25T13:01:17.906Z</time></trkpt><trkpt lat="43.6698775" lon="10.5872671"><ele>11.25</ele><time>2026-03-25T13:01:18.905Z</time></trkpt><trkpt lat="43.6699014" lon="10.5870661"><ele>11.0</ele><time>2026-03-25T13:01:19.905Z</time></trkpt><trkpt lat="43.6699262" lon="10.5868465"><ele>11.0</ele><time>2026-03-25T13:01:20.905Z</time></trkpt><trkpt lat="43.6699535" lon="10.586607"><ele>11.0</ele><time>2026-03-25T13:01:21.906Z</time></trkpt><trkpt lat="43.6699855" lon="10.5863582"><ele>11.0</ele><time>2026-03-25T13:01:22.904Z</time></trkpt><trkpt lat="43.6700195" lon="10.5861141"><ele>11.666666666666666</ele><time>2026-03-25T13:01:23.904Z</time></trkpt><trkpt lat="43.6700522" lon="10.5858782"><ele>12.333333333333332</ele><time>2026-03-25T13:01:24.904Z</time></trkpt><trkpt lat="43.6700811" lon="10.5856608"><ele>13.0</ele><time>2026-03-25T13:01:25.905Z</time></trkpt><trkpt lat="43.6701081" lon="10.585454"><ele>13.0</ele><time>2026-03-25T13:01:26.905Z</time></trkpt><trkpt lat="43.6701298" lon="10.585254"><ele>13.0</ele><time>2026-03-25T13:01:27.905Z</time></trkpt><trkpt lat="43.6701517" lon="10.5850679"><ele>13.0</ele><time>2026-03-25T13:01:28.904Z</time></trkpt><trkpt lat="43.670172" lon="10.5848927"><ele>13.0</ele><time>2026-03-25T13:01:29.906Z</time></trkpt><trkpt lat="43.6701915" lon="10.5847117"><ele>13.0</ele><time>2026-03-25T13:01:30.905Z</time></trkpt><trkpt lat="43.6702106" lon="10.5845167"><ele>13.0</ele><time>2026-03-25T13:01:31.905Z</time></trkpt><trkpt lat="43.670232" lon="10.5843237"><ele>13.0</ele><time>2026-03-25T13:01:32.904Z</time></trkpt><trkpt lat="43.6702573" lon="10.584141"><ele>13.0</ele><time>2026-03-25T13:01:33.906Z</time></trkpt><trkpt lat="43.6702837" lon="10.5839595"><ele>12.5</ele><time>2026-03-25T13:01:34.905Z</time></trkpt><trkpt lat="43.670306" lon="10.5837797"><ele>12.0</ele><time>2026-03-25T13:01:35.905Z</time></trkpt><trkpt lat="43.6703267" lon="10.5836114"><ele>11.5</ele><time>2026-03-25T13:01:36.904Z</time></trkpt><trkpt lat="43.6703451" lon="10.5834558"><ele>11.0</ele><time>2026-03-25T13:01:37.905Z</time></trkpt><trkpt lat="43.6703588" lon="10.583305"><ele>11.0</ele><time>2026-03-25T13:01:38.905Z</time></trkpt><trkpt lat="43.6703759" lon="10.5831403"><ele>11.0</ele><time>2026-03-25T13:01:39.905Z</time></trkpt><trkpt lat="43.6703947" lon="10.5829593"><ele>11.0</ele><time>2026-03-25T13:01:40.904Z</time></trkpt><trkpt lat="43.6704145" lon="10.5827699"><ele>11.0</ele><time>2026-03-25T13:01:41.905Z</time></trkpt><trkpt lat="43.6704345" lon="10.5825889"><ele>11.0</ele><time>2026-03-25T13:01:42.904Z</time></trkpt><trkpt lat="43.6704546" lon="10.5824252"><ele>11.0</ele><time>2026-03-25T13:01:43.905Z</time></trkpt><trkpt lat="43.6704768" lon="10.5822771"><ele>11.0</ele><time>2026-03-25T13:01:44.905Z</time></trkpt><trkpt lat="43.6705019" lon="10.5821356"><ele>11.0</ele><time>2026-03-25T13:01:45.905Z</time></trkpt><trkpt lat="43.6705293" lon="10.5820046"><ele>11.0</ele><time>2026-03-25T13:01:46.906Z</time></trkpt><trkpt lat="43.6705553" lon="10.5818822"><ele>10.833333333333332</ele><time>2026-03-25T13:01:47.904Z</time></trkpt><trkpt lat="43.6705803" lon="10.5817652"><ele>10.666666666666666</ele><time>2026-03-25T13:01:48.905Z</time></trkpt><trkpt lat="43.6706047" lon="10.5816534"><ele>10.5</ele><time>2026-03-25T13:01:49.905Z</time></trkpt><trkpt lat="43.670627" lon="10.5815475"><ele>10.333333333333334</ele><time>2026-03-25T13:01:50.906Z</time></trkpt><trkpt lat="43.6706448" lon="10.5814525"><ele>10.166666666666668</ele><time>2026-03-25T13:01:51.904Z</time></trkpt><trkpt lat="43.6706956" lon="10.5813331"><ele>10.0</ele><time>2026-03-25T13:01:53.904Z</time></trkpt><trkpt lat="43.6707847" lon="10.5813158"><ele>10.0</ele><time>2026-03-25T13:01:55.904Z</time></trkpt><trkpt lat="43.6709074" lon="10.581361"><ele>10.0</ele><time>2026-03-25T13:01:57.905Z</time></trkpt><trkpt lat="43.6709877" lon="10.5814024"><ele>10.0</ele><time>2026-03-25T13:01:58.904Z</time></trkpt><trkpt lat="43.6710803" lon="10.5814416"><ele>10.0</ele><time>2026-03-25T13:01:59.904Z</time></trkpt><trkpt lat="43.6711764" lon="10.5814826"><ele>10.0</ele><time>2026-03-25T13:02:00.905Z</time></trkpt><trkpt lat="43.6712782" lon="10.5815258"><ele>10.25</ele><time>2026-03-25T13:02:01.904Z</time></trkpt><trkpt lat="43.6713825" lon="10.5815644"><ele>10.5</ele><time>2026-03-25T13:02:02.905Z</time></trkpt><trkpt lat="43.6714896" lon="10.5816233"><ele>10.75</ele><time>2026-03-25T13:02:03.905Z</time></trkpt><trkpt lat="43.6715949" lon="10.5816796"><ele>11.0</ele><time>2026-03-25T13:02:04.905Z</time></trkpt><trkpt lat="43.6717031" lon="10.5817352"><ele>11.0</ele><time>2026-03-25T13:02:05.904Z</time></trkpt><trkpt lat="43.6718177" lon="10.5817927"><ele>11.0</ele><time>2026-03-25T13:02:06.903Z</time></trkpt><trkpt lat="43.6719405" lon="10.581852"><ele>11.0</ele><time>2026-03-25T13:02:07.904Z</time></trkpt><trkpt lat="43.6720613" lon="10.5819176"><ele>11.0</ele><time>2026-03-25T13:02:08.903Z</time></trkpt><trkpt lat="43.6721844" lon="10.5819811"><ele>10.25</ele><time>2026-03-25T13:02:09.903Z</time></trkpt><trkpt lat="43.6723101" lon="10.5820446"><ele>9.5</ele><time>2026-03-25T13:02:10.904Z</time></trkpt><trkpt lat="43.6724349" lon="10.5821094"><ele>8.75</ele><time>2026-03-25T13:02:11.905Z</time></trkpt><trkpt lat="43.6725583" lon="10.5821765"><ele>8.0</ele><time>2026-03-25T13:02:12.904Z</time></trkpt><trkpt lat="43.6726769" lon="10.5822452"><ele>8.75</ele><time>2026-03-25T13:02:13.904Z</time></trkpt><trkpt lat="43.672796" lon="10.5823044"><ele>9.5</ele><time>2026-03-25T13:02:14.903Z</time></trkpt><trkpt lat="43.6729145" lon="10.5823633"><ele>10.25</ele><time>2026-03-25T13:02:15.905Z</time></trkpt><trkpt lat="43.6730293" lon="10.5824236"><ele>11.0</ele><time>2026-03-25T13:02:16.903Z</time></trkpt><trkpt lat="43.6731512" lon="10.5824878"><ele>11.0</ele><time>2026-03-25T13:02:17.905Z</time></trkpt><trkpt lat="43.6732729" lon="10.582553"><ele>11.0</ele><time>2026-03-25T13:02:18.904Z</time></trkpt><trkpt lat="43.6733915" lon="10.5826108"><ele>11.0</ele><time>2026-03-25T13:02:19.905Z</time></trkpt><trkpt lat="43.6735053" lon="10.5826705"><ele>11.0</ele><time>2026-03-25T13:02:20.903Z</time></trkpt><trkpt lat="43.6736216" lon="10.5827384"><ele>11.25</ele><time>2026-03-25T13:02:21.903Z</time></trkpt><trkpt lat="43.6737442" lon="10.5828091"><ele>11.5</ele><time>2026-03-25T13:02:22.903Z</time></trkpt><trkpt lat="43.6738692" lon="10.5828721"><ele>11.75</ele><time>2026-03-25T13:02:23.904Z</time></trkpt><trkpt lat="43.673995" lon="10.582932"><ele>12.0</ele><time>2026-03-25T13:02:24.903Z</time></trkpt><trkpt lat="43.6741124" lon="10.5830009"><ele>11.5</ele><time>2026-03-25T13:02:25.903Z</time></trkpt><trkpt lat="43.674229" lon="10.5830679"><ele>11.0</ele><time>2026-03-25T13:02:26.905Z</time></trkpt><trkpt lat="43.6743486" lon="10.5831375"><ele>10.5</ele><time>2026-03-25T13:02:27.905Z</time></trkpt><trkpt lat="43.6744662" lon="10.5832001"><ele>10.0</ele><time>2026-03-25T13:02:28.904Z</time></trkpt><trkpt lat="43.6745807" lon="10.5832598"><ele>10.0</ele><time>2026-03-25T13:02:29.903Z</time></trkpt><trkpt lat="43.6746901" lon="10.5833079"><ele>10.0</ele><time>2026-03-25T13:02:30.903Z</time></trkpt><trkpt lat="43.6747875" lon="10.5833491"><ele>10.0</ele><time>2026-03-25T13:02:31.905Z</time></trkpt><trkpt lat="43.6748689" lon="10.5833807"><ele>10.0</ele><time>2026-03-25T13:02:32.904Z</time></trkpt><trkpt lat="43.6749688" lon="10.5834135"><ele>10.0</ele><time>2026-03-25T13:02:34.903Z</time></trkpt><trkpt lat="43.6750566" lon="10.583441"><ele>10.0</ele><time>2026-03-25T13:02:36.903Z</time></trkpt><trkpt lat="43.6751748" lon="10.5834759"><ele>10.0</ele><time>2026-03-25T13:02:38.904Z</time></trkpt><trkpt lat="43.6752854" lon="10.583449"><ele>10.0</ele><time>2026-03-25T13:02:40.904Z</time></trkpt><trkpt lat="43.6753655" lon="10.5833237"><ele>10.0</ele><time>2026-03-25T13:02:42.904Z</time></trkpt><trkpt lat="43.6753569" lon="10.583161"><ele>10.0</ele><time>2026-03-25T13:02:44.905Z</time></trkpt><trkpt lat="43.6753191" lon="10.5830839"><ele>10.0</ele><time>2026-03-25T13:02:45.904Z</time></trkpt><trkpt lat="43.6752635" lon="10.583007"><ele>10.0</ele><time>2026-03-25T13:02:46.903Z</time></trkpt><trkpt lat="43.6751997" lon="10.5829255"><ele>10.0</ele><time>2026-03-25T13:02:47.904Z</time></trkpt><trkpt lat="43.6751394" lon="10.5828239"><ele>10.0</ele><time>2026-03-25T13:02:48.903Z</time></trkpt><trkpt lat="43.6750747" lon="10.5826951"><ele>10.0</ele><time>2026-03-25T13:02:49.903Z</time></trkpt><trkpt lat="43.6750118" lon="10.5825476"><ele>9.5</ele><time>2026-03-25T13:02:50.905Z</time></trkpt><trkpt lat="43.6749478" lon="10.5823937"><ele>9.0</ele><time>2026-03-25T13:02:51.903Z</time></trkpt><trkpt lat="43.6748776" lon="10.5822119"><ele>8.5</ele><time>2026-03-25T13:02:52.903Z</time></trkpt><trkpt lat="43.6748089" lon="10.5820055"><ele>8.0</ele><time>2026-03-25T13:02:53.904Z</time></trkpt><trkpt lat="43.6747458" lon="10.5817823"><ele>8.0</ele><time>2026-03-25T13:02:54.904Z</time></trkpt><trkpt lat="43.6746858" lon="10.5815476"><ele>8.0</ele><time>2026-03-25T13:02:55.904Z</time></trkpt><trkpt lat="43.6746339" lon="10.5813219"><ele>8.0</ele><time>2026-03-25T13:02:56.904Z</time></trkpt><trkpt lat="43.6745865" lon="10.5810995"><ele>8.333333333333332</ele><time>2026-03-25T13:02:57.904Z</time></trkpt><trkpt lat="43.6745412" lon="10.5808883"><ele>8.666666666666666</ele><time>2026-03-25T13:02:58.905Z</time></trkpt><trkpt lat="43.6744982" lon="10.5806807"><ele>9.0</ele><time>2026-03-25T13:02:59.903Z</time></trkpt><trkpt lat="43.6744547" lon="10.58048"><ele>10.0</ele><time>2026-03-25T13:03:00.903Z</time></trkpt><trkpt lat="43.6744145" lon="10.5802806"><ele>11.0</ele><time>2026-03-25T13:03:01.904Z</time></trkpt><trkpt lat="43.6743695" lon="10.5800755"><ele>12.0</ele><time>2026-03-25T13:03:02.903Z</time></trkpt><trkpt lat="43.6743257" lon="10.5798628"><ele>12.0</ele><time>2026-03-25T13:03:03.903Z</time></trkpt><trkpt lat="43.6742788" lon="10.5796347"><ele>12.0</ele><time>2026-03-25T13:03:04.903Z</time></trkpt><trkpt lat="43.6742296" lon="10.5794076"><ele>12.0</ele><time>2026-03-25T13:03:05.903Z</time></trkpt><trkpt lat="43.6741819" lon="10.5791769"><ele>12.0</ele><time>2026-03-25T13:03:06.904Z</time></trkpt><trkpt lat="43.6741311" lon="10.5789557"><ele>12.0</ele><time>2026-03-25T13:03:07.903Z</time></trkpt><trkpt lat="43.6740816" lon="10.5787402"><ele>12.0</ele><time>2026-03-25T13:03:08.903Z</time></trkpt><trkpt lat="43.6740249" lon="10.5785409"><ele>12.0</ele><time>2026-03-25T13:03:09.905Z</time></trkpt><trkpt lat="43.6739582" lon="10.5783394"><ele>12.0</ele><time>2026-03-25T13:03:10.904Z</time></trkpt><trkpt lat="43.6738864" lon="10.578138"><ele>12.0</ele><time>2026-03-25T13:03:11.903Z</time></trkpt><trkpt lat="43.6738092" lon="10.5779516"><ele>12.0</ele><time>2026-03-25T13:03:12.904Z</time></trkpt><trkpt lat="43.6737317" lon="10.5777795"><ele>12.0</ele><time>2026-03-25T13:03:13.904Z</time></trkpt><trkpt lat="43.6736518" lon="10.5776233"><ele>12.0</ele><time>2026-03-25T13:03:14.904Z</time></trkpt><trkpt lat="43.6735683" lon="10.5774761"><ele>12.0</ele><time>2026-03-25T13:03:15.903Z</time></trkpt><trkpt lat="43.6734844" lon="10.57733"><ele>12.75</ele><time>2026-03-25T13:03:16.903Z</time></trkpt><trkpt lat="43.6733984" lon="10.5771885"><ele>13.5</ele><time>2026-03-25T13:03:17.904Z</time></trkpt><trkpt lat="43.6733076" lon="10.5770426"><ele>14.25</ele><time>2026-03-25T13:03:18.904Z</time></trkpt><trkpt lat="43.6732126" lon="10.5768997"><ele>15.0</ele><time>2026-03-25T13:03:19.903Z</time></trkpt><trkpt lat="43.6731129" lon="10.5767501"><ele>15.0</ele><time>2026-03-25T13:03:20.904Z</time></trkpt><trkpt lat="43.6730061" lon="10.5765991"><ele>15.0</ele><time>2026-03-25T13:03:21.905Z</time></trkpt><trkpt lat="43.672895" lon="10.5764481"><ele>15.0</ele><time>2026-03-25T13:03:22.905Z</time></trkpt><trkpt lat="43.6727779" lon="10.576288"><ele>14.333333333333332</ele><time>2026-03-25T13:03:23.904Z</time></trkpt><trkpt lat="43.6726522" lon="10.5761117"><ele>13.666666666666666</ele><time>2026-03-25T13:03:24.904Z</time></trkpt><trkpt lat="43.6725191" lon="10.5759293"><ele>13.0</ele><time>2026-03-25T13:03:25.903Z</time></trkpt><trkpt lat="43.6723865" lon="10.5757488"><ele>13.0</ele><time>2026-03-25T13:03:26.905Z</time></trkpt><trkpt lat="43.6722695" lon="10.5755805"><ele>13.0</ele><time>2026-03-25T13:03:27.904Z</time></trkpt><trkpt lat="43.672162" lon="10.57542"><ele>13.0</ele><time>2026-03-25T13:03:28.904Z</time></trkpt><trkpt lat="43.672053" lon="10.575262"><ele>12.75</ele><time>2026-03-25T13:03:29.904Z</time></trkpt><trkpt lat="43.6719455" lon="10.5751096"><ele>12.5</ele><time>2026-03-25T13:03:30.905Z</time></trkpt><trkpt lat="43.6718391" lon="10.5749618"><ele>12.25</ele><time>2026-03-25T13:03:31.904Z</time></trkpt><trkpt lat="43.671743" lon="10.5748295"><ele>12.0</ele><time>2026-03-25T13:03:32.904Z</time></trkpt><trkpt lat="43.6716607" lon="10.57472"><ele>12.0</ele><time>2026-03-25T13:03:33.904Z</time></trkpt><trkpt lat="43.6715946" lon="10.5746262"><ele>12.0</ele><time>2026-03-25T13:03:34.903Z</time></trkpt><trkpt lat="43.6715419" lon="10.5745358"><ele>12.0</ele><time>2026-03-25T13:03:35.905Z</time></trkpt><trkpt lat="43.6715045" lon="10.5744382"><ele>12.0</ele><time>2026-03-25T13:03:36.904Z</time></trkpt><trkpt lat="43.6714814" lon="10.5743323"><ele>12.0</ele><time>2026-03-25T13:03:37.905Z</time></trkpt><trkpt lat="43.6714605" lon="10.5742297"><ele>12.0</ele><time>2026-03-25T13:03:38.904Z</time></trkpt><trkpt lat="43.6714222" lon="10.5741423"><ele>11.833333333333334</ele><time>2026-03-25T13:03:39.905Z</time></trkpt><trkpt lat="43.6713636" lon="10.5740686"><ele>11.666666666666666</ele><time>2026-03-25T13:03:40.904Z</time></trkpt><trkpt lat="43.6712917" lon="10.5740133"><ele>11.5</ele><time>2026-03-25T13:03:41.904Z</time></trkpt><trkpt lat="43.6712178" lon="10.5739644"><ele>11.333333333333332</ele><time>2026-03-25T13:03:42.903Z</time></trkpt><trkpt lat="43.6711526" lon="10.5738992"><ele>11.166666666666666</ele><time>2026-03-25T13:03:43.904Z</time></trkpt><trkpt lat="43.6711138" lon="10.5738022"><ele>11.0</ele><time>2026-03-25T13:03:44.903Z</time></trkpt><trkpt lat="43.6710947" lon="10.5736996"><ele>11.0</ele><time>2026-03-25T13:03:45.904Z</time></trkpt><trkpt lat="43.6710958" lon="10.5735887"><ele>11.0</ele><time>2026-03-25T13:03:46.904Z</time></trkpt><trkpt lat="43.6711157" lon="10.5734675"><ele>11.0</ele><time>2026-03-25T13:03:47.904Z</time></trkpt><trkpt lat="43.6711474" lon="10.5733316"><ele>11.0</ele><time>2026-03-25T13:03:48.904Z</time></trkpt><trkpt lat="43.6711828" lon="10.5731817"><ele>11.0</ele><time>2026-03-25T13:03:49.904Z</time></trkpt><trkpt lat="43.6712203" lon="10.5730252"><ele>11.0</ele><time>2026-03-25T13:03:50.904Z</time></trkpt><trkpt lat="43.6712597" lon="10.5728621"><ele>11.0</ele><time>2026-03-25T13:03:51.904Z</time></trkpt><trkpt lat="43.671298" lon="10.5727097"><ele>11.0</ele><time>2026-03-25T13:03:52.904Z</time></trkpt><trkpt lat="43.6713356" lon="10.5725647"><ele>11.0</ele><time>2026-03-25T13:03:53.904Z</time></trkpt><trkpt lat="43.67137" lon="10.5724284"><ele>11.166666666666666</ele><time>2026-03-25T13:03:54.903Z</time></trkpt><trkpt lat="43.6714012" lon="10.5723101"><ele>11.333333333333332</ele><time>2026-03-25T13:03:55.904Z</time></trkpt><trkpt lat="43.6714225" lon="10.5722009"><ele>11.5</ele><time>2026-03-25T13:03:56.905Z</time></trkpt><trkpt lat="43.6714423" lon="10.5720934"><ele>11.666666666666666</ele><time>2026-03-25T13:03:57.903Z</time></trkpt><trkpt lat="43.6714556" lon="10.5719849"><ele>11.833333333333334</ele><time>2026-03-25T13:03:58.903Z</time></trkpt><trkpt lat="43.6714699" lon="10.5718856"><ele>12.0</ele><time>2026-03-25T13:03:59.903Z</time></trkpt><trkpt lat="43.6714761" lon="10.5717895"><ele>12.0</ele><time>2026-03-25T13:04:00.904Z</time></trkpt><trkpt lat="43.6714892" lon="10.5716838"><ele>12.0</ele><time>2026-03-25T13:04:01.905Z</time></trkpt><trkpt lat="43.6715056" lon="10.571562"><ele>12.0</ele><time>2026-03-25T13:04:02.904Z</time></trkpt><trkpt lat="43.6715233" lon="10.5714209"><ele>12.0</ele><time>2026-03-25T13:04:03.903Z</time></trkpt><trkpt lat="43.6715429" lon="10.5712512"><ele>12.0</ele><time>2026-03-25T13:04:04.903Z</time></trkpt><trkpt lat="43.671562" lon="10.5710656"><ele>12.0</ele><time>2026-03-25T13:04:05.905Z</time></trkpt><trkpt lat="43.6715786" lon="10.5708992"><ele>12.0</ele><time>2026-03-25T13:04:06.903Z</time></trkpt><trkpt lat="43.6715963" lon="10.5707504"><ele>12.0</ele><time>2026-03-25T13:04:07.903Z</time></trkpt><trkpt lat="43.6716113" lon="10.570612"><ele>12.0</ele><time>2026-03-25T13:04:08.903Z</time></trkpt><trkpt lat="43.6716299" lon="10.5704896"><ele>12.0</ele><time>2026-03-25T13:04:09.904Z</time></trkpt><trkpt lat="43.6716479" lon="10.5703859"><ele>11.833333333333334</ele><time>2026-03-25T13:04:10.904Z</time></trkpt><trkpt lat="43.6716605" lon="10.570292"><ele>11.666666666666666</ele><time>2026-03-25T13:04:11.905Z</time></trkpt><trkpt lat="43.6716554" lon="10.5702034"><ele>11.5</ele><time>2026-03-25T13:04:12.904Z</time></trkpt><trkpt lat="43.6715952" lon="10.5700497"><ele>11.333333333333332</ele><time>2026-03-25T13:04:14.904Z</time></trkpt><trkpt lat="43.6715496" lon="10.5699798"><ele>11.166666666666666</ele><time>2026-03-25T13:04:15.903Z</time></trkpt><trkpt lat="43.6714867" lon="10.5698899"><ele>11.0</ele><time>2026-03-25T13:04:16.904Z</time></trkpt><trkpt lat="43.6714099" lon="10.569794"><ele>11.0</ele><time>2026-03-25T13:04:17.904Z</time></trkpt><trkpt lat="43.6713127" lon="10.5696968"><ele>11.0</ele><time>2026-03-25T13:04:18.904Z</time></trkpt><trkpt lat="43.6712048" lon="10.5696209"><ele>11.0</ele><time>2026-03-25T13:04:19.904Z</time></trkpt><trkpt lat="43.6710869" lon="10.5695586"><ele>11.0</ele><time>2026-03-25T13:04:20.904Z</time></trkpt><trkpt lat="43.6709553" lon="10.5695023"><ele>10.0</ele><time>2026-03-25T13:04:21.904Z</time></trkpt><trkpt lat="43.6708067" lon="10.5694476"><ele>9.0</ele><time>2026-03-25T13:04:22.903Z</time></trkpt><trkpt lat="43.6706584" lon="10.5693947"><ele>8.0</ele><time>2026-03-25T13:04:23.903Z</time></trkpt><trkpt lat="43.6705157" lon="10.569343"><ele>8.0</ele><time>2026-03-25T13:04:24.904Z</time></trkpt><trkpt lat="43.6703604" lon="10.569286"><ele>8.0</ele><time>2026-03-25T13:04:25.903Z</time></trkpt><trkpt lat="43.6701995" lon="10.5692251"><ele>8.0</ele><time>2026-03-25T13:04:26.905Z</time></trkpt><trkpt lat="43.6700472" lon="10.5691631"><ele>8.0</ele><time>2026-03-25T13:04:27.904Z</time></trkpt><trkpt lat="43.6699044" lon="10.5691113"><ele>8.0</ele><time>2026-03-25T13:04:28.903Z</time></trkpt><trkpt lat="43.6697731" lon="10.5690594"><ele>8.0</ele><time>2026-03-25T13:04:29.904Z</time></trkpt><trkpt lat="43.6696465" lon="10.5690075"><ele>8.0</ele><time>2026-03-25T13:04:30.904Z</time></trkpt><trkpt lat="43.6695315" lon="10.5689464"><ele>7.5</ele><time>2026-03-25T13:04:31.903Z</time></trkpt><trkpt lat="43.6694333" lon="10.5688643"><ele>7.0</ele><time>2026-03-25T13:04:32.904Z</time></trkpt><trkpt lat="43.669347" lon="10.5687656"><ele>6.5</ele><time>2026-03-25T13:04:33.904Z</time></trkpt><trkpt lat="43.6692756" lon="10.5686491"><ele>6.0</ele><time>2026-03-25T13:04:34.903Z</time></trkpt><trkpt lat="43.6692135" lon="10.5685082"><ele>6.0</ele><time>2026-03-25T13:04:35.903Z</time></trkpt><trkpt lat="43.6691619" lon="10.5683393"><ele>6.0</ele><time>2026-03-25T13:04:36.903Z</time></trkpt><trkpt lat="43.6691171" lon="10.5681367"><ele>6.0</ele><time>2026-03-25T13:04:37.904Z</time></trkpt><trkpt lat="43.6690723" lon="10.5679136"><ele>6.333333333333334</ele><time>2026-03-25T13:04:38.905Z</time></trkpt><trkpt lat="43.669029" lon="10.5676808"><ele>6.666666666666667</ele><time>2026-03-25T13:04:39.903Z</time></trkpt><trkpt lat="43.6689839" lon="10.5674345"><ele>7.0</ele><time>2026-03-25T13:04:40.904Z</time></trkpt><trkpt lat="43.668935" lon="10.5671848"><ele>7.0</ele><time>2026-03-25T13:04:41.904Z</time></trkpt><trkpt lat="43.6688928" lon="10.5669423"><ele>7.0</ele><time>2026-03-25T13:04:42.904Z</time></trkpt><trkpt lat="43.6688508" lon="10.5666992"><ele>7.0</ele><time>2026-03-25T13:04:43.903Z</time></trkpt><trkpt lat="43.6688061" lon="10.566449"><ele>7.0</ele><time>2026-03-25T13:04:44.905Z</time></trkpt><trkpt lat="43.6687622" lon="10.5661905"><ele>7.0</ele><time>2026-03-25T13:04:45.905Z</time></trkpt><trkpt lat="43.6687141" lon="10.5659203"><ele>7.0</ele><time>2026-03-25T13:04:46.904Z</time></trkpt><trkpt lat="43.6686625" lon="10.5656472"><ele>6.666666666666667</ele><time>2026-03-25T13:04:47.904Z</time></trkpt><trkpt lat="43.6686124" lon="10.5653615"><ele>6.333333333333334</ele><time>2026-03-25T13:04:48.904Z</time></trkpt><trkpt lat="43.668561" lon="10.5650597"><ele>6.0</ele><time>2026-03-25T13:04:49.904Z</time></trkpt><trkpt lat="43.6685095" lon="10.5647586"><ele>6.0</ele><time>2026-03-25T13:04:50.904Z</time></trkpt><trkpt lat="43.6684569" lon="10.5644524"><ele>6.0</ele><time>2026-03-25T13:04:51.904Z</time></trkpt><trkpt lat="43.668405" lon="10.5641647"><ele>6.0</ele><time>2026-03-25T13:04:52.904Z</time></trkpt><trkpt lat="43.6683641" lon="10.5638781"><ele>6.666666666666666</ele><time>2026-03-25T13:04:53.904Z</time></trkpt><trkpt lat="43.6683102" lon="10.5635917"><ele>7.333333333333333</ele><time>2026-03-25T13:04:54.904Z</time></trkpt><trkpt lat="43.6682661" lon="10.5633107"><ele>8.0</ele><time>2026-03-25T13:04:55.904Z</time></trkpt><trkpt lat="43.6682152" lon="10.5630374"><ele>7.666666666666666</ele><time>2026-03-25T13:04:56.905Z</time></trkpt><trkpt lat="43.6681737" lon="10.562772"><ele>7.333333333333334</ele><time>2026-03-25T13:04:57.904Z</time></trkpt><trkpt lat="43.6681277" lon="10.5625175"><ele>7.0</ele><time>2026-03-25T13:04:58.904Z</time></trkpt><trkpt lat="43.6680807" lon="10.5622566"><ele>7.0</ele><time>2026-03-25T13:04:59.905Z</time></trkpt><trkpt lat="43.6680321" lon="10.561989"><ele>7.0</ele><time>2026-03-25T13:05:00.904Z</time></trkpt><trkpt lat="43.6679813" lon="10.5617118"><ele>7.0</ele><time>2026-03-25T13:05:01.904Z</time></trkpt><trkpt lat="43.6679306" lon="10.5614292"><ele>6.666666666666667</ele><time>2026-03-25T13:05:02.903Z</time></trkpt><trkpt lat="43.6678777" lon="10.56114"><ele>6.333333333333334</ele><time>2026-03-25T13:05:03.903Z</time></trkpt><trkpt lat="43.6678211" lon="10.5608424"><ele>6.0</ele><time>2026-03-25T13:05:04.903Z</time></trkpt><trkpt lat="43.6677716" lon="10.5605447"><ele>5.5</ele><time>2026-03-25T13:05:05.905Z</time></trkpt><trkpt lat="43.6677195" lon="10.5602392"><ele>5.0</ele><time>2026-03-25T13:05:06.904Z</time></trkpt><trkpt lat="43.6676598" lon="10.5599315"><ele>5.0</ele><time>2026-03-25T13:05:07.903Z</time></trkpt><trkpt lat="43.6676039" lon="10.5596217"><ele>5.0</ele><time>2026-03-25T13:05:08.904Z</time></trkpt><trkpt lat="43.667552" lon="10.559304"><ele>6.0</ele><time>2026-03-25T13:05:09.904Z</time></trkpt><trkpt lat="43.6675004" lon="10.5590027"><ele>7.0</ele><time>2026-03-25T13:05:10.903Z</time></trkpt><trkpt lat="43.667453" lon="10.5586957"><ele>7.0</ele><time>2026-03-25T13:05:11.904Z</time></trkpt><trkpt lat="43.6674006" lon="10.5583969"><ele>7.0</ele><time>2026-03-25T13:05:12.904Z</time></trkpt><trkpt lat="43.6673452" lon="10.5580976"><ele>7.0</ele><time>2026-03-25T13:05:13.904Z</time></trkpt><trkpt lat="43.66729" lon="10.5577938"><ele>5.5</ele><time>2026-03-25T13:05:14.903Z</time></trkpt><trkpt lat="43.6672373" lon="10.5574835"><ele>4.0</ele><time>2026-03-25T13:05:15.904Z</time></trkpt><trkpt lat="43.6671835" lon="10.5571654"><ele>5.0</ele><time>2026-03-25T13:05:16.904Z</time></trkpt><trkpt lat="43.6671272" lon="10.5568437"><ele>6.0</ele><time>2026-03-25T13:05:17.904Z</time></trkpt><trkpt lat="43.6670773" lon="10.5565167"><ele>6.5</ele><time>2026-03-25T13:05:18.904Z</time></trkpt><trkpt lat="43.6670265" lon="10.5561986"><ele>7.0</ele><time>2026-03-25T13:05:19.903Z</time></trkpt><trkpt lat="43.6669696" lon="10.5558612"><ele>7.0</ele><time>2026-03-25T13:05:20.904Z</time></trkpt><trkpt lat="43.666914" lon="10.5555346"><ele>7.0</ele><time>2026-03-25T13:05:21.903Z</time></trkpt><trkpt lat="43.6668594" lon="10.5552052"><ele>7.0</ele><time>2026-03-25T13:05:22.905Z</time></trkpt><trkpt lat="43.6667986" lon="10.5548707"><ele>7.0</ele><time>2026-03-25T13:05:23.903Z</time></trkpt><trkpt lat="43.666738" lon="10.5545404"><ele>6.0</ele><time>2026-03-25T13:05:24.904Z</time></trkpt><trkpt lat="43.6666861" lon="10.5542259"><ele>5.0</ele><time>2026-03-25T13:05:25.903Z</time></trkpt><trkpt lat="43.6666321" lon="10.5539324"><ele>5.0</ele><time>2026-03-25T13:05:26.903Z</time></trkpt><trkpt lat="43.6665791" lon="10.5536409"><ele>5.0</ele><time>2026-03-25T13:05:27.904Z</time></trkpt><trkpt lat="43.6665266" lon="10.5533417"><ele>5.0</ele><time>2026-03-25T13:05:28.904Z</time></trkpt><trkpt lat="43.6664741" lon="10.5530412"><ele>5.5</ele><time>2026-03-25T13:05:29.904Z</time></trkpt><trkpt lat="43.6664267" lon="10.5527433"><ele>6.0</ele><time>2026-03-25T13:05:30.903Z</time></trkpt><trkpt lat="43.6663716" lon="10.5524351"><ele>6.0</ele><time>2026-03-25T13:05:31.904Z</time></trkpt><trkpt lat="43.6663181" lon="10.5521286"><ele>6.0</ele><time>2026-03-25T13:05:32.904Z</time></trkpt><trkpt lat="43.6662675" lon="10.5518189"><ele>6.0</ele><time>2026-03-25T13:05:33.903Z</time></trkpt><trkpt lat="43.6662227" lon="10.5514988"><ele>6.0</ele><time>2026-03-25T13:05:34.905Z</time></trkpt><trkpt lat="43.6661562" lon="10.5511904"><ele>6.0</ele><time>2026-03-25T13:05:35.903Z</time></trkpt><trkpt lat="43.6660945" lon="10.5508705"><ele>6.0</ele><time>2026-03-25T13:05:36.905Z</time></trkpt><trkpt lat="43.6660409" lon="10.5505532"><ele>6.0</ele><time>2026-03-25T13:05:37.905Z</time></trkpt><trkpt lat="43.6659897" lon="10.5502442"><ele>6.0</ele><time>2026-03-25T13:05:38.904Z</time></trkpt><trkpt lat="43.6659425" lon="10.5499463"><ele>6.0</ele><time>2026-03-25T13:05:39.904Z</time></trkpt><trkpt lat="43.665894" lon="10.5496544"><ele>6.0</ele><time>2026-03-25T13:05:40.903Z</time></trkpt><trkpt lat="43.6658448" lon="10.5493595"><ele>6.0</ele><time>2026-03-25T13:05:41.904Z</time></trkpt><trkpt lat="43.6657963" lon="10.549077"><ele>6.333333333333334</ele><time>2026-03-25T13:05:42.904Z</time></trkpt><trkpt lat="43.6657536" lon="10.5488063"><ele>6.666666666666667</ele><time>2026-03-25T13:05:43.904Z</time></trkpt><trkpt lat="43.6657083" lon="10.5485413"><ele>7.0</ele><time>2026-03-25T13:05:44.904Z</time></trkpt><trkpt lat="43.665661" lon="10.5482735"><ele>7.333333333333334</ele><time>2026-03-25T13:05:45.905Z</time></trkpt><trkpt lat="43.665615" lon="10.5480121"><ele>7.666666666666666</ele><time>2026-03-25T13:05:46.904Z</time></trkpt><trkpt lat="43.6655683" lon="10.5477525"><ele>8.0</ele><time>2026-03-25T13:05:47.904Z</time></trkpt><trkpt lat="43.6655198" lon="10.5474848"><ele>7.333333333333333</ele><time>2026-03-25T13:05:48.904Z</time></trkpt><trkpt lat="43.665474" lon="10.5472151"><ele>6.666666666666666</ele><time>2026-03-25T13:05:49.904Z</time></trkpt><trkpt lat="43.6654305" lon="10.5469471"><ele>6.0</ele><time>2026-03-25T13:05:50.903Z</time></trkpt><trkpt lat="43.6653883" lon="10.5466869"><ele>6.0</ele><time>2026-03-25T13:05:51.905Z</time></trkpt><trkpt lat="43.6653488" lon="10.5464328"><ele>6.0</ele><time>2026-03-25T13:05:52.905Z</time></trkpt><trkpt lat="43.6653072" lon="10.5461849"><ele>6.0</ele><time>2026-03-25T13:05:53.905Z</time></trkpt><trkpt lat="43.6652652" lon="10.5459395"><ele>6.0</ele><time>2026-03-25T13:05:54.905Z</time></trkpt><trkpt lat="43.6652222" lon="10.5457012"><ele>6.0</ele><time>2026-03-25T13:05:55.904Z</time></trkpt><trkpt lat="43.6651761" lon="10.5454575"><ele>6.0</ele><time>2026-03-25T13:05:56.904Z</time></trkpt><trkpt lat="43.6651282" lon="10.5452048"><ele>6.0</ele><time>2026-03-25T13:05:57.904Z</time></trkpt><trkpt lat="43.6650792" lon="10.5449413"><ele>6.0</ele><time>2026-03-25T13:05:58.904Z</time></trkpt><trkpt lat="43.6650294" lon="10.5446717"><ele>6.0</ele><time>2026-03-25T13:05:59.904Z</time></trkpt><trkpt lat="43.6649826" lon="10.544402"><ele>6.0</ele><time>2026-03-25T13:06:00.903Z</time></trkpt><trkpt lat="43.664936" lon="10.5441439"><ele>6.0</ele><time>2026-03-25T13:06:01.905Z</time></trkpt><trkpt lat="43.6648953" lon="10.5439034"><ele>6.0</ele><time>2026-03-25T13:06:02.905Z</time></trkpt><trkpt lat="43.6648555" lon="10.5436775"><ele>5.666666666666667</ele><time>2026-03-25T13:06:03.904Z</time></trkpt><trkpt lat="43.6648159" lon="10.5434632"><ele>5.333333333333334</ele><time>2026-03-25T13:06:04.905Z</time></trkpt><trkpt lat="43.6647818" lon="10.5432621"><ele>5.0</ele><time>2026-03-25T13:06:05.903Z</time></trkpt><trkpt lat="43.6647492" lon="10.5430653"><ele>5.25</ele><time>2026-03-25T13:06:06.904Z</time></trkpt><trkpt lat="43.664716" lon="10.5428759"><ele>5.5</ele><time>2026-03-25T13:06:07.904Z</time></trkpt><trkpt lat="43.6646858" lon="10.5426958"><ele>5.75</ele><time>2026-03-25T13:06:08.904Z</time></trkpt><trkpt lat="43.6646593" lon="10.5425315"><ele>6.0</ele><time>2026-03-25T13:06:09.904Z</time></trkpt><trkpt lat="43.664637" lon="10.5423944"><ele>6.0</ele><time>2026-03-25T13:06:10.904Z</time></trkpt><trkpt lat="43.6646144" lon="10.5422821"><ele>6.0</ele><time>2026-03-25T13:06:11.904Z</time></trkpt><trkpt lat="43.6645997" lon="10.5421839"><ele>6.0</ele><time>2026-03-25T13:06:12.904Z</time></trkpt><trkpt lat="43.6645961" lon="10.5420333"><ele>6.0</ele><time>2026-03-25T13:06:14.904Z</time></trkpt><trkpt lat="43.6646357" lon="10.5419217"><ele>6.0</ele><time>2026-03-25T13:06:19.904Z</time></trkpt><trkpt lat="43.6646837" lon="10.5418013"><ele>5.6</ele><time>2026-03-25T13:06:21.903Z</time></trkpt><trkpt lat="43.6646828" lon="10.5416619"><ele>5.199999999999999</ele><time>2026-03-25T13:06:23.904Z</time></trkpt><trkpt lat="43.6646285" lon="10.5415588"><ele>4.800000000000001</ele><time>2026-03-25T13:06:25.903Z</time></trkpt><trkpt lat="43.6645239" lon="10.5414742"><ele>4.4</ele><time>2026-03-25T13:06:27.904Z</time></trkpt><trkpt lat="43.6644637" lon="10.5413469"><ele>4.0</ele><time>2026-03-25T13:06:29.903Z</time></trkpt><trkpt lat="43.6644459" lon="10.5412632"><ele>4.333333333333333</ele><time>2026-03-25T13:06:30.904Z</time></trkpt><trkpt lat="43.6644302" lon="10.5411728"><ele>4.666666666666666</ele><time>2026-03-25T13:06:31.903Z</time></trkpt><trkpt lat="43.6644078" lon="10.5410771"><ele>5.0</ele><time>2026-03-25T13:06:32.904Z</time></trkpt><trkpt lat="43.6643864" lon="10.5409688"><ele>5.333333333333333</ele><time>2026-03-25T13:06:33.904Z</time></trkpt><trkpt lat="43.6643666" lon="10.5408581"><ele>5.666666666666667</ele><time>2026-03-25T13:06:34.904Z</time></trkpt><trkpt lat="43.6643404" lon="10.5407343"><ele>6.0</ele><time>2026-03-25T13:06:35.904Z</time></trkpt><trkpt lat="43.6643189" lon="10.5406098"><ele>6.0</ele><time>2026-03-25T13:06:36.904Z</time></trkpt><trkpt lat="43.6642945" lon="10.5404795"><ele>6.0</ele><time>2026-03-25T13:06:37.904Z</time></trkpt><trkpt lat="43.6642689" lon="10.5403465"><ele>6.0</ele><time>2026-03-25T13:06:38.904Z</time></trkpt><trkpt lat="43.664252" lon="10.5402128"><ele>6.0</ele><time>2026-03-25T13:06:39.904Z</time></trkpt><trkpt lat="43.6642338" lon="10.5400847"><ele>6.0</ele><time>2026-03-25T13:06:40.903Z</time></trkpt><trkpt lat="43.6642133" lon="10.5399525"><ele>6.0</ele><time>2026-03-25T13:06:41.904Z</time></trkpt><trkpt lat="43.6641904" lon="10.5398114"><ele>6.0</ele><time>2026-03-25T13:06:42.904Z</time></trkpt><trkpt lat="43.6641626" lon="10.5396587"><ele>6.0</ele><time>2026-03-25T13:06:43.904Z</time></trkpt><trkpt lat="43.6641345" lon="10.5395112"><ele>6.0</ele><time>2026-03-25T13:06:44.904Z</time></trkpt><trkpt lat="43.6641095" lon="10.5393666"><ele>6.0</ele><time>2026-03-25T13:06:45.904Z</time></trkpt><trkpt lat="43.6640852" lon="10.5392299"><ele>5.8</ele><time>2026-03-25T13:06:46.904Z</time></trkpt><trkpt lat="43.664062" lon="10.5390966"><ele>5.6</ele><time>2026-03-25T13:06:47.903Z</time></trkpt><trkpt lat="43.6640365" lon="10.5389598"><ele>5.4</ele><time>2026-03-25T13:06:48.904Z</time></trkpt><trkpt lat="43.6640108" lon="10.5388167"><ele>5.2</ele><time>2026-03-25T13:06:49.903Z</time></trkpt><trkpt lat="43.6639874" lon="10.5386669"><ele>5.0</ele><time>2026-03-25T13:06:50.903Z</time></trkpt><trkpt lat="43.6639598" lon="10.5385166"><ele>5.0</ele><time>2026-03-25T13:06:51.904Z</time></trkpt><trkpt lat="43.6639311" lon="10.5383611"><ele>5.0</ele><time>2026-03-25T13:06:52.904Z</time></trkpt><trkpt lat="43.6639039" lon="10.5382032"><ele>5.0</ele><time>2026-03-25T13:06:53.904Z</time></trkpt><trkpt lat="43.6638771" lon="10.5380438"><ele>5.0</ele><time>2026-03-25T13:06:54.904Z</time></trkpt><trkpt lat="43.6638475" lon="10.5378823"><ele>5.0</ele><time>2026-03-25T13:06:55.905Z</time></trkpt><trkpt lat="43.6638192" lon="10.5377273"><ele>5.0</ele><time>2026-03-25T13:06:56.904Z</time></trkpt><trkpt lat="43.6637951" lon="10.5375743"><ele>5.0</ele><time>2026-03-25T13:06:57.905Z</time></trkpt><trkpt lat="43.6637676" lon="10.5374226"><ele>5.0</ele><time>2026-03-25T13:06:58.904Z</time></trkpt><trkpt lat="43.6637413" lon="10.5372759"><ele>5.0</ele><time>2026-03-25T13:06:59.904Z</time></trkpt><trkpt lat="43.663717" lon="10.5371345"><ele>5.0</ele><time>2026-03-25T13:07:00.905Z</time></trkpt><trkpt lat="43.663696" lon="10.5369936"><ele>5.0</ele><time>2026-03-25T13:07:01.903Z</time></trkpt><trkpt lat="43.663673" lon="10.5368545"><ele>5.0</ele><time>2026-03-25T13:07:02.905Z</time></trkpt><trkpt lat="43.6636427" lon="10.5367124"><ele>5.0</ele><time>2026-03-25T13:07:03.903Z</time></trkpt><trkpt lat="43.6636188" lon="10.5365659"><ele>4.8</ele><time>2026-03-25T13:07:04.905Z</time></trkpt><trkpt lat="43.6635948" lon="10.5364087"><ele>4.6</ele><time>2026-03-25T13:07:05.904Z</time></trkpt><trkpt lat="43.6635691" lon="10.5362606"><ele>4.4</ele><time>2026-03-25T13:07:06.903Z</time></trkpt><trkpt lat="43.6635383" lon="10.5361129"><ele>4.2</ele><time>2026-03-25T13:07:07.904Z</time></trkpt><trkpt lat="43.6635165" lon="10.5359712"><ele>4.0</ele><time>2026-03-25T13:07:08.904Z</time></trkpt><trkpt lat="43.6634939" lon="10.535823"><ele>3.9999999999999996</ele><time>2026-03-25T13:07:09.904Z</time></trkpt><trkpt lat="43.6634699" lon="10.5356826"><ele>4.0</ele><time>2026-03-25T13:07:10.904Z</time></trkpt><trkpt lat="43.663446" lon="10.5355568"><ele>4.0</ele><time>2026-03-25T13:07:11.903Z</time></trkpt><trkpt lat="43.6634254" lon="10.535454"><ele>4.0</ele><time>2026-03-25T13:07:12.904Z</time></trkpt><trkpt lat="43.6634029" lon="10.5353252"><ele>3.9999999999999996</ele><time>2026-03-25T13:07:14.903Z</time></trkpt><trkpt lat="43.6634265" lon="10.5352314"><ele>4.0</ele><time>2026-03-25T13:07:17.903Z</time></trkpt><trkpt lat="43.663491" lon="10.5351808"><ele>4.0</ele><time>2026-03-25T13:07:19.904Z</time></trkpt><trkpt lat="43.6635566" lon="10.5351627"><ele>4.0</ele><time>2026-03-25T13:07:20.903Z</time></trkpt><trkpt lat="43.6636376" lon="10.535149"><ele>4.0</ele><time>2026-03-25T13:07:21.905Z</time></trkpt><trkpt lat="43.6637345" lon="10.5351372"><ele>4.0</ele><time>2026-03-25T13:07:22.903Z</time></trkpt><trkpt lat="43.6638438" lon="10.5351363"><ele>4.0</ele><time>2026-03-25T13:07:23.903Z</time></trkpt><trkpt lat="43.6639655" lon="10.5351345"><ele>4.0</ele><time>2026-03-25T13:07:24.905Z</time></trkpt><trkpt lat="43.6640929" lon="10.535131"><ele>4.0</ele><time>2026-03-25T13:07:25.904Z</time></trkpt><trkpt lat="43.6642219" lon="10.5351276"><ele>4.0</ele><time>2026-03-25T13:07:26.904Z</time></trkpt><trkpt lat="43.6643504" lon="10.535126"><ele>4.0</ele><time>2026-03-25T13:07:27.905Z</time></trkpt><trkpt lat="43.6644406" lon="10.5351267"><ele>3.833333333333333</ele><time>2026-03-25T13:07:28.904Z</time></trkpt><trkpt lat="43.6645224" lon="10.5351302"><ele>3.6666666666666665</ele><time>2026-03-25T13:07:30.904Z</time></trkpt><trkpt lat="43.6646026" lon="10.5351319"><ele>3.5</ele><time>2026-03-25T13:07:33.903Z</time></trkpt><trkpt lat="43.6647111" lon="10.5351198"><ele>3.333333333333333</ele><time>2026-03-25T13:07:35.904Z</time></trkpt><trkpt lat="43.6647847" lon="10.5351105"><ele>3.1666666666666665</ele><time>2026-03-25T13:07:36.903Z</time></trkpt><trkpt lat="43.6648858" lon="10.5351085"><ele>3.0</ele><time>2026-03-25T13:07:37.903Z</time></trkpt><trkpt lat="43.6650004" lon="10.5351082"><ele>3.0</ele><time>2026-03-25T13:07:38.904Z</time></trkpt><trkpt lat="43.6651234" lon="10.5351089"><ele>3.0</ele><time>2026-03-25T13:07:39.903Z</time></trkpt><trkpt lat="43.6652321" lon="10.5351111"><ele>3.0</ele><time>2026-03-25T13:07:40.903Z</time></trkpt><trkpt lat="43.6653193" lon="10.5351128"><ele>3.0</ele><time>2026-03-25T13:07:41.903Z</time></trkpt><trkpt lat="43.6653893" lon="10.5351159"><ele>3.0</ele><time>2026-03-25T13:07:42.903Z</time></trkpt><trkpt lat="43.6654863" lon="10.5351657"><ele>3.1666666666666665</ele><time>2026-03-25T13:07:44.904Z</time></trkpt><trkpt lat="43.665519" lon="10.5352916"><ele>3.333333333333333</ele><time>2026-03-25T13:07:46.903Z</time></trkpt><trkpt lat="43.6655256" lon="10.5353894"><ele>3.5</ele><time>2026-03-25T13:07:47.905Z</time></trkpt><trkpt lat="43.6655272" lon="10.5355063"><ele>3.6666666666666665</ele><time>2026-03-25T13:07:48.904Z</time></trkpt><trkpt lat="43.6655316" lon="10.5356344"><ele>3.833333333333333</ele><time>2026-03-25T13:07:49.904Z</time></trkpt><trkpt lat="43.6655367" lon="10.5357547"><ele>4.0</ele><time>2026-03-25T13:07:50.904Z</time></trkpt><trkpt lat="43.665542" lon="10.5358884"><ele>4.0</ele><time>2026-03-25T13:07:51.904Z</time></trkpt><trkpt lat="43.6655439" lon="10.5360326"><ele>4.0</ele><time>2026-03-25T13:07:52.904Z</time></trkpt><trkpt lat="43.665534" lon="10.5361798"><ele>4.0</ele><time>2026-03-25T13:07:53.904Z</time></trkpt><trkpt lat="43.665521" lon="10.536332"><ele>4.0</ele><time>2026-03-25T13:07:54.904Z</time></trkpt><trkpt lat="43.6655129" lon="10.5364984"><ele>4.0</ele><time>2026-03-25T13:07:55.903Z</time></trkpt><trkpt lat="43.6655126" lon="10.5366691"><ele>4.0</ele><time>2026-03-25T13:07:56.904Z</time></trkpt><trkpt lat="43.6655132" lon="10.5368312"><ele>4.0</ele><time>2026-03-25T13:07:57.904Z</time></trkpt><trkpt lat="43.6655132" lon="10.5369808"><ele>4.0</ele><time>2026-03-25T13:07:58.903Z</time></trkpt><trkpt lat="43.6655154" lon="10.5371183"><ele>4.0</ele><time>2026-03-25T13:07:59.903Z</time></trkpt><trkpt lat="43.6655153" lon="10.5372478"><ele>4.0</ele><time>2026-03-25T13:08:00.905Z</time></trkpt><trkpt lat="43.6655153" lon="10.5373712"><ele>3.9999999999999996</ele><time>2026-03-25T13:08:01.904Z</time></trkpt><trkpt lat="43.6655132" lon="10.5374888"><ele>4.0</ele><time>2026-03-25T13:08:02.903Z</time></trkpt><trkpt lat="43.6655118" lon="10.5376053"><ele>4.0</ele><time>2026-03-25T13:08:03.904Z</time></trkpt><trkpt lat="43.6655076" lon="10.5377213"><ele>4.0</ele><time>2026-03-25T13:08:04.904Z</time></trkpt><trkpt lat="43.6655092" lon="10.5378338"><ele>3.9999999999999996</ele><time>2026-03-25T13:08:05.903Z</time></trkpt><trkpt lat="43.6655105" lon="10.5379532"><ele>4.0</ele><time>2026-03-25T13:08:06.903Z</time></trkpt><trkpt lat="43.6655113" lon="10.5380755"><ele>3.9999999999999996</ele><time>2026-03-25T13:08:07.904Z</time></trkpt><trkpt lat="43.665509" lon="10.5381935"><ele>4.0</ele><time>2026-03-25T13:08:08.904Z</time></trkpt><trkpt lat="43.665509" lon="10.5383117"><ele>4.0</ele><time>2026-03-25T13:08:09.903Z</time></trkpt><trkpt lat="43.6655055" lon="10.538424"><ele>4.0</ele><time>2026-03-25T13:08:10.903Z</time></trkpt><trkpt lat="43.6655018" lon="10.5385264"><ele>3.9999999999999996</ele><time>2026-03-25T13:08:11.904Z</time></trkpt><trkpt lat="43.6655017" lon="10.5386188"><ele>4.0</ele><time>2026-03-25T13:08:12.905Z</time></trkpt><trkpt lat="43.6655017" lon="10.5387485"><ele>3.9999999999999996</ele><time>2026-03-25T13:08:14.904Z</time></trkpt><trkpt lat="43.6654831" lon="10.538864"><ele>4.0</ele><time>2026-03-25T13:08:17.903Z</time></trkpt><trkpt lat="43.6654776" lon="10.5390139"><ele>4.0</ele><time>2026-03-25T13:08:26.904Z</time></trkpt><trkpt lat="43.6654817" lon="10.5391056"><ele>4.0</ele><time>2026-03-25T13:08:27.903Z</time></trkpt><trkpt lat="43.6654939" lon="10.5392186"><ele>3.9999999999999996</ele><time>2026-03-25T13:08:28.904Z</time></trkpt><trkpt lat="43.6655089" lon="10.5393429"><ele>4.0</ele><time>2026-03-25T13:08:29.904Z</time></trkpt><trkpt lat="43.6655149" lon="10.5394685"><ele>4.333333333333333</ele><time>2026-03-25T13:08:30.904Z</time></trkpt><trkpt lat="43.6655143" lon="10.5395866"><ele>4.666666666666666</ele><time>2026-03-25T13:08:31.904Z</time></trkpt><trkpt lat="43.6655119" lon="10.5397026"><ele>5.0</ele><time>2026-03-25T13:08:32.904Z</time></trkpt><trkpt lat="43.6655109" lon="10.5398018"><ele>5.333333333333333</ele><time>2026-03-25T13:08:33.903Z</time></trkpt><trkpt lat="43.6655523" lon="10.5399363"><ele>5.666666666666667</ele><time>2026-03-25T13:08:35.905Z</time></trkpt><trkpt lat="43.6656377" lon="10.539988"><ele>6.0</ele><time>2026-03-25T13:08:37.904Z</time></trkpt><trkpt lat="43.6657029" lon="10.5399932"><ele>6.0</ele><time>2026-03-25T13:08:38.904Z</time></trkpt><trkpt lat="43.665781" lon="10.5399988"><ele>6.0</ele><time>2026-03-25T13:08:39.903Z</time></trkpt><trkpt lat="43.6658532" lon="10.5400066"><ele>6.0</ele><time>2026-03-25T13:08:40.904Z</time></trkpt><trkpt lat="43.6659563" lon="10.5400685"><ele>6.0</ele><time>2026-03-25T13:08:42.905Z</time></trkpt><trkpt lat="43.6660077" lon="10.540191"><ele>6.0</ele><time>2026-03-25T13:08:44.904Z</time></trkpt><trkpt lat="43.6660223" lon="10.5402845"><ele>6.0</ele><time>2026-03-25T13:08:45.904Z</time></trkpt><trkpt lat="43.6660317" lon="10.5403982"><ele>6.0</ele><time>2026-03-25T13:08:46.904Z</time></trkpt><trkpt lat="43.6660448" lon="10.5405354"><ele>6.0</ele><time>2026-03-25T13:08:47.905Z</time></trkpt><trkpt lat="43.6660586" lon="10.5406787"><ele>6.0</ele><time>2026-03-25T13:08:48.904Z</time></trkpt><trkpt lat="43.6660711" lon="10.5408069"><ele>6.0</ele><time>2026-03-25T13:08:49.904Z</time></trkpt><trkpt lat="43.6660843" lon="10.5409253"><ele>6.0</ele><time>2026-03-25T13:08:50.903Z</time></trkpt><trkpt lat="43.6660915" lon="10.541029"><ele>6.0</ele><time>2026-03-25T13:08:51.903Z</time></trkpt><trkpt lat="43.6660915" lon="10.5411202"><ele>6.0</ele><time>2026-03-25T13:08:52.903Z</time></trkpt><trkpt lat="43.6660641" lon="10.5412542"><ele>6.0</ele><time>2026-03-25T13:08:54.904Z</time></trkpt><trkpt lat="43.6659667" lon="10.5413169"><ele>6.0</ele><time>2026-03-25T13:08:56.904Z</time></trkpt><trkpt lat="43.6658876" lon="10.5413428"><ele>6.0</ele><time>2026-03-25T13:08:57.904Z</time></trkpt><trkpt lat="43.6657866" lon="10.5413803"><ele>5.75</ele><time>2026-03-25T13:08:58.904Z</time></trkpt><trkpt lat="43.6656652" lon="10.5414263"><ele>5.5</ele><time>2026-03-25T13:08:59.904Z</time></trkpt><trkpt lat="43.665539" lon="10.5414685"><ele>5.25</ele><time>2026-03-25T13:09:00.905Z</time></trkpt><trkpt lat="43.6654157" lon="10.5415067"><ele>5.0</ele><time>2026-03-25T13:09:01.903Z</time></trkpt><trkpt lat="43.6653021" lon="10.5415359"><ele>4.8</ele><time>2026-03-25T13:09:02.903Z</time></trkpt><trkpt lat="43.6651978" lon="10.5415585"><ele>4.6</ele><time>2026-03-25T13:09:03.903Z</time></trkpt><trkpt lat="43.6650995" lon="10.5415763"><ele>4.4</ele><time>2026-03-25T13:09:04.904Z</time></trkpt><trkpt lat="43.665008" lon="10.5415938"><ele>4.2</ele><time>2026-03-25T13:09:05.904Z</time></trkpt><trkpt lat="43.6649247" lon="10.541603"><ele>4.0</ele><time>2026-03-25T13:09:06.903Z</time></trkpt><trkpt lat="43.6648493" lon="10.5416091"><ele>4.0</ele><time>2026-03-25T13:09:07.904Z</time></trkpt><trkpt lat="43.6647752" lon="10.5416041"><ele>3.9999999999999996</ele><time>2026-03-25T13:09:08.903Z</time></trkpt><trkpt lat="43.6647054" lon="10.5415872"><ele>4.0</ele><time>2026-03-25T13:09:09.904Z</time></trkpt><trkpt lat="43.6646349" lon="10.5415743"><ele>4.0</ele><time>2026-03-25T13:09:10.904Z</time></trkpt><trkpt lat="43.6645703" lon="10.5415839"><ele>3.9999999999999996</ele><time>2026-03-25T13:09:11.904Z</time></trkpt><trkpt lat="43.6645056" lon="10.5416091"><ele>4.0</ele><time>2026-03-25T13:09:12.904Z</time></trkpt><trkpt lat="43.6644396" lon="10.5416576"><ele>4.0</ele><time>2026-03-25T13:09:13.903Z</time></trkpt><trkpt lat="43.6643792" lon="10.5417182"><ele>3.9999999999999996</ele><time>2026-03-25T13:09:14.903Z</time></trkpt><trkpt lat="43.6643111" lon="10.5417658"><ele>4.0</ele><time>2026-03-25T13:09:15.904Z</time></trkpt><trkpt lat="43.6642381" lon="10.5417994"><ele>4.0</ele><time>2026-03-25T13:09:16.905Z</time></trkpt><trkpt lat="43.6641624" lon="10.541826"><ele>4.0</ele><time>2026-03-25T13:09:17.904Z</time></trkpt><trkpt lat="43.6640846" lon="10.5418539"><ele>3.9999999999999996</ele><time>2026-03-25T13:09:18.904Z</time></trkpt><trkpt lat="43.6640108" lon="10.5418783"><ele>4.0</ele><time>2026-03-25T13:09:19.904Z</time></trkpt><trkpt lat="43.6639427" lon="10.5419007"><ele>3.9999999999999996</ele><time>2026-03-25T13:09:20.904Z</time></trkpt><trkpt lat="43.6638821" lon="10.5419273"><ele>4.0</ele><time>2026-03-25T13:09:21.904Z</time></trkpt><trkpt lat="43.6637791" lon="10.5419591"><ele>4.0</ele><time>2026-03-25T13:09:23.904Z</time></trkpt><trkpt lat="43.6636975" lon="10.5419488"><ele>4.0</ele><time>2026-03-25T13:09:25.903Z</time></trkpt><trkpt lat="43.6636541" lon="10.5418513"><ele>3.9999999999999996</ele><time>2026-03-25T13:09:27.904Z</time></trkpt><trkpt lat="43.6636236" lon="10.5417178"><ele>4.0</ele><time>2026-03-25T13:09:29.903Z</time></trkpt><trkpt lat="43.6635893" lon="10.5415579"><ele>4.6</ele><time>2026-03-25T13:09:31.904Z</time></trkpt><trkpt lat="43.6635621" lon="10.5414034"><ele>5.2</ele><time>2026-03-25T13:09:33.905Z</time></trkpt><trkpt lat="43.6635327" lon="10.541251"><ele>5.799999999999999</ele><time>2026-03-25T13:09:35.904Z</time></trkpt><trkpt lat="43.6634815" lon="10.5411337"><ele>6.3999999999999995</ele><time>2026-03-25T13:09:37.903Z</time></trkpt><trkpt lat="43.6634355" lon="10.5410347"><ele>7.0</ele><time>2026-03-25T13:09:39.904Z</time></trkpt><trkpt lat="43.6634011" lon="10.5409387"><ele>7.000000000000001</ele><time>2026-03-25T13:09:41.904Z</time></trkpt><trkpt lat="43.663373" lon="10.540853"><ele>7.0</ele><time>2026-03-25T13:09:44.903Z</time></trkpt><trkpt lat="43.6633183" lon="10.5407626"><ele>7.0</ele><time>2026-03-25T13:09:46.904Z</time></trkpt><trkpt lat="43.6632505" lon="10.5407215"><ele>7.0</ele><time>2026-03-25T13:09:48.904Z</time></trkpt><trkpt lat="43.6631864" lon="10.5407487"><ele>7.000000000000001</ele><time>2026-03-25T13:09:55.904Z</time></trkpt><trkpt lat="43.6630925" lon="10.5407991"><ele>7.0</ele><time>2026-03-25T13:10:29.904Z</time></trkpt><trkpt lat="43.6630301" lon="10.5408732"><ele>7.0</ele><time>2026-03-25T13:10:31.903Z</time></trkpt><trkpt lat="43.6630222" lon="10.5410019"><ele>6.999999999999999</ele><time>2026-03-25T13:10:33.904Z</time></trkpt><trkpt lat="43.663037" lon="10.5410918"><ele>6.999999999999999</ele><time>2026-03-25T13:10:34.903Z</time></trkpt><trkpt lat="43.6630699" lon="10.54117"><ele>7.0</ele><time>2026-03-25T13:10:35.904Z</time></trkpt><trkpt lat="43.6631698" lon="10.5412596"><ele>7.0</ele><time>2026-03-25T13:10:37.904Z</time></trkpt><trkpt lat="43.6632764" lon="10.541239"><ele>7.0</ele><time>2026-03-25T13:10:39.904Z</time></trkpt><trkpt lat="43.6633413" lon="10.5412132"><ele>6.999999999999999</ele><time>2026-03-25T13:10:40.903Z</time></trkpt><trkpt lat="43.6634514" lon="10.5412022"><ele>6.999999999999999</ele><time>2026-03-25T13:10:42.903Z</time></trkpt><trkpt lat="43.6635231" lon="10.5412792"><ele>7.0</ele><time>2026-03-25T13:10:45.904Z</time></trkpt><trkpt lat="43.6635466" lon="10.5414293"><ele>7.0</ele><time>2026-03-25T13:10:47.904Z</time></trkpt><trkpt lat="43.6635577" lon="10.5415296"><ele>7.000000000000001</ele><time>2026-03-25T13:10:48.904Z</time></trkpt><trkpt lat="43.6635713" lon="10.5416228"><ele>7.0</ele><time>2026-03-25T13:10:49.904Z</time></trkpt><trkpt lat="43.6635845" lon="10.5417205"><ele>7.0</ele><time>2026-03-25T13:10:50.904Z</time></trkpt><trkpt lat="43.6636053" lon="10.541862"><ele>7.0</ele><time>2026-03-25T13:10:52.903Z</time></trkpt><trkpt lat="43.6636211" lon="10.5419508"><ele>7.000000000000001</ele><time>2026-03-25T13:10:55.903Z</time></trkpt><trkpt lat="43.6636931" lon="10.5420108"><ele>7.0</ele><time>2026-03-25T13:11:04.905Z</time></trkpt><trkpt lat="43.6637938" lon="10.5420033"><ele>6.500000000000001</ele><time>2026-03-25T13:11:06.904Z</time></trkpt><trkpt lat="43.6638586" lon="10.5419769"><ele>6.0</ele><time>2026-03-25T13:11:07.903Z</time></trkpt><trkpt lat="43.6639347" lon="10.5419497"><ele>5.5</ele><time>2026-03-25T13:11:08.903Z</time></trkpt><trkpt lat="43.6640072" lon="10.5419247"><ele>5.0</ele><time>2026-03-25T13:11:09.904Z</time></trkpt><trkpt lat="43.6640797" lon="10.5418932"><ele>4.5</ele><time>2026-03-25T13:11:10.903Z</time></trkpt><trkpt lat="43.6642046" lon="10.5418491"><ele>4.0</ele><time>2026-03-25T13:11:12.904Z</time></trkpt><trkpt lat="43.6642703" lon="10.5418349"><ele>4.0</ele><time>2026-03-25T13:11:13.904Z</time></trkpt><trkpt lat="43.6643954" lon="10.5418544"><ele>4.0</ele><time>2026-03-25T13:11:15.904Z</time></trkpt><trkpt lat="43.6644595" lon="10.5418794"><ele>4.0</ele><time>2026-03-25T13:11:16.904Z</time></trkpt><trkpt lat="43.6645643" lon="10.5419044"><ele>4.0</ele><time>2026-03-25T13:11:18.904Z</time></trkpt><trkpt lat="43.6646628" lon="10.5418257"><ele>4.0</ele><time>2026-03-25T13:11:20.904Z</time></trkpt><trkpt lat="43.6646883" lon="10.5416935"><ele>3.9999999999999996</ele><time>2026-03-25T13:11:22.905Z</time></trkpt><trkpt lat="43.6646332" lon="10.5415586"><ele>4.0</ele><time>2026-03-25T13:11:24.904Z</time></trkpt><trkpt lat="43.6645786" lon="10.5415108"><ele>4.0</ele><time>2026-03-25T13:11:25.904Z</time></trkpt><trkpt lat="43.6645273" lon="10.5414546"><ele>4.0</ele><time>2026-03-25T13:11:26.904Z</time></trkpt><trkpt lat="43.6644854" lon="10.5413714"><ele>3.9999999999999996</ele><time>2026-03-25T13:11:27.903Z</time></trkpt><trkpt lat="43.6644545" lon="10.5412612"><ele>4.0</ele><time>2026-03-25T13:11:28.903Z</time></trkpt><trkpt lat="43.6644275" lon="10.5411133"><ele>4.5</ele><time>2026-03-25T13:11:29.903Z</time></trkpt><trkpt lat="43.6643968" lon="10.5409348"><ele>5.0</ele><time>2026-03-25T13:11:30.904Z</time></trkpt><trkpt lat="43.6643608" lon="10.5407314"><ele>5.5</ele><time>2026-03-25T13:11:31.903Z</time></trkpt><trkpt lat="43.6643238" lon="10.5405285"><ele>6.0</ele><time>2026-03-25T13:11:32.905Z</time></trkpt><trkpt lat="43.6642862" lon="10.5403173"><ele>6.0</ele><time>2026-03-25T13:11:33.904Z</time></trkpt><trkpt lat="43.6642471" lon="10.5400793"><ele>6.0</ele><time>2026-03-25T13:11:34.903Z</time></trkpt><trkpt lat="43.6642057" lon="10.5398364"><ele>6.0</ele><time>2026-03-25T13:11:35.904Z</time></trkpt><trkpt lat="43.6641675" lon="10.5396066"><ele>5.666666666666667</ele><time>2026-03-25T13:11:36.904Z</time></trkpt><trkpt lat="43.6641263" lon="10.539368"><ele>5.333333333333334</ele><time>2026-03-25T13:11:37.904Z</time></trkpt><trkpt lat="43.6640816" lon="10.539136"><ele>5.0</ele><time>2026-03-25T13:11:38.904Z</time></trkpt><trkpt lat="43.6640393" lon="10.5389023"><ele>5.0</ele><time>2026-03-25T13:11:39.903Z</time></trkpt><trkpt lat="43.6639958" lon="10.5386741"><ele>5.0</ele><time>2026-03-25T13:11:40.903Z</time></trkpt><trkpt lat="43.6639539" lon="10.5384402"><ele>5.0</ele><time>2026-03-25T13:11:41.904Z</time></trkpt><trkpt lat="43.6639122" lon="10.5382141"><ele>5.0</ele><time>2026-03-25T13:11:42.903Z</time></trkpt><trkpt lat="43.6638724" lon="10.5379881"><ele>5.0</ele><time>2026-03-25T13:11:43.904Z</time></trkpt><trkpt lat="43.6638333" lon="10.5377595"><ele>5.0</ele><time>2026-03-25T13:11:44.905Z</time></trkpt><trkpt lat="43.6637948" lon="10.5375327"><ele>5.0</ele><time>2026-03-25T13:11:45.904Z</time></trkpt><trkpt lat="43.6637539" lon="10.5373048"><ele>5.0</ele><time>2026-03-25T13:11:46.903Z</time></trkpt><trkpt lat="43.6637125" lon="10.5370774"><ele>5.0</ele><time>2026-03-25T13:11:47.904Z</time></trkpt><trkpt lat="43.6636751" lon="10.5368426"><ele>5.0</ele><time>2026-03-25T13:11:48.904Z</time></trkpt><trkpt lat="43.6636305" lon="10.5366137"><ele>5.0</ele><time>2026-03-25T13:11:49.903Z</time></trkpt><trkpt lat="43.6635918" lon="10.5363853"><ele>5.0</ele><time>2026-03-25T13:11:50.904Z</time></trkpt><trkpt lat="43.6635541" lon="10.5361567"><ele>4.333333333333334</ele><time>2026-03-25T13:11:51.905Z</time></trkpt><trkpt lat="43.6635108" lon="10.5359272"><ele>3.666666666666667</ele><time>2026-03-25T13:11:52.904Z</time></trkpt><trkpt lat="43.6634694" lon="10.5356985"><ele>3.0</ele><time>2026-03-25T13:11:53.904Z</time></trkpt><trkpt lat="43.6634295" lon="10.535463"><ele>3.333333333333333</ele><time>2026-03-25T13:11:54.904Z</time></trkpt><trkpt lat="43.6633872" lon="10.5352312"><ele>3.6666666666666665</ele><time>2026-03-25T13:11:55.903Z</time></trkpt><trkpt lat="43.6633451" lon="10.534995"><ele>4.0</ele><time>2026-03-25T13:11:56.903Z</time></trkpt><trkpt lat="43.6632996" lon="10.5347441"><ele>3.6666666666666665</ele><time>2026-03-25T13:11:57.903Z</time></trkpt><trkpt lat="43.6632532" lon="10.5344909"><ele>3.333333333333333</ele><time>2026-03-25T13:11:58.904Z</time></trkpt><trkpt lat="43.6632072" lon="10.5342391"><ele>3.0</ele><time>2026-03-25T13:11:59.904Z</time></trkpt><trkpt lat="43.6631635" lon="10.5339788"><ele>3.0</ele><time>2026-03-25T13:12:00.904Z</time></trkpt><trkpt lat="43.6631146" lon="10.5337128"><ele>3.0</ele><time>2026-03-25T13:12:01.903Z</time></trkpt><trkpt lat="43.6630758" lon="10.5334487"><ele>3.0</ele><time>2026-03-25T13:12:02.905Z</time></trkpt><trkpt lat="43.663027" lon="10.5331936"><ele>3.0</ele><time>2026-03-25T13:12:03.903Z</time></trkpt><trkpt lat="43.6629848" lon="10.5329434"><ele>3.0</ele><time>2026-03-25T13:12:04.904Z</time></trkpt><trkpt lat="43.6629406" lon="10.5326782"><ele>3.0</ele><time>2026-03-25T13:12:05.904Z</time></trkpt><trkpt lat="43.6628967" lon="10.5324093"><ele>3.0</ele><time>2026-03-25T13:12:06.904Z</time></trkpt><trkpt lat="43.6628505" lon="10.5321411"><ele>3.0</ele><time>2026-03-25T13:12:07.903Z</time></trkpt><trkpt lat="43.6628076" lon="10.5318609"><ele>3.0</ele><time>2026-03-25T13:12:08.903Z</time></trkpt><trkpt lat="43.6627582" lon="10.5315884"><ele>3.0</ele><time>2026-03-25T13:12:09.903Z</time></trkpt><trkpt lat="43.6627153" lon="10.5313184"><ele>3.0</ele><time>2026-03-25T13:12:10.903Z</time></trkpt><trkpt lat="43.662667" lon="10.5310427"><ele>3.0</ele><time>2026-03-25T13:12:11.904Z</time></trkpt><trkpt lat="43.6626198" lon="10.5307614"><ele>3.333333333333333</ele><time>2026-03-25T13:12:12.904Z</time></trkpt><trkpt lat="43.6625731" lon="10.5304957"><ele>3.6666666666666665</ele><time>2026-03-25T13:12:13.903Z</time></trkpt><trkpt lat="43.6625222" lon="10.5302266"><ele>4.0</ele><time>2026-03-25T13:12:14.905Z</time></trkpt><trkpt lat="43.6624735" lon="10.5299541"><ele>4.0</ele><time>2026-03-25T13:12:15.903Z</time></trkpt><trkpt lat="43.6624261" lon="10.5296839"><ele>4.0</ele><time>2026-03-25T13:12:16.904Z</time></trkpt><trkpt lat="43.6623745" lon="10.5294191"><ele>4.0</ele><time>2026-03-25T13:12:17.904Z</time></trkpt><trkpt lat="43.662326" lon="10.5291501"><ele>4.333333333333333</ele><time>2026-03-25T13:12:18.903Z</time></trkpt><trkpt lat="43.6622767" lon="10.5288845"><ele>4.666666666666667</ele><time>2026-03-25T13:12:19.904Z</time></trkpt><trkpt lat="43.6622288" lon="10.5286221"><ele>5.0</ele><time>2026-03-25T13:12:20.904Z</time></trkpt><trkpt lat="43.6621826" lon="10.5283609"><ele>5.0</ele><time>2026-03-25T13:12:21.904Z</time></trkpt><trkpt lat="43.6621313" lon="10.5280994"><ele>5.0</ele><time>2026-03-25T13:12:22.904Z</time></trkpt><trkpt lat="43.6620864" lon="10.5278338"><ele>5.0</ele><time>2026-03-25T13:12:23.904Z</time></trkpt><trkpt lat="43.6620399" lon="10.5275662"><ele>5.0</ele><time>2026-03-25T13:12:24.904Z</time></trkpt><trkpt lat="43.6619982" lon="10.5272943"><ele>5.0</ele><time>2026-03-25T13:12:25.904Z</time></trkpt><trkpt lat="43.6619558" lon="10.5270297"><ele>5.0</ele><time>2026-03-25T13:12:26.903Z</time></trkpt><trkpt lat="43.66191" lon="10.5267652"><ele>5.0</ele><time>2026-03-25T13:12:27.903Z</time></trkpt><trkpt lat="43.6618665" lon="10.5265127"><ele>5.0</ele><time>2026-03-25T13:12:28.904Z</time></trkpt><trkpt lat="43.6618193" lon="10.5262554"><ele>5.0</ele><time>2026-03-25T13:12:29.905Z</time></trkpt><trkpt lat="43.6617738" lon="10.5259964"><ele>5.0</ele><time>2026-03-25T13:12:30.904Z</time></trkpt><trkpt lat="43.6617285" lon="10.5257424"><ele>5.0</ele><time>2026-03-25T13:12:31.904Z</time></trkpt><trkpt lat="43.6616847" lon="10.5254892"><ele>5.0</ele><time>2026-03-25T13:12:32.903Z</time></trkpt><trkpt lat="43.6616352" lon="10.5252307"><ele>5.0</ele><time>2026-03-25T13:12:33.904Z</time></trkpt><trkpt lat="43.6615874" lon="10.5249742"><ele>5.0</ele><time>2026-03-25T13:12:34.904Z</time></trkpt><trkpt lat="43.6615411" lon="10.5247104"><ele>5.0</ele><time>2026-03-25T13:12:35.903Z</time></trkpt><trkpt lat="43.6614942" lon="10.5244507"><ele>4.666666666666667</ele><time>2026-03-25T13:12:36.903Z</time></trkpt><trkpt lat="43.6614473" lon="10.5241887"><ele>4.333333333333333</ele><time>2026-03-25T13:12:37.903Z</time></trkpt><trkpt lat="43.6614038" lon="10.5239257"><ele>4.0</ele><time>2026-03-25T13:12:38.904Z</time></trkpt><trkpt lat="43.6613569" lon="10.523668"><ele>4.0</ele><time>2026-03-25T13:12:39.904Z</time></trkpt><trkpt lat="43.6613122" lon="10.5234036"><ele>4.0</ele><time>2026-03-25T13:12:40.904Z</time></trkpt><trkpt lat="43.6612661" lon="10.5231454"><ele>4.0</ele><time>2026-03-25T13:12:41.903Z</time></trkpt><trkpt lat="43.661217" lon="10.5228853"><ele>4.0</ele><time>2026-03-25T13:12:42.903Z</time></trkpt><trkpt lat="43.6611704" lon="10.5226259"><ele>4.0</ele><time>2026-03-25T13:12:43.903Z</time></trkpt><trkpt lat="43.6611225" lon="10.5223703"><ele>4.0</ele><time>2026-03-25T13:12:44.903Z</time></trkpt><trkpt lat="43.6610787" lon="10.5221108"><ele>3.333333333333333</ele><time>2026-03-25T13:12:45.904Z</time></trkpt><trkpt lat="43.6610351" lon="10.5218505"><ele>2.6666666666666665</ele><time>2026-03-25T13:12:46.903Z</time></trkpt><trkpt lat="43.6609883" lon="10.5215902"><ele>2.0</ele><time>2026-03-25T13:12:47.903Z</time></trkpt><trkpt lat="43.6609432" lon="10.5213306"><ele>2.6666666666666665</ele><time>2026-03-25T13:12:48.905Z</time></trkpt><trkpt lat="43.6608983" lon="10.5210729"><ele>3.333333333333333</ele><time>2026-03-25T13:12:49.904Z</time></trkpt><trkpt lat="43.6608522" lon="10.5208093"><ele>4.0</ele><time>2026-03-25T13:12:50.903Z</time></trkpt><trkpt lat="43.6608079" lon="10.5205454"><ele>4.0</ele><time>2026-03-25T13:12:51.904Z</time></trkpt><trkpt lat="43.6607617" lon="10.520283"><ele>4.0</ele><time>2026-03-25T13:12:52.904Z</time></trkpt><trkpt lat="43.6607161" lon="10.5200181"><ele>4.0</ele><time>2026-03-25T13:12:53.903Z</time></trkpt><trkpt lat="43.660671" lon="10.5197553"><ele>4.0</ele><time>2026-03-25T13:12:54.903Z</time></trkpt><trkpt lat="43.6606245" lon="10.5194924"><ele>4.0</ele><time>2026-03-25T13:12:55.904Z</time></trkpt><trkpt lat="43.6605746" lon="10.5192332"><ele>4.0</ele><time>2026-03-25T13:12:56.903Z</time></trkpt><trkpt lat="43.6605297" lon="10.5189723"><ele>3.333333333333333</ele><time>2026-03-25T13:12:57.904Z</time></trkpt><trkpt lat="43.6604852" lon="10.5187106"><ele>2.6666666666666665</ele><time>2026-03-25T13:12:58.904Z</time></trkpt><trkpt lat="43.6604347" lon="10.5184537"><ele>2.0</ele><time>2026-03-25T13:12:59.903Z</time></trkpt><trkpt lat="43.6603907" lon="10.5181938"><ele>2.0</ele><time>2026-03-25T13:13:00.904Z</time></trkpt><trkpt lat="43.6603442" lon="10.5179329"><ele>2.0</ele><time>2026-03-25T13:13:01.904Z</time></trkpt><trkpt lat="43.6603022" lon="10.517671"><ele>2.0</ele><time>2026-03-25T13:13:02.903Z</time></trkpt><trkpt lat="43.6602531" lon="10.5174123"><ele>2.333333333333333</ele><time>2026-03-25T13:13:03.904Z</time></trkpt><trkpt lat="43.660208" lon="10.517153"><ele>2.6666666666666665</ele><time>2026-03-25T13:13:04.903Z</time></trkpt><trkpt lat="43.6601662" lon="10.5168885"><ele>3.0</ele><time>2026-03-25T13:13:05.903Z</time></trkpt><trkpt lat="43.6601236" lon="10.5166288"><ele>3.333333333333333</ele><time>2026-03-25T13:13:06.903Z</time></trkpt><trkpt lat="43.6600774" lon="10.5163633"><ele>3.6666666666666665</ele><time>2026-03-25T13:13:07.903Z</time></trkpt><trkpt lat="43.6600306" lon="10.5161002"><ele>4.0</ele><time>2026-03-25T13:13:08.904Z</time></trkpt><trkpt lat="43.6599848" lon="10.5158293"><ele>4.0</ele><time>2026-03-25T13:13:09.904Z</time></trkpt><trkpt lat="43.6599393" lon="10.5155618"><ele>4.0</ele><time>2026-03-25T13:13:10.904Z</time></trkpt><trkpt lat="43.6598933" lon="10.5152914"><ele>4.0</ele><time>2026-03-25T13:13:11.904Z</time></trkpt><trkpt lat="43.6598488" lon="10.5150234"><ele>4.0</ele><time>2026-03-25T13:13:12.904Z</time></trkpt><trkpt lat="43.6598026" lon="10.5147618"><ele>4.0</ele><time>2026-03-25T13:13:13.904Z</time></trkpt><trkpt lat="43.6597537" lon="10.514496"><ele>4.0</ele><time>2026-03-25T13:13:14.903Z</time></trkpt><trkpt lat="43.6597052" lon="10.5142321"><ele>4.0</ele><time>2026-03-25T13:13:15.904Z</time></trkpt><trkpt lat="43.6596615" lon="10.5139661"><ele>4.0</ele><time>2026-03-25T13:13:16.904Z</time></trkpt><trkpt lat="43.6596134" lon="10.5137024"><ele>4.0</ele><time>2026-03-25T13:13:17.904Z</time></trkpt><trkpt lat="43.6595668" lon="10.5134352"><ele>3.6666666666666665</ele><time>2026-03-25T13:13:18.905Z</time></trkpt><trkpt lat="43.6595194" lon="10.5131753"><ele>3.333333333333333</ele><time>2026-03-25T13:13:19.904Z</time></trkpt><trkpt lat="43.6594776" lon="10.5129139"><ele>3.0</ele><time>2026-03-25T13:13:20.904Z</time></trkpt><trkpt lat="43.6594278" lon="10.5126585"><ele>3.0</ele><time>2026-03-25T13:13:21.904Z</time></trkpt><trkpt lat="43.6593841" lon="10.5123962"><ele>3.0</ele><time>2026-03-25T13:13:22.904Z</time></trkpt><trkpt lat="43.659338" lon="10.5121355"><ele>3.0</ele><time>2026-03-25T13:13:23.903Z</time></trkpt><trkpt lat="43.6592936" lon="10.5118689"><ele>3.0</ele><time>2026-03-25T13:13:24.905Z</time></trkpt><trkpt lat="43.6592462" lon="10.5116055"><ele>3.0</ele><time>2026-03-25T13:13:25.903Z</time></trkpt><trkpt lat="43.6592014" lon="10.5113354"><ele>3.0</ele><time>2026-03-25T13:13:26.904Z</time></trkpt><trkpt lat="43.6591546" lon="10.511067"><ele>3.0</ele><time>2026-03-25T13:13:27.903Z</time></trkpt><trkpt lat="43.6591111" lon="10.5108021"><ele>3.0</ele><time>2026-03-25T13:13:28.903Z</time></trkpt><trkpt lat="43.6590672" lon="10.5105365"><ele>3.0</ele><time>2026-03-25T13:13:29.903Z</time></trkpt><trkpt lat="43.6590186" lon="10.5102694"><ele>3.0</ele><time>2026-03-25T13:13:30.904Z</time></trkpt><trkpt lat="43.6589672" lon="10.5100055"><ele>3.0</ele><time>2026-03-25T13:13:31.903Z</time></trkpt><trkpt lat="43.6589195" lon="10.5097412"><ele>3.0</ele><time>2026-03-25T13:13:32.903Z</time></trkpt><trkpt lat="43.6588703" lon="10.5094816"><ele>3.0</ele><time>2026-03-25T13:13:33.905Z</time></trkpt><trkpt lat="43.6588206" lon="10.5092222"><ele>3.0</ele><time>2026-03-25T13:13:34.904Z</time></trkpt><trkpt lat="43.6587672" lon="10.5089635"><ele>3.0</ele><time>2026-03-25T13:13:35.904Z</time></trkpt><trkpt lat="43.6587153" lon="10.5087043"><ele>3.0</ele><time>2026-03-25T13:13:36.904Z</time></trkpt><trkpt lat="43.6586624" lon="10.5084455"><ele>3.0</ele><time>2026-03-25T13:13:37.904Z</time></trkpt><trkpt lat="43.6586156" lon="10.5081947"><ele>3.0</ele><time>2026-03-25T13:13:38.903Z</time></trkpt><trkpt lat="43.6585705" lon="10.5079512"><ele>3.666666666666667</ele><time>2026-03-25T13:13:39.905Z</time></trkpt><trkpt lat="43.6585241" lon="10.5077123"><ele>4.333333333333334</ele><time>2026-03-25T13:13:40.905Z</time></trkpt><trkpt lat="43.6584811" lon="10.507483"><ele>5.0</ele><time>2026-03-25T13:13:41.903Z</time></trkpt><trkpt lat="43.6584418" lon="10.5072696"><ele>5.25</ele><time>2026-03-25T13:13:42.904Z</time></trkpt><trkpt lat="43.6584053" lon="10.5070615"><ele>5.5</ele><time>2026-03-25T13:13:43.903Z</time></trkpt><trkpt lat="43.658368" lon="10.5068715"><ele>5.75</ele><time>2026-03-25T13:13:44.903Z</time></trkpt><trkpt lat="43.658332" lon="10.5066886"><ele>6.0</ele><time>2026-03-25T13:13:45.903Z</time></trkpt><trkpt lat="43.6583004" lon="10.506507"><ele>6.0</ele><time>2026-03-25T13:13:46.904Z</time></trkpt><trkpt lat="43.6582676" lon="10.5063275"><ele>6.0</ele><time>2026-03-25T13:13:47.904Z</time></trkpt><trkpt lat="43.6582354" lon="10.5061641"><ele>6.0</ele><time>2026-03-25T13:13:48.905Z</time></trkpt><trkpt lat="43.6582079" lon="10.5060122"><ele>6.0</ele><time>2026-03-25T13:13:49.905Z</time></trkpt><trkpt lat="43.6581855" lon="10.50588"><ele>5.666666666666667</ele><time>2026-03-25T13:13:50.903Z</time></trkpt><trkpt lat="43.6581732" lon="10.5057576"><ele>5.333333333333333</ele><time>2026-03-25T13:13:51.903Z</time></trkpt><trkpt lat="43.6581602" lon="10.5056451"><ele>5.0</ele><time>2026-03-25T13:13:52.904Z</time></trkpt><trkpt lat="43.6581369" lon="10.5055395"><ele>4.666666666666666</ele><time>2026-03-25T13:13:53.905Z</time></trkpt><trkpt lat="43.658118" lon="10.5054156"><ele>4.333333333333333</ele><time>2026-03-25T13:13:54.904Z</time></trkpt><trkpt lat="43.6581016" lon="10.5052826"><ele>4.0</ele><time>2026-03-25T13:13:55.904Z</time></trkpt><trkpt lat="43.6580806" lon="10.5051423"><ele>3.75</ele><time>2026-03-25T13:13:56.904Z</time></trkpt><trkpt lat="43.6580513" lon="10.5050085"><ele>3.5</ele><time>2026-03-25T13:13:57.904Z</time></trkpt><trkpt lat="43.6580252" lon="10.5048328"><ele>3.25</ele><time>2026-03-25T13:13:58.903Z</time></trkpt><trkpt lat="43.6579861" lon="10.5046635"><ele>3.0</ele><time>2026-03-25T13:13:59.904Z</time></trkpt><trkpt lat="43.6579499" lon="10.5044685"><ele>2.6666666666666665</ele><time>2026-03-25T13:14:00.903Z</time></trkpt><trkpt lat="43.6579158" lon="10.5042586"><ele>2.333333333333333</ele><time>2026-03-25T13:14:01.904Z</time></trkpt><trkpt lat="43.6578799" lon="10.5040385"><ele>2.0</ele><time>2026-03-25T13:14:02.904Z</time></trkpt><trkpt lat="43.6578412" lon="10.5038086"><ele>2.0</ele><time>2026-03-25T13:14:03.904Z</time></trkpt><trkpt lat="43.6578005" lon="10.503574"><ele>2.0</ele><time>2026-03-25T13:14:04.904Z</time></trkpt><trkpt lat="43.6577597" lon="10.5033391"><ele>2.0</ele><time>2026-03-25T13:14:05.904Z</time></trkpt><trkpt lat="43.6577165" lon="10.5030942"><ele>2.333333333333333</ele><time>2026-03-25T13:14:06.904Z</time></trkpt><trkpt lat="43.6576765" lon="10.5028553"><ele>2.6666666666666665</ele><time>2026-03-25T13:14:07.904Z</time></trkpt><trkpt lat="43.6576354" lon="10.5026137"><ele>3.0</ele><time>2026-03-25T13:14:08.905Z</time></trkpt><trkpt lat="43.6575938" lon="10.5023638"><ele>3.0</ele><time>2026-03-25T13:14:09.904Z</time></trkpt><trkpt lat="43.6575499" lon="10.5021225"><ele>3.0</ele><time>2026-03-25T13:14:10.904Z</time></trkpt><trkpt lat="43.6575078" lon="10.5018869"><ele>3.0</ele><time>2026-03-25T13:14:11.904Z</time></trkpt><trkpt lat="43.6574649" lon="10.5016544"><ele>3.0</ele><time>2026-03-25T13:14:12.904Z</time></trkpt><trkpt lat="43.6574246" lon="10.5014327"><ele>3.0</ele><time>2026-03-25T13:14:13.904Z</time></trkpt><trkpt lat="43.657387" lon="10.5012212"><ele>3.0</ele><time>2026-03-25T13:14:14.904Z</time></trkpt><trkpt lat="43.6573524" lon="10.5010302"><ele>3.0</ele><time>2026-03-25T13:14:15.904Z</time></trkpt><trkpt lat="43.6573202" lon="10.5008614"><ele>3.0</ele><time>2026-03-25T13:14:16.903Z</time></trkpt><trkpt lat="43.6573048" lon="10.5007302"><ele>3.0</ele><time>2026-03-25T13:14:17.904Z</time></trkpt><trkpt lat="43.6572938" lon="10.5006279"><ele>3.0</ele><time>2026-03-25T13:14:19.904Z</time></trkpt><trkpt lat="43.6572748" lon="10.5005383"><ele>3.0</ele><time>2026-03-25T13:14:21.903Z</time></trkpt><trkpt lat="43.6572548" lon="10.5004522"><ele>3.0</ele><time>2026-03-25T13:14:23.903Z</time></trkpt><trkpt lat="43.6572353" lon="10.500355"><ele>2.8</ele><time>2026-03-25T13:14:25.904Z</time></trkpt><trkpt lat="43.6572157" lon="10.5002558"><ele>2.5999999999999996</ele><time>2026-03-25T13:14:27.905Z</time></trkpt><trkpt lat="43.6571911" lon="10.5001523"><ele>2.4000000000000004</ele><time>2026-03-25T13:14:29.904Z</time></trkpt><trkpt lat="43.6571693" lon="10.5000211"><ele>2.2</ele><time>2026-03-25T13:14:31.903Z</time></trkpt><trkpt lat="43.6571425" lon="10.4998389"><ele>2.0</ele><time>2026-03-25T13:14:33.904Z</time></trkpt><trkpt lat="43.6571288" lon="10.4997448"><ele>2.0</ele><time>2026-03-25T13:14:34.904Z</time></trkpt><trkpt lat="43.6571153" lon="10.4996533"><ele>2.0</ele><time>2026-03-25T13:14:35.903Z</time></trkpt><trkpt lat="43.6570911" lon="10.4994889"><ele>2.0</ele><time>2026-03-25T13:14:37.903Z</time></trkpt><trkpt lat="43.6570562" lon="10.4993125"><ele>2.0</ele><time>2026-03-25T13:14:39.904Z</time></trkpt><trkpt lat="43.6570371" lon="10.4992083"><ele>2.0</ele><time>2026-03-25T13:14:40.903Z</time></trkpt><trkpt lat="43.6570115" lon="10.499097"><ele>1.8</ele><time>2026-03-25T13:14:41.903Z</time></trkpt><trkpt lat="43.6569927" lon="10.498969"><ele>1.6</ele><time>2026-03-25T13:14:42.903Z</time></trkpt><trkpt lat="43.6569648" lon="10.4988424"><ele>1.4000000000000001</ele><time>2026-03-25T13:14:43.904Z</time></trkpt><trkpt lat="43.6569446" lon="10.4987067"><ele>1.2000000000000002</ele><time>2026-03-25T13:14:44.904Z</time></trkpt><trkpt lat="43.6569159" lon="10.4985619"><ele>1.0</ele><time>2026-03-25T13:14:45.904Z</time></trkpt><trkpt lat="43.6568892" lon="10.4984017"><ele>1.25</ele><time>2026-03-25T13:14:46.904Z</time></trkpt><trkpt lat="43.6568654" lon="10.4982558"><ele>1.5</ele><time>2026-03-25T13:14:47.905Z</time></trkpt><trkpt lat="43.6568362" lon="10.4980984"><ele>1.75</ele><time>2026-03-25T13:14:48.903Z</time></trkpt><trkpt lat="43.6568124" lon="10.497939"><ele>2.0</ele><time>2026-03-25T13:14:49.904Z</time></trkpt><trkpt lat="43.6567841" lon="10.4977765"><ele>2.0</ele><time>2026-03-25T13:14:50.904Z</time></trkpt><trkpt lat="43.6567543" lon="10.497606"><ele>2.0</ele><time>2026-03-25T13:14:51.903Z</time></trkpt><trkpt lat="43.6567199" lon="10.4974203"><ele>2.0</ele><time>2026-03-25T13:14:52.904Z</time></trkpt><trkpt lat="43.6566872" lon="10.4972387"><ele>2.0</ele><time>2026-03-25T13:14:53.905Z</time></trkpt><trkpt lat="43.6566569" lon="10.4970647"><ele>1.75</ele><time>2026-03-25T13:14:54.904Z</time></trkpt><trkpt lat="43.6566257" lon="10.4968892"><ele>1.5</ele><time>2026-03-25T13:14:55.904Z</time></trkpt><trkpt lat="43.6565927" lon="10.496711"><ele>1.25</ele><time>2026-03-25T13:14:56.903Z</time></trkpt><trkpt lat="43.6565604" lon="10.4965338"><ele>1.0</ele><time>2026-03-25T13:14:57.904Z</time></trkpt><trkpt lat="43.6565284" lon="10.4963532"><ele>1.0</ele><time>2026-03-25T13:14:58.903Z</time></trkpt><trkpt lat="43.6564958" lon="10.4961724"><ele>1.0</ele><time>2026-03-25T13:14:59.905Z</time></trkpt><trkpt lat="43.6564663" lon="10.4959942"><ele>1.0</ele><time>2026-03-25T13:15:00.904Z</time></trkpt><trkpt lat="43.6564318" lon="10.4958119"><ele>1.0</ele><time>2026-03-25T13:15:01.904Z</time></trkpt><trkpt lat="43.6563999" lon="10.4956272"><ele>1.0</ele><time>2026-03-25T13:15:02.904Z</time></trkpt><trkpt lat="43.6563661" lon="10.4954389"><ele>1.0</ele><time>2026-03-25T13:15:03.903Z</time></trkpt><trkpt lat="43.6563292" lon="10.495245"><ele>1.0</ele><time>2026-03-25T13:15:04.904Z</time></trkpt><trkpt lat="43.6562931" lon="10.4950523"><ele>1.0</ele><time>2026-03-25T13:15:05.904Z</time></trkpt><trkpt lat="43.6562582" lon="10.4948554"><ele>1.3333333333333333</ele><time>2026-03-25T13:15:06.903Z</time></trkpt><trkpt lat="43.6562265" lon="10.4946568"><ele>1.6666666666666665</ele><time>2026-03-25T13:15:07.903Z</time></trkpt><trkpt lat="43.6561923" lon="10.4944532"><ele>2.0</ele><time>2026-03-25T13:15:08.904Z</time></trkpt><trkpt lat="43.6561556" lon="10.494248"><ele>2.25</ele><time>2026-03-25T13:15:09.903Z</time></trkpt><trkpt lat="43.6561212" lon="10.4940451"><ele>2.5</ele><time>2026-03-25T13:15:10.904Z</time></trkpt><trkpt lat="43.6560878" lon="10.4938559"><ele>2.75</ele><time>2026-03-25T13:15:11.903Z</time></trkpt><trkpt lat="43.6560542" lon="10.4936674"><ele>3.0</ele><time>2026-03-25T13:15:12.903Z</time></trkpt><trkpt lat="43.6560211" lon="10.493479"><ele>3.0</ele><time>2026-03-25T13:15:13.904Z</time></trkpt><trkpt lat="43.6559876" lon="10.493286"><ele>3.0</ele><time>2026-03-25T13:15:14.904Z</time></trkpt><trkpt lat="43.6559525" lon="10.4930923"><ele>3.0</ele><time>2026-03-25T13:15:15.904Z</time></trkpt><trkpt lat="43.6559147" lon="10.4928973"><ele>3.0</ele><time>2026-03-25T13:15:16.904Z</time></trkpt><trkpt lat="43.6558797" lon="10.4926995"><ele>3.0</ele><time>2026-03-25T13:15:17.905Z</time></trkpt><trkpt lat="43.6558451" lon="10.4925078"><ele>3.0</ele><time>2026-03-25T13:15:18.905Z</time></trkpt><trkpt lat="43.6558126" lon="10.4923201"><ele>3.0</ele><time>2026-03-25T13:15:19.904Z</time></trkpt><trkpt lat="43.6557801" lon="10.4921268"><ele>3.0</ele><time>2026-03-25T13:15:20.904Z</time></trkpt><trkpt lat="43.6557426" lon="10.4919355"><ele>3.0</ele><time>2026-03-25T13:15:21.903Z</time></trkpt><trkpt lat="43.6557048" lon="10.4917401"><ele>3.0</ele><time>2026-03-25T13:15:22.903Z</time></trkpt><trkpt lat="43.655671" lon="10.491542"><ele>3.0</ele><time>2026-03-25T13:15:23.905Z</time></trkpt><trkpt lat="43.6556368" lon="10.4913477"><ele>3.0</ele><time>2026-03-25T13:15:24.904Z</time></trkpt><trkpt lat="43.6556006" lon="10.491146"><ele>2.75</ele><time>2026-03-25T13:15:25.904Z</time></trkpt><trkpt lat="43.6555644" lon="10.4909453"><ele>2.5</ele><time>2026-03-25T13:15:26.904Z</time></trkpt><trkpt lat="43.6555308" lon="10.4907474"><ele>2.25</ele><time>2026-03-25T13:15:27.904Z</time></trkpt><trkpt lat="43.6554926" lon="10.490553"><ele>2.0</ele><time>2026-03-25T13:15:28.904Z</time></trkpt><trkpt lat="43.6554559" lon="10.4903503"><ele>2.0</ele><time>2026-03-25T13:15:29.903Z</time></trkpt><trkpt lat="43.6554194" lon="10.4901463"><ele>2.0</ele><time>2026-03-25T13:15:30.904Z</time></trkpt><trkpt lat="43.655384" lon="10.4899276"><ele>2.0</ele><time>2026-03-25T13:15:31.905Z</time></trkpt><trkpt lat="43.6553466" lon="10.489703"><ele>1.6666666666666665</ele><time>2026-03-25T13:15:32.905Z</time></trkpt><trkpt lat="43.6553128" lon="10.4894863"><ele>1.3333333333333333</ele><time>2026-03-25T13:15:33.904Z</time></trkpt><trkpt lat="43.6552722" lon="10.4892741"><ele>1.0</ele><time>2026-03-25T13:15:34.904Z</time></trkpt><trkpt lat="43.6552332" lon="10.4890518"><ele>1.6666666666666665</ele><time>2026-03-25T13:15:35.904Z</time></trkpt><trkpt lat="43.6551973" lon="10.4888279"><ele>2.3333333333333335</ele><time>2026-03-25T13:15:36.905Z</time></trkpt><trkpt lat="43.6551611" lon="10.4886012"><ele>3.0</ele><time>2026-03-25T13:15:37.904Z</time></trkpt><trkpt lat="43.655125" lon="10.4883777"><ele>3.0</ele><time>2026-03-25T13:15:38.905Z</time></trkpt><trkpt lat="43.6550858" lon="10.4881509"><ele>3.0</ele><time>2026-03-25T13:15:39.903Z</time></trkpt><trkpt lat="43.6550472" lon="10.4879243"><ele>3.0</ele><time>2026-03-25T13:15:40.904Z</time></trkpt><trkpt lat="43.6550077" lon="10.4877052"><ele>3.0</ele><time>2026-03-25T13:15:41.904Z</time></trkpt><trkpt lat="43.6549707" lon="10.4874858"><ele>3.0</ele><time>2026-03-25T13:15:42.904Z</time></trkpt><trkpt lat="43.6549345" lon="10.4872686"><ele>3.0</ele><time>2026-03-25T13:15:43.904Z</time></trkpt><trkpt lat="43.6548988" lon="10.4870496"><ele>3.333333333333333</ele><time>2026-03-25T13:15:44.905Z</time></trkpt><trkpt lat="43.6548648" lon="10.4868316"><ele>3.6666666666666665</ele><time>2026-03-25T13:15:45.904Z</time></trkpt><trkpt lat="43.6548322" lon="10.4866104"><ele>4.0</ele><time>2026-03-25T13:15:46.904Z</time></trkpt><trkpt lat="43.6547926" lon="10.4863958"><ele>3.333333333333333</ele><time>2026-03-25T13:15:47.903Z</time></trkpt><trkpt lat="43.6547578" lon="10.4861742"><ele>2.6666666666666665</ele><time>2026-03-25T13:15:48.903Z</time></trkpt><trkpt lat="43.6547184" lon="10.4859546"><ele>2.0</ele><time>2026-03-25T13:15:49.904Z</time></trkpt><trkpt lat="43.654684" lon="10.4857349"><ele>2.0</ele><time>2026-03-25T13:15:50.904Z</time></trkpt><trkpt lat="43.6546447" lon="10.4855166"><ele>2.0</ele><time>2026-03-25T13:15:51.904Z</time></trkpt><trkpt lat="43.6546067" lon="10.485307"><ele>2.0</ele><time>2026-03-25T13:15:52.904Z</time></trkpt><trkpt lat="43.6545686" lon="10.4850851"><ele>1.6666666666666665</ele><time>2026-03-25T13:15:53.904Z</time></trkpt><trkpt lat="43.6545325" lon="10.4848717"><ele>1.3333333333333333</ele><time>2026-03-25T13:15:54.904Z</time></trkpt><trkpt lat="43.6544928" lon="10.4846572"><ele>1.0</ele><time>2026-03-25T13:15:55.904Z</time></trkpt><trkpt lat="43.6544549" lon="10.4844446"><ele>1.6666666666666665</ele><time>2026-03-25T13:15:56.903Z</time></trkpt><trkpt lat="43.6544181" lon="10.484233"><ele>2.3333333333333335</ele><time>2026-03-25T13:15:57.904Z</time></trkpt><trkpt lat="43.6543818" lon="10.4840199"><ele>3.0</ele><time>2026-03-25T13:15:58.904Z</time></trkpt><trkpt lat="43.6543412" lon="10.4838084"><ele>2.6666666666666665</ele><time>2026-03-25T13:15:59.905Z</time></trkpt><trkpt lat="43.6543054" lon="10.4835897"><ele>2.333333333333333</ele><time>2026-03-25T13:16:00.904Z</time></trkpt><trkpt lat="43.6542635" lon="10.4833759"><ele>2.0</ele><time>2026-03-25T13:16:01.904Z</time></trkpt><trkpt lat="43.6542226" lon="10.4831617"><ele>2.0</ele><time>2026-03-25T13:16:02.904Z</time></trkpt><trkpt lat="43.6541851" lon="10.4829447"><ele>2.0</ele><time>2026-03-25T13:16:03.903Z</time></trkpt><trkpt lat="43.6541471" lon="10.4827302"><ele>2.0</ele><time>2026-03-25T13:16:04.903Z</time></trkpt><trkpt lat="43.6541066" lon="10.482511"><ele>2.0</ele><time>2026-03-25T13:16:05.904Z</time></trkpt><trkpt lat="43.6540696" lon="10.482292"><ele>2.0</ele><time>2026-03-25T13:16:06.904Z</time></trkpt><trkpt lat="43.6540314" lon="10.4820688"><ele>2.0</ele><time>2026-03-25T13:16:07.903Z</time></trkpt><trkpt lat="43.6539961" lon="10.4818549"><ele>2.0</ele><time>2026-03-25T13:16:08.904Z</time></trkpt><trkpt lat="43.6539561" lon="10.4816446"><ele>2.0</ele><time>2026-03-25T13:16:09.904Z</time></trkpt><trkpt lat="43.6539194" lon="10.4814377"><ele>2.0</ele><time>2026-03-25T13:16:10.903Z</time></trkpt><trkpt lat="43.6538798" lon="10.4812276"><ele>2.0</ele><time>2026-03-25T13:16:11.904Z</time></trkpt><trkpt lat="43.6538419" lon="10.4810189"><ele>2.0</ele><time>2026-03-25T13:16:12.904Z</time></trkpt><trkpt lat="43.6538001" lon="10.4808099"><ele>2.0</ele><time>2026-03-25T13:16:13.904Z</time></trkpt><trkpt lat="43.6537563" lon="10.4805993"><ele>2.25</ele><time>2026-03-25T13:16:14.905Z</time></trkpt><trkpt lat="43.6537066" lon="10.4803981"><ele>2.5</ele><time>2026-03-25T13:16:15.905Z</time></trkpt><trkpt lat="43.6536595" lon="10.4802136"><ele>2.75</ele><time>2026-03-25T13:16:16.904Z</time></trkpt><trkpt lat="43.653609" lon="10.4800293"><ele>3.0</ele><time>2026-03-25T13:16:17.903Z</time></trkpt><trkpt lat="43.6535571" lon="10.4798578"><ele>3.0</ele><time>2026-03-25T13:16:18.904Z</time></trkpt><trkpt lat="43.6535105" lon="10.4796882"><ele>3.0</ele><time>2026-03-25T13:16:19.903Z</time></trkpt><trkpt lat="43.6534643" lon="10.4795212"><ele>3.0</ele><time>2026-03-25T13:16:20.904Z</time></trkpt><trkpt lat="43.6534181" lon="10.4793547"><ele>3.0</ele><time>2026-03-25T13:16:21.904Z</time></trkpt><trkpt lat="43.6533687" lon="10.4791864"><ele>2.75</ele><time>2026-03-25T13:16:22.904Z</time></trkpt><trkpt lat="43.6533182" lon="10.4790267"><ele>2.5</ele><time>2026-03-25T13:16:23.903Z</time></trkpt><trkpt lat="43.6532699" lon="10.478877"><ele>2.25</ele><time>2026-03-25T13:16:24.904Z</time></trkpt><trkpt lat="43.6532235" lon="10.478732"><ele>2.0</ele><time>2026-03-25T13:16:25.903Z</time></trkpt><trkpt lat="43.6531791" lon="10.4785808"><ele>1.75</ele><time>2026-03-25T13:16:26.904Z</time></trkpt><trkpt lat="43.653128" lon="10.4784318"><ele>1.5</ele><time>2026-03-25T13:16:27.904Z</time></trkpt><trkpt lat="43.653081" lon="10.4782728"><ele>1.25</ele><time>2026-03-25T13:16:28.904Z</time></trkpt><trkpt lat="43.6530332" lon="10.4781095"><ele>1.0</ele><time>2026-03-25T13:16:29.903Z</time></trkpt><trkpt lat="43.6529859" lon="10.4779482"><ele>1.25</ele><time>2026-03-25T13:16:30.904Z</time></trkpt><trkpt lat="43.6529369" lon="10.4777816"><ele>1.5</ele><time>2026-03-25T13:16:31.904Z</time></trkpt><trkpt lat="43.6528827" lon="10.4776013"><ele>1.75</ele><time>2026-03-25T13:16:32.903Z</time></trkpt><trkpt lat="43.652826" lon="10.4774212"><ele>2.0</ele><time>2026-03-25T13:16:33.904Z</time></trkpt><trkpt lat="43.6527683" lon="10.4772327"><ele>2.6666666666666665</ele><time>2026-03-25T13:16:34.905Z</time></trkpt><trkpt lat="43.6527085" lon="10.4770332"><ele>3.333333333333333</ele><time>2026-03-25T13:16:35.904Z</time></trkpt><trkpt lat="43.6526477" lon="10.4768326"><ele>4.0</ele><time>2026-03-25T13:16:36.903Z</time></trkpt><trkpt lat="43.6525877" lon="10.4766362"><ele>4.0</ele><time>2026-03-25T13:16:37.903Z</time></trkpt><trkpt lat="43.6525262" lon="10.4764396"><ele>4.0</ele><time>2026-03-25T13:16:38.903Z</time></trkpt><trkpt lat="43.6524605" lon="10.4762457"><ele>4.0</ele><time>2026-03-25T13:16:39.904Z</time></trkpt><trkpt lat="43.6524001" lon="10.4760541"><ele>3.6666666666666665</ele><time>2026-03-25T13:16:40.905Z</time></trkpt><trkpt lat="43.6523419" lon="10.4758603"><ele>3.333333333333333</ele><time>2026-03-25T13:16:41.904Z</time></trkpt><trkpt lat="43.6522825" lon="10.4756665"><ele>3.0</ele><time>2026-03-25T13:16:42.905Z</time></trkpt><trkpt lat="43.6522231" lon="10.4754691"><ele>2.6666666666666665</ele><time>2026-03-25T13:16:43.904Z</time></trkpt><trkpt lat="43.6521634" lon="10.4752645"><ele>2.333333333333333</ele><time>2026-03-25T13:16:44.904Z</time></trkpt><trkpt lat="43.6521041" lon="10.4750562"><ele>2.0</ele><time>2026-03-25T13:16:45.904Z</time></trkpt><trkpt lat="43.652042" lon="10.4748488"><ele>2.0</ele><time>2026-03-25T13:16:46.903Z</time></trkpt><trkpt lat="43.6519834" lon="10.474643"><ele>2.0</ele><time>2026-03-25T13:16:47.904Z</time></trkpt><trkpt lat="43.651925" lon="10.4744494"><ele>2.0</ele><time>2026-03-25T13:16:48.904Z</time></trkpt><trkpt lat="43.65187" lon="10.4742676"><ele>2.0</ele><time>2026-03-25T13:16:49.903Z</time></trkpt><trkpt lat="43.651816" lon="10.4740937"><ele>2.0</ele><time>2026-03-25T13:16:50.903Z</time></trkpt><trkpt lat="43.6517617" lon="10.4739319"><ele>2.0</ele><time>2026-03-25T13:16:51.904Z</time></trkpt><trkpt lat="43.6517144" lon="10.4737654"><ele>2.0</ele><time>2026-03-25T13:16:52.903Z</time></trkpt><trkpt lat="43.6516615" lon="10.4735928"><ele>2.0</ele><time>2026-03-25T13:16:53.904Z</time></trkpt><trkpt lat="43.6516091" lon="10.4734261"><ele>2.0</ele><time>2026-03-25T13:16:54.904Z</time></trkpt><trkpt lat="43.6515547" lon="10.4732581"><ele>2.0</ele><time>2026-03-25T13:16:55.904Z</time></trkpt><trkpt lat="43.6514993" lon="10.473088"><ele>2.0</ele><time>2026-03-25T13:16:56.903Z</time></trkpt><trkpt lat="43.6514375" lon="10.4729198"><ele>2.0</ele><time>2026-03-25T13:16:57.903Z</time></trkpt><trkpt lat="43.6513869" lon="10.4727457"><ele>2.0</ele><time>2026-03-25T13:16:58.903Z</time></trkpt><trkpt lat="43.6513361" lon="10.472567"><ele>2.0</ele><time>2026-03-25T13:16:59.903Z</time></trkpt><trkpt lat="43.6512787" lon="10.4723851"><ele>2.0</ele><time>2026-03-25T13:17:00.904Z</time></trkpt><trkpt lat="43.6512238" lon="10.4721989"><ele>2.0</ele><time>2026-03-25T13:17:01.905Z</time></trkpt><trkpt lat="43.6511657" lon="10.472011"><ele>2.0</ele><time>2026-03-25T13:17:02.904Z</time></trkpt><trkpt lat="43.6511084" lon="10.4718242"><ele>2.0</ele><time>2026-03-25T13:17:03.904Z</time></trkpt><trkpt lat="43.6510506" lon="10.4716339"><ele>2.0</ele><time>2026-03-25T13:17:04.903Z</time></trkpt><trkpt lat="43.65099" lon="10.4714356"><ele>2.0</ele><time>2026-03-25T13:17:05.903Z</time></trkpt><trkpt lat="43.6509255" lon="10.4712264"><ele>2.0</ele><time>2026-03-25T13:17:06.904Z</time></trkpt><trkpt lat="43.6508599" lon="10.4710096"><ele>2.0</ele><time>2026-03-25T13:17:07.904Z</time></trkpt><trkpt lat="43.6507899" lon="10.4707855"><ele>2.0</ele><time>2026-03-25T13:17:08.903Z</time></trkpt><trkpt lat="43.6507163" lon="10.4705519"><ele>2.0</ele><time>2026-03-25T13:17:09.903Z</time></trkpt><trkpt lat="43.6506439" lon="10.4703132"><ele>2.0</ele><time>2026-03-25T13:17:10.903Z</time></trkpt><trkpt lat="43.6505723" lon="10.4700778"><ele>1.6666666666666665</ele><time>2026-03-25T13:17:11.904Z</time></trkpt><trkpt lat="43.6505018" lon="10.4698459"><ele>1.3333333333333333</ele><time>2026-03-25T13:17:12.904Z</time></trkpt><trkpt lat="43.6504317" lon="10.4696216"><ele>1.0</ele><time>2026-03-25T13:17:13.904Z</time></trkpt><trkpt lat="43.650362" lon="10.4693965"><ele>0.6666666666666666</ele><time>2026-03-25T13:17:14.904Z</time></trkpt><trkpt lat="43.6502974" lon="10.4691799"><ele>0.3333333333333333</ele><time>2026-03-25T13:17:15.903Z</time></trkpt><trkpt lat="43.6502306" lon="10.4689701"><ele>0.0</ele><time>2026-03-25T13:17:16.903Z</time></trkpt><trkpt lat="43.6501676" lon="10.468765"><ele>0.6666666666666666</ele><time>2026-03-25T13:17:17.904Z</time></trkpt><trkpt lat="43.6501051" lon="10.4685626"><ele>1.3333333333333333</ele><time>2026-03-25T13:17:18.904Z</time></trkpt><trkpt lat="43.650038" lon="10.4683563"><ele>2.0</ele><time>2026-03-25T13:17:19.905Z</time></trkpt><trkpt lat="43.6499738" lon="10.4681467"><ele>2.0</ele><time>2026-03-25T13:17:20.904Z</time></trkpt><trkpt lat="43.6499061" lon="10.4679442"><ele>2.0</ele><time>2026-03-25T13:17:21.903Z</time></trkpt><trkpt lat="43.6498386" lon="10.4677455"><ele>2.0</ele><time>2026-03-25T13:17:22.904Z</time></trkpt><trkpt lat="43.6497664" lon="10.4675388"><ele>1.6666666666666665</ele><time>2026-03-25T13:17:23.904Z</time></trkpt><trkpt lat="43.6496946" lon="10.4673286"><ele>1.3333333333333333</ele><time>2026-03-25T13:17:24.904Z</time></trkpt><trkpt lat="43.6496217" lon="10.467111"><ele>1.0</ele><time>2026-03-25T13:17:25.904Z</time></trkpt><trkpt lat="43.6495518" lon="10.4668816"><ele>1.0</ele><time>2026-03-25T13:17:26.903Z</time></trkpt><trkpt lat="43.6494785" lon="10.4666485"><ele>1.0</ele><time>2026-03-25T13:17:27.904Z</time></trkpt><trkpt lat="43.6494088" lon="10.4664183"><ele>1.0</ele><time>2026-03-25T13:17:28.904Z</time></trkpt><trkpt lat="43.6493433" lon="10.4661924"><ele>1.0</ele><time>2026-03-25T13:17:29.904Z</time></trkpt><trkpt lat="43.6492759" lon="10.4659745"><ele>1.0</ele><time>2026-03-25T13:17:30.904Z</time></trkpt><trkpt lat="43.6492106" lon="10.4657583"><ele>1.0</ele><time>2026-03-25T13:17:31.903Z</time></trkpt><trkpt lat="43.6491409" lon="10.4655397"><ele>1.0</ele><time>2026-03-25T13:17:32.903Z</time></trkpt><trkpt lat="43.6490738" lon="10.4653095"><ele>1.0</ele><time>2026-03-25T13:17:33.904Z</time></trkpt><trkpt lat="43.6490067" lon="10.4650788"><ele>1.0</ele><time>2026-03-25T13:17:34.904Z</time></trkpt><trkpt lat="43.6489433" lon="10.4648532"><ele>1.0</ele><time>2026-03-25T13:17:35.904Z</time></trkpt><trkpt lat="43.6488819" lon="10.4646307"><ele>1.0</ele><time>2026-03-25T13:17:36.903Z</time></trkpt><trkpt lat="43.6488214" lon="10.464403"><ele>1.0</ele><time>2026-03-25T13:17:37.904Z</time></trkpt><trkpt lat="43.6487638" lon="10.464173"><ele>1.0</ele><time>2026-03-25T13:17:38.903Z</time></trkpt><trkpt lat="43.6487059" lon="10.4639453"><ele>1.0</ele><time>2026-03-25T13:17:39.904Z</time></trkpt><trkpt lat="43.6486452" lon="10.4637206"><ele>1.0</ele><time>2026-03-25T13:17:40.904Z</time></trkpt><trkpt lat="43.6485818" lon="10.4634962"><ele>1.0</ele><time>2026-03-25T13:17:41.903Z</time></trkpt><trkpt lat="43.6485222" lon="10.4632682"><ele>1.0</ele><time>2026-03-25T13:17:42.903Z</time></trkpt><trkpt lat="43.6484605" lon="10.4630408"><ele>1.0</ele><time>2026-03-25T13:17:43.903Z</time></trkpt><trkpt lat="43.6483981" lon="10.4628192"><ele>1.0</ele><time>2026-03-25T13:17:44.903Z</time></trkpt><trkpt lat="43.6483341" lon="10.4625967"><ele>1.0</ele><time>2026-03-25T13:17:45.903Z</time></trkpt><trkpt lat="43.6482698" lon="10.4623822"><ele>1.0</ele><time>2026-03-25T13:17:46.905Z</time></trkpt><trkpt lat="43.6482026" lon="10.4621709"><ele>1.0</ele><time>2026-03-25T13:17:47.903Z</time></trkpt><trkpt lat="43.6481361" lon="10.4619628"><ele>1.0</ele><time>2026-03-25T13:17:48.903Z</time></trkpt><trkpt lat="43.6480606" lon="10.4617585"><ele>1.0</ele><time>2026-03-25T13:17:49.903Z</time></trkpt><trkpt lat="43.6479757" lon="10.461561"><ele>1.0</ele><time>2026-03-25T13:17:50.903Z</time></trkpt><trkpt lat="43.6478866" lon="10.4613673"><ele>1.0</ele><time>2026-03-25T13:17:51.904Z</time></trkpt><trkpt lat="43.6478068" lon="10.4611659"><ele>1.0</ele><time>2026-03-25T13:17:52.904Z</time></trkpt><trkpt lat="43.6477325" lon="10.4609512"><ele>1.0</ele><time>2026-03-25T13:17:53.904Z</time></trkpt><trkpt lat="43.6476666" lon="10.4607266"><ele>1.0</ele><time>2026-03-25T13:17:54.903Z</time></trkpt><trkpt lat="43.6475995" lon="10.4604934"><ele>1.0</ele><time>2026-03-25T13:17:55.903Z</time></trkpt><trkpt lat="43.6475357" lon="10.4602681"><ele>1.0</ele><time>2026-03-25T13:17:56.904Z</time></trkpt><trkpt lat="43.6474761" lon="10.4600557"><ele>1.0</ele><time>2026-03-25T13:17:57.905Z</time></trkpt><trkpt lat="43.6474166" lon="10.4598496"><ele>1.0</ele><time>2026-03-25T13:17:58.904Z</time></trkpt><trkpt lat="43.6473607" lon="10.459654"><ele>1.3333333333333333</ele><time>2026-03-25T13:17:59.903Z</time></trkpt><trkpt lat="43.647305" lon="10.4594563"><ele>1.6666666666666665</ele><time>2026-03-25T13:18:00.904Z</time></trkpt><trkpt lat="43.6472445" lon="10.4592604"><ele>2.0</ele><time>2026-03-25T13:18:01.905Z</time></trkpt><trkpt lat="43.6471802" lon="10.4590467"><ele>2.0</ele><time>2026-03-25T13:18:02.904Z</time></trkpt><trkpt lat="43.6471173" lon="10.4588288"><ele>2.0</ele><time>2026-03-25T13:18:03.904Z</time></trkpt><trkpt lat="43.647055" lon="10.4586178"><ele>2.0</ele><time>2026-03-25T13:18:04.903Z</time></trkpt><trkpt lat="43.646995" lon="10.4584102"><ele>1.6666666666666665</ele><time>2026-03-25T13:18:05.904Z</time></trkpt><trkpt lat="43.6469348" lon="10.4582105"><ele>1.3333333333333333</ele><time>2026-03-25T13:18:06.904Z</time></trkpt><trkpt lat="43.6468745" lon="10.4580094"><ele>1.0</ele><time>2026-03-25T13:18:07.903Z</time></trkpt><trkpt lat="43.6468111" lon="10.4578036"><ele>1.0</ele><time>2026-03-25T13:18:08.904Z</time></trkpt><trkpt lat="43.6467483" lon="10.4575855"><ele>1.0</ele><time>2026-03-25T13:18:09.903Z</time></trkpt><trkpt lat="43.6466854" lon="10.4573693"><ele>1.0</ele><time>2026-03-25T13:18:10.904Z</time></trkpt><trkpt lat="43.6466234" lon="10.4571571"><ele>1.3333333333333333</ele><time>2026-03-25T13:18:11.903Z</time></trkpt><trkpt lat="43.646562" lon="10.4569463"><ele>1.6666666666666665</ele><time>2026-03-25T13:18:12.904Z</time></trkpt><trkpt lat="43.6465008" lon="10.4567438"><ele>2.0</ele><time>2026-03-25T13:18:13.904Z</time></trkpt><trkpt lat="43.6464416" lon="10.4565434"><ele>2.0</ele><time>2026-03-25T13:18:14.904Z</time></trkpt><trkpt lat="43.6463808" lon="10.4563481"><ele>2.0</ele><time>2026-03-25T13:18:15.904Z</time></trkpt><trkpt lat="43.646326" lon="10.4561512"><ele>2.0</ele><time>2026-03-25T13:18:16.904Z</time></trkpt><trkpt lat="43.6462921" lon="10.4559554"><ele>1.6</ele><time>2026-03-25T13:18:17.903Z</time></trkpt><trkpt lat="43.6462692" lon="10.4557779"><ele>1.2000000000000002</ele><time>2026-03-25T13:18:18.904Z</time></trkpt><trkpt lat="43.6462525" lon="10.4556217"><ele>0.8</ele><time>2026-03-25T13:18:19.903Z</time></trkpt><trkpt lat="43.6462396" lon="10.455495"><ele>0.4</ele><time>2026-03-25T13:18:20.903Z</time></trkpt><trkpt lat="43.6462252" lon="10.4553984"><ele>0.0</ele><time>2026-03-25T13:18:21.903Z</time></trkpt><trkpt lat="43.6462053" lon="10.4552885"><ele>0.0</ele><time>2026-03-25T13:18:23.903Z</time></trkpt><trkpt lat="43.6461734" lon="10.4551789"><ele>0.0</ele><time>2026-03-25T13:19:08.904Z</time></trkpt><trkpt lat="43.6461362" lon="10.4550476"><ele>0.0</ele><time>2026-03-25T13:19:09.904Z</time></trkpt><trkpt lat="43.6460892" lon="10.4548908"><ele>0.0</ele><time>2026-03-25T13:19:10.905Z</time></trkpt><trkpt lat="43.6460427" lon="10.4547424"><ele>0.0</ele><time>2026-03-25T13:19:11.904Z</time></trkpt><trkpt lat="43.6460012" lon="10.4546029"><ele>0.5</ele><time>2026-03-25T13:19:12.904Z</time></trkpt><trkpt lat="43.6459531" lon="10.4544462"><ele>1.0</ele><time>2026-03-25T13:19:13.905Z</time></trkpt><trkpt lat="43.6459" lon="10.4542761"><ele>1.5</ele><time>2026-03-25T13:19:14.904Z</time></trkpt><trkpt lat="43.645848" lon="10.4540958"><ele>2.0</ele><time>2026-03-25T13:19:15.904Z</time></trkpt><trkpt lat="43.6457959" lon="10.4539166"><ele>1.75</ele><time>2026-03-25T13:19:16.904Z</time></trkpt><trkpt lat="43.6457477" lon="10.4537477"><ele>1.5</ele><time>2026-03-25T13:19:17.904Z</time></trkpt><trkpt lat="43.6456984" lon="10.4535825"><ele>1.25</ele><time>2026-03-25T13:19:18.905Z</time></trkpt><trkpt lat="43.6456473" lon="10.4534147"><ele>1.0</ele><time>2026-03-25T13:19:19.904Z</time></trkpt><trkpt lat="43.6455975" lon="10.453243"><ele>1.0</ele><time>2026-03-25T13:19:20.904Z</time></trkpt><trkpt lat="43.6455465" lon="10.4530586"><ele>1.0</ele><time>2026-03-25T13:19:21.904Z</time></trkpt><trkpt lat="43.6454889" lon="10.4528614"><ele>1.0</ele><time>2026-03-25T13:19:22.904Z</time></trkpt><trkpt lat="43.6454326" lon="10.4526685"><ele>1.0</ele><time>2026-03-25T13:19:23.904Z</time></trkpt><trkpt lat="43.64538" lon="10.4524908"><ele>1.0</ele><time>2026-03-25T13:19:24.903Z</time></trkpt><trkpt lat="43.6453305" lon="10.4523222"><ele>1.0</ele><time>2026-03-25T13:19:25.903Z</time></trkpt><trkpt lat="43.6452803" lon="10.4521576"><ele>1.0</ele><time>2026-03-25T13:19:26.904Z</time></trkpt><trkpt lat="43.6452326" lon="10.4519897"><ele>1.0</ele><time>2026-03-25T13:19:27.903Z</time></trkpt><trkpt lat="43.645183" lon="10.4518196"><ele>1.0</ele><time>2026-03-25T13:19:28.903Z</time></trkpt><trkpt lat="43.6451319" lon="10.4516524"><ele>1.0</ele><time>2026-03-25T13:19:29.905Z</time></trkpt><trkpt lat="43.645079" lon="10.4514814"><ele>1.0</ele><time>2026-03-25T13:19:30.904Z</time></trkpt><trkpt lat="43.6450245" lon="10.4513008"><ele>1.0</ele><time>2026-03-25T13:19:31.905Z</time></trkpt><trkpt lat="43.6449738" lon="10.4511167"><ele>1.0</ele><time>2026-03-25T13:19:32.904Z</time></trkpt><trkpt lat="43.644917" lon="10.450931"><ele>1.0</ele><time>2026-03-25T13:19:33.903Z</time></trkpt><trkpt lat="43.6448598" lon="10.4507402"><ele>1.0</ele><time>2026-03-25T13:19:34.903Z</time></trkpt><trkpt lat="43.6448064" lon="10.4505485"><ele>1.0</ele><time>2026-03-25T13:19:35.904Z</time></trkpt><trkpt lat="43.6447541" lon="10.4503666"><ele>1.0</ele><time>2026-03-25T13:19:36.904Z</time></trkpt><trkpt lat="43.6447064" lon="10.450196"><ele>1.0</ele><time>2026-03-25T13:19:37.904Z</time></trkpt><trkpt lat="43.6446616" lon="10.4500367"><ele>1.0</ele><time>2026-03-25T13:19:38.904Z</time></trkpt><trkpt lat="43.6446181" lon="10.4498917"><ele>1.0</ele><time>2026-03-25T13:19:39.904Z</time></trkpt><trkpt lat="43.6445764" lon="10.4497649"><ele>0.9999999999999999</ele><time>2026-03-25T13:19:40.904Z</time></trkpt><trkpt lat="43.6445392" lon="10.4496542"><ele>1.0</ele><time>2026-03-25T13:19:41.904Z</time></trkpt><trkpt lat="43.6445085" lon="10.4495682"><ele>1.0</ele><time>2026-03-25T13:19:42.905Z</time></trkpt><trkpt lat="43.6444658" lon="10.4494487"><ele>1.0</ele><time>2026-03-25T13:19:44.903Z</time></trkpt><trkpt lat="43.6444495" lon="10.4493576"><ele>0.9999999999999999</ele><time>2026-03-25T13:20:32.904Z</time></trkpt><trkpt lat="43.6444021" lon="10.4492357"><ele>1.0</ele><time>2026-03-25T13:20:34.905Z</time></trkpt><trkpt lat="43.6444028" lon="10.4491039"><ele>1.2000000000000002</ele><time>2026-03-25T13:20:36.904Z</time></trkpt><trkpt lat="43.644477" lon="10.449013"><ele>1.4000000000000001</ele><time>2026-03-25T13:20:38.904Z</time></trkpt><trkpt lat="43.6445501" lon="10.4489667"><ele>1.6</ele><time>2026-03-25T13:20:39.903Z</time></trkpt><trkpt lat="43.6446423" lon="10.4489143"><ele>1.8</ele><time>2026-03-25T13:20:40.905Z</time></trkpt><trkpt lat="43.644744" lon="10.4488524"><ele>2.0</ele><time>2026-03-25T13:20:41.903Z</time></trkpt><trkpt lat="43.6448366" lon="10.4487955"><ele>2.0</ele><time>2026-03-25T13:20:42.903Z</time></trkpt><trkpt lat="43.6449334" lon="10.4487341"><ele>2.0</ele><time>2026-03-25T13:20:43.903Z</time></trkpt><trkpt lat="43.6450219" lon="10.4486769"><ele>2.0</ele><time>2026-03-25T13:20:44.904Z</time></trkpt><trkpt lat="43.6450955" lon="10.4486227"><ele>2.0</ele><time>2026-03-25T13:20:45.904Z</time></trkpt><trkpt lat="43.6451538" lon="10.4485828"><ele>2.0</ele><time>2026-03-25T13:20:46.905Z</time></trkpt><trkpt lat="43.6452607" lon="10.4485203"><ele>1.8</ele><time>2026-03-25T13:20:48.903Z</time></trkpt><trkpt lat="43.6453234" lon="10.4484834"><ele>1.6</ele><time>2026-03-25T13:20:49.903Z</time></trkpt><trkpt lat="43.6453989" lon="10.4484374"><ele>1.4000000000000001</ele><time>2026-03-25T13:20:50.903Z</time></trkpt><trkpt lat="43.6454904" lon="10.4483829"><ele>1.2000000000000002</ele><time>2026-03-25T13:20:51.904Z</time></trkpt><trkpt lat="43.6455987" lon="10.4483124"><ele>1.0</ele><time>2026-03-25T13:20:52.904Z</time></trkpt><trkpt lat="43.6457259" lon="10.4482302"><ele>1.0</ele><time>2026-03-25T13:20:53.903Z</time></trkpt><trkpt lat="43.6458637" lon="10.4481419"><ele>1.0</ele><time>2026-03-25T13:20:54.904Z</time></trkpt><trkpt lat="43.6460003" lon="10.4480563"><ele>1.0</ele><time>2026-03-25T13:20:55.904Z</time></trkpt><trkpt lat="43.64614" lon="10.4479669"><ele>0.3333333333333333</ele><time>2026-03-25T13:20:56.903Z</time></trkpt><trkpt lat="43.646287" lon="10.4478687"><ele>-0.3333333333333333</ele><time>2026-03-25T13:20:57.904Z</time></trkpt><trkpt lat="43.646445" lon="10.4477715"><ele>-1.0</ele><time>2026-03-25T13:20:58.904Z</time></trkpt><trkpt lat="43.6466082" lon="10.4476691"><ele>-1.0</ele><time>2026-03-25T13:20:59.903Z</time></trkpt><trkpt lat="43.646768" lon="10.4475702"><ele>-1.0</ele><time>2026-03-25T13:21:00.904Z</time></trkpt><trkpt lat="43.6469258" lon="10.4474718"><ele>-1.0</ele><time>2026-03-25T13:21:01.905Z</time></trkpt><trkpt lat="43.6470858" lon="10.4473678"><ele>-1.3333333333333333</ele><time>2026-03-25T13:21:02.904Z</time></trkpt><trkpt lat="43.6472483" lon="10.4472663"><ele>-1.6666666666666665</ele><time>2026-03-25T13:21:03.904Z</time></trkpt><trkpt lat="43.6474138" lon="10.4471636"><ele>-2.0</ele><time>2026-03-25T13:21:04.904Z</time></trkpt><trkpt lat="43.6475797" lon="10.4470609"><ele>-1.3333333333333333</ele><time>2026-03-25T13:21:05.905Z</time></trkpt><trkpt lat="43.647747" lon="10.4469541"><ele>-0.6666666666666666</ele><time>2026-03-25T13:21:06.904Z</time></trkpt><trkpt lat="43.6479143" lon="10.4468489"><ele>0.0</ele><time>2026-03-25T13:21:07.903Z</time></trkpt><trkpt lat="43.6480832" lon="10.4467446"><ele>0.0</ele><time>2026-03-25T13:21:08.904Z</time></trkpt><trkpt lat="43.6482584" lon="10.4466364"><ele>0.0</ele><time>2026-03-25T13:21:09.904Z</time></trkpt><trkpt lat="43.6484346" lon="10.446522"><ele>0.0</ele><time>2026-03-25T13:21:10.905Z</time></trkpt><trkpt lat="43.6486203" lon="10.4464091"><ele>-0.3333333333333333</ele><time>2026-03-25T13:21:11.903Z</time></trkpt><trkpt lat="43.6488133" lon="10.4462881"><ele>-0.6666666666666666</ele><time>2026-03-25T13:21:12.904Z</time></trkpt><trkpt lat="43.649009" lon="10.4461619"><ele>-1.0</ele><time>2026-03-25T13:21:13.903Z</time></trkpt><trkpt lat="43.6492067" lon="10.4460388"><ele>-1.0</ele><time>2026-03-25T13:21:14.904Z</time></trkpt><trkpt lat="43.6494082" lon="10.4459156"><ele>-1.0</ele><time>2026-03-25T13:21:15.904Z</time></trkpt><trkpt lat="43.6496137" lon="10.4457871"><ele>-1.0</ele><time>2026-03-25T13:21:16.905Z</time></trkpt><trkpt lat="43.6498141" lon="10.4456572"><ele>-1.0</ele><time>2026-03-25T13:21:17.904Z</time></trkpt><trkpt lat="43.6500116" lon="10.4455329"><ele>-1.0</ele><time>2026-03-25T13:21:18.904Z</time></trkpt><trkpt lat="43.6502102" lon="10.4454081"><ele>-1.0</ele><time>2026-03-25T13:21:19.903Z</time></trkpt><trkpt lat="43.6504083" lon="10.4452823"><ele>-0.3333333333333333</ele><time>2026-03-25T13:21:20.904Z</time></trkpt><trkpt lat="43.6506076" lon="10.4451562"><ele>0.3333333333333333</ele><time>2026-03-25T13:21:21.904Z</time></trkpt><trkpt lat="43.6508084" lon="10.4450292"><ele>1.0</ele><time>2026-03-25T13:21:22.904Z</time></trkpt><trkpt lat="43.6510102" lon="10.4449001"><ele>0.3333333333333333</ele><time>2026-03-25T13:21:23.904Z</time></trkpt><trkpt lat="43.6512095" lon="10.4447735"><ele>-0.3333333333333333</ele><time>2026-03-25T13:21:24.904Z</time></trkpt><trkpt lat="43.6514101" lon="10.4446464"><ele>-1.0</ele><time>2026-03-25T13:21:25.905Z</time></trkpt><trkpt lat="43.6516127" lon="10.444517"><ele>-1.0</ele><time>2026-03-25T13:21:26.903Z</time></trkpt><trkpt lat="43.6518149" lon="10.4443882"><ele>-1.0</ele><time>2026-03-25T13:21:27.905Z</time></trkpt><trkpt lat="43.6520153" lon="10.4442575"><ele>-1.0</ele><time>2026-03-25T13:21:28.904Z</time></trkpt><trkpt lat="43.6524221" lon="10.4440003"><ele>-1.0</ele><time>2026-03-25T13:21:30.904Z</time></trkpt><trkpt lat="43.6526255" lon="10.443868"><ele>-1.0</ele><time>2026-03-25T13:21:31.905Z</time></trkpt><trkpt lat="43.6528297" lon="10.4437365"><ele>-1.0</ele><time>2026-03-25T13:21:32.904Z</time></trkpt><trkpt lat="43.6530339" lon="10.4436072"><ele>-1.0</ele><time>2026-03-25T13:21:33.903Z</time></trkpt><trkpt lat="43.65324" lon="10.4434779"><ele>-1.0</ele><time>2026-03-25T13:21:34.904Z</time></trkpt><trkpt lat="43.6534461" lon="10.4433508"><ele>-1.0</ele><time>2026-03-25T13:21:35.904Z</time></trkpt><trkpt lat="43.6536546" lon="10.4432199"><ele>-0.5</ele><time>2026-03-25T13:21:36.904Z</time></trkpt><trkpt lat="43.6538623" lon="10.4430868"><ele>0.0</ele><time>2026-03-25T13:21:37.903Z</time></trkpt><trkpt lat="43.6540723" lon="10.4429535"><ele>0.0</ele><time>2026-03-25T13:21:38.904Z</time></trkpt><trkpt lat="43.6542822" lon="10.4428147"><ele>0.0</ele><time>2026-03-25T13:21:39.904Z</time></trkpt><trkpt lat="43.6544917" lon="10.4426821"><ele>0.0</ele><time>2026-03-25T13:21:40.903Z</time></trkpt><trkpt lat="43.6547005" lon="10.4425467"><ele>0.0</ele><time>2026-03-25T13:21:41.903Z</time></trkpt><trkpt lat="43.6549128" lon="10.4424111"><ele>0.0</ele><time>2026-03-25T13:21:42.903Z</time></trkpt><trkpt lat="43.6551271" lon="10.4422802"><ele>0.0</ele><time>2026-03-25T13:21:43.903Z</time></trkpt><trkpt lat="43.6553408" lon="10.4421476"><ele>0.5</ele><time>2026-03-25T13:21:44.904Z</time></trkpt><trkpt lat="43.6555526" lon="10.4420118"><ele>1.0</ele><time>2026-03-25T13:21:45.905Z</time></trkpt><trkpt lat="43.6557643" lon="10.4418757"><ele>1.0</ele><time>2026-03-25T13:21:46.903Z</time></trkpt><trkpt lat="43.6559674" lon="10.4417401"><ele>1.0</ele><time>2026-03-25T13:21:47.904Z</time></trkpt><trkpt lat="43.6561711" lon="10.4416101"><ele>1.0</ele><time>2026-03-25T13:21:48.905Z</time></trkpt><trkpt lat="43.6563716" lon="10.441484"><ele>1.0</ele><time>2026-03-25T13:21:49.904Z</time></trkpt><trkpt lat="43.6565732" lon="10.4413596"><ele>1.0</ele><time>2026-03-25T13:21:50.905Z</time></trkpt><trkpt lat="43.656772" lon="10.441233"><ele>1.0</ele><time>2026-03-25T13:21:51.903Z</time></trkpt><trkpt lat="43.6569701" lon="10.4411071"><ele>1.0</ele><time>2026-03-25T13:21:52.903Z</time></trkpt><trkpt lat="43.6571689" lon="10.4409815"><ele>1.0</ele><time>2026-03-25T13:21:53.904Z</time></trkpt><trkpt lat="43.6573608" lon="10.4408549"><ele>1.0</ele><time>2026-03-25T13:21:54.904Z</time></trkpt><trkpt lat="43.6575433" lon="10.4407353"><ele>1.0</ele><time>2026-03-25T13:21:55.903Z</time></trkpt><trkpt lat="43.6577152" lon="10.4406232"><ele>1.0</ele><time>2026-03-25T13:21:56.903Z</time></trkpt><trkpt lat="43.6578757" lon="10.4405217"><ele>0.6666666666666666</ele><time>2026-03-25T13:21:57.905Z</time></trkpt><trkpt lat="43.6580264" lon="10.4404268"><ele>0.3333333333333333</ele><time>2026-03-25T13:21:58.904Z</time></trkpt><trkpt lat="43.6581658" lon="10.440339"><ele>0.0</ele><time>2026-03-25T13:21:59.904Z</time></trkpt><trkpt lat="43.6582949" lon="10.4402575"><ele>0.0</ele><time>2026-03-25T13:22:00.904Z</time></trkpt><trkpt lat="43.6584117" lon="10.4401825"><ele>0.0</ele><time>2026-03-25T13:22:01.904Z</time></trkpt><trkpt lat="43.6585191" lon="10.4401131"><ele>0.0</ele><time>2026-03-25T13:22:02.904Z</time></trkpt><trkpt lat="43.6586181" lon="10.4400523"><ele>0.0</ele><time>2026-03-25T13:22:03.905Z</time></trkpt><trkpt lat="43.6587139" lon="10.4399933"><ele>-0.4</ele><time>2026-03-25T13:22:04.904Z</time></trkpt><trkpt lat="43.6588068" lon="10.4399383"><ele>-0.8</ele><time>2026-03-25T13:22:05.905Z</time></trkpt><trkpt lat="43.6588983" lon="10.4398821"><ele>-1.2000000000000002</ele><time>2026-03-25T13:22:06.903Z</time></trkpt><trkpt lat="43.6589919" lon="10.4398198"><ele>-1.6</ele><time>2026-03-25T13:22:07.904Z</time></trkpt><trkpt lat="43.6590861" lon="10.4397563"><ele>-2.0</ele><time>2026-03-25T13:22:08.903Z</time></trkpt><trkpt lat="43.6591831" lon="10.4396952"><ele>-2.0</ele><time>2026-03-25T13:22:09.903Z</time></trkpt><trkpt lat="43.6592821" lon="10.4396361"><ele>-2.0</ele><time>2026-03-25T13:22:10.904Z</time></trkpt><trkpt lat="43.6593817" lon="10.4395747"><ele>-2.0</ele><time>2026-03-25T13:22:11.904Z</time></trkpt><trkpt lat="43.6594829" lon="10.4395106"><ele>-2.0</ele><time>2026-03-25T13:22:12.903Z</time></trkpt><trkpt lat="43.6595853" lon="10.4394439"><ele>-2.0</ele><time>2026-03-25T13:22:13.904Z</time></trkpt><trkpt lat="43.6596836" lon="10.4393806"><ele>-1.4000000000000001</ele><time>2026-03-25T13:22:14.903Z</time></trkpt><trkpt lat="43.6597788" lon="10.4393171"><ele>-0.8000000000000002</ele><time>2026-03-25T13:22:15.904Z</time></trkpt><trkpt lat="43.6598743" lon="10.4392541"><ele>-0.19999999999999996</ele><time>2026-03-25T13:22:16.904Z</time></trkpt><trkpt lat="43.6599738" lon="10.4391888"><ele>0.4</ele><time>2026-03-25T13:22:17.905Z</time></trkpt><trkpt lat="43.6600798" lon="10.4391213"><ele>1.0</ele><time>2026-03-25T13:22:18.903Z</time></trkpt><trkpt lat="43.6601925" lon="10.4390509"><ele>1.0</ele><time>2026-03-25T13:22:19.904Z</time></trkpt><trkpt lat="43.6603084" lon="10.4389802"><ele>1.0</ele><time>2026-03-25T13:22:20.904Z</time></trkpt><trkpt lat="43.6604273" lon="10.4389049"><ele>1.0</ele><time>2026-03-25T13:22:21.905Z</time></trkpt><trkpt lat="43.660555" lon="10.4388257"><ele>1.0</ele><time>2026-03-25T13:22:22.904Z</time></trkpt><trkpt lat="43.6606922" lon="10.4387398"><ele>1.0</ele><time>2026-03-25T13:22:23.904Z</time></trkpt><trkpt lat="43.6608242" lon="10.4386579"><ele>1.0</ele><time>2026-03-25T13:22:24.905Z</time></trkpt><trkpt lat="43.6609548" lon="10.4385776"><ele>1.0</ele><time>2026-03-25T13:22:25.903Z</time></trkpt><trkpt lat="43.6610846" lon="10.4384935"><ele>1.0</ele><time>2026-03-25T13:22:26.904Z</time></trkpt><trkpt lat="43.6612153" lon="10.4384102"><ele>0.75</ele><time>2026-03-25T13:22:27.903Z</time></trkpt><trkpt lat="43.6613398" lon="10.4383348"><ele>0.5</ele><time>2026-03-25T13:22:28.904Z</time></trkpt><trkpt lat="43.66146" lon="10.4382607"><ele>0.25</ele><time>2026-03-25T13:22:29.905Z</time></trkpt><trkpt lat="43.6615768" lon="10.4381862"><ele>0.0</ele><time>2026-03-25T13:22:30.904Z</time></trkpt><trkpt lat="43.6616957" lon="10.4381107"><ele>0.0</ele><time>2026-03-25T13:22:31.904Z</time></trkpt><trkpt lat="43.6618201" lon="10.4380307"><ele>0.0</ele><time>2026-03-25T13:22:32.903Z</time></trkpt><trkpt lat="43.6619499" lon="10.4379491"><ele>0.0</ele><time>2026-03-25T13:22:33.905Z</time></trkpt><trkpt lat="43.6620833" lon="10.4378644"><ele>0.0</ele><time>2026-03-25T13:22:34.904Z</time></trkpt><trkpt lat="43.6622143" lon="10.4377802"><ele>0.0</ele><time>2026-03-25T13:22:35.904Z</time></trkpt><trkpt lat="43.6623442" lon="10.4377003"><ele>0.0</ele><time>2026-03-25T13:22:36.904Z</time></trkpt><trkpt lat="43.6624772" lon="10.4376179"><ele>0.0</ele><time>2026-03-25T13:22:37.904Z</time></trkpt><trkpt lat="43.6626129" lon="10.4375371"><ele>0.0</ele><time>2026-03-25T13:22:38.904Z</time></trkpt><trkpt lat="43.6627528" lon="10.43745"><ele>0.0</ele><time>2026-03-25T13:22:39.904Z</time></trkpt><trkpt lat="43.6628939" lon="10.4373601"><ele>0.0</ele><time>2026-03-25T13:22:40.904Z</time></trkpt><trkpt lat="43.663037" lon="10.4372688"><ele>0.0</ele><time>2026-03-25T13:22:41.904Z</time></trkpt><trkpt lat="43.6631807" lon="10.4371749"><ele>0.0</ele><time>2026-03-25T13:22:42.903Z</time></trkpt><trkpt lat="43.6633285" lon="10.437082"><ele>0.0</ele><time>2026-03-25T13:22:43.903Z</time></trkpt><trkpt lat="43.6634767" lon="10.4369882"><ele>0.0</ele><time>2026-03-25T13:22:44.904Z</time></trkpt><trkpt lat="43.6636298" lon="10.4368904"><ele>0.0</ele><time>2026-03-25T13:22:45.903Z</time></trkpt><trkpt lat="43.6637828" lon="10.4367958"><ele>0.0</ele><time>2026-03-25T13:22:46.903Z</time></trkpt><trkpt lat="43.6639365" lon="10.4367002"><ele>0.0</ele><time>2026-03-25T13:22:47.905Z</time></trkpt><trkpt lat="43.6640921" lon="10.4366009"><ele>0.0</ele><time>2026-03-25T13:22:48.903Z</time></trkpt><trkpt lat="43.6642475" lon="10.4365031"><ele>0.0</ele><time>2026-03-25T13:22:49.903Z</time></trkpt><trkpt lat="43.6644027" lon="10.436406"><ele>0.0</ele><time>2026-03-25T13:22:50.904Z</time></trkpt><trkpt lat="43.6645608" lon="10.4363064"><ele>0.0</ele><time>2026-03-25T13:22:51.903Z</time></trkpt><trkpt lat="43.6647131" lon="10.4362072"><ele>0.0</ele><time>2026-03-25T13:22:52.903Z</time></trkpt><trkpt lat="43.664862" lon="10.4361083"><ele>0.0</ele><time>2026-03-25T13:22:53.903Z</time></trkpt><trkpt lat="43.6650101" lon="10.4360163"><ele>0.0</ele><time>2026-03-25T13:22:54.904Z</time></trkpt><trkpt lat="43.665151" lon="10.4359318"><ele>0.0</ele><time>2026-03-25T13:22:55.904Z</time></trkpt><trkpt lat="43.6652923" lon="10.4358412"><ele>0.0</ele><time>2026-03-25T13:22:56.903Z</time></trkpt><trkpt lat="43.6654339" lon="10.4357507"><ele>0.3333333333333333</ele><time>2026-03-25T13:22:57.903Z</time></trkpt><trkpt lat="43.6655772" lon="10.4356628"><ele>0.6666666666666666</ele><time>2026-03-25T13:22:58.904Z</time></trkpt><trkpt lat="43.665723" lon="10.4355696"><ele>1.0</ele><time>2026-03-25T13:22:59.903Z</time></trkpt><trkpt lat="43.6658716" lon="10.435472"><ele>1.0</ele><time>2026-03-25T13:23:00.904Z</time></trkpt><trkpt lat="43.6660188" lon="10.4353803"><ele>1.0</ele><time>2026-03-25T13:23:01.903Z</time></trkpt><trkpt lat="43.6661664" lon="10.4352885"><ele>1.0</ele><time>2026-03-25T13:23:02.903Z</time></trkpt><trkpt lat="43.6663083" lon="10.435201"><ele>1.0</ele><time>2026-03-25T13:23:03.904Z</time></trkpt><trkpt lat="43.6664486" lon="10.4351151"><ele>1.0</ele><time>2026-03-25T13:23:04.904Z</time></trkpt><trkpt lat="43.6665844" lon="10.4350251"><ele>1.0</ele><time>2026-03-25T13:23:05.904Z</time></trkpt><trkpt lat="43.6667226" lon="10.4349379"><ele>1.0</ele><time>2026-03-25T13:23:06.904Z</time></trkpt><trkpt lat="43.6668618" lon="10.43485"><ele>1.0</ele><time>2026-03-25T13:23:07.904Z</time></trkpt><trkpt lat="43.6669959" lon="10.434763"><ele>1.0</ele><time>2026-03-25T13:23:08.904Z</time></trkpt><trkpt lat="43.6671313" lon="10.4346835"><ele>1.0</ele><time>2026-03-25T13:23:09.904Z</time></trkpt><trkpt lat="43.6672642" lon="10.4345967"><ele>1.5</ele><time>2026-03-25T13:23:10.905Z</time></trkpt><trkpt lat="43.667394" lon="10.4345229"><ele>2.0</ele><time>2026-03-25T13:23:11.904Z</time></trkpt><trkpt lat="43.6675172" lon="10.4344504"><ele>2.5</ele><time>2026-03-25T13:23:12.904Z</time></trkpt><trkpt lat="43.6676351" lon="10.4343829"><ele>3.0</ele><time>2026-03-25T13:23:13.904Z</time></trkpt><trkpt lat="43.6677517" lon="10.4343182"><ele>2.6</ele><time>2026-03-25T13:23:14.904Z</time></trkpt><trkpt lat="43.6678672" lon="10.4342578"><ele>2.1999999999999997</ele><time>2026-03-25T13:23:15.904Z</time></trkpt><trkpt lat="43.6679792" lon="10.4342123"><ele>1.8</ele><time>2026-03-25T13:23:16.903Z</time></trkpt><trkpt lat="43.6680801" lon="10.4341675"><ele>1.4</ele><time>2026-03-25T13:23:17.904Z</time></trkpt><trkpt lat="43.6681771" lon="10.4341304"><ele>1.0</ele><time>2026-03-25T13:23:18.904Z</time></trkpt><trkpt lat="43.6682677" lon="10.434107"><ele>0.9999999999999999</ele><time>2026-03-25T13:23:19.903Z</time></trkpt><trkpt lat="43.6683529" lon="10.4340979"><ele>1.0</ele><time>2026-03-25T13:23:20.905Z</time></trkpt><trkpt lat="43.6684343" lon="10.4341091"><ele>1.0</ele><time>2026-03-25T13:23:21.904Z</time></trkpt><trkpt lat="43.6685171" lon="10.4341428"><ele>1.0</ele><time>2026-03-25T13:23:22.903Z</time></trkpt><trkpt lat="43.6685903" lon="10.4341849"><ele>0.9999999999999999</ele><time>2026-03-25T13:23:23.904Z</time></trkpt><trkpt lat="43.6686967" lon="10.4342235"><ele>1.0</ele><time>2026-03-25T13:23:25.903Z</time></trkpt><trkpt lat="43.6687885" lon="10.4341605"><ele>1.0</ele><time>2026-03-25T13:23:27.903Z</time></trkpt><trkpt lat="43.6688515" lon="10.4340039"><ele>1.0</ele><time>2026-03-25T13:23:29.904Z</time></trkpt><trkpt lat="43.6688771" lon="10.4339202"><ele>1.0</ele><time>2026-03-25T13:23:30.903Z</time></trkpt><trkpt lat="43.6689468" lon="10.433848"><ele>1.0</ele><time>2026-03-25T13:23:31.904Z</time></trkpt><trkpt lat="43.6690276" lon="10.4337851"><ele>1.0</ele><time>2026-03-25T13:23:32.903Z</time></trkpt><trkpt lat="43.6691285" lon="10.4337263"><ele>0.75</ele><time>2026-03-25T13:23:33.904Z</time></trkpt><trkpt lat="43.6692518" lon="10.4336637"><ele>0.5</ele><time>2026-03-25T13:23:34.904Z</time></trkpt><trkpt lat="43.6693895" lon="10.4336004"><ele>0.25</ele><time>2026-03-25T13:23:35.904Z</time></trkpt><trkpt lat="43.6695314" lon="10.4335338"><ele>0.0</ele><time>2026-03-25T13:23:36.903Z</time></trkpt><trkpt lat="43.6696686" lon="10.4334743"><ele>0.0</ele><time>2026-03-25T13:23:37.903Z</time></trkpt><trkpt lat="43.6698124" lon="10.4334232"><ele>0.0</ele><time>2026-03-25T13:23:38.903Z</time></trkpt><trkpt lat="43.6699673" lon="10.4333739"><ele>0.0</ele><time>2026-03-25T13:23:39.904Z</time></trkpt><trkpt lat="43.6701289" lon="10.433332"><ele>0.0</ele><time>2026-03-25T13:23:40.903Z</time></trkpt><trkpt lat="43.6703029" lon="10.43329"><ele>0.0</ele><time>2026-03-25T13:23:41.903Z</time></trkpt><trkpt lat="43.6704748" lon="10.433242"><ele>0.0</ele><time>2026-03-25T13:23:42.904Z</time></trkpt><trkpt lat="43.6706375" lon="10.4331982"><ele>0.0</ele><time>2026-03-25T13:23:43.905Z</time></trkpt><trkpt lat="43.6707975" lon="10.4331609"><ele>0.0</ele><time>2026-03-25T13:23:44.904Z</time></trkpt><trkpt lat="43.670964" lon="10.433118"><ele>0.0</ele><time>2026-03-25T13:23:45.903Z</time></trkpt><trkpt lat="43.6711367" lon="10.433066"><ele>0.0</ele><time>2026-03-25T13:23:46.903Z</time></trkpt><trkpt lat="43.6713154" lon="10.4330091"><ele>0.0</ele><time>2026-03-25T13:23:47.904Z</time></trkpt><trkpt lat="43.6715008" lon="10.4329509"><ele>0.0</ele><time>2026-03-25T13:23:48.905Z</time></trkpt><trkpt lat="43.6716951" lon="10.4328803"><ele>0.0</ele><time>2026-03-25T13:23:49.904Z</time></trkpt><trkpt lat="43.6718906" lon="10.4328035"><ele>0.0</ele><time>2026-03-25T13:23:50.904Z</time></trkpt><trkpt lat="43.6720843" lon="10.4327163"><ele>0.0</ele><time>2026-03-25T13:23:51.904Z</time></trkpt><trkpt lat="43.6722682" lon="10.432629"><ele>0.0</ele><time>2026-03-25T13:23:52.904Z</time></trkpt><trkpt lat="43.6724429" lon="10.4325405"><ele>0.0</ele><time>2026-03-25T13:23:53.904Z</time></trkpt><trkpt lat="43.6726165" lon="10.4324438"><ele>0.0</ele><time>2026-03-25T13:23:54.903Z</time></trkpt><trkpt lat="43.6727887" lon="10.4323445"><ele>0.0</ele><time>2026-03-25T13:23:55.903Z</time></trkpt><trkpt lat="43.6729645" lon="10.4322388"><ele>0.0</ele><time>2026-03-25T13:23:56.904Z</time></trkpt><trkpt lat="43.6731358" lon="10.4321367"><ele>0.0</ele><time>2026-03-25T13:23:57.903Z</time></trkpt><trkpt lat="43.6733074" lon="10.4320307"><ele>0.0</ele><time>2026-03-25T13:23:58.903Z</time></trkpt><trkpt lat="43.6734692" lon="10.4319301"><ele>0.0</ele><time>2026-03-25T13:23:59.905Z</time></trkpt><trkpt lat="43.6736247" lon="10.4318284"><ele>0.0</ele><time>2026-03-25T13:24:00.904Z</time></trkpt><trkpt lat="43.6737754" lon="10.4317303"><ele>0.0</ele><time>2026-03-25T13:24:01.905Z</time></trkpt><trkpt lat="43.6739197" lon="10.4316352"><ele>0.0</ele><time>2026-03-25T13:24:02.904Z</time></trkpt><trkpt lat="43.6740561" lon="10.4315474"><ele>0.0</ele><time>2026-03-25T13:24:03.904Z</time></trkpt><trkpt lat="43.6741853" lon="10.4314642"><ele>0.0</ele><time>2026-03-25T13:24:04.904Z</time></trkpt><trkpt lat="43.6743092" lon="10.4313823"><ele>0.0</ele><time>2026-03-25T13:24:05.903Z</time></trkpt><trkpt lat="43.6744188" lon="10.4313088"><ele>0.0</ele><time>2026-03-25T13:24:06.905Z</time></trkpt><trkpt lat="43.6745192" lon="10.431241"><ele>0.0</ele><time>2026-03-25T13:24:07.903Z</time></trkpt><trkpt lat="43.6746131" lon="10.4311819"><ele>0.16666666666666666</ele><time>2026-03-25T13:24:08.904Z</time></trkpt><trkpt lat="43.6747025" lon="10.4311348"><ele>0.3333333333333333</ele><time>2026-03-25T13:24:09.904Z</time></trkpt><trkpt lat="43.674789" lon="10.4310989"><ele>0.5</ele><time>2026-03-25T13:24:10.904Z</time></trkpt><trkpt lat="43.6748703" lon="10.4310772"><ele>0.6666666666666666</ele><time>2026-03-25T13:24:11.904Z</time></trkpt><trkpt lat="43.6749501" lon="10.4310619"><ele>0.8333333333333333</ele><time>2026-03-25T13:24:12.905Z</time></trkpt><trkpt lat="43.6750332" lon="10.4310743"><ele>1.0</ele><time>2026-03-25T13:24:13.904Z</time></trkpt><trkpt lat="43.6751124" lon="10.4311001"><ele>1.0</ele><time>2026-03-25T13:24:14.903Z</time></trkpt><trkpt lat="43.6751886" lon="10.4311318"><ele>1.0</ele><time>2026-03-25T13:24:15.904Z</time></trkpt><trkpt lat="43.6752787" lon="10.4311935"><ele>1.0</ele><time>2026-03-25T13:24:16.904Z</time></trkpt><trkpt lat="43.6753643" lon="10.431246"><ele>1.0</ele><time>2026-03-25T13:24:17.904Z</time></trkpt><trkpt lat="43.6754583" lon="10.4313095"><ele>1.0</ele><time>2026-03-25T13:24:18.903Z</time></trkpt><trkpt lat="43.6755583" lon="10.4313707"><ele>1.25</ele><time>2026-03-25T13:24:19.904Z</time></trkpt><trkpt lat="43.6756635" lon="10.4314366"><ele>1.5</ele><time>2026-03-25T13:24:20.904Z</time></trkpt><trkpt lat="43.6757665" lon="10.431508"><ele>1.75</ele><time>2026-03-25T13:24:21.904Z</time></trkpt><trkpt lat="43.675872" lon="10.4315746"><ele>2.0</ele><time>2026-03-25T13:24:22.904Z</time></trkpt><trkpt lat="43.6759725" lon="10.4316366"><ele>2.0</ele><time>2026-03-25T13:24:23.904Z</time></trkpt><trkpt lat="43.6760661" lon="10.431696"><ele>2.0</ele><time>2026-03-25T13:24:24.904Z</time></trkpt><trkpt lat="43.6761569" lon="10.431756"><ele>2.0</ele><time>2026-03-25T13:24:25.903Z</time></trkpt><trkpt lat="43.676244" lon="10.4318077"><ele>2.0</ele><time>2026-03-25T13:24:26.903Z</time></trkpt><trkpt lat="43.6763387" lon="10.4318712"><ele>2.0</ele><time>2026-03-25T13:24:27.904Z</time></trkpt><trkpt lat="43.6764374" lon="10.4319344"><ele>2.0</ele><time>2026-03-25T13:24:28.904Z</time></trkpt><trkpt lat="43.6765408" lon="10.4320034"><ele>2.0</ele><time>2026-03-25T13:24:29.904Z</time></trkpt><trkpt lat="43.6766506" lon="10.4320773"><ele>2.0</ele><time>2026-03-25T13:24:30.903Z</time></trkpt><trkpt lat="43.676768" lon="10.4321488"><ele>2.0</ele><time>2026-03-25T13:24:31.903Z</time></trkpt><trkpt lat="43.6768896" lon="10.4322325"><ele>2.5</ele><time>2026-03-25T13:24:32.904Z</time></trkpt><trkpt lat="43.6770017" lon="10.4323137"><ele>3.0</ele><time>2026-03-25T13:24:33.903Z</time></trkpt><trkpt lat="43.6771122" lon="10.4323856"><ele>3.5</ele><time>2026-03-25T13:24:34.904Z</time></trkpt><trkpt lat="43.6772193" lon="10.4324565"><ele>4.0</ele><time>2026-03-25T13:24:35.904Z</time></trkpt><trkpt lat="43.677319" lon="10.4325244"><ele>4.0</ele><time>2026-03-25T13:24:36.903Z</time></trkpt><trkpt lat="43.6774207" lon="10.4325943"><ele>4.0</ele><time>2026-03-25T13:24:37.904Z</time></trkpt><trkpt lat="43.6775166" lon="10.4326611"><ele>4.0</ele><time>2026-03-25T13:24:38.905Z</time></trkpt><trkpt lat="43.6776099" lon="10.4327187"><ele>4.0</ele><time>2026-03-25T13:24:39.903Z</time></trkpt><trkpt lat="43.6776986" lon="10.432782"><ele>4.0</ele><time>2026-03-25T13:24:40.905Z</time></trkpt><trkpt lat="43.6777951" lon="10.4328459"><ele>4.0</ele><time>2026-03-25T13:24:41.904Z</time></trkpt><trkpt lat="43.6778943" lon="10.4329135"><ele>4.0</ele><time>2026-03-25T13:24:42.904Z</time></trkpt><trkpt lat="43.6779894" lon="10.4329746"><ele>4.0</ele><time>2026-03-25T13:24:43.904Z</time></trkpt><trkpt lat="43.6780876" lon="10.433035"><ele>4.0</ele><time>2026-03-25T13:24:44.904Z</time></trkpt><trkpt lat="43.6781895" lon="10.4331012"><ele>4.0</ele><time>2026-03-25T13:24:45.904Z</time></trkpt><trkpt lat="43.678297" lon="10.4331736"><ele>4.0</ele><time>2026-03-25T13:24:46.904Z</time></trkpt><trkpt lat="43.6784134" lon="10.4332547"><ele>4.0</ele><time>2026-03-25T13:24:47.903Z</time></trkpt><trkpt lat="43.6785313" lon="10.4333363"><ele>4.0</ele><time>2026-03-25T13:24:48.904Z</time></trkpt><trkpt lat="43.6786466" lon="10.4334151"><ele>4.0</ele><time>2026-03-25T13:24:49.903Z</time></trkpt><trkpt lat="43.6787482" lon="10.4334769"><ele>3.6</ele><time>2026-03-25T13:24:50.903Z</time></trkpt><trkpt lat="43.6788418" lon="10.4335389"><ele>3.2</ele><time>2026-03-25T13:24:51.904Z</time></trkpt><trkpt lat="43.678931" lon="10.4335974"><ele>2.8000000000000003</ele><time>2026-03-25T13:24:52.904Z</time></trkpt><trkpt lat="43.6790109" lon="10.4336513"><ele>2.4000000000000004</ele><time>2026-03-25T13:24:53.903Z</time></trkpt><trkpt lat="43.6790849" lon="10.4337003"><ele>2.0</ele><time>2026-03-25T13:24:54.904Z</time></trkpt><trkpt lat="43.6791569" lon="10.4337495"><ele>1.9999999999999998</ele><time>2026-03-25T13:24:55.903Z</time></trkpt><trkpt lat="43.679223" lon="10.4337919"><ele>2.0</ele><time>2026-03-25T13:24:56.903Z</time></trkpt><trkpt lat="43.6792836" lon="10.4338329"><ele>2.0</ele><time>2026-03-25T13:24:57.905Z</time></trkpt><trkpt lat="43.679347" lon="10.4338681"><ele>2.0</ele><time>2026-03-25T13:24:58.904Z</time></trkpt><trkpt lat="43.6794124" lon="10.4339111"><ele>1.9999999999999998</ele><time>2026-03-25T13:24:59.904Z</time></trkpt><trkpt lat="43.6794869" lon="10.4339594"><ele>2.0</ele><time>2026-03-25T13:25:00.904Z</time></trkpt><trkpt lat="43.6795737" lon="10.4340082"><ele>2.0</ele><time>2026-03-25T13:25:01.904Z</time></trkpt><trkpt lat="43.6796733" lon="10.4340651"><ele>2.0</ele><time>2026-03-25T13:25:02.903Z</time></trkpt><trkpt lat="43.6797788" lon="10.4341385"><ele>2.0</ele><time>2026-03-25T13:25:03.903Z</time></trkpt><trkpt lat="43.6798863" lon="10.4342072"><ele>2.0</ele><time>2026-03-25T13:25:04.903Z</time></trkpt><trkpt lat="43.6799892" lon="10.4342688"><ele>2.0</ele><time>2026-03-25T13:25:05.904Z</time></trkpt><trkpt lat="43.6800822" lon="10.4343262"><ele>2.0</ele><time>2026-03-25T13:25:06.904Z</time></trkpt><trkpt lat="43.6802466" lon="10.4344382"><ele>2.0</ele><time>2026-03-25T13:25:08.904Z</time></trkpt><trkpt lat="43.6803233" lon="10.4344942"><ele>2.0</ele><time>2026-03-25T13:25:09.905Z</time></trkpt><trkpt lat="43.6803995" lon="10.4345479"><ele>2.2</ele><time>2026-03-25T13:25:10.904Z</time></trkpt><trkpt lat="43.6804793" lon="10.4346027"><ele>2.4000000000000004</ele><time>2026-03-25T13:25:11.903Z</time></trkpt><trkpt lat="43.6805626" lon="10.4346575"><ele>2.5999999999999996</ele><time>2026-03-25T13:25:12.903Z</time></trkpt><trkpt lat="43.6806493" lon="10.4347165"><ele>2.8</ele><time>2026-03-25T13:25:13.904Z</time></trkpt><trkpt lat="43.6807313" lon="10.4347691"><ele>3.0</ele><time>2026-03-25T13:25:14.904Z</time></trkpt><trkpt lat="43.6808091" lon="10.434818"><ele>2.8333333333333335</ele><time>2026-03-25T13:25:15.903Z</time></trkpt><trkpt lat="43.6808821" lon="10.4348669"><ele>2.6666666666666665</ele><time>2026-03-25T13:25:16.903Z</time></trkpt><trkpt lat="43.6809553" lon="10.434918"><ele>2.5</ele><time>2026-03-25T13:25:17.903Z</time></trkpt><trkpt lat="43.6810282" lon="10.4349682"><ele>2.333333333333333</ele><time>2026-03-25T13:25:18.905Z</time></trkpt><trkpt lat="43.6810997" lon="10.4350201"><ele>2.1666666666666665</ele><time>2026-03-25T13:25:19.904Z</time></trkpt><trkpt lat="43.6811752" lon="10.4350729"><ele>2.0</ele><time>2026-03-25T13:25:20.905Z</time></trkpt><trkpt lat="43.6812518" lon="10.4351222"><ele>1.9999999999999998</ele><time>2026-03-25T13:25:21.905Z</time></trkpt><trkpt lat="43.6813277" lon="10.4351694"><ele>2.0</ele><time>2026-03-25T13:25:22.903Z</time></trkpt><trkpt lat="43.6813966" lon="10.4352145"><ele>2.0</ele><time>2026-03-25T13:25:23.903Z</time></trkpt><trkpt lat="43.6814592" lon="10.4352613"><ele>2.0</ele><time>2026-03-25T13:25:24.903Z</time></trkpt><trkpt lat="43.6815225" lon="10.4353042"><ele>1.9999999999999998</ele><time>2026-03-25T13:25:25.904Z</time></trkpt><trkpt lat="43.6815882" lon="10.4353523"><ele>2.0</ele><time>2026-03-25T13:25:26.903Z</time></trkpt><trkpt lat="43.6816576" lon="10.4353965"><ele>2.0</ele><time>2026-03-25T13:25:27.904Z</time></trkpt><trkpt lat="43.6817243" lon="10.4354377"><ele>1.9999999999999998</ele><time>2026-03-25T13:25:28.903Z</time></trkpt><trkpt lat="43.6817927" lon="10.4354763"><ele>2.0</ele><time>2026-03-25T13:25:29.905Z</time></trkpt><trkpt lat="43.6818575" lon="10.435515"><ele>2.0</ele><time>2026-03-25T13:25:30.903Z</time></trkpt><trkpt lat="43.6819245" lon="10.4355578"><ele>1.9999999999999998</ele><time>2026-03-25T13:25:31.904Z</time></trkpt><trkpt lat="43.6819906" lon="10.4356045"><ele>2.0</ele><time>2026-03-25T13:25:32.904Z</time></trkpt><trkpt lat="43.6820606" lon="10.4356555"><ele>2.0</ele><time>2026-03-25T13:25:33.904Z</time></trkpt><trkpt lat="43.682121" lon="10.4356985"><ele>2.1666666666666665</ele><time>2026-03-25T13:25:34.903Z</time></trkpt><trkpt lat="43.6822308" lon="10.4357691"><ele>2.333333333333333</ele><time>2026-03-25T13:25:36.904Z</time></trkpt><trkpt lat="43.6823061" lon="10.4358184"><ele>2.5</ele><time>2026-03-25T13:25:38.904Z</time></trkpt><trkpt lat="43.6823756" lon="10.4358634"><ele>2.6666666666666665</ele><time>2026-03-25T13:25:41.903Z</time></trkpt><trkpt lat="43.6824386" lon="10.4359376"><ele>2.8333333333333335</ele><time>2026-03-25T13:25:46.904Z</time></trkpt><trkpt lat="43.6824903" lon="10.4360034"><ele>3.0</ele><time>2026-03-25T13:25:48.903Z</time></trkpt><trkpt lat="43.6825551" lon="10.436001"><ele>3.0</ele><time>2026-03-25T13:25:50.903Z</time></trkpt><trkpt lat="43.6826009" lon="10.4359133"><ele>3.0</ele><time>2026-03-25T13:25:52.904Z</time></trkpt><trkpt lat="43.6826345" lon="10.4357709"><ele>3.0</ele><time>2026-03-25T13:25:54.903Z</time></trkpt><trkpt lat="43.6826594" lon="10.4356833"><ele>3.0</ele><time>2026-03-25T13:25:55.904Z</time></trkpt><trkpt lat="43.6826863" lon="10.4355837"><ele>3.0</ele><time>2026-03-25T13:25:56.903Z</time></trkpt><trkpt lat="43.6827303" lon="10.4354472"><ele>3.0</ele><time>2026-03-25T13:25:57.904Z</time></trkpt><trkpt lat="43.682771" lon="10.4353064"><ele>3.0</ele><time>2026-03-25T13:25:58.905Z</time></trkpt><trkpt lat="43.6828212" lon="10.4351539"><ele>3.0</ele><time>2026-03-25T13:25:59.904Z</time></trkpt><trkpt lat="43.6828865" lon="10.4349781"><ele>3.0</ele><time>2026-03-25T13:26:00.904Z</time></trkpt><trkpt lat="43.6829593" lon="10.4347758"><ele>3.0</ele><time>2026-03-25T13:26:01.905Z</time></trkpt><trkpt lat="43.683037" lon="10.4345508"><ele>3.0</ele><time>2026-03-25T13:26:02.904Z</time></trkpt><trkpt lat="43.6831137" lon="10.4343301"><ele>3.0</ele><time>2026-03-25T13:26:03.904Z</time></trkpt><trkpt lat="43.6831874" lon="10.4341186"><ele>3.0</ele><time>2026-03-25T13:26:04.905Z</time></trkpt><trkpt lat="43.6832632" lon="10.433907"><ele>2.3333333333333335</ele><time>2026-03-25T13:26:05.904Z</time></trkpt><trkpt lat="43.6833435" lon="10.433683"><ele>1.6666666666666665</ele><time>2026-03-25T13:26:06.903Z</time></trkpt><trkpt lat="43.6834252" lon="10.43345"><ele>1.0</ele><time>2026-03-25T13:26:07.905Z</time></trkpt><trkpt lat="43.6834981" lon="10.4332363"><ele>1.0</ele><time>2026-03-25T13:26:08.903Z</time></trkpt><trkpt lat="43.6835693" lon="10.4330341"><ele>1.0</ele><time>2026-03-25T13:26:09.905Z</time></trkpt><trkpt lat="43.6836387" lon="10.4328363"><ele>1.0</ele><time>2026-03-25T13:26:10.905Z</time></trkpt><trkpt lat="43.6837126" lon="10.4326216"><ele>1.3333333333333333</ele><time>2026-03-25T13:26:11.903Z</time></trkpt><trkpt lat="43.6837868" lon="10.4324132"><ele>1.6666666666666665</ele><time>2026-03-25T13:26:12.904Z</time></trkpt><trkpt lat="43.6838536" lon="10.4322181"><ele>2.0</ele><time>2026-03-25T13:26:13.904Z</time></trkpt><trkpt lat="43.6839195" lon="10.4320388"><ele>2.0</ele><time>2026-03-25T13:26:14.904Z</time></trkpt><trkpt lat="43.6839821" lon="10.43187"><ele>2.0</ele><time>2026-03-25T13:26:15.904Z</time></trkpt><trkpt lat="43.6840468" lon="10.4317084"><ele>2.0</ele><time>2026-03-25T13:26:16.903Z</time></trkpt><trkpt lat="43.6840902" lon="10.431588"><ele>2.0</ele><time>2026-03-25T13:26:17.904Z</time></trkpt><trkpt lat="43.684133" lon="10.4314694"><ele>2.0</ele><time>2026-03-25T13:26:18.903Z</time></trkpt><trkpt lat="43.684172" lon="10.4313749"><ele>1.9999999999999998</ele><time>2026-03-25T13:26:19.904Z</time></trkpt><trkpt lat="43.6842095" lon="10.4313"><ele>2.0</ele><time>2026-03-25T13:26:20.905Z</time></trkpt><trkpt lat="43.6842543" lon="10.4312344"><ele>2.0</ele><time>2026-03-25T13:26:21.903Z</time></trkpt><trkpt lat="43.6843086" lon="10.4311839"><ele>1.9999999999999998</ele><time>2026-03-25T13:26:22.904Z</time></trkpt><trkpt lat="43.6843786" lon="10.4311314"><ele>2.0</ele><time>2026-03-25T13:26:23.904Z</time></trkpt><trkpt lat="43.6844554" lon="10.4310962"><ele>2.0</ele><time>2026-03-25T13:26:24.905Z</time></trkpt><trkpt lat="43.6845337" lon="10.4310855"><ele>2.0</ele><time>2026-03-25T13:26:25.904Z</time></trkpt><trkpt lat="43.6846174" lon="10.4311009"><ele>2.0</ele><time>2026-03-25T13:26:26.904Z</time></trkpt><trkpt lat="43.6847071" lon="10.4311338"><ele>2.0</ele><time>2026-03-25T13:26:27.905Z</time></trkpt><trkpt lat="43.6848056" lon="10.4311912"><ele>2.0</ele><time>2026-03-25T13:26:28.903Z</time></trkpt><trkpt lat="43.6849235" lon="10.4312671"><ele>2.0</ele><time>2026-03-25T13:26:29.904Z</time></trkpt><trkpt lat="43.6850538" lon="10.4313479"><ele>2.333333333333333</ele><time>2026-03-25T13:26:30.904Z</time></trkpt><trkpt lat="43.6851834" lon="10.4314294"><ele>2.6666666666666665</ele><time>2026-03-25T13:26:31.904Z</time></trkpt><trkpt lat="43.6853241" lon="10.4315225"><ele>3.0</ele><time>2026-03-25T13:26:32.905Z</time></trkpt><trkpt lat="43.6854761" lon="10.4316199"><ele>1.6666666666666667</ele><time>2026-03-25T13:26:33.903Z</time></trkpt><trkpt lat="43.6856323" lon="10.431725"><ele>0.33333333333333337</ele><time>2026-03-25T13:26:34.903Z</time></trkpt><trkpt lat="43.6857916" lon="10.4318337"><ele>-1.0</ele><time>2026-03-25T13:26:35.904Z</time></trkpt><trkpt lat="43.6859428" lon="10.4319379"><ele>-1.0</ele><time>2026-03-25T13:26:36.904Z</time></trkpt><trkpt lat="43.6860876" lon="10.432041"><ele>-1.0</ele><time>2026-03-25T13:26:37.904Z</time></trkpt><trkpt lat="43.6862279" lon="10.4321389"><ele>-1.0</ele><time>2026-03-25T13:26:38.904Z</time></trkpt><trkpt lat="43.686363" lon="10.4322261"><ele>-0.5</ele><time>2026-03-25T13:26:39.905Z</time></trkpt><trkpt lat="43.6864867" lon="10.4323033"><ele>0.0</ele><time>2026-03-25T13:26:40.903Z</time></trkpt><trkpt lat="43.6866038" lon="10.4323785"><ele>0.5</ele><time>2026-03-25T13:26:41.904Z</time></trkpt><trkpt lat="43.6867116" lon="10.432448"><ele>1.0</ele><time>2026-03-25T13:26:42.904Z</time></trkpt><trkpt lat="43.686804" lon="10.432507"><ele>0.9999999999999999</ele><time>2026-03-25T13:26:43.904Z</time></trkpt><trkpt lat="43.6868813" lon="10.4325599"><ele>1.0</ele><time>2026-03-25T13:26:44.905Z</time></trkpt><trkpt lat="43.6869465" lon="10.4326101"><ele>1.0</ele><time>2026-03-25T13:26:45.904Z</time></trkpt><trkpt lat="43.6870014" lon="10.4326544"><ele>1.0</ele><time>2026-03-25T13:26:46.905Z</time></trkpt><trkpt lat="43.6870892" lon="10.4327681"><ele>0.9999999999999999</ele><time>2026-03-25T13:26:48.904Z</time></trkpt><trkpt lat="43.6871292" lon="10.432839"><ele>1.0</ele><time>2026-03-25T13:26:49.903Z</time></trkpt><trkpt lat="43.6871751" lon="10.4329031"><ele>1.0</ele><time>2026-03-25T13:26:50.905Z</time></trkpt><trkpt lat="43.6872865" lon="10.4329558"><ele>1.0</ele><time>2026-03-25T13:26:52.904Z</time></trkpt><trkpt lat="43.6873667" lon="10.432966"><ele>1.0</ele><time>2026-03-25T13:26:53.904Z</time></trkpt><trkpt lat="43.687466" lon="10.4329841"><ele>1.0</ele><time>2026-03-25T13:26:54.904Z</time></trkpt><trkpt lat="43.6875642" lon="10.4330111"><ele>1.0</ele><time>2026-03-25T13:26:55.904Z</time></trkpt><trkpt lat="43.6876917" lon="10.4331092"><ele>1.0</ele><time>2026-03-25T13:26:56.903Z</time></trkpt><trkpt lat="43.6878309" lon="10.4331989"><ele>1.0</ele><time>2026-03-25T13:26:57.904Z</time></trkpt><trkpt lat="43.6879669" lon="10.4332888"><ele>1.0</ele><time>2026-03-25T13:26:58.904Z</time></trkpt><trkpt lat="43.6881097" lon="10.4333872"><ele>1.0</ele><time>2026-03-25T13:26:59.905Z</time></trkpt><trkpt lat="43.6882689" lon="10.4334962"><ele>1.0</ele><time>2026-03-25T13:27:00.904Z</time></trkpt><trkpt lat="43.688445" lon="10.4336115"><ele>1.0</ele><time>2026-03-25T13:27:01.905Z</time></trkpt><trkpt lat="43.6886209" lon="10.4337324"><ele>1.3333333333333333</ele><time>2026-03-25T13:27:02.903Z</time></trkpt><trkpt lat="43.688791" lon="10.4338487"><ele>1.6666666666666665</ele><time>2026-03-25T13:27:03.904Z</time></trkpt><trkpt lat="43.6889693" lon="10.43397"><ele>2.0</ele><time>2026-03-25T13:27:04.903Z</time></trkpt><trkpt lat="43.689147" lon="10.4340921"><ele>2.0</ele><time>2026-03-25T13:27:05.904Z</time></trkpt><trkpt lat="43.6893264" lon="10.4342152"><ele>2.0</ele><time>2026-03-25T13:27:06.903Z</time></trkpt><trkpt lat="43.6895066" lon="10.4343361"><ele>2.0</ele><time>2026-03-25T13:27:07.904Z</time></trkpt><trkpt lat="43.6896871" lon="10.4344558"><ele>2.333333333333333</ele><time>2026-03-25T13:27:08.904Z</time></trkpt><trkpt lat="43.6898722" lon="10.4345643"><ele>2.6666666666666665</ele><time>2026-03-25T13:27:09.904Z</time></trkpt><trkpt lat="43.6900525" lon="10.4346787"><ele>3.0</ele><time>2026-03-25T13:27:10.904Z</time></trkpt><trkpt lat="43.6902429" lon="10.4347776"><ele>2.3333333333333335</ele><time>2026-03-25T13:27:11.904Z</time></trkpt><trkpt lat="43.6904385" lon="10.4348702"><ele>1.6666666666666665</ele><time>2026-03-25T13:27:12.903Z</time></trkpt><trkpt lat="43.6906358" lon="10.4349528"><ele>1.0</ele><time>2026-03-25T13:27:13.905Z</time></trkpt><trkpt lat="43.6908259" lon="10.4350267"><ele>1.0</ele><time>2026-03-25T13:27:14.903Z</time></trkpt><trkpt lat="43.6910178" lon="10.4350843"><ele>1.0</ele><time>2026-03-25T13:27:15.904Z</time></trkpt><trkpt lat="43.6912048" lon="10.4351183"><ele>1.0</ele><time>2026-03-25T13:27:16.904Z</time></trkpt><trkpt lat="43.6914024" lon="10.4351378"><ele>1.3333333333333333</ele><time>2026-03-25T13:27:17.904Z</time></trkpt><trkpt lat="43.6916104" lon="10.4351419"><ele>1.6666666666666665</ele><time>2026-03-25T13:27:18.903Z</time></trkpt><trkpt lat="43.6918281" lon="10.4351399"><ele>2.0</ele><time>2026-03-25T13:27:19.904Z</time></trkpt><trkpt lat="43.6920525" lon="10.4351275"><ele>2.0</ele><time>2026-03-25T13:27:20.903Z</time></trkpt><trkpt lat="43.6922834" lon="10.4351134"><ele>2.0</ele><time>2026-03-25T13:27:21.904Z</time></trkpt><trkpt lat="43.6925227" lon="10.4350986"><ele>3.0</ele><time>2026-03-25T13:27:22.905Z</time></trkpt><trkpt lat="43.6927624" lon="10.4350864"><ele>4.0</ele><time>2026-03-25T13:27:23.903Z</time></trkpt><trkpt lat="43.6930015" lon="10.43507"><ele>4.0</ele><time>2026-03-25T13:27:24.904Z</time></trkpt><trkpt lat="43.6932254" lon="10.435055"><ele>4.0</ele><time>2026-03-25T13:27:25.903Z</time></trkpt><trkpt lat="43.6934382" lon="10.43504"><ele>4.0</ele><time>2026-03-25T13:27:26.904Z</time></trkpt><trkpt lat="43.693646" lon="10.4350349"><ele>4.0</ele><time>2026-03-25T13:27:27.904Z</time></trkpt><trkpt lat="43.6938567" lon="10.4350276"><ele>4.0</ele><time>2026-03-25T13:27:28.904Z</time></trkpt><trkpt lat="43.6940702" lon="10.4350162"><ele>4.0</ele><time>2026-03-25T13:27:29.904Z</time></trkpt><trkpt lat="43.6942796" lon="10.4350077"><ele>4.333333333333333</ele><time>2026-03-25T13:27:30.904Z</time></trkpt><trkpt lat="43.6944873" lon="10.4349998"><ele>4.666666666666667</ele><time>2026-03-25T13:27:31.903Z</time></trkpt><trkpt lat="43.6946896" lon="10.4350025"><ele>5.0</ele><time>2026-03-25T13:27:32.904Z</time></trkpt><trkpt lat="43.6948909" lon="10.4350152"><ele>5.0</ele><time>2026-03-25T13:27:33.904Z</time></trkpt><trkpt lat="43.6950975" lon="10.4350381"><ele>5.0</ele><time>2026-03-25T13:27:34.903Z</time></trkpt><trkpt lat="43.6953061" lon="10.4350682"><ele>5.0</ele><time>2026-03-25T13:27:35.903Z</time></trkpt><trkpt lat="43.695518" lon="10.4351101"><ele>5.333333333333334</ele><time>2026-03-25T13:27:36.904Z</time></trkpt><trkpt lat="43.6957286" lon="10.4351613"><ele>5.666666666666667</ele><time>2026-03-25T13:27:37.903Z</time></trkpt><trkpt lat="43.6959465" lon="10.4352232"><ele>6.0</ele><time>2026-03-25T13:27:38.903Z</time></trkpt><trkpt lat="43.696164" lon="10.4352891"><ele>6.5</ele><time>2026-03-25T13:27:39.905Z</time></trkpt><trkpt lat="43.6963878" lon="10.4353556"><ele>7.0</ele><time>2026-03-25T13:27:40.905Z</time></trkpt><trkpt lat="43.6966092" lon="10.4354214"><ele>6.333333333333334</ele><time>2026-03-25T13:27:41.904Z</time></trkpt><trkpt lat="43.6968077" lon="10.4354857"><ele>5.666666666666667</ele><time>2026-03-25T13:27:42.904Z</time></trkpt><trkpt lat="43.6969959" lon="10.4355496"><ele>5.0</ele><time>2026-03-25T13:27:43.903Z</time></trkpt><trkpt lat="43.6971816" lon="10.4356025"><ele>5.0</ele><time>2026-03-25T13:27:44.905Z</time></trkpt><trkpt lat="43.6973687" lon="10.4356593"><ele>5.0</ele><time>2026-03-25T13:27:45.903Z</time></trkpt><trkpt lat="43.6975568" lon="10.4357216"><ele>5.0</ele><time>2026-03-25T13:27:46.905Z</time></trkpt><trkpt lat="43.6977494" lon="10.4357855"><ele>4.0</ele><time>2026-03-25T13:27:47.904Z</time></trkpt><trkpt lat="43.697944" lon="10.4358515"><ele>3.0</ele><time>2026-03-25T13:27:48.904Z</time></trkpt><trkpt lat="43.6981431" lon="10.4359183"><ele>2.0</ele><time>2026-03-25T13:27:49.903Z</time></trkpt><trkpt lat="43.698336" lon="10.4359796"><ele>2.0</ele><time>2026-03-25T13:27:50.904Z</time></trkpt><trkpt lat="43.6985194" lon="10.4360346"><ele>2.0</ele><time>2026-03-25T13:27:51.904Z</time></trkpt><trkpt lat="43.6986996" lon="10.436087"><ele>2.0</ele><time>2026-03-25T13:27:52.904Z</time></trkpt><trkpt lat="43.6988751" lon="10.4361286"><ele>3.0</ele><time>2026-03-25T13:27:53.904Z</time></trkpt><trkpt lat="43.6990417" lon="10.4361642"><ele>4.0</ele><time>2026-03-25T13:27:54.903Z</time></trkpt><trkpt lat="43.6992014" lon="10.4361911"><ele>5.0</ele><time>2026-03-25T13:27:55.905Z</time></trkpt><trkpt lat="43.6993534" lon="10.4362082"><ele>4.75</ele><time>2026-03-25T13:27:56.904Z</time></trkpt><trkpt lat="43.6994972" lon="10.4362167"><ele>4.5</ele><time>2026-03-25T13:27:57.903Z</time></trkpt><trkpt lat="43.6996319" lon="10.4362219"><ele>4.25</ele><time>2026-03-25T13:27:58.904Z</time></trkpt><trkpt lat="43.6997568" lon="10.4362249"><ele>4.0</ele><time>2026-03-25T13:27:59.904Z</time></trkpt><trkpt lat="43.6998681" lon="10.4362215"><ele>3.9999999999999996</ele><time>2026-03-25T13:28:00.905Z</time></trkpt><trkpt lat="43.6999695" lon="10.4362157"><ele>4.0</ele><time>2026-03-25T13:28:01.903Z</time></trkpt><trkpt lat="43.7000561" lon="10.436216"><ele>4.0</ele><time>2026-03-25T13:28:02.905Z</time></trkpt><trkpt lat="43.7001387" lon="10.4362364"><ele>4.0</ele><time>2026-03-25T13:28:03.904Z</time></trkpt><trkpt lat="43.7002139" lon="10.4362745"><ele>3.9999999999999996</ele><time>2026-03-25T13:28:04.904Z</time></trkpt><trkpt lat="43.7002845" lon="10.4363264"><ele>4.0</ele><time>2026-03-25T13:28:05.904Z</time></trkpt><trkpt lat="43.7003587" lon="10.4363686"><ele>3.8000000000000003</ele><time>2026-03-25T13:28:06.904Z</time></trkpt><trkpt lat="43.7004365" lon="10.436389"><ele>3.6000000000000005</ele><time>2026-03-25T13:28:07.903Z</time></trkpt><trkpt lat="43.7005904" lon="10.436333"><ele>3.4</ele><time>2026-03-25T13:28:09.904Z</time></trkpt><trkpt lat="43.700672" lon="10.4362764"><ele>3.2</ele><time>2026-03-25T13:28:10.904Z</time></trkpt><trkpt lat="43.7007583" lon="10.4362206"><ele>3.0</ele><time>2026-03-25T13:28:11.905Z</time></trkpt><trkpt lat="43.7008504" lon="10.436186"><ele>3.0</ele><time>2026-03-25T13:28:12.904Z</time></trkpt><trkpt lat="43.700949" lon="10.4361719"><ele>3.0</ele><time>2026-03-25T13:28:13.903Z</time></trkpt><trkpt lat="43.7010452" lon="10.4361598"><ele>3.0</ele><time>2026-03-25T13:28:14.904Z</time></trkpt><trkpt lat="43.7011397" lon="10.4361428"><ele>3.0</ele><time>2026-03-25T13:28:15.903Z</time></trkpt><trkpt lat="43.7012371" lon="10.4361306"><ele>3.0</ele><time>2026-03-25T13:28:16.903Z</time></trkpt><trkpt lat="43.701329" lon="10.4361247"><ele>3.0</ele><time>2026-03-25T13:28:17.904Z</time></trkpt><trkpt lat="43.7014417" lon="10.4360982"><ele>3.0</ele><time>2026-03-25T13:28:18.903Z</time></trkpt><trkpt lat="43.7015501" lon="10.4360798"><ele>3.0</ele><time>2026-03-25T13:28:19.904Z</time></trkpt><trkpt lat="43.7016684" lon="10.4360663"><ele>3.0</ele><time>2026-03-25T13:28:20.904Z</time></trkpt><trkpt lat="43.7017956" lon="10.4360541"><ele>3.0</ele><time>2026-03-25T13:28:21.903Z</time></trkpt><trkpt lat="43.701924" lon="10.4360461"><ele>3.0</ele><time>2026-03-25T13:28:22.904Z</time></trkpt><trkpt lat="43.7020396" lon="10.4360356"><ele>3.0</ele><time>2026-03-25T13:28:23.904Z</time></trkpt><trkpt lat="43.7021409" lon="10.4360334"><ele>3.0</ele><time>2026-03-25T13:28:24.903Z</time></trkpt><trkpt lat="43.7022342" lon="10.436024"><ele>3.0</ele><time>2026-03-25T13:28:25.903Z</time></trkpt><trkpt lat="43.7023178" lon="10.4360179"><ele>2.9999999999999996</ele><time>2026-03-25T13:28:26.905Z</time></trkpt><trkpt lat="43.7023882" lon="10.4360164"><ele>3.0</ele><time>2026-03-25T13:28:27.905Z</time></trkpt><trkpt lat="43.7024625" lon="10.4360089"><ele>3.0</ele><time>2026-03-25T13:28:28.904Z</time></trkpt><trkpt lat="43.7025305" lon="10.4360004"><ele>3.0</ele><time>2026-03-25T13:28:29.905Z</time></trkpt><trkpt lat="43.7026014" lon="10.4359962"><ele>3.0</ele><time>2026-03-25T13:28:30.903Z</time></trkpt><trkpt lat="43.7026783" lon="10.4359868"><ele>2.9999999999999996</ele><time>2026-03-25T13:28:31.903Z</time></trkpt><trkpt lat="43.7027575" lon="10.4359803"><ele>3.0</ele><time>2026-03-25T13:28:32.904Z</time></trkpt><trkpt lat="43.7028376" lon="10.4359689"><ele>2.6</ele><time>2026-03-25T13:28:33.905Z</time></trkpt><trkpt lat="43.7029199" lon="10.435962"><ele>2.1999999999999997</ele><time>2026-03-25T13:28:34.904Z</time></trkpt><trkpt lat="43.7030113" lon="10.4359538"><ele>1.8</ele><time>2026-03-25T13:28:35.903Z</time></trkpt><trkpt lat="43.7031101" lon="10.4359446"><ele>1.4</ele><time>2026-03-25T13:28:36.903Z</time></trkpt><trkpt lat="43.7032186" lon="10.4359397"><ele>1.0</ele><time>2026-03-25T13:28:37.903Z</time></trkpt><trkpt lat="43.7033292" lon="10.4359389"><ele>1.0</ele><time>2026-03-25T13:28:38.904Z</time></trkpt><trkpt lat="43.7034436" lon="10.4359291"><ele>1.0</ele><time>2026-03-25T13:28:39.904Z</time></trkpt><trkpt lat="43.7035648" lon="10.4359152"><ele>1.0</ele><time>2026-03-25T13:28:40.904Z</time></trkpt><trkpt lat="43.7036905" lon="10.4359055"><ele>1.0</ele><time>2026-03-25T13:28:41.903Z</time></trkpt><trkpt lat="43.7038204" lon="10.4358884"><ele>2.0</ele><time>2026-03-25T13:28:42.904Z</time></trkpt><trkpt lat="43.7039517" lon="10.435878"><ele>3.0</ele><time>2026-03-25T13:28:43.904Z</time></trkpt><trkpt lat="43.7040855" lon="10.4358645"><ele>4.0</ele><time>2026-03-25T13:28:44.904Z</time></trkpt><trkpt lat="43.7042169" lon="10.4358533"><ele>5.0</ele><time>2026-03-25T13:28:45.903Z</time></trkpt><trkpt lat="43.7043413" lon="10.4358402"><ele>5.0</ele><time>2026-03-25T13:28:46.904Z</time></trkpt><trkpt lat="43.7044585" lon="10.4358319"><ele>5.0</ele><time>2026-03-25T13:28:47.905Z</time></trkpt><trkpt lat="43.7045698" lon="10.4358228"><ele>5.0</ele><time>2026-03-25T13:28:48.903Z</time></trkpt><trkpt lat="43.7046777" lon="10.4358068"><ele>5.0</ele><time>2026-03-25T13:28:49.904Z</time></trkpt><trkpt lat="43.7047818" lon="10.4357953"><ele>5.0</ele><time>2026-03-25T13:28:50.903Z</time></trkpt><trkpt lat="43.7048807" lon="10.4357834"><ele>5.0</ele><time>2026-03-25T13:28:51.904Z</time></trkpt><trkpt lat="43.7049751" lon="10.4357719"><ele>5.0</ele><time>2026-03-25T13:28:52.904Z</time></trkpt><trkpt lat="43.7050742" lon="10.4357595"><ele>5.0</ele><time>2026-03-25T13:28:53.904Z</time></trkpt><trkpt lat="43.7051773" lon="10.4357542"><ele>5.0</ele><time>2026-03-25T13:28:54.904Z</time></trkpt><trkpt lat="43.7052856" lon="10.4357445"><ele>5.0</ele><time>2026-03-25T13:28:55.904Z</time></trkpt><trkpt lat="43.7053882" lon="10.4357369"><ele>4.8</ele><time>2026-03-25T13:28:56.904Z</time></trkpt><trkpt lat="43.7054865" lon="10.4357299"><ele>4.6</ele><time>2026-03-25T13:28:57.904Z</time></trkpt><trkpt lat="43.7055831" lon="10.4357209"><ele>4.4</ele><time>2026-03-25T13:28:58.903Z</time></trkpt><trkpt lat="43.7056813" lon="10.4357076"><ele>4.2</ele><time>2026-03-25T13:28:59.903Z</time></trkpt><trkpt lat="43.7057747" lon="10.4356989"><ele>4.0</ele><time>2026-03-25T13:29:00.905Z</time></trkpt><trkpt lat="43.7058621" lon="10.4356953"><ele>3.9999999999999996</ele><time>2026-03-25T13:29:01.903Z</time></trkpt><trkpt lat="43.7059459" lon="10.4356916"><ele>4.0</ele><time>2026-03-25T13:29:02.904Z</time></trkpt><trkpt lat="43.706025" lon="10.4356973"><ele>4.0</ele><time>2026-03-25T13:29:03.903Z</time></trkpt><trkpt lat="43.7061037" lon="10.4357041"><ele>4.0</ele><time>2026-03-25T13:29:04.903Z</time></trkpt><trkpt lat="43.7061783" lon="10.4357117"><ele>3.9999999999999996</ele><time>2026-03-25T13:29:05.903Z</time></trkpt><trkpt lat="43.7062612" lon="10.4357315"><ele>4.0</ele><time>2026-03-25T13:29:06.904Z</time></trkpt><trkpt lat="43.7063584" lon="10.4357614"><ele>4.0</ele><time>2026-03-25T13:29:07.904Z</time></trkpt><trkpt lat="43.7064574" lon="10.4357886"><ele>4.0</ele><time>2026-03-25T13:29:08.903Z</time></trkpt><trkpt lat="43.7065474" lon="10.4358231"><ele>4.0</ele><time>2026-03-25T13:29:09.903Z</time></trkpt><trkpt lat="43.7066342" lon="10.4358562"><ele>4.0</ele><time>2026-03-25T13:29:10.903Z</time></trkpt><trkpt lat="43.7067224" lon="10.4358754"><ele>4.0</ele><time>2026-03-25T13:29:11.904Z</time></trkpt><trkpt lat="43.7068032" lon="10.4358665"><ele>3.9999999999999996</ele><time>2026-03-25T13:29:12.904Z</time></trkpt><trkpt lat="43.7068806" lon="10.4358315"><ele>4.0</ele><time>2026-03-25T13:29:13.904Z</time></trkpt><trkpt lat="43.7069492" lon="10.435769"><ele>4.0</ele><time>2026-03-25T13:29:14.904Z</time></trkpt><trkpt lat="43.7070036" lon="10.4356832"><ele>4.0</ele><time>2026-03-25T13:29:15.904Z</time></trkpt><trkpt lat="43.7070416" lon="10.4355813"><ele>3.9999999999999996</ele><time>2026-03-25T13:29:16.903Z</time></trkpt><trkpt lat="43.7070618" lon="10.4354653"><ele>4.0</ele><time>2026-03-25T13:29:17.904Z</time></trkpt><trkpt lat="43.7070644" lon="10.4353325"><ele>3.75</ele><time>2026-03-25T13:29:18.904Z</time></trkpt><trkpt lat="43.7070615" lon="10.4351797"><ele>3.5</ele><time>2026-03-25T13:29:19.905Z</time></trkpt><trkpt lat="43.7070666" lon="10.4350016"><ele>3.25</ele><time>2026-03-25T13:29:20.904Z</time></trkpt><trkpt lat="43.7070817" lon="10.4348208"><ele>3.0</ele><time>2026-03-25T13:29:21.903Z</time></trkpt><trkpt lat="43.7071051" lon="10.4346325"><ele>3.0</ele><time>2026-03-25T13:29:22.904Z</time></trkpt><trkpt lat="43.7071415" lon="10.4344307"><ele>3.0</ele><time>2026-03-25T13:29:23.903Z</time></trkpt><trkpt lat="43.7071926" lon="10.4342362"><ele>3.0</ele><time>2026-03-25T13:29:24.903Z</time></trkpt><trkpt lat="43.7072545" lon="10.4340421"><ele>3.0</ele><time>2026-03-25T13:29:25.903Z</time></trkpt><trkpt lat="43.7073199" lon="10.4338577"><ele>3.0</ele><time>2026-03-25T13:29:26.904Z</time></trkpt><trkpt lat="43.7073845" lon="10.433683"><ele>3.0</ele><time>2026-03-25T13:29:27.903Z</time></trkpt><trkpt lat="43.7074423" lon="10.4335149"><ele>3.0</ele><time>2026-03-25T13:29:28.903Z</time></trkpt><trkpt lat="43.7074995" lon="10.4333509"><ele>3.0</ele><time>2026-03-25T13:29:29.905Z</time></trkpt><trkpt lat="43.7075605" lon="10.4331893"><ele>3.0</ele><time>2026-03-25T13:29:30.903Z</time></trkpt><trkpt lat="43.707618" lon="10.4330295"><ele>3.0</ele><time>2026-03-25T13:29:31.903Z</time></trkpt><trkpt lat="43.7076788" lon="10.4328637"><ele>3.0</ele><time>2026-03-25T13:29:32.905Z</time></trkpt><trkpt lat="43.7077411" lon="10.4326909"><ele>2.75</ele><time>2026-03-25T13:29:33.904Z</time></trkpt><trkpt lat="43.7078079" lon="10.432514"><ele>2.5</ele><time>2026-03-25T13:29:34.904Z</time></trkpt><trkpt lat="43.7078746" lon="10.4323383"><ele>2.25</ele><time>2026-03-25T13:29:35.905Z</time></trkpt><trkpt lat="43.707938" lon="10.4321613"><ele>2.0</ele><time>2026-03-25T13:29:36.904Z</time></trkpt><trkpt lat="43.7080017" lon="10.431991"><ele>2.0</ele><time>2026-03-25T13:29:37.904Z</time></trkpt><trkpt lat="43.7080637" lon="10.4318188"><ele>2.0</ele><time>2026-03-25T13:29:38.904Z</time></trkpt><trkpt lat="43.7081238" lon="10.4316463"><ele>2.0</ele><time>2026-03-25T13:29:39.904Z</time></trkpt><trkpt lat="43.7081826" lon="10.4314777"><ele>2.0</ele><time>2026-03-25T13:29:40.903Z</time></trkpt><trkpt lat="43.7082371" lon="10.4313256"><ele>1.8</ele><time>2026-03-25T13:29:41.905Z</time></trkpt><trkpt lat="43.7082875" lon="10.4311822"><ele>1.6</ele><time>2026-03-25T13:29:42.903Z</time></trkpt><trkpt lat="43.7083322" lon="10.4310561"><ele>1.4000000000000001</ele><time>2026-03-25T13:29:43.904Z</time></trkpt><trkpt lat="43.70837" lon="10.4309474"><ele>1.2000000000000002</ele><time>2026-03-25T13:29:44.904Z</time></trkpt><trkpt lat="43.708404" lon="10.4308522"><ele>1.0</ele><time>2026-03-25T13:29:45.903Z</time></trkpt><trkpt lat="43.7084337" lon="10.4307607"><ele>0.9999999999999999</ele><time>2026-03-25T13:29:46.903Z</time></trkpt><trkpt lat="43.7084618" lon="10.4306805"><ele>1.0</ele><time>2026-03-25T13:29:47.905Z</time></trkpt><trkpt lat="43.7085025" lon="10.4305701"><ele>1.0</ele><time>2026-03-25T13:29:49.904Z</time></trkpt><trkpt lat="43.7085344" lon="10.4304773"><ele>1.0</ele><time>2026-03-25T13:29:52.903Z</time></trkpt><trkpt lat="43.7085643" lon="10.4303734"><ele>0.9999999999999999</ele><time>2026-03-25T13:30:11.904Z</time></trkpt><trkpt lat="43.7086213" lon="10.4302219"><ele>1.0</ele><time>2026-03-25T13:30:13.904Z</time></trkpt><trkpt lat="43.7086536" lon="10.430137"><ele>0.9999999999999999</ele><time>2026-03-25T13:30:14.903Z</time></trkpt><trkpt lat="43.7086832" lon="10.4300561"><ele>1.0</ele><time>2026-03-25T13:30:15.903Z</time></trkpt><trkpt lat="43.7087114" lon="10.4299771"><ele>1.0</ele><time>2026-03-25T13:30:16.904Z</time></trkpt><trkpt lat="43.7087429" lon="10.4298859"><ele>1.0</ele><time>2026-03-25T13:30:17.904Z</time></trkpt><trkpt lat="43.7087802" lon="10.4297798"><ele>0.9999999999999999</ele><time>2026-03-25T13:30:18.903Z</time></trkpt><trkpt lat="43.7088238" lon="10.429659"><ele>1.0</ele><time>2026-03-25T13:30:19.903Z</time></trkpt><trkpt lat="43.7088657" lon="10.4295423"><ele>1.1666666666666665</ele><time>2026-03-25T13:30:20.905Z</time></trkpt><trkpt lat="43.7089044" lon="10.4294292"><ele>1.3333333333333333</ele><time>2026-03-25T13:30:21.904Z</time></trkpt><trkpt lat="43.7089409" lon="10.4293277"><ele>1.5</ele><time>2026-03-25T13:30:22.904Z</time></trkpt><trkpt lat="43.7089748" lon="10.429231"><ele>1.6666666666666665</ele><time>2026-03-25T13:30:23.904Z</time></trkpt><trkpt lat="43.7090085" lon="10.4291271"><ele>1.8333333333333333</ele><time>2026-03-25T13:30:24.904Z</time></trkpt><trkpt lat="43.709043" lon="10.4290236"><ele>2.0</ele><time>2026-03-25T13:30:25.905Z</time></trkpt><trkpt lat="43.709082" lon="10.4289211"><ele>1.9999999999999998</ele><time>2026-03-25T13:30:26.904Z</time></trkpt><trkpt lat="43.7091214" lon="10.4288167"><ele>2.0</ele><time>2026-03-25T13:30:27.904Z</time></trkpt><trkpt lat="43.7091566" lon="10.4287114"><ele>2.0</ele><time>2026-03-25T13:30:28.903Z</time></trkpt><trkpt lat="43.7091907" lon="10.4286181"><ele>2.0</ele><time>2026-03-25T13:30:29.905Z</time></trkpt><trkpt lat="43.7092396" lon="10.4284774"><ele>1.9999999999999998</ele><time>2026-03-25T13:30:31.903Z</time></trkpt><trkpt lat="43.7092718" lon="10.4284002"><ele>2.0</ele><time>2026-03-25T13:30:33.903Z</time></trkpt><trkpt lat="43.7093016" lon="10.4283227"><ele>2.4000000000000004</ele><time>2026-03-25T13:30:35.904Z</time></trkpt><trkpt lat="43.7093708" lon="10.4282157"><ele>2.8000000000000003</ele><time>2026-03-25T13:30:37.904Z</time></trkpt><trkpt lat="43.7094508" lon="10.4281307"><ele>3.2</ele><time>2026-03-25T13:30:39.903Z</time></trkpt><trkpt lat="43.7095178" lon="10.428047"><ele>3.6</ele><time>2026-03-25T13:30:41.904Z</time></trkpt><trkpt lat="43.7095466" lon="10.427945"><ele>4.0</ele><time>2026-03-25T13:30:43.904Z</time></trkpt><trkpt lat="43.7095331" lon="10.4278367"><ele>4.0</ele><time>2026-03-25T13:30:45.904Z</time></trkpt><trkpt lat="43.7094659" lon="10.4277447"><ele>4.0</ele><time>2026-03-25T13:30:47.904Z</time></trkpt><trkpt lat="43.7093669" lon="10.4277351"><ele>4.0</ele><time>2026-03-25T13:30:49.904Z</time></trkpt><trkpt lat="43.7092861" lon="10.4278427"><ele>4.0</ele><time>2026-03-25T13:30:51.904Z</time></trkpt><trkpt lat="43.709256" lon="10.4280163"><ele>4.0</ele><time>2026-03-25T13:30:53.903Z</time></trkpt><trkpt lat="43.7092521" lon="10.4281267"><ele>3.9999999999999996</ele><time>2026-03-25T13:30:54.904Z</time></trkpt><trkpt lat="43.709234" lon="10.4282377"><ele>4.0</ele><time>2026-03-25T13:30:55.904Z</time></trkpt><trkpt lat="43.7092047" lon="10.428338"><ele>4.0</ele><time>2026-03-25T13:30:56.904Z</time></trkpt><trkpt lat="43.7091738" lon="10.4284357"><ele>4.0</ele><time>2026-03-25T13:30:57.903Z</time></trkpt><trkpt lat="43.7091344" lon="10.4285328"><ele>3.9999999999999996</ele><time>2026-03-25T13:30:58.904Z</time></trkpt><trkpt lat="43.7090945" lon="10.428641"><ele>4.0</ele><time>2026-03-25T13:30:59.903Z</time></trkpt><trkpt lat="43.7090504" lon="10.4287607"><ele>3.6</ele><time>2026-03-25T13:31:00.904Z</time></trkpt><trkpt lat="43.7090038" lon="10.4288916"><ele>3.2</ele><time>2026-03-25T13:31:01.904Z</time></trkpt><trkpt lat="43.70896" lon="10.4290193"><ele>2.8000000000000003</ele><time>2026-03-25T13:31:02.903Z</time></trkpt><trkpt lat="43.7089173" lon="10.4291336"><ele>2.4000000000000004</ele><time>2026-03-25T13:31:03.904Z</time></trkpt><trkpt lat="43.7088812" lon="10.429245"><ele>2.0</ele><time>2026-03-25T13:31:04.903Z</time></trkpt><trkpt lat="43.7088451" lon="10.4293422"><ele>2.0</ele><time>2026-03-25T13:31:05.903Z</time></trkpt><trkpt lat="43.7088107" lon="10.4294296"><ele>2.0</ele><time>2026-03-25T13:31:06.904Z</time></trkpt><trkpt lat="43.708763" lon="10.4295661"><ele>2.0</ele><time>2026-03-25T13:31:08.905Z</time></trkpt><trkpt lat="43.7087354" lon="10.4296522"><ele>2.0</ele><time>2026-03-25T13:31:10.904Z</time></trkpt><trkpt lat="43.7086995" lon="10.4297902"><ele>2.0</ele><time>2026-03-25T13:31:41.903Z</time></trkpt><trkpt lat="43.7086478" lon="10.4299173"><ele>1.9999999999999998</ele><time>2026-03-25T13:31:43.904Z</time></trkpt><trkpt lat="43.7085969" lon="10.4300483"><ele>2.0</ele><time>2026-03-25T13:31:45.904Z</time></trkpt><trkpt lat="43.7085632" lon="10.43014"><ele>2.0</ele><time>2026-03-25T13:31:46.904Z</time></trkpt><trkpt lat="43.7085245" lon="10.4302447"><ele>2.0</ele><time>2026-03-25T13:31:47.903Z</time></trkpt><trkpt lat="43.7084838" lon="10.4303568"><ele>1.9999999999999998</ele><time>2026-03-25T13:31:48.904Z</time></trkpt><trkpt lat="43.7084456" lon="10.4304698"><ele>2.0</ele><time>2026-03-25T13:31:49.903Z</time></trkpt><trkpt lat="43.7084136" lon="10.4305646"><ele>1.8333333333333333</ele><time>2026-03-25T13:31:50.905Z</time></trkpt><trkpt lat="43.7083832" lon="10.4306489"><ele>1.6666666666666665</ele><time>2026-03-25T13:31:51.905Z</time></trkpt><trkpt lat="43.7083539" lon="10.4307319"><ele>1.5</ele><time>2026-03-25T13:31:52.903Z</time></trkpt><trkpt lat="43.7082971" lon="10.4308761"><ele>1.3333333333333333</ele><time>2026-03-25T13:31:54.904Z</time></trkpt><trkpt lat="43.7082666" lon="10.4309652"><ele>1.1666666666666665</ele><time>2026-03-25T13:31:55.904Z</time></trkpt><trkpt lat="43.7082317" lon="10.4310634"><ele>1.0</ele><time>2026-03-25T13:31:56.905Z</time></trkpt><trkpt lat="43.7081959" lon="10.4311648"><ele>0.9999999999999999</ele><time>2026-03-25T13:31:57.904Z</time></trkpt><trkpt lat="43.7081598" lon="10.4312696"><ele>1.0</ele><time>2026-03-25T13:31:58.905Z</time></trkpt><trkpt lat="43.7081256" lon="10.431366"><ele>1.0</ele><time>2026-03-25T13:31:59.904Z</time></trkpt><trkpt lat="43.7080972" lon="10.4314543"><ele>1.0</ele><time>2026-03-25T13:32:00.904Z</time></trkpt><trkpt lat="43.7080706" lon="10.4315334"><ele>0.9999999999999999</ele><time>2026-03-25T13:32:01.904Z</time></trkpt><trkpt lat="43.7080062" lon="10.4316789"><ele>1.0</ele><time>2026-03-25T13:32:03.903Z</time></trkpt><trkpt lat="43.7079351" lon="10.4318158"><ele>2.0</ele><time>2026-03-25T13:32:05.905Z</time></trkpt><trkpt lat="43.7078727" lon="10.4319568"><ele>2.0</ele><time>2026-03-25T13:32:07.904Z</time></trkpt><trkpt lat="43.7078293" lon="10.4320705"><ele>2.0</ele><time>2026-03-25T13:32:09.903Z</time></trkpt><trkpt lat="43.7077997" lon="10.4321512"><ele>1.0</ele><time>2026-03-25T13:32:11.903Z</time></trkpt><trkpt lat="43.7077707" lon="10.4322375"><ele>1.0</ele><time>2026-03-25T13:32:14.904Z</time></trkpt></trkseg></trk></gpx>